<?xml version="1.0" encoding="UTF-8" standalone="no" ?>
<gpx xmlns="http://www.topografix.com/GPX/1/1" xmlns:xsi="http://www.w3.org/2001/XMLSchema-instance" xsi:schemaLocation="http://www.topografix.com/GPX/1/1 http://www.topografix.com/GPX/1/1/gpx.xsd" version="1.1" creator="VisuGPX - https://www.visugpx.com">
  <metadata>
    <name>ski rando CHARVET 2538m (col) POINTE DE CHOMBAS</name>
  </metadata>
  <trk>
    <name><![CDATA[ski rando CHARVET 2538m (col) POINTE DE CHOMBAS]]></name>
    <trkseg>
      <trkpt lat="45.94864" lon="6.51146">
        <ele>1177.1999511719</ele>
        <time>2015-02-07T07:29:56.000Z</time>
      </trkpt>
      <trkpt lat="45.94864" lon="6.51146">
        <ele>1176.1999511719</ele>
        <time>2015-02-07T07:30:06.000Z</time>
      </trkpt>
      <trkpt lat="45.94864" lon="6.51146">
        <ele>1176</ele>
        <time>2015-02-07T07:30:07.000Z</time>
      </trkpt>
      <trkpt lat="45.94865" lon="6.51146">
        <ele>1175.5999755859</ele>
        <time>2015-02-07T07:30:20.000Z</time>
      </trkpt>
      <trkpt lat="45.94862" lon="6.51147">
        <ele>1175.8000488281</ele>
        <time>2015-02-07T07:30:29.000Z</time>
      </trkpt>
      <trkpt lat="45.94863" lon="6.51147">
        <ele>1175.8000488281</ele>
        <time>2015-02-07T07:30:36.000Z</time>
      </trkpt>
      <trkpt lat="45.94865" lon="6.51147">
        <ele>1175.5999755859</ele>
        <time>2015-02-07T07:30:47.000Z</time>
      </trkpt>
      <trkpt lat="45.94865" lon="6.51147">
        <ele>1175.8000488281</ele>
        <time>2015-02-07T07:31:02.000Z</time>
      </trkpt>
      <trkpt lat="45.94865" lon="6.51147">
        <ele>1175.8000488281</ele>
        <time>2015-02-07T07:31:11.000Z</time>
      </trkpt>
      <trkpt lat="45.94865" lon="6.51148">
        <ele>1175.4000244141</ele>
        <time>2015-02-07T07:31:23.000Z</time>
      </trkpt>
      <trkpt lat="45.94865" lon="6.51148">
        <ele>1175.8000488281</ele>
        <time>2015-02-07T07:31:37.000Z</time>
      </trkpt>
      <trkpt lat="45.94865" lon="6.51148">
        <ele>1175.8000488281</ele>
        <time>2015-02-07T07:31:45.000Z</time>
      </trkpt>
      <trkpt lat="45.94865" lon="6.51148">
        <ele>1175.8000488281</ele>
        <time>2015-02-07T07:32:00.000Z</time>
      </trkpt>
      <trkpt lat="45.94865" lon="6.51148">
        <ele>1175.8000488281</ele>
        <time>2015-02-07T07:32:12.000Z</time>
      </trkpt>
      <trkpt lat="45.94865" lon="6.51148">
        <ele>1175.8000488281</ele>
        <time>2015-02-07T07:32:15.000Z</time>
      </trkpt>
      <trkpt lat="45.94865" lon="6.51148">
        <ele>1175.5999755859</ele>
        <time>2015-02-07T07:32:31.000Z</time>
      </trkpt>
      <trkpt lat="45.94866" lon="6.5115">
        <ele>1176</ele>
        <time>2015-02-07T07:32:40.000Z</time>
      </trkpt>
      <trkpt lat="45.94869" lon="6.51151">
        <ele>1176.1999511719</ele>
        <time>2015-02-07T07:32:50.000Z</time>
      </trkpt>
      <trkpt lat="45.9487" lon="6.51153">
        <ele>1177</ele>
        <time>2015-02-07T07:33:00.000Z</time>
      </trkpt>
      <trkpt lat="45.94871" lon="6.51155">
        <ele>1177</ele>
        <time>2015-02-07T07:33:03.000Z</time>
      </trkpt>
      <trkpt lat="45.94874" lon="6.51158">
        <ele>1177.1999511719</ele>
        <time>2015-02-07T07:33:07.000Z</time>
      </trkpt>
      <trkpt lat="45.94881" lon="6.51162">
        <ele>1178.1999511719</ele>
        <time>2015-02-07T07:33:13.000Z</time>
      </trkpt>
      <trkpt lat="45.94883" lon="6.51165">
        <ele>1178.4000244141</ele>
        <time>2015-02-07T07:33:16.000Z</time>
      </trkpt>
      <trkpt lat="45.94888" lon="6.51177">
        <ele>1179.1999511719</ele>
        <time>2015-02-07T07:33:23.000Z</time>
      </trkpt>
      <trkpt lat="45.94889" lon="6.51178">
        <ele>1179.1999511719</ele>
        <time>2015-02-07T07:33:24.000Z</time>
      </trkpt>
      <trkpt lat="45.94889" lon="6.51186">
        <ele>1180.1999511719</ele>
        <time>2015-02-07T07:33:29.000Z</time>
      </trkpt>
      <trkpt lat="45.9489" lon="6.5119">
        <ele>1180.8000488281</ele>
        <time>2015-02-07T07:33:34.000Z</time>
      </trkpt>
      <trkpt lat="45.94892" lon="6.51194">
        <ele>1180.5999755859</ele>
        <time>2015-02-07T07:33:43.000Z</time>
      </trkpt>
      <trkpt lat="45.94892" lon="6.51194">
        <ele>1181.4000244141</ele>
        <time>2015-02-07T07:33:45.000Z</time>
      </trkpt>
      <trkpt lat="45.94897" lon="6.51201">
        <ele>1181.8000488281</ele>
        <time>2015-02-07T07:33:51.000Z</time>
      </trkpt>
      <trkpt lat="45.949" lon="6.51211">
        <ele>1182.5999755859</ele>
        <time>2015-02-07T07:33:58.000Z</time>
      </trkpt>
      <trkpt lat="45.94901" lon="6.51212">
        <ele>1182.8000488281</ele>
        <time>2015-02-07T07:33:59.000Z</time>
      </trkpt>
      <trkpt lat="45.94904" lon="6.51221">
        <ele>1183.8000488281</ele>
        <time>2015-02-07T07:34:06.000Z</time>
      </trkpt>
      <trkpt lat="45.94905" lon="6.51223">
        <ele>1184</ele>
        <time>2015-02-07T07:34:08.000Z</time>
      </trkpt>
      <trkpt lat="45.94908" lon="6.51233">
        <ele>1184.8000488281</ele>
        <time>2015-02-07T07:34:16.000Z</time>
      </trkpt>
      <trkpt lat="45.94909" lon="6.51234">
        <ele>1184.8000488281</ele>
        <time>2015-02-07T07:34:17.000Z</time>
      </trkpt>
      <trkpt lat="45.94913" lon="6.51239">
        <ele>1185.8000488281</ele>
        <time>2015-02-07T07:34:22.000Z</time>
      </trkpt>
      <trkpt lat="45.94916" lon="6.51243">
        <ele>1186</ele>
        <time>2015-02-07T07:34:25.000Z</time>
      </trkpt>
      <trkpt lat="45.94923" lon="6.5125">
        <ele>1186.8000488281</ele>
        <time>2015-02-07T07:34:33.000Z</time>
      </trkpt>
      <trkpt lat="45.94928" lon="6.51258">
        <ele>1188</ele>
        <time>2015-02-07T07:34:39.000Z</time>
      </trkpt>
      <trkpt lat="45.9493" lon="6.51261">
        <ele>1188.4000244141</ele>
        <time>2015-02-07T07:34:41.000Z</time>
      </trkpt>
      <trkpt lat="45.94934" lon="6.51266">
        <ele>1189.1999511719</ele>
        <time>2015-02-07T07:34:46.000Z</time>
      </trkpt>
      <trkpt lat="45.94935" lon="6.51268">
        <ele>1189.8000488281</ele>
        <time>2015-02-07T07:34:49.000Z</time>
      </trkpt>
      <trkpt lat="45.94934" lon="6.51272">
        <ele>1190.1999511719</ele>
        <time>2015-02-07T07:34:53.000Z</time>
      </trkpt>
      <trkpt lat="45.94932" lon="6.51276">
        <ele>1190.8000488281</ele>
        <time>2015-02-07T07:34:56.000Z</time>
      </trkpt>
      <trkpt lat="45.9493" lon="6.51281">
        <ele>1191</ele>
        <time>2015-02-07T07:35:02.000Z</time>
      </trkpt>
      <trkpt lat="45.94933" lon="6.51286">
        <ele>1191.5999755859</ele>
        <time>2015-02-07T07:35:06.000Z</time>
      </trkpt>
      <trkpt lat="45.94935" lon="6.51291">
        <ele>1192</ele>
        <time>2015-02-07T07:35:09.000Z</time>
      </trkpt>
      <trkpt lat="45.94938" lon="6.51295">
        <ele>1192.5999755859</ele>
        <time>2015-02-07T07:35:12.000Z</time>
      </trkpt>
      <trkpt lat="45.94942" lon="6.51303">
        <ele>1192.8000488281</ele>
        <time>2015-02-07T07:35:17.000Z</time>
      </trkpt>
      <trkpt lat="45.94946" lon="6.5131">
        <ele>1193.5999755859</ele>
        <time>2015-02-07T07:35:22.000Z</time>
      </trkpt>
      <trkpt lat="45.94946" lon="6.5131">
        <ele>1193.8000488281</ele>
        <time>2015-02-07T07:35:23.000Z</time>
      </trkpt>
      <trkpt lat="45.94948" lon="6.51313">
        <ele>1194.4000244141</ele>
        <time>2015-02-07T07:35:26.000Z</time>
      </trkpt>
      <trkpt lat="45.94949" lon="6.51316">
        <ele>1194.8000488281</ele>
        <time>2015-02-07T07:35:29.000Z</time>
      </trkpt>
      <trkpt lat="45.94953" lon="6.51324">
        <ele>1195.5999755859</ele>
        <time>2015-02-07T07:35:36.000Z</time>
      </trkpt>
      <trkpt lat="45.94953" lon="6.51326">
        <ele>1196</ele>
        <time>2015-02-07T07:35:38.000Z</time>
      </trkpt>
      <trkpt lat="45.94955" lon="6.51331">
        <ele>1197.1999511719</ele>
        <time>2015-02-07T07:35:43.000Z</time>
      </trkpt>
      <trkpt lat="45.94957" lon="6.51331">
        <ele>1197.4000244141</ele>
        <time>2015-02-07T07:35:44.000Z</time>
      </trkpt>
      <trkpt lat="45.94962" lon="6.51335">
        <ele>1198.1999511719</ele>
        <time>2015-02-07T07:35:48.000Z</time>
      </trkpt>
      <trkpt lat="45.94963" lon="6.51339">
        <ele>1198.8000488281</ele>
        <time>2015-02-07T07:35:52.000Z</time>
      </trkpt>
      <trkpt lat="45.94967" lon="6.51353">
        <ele>1199.5999755859</ele>
        <time>2015-02-07T07:35:58.000Z</time>
      </trkpt>
      <trkpt lat="45.94968" lon="6.51356">
        <ele>1200</ele>
        <time>2015-02-07T07:36:00.000Z</time>
      </trkpt>
      <trkpt lat="45.94969" lon="6.51366">
        <ele>1200.5999755859</ele>
        <time>2015-02-07T07:36:06.000Z</time>
      </trkpt>
      <trkpt lat="45.94969" lon="6.51367">
        <ele>1200.8000488281</ele>
        <time>2015-02-07T07:36:07.000Z</time>
      </trkpt>
      <trkpt lat="45.9497" lon="6.51376">
        <ele>1201.5999755859</ele>
        <time>2015-02-07T07:36:13.000Z</time>
      </trkpt>
      <trkpt lat="45.94972" lon="6.51381">
        <ele>1202</ele>
        <time>2015-02-07T07:36:16.000Z</time>
      </trkpt>
      <trkpt lat="45.94974" lon="6.51389">
        <ele>1202.5999755859</ele>
        <time>2015-02-07T07:36:21.000Z</time>
      </trkpt>
      <trkpt lat="45.94975" lon="6.51393">
        <ele>1203.4000244141</ele>
        <time>2015-02-07T07:36:24.000Z</time>
      </trkpt>
      <trkpt lat="45.94977" lon="6.51396">
        <ele>1203.8000488281</ele>
        <time>2015-02-07T07:36:26.000Z</time>
      </trkpt>
      <trkpt lat="45.94979" lon="6.51404">
        <ele>1204</ele>
        <time>2015-02-07T07:36:31.000Z</time>
      </trkpt>
      <trkpt lat="45.9498" lon="6.51411">
        <ele>1204.8000488281</ele>
        <time>2015-02-07T07:36:36.000Z</time>
      </trkpt>
      <trkpt lat="45.9498" lon="6.51413">
        <ele>1205</ele>
        <time>2015-02-07T07:36:38.000Z</time>
      </trkpt>
      <trkpt lat="45.94982" lon="6.51423">
        <ele>1205.8000488281</ele>
        <time>2015-02-07T07:36:45.000Z</time>
      </trkpt>
      <trkpt lat="45.94985" lon="6.5143">
        <ele>1207</ele>
        <time>2015-02-07T07:36:51.000Z</time>
      </trkpt>
      <trkpt lat="45.94988" lon="6.51437">
        <ele>1207.5999755859</ele>
        <time>2015-02-07T07:36:58.000Z</time>
      </trkpt>
      <trkpt lat="45.9499" lon="6.5144">
        <ele>1208</ele>
        <time>2015-02-07T07:37:00.000Z</time>
      </trkpt>
      <trkpt lat="45.94991" lon="6.51446">
        <ele>1208.8000488281</ele>
        <time>2015-02-07T07:37:05.000Z</time>
      </trkpt>
      <trkpt lat="45.94992" lon="6.51451">
        <ele>1209.1999511719</ele>
        <time>2015-02-07T07:37:07.000Z</time>
      </trkpt>
      <trkpt lat="45.94996" lon="6.51462">
        <ele>1210.4000244141</ele>
        <time>2015-02-07T07:37:13.000Z</time>
      </trkpt>
      <trkpt lat="45.94997" lon="6.51463">
        <ele>1210.5999755859</ele>
        <time>2015-02-07T07:37:14.000Z</time>
      </trkpt>
      <trkpt lat="45.95001" lon="6.51475">
        <ele>1211.4000244141</ele>
        <time>2015-02-07T07:37:21.000Z</time>
      </trkpt>
      <trkpt lat="45.95001" lon="6.51477">
        <ele>1211.5999755859</ele>
        <time>2015-02-07T07:37:22.000Z</time>
      </trkpt>
      <trkpt lat="45.95004" lon="6.51486">
        <ele>1212.4000244141</ele>
        <time>2015-02-07T07:37:28.000Z</time>
      </trkpt>
      <trkpt lat="45.95004" lon="6.51486">
        <ele>1212.5999755859</ele>
        <time>2015-02-07T07:37:29.000Z</time>
      </trkpt>
      <trkpt lat="45.95007" lon="6.51493">
        <ele>1213.5999755859</ele>
        <time>2015-02-07T07:37:34.000Z</time>
      </trkpt>
      <trkpt lat="45.95009" lon="6.51501">
        <ele>1214.4000244141</ele>
        <time>2015-02-07T07:37:40.000Z</time>
      </trkpt>
      <trkpt lat="45.95009" lon="6.51504">
        <ele>1214.8000488281</ele>
        <time>2015-02-07T07:37:43.000Z</time>
      </trkpt>
      <trkpt lat="45.9501" lon="6.51509">
        <ele>1215.4000244141</ele>
        <time>2015-02-07T07:37:47.000Z</time>
      </trkpt>
      <trkpt lat="45.95011" lon="6.51511">
        <ele>1215.5999755859</ele>
        <time>2015-02-07T07:37:48.000Z</time>
      </trkpt>
      <trkpt lat="45.95012" lon="6.51515">
        <ele>1216</ele>
        <time>2015-02-07T07:37:51.000Z</time>
      </trkpt>
      <trkpt lat="45.95012" lon="6.5152">
        <ele>1216.5999755859</ele>
        <time>2015-02-07T07:37:55.000Z</time>
      </trkpt>
      <trkpt lat="45.95013" lon="6.51523">
        <ele>1217</ele>
        <time>2015-02-07T07:37:58.000Z</time>
      </trkpt>
      <trkpt lat="45.95013" lon="6.51528">
        <ele>1217.8000488281</ele>
        <time>2015-02-07T07:38:02.000Z</time>
      </trkpt>
      <trkpt lat="45.95015" lon="6.5153">
        <ele>1218.1999511719</ele>
        <time>2015-02-07T07:38:04.000Z</time>
      </trkpt>
      <trkpt lat="45.95016" lon="6.51536">
        <ele>1218.8000488281</ele>
        <time>2015-02-07T07:38:08.000Z</time>
      </trkpt>
      <trkpt lat="45.95018" lon="6.51544">
        <ele>1219.4000244141</ele>
        <time>2015-02-07T07:38:13.000Z</time>
      </trkpt>
      <trkpt lat="45.95018" lon="6.51548">
        <ele>1220</ele>
        <time>2015-02-07T07:38:15.000Z</time>
      </trkpt>
      <trkpt lat="45.95019" lon="6.51556">
        <ele>1220.5999755859</ele>
        <time>2015-02-07T07:38:19.000Z</time>
      </trkpt>
      <trkpt lat="45.9502" lon="6.51559">
        <ele>1221</ele>
        <time>2015-02-07T07:38:22.000Z</time>
      </trkpt>
      <trkpt lat="45.95022" lon="6.51564">
        <ele>1221.8000488281</ele>
        <time>2015-02-07T07:38:26.000Z</time>
      </trkpt>
      <trkpt lat="45.95024" lon="6.51567">
        <ele>1222.1999511719</ele>
        <time>2015-02-07T07:38:29.000Z</time>
      </trkpt>
      <trkpt lat="45.95028" lon="6.51574">
        <ele>1222.8000488281</ele>
        <time>2015-02-07T07:38:35.000Z</time>
      </trkpt>
      <trkpt lat="45.95028" lon="6.51576">
        <ele>1223</ele>
        <time>2015-02-07T07:38:36.000Z</time>
      </trkpt>
      <trkpt lat="45.95031" lon="6.51583">
        <ele>1223.8000488281</ele>
        <time>2015-02-07T07:38:40.000Z</time>
      </trkpt>
      <trkpt lat="45.95032" lon="6.51589">
        <ele>1224.1999511719</ele>
        <time>2015-02-07T07:38:43.000Z</time>
      </trkpt>
      <trkpt lat="45.95035" lon="6.51596">
        <ele>1225</ele>
        <time>2015-02-07T07:38:47.000Z</time>
      </trkpt>
      <trkpt lat="45.95037" lon="6.51599">
        <ele>1225.1999511719</ele>
        <time>2015-02-07T07:38:50.000Z</time>
      </trkpt>
      <trkpt lat="45.9504" lon="6.51604">
        <ele>1226.1999511719</ele>
        <time>2015-02-07T07:38:54.000Z</time>
      </trkpt>
      <trkpt lat="45.95042" lon="6.51608">
        <ele>1226.8000488281</ele>
        <time>2015-02-07T07:38:57.000Z</time>
      </trkpt>
      <trkpt lat="45.95044" lon="6.51611">
        <ele>1227.4000244141</ele>
        <time>2015-02-07T07:39:00.000Z</time>
      </trkpt>
      <trkpt lat="45.95046" lon="6.51613">
        <ele>1228</ele>
        <time>2015-02-07T07:39:03.000Z</time>
      </trkpt>
      <trkpt lat="45.9505" lon="6.51617">
        <ele>1228.4000244141</ele>
        <time>2015-02-07T07:39:07.000Z</time>
      </trkpt>
      <trkpt lat="45.95051" lon="6.51618">
        <ele>1228.5999755859</ele>
        <time>2015-02-07T07:39:09.000Z</time>
      </trkpt>
      <trkpt lat="45.95053" lon="6.51623">
        <ele>1229.4000244141</ele>
        <time>2015-02-07T07:39:12.000Z</time>
      </trkpt>
      <trkpt lat="45.95053" lon="6.51628">
        <ele>1229.5999755859</ele>
        <time>2015-02-07T07:39:14.000Z</time>
      </trkpt>
      <trkpt lat="45.95054" lon="6.51631">
        <ele>1229.8000488281</ele>
        <time>2015-02-07T07:39:16.000Z</time>
      </trkpt>
      <trkpt lat="45.95055" lon="6.51637">
        <ele>1230.4000244141</ele>
        <time>2015-02-07T07:39:19.000Z</time>
      </trkpt>
      <trkpt lat="45.95057" lon="6.51645">
        <ele>1231</ele>
        <time>2015-02-07T07:39:24.000Z</time>
      </trkpt>
      <trkpt lat="45.95058" lon="6.51649">
        <ele>1231.5999755859</ele>
        <time>2015-02-07T07:39:27.000Z</time>
      </trkpt>
      <trkpt lat="45.9506" lon="6.51656">
        <ele>1232.5999755859</ele>
        <time>2015-02-07T07:39:32.000Z</time>
      </trkpt>
      <trkpt lat="45.95064" lon="6.51661">
        <ele>1233.5999755859</ele>
        <time>2015-02-07T07:39:38.000Z</time>
      </trkpt>
      <trkpt lat="45.95064" lon="6.51662">
        <ele>1233.8000488281</ele>
        <time>2015-02-07T07:39:39.000Z</time>
      </trkpt>
      <trkpt lat="45.95066" lon="6.51672">
        <ele>1234.8000488281</ele>
        <time>2015-02-07T07:39:44.000Z</time>
      </trkpt>
      <trkpt lat="45.95067" lon="6.51673">
        <ele>1234.8000488281</ele>
        <time>2015-02-07T07:39:45.000Z</time>
      </trkpt>
      <trkpt lat="45.9507" lon="6.51679">
        <ele>1235.8000488281</ele>
        <time>2015-02-07T07:39:50.000Z</time>
      </trkpt>
      <trkpt lat="45.95071" lon="6.51682">
        <ele>1236.1999511719</ele>
        <time>2015-02-07T07:39:52.000Z</time>
      </trkpt>
      <trkpt lat="45.95074" lon="6.51687">
        <ele>1237</ele>
        <time>2015-02-07T07:39:57.000Z</time>
      </trkpt>
      <trkpt lat="45.95074" lon="6.51689">
        <ele>1237.5999755859</ele>
        <time>2015-02-07T07:39:59.000Z</time>
      </trkpt>
      <trkpt lat="45.95075" lon="6.51691">
        <ele>1238</ele>
        <time>2015-02-07T07:40:02.000Z</time>
      </trkpt>
      <trkpt lat="45.95078" lon="6.51698">
        <ele>1239.1999511719</ele>
        <time>2015-02-07T07:40:08.000Z</time>
      </trkpt>
      <trkpt lat="45.9508" lon="6.51703">
        <ele>1240.1999511719</ele>
        <time>2015-02-07T07:40:13.000Z</time>
      </trkpt>
      <trkpt lat="45.9508" lon="6.51706">
        <ele>1240.1999511719</ele>
        <time>2015-02-07T07:40:14.000Z</time>
      </trkpt>
      <trkpt lat="45.95081" lon="6.51715">
        <ele>1241.1999511719</ele>
        <time>2015-02-07T07:40:20.000Z</time>
      </trkpt>
      <trkpt lat="45.95081" lon="6.51718">
        <ele>1241.8000488281</ele>
        <time>2015-02-07T07:40:22.000Z</time>
      </trkpt>
      <trkpt lat="45.95083" lon="6.51724">
        <ele>1242.4000244141</ele>
        <time>2015-02-07T07:40:26.000Z</time>
      </trkpt>
      <trkpt lat="45.95084" lon="6.51727">
        <ele>1243</ele>
        <time>2015-02-07T07:40:29.000Z</time>
      </trkpt>
      <trkpt lat="45.95085" lon="6.51731">
        <ele>1243.4000244141</ele>
        <time>2015-02-07T07:40:31.000Z</time>
      </trkpt>
      <trkpt lat="45.95086" lon="6.51731">
        <ele>1243.5999755859</ele>
        <time>2015-02-07T07:40:32.000Z</time>
      </trkpt>
      <trkpt lat="45.95087" lon="6.51734">
        <ele>1244</ele>
        <time>2015-02-07T07:40:35.000Z</time>
      </trkpt>
      <trkpt lat="45.95089" lon="6.51739">
        <ele>1244.4000244141</ele>
        <time>2015-02-07T07:40:38.000Z</time>
      </trkpt>
      <trkpt lat="45.95091" lon="6.51745">
        <ele>1245.1999511719</ele>
        <time>2015-02-07T07:40:43.000Z</time>
      </trkpt>
      <trkpt lat="45.95091" lon="6.51748">
        <ele>1245.5999755859</ele>
        <time>2015-02-07T07:40:45.000Z</time>
      </trkpt>
      <trkpt lat="45.95094" lon="6.51752">
        <ele>1246.1999511719</ele>
        <time>2015-02-07T07:40:47.000Z</time>
      </trkpt>
      <trkpt lat="45.95095" lon="6.51756">
        <ele>1246.5999755859</ele>
        <time>2015-02-07T07:40:50.000Z</time>
      </trkpt>
      <trkpt lat="45.95095" lon="6.51758">
        <ele>1246.5999755859</ele>
        <time>2015-02-07T07:40:51.000Z</time>
      </trkpt>
      <trkpt lat="45.95098" lon="6.51762">
        <ele>1247.4000244141</ele>
        <time>2015-02-07T07:40:56.000Z</time>
      </trkpt>
      <trkpt lat="45.95101" lon="6.51766">
        <ele>1247.8000488281</ele>
        <time>2015-02-07T07:41:01.000Z</time>
      </trkpt>
      <trkpt lat="45.95101" lon="6.51767">
        <ele>1247.8000488281</ele>
        <time>2015-02-07T07:41:02.000Z</time>
      </trkpt>
      <trkpt lat="45.95102" lon="6.51769">
        <ele>1248.4000244141</ele>
        <time>2015-02-07T07:41:08.000Z</time>
      </trkpt>
      <trkpt lat="45.95105" lon="6.51779">
        <ele>1248.8000488281</ele>
        <time>2015-02-07T07:41:14.000Z</time>
      </trkpt>
      <trkpt lat="45.95105" lon="6.51779">
        <ele>1249</ele>
        <time>2015-02-07T07:41:15.000Z</time>
      </trkpt>
      <trkpt lat="45.95108" lon="6.51787">
        <ele>1249.5999755859</ele>
        <time>2015-02-07T07:41:21.000Z</time>
      </trkpt>
      <trkpt lat="45.95109" lon="6.51791">
        <ele>1249.8000488281</ele>
        <time>2015-02-07T07:41:24.000Z</time>
      </trkpt>
      <trkpt lat="45.95109" lon="6.51796">
        <ele>1250.1999511719</ele>
        <time>2015-02-07T07:41:28.000Z</time>
      </trkpt>
      <trkpt lat="45.9511" lon="6.51799">
        <ele>1250.5999755859</ele>
        <time>2015-02-07T07:41:38.000Z</time>
      </trkpt>
      <trkpt lat="45.95112" lon="6.51802">
        <ele>1250.8000488281</ele>
        <time>2015-02-07T07:41:43.000Z</time>
      </trkpt>
      <trkpt lat="45.95113" lon="6.51803">
        <ele>1251</ele>
        <time>2015-02-07T07:41:44.000Z</time>
      </trkpt>
      <trkpt lat="45.95115" lon="6.51807">
        <ele>1251.8000488281</ele>
        <time>2015-02-07T07:41:50.000Z</time>
      </trkpt>
      <trkpt lat="45.95115" lon="6.51807">
        <ele>1252.1999511719</ele>
        <time>2015-02-07T07:41:51.000Z</time>
      </trkpt>
      <trkpt lat="45.95114" lon="6.51808">
        <ele>1252.4000244141</ele>
        <time>2015-02-07T07:42:01.000Z</time>
      </trkpt>
      <trkpt lat="45.95113" lon="6.51805">
        <ele>1252.1999511719</ele>
        <time>2015-02-07T07:42:08.000Z</time>
      </trkpt>
      <trkpt lat="45.95112" lon="6.51802">
        <ele>1251.5999755859</ele>
        <time>2015-02-07T07:42:15.000Z</time>
      </trkpt>
      <trkpt lat="45.95109" lon="6.51799">
        <ele>1251.5999755859</ele>
        <time>2015-02-07T07:42:21.000Z</time>
      </trkpt>
      <trkpt lat="45.95107" lon="6.51798">
        <ele>1251.5999755859</ele>
        <time>2015-02-07T07:42:22.000Z</time>
      </trkpt>
      <trkpt lat="45.95103" lon="6.51794">
        <ele>1251</ele>
        <time>2015-02-07T07:42:25.000Z</time>
      </trkpt>
      <trkpt lat="45.95102" lon="6.51793">
        <ele>1250.8000488281</ele>
        <time>2015-02-07T07:42:26.000Z</time>
      </trkpt>
      <trkpt lat="45.95095" lon="6.5179">
        <ele>1250</ele>
        <time>2015-02-07T07:42:30.000Z</time>
      </trkpt>
      <trkpt lat="45.95093" lon="6.51789">
        <ele>1250</ele>
        <time>2015-02-07T07:42:31.000Z</time>
      </trkpt>
      <trkpt lat="45.95086" lon="6.51784">
        <ele>1249</ele>
        <time>2015-02-07T07:42:36.000Z</time>
      </trkpt>
      <trkpt lat="45.95078" lon="6.51782">
        <ele>1248.1999511719</ele>
        <time>2015-02-07T07:42:41.000Z</time>
      </trkpt>
      <trkpt lat="45.95075" lon="6.5178">
        <ele>1247.8000488281</ele>
        <time>2015-02-07T07:42:44.000Z</time>
      </trkpt>
      <trkpt lat="45.95072" lon="6.51778">
        <ele>1247.1999511719</ele>
        <time>2015-02-07T07:42:47.000Z</time>
      </trkpt>
      <trkpt lat="45.95069" lon="6.51775">
        <ele>1246.8000488281</ele>
        <time>2015-02-07T07:42:52.000Z</time>
      </trkpt>
      <trkpt lat="45.95068" lon="6.51775">
        <ele>1246.5999755859</ele>
        <time>2015-02-07T07:42:54.000Z</time>
      </trkpt>
      <trkpt lat="45.95065" lon="6.51771">
        <ele>1246</ele>
        <time>2015-02-07T07:43:01.000Z</time>
      </trkpt>
      <trkpt lat="45.9506" lon="6.51768">
        <ele>1245.8000488281</ele>
        <time>2015-02-07T07:43:04.000Z</time>
      </trkpt>
      <trkpt lat="45.95058" lon="6.51768">
        <ele>1245.5999755859</ele>
        <time>2015-02-07T07:43:06.000Z</time>
      </trkpt>
      <trkpt lat="45.95052" lon="6.51765">
        <ele>1246.1999511719</ele>
        <time>2015-02-07T07:43:11.000Z</time>
      </trkpt>
      <trkpt lat="45.95049" lon="6.51763">
        <ele>1246.8000488281</ele>
        <time>2015-02-07T07:43:14.000Z</time>
      </trkpt>
      <trkpt lat="45.95045" lon="6.51762">
        <ele>1247.1999511719</ele>
        <time>2015-02-07T07:43:17.000Z</time>
      </trkpt>
      <trkpt lat="45.95042" lon="6.51763">
        <ele>1248</ele>
        <time>2015-02-07T07:43:23.000Z</time>
      </trkpt>
      <trkpt lat="45.95042" lon="6.51764">
        <ele>1249</ele>
        <time>2015-02-07T07:43:29.000Z</time>
      </trkpt>
      <trkpt lat="45.95042" lon="6.51764">
        <ele>1249.5999755859</ele>
        <time>2015-02-07T07:43:34.000Z</time>
      </trkpt>
      <trkpt lat="45.95047" lon="6.51771">
        <ele>1249.5999755859</ele>
        <time>2015-02-07T07:43:41.000Z</time>
      </trkpt>
      <trkpt lat="45.95047" lon="6.51773">
        <ele>1250.1999511719</ele>
        <time>2015-02-07T07:43:43.000Z</time>
      </trkpt>
      <trkpt lat="45.95047" lon="6.51774">
        <ele>1251.4000244141</ele>
        <time>2015-02-07T07:43:47.000Z</time>
      </trkpt>
      <trkpt lat="45.95049" lon="6.51778">
        <ele>1252.1999511719</ele>
        <time>2015-02-07T07:43:56.000Z</time>
      </trkpt>
      <trkpt lat="45.95049" lon="6.51779">
        <ele>1252.5999755859</ele>
        <time>2015-02-07T07:43:58.000Z</time>
      </trkpt>
      <trkpt lat="45.9505" lon="6.51782">
        <ele>1253.8000488281</ele>
        <time>2015-02-07T07:44:01.000Z</time>
      </trkpt>
      <trkpt lat="45.9505" lon="6.51783">
        <ele>1254</ele>
        <time>2015-02-07T07:44:02.000Z</time>
      </trkpt>
      <trkpt lat="45.95051" lon="6.51786">
        <ele>1254.8000488281</ele>
        <time>2015-02-07T07:44:05.000Z</time>
      </trkpt>
      <trkpt lat="45.95051" lon="6.51789">
        <ele>1255.5999755859</ele>
        <time>2015-02-07T07:44:08.000Z</time>
      </trkpt>
      <trkpt lat="45.95051" lon="6.5179">
        <ele>1256</ele>
        <time>2015-02-07T07:44:09.000Z</time>
      </trkpt>
      <trkpt lat="45.95052" lon="6.51795">
        <ele>1257</ele>
        <time>2015-02-07T07:44:14.000Z</time>
      </trkpt>
      <trkpt lat="45.95051" lon="6.51796">
        <ele>1258.4000244141</ele>
        <time>2015-02-07T07:44:19.000Z</time>
      </trkpt>
      <trkpt lat="45.95048" lon="6.51794">
        <ele>1259.4000244141</ele>
        <time>2015-02-07T07:44:24.000Z</time>
      </trkpt>
      <trkpt lat="45.95048" lon="6.51794">
        <ele>1259.5999755859</ele>
        <time>2015-02-07T07:44:25.000Z</time>
      </trkpt>
      <trkpt lat="45.95045" lon="6.51794">
        <ele>1260.4000244141</ele>
        <time>2015-02-07T07:44:29.000Z</time>
      </trkpt>
      <trkpt lat="45.95044" lon="6.51794">
        <ele>1260.5999755859</ele>
        <time>2015-02-07T07:44:30.000Z</time>
      </trkpt>
      <trkpt lat="45.95039" lon="6.51792">
        <ele>1261.4000244141</ele>
        <time>2015-02-07T07:44:34.000Z</time>
      </trkpt>
      <trkpt lat="45.95038" lon="6.51791">
        <ele>1261.5999755859</ele>
        <time>2015-02-07T07:44:35.000Z</time>
      </trkpt>
      <trkpt lat="45.95034" lon="6.51787">
        <ele>1262.1999511719</ele>
        <time>2015-02-07T07:44:39.000Z</time>
      </trkpt>
      <trkpt lat="45.95033" lon="6.51787">
        <ele>1262.5999755859</ele>
        <time>2015-02-07T07:44:42.000Z</time>
      </trkpt>
      <trkpt lat="45.95033" lon="6.51791">
        <ele>1263</ele>
        <time>2015-02-07T07:44:44.000Z</time>
      </trkpt>
      <trkpt lat="45.95034" lon="6.51793">
        <ele>1263.8000488281</ele>
        <time>2015-02-07T07:44:47.000Z</time>
      </trkpt>
      <trkpt lat="45.95035" lon="6.51796">
        <ele>1264.8000488281</ele>
        <time>2015-02-07T07:44:50.000Z</time>
      </trkpt>
      <trkpt lat="45.95035" lon="6.51797">
        <ele>1265</ele>
        <time>2015-02-07T07:44:51.000Z</time>
      </trkpt>
      <trkpt lat="45.95036" lon="6.51798">
        <ele>1266</ele>
        <time>2015-02-07T07:44:55.000Z</time>
      </trkpt>
      <trkpt lat="45.95037" lon="6.51799">
        <ele>1266.1999511719</ele>
        <time>2015-02-07T07:44:56.000Z</time>
      </trkpt>
      <trkpt lat="45.95037" lon="6.51801">
        <ele>1267.1999511719</ele>
        <time>2015-02-07T07:44:59.000Z</time>
      </trkpt>
      <trkpt lat="45.95039" lon="6.51806">
        <ele>1268.4000244141</ele>
        <time>2015-02-07T07:45:03.000Z</time>
      </trkpt>
      <trkpt lat="45.9504" lon="6.51812">
        <ele>1269.4000244141</ele>
        <time>2015-02-07T07:45:07.000Z</time>
      </trkpt>
      <trkpt lat="45.9504" lon="6.51813">
        <ele>1270</ele>
        <time>2015-02-07T07:45:09.000Z</time>
      </trkpt>
      <trkpt lat="45.9504" lon="6.51814">
        <ele>1270.8000488281</ele>
        <time>2015-02-07T07:45:11.000Z</time>
      </trkpt>
      <trkpt lat="45.95041" lon="6.51816">
        <ele>1271.8000488281</ele>
        <time>2015-02-07T07:45:15.000Z</time>
      </trkpt>
      <trkpt lat="45.95041" lon="6.5182">
        <ele>1273.1999511719</ele>
        <time>2015-02-07T07:45:20.000Z</time>
      </trkpt>
      <trkpt lat="45.95042" lon="6.51821">
        <ele>1273.5999755859</ele>
        <time>2015-02-07T07:45:21.000Z</time>
      </trkpt>
      <trkpt lat="45.95042" lon="6.51824">
        <ele>1274.1999511719</ele>
        <time>2015-02-07T07:45:24.000Z</time>
      </trkpt>
      <trkpt lat="45.95042" lon="6.51827">
        <ele>1274.5999755859</ele>
        <time>2015-02-07T07:45:26.000Z</time>
      </trkpt>
      <trkpt lat="45.95043" lon="6.51827">
        <ele>1275.4000244141</ele>
        <time>2015-02-07T07:45:28.000Z</time>
      </trkpt>
      <trkpt lat="45.95045" lon="6.51831">
        <ele>1276.1999511719</ele>
        <time>2015-02-07T07:45:32.000Z</time>
      </trkpt>
      <trkpt lat="45.95045" lon="6.51831">
        <ele>1276.4000244141</ele>
        <time>2015-02-07T07:45:33.000Z</time>
      </trkpt>
      <trkpt lat="45.95046" lon="6.51834">
        <ele>1277.4000244141</ele>
        <time>2015-02-07T07:45:36.000Z</time>
      </trkpt>
      <trkpt lat="45.95046" lon="6.51836">
        <ele>1277.8000488281</ele>
        <time>2015-02-07T07:45:38.000Z</time>
      </trkpt>
      <trkpt lat="45.95047" lon="6.51838">
        <ele>1278.5999755859</ele>
        <time>2015-02-07T07:45:42.000Z</time>
      </trkpt>
      <trkpt lat="45.95049" lon="6.5184">
        <ele>1278.8000488281</ele>
        <time>2015-02-07T07:45:43.000Z</time>
      </trkpt>
      <trkpt lat="45.95051" lon="6.51843">
        <ele>1279.8000488281</ele>
        <time>2015-02-07T07:45:48.000Z</time>
      </trkpt>
      <trkpt lat="45.95052" lon="6.51846">
        <ele>1281</ele>
        <time>2015-02-07T07:45:52.000Z</time>
      </trkpt>
      <trkpt lat="45.95053" lon="6.51848">
        <ele>1281.8000488281</ele>
        <time>2015-02-07T07:45:54.000Z</time>
      </trkpt>
      <trkpt lat="45.95054" lon="6.51849">
        <ele>1282.1999511719</ele>
        <time>2015-02-07T07:45:56.000Z</time>
      </trkpt>
      <trkpt lat="45.95054" lon="6.51852">
        <ele>1283.4000244141</ele>
        <time>2015-02-07T07:45:59.000Z</time>
      </trkpt>
      <trkpt lat="45.95056" lon="6.51857">
        <ele>1284.4000244141</ele>
        <time>2015-02-07T07:46:04.000Z</time>
      </trkpt>
      <trkpt lat="45.95057" lon="6.51859">
        <ele>1285</ele>
        <time>2015-02-07T07:46:06.000Z</time>
      </trkpt>
      <trkpt lat="45.95058" lon="6.5186">
        <ele>1285.4000244141</ele>
        <time>2015-02-07T07:46:08.000Z</time>
      </trkpt>
      <trkpt lat="45.95058" lon="6.51861">
        <ele>1286</ele>
        <time>2015-02-07T07:46:11.000Z</time>
      </trkpt>
      <trkpt lat="45.95055" lon="6.51861">
        <ele>1286.4000244141</ele>
        <time>2015-02-07T07:46:13.000Z</time>
      </trkpt>
      <trkpt lat="45.95054" lon="6.51861">
        <ele>1286.8000488281</ele>
        <time>2015-02-07T07:46:15.000Z</time>
      </trkpt>
      <trkpt lat="45.95052" lon="6.51861">
        <ele>1287</ele>
        <time>2015-02-07T07:46:16.000Z</time>
      </trkpt>
      <trkpt lat="45.95049" lon="6.5186">
        <ele>1288</ele>
        <time>2015-02-07T07:46:20.000Z</time>
      </trkpt>
      <trkpt lat="45.95047" lon="6.5186">
        <ele>1288.4000244141</ele>
        <time>2015-02-07T07:46:22.000Z</time>
      </trkpt>
      <trkpt lat="45.95044" lon="6.5186">
        <ele>1289.1999511719</ele>
        <time>2015-02-07T07:46:24.000Z</time>
      </trkpt>
      <trkpt lat="45.95041" lon="6.51859">
        <ele>1289.5999755859</ele>
        <time>2015-02-07T07:46:27.000Z</time>
      </trkpt>
      <trkpt lat="45.95036" lon="6.51858">
        <ele>1290.1999511719</ele>
        <time>2015-02-07T07:46:32.000Z</time>
      </trkpt>
      <trkpt lat="45.95032" lon="6.51857">
        <ele>1291.1999511719</ele>
        <time>2015-02-07T07:46:36.000Z</time>
      </trkpt>
      <trkpt lat="45.95031" lon="6.51857">
        <ele>1291.4000244141</ele>
        <time>2015-02-07T07:46:37.000Z</time>
      </trkpt>
      <trkpt lat="45.95028" lon="6.51856">
        <ele>1291.8000488281</ele>
        <time>2015-02-07T07:46:41.000Z</time>
      </trkpt>
      <trkpt lat="45.95023" lon="6.51852">
        <ele>1292.5999755859</ele>
        <time>2015-02-07T07:46:45.000Z</time>
      </trkpt>
      <trkpt lat="45.9502" lon="6.5185">
        <ele>1293.4000244141</ele>
        <time>2015-02-07T07:46:48.000Z</time>
      </trkpt>
      <trkpt lat="45.9502" lon="6.51849">
        <ele>1293.8000488281</ele>
        <time>2015-02-07T07:46:49.000Z</time>
      </trkpt>
      <trkpt lat="45.95017" lon="6.51847">
        <ele>1294.4000244141</ele>
        <time>2015-02-07T07:46:53.000Z</time>
      </trkpt>
      <trkpt lat="45.95016" lon="6.51847">
        <ele>1294.8000488281</ele>
        <time>2015-02-07T07:46:55.000Z</time>
      </trkpt>
      <trkpt lat="45.95012" lon="6.51846">
        <ele>1295.8000488281</ele>
        <time>2015-02-07T07:46:59.000Z</time>
      </trkpt>
      <trkpt lat="45.95011" lon="6.51846">
        <ele>1296</ele>
        <time>2015-02-07T07:47:00.000Z</time>
      </trkpt>
      <trkpt lat="45.95009" lon="6.51845">
        <ele>1297</ele>
        <time>2015-02-07T07:47:04.000Z</time>
      </trkpt>
      <trkpt lat="45.95008" lon="6.51845">
        <ele>1297.1999511719</ele>
        <time>2015-02-07T07:47:05.000Z</time>
      </trkpt>
      <trkpt lat="45.95002" lon="6.51841">
        <ele>1298.1999511719</ele>
        <time>2015-02-07T07:47:11.000Z</time>
      </trkpt>
      <trkpt lat="45.95001" lon="6.51841">
        <ele>1298.1999511719</ele>
        <time>2015-02-07T07:47:12.000Z</time>
      </trkpt>
      <trkpt lat="45.94998" lon="6.51839">
        <ele>1299.1999511719</ele>
        <time>2015-02-07T07:47:17.000Z</time>
      </trkpt>
      <trkpt lat="45.94997" lon="6.51839">
        <ele>1299.4000244141</ele>
        <time>2015-02-07T07:47:18.000Z</time>
      </trkpt>
      <trkpt lat="45.94994" lon="6.51838">
        <ele>1300.4000244141</ele>
        <time>2015-02-07T07:47:21.000Z</time>
      </trkpt>
      <trkpt lat="45.9499" lon="6.51836">
        <ele>1301.4000244141</ele>
        <time>2015-02-07T07:47:26.000Z</time>
      </trkpt>
      <trkpt lat="45.94983" lon="6.51831">
        <ele>1302.4000244141</ele>
        <time>2015-02-07T07:47:33.000Z</time>
      </trkpt>
      <trkpt lat="45.94983" lon="6.51831">
        <ele>1302.4000244141</ele>
        <time>2015-02-07T07:47:34.000Z</time>
      </trkpt>
      <trkpt lat="45.94978" lon="6.51829">
        <ele>1303.4000244141</ele>
        <time>2015-02-07T07:47:39.000Z</time>
      </trkpt>
      <trkpt lat="45.94976" lon="6.51828">
        <ele>1304.4000244141</ele>
        <time>2015-02-07T07:47:42.000Z</time>
      </trkpt>
      <trkpt lat="45.94975" lon="6.51827">
        <ele>1304.5999755859</ele>
        <time>2015-02-07T07:47:43.000Z</time>
      </trkpt>
      <trkpt lat="45.94969" lon="6.51823">
        <ele>1305.5999755859</ele>
        <time>2015-02-07T07:47:50.000Z</time>
      </trkpt>
      <trkpt lat="45.94967" lon="6.51822">
        <ele>1305.8000488281</ele>
        <time>2015-02-07T07:47:52.000Z</time>
      </trkpt>
      <trkpt lat="45.94963" lon="6.51821">
        <ele>1306.8000488281</ele>
        <time>2015-02-07T07:47:57.000Z</time>
      </trkpt>
      <trkpt lat="45.94963" lon="6.51822">
        <ele>1307.1999511719</ele>
        <time>2015-02-07T07:47:59.000Z</time>
      </trkpt>
      <trkpt lat="45.94964" lon="6.51826">
        <ele>1308</ele>
        <time>2015-02-07T07:48:03.000Z</time>
      </trkpt>
      <trkpt lat="45.94966" lon="6.51829">
        <ele>1308.4000244141</ele>
        <time>2015-02-07T07:48:05.000Z</time>
      </trkpt>
      <trkpt lat="45.94969" lon="6.51832">
        <ele>1309.1999511719</ele>
        <time>2015-02-07T07:48:08.000Z</time>
      </trkpt>
      <trkpt lat="45.9497" lon="6.51834">
        <ele>1309.4000244141</ele>
        <time>2015-02-07T07:48:09.000Z</time>
      </trkpt>
      <trkpt lat="45.94973" lon="6.51839">
        <ele>1309.8000488281</ele>
        <time>2015-02-07T07:48:13.000Z</time>
      </trkpt>
      <trkpt lat="45.94976" lon="6.51842">
        <ele>1310.1999511719</ele>
        <time>2015-02-07T07:48:16.000Z</time>
      </trkpt>
      <trkpt lat="45.94979" lon="6.51846">
        <ele>1310.5999755859</ele>
        <time>2015-02-07T07:48:20.000Z</time>
      </trkpt>
      <trkpt lat="45.94982" lon="6.5185">
        <ele>1310.8000488281</ele>
        <time>2015-02-07T07:48:22.000Z</time>
      </trkpt>
      <trkpt lat="45.94985" lon="6.51854">
        <ele>1311.1999511719</ele>
        <time>2015-02-07T07:48:25.000Z</time>
      </trkpt>
      <trkpt lat="45.94986" lon="6.51857">
        <ele>1312.4000244141</ele>
        <time>2015-02-07T07:48:29.000Z</time>
      </trkpt>
      <trkpt lat="45.94989" lon="6.51861">
        <ele>1312.8000488281</ele>
        <time>2015-02-07T07:48:31.000Z</time>
      </trkpt>
      <trkpt lat="45.94993" lon="6.51865">
        <ele>1313.4000244141</ele>
        <time>2015-02-07T07:48:35.000Z</time>
      </trkpt>
      <trkpt lat="45.94996" lon="6.51868">
        <ele>1313.5999755859</ele>
        <time>2015-02-07T07:48:38.000Z</time>
      </trkpt>
      <trkpt lat="45.95001" lon="6.51875">
        <ele>1314.1999511719</ele>
        <time>2015-02-07T07:48:44.000Z</time>
      </trkpt>
      <trkpt lat="45.95004" lon="6.51876">
        <ele>1314.5999755859</ele>
        <time>2015-02-07T07:48:46.000Z</time>
      </trkpt>
      <trkpt lat="45.95009" lon="6.5188">
        <ele>1315</ele>
        <time>2015-02-07T07:48:51.000Z</time>
      </trkpt>
      <trkpt lat="45.95017" lon="6.51891">
        <ele>1314</ele>
        <time>2015-02-07T07:48:59.000Z</time>
      </trkpt>
      <trkpt lat="45.95025" lon="6.51899">
        <ele>1313.5999755859</ele>
        <time>2015-02-07T07:49:06.000Z</time>
      </trkpt>
      <trkpt lat="45.95032" lon="6.51908">
        <ele>1313.5999755859</ele>
        <time>2015-02-07T07:49:13.000Z</time>
      </trkpt>
      <trkpt lat="45.95037" lon="6.51913">
        <ele>1314.5999755859</ele>
        <time>2015-02-07T07:49:18.000Z</time>
      </trkpt>
      <trkpt lat="45.95039" lon="6.51914">
        <ele>1314.8000488281</ele>
        <time>2015-02-07T07:49:20.000Z</time>
      </trkpt>
      <trkpt lat="45.95045" lon="6.5192">
        <ele>1315.1999511719</ele>
        <time>2015-02-07T07:49:27.000Z</time>
      </trkpt>
      <trkpt lat="45.95046" lon="6.51921">
        <ele>1315.5999755859</ele>
        <time>2015-02-07T07:49:28.000Z</time>
      </trkpt>
      <trkpt lat="45.95048" lon="6.51925">
        <ele>1316.5999755859</ele>
        <time>2015-02-07T07:49:32.000Z</time>
      </trkpt>
      <trkpt lat="45.95048" lon="6.51926">
        <ele>1316.8000488281</ele>
        <time>2015-02-07T07:49:33.000Z</time>
      </trkpt>
      <trkpt lat="45.9505" lon="6.51932">
        <ele>1317.8000488281</ele>
        <time>2015-02-07T07:49:38.000Z</time>
      </trkpt>
      <trkpt lat="45.95051" lon="6.51934">
        <ele>1319</ele>
        <time>2015-02-07T07:49:43.000Z</time>
      </trkpt>
      <trkpt lat="45.95051" lon="6.51934">
        <ele>1319.1999511719</ele>
        <time>2015-02-07T07:49:44.000Z</time>
      </trkpt>
      <trkpt lat="45.95049" lon="6.51933">
        <ele>1320</ele>
        <time>2015-02-07T07:49:47.000Z</time>
      </trkpt>
      <trkpt lat="45.95049" lon="6.51932">
        <ele>1320.4000244141</ele>
        <time>2015-02-07T07:49:49.000Z</time>
      </trkpt>
      <trkpt lat="45.95043" lon="6.51932">
        <ele>1320.8000488281</ele>
        <time>2015-02-07T07:49:54.000Z</time>
      </trkpt>
      <trkpt lat="45.95042" lon="6.51932">
        <ele>1321.1999511719</ele>
        <time>2015-02-07T07:49:56.000Z</time>
      </trkpt>
      <trkpt lat="45.9504" lon="6.51932">
        <ele>1321.4000244141</ele>
        <time>2015-02-07T07:49:57.000Z</time>
      </trkpt>
      <trkpt lat="45.9504" lon="6.51932">
        <ele>1321.8000488281</ele>
        <time>2015-02-07T07:49:58.000Z</time>
      </trkpt>
      <trkpt lat="45.95038" lon="6.51931">
        <ele>1322.1999511719</ele>
        <time>2015-02-07T07:50:00.000Z</time>
      </trkpt>
      <trkpt lat="45.95036" lon="6.51931">
        <ele>1323</ele>
        <time>2015-02-07T07:50:03.000Z</time>
      </trkpt>
      <trkpt lat="45.95033" lon="6.51931">
        <ele>1323.4000244141</ele>
        <time>2015-02-07T07:50:05.000Z</time>
      </trkpt>
      <trkpt lat="45.95032" lon="6.51932">
        <ele>1323.8000488281</ele>
        <time>2015-02-07T07:50:09.000Z</time>
      </trkpt>
      <trkpt lat="45.95035" lon="6.51935">
        <ele>1324.5999755859</ele>
        <time>2015-02-07T07:50:13.000Z</time>
      </trkpt>
      <trkpt lat="45.95035" lon="6.51935">
        <ele>1325</ele>
        <time>2015-02-07T07:50:14.000Z</time>
      </trkpt>
      <trkpt lat="45.95037" lon="6.51938">
        <ele>1325.5999755859</ele>
        <time>2015-02-07T07:50:16.000Z</time>
      </trkpt>
      <trkpt lat="45.95039" lon="6.51939">
        <ele>1326</ele>
        <time>2015-02-07T07:50:19.000Z</time>
      </trkpt>
      <trkpt lat="45.9504" lon="6.51941">
        <ele>1326.8000488281</ele>
        <time>2015-02-07T07:50:22.000Z</time>
      </trkpt>
      <trkpt lat="45.9504" lon="6.51941">
        <ele>1327.4000244141</ele>
        <time>2015-02-07T07:50:24.000Z</time>
      </trkpt>
      <trkpt lat="45.9504" lon="6.51942">
        <ele>1327.8000488281</ele>
        <time>2015-02-07T07:50:26.000Z</time>
      </trkpt>
      <trkpt lat="45.95038" lon="6.51942">
        <ele>1329</ele>
        <time>2015-02-07T07:50:29.000Z</time>
      </trkpt>
      <trkpt lat="45.95036" lon="6.51943">
        <ele>1329.1999511719</ele>
        <time>2015-02-07T07:50:30.000Z</time>
      </trkpt>
      <trkpt lat="45.95036" lon="6.51943">
        <ele>1329.4000244141</ele>
        <time>2015-02-07T07:50:31.000Z</time>
      </trkpt>
      <trkpt lat="45.95033" lon="6.51944">
        <ele>1330</ele>
        <time>2015-02-07T07:50:35.000Z</time>
      </trkpt>
      <trkpt lat="45.95031" lon="6.51945">
        <ele>1330.5999755859</ele>
        <time>2015-02-07T07:50:37.000Z</time>
      </trkpt>
      <trkpt lat="45.9503" lon="6.51945">
        <ele>1331.1999511719</ele>
        <time>2015-02-07T07:50:40.000Z</time>
      </trkpt>
      <trkpt lat="45.95031" lon="6.51947">
        <ele>1332</ele>
        <time>2015-02-07T07:50:44.000Z</time>
      </trkpt>
      <trkpt lat="45.95031" lon="6.51947">
        <ele>1332.1999511719</ele>
        <time>2015-02-07T07:50:45.000Z</time>
      </trkpt>
      <trkpt lat="45.95036" lon="6.51951">
        <ele>1333.4000244141</ele>
        <time>2015-02-07T07:50:50.000Z</time>
      </trkpt>
      <trkpt lat="45.95035" lon="6.51951">
        <ele>1333.8000488281</ele>
        <time>2015-02-07T07:50:51.000Z</time>
      </trkpt>
      <trkpt lat="45.95037" lon="6.51953">
        <ele>1334.4000244141</ele>
        <time>2015-02-07T07:50:53.000Z</time>
      </trkpt>
      <trkpt lat="45.95039" lon="6.51955">
        <ele>1335.1999511719</ele>
        <time>2015-02-07T07:50:58.000Z</time>
      </trkpt>
      <trkpt lat="45.95039" lon="6.51955">
        <ele>1335.5999755859</ele>
        <time>2015-02-07T07:51:01.000Z</time>
      </trkpt>
      <trkpt lat="45.95036" lon="6.51956">
        <ele>1336.5999755859</ele>
        <time>2015-02-07T07:51:04.000Z</time>
      </trkpt>
      <trkpt lat="45.95031" lon="6.51959">
        <ele>1337.1999511719</ele>
        <time>2015-02-07T07:51:09.000Z</time>
      </trkpt>
      <trkpt lat="45.95031" lon="6.51959">
        <ele>1337.5999755859</ele>
        <time>2015-02-07T07:51:10.000Z</time>
      </trkpt>
      <trkpt lat="45.9503" lon="6.51959">
        <ele>1338.5999755859</ele>
        <time>2015-02-07T07:51:12.000Z</time>
      </trkpt>
      <trkpt lat="45.95029" lon="6.5196">
        <ele>1339</ele>
        <time>2015-02-07T07:51:14.000Z</time>
      </trkpt>
      <trkpt lat="45.95028" lon="6.51959">
        <ele>1340</ele>
        <time>2015-02-07T07:51:17.000Z</time>
      </trkpt>
      <trkpt lat="45.95028" lon="6.51959">
        <ele>1340.8000488281</ele>
        <time>2015-02-07T07:51:21.000Z</time>
      </trkpt>
      <trkpt lat="45.9503" lon="6.51962">
        <ele>1341</ele>
        <time>2015-02-07T07:51:23.000Z</time>
      </trkpt>
      <trkpt lat="45.95031" lon="6.51962">
        <ele>1341.4000244141</ele>
        <time>2015-02-07T07:51:25.000Z</time>
      </trkpt>
      <trkpt lat="45.95034" lon="6.51966">
        <ele>1342</ele>
        <time>2015-02-07T07:51:29.000Z</time>
      </trkpt>
      <trkpt lat="45.95035" lon="6.51968">
        <ele>1342.5999755859</ele>
        <time>2015-02-07T07:51:31.000Z</time>
      </trkpt>
      <trkpt lat="45.95038" lon="6.51971">
        <ele>1343.1999511719</ele>
        <time>2015-02-07T07:51:34.000Z</time>
      </trkpt>
      <trkpt lat="45.9504" lon="6.51974">
        <ele>1344.1999511719</ele>
        <time>2015-02-07T07:51:37.000Z</time>
      </trkpt>
      <trkpt lat="45.95041" lon="6.51975">
        <ele>1344.4000244141</ele>
        <time>2015-02-07T07:51:38.000Z</time>
      </trkpt>
      <trkpt lat="45.95045" lon="6.51978">
        <ele>1345.4000244141</ele>
        <time>2015-02-07T07:51:43.000Z</time>
      </trkpt>
      <trkpt lat="45.95046" lon="6.51978">
        <ele>1345.8000488281</ele>
        <time>2015-02-07T07:51:44.000Z</time>
      </trkpt>
      <trkpt lat="45.95048" lon="6.5198">
        <ele>1346.5999755859</ele>
        <time>2015-02-07T07:51:46.000Z</time>
      </trkpt>
      <trkpt lat="45.95051" lon="6.51981">
        <ele>1347.1999511719</ele>
        <time>2015-02-07T07:51:51.000Z</time>
      </trkpt>
      <trkpt lat="45.95054" lon="6.51984">
        <ele>1347.5999755859</ele>
        <time>2015-02-07T07:51:53.000Z</time>
      </trkpt>
      <trkpt lat="45.95056" lon="6.51986">
        <ele>1348.5999755859</ele>
        <time>2015-02-07T07:51:56.000Z</time>
      </trkpt>
      <trkpt lat="45.95057" lon="6.51986">
        <ele>1349</ele>
        <time>2015-02-07T07:51:58.000Z</time>
      </trkpt>
      <trkpt lat="45.95061" lon="6.51992">
        <ele>1349.5999755859</ele>
        <time>2015-02-07T07:52:04.000Z</time>
      </trkpt>
      <trkpt lat="45.95061" lon="6.51993">
        <ele>1349.8000488281</ele>
        <time>2015-02-07T07:52:05.000Z</time>
      </trkpt>
      <trkpt lat="45.95063" lon="6.51998">
        <ele>1350.8000488281</ele>
        <time>2015-02-07T07:52:10.000Z</time>
      </trkpt>
      <trkpt lat="45.95062" lon="6.51998">
        <ele>1350.8000488281</ele>
        <time>2015-02-07T07:52:12.000Z</time>
      </trkpt>
      <trkpt lat="45.9506" lon="6.51997">
        <ele>1351.5999755859</ele>
        <time>2015-02-07T07:52:15.000Z</time>
      </trkpt>
      <trkpt lat="45.9506" lon="6.51997">
        <ele>1352</ele>
        <time>2015-02-07T07:52:16.000Z</time>
      </trkpt>
      <trkpt lat="45.95053" lon="6.51993">
        <ele>1352.8000488281</ele>
        <time>2015-02-07T07:52:22.000Z</time>
      </trkpt>
      <trkpt lat="45.9505" lon="6.51994">
        <ele>1353</ele>
        <time>2015-02-07T07:52:25.000Z</time>
      </trkpt>
      <trkpt lat="45.95049" lon="6.51994">
        <ele>1353.1999511719</ele>
        <time>2015-02-07T07:52:26.000Z</time>
      </trkpt>
      <trkpt lat="45.95048" lon="6.51994">
        <ele>1353.4000244141</ele>
        <time>2015-02-07T07:52:27.000Z</time>
      </trkpt>
      <trkpt lat="45.95047" lon="6.51994">
        <ele>1354</ele>
        <time>2015-02-07T07:52:30.000Z</time>
      </trkpt>
      <trkpt lat="45.95049" lon="6.51996">
        <ele>1354.5999755859</ele>
        <time>2015-02-07T07:52:32.000Z</time>
      </trkpt>
      <trkpt lat="45.9505" lon="6.51998">
        <ele>1355.1999511719</ele>
        <time>2015-02-07T07:52:36.000Z</time>
      </trkpt>
      <trkpt lat="45.9505" lon="6.51998">
        <ele>1355.5999755859</ele>
        <time>2015-02-07T07:52:39.000Z</time>
      </trkpt>
      <trkpt lat="45.9505" lon="6.51998">
        <ele>1356.1999511719</ele>
        <time>2015-02-07T07:52:42.000Z</time>
      </trkpt>
      <trkpt lat="45.95046" lon="6.52">
        <ele>1357</ele>
        <time>2015-02-07T07:52:47.000Z</time>
      </trkpt>
      <trkpt lat="45.95045" lon="6.52">
        <ele>1357.4000244141</ele>
        <time>2015-02-07T07:52:49.000Z</time>
      </trkpt>
      <trkpt lat="45.95042" lon="6.52002">
        <ele>1358.4000244141</ele>
        <time>2015-02-07T07:52:53.000Z</time>
      </trkpt>
      <trkpt lat="45.95038" lon="6.52005">
        <ele>1359.5999755859</ele>
        <time>2015-02-07T07:52:57.000Z</time>
      </trkpt>
      <trkpt lat="45.95036" lon="6.52005">
        <ele>1360.1999511719</ele>
        <time>2015-02-07T07:52:59.000Z</time>
      </trkpt>
      <trkpt lat="45.95033" lon="6.52006">
        <ele>1361</ele>
        <time>2015-02-07T07:53:02.000Z</time>
      </trkpt>
      <trkpt lat="45.95029" lon="6.52007">
        <ele>1361.8000488281</ele>
        <time>2015-02-07T07:53:06.000Z</time>
      </trkpt>
      <trkpt lat="45.95029" lon="6.52007">
        <ele>1362.1999511719</ele>
        <time>2015-02-07T07:53:07.000Z</time>
      </trkpt>
      <trkpt lat="45.95026" lon="6.52006">
        <ele>1363.4000244141</ele>
        <time>2015-02-07T07:53:12.000Z</time>
      </trkpt>
      <trkpt lat="45.95026" lon="6.52006">
        <ele>1364</ele>
        <time>2015-02-07T07:53:14.000Z</time>
      </trkpt>
      <trkpt lat="45.95028" lon="6.52009">
        <ele>1364.4000244141</ele>
        <time>2015-02-07T07:53:18.000Z</time>
      </trkpt>
      <trkpt lat="45.95029" lon="6.52011">
        <ele>1364.4000244141</ele>
        <time>2015-02-07T07:53:19.000Z</time>
      </trkpt>
      <trkpt lat="45.9503" lon="6.52012">
        <ele>1364.5999755859</ele>
        <time>2015-02-07T07:53:20.000Z</time>
      </trkpt>
      <trkpt lat="45.95032" lon="6.52015">
        <ele>1365.4000244141</ele>
        <time>2015-02-07T07:53:24.000Z</time>
      </trkpt>
      <trkpt lat="45.95034" lon="6.52016">
        <ele>1366.1999511719</ele>
        <time>2015-02-07T07:53:27.000Z</time>
      </trkpt>
      <trkpt lat="45.95035" lon="6.52018">
        <ele>1366.5999755859</ele>
        <time>2015-02-07T07:53:28.000Z</time>
      </trkpt>
      <trkpt lat="45.95038" lon="6.52022">
        <ele>1367.8000488281</ele>
        <time>2015-02-07T07:53:33.000Z</time>
      </trkpt>
      <trkpt lat="45.95039" lon="6.52023">
        <ele>1368.8000488281</ele>
        <time>2015-02-07T07:53:35.000Z</time>
      </trkpt>
      <trkpt lat="45.9504" lon="6.52023">
        <ele>1369.5999755859</ele>
        <time>2015-02-07T07:53:40.000Z</time>
      </trkpt>
      <trkpt lat="45.95042" lon="6.52026">
        <ele>1369.8000488281</ele>
        <time>2015-02-07T07:53:43.000Z</time>
      </trkpt>
      <trkpt lat="45.95044" lon="6.52028">
        <ele>1369.8000488281</ele>
        <time>2015-02-07T07:53:44.000Z</time>
      </trkpt>
      <trkpt lat="45.95047" lon="6.5203">
        <ele>1371</ele>
        <time>2015-02-07T07:53:49.000Z</time>
      </trkpt>
      <trkpt lat="45.95047" lon="6.52031">
        <ele>1371.4000244141</ele>
        <time>2015-02-07T07:53:50.000Z</time>
      </trkpt>
      <trkpt lat="45.95049" lon="6.52033">
        <ele>1372</ele>
        <time>2015-02-07T07:53:54.000Z</time>
      </trkpt>
      <trkpt lat="45.9505" lon="6.52035">
        <ele>1372.5999755859</ele>
        <time>2015-02-07T07:53:58.000Z</time>
      </trkpt>
      <trkpt lat="45.9505" lon="6.52036">
        <ele>1373</ele>
        <time>2015-02-07T07:54:01.000Z</time>
      </trkpt>
      <trkpt lat="45.9505" lon="6.52036">
        <ele>1374</ele>
        <time>2015-02-07T07:54:04.000Z</time>
      </trkpt>
      <trkpt lat="45.95049" lon="6.52037">
        <ele>1375.1999511719</ele>
        <time>2015-02-07T07:54:09.000Z</time>
      </trkpt>
      <trkpt lat="45.95049" lon="6.52037">
        <ele>1375</ele>
        <time>2015-02-07T07:54:16.000Z</time>
      </trkpt>
      <trkpt lat="45.95046" lon="6.52037">
        <ele>1375.4000244141</ele>
        <time>2015-02-07T07:54:23.000Z</time>
      </trkpt>
      <trkpt lat="45.95045" lon="6.52038">
        <ele>1376.1999511719</ele>
        <time>2015-02-07T07:54:26.000Z</time>
      </trkpt>
      <trkpt lat="45.95044" lon="6.52038">
        <ele>1376.8000488281</ele>
        <time>2015-02-07T07:54:31.000Z</time>
      </trkpt>
      <trkpt lat="45.95044" lon="6.52039">
        <ele>1377.4000244141</ele>
        <time>2015-02-07T07:54:34.000Z</time>
      </trkpt>
      <trkpt lat="45.95045" lon="6.52039">
        <ele>1377.8000488281</ele>
        <time>2015-02-07T07:54:40.000Z</time>
      </trkpt>
      <trkpt lat="45.95046" lon="6.52042">
        <ele>1378</ele>
        <time>2015-02-07T07:54:47.000Z</time>
      </trkpt>
      <trkpt lat="45.95046" lon="6.52042">
        <ele>1378.4000244141</ele>
        <time>2015-02-07T07:54:49.000Z</time>
      </trkpt>
      <trkpt lat="45.95046" lon="6.52042">
        <ele>1379</ele>
        <time>2015-02-07T07:55:03.000Z</time>
      </trkpt>
      <trkpt lat="45.95047" lon="6.52043">
        <ele>1379</ele>
        <time>2015-02-07T07:55:09.000Z</time>
      </trkpt>
      <trkpt lat="45.95047" lon="6.52043">
        <ele>1379.5999755859</ele>
        <time>2015-02-07T07:55:12.000Z</time>
      </trkpt>
      <trkpt lat="45.95047" lon="6.52043">
        <ele>1379.5999755859</ele>
        <time>2015-02-07T07:55:18.000Z</time>
      </trkpt>
      <trkpt lat="45.95047" lon="6.52043">
        <ele>1380.5999755859</ele>
        <time>2015-02-07T07:55:23.000Z</time>
      </trkpt>
      <trkpt lat="45.95049" lon="6.52045">
        <ele>1381</ele>
        <time>2015-02-07T07:55:32.000Z</time>
      </trkpt>
      <trkpt lat="45.9505" lon="6.52048">
        <ele>1381.4000244141</ele>
        <time>2015-02-07T07:55:39.000Z</time>
      </trkpt>
      <trkpt lat="45.9505" lon="6.52048">
        <ele>1381.5999755859</ele>
        <time>2015-02-07T07:55:43.000Z</time>
      </trkpt>
      <trkpt lat="45.9505" lon="6.52048">
        <ele>1382</ele>
        <time>2015-02-07T07:55:52.000Z</time>
      </trkpt>
      <trkpt lat="45.95051" lon="6.52049">
        <ele>1382</ele>
        <time>2015-02-07T07:56:00.000Z</time>
      </trkpt>
      <trkpt lat="45.95051" lon="6.52049">
        <ele>1382.8000488281</ele>
        <time>2015-02-07T07:56:04.000Z</time>
      </trkpt>
      <trkpt lat="45.95054" lon="6.52052">
        <ele>1382.8000488281</ele>
        <time>2015-02-07T07:56:08.000Z</time>
      </trkpt>
      <trkpt lat="45.95059" lon="6.52058">
        <ele>1383.8000488281</ele>
        <time>2015-02-07T07:56:14.000Z</time>
      </trkpt>
      <trkpt lat="45.95061" lon="6.5206">
        <ele>1385</ele>
        <time>2015-02-07T07:56:18.000Z</time>
      </trkpt>
      <trkpt lat="45.95061" lon="6.52061">
        <ele>1385.8000488281</ele>
        <time>2015-02-07T07:56:21.000Z</time>
      </trkpt>
      <trkpt lat="45.95061" lon="6.52061">
        <ele>1386.1999511719</ele>
        <time>2015-02-07T07:56:22.000Z</time>
      </trkpt>
      <trkpt lat="45.95061" lon="6.52061">
        <ele>1387.1999511719</ele>
        <time>2015-02-07T07:56:28.000Z</time>
      </trkpt>
      <trkpt lat="45.95061" lon="6.52061">
        <ele>1387.4000244141</ele>
        <time>2015-02-07T07:56:29.000Z</time>
      </trkpt>
      <trkpt lat="45.9506" lon="6.52062">
        <ele>1388.1999511719</ele>
        <time>2015-02-07T07:56:32.000Z</time>
      </trkpt>
      <trkpt lat="45.9506" lon="6.52063">
        <ele>1388.5999755859</ele>
        <time>2015-02-07T07:56:34.000Z</time>
      </trkpt>
      <trkpt lat="45.9506" lon="6.52063">
        <ele>1389.4000244141</ele>
        <time>2015-02-07T07:56:39.000Z</time>
      </trkpt>
      <trkpt lat="45.9506" lon="6.52063">
        <ele>1389.5999755859</ele>
        <time>2015-02-07T07:56:41.000Z</time>
      </trkpt>
      <trkpt lat="45.95058" lon="6.52065">
        <ele>1389.8000488281</ele>
        <time>2015-02-07T07:56:47.000Z</time>
      </trkpt>
      <trkpt lat="45.95057" lon="6.52065">
        <ele>1390.4000244141</ele>
        <time>2015-02-07T07:56:51.000Z</time>
      </trkpt>
      <trkpt lat="45.95057" lon="6.52065">
        <ele>1390.8000488281</ele>
        <time>2015-02-07T07:56:54.000Z</time>
      </trkpt>
      <trkpt lat="45.95059" lon="6.52068">
        <ele>1391.4000244141</ele>
        <time>2015-02-07T07:57:01.000Z</time>
      </trkpt>
      <trkpt lat="45.9506" lon="6.5207">
        <ele>1391.5999755859</ele>
        <time>2015-02-07T07:57:03.000Z</time>
      </trkpt>
      <trkpt lat="45.95061" lon="6.52072">
        <ele>1392.1999511719</ele>
        <time>2015-02-07T07:57:06.000Z</time>
      </trkpt>
      <trkpt lat="45.95063" lon="6.52075">
        <ele>1392.5999755859</ele>
        <time>2015-02-07T07:57:09.000Z</time>
      </trkpt>
      <trkpt lat="45.95063" lon="6.52075">
        <ele>1393</ele>
        <time>2015-02-07T07:57:11.000Z</time>
      </trkpt>
      <trkpt lat="45.95063" lon="6.52075">
        <ele>1393.8000488281</ele>
        <time>2015-02-07T07:57:13.000Z</time>
      </trkpt>
      <trkpt lat="45.9506" lon="6.52077">
        <ele>1394.5999755859</ele>
        <time>2015-02-07T07:57:17.000Z</time>
      </trkpt>
      <trkpt lat="45.9506" lon="6.52078">
        <ele>1395</ele>
        <time>2015-02-07T07:57:20.000Z</time>
      </trkpt>
      <trkpt lat="45.95059" lon="6.52079">
        <ele>1395.4000244141</ele>
        <time>2015-02-07T07:57:22.000Z</time>
      </trkpt>
      <trkpt lat="45.95059" lon="6.52079">
        <ele>1396.1999511719</ele>
        <time>2015-02-07T07:57:26.000Z</time>
      </trkpt>
      <trkpt lat="45.95058" lon="6.52079">
        <ele>1396.1999511719</ele>
        <time>2015-02-07T07:57:30.000Z</time>
      </trkpt>
      <trkpt lat="45.95057" lon="6.52081">
        <ele>1396.8000488281</ele>
        <time>2015-02-07T07:57:35.000Z</time>
      </trkpt>
      <trkpt lat="45.95057" lon="6.52081">
        <ele>1397.4000244141</ele>
        <time>2015-02-07T07:57:36.000Z</time>
      </trkpt>
      <trkpt lat="45.95056" lon="6.52081">
        <ele>1398.1999511719</ele>
        <time>2015-02-07T07:57:43.000Z</time>
      </trkpt>
      <trkpt lat="45.95056" lon="6.52081">
        <ele>1398.4000244141</ele>
        <time>2015-02-07T07:57:45.000Z</time>
      </trkpt>
      <trkpt lat="45.95057" lon="6.52083">
        <ele>1399</ele>
        <time>2015-02-07T07:57:50.000Z</time>
      </trkpt>
      <trkpt lat="45.95059" lon="6.52085">
        <ele>1399.5999755859</ele>
        <time>2015-02-07T07:57:54.000Z</time>
      </trkpt>
      <trkpt lat="45.95059" lon="6.52086">
        <ele>1400.1999511719</ele>
        <time>2015-02-07T07:57:59.000Z</time>
      </trkpt>
      <trkpt lat="45.95059" lon="6.52086">
        <ele>1400.8000488281</ele>
        <time>2015-02-07T07:58:05.000Z</time>
      </trkpt>
      <trkpt lat="45.95059" lon="6.52086">
        <ele>1401.4000244141</ele>
        <time>2015-02-07T07:58:09.000Z</time>
      </trkpt>
      <trkpt lat="45.95055" lon="6.52088">
        <ele>1401.5999755859</ele>
        <time>2015-02-07T07:58:17.000Z</time>
      </trkpt>
      <trkpt lat="45.95055" lon="6.52088">
        <ele>1402</ele>
        <time>2015-02-07T07:58:18.000Z</time>
      </trkpt>
      <trkpt lat="45.95053" lon="6.52089">
        <ele>1402.8000488281</ele>
        <time>2015-02-07T07:58:22.000Z</time>
      </trkpt>
      <trkpt lat="45.95053" lon="6.52089">
        <ele>1403</ele>
        <time>2015-02-07T07:58:23.000Z</time>
      </trkpt>
      <trkpt lat="45.95052" lon="6.5209">
        <ele>1404.1999511719</ele>
        <time>2015-02-07T07:58:28.000Z</time>
      </trkpt>
      <trkpt lat="45.9505" lon="6.52091">
        <ele>1405.4000244141</ele>
        <time>2015-02-07T07:58:34.000Z</time>
      </trkpt>
      <trkpt lat="45.9505" lon="6.52091">
        <ele>1405.4000244141</ele>
        <time>2015-02-07T07:58:37.000Z</time>
      </trkpt>
      <trkpt lat="45.9505" lon="6.52091">
        <ele>1405.5999755859</ele>
        <time>2015-02-07T07:58:46.000Z</time>
      </trkpt>
      <trkpt lat="45.95047" lon="6.52094">
        <ele>1405.8000488281</ele>
        <time>2015-02-07T07:58:55.000Z</time>
      </trkpt>
      <trkpt lat="45.95045" lon="6.52094">
        <ele>1406.4000244141</ele>
        <time>2015-02-07T07:58:59.000Z</time>
      </trkpt>
      <trkpt lat="45.95045" lon="6.52094">
        <ele>1407</ele>
        <time>2015-02-07T07:59:05.000Z</time>
      </trkpt>
      <trkpt lat="45.95045" lon="6.52095">
        <ele>1407.1999511719</ele>
        <time>2015-02-07T07:59:09.000Z</time>
      </trkpt>
      <trkpt lat="45.95046" lon="6.52098">
        <ele>1407.5999755859</ele>
        <time>2015-02-07T07:59:12.000Z</time>
      </trkpt>
      <trkpt lat="45.95047" lon="6.521">
        <ele>1408.1999511719</ele>
        <time>2015-02-07T07:59:15.000Z</time>
      </trkpt>
      <trkpt lat="45.95048" lon="6.52103">
        <ele>1408.5999755859</ele>
        <time>2015-02-07T07:59:18.000Z</time>
      </trkpt>
      <trkpt lat="45.9505" lon="6.52105">
        <ele>1409</ele>
        <time>2015-02-07T07:59:20.000Z</time>
      </trkpt>
      <trkpt lat="45.95051" lon="6.52107">
        <ele>1409.8000488281</ele>
        <time>2015-02-07T07:59:25.000Z</time>
      </trkpt>
      <trkpt lat="45.95051" lon="6.52107">
        <ele>1410</ele>
        <time>2015-02-07T07:59:26.000Z</time>
      </trkpt>
      <trkpt lat="45.95053" lon="6.5211">
        <ele>1409.8000488281</ele>
        <time>2015-02-07T07:59:33.000Z</time>
      </trkpt>
      <trkpt lat="45.95054" lon="6.52111">
        <ele>1410.4000244141</ele>
        <time>2015-02-07T07:59:40.000Z</time>
      </trkpt>
      <trkpt lat="45.95055" lon="6.52113">
        <ele>1411</ele>
        <time>2015-02-07T07:59:43.000Z</time>
      </trkpt>
      <trkpt lat="45.95057" lon="6.52114">
        <ele>1412</ele>
        <time>2015-02-07T07:59:48.000Z</time>
      </trkpt>
      <trkpt lat="45.95057" lon="6.52114">
        <ele>1412</ele>
        <time>2015-02-07T07:59:49.000Z</time>
      </trkpt>
      <trkpt lat="45.95059" lon="6.52117">
        <ele>1412.8000488281</ele>
        <time>2015-02-07T07:59:53.000Z</time>
      </trkpt>
      <trkpt lat="45.9506" lon="6.52117">
        <ele>1413.1999511719</ele>
        <time>2015-02-07T07:59:55.000Z</time>
      </trkpt>
      <trkpt lat="45.95062" lon="6.5212">
        <ele>1414</ele>
        <time>2015-02-07T07:59:59.000Z</time>
      </trkpt>
      <trkpt lat="45.95062" lon="6.52121">
        <ele>1414.4000244141</ele>
        <time>2015-02-07T08:00:00.000Z</time>
      </trkpt>
      <trkpt lat="45.95063" lon="6.52123">
        <ele>1415.1999511719</ele>
        <time>2015-02-07T08:00:05.000Z</time>
      </trkpt>
      <trkpt lat="45.95063" lon="6.52123">
        <ele>1415.4000244141</ele>
        <time>2015-02-07T08:00:06.000Z</time>
      </trkpt>
      <trkpt lat="45.95065" lon="6.52126">
        <ele>1416.1999511719</ele>
        <time>2015-02-07T08:00:10.000Z</time>
      </trkpt>
      <trkpt lat="45.95067" lon="6.52129">
        <ele>1416.4000244141</ele>
        <time>2015-02-07T08:00:15.000Z</time>
      </trkpt>
      <trkpt lat="45.9507" lon="6.52133">
        <ele>1417</ele>
        <time>2015-02-07T08:00:22.000Z</time>
      </trkpt>
      <trkpt lat="45.95072" lon="6.52136">
        <ele>1417.5999755859</ele>
        <time>2015-02-07T08:00:25.000Z</time>
      </trkpt>
      <trkpt lat="45.95073" lon="6.52138">
        <ele>1417.5999755859</ele>
        <time>2015-02-07T08:00:30.000Z</time>
      </trkpt>
      <trkpt lat="45.95076" lon="6.52141">
        <ele>1418</ele>
        <time>2015-02-07T08:00:38.000Z</time>
      </trkpt>
      <trkpt lat="45.95076" lon="6.52141">
        <ele>1418</ele>
        <time>2015-02-07T08:00:44.000Z</time>
      </trkpt>
      <trkpt lat="45.95079" lon="6.52145">
        <ele>1417.8000488281</ele>
        <time>2015-02-07T08:00:54.000Z</time>
      </trkpt>
      <trkpt lat="45.9508" lon="6.52147">
        <ele>1417.8000488281</ele>
        <time>2015-02-07T08:01:01.000Z</time>
      </trkpt>
      <trkpt lat="45.95083" lon="6.52151">
        <ele>1417.8000488281</ele>
        <time>2015-02-07T08:01:08.000Z</time>
      </trkpt>
      <trkpt lat="45.95085" lon="6.52155">
        <ele>1418.1999511719</ele>
        <time>2015-02-07T08:01:14.000Z</time>
      </trkpt>
      <trkpt lat="45.95087" lon="6.52157">
        <ele>1418.5999755859</ele>
        <time>2015-02-07T08:01:19.000Z</time>
      </trkpt>
      <trkpt lat="45.95087" lon="6.52158">
        <ele>1419</ele>
        <time>2015-02-07T08:01:22.000Z</time>
      </trkpt>
      <trkpt lat="45.95087" lon="6.52158">
        <ele>1419.1999511719</ele>
        <time>2015-02-07T08:01:36.000Z</time>
      </trkpt>
      <trkpt lat="45.95088" lon="6.52159">
        <ele>1419.4000244141</ele>
        <time>2015-02-07T08:01:48.000Z</time>
      </trkpt>
      <trkpt lat="45.95094" lon="6.52166">
        <ele>1419.5999755859</ele>
        <time>2015-02-07T08:01:54.000Z</time>
      </trkpt>
      <trkpt lat="45.95099" lon="6.52173">
        <ele>1421</ele>
        <time>2015-02-07T08:02:00.000Z</time>
      </trkpt>
      <trkpt lat="45.95102" lon="6.52178">
        <ele>1422</ele>
        <time>2015-02-07T08:02:04.000Z</time>
      </trkpt>
      <trkpt lat="45.95104" lon="6.52181">
        <ele>1422.4000244141</ele>
        <time>2015-02-07T08:02:07.000Z</time>
      </trkpt>
      <trkpt lat="45.95106" lon="6.52183">
        <ele>1423.1999511719</ele>
        <time>2015-02-07T08:02:09.000Z</time>
      </trkpt>
      <trkpt lat="45.95109" lon="6.52187">
        <ele>1424.4000244141</ele>
        <time>2015-02-07T08:02:14.000Z</time>
      </trkpt>
      <trkpt lat="45.9511" lon="6.52189">
        <ele>1425.4000244141</ele>
        <time>2015-02-07T08:02:18.000Z</time>
      </trkpt>
      <trkpt lat="45.95111" lon="6.52192">
        <ele>1425.8000488281</ele>
        <time>2015-02-07T08:02:20.000Z</time>
      </trkpt>
      <trkpt lat="45.95112" lon="6.52194">
        <ele>1426.8000488281</ele>
        <time>2015-02-07T08:02:24.000Z</time>
      </trkpt>
      <trkpt lat="45.95114" lon="6.52196">
        <ele>1427.1999511719</ele>
        <time>2015-02-07T08:02:27.000Z</time>
      </trkpt>
      <trkpt lat="45.95115" lon="6.52197">
        <ele>1427.8000488281</ele>
        <time>2015-02-07T08:02:31.000Z</time>
      </trkpt>
      <trkpt lat="45.95116" lon="6.52198">
        <ele>1428</ele>
        <time>2015-02-07T08:02:33.000Z</time>
      </trkpt>
      <trkpt lat="45.95118" lon="6.522">
        <ele>1428.8000488281</ele>
        <time>2015-02-07T08:02:37.000Z</time>
      </trkpt>
      <trkpt lat="45.95119" lon="6.52201">
        <ele>1429.1999511719</ele>
        <time>2015-02-07T08:02:39.000Z</time>
      </trkpt>
      <trkpt lat="45.9512" lon="6.52204">
        <ele>1429.8000488281</ele>
        <time>2015-02-07T08:02:42.000Z</time>
      </trkpt>
      <trkpt lat="45.95122" lon="6.52205">
        <ele>1430.1999511719</ele>
        <time>2015-02-07T08:02:45.000Z</time>
      </trkpt>
      <trkpt lat="45.95124" lon="6.52207">
        <ele>1431</ele>
        <time>2015-02-07T08:02:48.000Z</time>
      </trkpt>
      <trkpt lat="45.95126" lon="6.52207">
        <ele>1431.4000244141</ele>
        <time>2015-02-07T08:02:51.000Z</time>
      </trkpt>
      <trkpt lat="45.95128" lon="6.52209">
        <ele>1432</ele>
        <time>2015-02-07T08:02:55.000Z</time>
      </trkpt>
      <trkpt lat="45.95129" lon="6.5221">
        <ele>1432.1999511719</ele>
        <time>2015-02-07T08:02:58.000Z</time>
      </trkpt>
      <trkpt lat="45.95133" lon="6.52211">
        <ele>1433</ele>
        <time>2015-02-07T08:03:04.000Z</time>
      </trkpt>
      <trkpt lat="45.95133" lon="6.52211">
        <ele>1433.1999511719</ele>
        <time>2015-02-07T08:03:05.000Z</time>
      </trkpt>
      <trkpt lat="45.95138" lon="6.52211">
        <ele>1433.8000488281</ele>
        <time>2015-02-07T08:03:10.000Z</time>
      </trkpt>
      <trkpt lat="45.95139" lon="6.5221">
        <ele>1434.1999511719</ele>
        <time>2015-02-07T08:03:12.000Z</time>
      </trkpt>
      <trkpt lat="45.95141" lon="6.5221">
        <ele>1435</ele>
        <time>2015-02-07T08:03:15.000Z</time>
      </trkpt>
      <trkpt lat="45.95142" lon="6.5221">
        <ele>1435.4000244141</ele>
        <time>2015-02-07T08:03:18.000Z</time>
      </trkpt>
      <trkpt lat="45.95143" lon="6.52209">
        <ele>1435.5999755859</ele>
        <time>2015-02-07T08:03:20.000Z</time>
      </trkpt>
      <trkpt lat="45.95144" lon="6.52209">
        <ele>1436.1999511719</ele>
        <time>2015-02-07T08:03:24.000Z</time>
      </trkpt>
      <trkpt lat="45.95144" lon="6.52209">
        <ele>1436.5999755859</ele>
        <time>2015-02-07T08:03:29.000Z</time>
      </trkpt>
      <trkpt lat="45.95143" lon="6.52211">
        <ele>1437.5999755859</ele>
        <time>2015-02-07T08:03:32.000Z</time>
      </trkpt>
      <trkpt lat="45.95143" lon="6.52212">
        <ele>1437.5999755859</ele>
        <time>2015-02-07T08:03:33.000Z</time>
      </trkpt>
      <trkpt lat="45.95141" lon="6.52216">
        <ele>1438</ele>
        <time>2015-02-07T08:03:38.000Z</time>
      </trkpt>
      <trkpt lat="45.9514" lon="6.52219">
        <ele>1438.8000488281</ele>
        <time>2015-02-07T08:03:43.000Z</time>
      </trkpt>
      <trkpt lat="45.95139" lon="6.5222">
        <ele>1439</ele>
        <time>2015-02-07T08:03:44.000Z</time>
      </trkpt>
      <trkpt lat="45.95137" lon="6.52224">
        <ele>1440</ele>
        <time>2015-02-07T08:03:49.000Z</time>
      </trkpt>
      <trkpt lat="45.95137" lon="6.52224">
        <ele>1440.1999511719</ele>
        <time>2015-02-07T08:03:50.000Z</time>
      </trkpt>
      <trkpt lat="45.95135" lon="6.52224">
        <ele>1440.4000244141</ele>
        <time>2015-02-07T08:04:00.000Z</time>
      </trkpt>
      <trkpt lat="45.95131" lon="6.52225">
        <ele>1441</ele>
        <time>2015-02-07T08:04:05.000Z</time>
      </trkpt>
      <trkpt lat="45.95127" lon="6.52225">
        <ele>1442.1999511719</ele>
        <time>2015-02-07T08:04:11.000Z</time>
      </trkpt>
      <trkpt lat="45.95124" lon="6.52225">
        <ele>1443</ele>
        <time>2015-02-07T08:04:16.000Z</time>
      </trkpt>
      <trkpt lat="45.95124" lon="6.52225">
        <ele>1443.1999511719</ele>
        <time>2015-02-07T08:04:18.000Z</time>
      </trkpt>
      <trkpt lat="45.95122" lon="6.52224">
        <ele>1443.8000488281</ele>
        <time>2015-02-07T08:04:24.000Z</time>
      </trkpt>
      <trkpt lat="45.95121" lon="6.52225">
        <ele>1444.1999511719</ele>
        <time>2015-02-07T08:04:28.000Z</time>
      </trkpt>
      <trkpt lat="45.95121" lon="6.52225">
        <ele>1444.1999511719</ele>
        <time>2015-02-07T08:04:29.000Z</time>
      </trkpt>
      <trkpt lat="45.95124" lon="6.52228">
        <ele>1445</ele>
        <time>2015-02-07T08:04:37.000Z</time>
      </trkpt>
      <trkpt lat="45.95125" lon="6.52229">
        <ele>1445.1999511719</ele>
        <time>2015-02-07T08:04:39.000Z</time>
      </trkpt>
      <trkpt lat="45.95129" lon="6.52233">
        <ele>1446</ele>
        <time>2015-02-07T08:04:44.000Z</time>
      </trkpt>
      <trkpt lat="45.9513" lon="6.52236">
        <ele>1446.8000488281</ele>
        <time>2015-02-07T08:04:48.000Z</time>
      </trkpt>
      <trkpt lat="45.95131" lon="6.52238">
        <ele>1447.4000244141</ele>
        <time>2015-02-07T08:04:50.000Z</time>
      </trkpt>
      <trkpt lat="45.95133" lon="6.52241">
        <ele>1447.8000488281</ele>
        <time>2015-02-07T08:04:53.000Z</time>
      </trkpt>
      <trkpt lat="45.95136" lon="6.52243">
        <ele>1448.8000488281</ele>
        <time>2015-02-07T08:04:58.000Z</time>
      </trkpt>
      <trkpt lat="45.95136" lon="6.52243">
        <ele>1449</ele>
        <time>2015-02-07T08:04:59.000Z</time>
      </trkpt>
      <trkpt lat="45.9514" lon="6.52246">
        <ele>1449.8000488281</ele>
        <time>2015-02-07T08:05:05.000Z</time>
      </trkpt>
      <trkpt lat="45.95141" lon="6.52246">
        <ele>1450</ele>
        <time>2015-02-07T08:05:07.000Z</time>
      </trkpt>
      <trkpt lat="45.95144" lon="6.52246">
        <ele>1451</ele>
        <time>2015-02-07T08:05:12.000Z</time>
      </trkpt>
      <trkpt lat="45.95145" lon="6.52246">
        <ele>1451.1999511719</ele>
        <time>2015-02-07T08:05:13.000Z</time>
      </trkpt>
      <trkpt lat="45.95146" lon="6.52246">
        <ele>1451.8000488281</ele>
        <time>2015-02-07T08:05:16.000Z</time>
      </trkpt>
      <trkpt lat="45.95149" lon="6.52247">
        <ele>1452.4000244141</ele>
        <time>2015-02-07T08:05:19.000Z</time>
      </trkpt>
      <trkpt lat="45.95151" lon="6.52248">
        <ele>1453</ele>
        <time>2015-02-07T08:05:23.000Z</time>
      </trkpt>
      <trkpt lat="45.95151" lon="6.52247">
        <ele>1453.4000244141</ele>
        <time>2015-02-07T08:05:26.000Z</time>
      </trkpt>
      <trkpt lat="45.95151" lon="6.52247">
        <ele>1453.5999755859</ele>
        <time>2015-02-07T08:05:28.000Z</time>
      </trkpt>
      <trkpt lat="45.95151" lon="6.52247">
        <ele>1454.1999511719</ele>
        <time>2015-02-07T08:05:41.000Z</time>
      </trkpt>
      <trkpt lat="45.95152" lon="6.52245">
        <ele>1454.4000244141</ele>
        <time>2015-02-07T08:05:49.000Z</time>
      </trkpt>
      <trkpt lat="45.95153" lon="6.52245">
        <ele>1454</ele>
        <time>2015-02-07T08:05:54.000Z</time>
      </trkpt>
      <trkpt lat="45.95153" lon="6.52245">
        <ele>1454.4000244141</ele>
        <time>2015-02-07T08:05:55.000Z</time>
      </trkpt>
      <trkpt lat="45.95153" lon="6.52249">
        <ele>1455.1999511719</ele>
        <time>2015-02-07T08:05:59.000Z</time>
      </trkpt>
      <trkpt lat="45.95153" lon="6.52251">
        <ele>1455.5999755859</ele>
        <time>2015-02-07T08:06:00.000Z</time>
      </trkpt>
      <trkpt lat="45.95151" lon="6.52256">
        <ele>1456</ele>
        <time>2015-02-07T08:06:05.000Z</time>
      </trkpt>
      <trkpt lat="45.9515" lon="6.52259">
        <ele>1456.5999755859</ele>
        <time>2015-02-07T08:06:09.000Z</time>
      </trkpt>
      <trkpt lat="45.95149" lon="6.5226">
        <ele>1457</ele>
        <time>2015-02-07T08:06:11.000Z</time>
      </trkpt>
      <trkpt lat="45.95146" lon="6.52261">
        <ele>1457.8000488281</ele>
        <time>2015-02-07T08:06:15.000Z</time>
      </trkpt>
      <trkpt lat="45.95145" lon="6.52262">
        <ele>1458.1999511719</ele>
        <time>2015-02-07T08:06:17.000Z</time>
      </trkpt>
      <trkpt lat="45.95143" lon="6.52262">
        <ele>1458.8000488281</ele>
        <time>2015-02-07T08:06:21.000Z</time>
      </trkpt>
      <trkpt lat="45.95142" lon="6.52262">
        <ele>1459</ele>
        <time>2015-02-07T08:06:24.000Z</time>
      </trkpt>
      <trkpt lat="45.9514" lon="6.52263">
        <ele>1459.4000244141</ele>
        <time>2015-02-07T08:06:30.000Z</time>
      </trkpt>
      <trkpt lat="45.9514" lon="6.52263">
        <ele>1459.8000488281</ele>
        <time>2015-02-07T08:06:32.000Z</time>
      </trkpt>
      <trkpt lat="45.9514" lon="6.52263">
        <ele>1460.4000244141</ele>
        <time>2015-02-07T08:06:38.000Z</time>
      </trkpt>
      <trkpt lat="45.95137" lon="6.52264">
        <ele>1460.4000244141</ele>
        <time>2015-02-07T08:06:44.000Z</time>
      </trkpt>
      <trkpt lat="45.95137" lon="6.52264">
        <ele>1461.1999511719</ele>
        <time>2015-02-07T08:06:48.000Z</time>
      </trkpt>
      <trkpt lat="45.95138" lon="6.52266">
        <ele>1461.5999755859</ele>
        <time>2015-02-07T08:06:51.000Z</time>
      </trkpt>
      <trkpt lat="45.95144" lon="6.5227">
        <ele>1462.4000244141</ele>
        <time>2015-02-07T08:06:57.000Z</time>
      </trkpt>
      <trkpt lat="45.95144" lon="6.5227">
        <ele>1462.5999755859</ele>
        <time>2015-02-07T08:06:58.000Z</time>
      </trkpt>
      <trkpt lat="45.95148" lon="6.52271">
        <ele>1463.5999755859</ele>
        <time>2015-02-07T08:07:03.000Z</time>
      </trkpt>
      <trkpt lat="45.9515" lon="6.52272">
        <ele>1464</ele>
        <time>2015-02-07T08:07:06.000Z</time>
      </trkpt>
      <trkpt lat="45.95152" lon="6.52273">
        <ele>1464.5999755859</ele>
        <time>2015-02-07T08:07:09.000Z</time>
      </trkpt>
      <trkpt lat="45.95155" lon="6.52272">
        <ele>1465.4000244141</ele>
        <time>2015-02-07T08:07:13.000Z</time>
      </trkpt>
      <trkpt lat="45.95157" lon="6.52271">
        <ele>1465.8000488281</ele>
        <time>2015-02-07T08:07:15.000Z</time>
      </trkpt>
      <trkpt lat="45.95158" lon="6.5227">
        <ele>1466.4000244141</ele>
        <time>2015-02-07T08:07:18.000Z</time>
      </trkpt>
      <trkpt lat="45.95159" lon="6.5227">
        <ele>1467</ele>
        <time>2015-02-07T08:07:22.000Z</time>
      </trkpt>
      <trkpt lat="45.95159" lon="6.5227">
        <ele>1467.1999511719</ele>
        <time>2015-02-07T08:07:23.000Z</time>
      </trkpt>
      <trkpt lat="45.95163" lon="6.52267">
        <ele>1467.8000488281</ele>
        <time>2015-02-07T08:07:29.000Z</time>
      </trkpt>
      <trkpt lat="45.95164" lon="6.52266">
        <ele>1468.1999511719</ele>
        <time>2015-02-07T08:07:31.000Z</time>
      </trkpt>
      <trkpt lat="45.95166" lon="6.52267">
        <ele>1469.4000244141</ele>
        <time>2015-02-07T08:07:36.000Z</time>
      </trkpt>
      <trkpt lat="45.95166" lon="6.52267">
        <ele>1469.4000244141</ele>
        <time>2015-02-07T08:07:37.000Z</time>
      </trkpt>
      <trkpt lat="45.95169" lon="6.52268">
        <ele>1470.4000244141</ele>
        <time>2015-02-07T08:07:42.000Z</time>
      </trkpt>
      <trkpt lat="45.9517" lon="6.52269">
        <ele>1470.5999755859</ele>
        <time>2015-02-07T08:07:43.000Z</time>
      </trkpt>
      <trkpt lat="45.95173" lon="6.52271">
        <ele>1471.4000244141</ele>
        <time>2015-02-07T08:07:47.000Z</time>
      </trkpt>
      <trkpt lat="45.95175" lon="6.52272">
        <ele>1471.8000488281</ele>
        <time>2015-02-07T08:07:50.000Z</time>
      </trkpt>
      <trkpt lat="45.95177" lon="6.52274">
        <ele>1472.5999755859</ele>
        <time>2015-02-07T08:07:54.000Z</time>
      </trkpt>
      <trkpt lat="45.95179" lon="6.52274">
        <ele>1473</ele>
        <time>2015-02-07T08:07:56.000Z</time>
      </trkpt>
      <trkpt lat="45.95181" lon="6.52276">
        <ele>1473.5999755859</ele>
        <time>2015-02-07T08:07:59.000Z</time>
      </trkpt>
      <trkpt lat="45.95182" lon="6.52277">
        <ele>1474.1999511719</ele>
        <time>2015-02-07T08:08:02.000Z</time>
      </trkpt>
      <trkpt lat="45.95184" lon="6.52277">
        <ele>1474.8000488281</ele>
        <time>2015-02-07T08:08:05.000Z</time>
      </trkpt>
      <trkpt lat="45.95185" lon="6.52277">
        <ele>1475.4000244141</ele>
        <time>2015-02-07T08:08:08.000Z</time>
      </trkpt>
      <trkpt lat="45.95185" lon="6.52277">
        <ele>1475.8000488281</ele>
        <time>2015-02-07T08:08:10.000Z</time>
      </trkpt>
      <trkpt lat="45.95186" lon="6.52276">
        <ele>1476</ele>
        <time>2015-02-07T08:08:20.000Z</time>
      </trkpt>
      <trkpt lat="45.95186" lon="6.52276">
        <ele>1476.4000244141</ele>
        <time>2015-02-07T08:08:25.000Z</time>
      </trkpt>
      <trkpt lat="45.95186" lon="6.52276">
        <ele>1476.8000488281</ele>
        <time>2015-02-07T08:08:27.000Z</time>
      </trkpt>
      <trkpt lat="45.95186" lon="6.5228">
        <ele>1477.5999755859</ele>
        <time>2015-02-07T08:08:31.000Z</time>
      </trkpt>
      <trkpt lat="45.95185" lon="6.52283">
        <ele>1478</ele>
        <time>2015-02-07T08:08:34.000Z</time>
      </trkpt>
      <trkpt lat="45.95185" lon="6.52285">
        <ele>1478.1999511719</ele>
        <time>2015-02-07T08:08:36.000Z</time>
      </trkpt>
      <trkpt lat="45.95184" lon="6.5229">
        <ele>1479</ele>
        <time>2015-02-07T08:08:41.000Z</time>
      </trkpt>
      <trkpt lat="45.95184" lon="6.5229">
        <ele>1479.1999511719</ele>
        <time>2015-02-07T08:08:42.000Z</time>
      </trkpt>
      <trkpt lat="45.95184" lon="6.52295">
        <ele>1480</ele>
        <time>2015-02-07T08:08:46.000Z</time>
      </trkpt>
      <trkpt lat="45.95184" lon="6.52297">
        <ele>1480.4000244141</ele>
        <time>2015-02-07T08:08:47.000Z</time>
      </trkpt>
      <trkpt lat="45.95183" lon="6.523">
        <ele>1481.1999511719</ele>
        <time>2015-02-07T08:08:50.000Z</time>
      </trkpt>
      <trkpt lat="45.95183" lon="6.52303">
        <ele>1481.5999755859</ele>
        <time>2015-02-07T08:08:52.000Z</time>
      </trkpt>
      <trkpt lat="45.95182" lon="6.52307">
        <ele>1482.1999511719</ele>
        <time>2015-02-07T08:08:57.000Z</time>
      </trkpt>
      <trkpt lat="45.95182" lon="6.52308">
        <ele>1482.4000244141</ele>
        <time>2015-02-07T08:08:58.000Z</time>
      </trkpt>
      <trkpt lat="45.95181" lon="6.52309">
        <ele>1483.5999755859</ele>
        <time>2015-02-07T08:09:02.000Z</time>
      </trkpt>
      <trkpt lat="45.95179" lon="6.52311">
        <ele>1484.5999755859</ele>
        <time>2015-02-07T08:09:07.000Z</time>
      </trkpt>
      <trkpt lat="45.95178" lon="6.52313">
        <ele>1485.1999511719</ele>
        <time>2015-02-07T08:09:10.000Z</time>
      </trkpt>
      <trkpt lat="45.95177" lon="6.52314">
        <ele>1485.8000488281</ele>
        <time>2015-02-07T08:09:12.000Z</time>
      </trkpt>
      <trkpt lat="45.95176" lon="6.52315">
        <ele>1486.1999511719</ele>
        <time>2015-02-07T08:09:15.000Z</time>
      </trkpt>
      <trkpt lat="45.95175" lon="6.52316">
        <ele>1486.8000488281</ele>
        <time>2015-02-07T08:09:18.000Z</time>
      </trkpt>
      <trkpt lat="45.95174" lon="6.52316">
        <ele>1487</ele>
        <time>2015-02-07T08:09:19.000Z</time>
      </trkpt>
      <trkpt lat="45.95172" lon="6.52318">
        <ele>1487.4000244141</ele>
        <time>2015-02-07T08:09:23.000Z</time>
      </trkpt>
      <trkpt lat="45.9517" lon="6.52319">
        <ele>1487.8000488281</ele>
        <time>2015-02-07T08:09:28.000Z</time>
      </trkpt>
      <trkpt lat="45.95168" lon="6.5232">
        <ele>1488.5999755859</ele>
        <time>2015-02-07T08:09:33.000Z</time>
      </trkpt>
      <trkpt lat="45.95167" lon="6.52321">
        <ele>1489</ele>
        <time>2015-02-07T08:09:35.000Z</time>
      </trkpt>
      <trkpt lat="45.95165" lon="6.5232">
        <ele>1490.1999511719</ele>
        <time>2015-02-07T08:09:39.000Z</time>
      </trkpt>
      <trkpt lat="45.95165" lon="6.5232">
        <ele>1490.4000244141</ele>
        <time>2015-02-07T08:09:40.000Z</time>
      </trkpt>
      <trkpt lat="45.95163" lon="6.5232">
        <ele>1490.5999755859</ele>
        <time>2015-02-07T08:09:46.000Z</time>
      </trkpt>
      <trkpt lat="45.9516" lon="6.52319">
        <ele>1490.8000488281</ele>
        <time>2015-02-07T08:09:51.000Z</time>
      </trkpt>
      <trkpt lat="45.9516" lon="6.52319">
        <ele>1491.4000244141</ele>
        <time>2015-02-07T08:09:54.000Z</time>
      </trkpt>
      <trkpt lat="45.95162" lon="6.52322">
        <ele>1491.8000488281</ele>
        <time>2015-02-07T08:09:59.000Z</time>
      </trkpt>
      <trkpt lat="45.95165" lon="6.52326">
        <ele>1492.1999511719</ele>
        <time>2015-02-07T08:10:04.000Z</time>
      </trkpt>
      <trkpt lat="45.95166" lon="6.52329">
        <ele>1492.5999755859</ele>
        <time>2015-02-07T08:10:06.000Z</time>
      </trkpt>
      <trkpt lat="45.95167" lon="6.52331">
        <ele>1493.4000244141</ele>
        <time>2015-02-07T08:10:10.000Z</time>
      </trkpt>
      <trkpt lat="45.95168" lon="6.52332">
        <ele>1493.5999755859</ele>
        <time>2015-02-07T08:10:12.000Z</time>
      </trkpt>
      <trkpt lat="45.95171" lon="6.52334">
        <ele>1494.4000244141</ele>
        <time>2015-02-07T08:10:16.000Z</time>
      </trkpt>
      <trkpt lat="45.95173" lon="6.52336">
        <ele>1494.8000488281</ele>
        <time>2015-02-07T08:10:18.000Z</time>
      </trkpt>
      <trkpt lat="45.95174" lon="6.52337">
        <ele>1495.5999755859</ele>
        <time>2015-02-07T08:10:22.000Z</time>
      </trkpt>
      <trkpt lat="45.95175" lon="6.52338">
        <ele>1496.1999511719</ele>
        <time>2015-02-07T08:10:24.000Z</time>
      </trkpt>
      <trkpt lat="45.95177" lon="6.5234">
        <ele>1497.1999511719</ele>
        <time>2015-02-07T08:10:30.000Z</time>
      </trkpt>
      <trkpt lat="45.95179" lon="6.52342">
        <ele>1497.4000244141</ele>
        <time>2015-02-07T08:10:37.000Z</time>
      </trkpt>
      <trkpt lat="45.9518" lon="6.52342">
        <ele>1497.8000488281</ele>
        <time>2015-02-07T08:10:42.000Z</time>
      </trkpt>
      <trkpt lat="45.95178" lon="6.52343">
        <ele>1498.4000244141</ele>
        <time>2015-02-07T08:10:46.000Z</time>
      </trkpt>
      <trkpt lat="45.95178" lon="6.52344">
        <ele>1498.8000488281</ele>
        <time>2015-02-07T08:10:48.000Z</time>
      </trkpt>
      <trkpt lat="45.95174" lon="6.52344">
        <ele>1499.4000244141</ele>
        <time>2015-02-07T08:10:53.000Z</time>
      </trkpt>
      <trkpt lat="45.95172" lon="6.52345">
        <ele>1500.4000244141</ele>
        <time>2015-02-07T08:10:59.000Z</time>
      </trkpt>
      <trkpt lat="45.95169" lon="6.52344">
        <ele>1501.1999511719</ele>
        <time>2015-02-07T08:11:04.000Z</time>
      </trkpt>
      <trkpt lat="45.95166" lon="6.52346">
        <ele>1501.4000244141</ele>
        <time>2015-02-07T08:11:09.000Z</time>
      </trkpt>
      <trkpt lat="45.95166" lon="6.52346">
        <ele>1501.4000244141</ele>
        <time>2015-02-07T08:11:11.000Z</time>
      </trkpt>
      <trkpt lat="45.95165" lon="6.52346">
        <ele>1501.8000488281</ele>
        <time>2015-02-07T08:11:13.000Z</time>
      </trkpt>
      <trkpt lat="45.95162" lon="6.52346">
        <ele>1502.4000244141</ele>
        <time>2015-02-07T08:11:17.000Z</time>
      </trkpt>
      <trkpt lat="45.95161" lon="6.52346">
        <ele>1502.5999755859</ele>
        <time>2015-02-07T08:11:18.000Z</time>
      </trkpt>
      <trkpt lat="45.95157" lon="6.52345">
        <ele>1503.5999755859</ele>
        <time>2015-02-07T08:11:24.000Z</time>
      </trkpt>
      <trkpt lat="45.95155" lon="6.52343">
        <ele>1503.8000488281</ele>
        <time>2015-02-07T08:11:26.000Z</time>
      </trkpt>
      <trkpt lat="45.95154" lon="6.52343">
        <ele>1503.8000488281</ele>
        <time>2015-02-07T08:11:27.000Z</time>
      </trkpt>
      <trkpt lat="45.95149" lon="6.52341">
        <ele>1504.5999755859</ele>
        <time>2015-02-07T08:11:32.000Z</time>
      </trkpt>
      <trkpt lat="45.95149" lon="6.52341">
        <ele>1505.5999755859</ele>
        <time>2015-02-07T08:11:38.000Z</time>
      </trkpt>
      <trkpt lat="45.95148" lon="6.52341">
        <ele>1505.8000488281</ele>
        <time>2015-02-07T08:11:40.000Z</time>
      </trkpt>
      <trkpt lat="45.95147" lon="6.52342">
        <ele>1506.1999511719</ele>
        <time>2015-02-07T08:11:46.000Z</time>
      </trkpt>
      <trkpt lat="45.95149" lon="6.52346">
        <ele>1506.8000488281</ele>
        <time>2015-02-07T08:11:52.000Z</time>
      </trkpt>
      <trkpt lat="45.95152" lon="6.5235">
        <ele>1507.5999755859</ele>
        <time>2015-02-07T08:11:59.000Z</time>
      </trkpt>
      <trkpt lat="45.95152" lon="6.5235">
        <ele>1507.8000488281</ele>
        <time>2015-02-07T08:12:00.000Z</time>
      </trkpt>
      <trkpt lat="45.95155" lon="6.52353">
        <ele>1509</ele>
        <time>2015-02-07T08:12:05.000Z</time>
      </trkpt>
      <trkpt lat="45.95156" lon="6.52355">
        <ele>1510</ele>
        <time>2015-02-07T08:12:11.000Z</time>
      </trkpt>
      <trkpt lat="45.95156" lon="6.52355">
        <ele>1509.8000488281</ele>
        <time>2015-02-07T08:12:31.000Z</time>
      </trkpt>
      <trkpt lat="45.95159" lon="6.52359">
        <ele>1509.8000488281</ele>
        <time>2015-02-07T08:12:36.000Z</time>
      </trkpt>
      <trkpt lat="45.95162" lon="6.52361">
        <ele>1510.1999511719</ele>
        <time>2015-02-07T08:12:40.000Z</time>
      </trkpt>
      <trkpt lat="45.95164" lon="6.52362">
        <ele>1510.8000488281</ele>
        <time>2015-02-07T08:12:43.000Z</time>
      </trkpt>
      <trkpt lat="45.95166" lon="6.52362">
        <ele>1511.1999511719</ele>
        <time>2015-02-07T08:12:46.000Z</time>
      </trkpt>
      <trkpt lat="45.95167" lon="6.52364">
        <ele>1512.1999511719</ele>
        <time>2015-02-07T08:12:49.000Z</time>
      </trkpt>
      <trkpt lat="45.95168" lon="6.52364">
        <ele>1512.5999755859</ele>
        <time>2015-02-07T08:12:51.000Z</time>
      </trkpt>
      <trkpt lat="45.95168" lon="6.52365">
        <ele>1513.4000244141</ele>
        <time>2015-02-07T08:12:56.000Z</time>
      </trkpt>
      <trkpt lat="45.95167" lon="6.52365">
        <ele>1513.8000488281</ele>
        <time>2015-02-07T08:12:58.000Z</time>
      </trkpt>
      <trkpt lat="45.95163" lon="6.52367">
        <ele>1514.5999755859</ele>
        <time>2015-02-07T08:13:04.000Z</time>
      </trkpt>
      <trkpt lat="45.95162" lon="6.52368">
        <ele>1514.8000488281</ele>
        <time>2015-02-07T08:13:05.000Z</time>
      </trkpt>
      <trkpt lat="45.9516" lon="6.52369">
        <ele>1515.5999755859</ele>
        <time>2015-02-07T08:13:10.000Z</time>
      </trkpt>
      <trkpt lat="45.95156" lon="6.52369">
        <ele>1516.4000244141</ele>
        <time>2015-02-07T08:13:15.000Z</time>
      </trkpt>
      <trkpt lat="45.95154" lon="6.5237">
        <ele>1516.8000488281</ele>
        <time>2015-02-07T08:13:17.000Z</time>
      </trkpt>
      <trkpt lat="45.95154" lon="6.5237">
        <ele>1517.5999755859</ele>
        <time>2015-02-07T08:13:20.000Z</time>
      </trkpt>
      <trkpt lat="45.95158" lon="6.52375">
        <ele>1517.8000488281</ele>
        <time>2015-02-07T08:13:27.000Z</time>
      </trkpt>
      <trkpt lat="45.95159" lon="6.52375">
        <ele>1518</ele>
        <time>2015-02-07T08:13:28.000Z</time>
      </trkpt>
      <trkpt lat="45.95162" lon="6.52376">
        <ele>1518.8000488281</ele>
        <time>2015-02-07T08:13:32.000Z</time>
      </trkpt>
      <trkpt lat="45.95163" lon="6.52376">
        <ele>1519</ele>
        <time>2015-02-07T08:13:33.000Z</time>
      </trkpt>
      <trkpt lat="45.95165" lon="6.52376">
        <ele>1520</ele>
        <time>2015-02-07T08:13:37.000Z</time>
      </trkpt>
      <trkpt lat="45.95165" lon="6.52376">
        <ele>1520.4000244141</ele>
        <time>2015-02-07T08:13:40.000Z</time>
      </trkpt>
      <trkpt lat="45.95163" lon="6.52379">
        <ele>1521</ele>
        <time>2015-02-07T08:13:48.000Z</time>
      </trkpt>
      <trkpt lat="45.95159" lon="6.52383">
        <ele>1522.1999511719</ele>
        <time>2015-02-07T08:13:54.000Z</time>
      </trkpt>
      <trkpt lat="45.95154" lon="6.52382">
        <ele>1523</ele>
        <time>2015-02-07T08:14:01.000Z</time>
      </trkpt>
      <trkpt lat="45.95153" lon="6.52382">
        <ele>1523.1999511719</ele>
        <time>2015-02-07T08:14:02.000Z</time>
      </trkpt>
      <trkpt lat="45.95152" lon="6.52383">
        <ele>1524.1999511719</ele>
        <time>2015-02-07T08:14:08.000Z</time>
      </trkpt>
      <trkpt lat="45.95152" lon="6.52383">
        <ele>1524.4000244141</ele>
        <time>2015-02-07T08:14:09.000Z</time>
      </trkpt>
      <trkpt lat="45.95152" lon="6.52383">
        <ele>1524.8000488281</ele>
        <time>2015-02-07T08:14:25.000Z</time>
      </trkpt>
      <trkpt lat="45.95152" lon="6.52383">
        <ele>1525</ele>
        <time>2015-02-07T08:14:34.000Z</time>
      </trkpt>
      <trkpt lat="45.95152" lon="6.52383">
        <ele>1525</ele>
        <time>2015-02-07T08:14:47.000Z</time>
      </trkpt>
      <trkpt lat="45.95152" lon="6.52383">
        <ele>1525</ele>
        <time>2015-02-07T08:14:59.000Z</time>
      </trkpt>
      <trkpt lat="45.95152" lon="6.52383">
        <ele>1525.1999511719</ele>
        <time>2015-02-07T08:15:06.000Z</time>
      </trkpt>
      <trkpt lat="45.95152" lon="6.52383">
        <ele>1525.1999511719</ele>
        <time>2015-02-07T08:15:07.000Z</time>
      </trkpt>
      <trkpt lat="45.95152" lon="6.52383">
        <ele>1525.5999755859</ele>
        <time>2015-02-07T08:15:15.000Z</time>
      </trkpt>
      <trkpt lat="45.95153" lon="6.52384">
        <ele>1526</ele>
        <time>2015-02-07T08:15:25.000Z</time>
      </trkpt>
      <trkpt lat="45.95154" lon="6.52388">
        <ele>1526.4000244141</ele>
        <time>2015-02-07T08:15:32.000Z</time>
      </trkpt>
      <trkpt lat="45.95155" lon="6.5239">
        <ele>1527.5999755859</ele>
        <time>2015-02-07T08:15:38.000Z</time>
      </trkpt>
      <trkpt lat="45.95155" lon="6.5239">
        <ele>1527.5999755859</ele>
        <time>2015-02-07T08:15:39.000Z</time>
      </trkpt>
      <trkpt lat="45.95156" lon="6.52392">
        <ele>1527.5999755859</ele>
        <time>2015-02-07T08:15:51.000Z</time>
      </trkpt>
      <trkpt lat="45.95159" lon="6.52397">
        <ele>1528.4000244141</ele>
        <time>2015-02-07T08:15:57.000Z</time>
      </trkpt>
      <trkpt lat="45.9516" lon="6.52397">
        <ele>1528.5999755859</ele>
        <time>2015-02-07T08:15:58.000Z</time>
      </trkpt>
      <trkpt lat="45.95162" lon="6.52399">
        <ele>1529.5999755859</ele>
        <time>2015-02-07T08:16:01.000Z</time>
      </trkpt>
      <trkpt lat="45.95162" lon="6.52399">
        <ele>1530.4000244141</ele>
        <time>2015-02-07T08:16:04.000Z</time>
      </trkpt>
      <trkpt lat="45.95162" lon="6.52399">
        <ele>1530.8000488281</ele>
        <time>2015-02-07T08:16:05.000Z</time>
      </trkpt>
      <trkpt lat="45.95162" lon="6.52399">
        <ele>1531.1999511719</ele>
        <time>2015-02-07T08:16:18.000Z</time>
      </trkpt>
      <trkpt lat="45.95163" lon="6.524">
        <ele>1530.8000488281</ele>
        <time>2015-02-07T08:16:23.000Z</time>
      </trkpt>
      <trkpt lat="45.95163" lon="6.524">
        <ele>1531.8000488281</ele>
        <time>2015-02-07T08:16:25.000Z</time>
      </trkpt>
      <trkpt lat="45.95162" lon="6.52402">
        <ele>1532.8000488281</ele>
        <time>2015-02-07T08:16:30.000Z</time>
      </trkpt>
      <trkpt lat="45.95158" lon="6.52412">
        <ele>1533.8000488281</ele>
        <time>2015-02-07T08:16:38.000Z</time>
      </trkpt>
      <trkpt lat="45.95156" lon="6.52415">
        <ele>1534.5999755859</ele>
        <time>2015-02-07T08:16:43.000Z</time>
      </trkpt>
      <trkpt lat="45.95156" lon="6.52415">
        <ele>1535</ele>
        <time>2015-02-07T08:16:45.000Z</time>
      </trkpt>
      <trkpt lat="45.95156" lon="6.52415">
        <ele>1536</ele>
        <time>2015-02-07T08:16:50.000Z</time>
      </trkpt>
      <trkpt lat="45.95156" lon="6.52415">
        <ele>1536.1999511719</ele>
        <time>2015-02-07T08:16:51.000Z</time>
      </trkpt>
      <trkpt lat="45.95156" lon="6.52416">
        <ele>1537.1999511719</ele>
        <time>2015-02-07T08:16:56.000Z</time>
      </trkpt>
      <trkpt lat="45.95156" lon="6.52416">
        <ele>1537.1999511719</ele>
        <time>2015-02-07T08:16:57.000Z</time>
      </trkpt>
      <trkpt lat="45.95156" lon="6.52416">
        <ele>1538.1999511719</ele>
        <time>2015-02-07T08:17:01.000Z</time>
      </trkpt>
      <trkpt lat="45.95156" lon="6.52416">
        <ele>1539</ele>
        <time>2015-02-07T08:17:04.000Z</time>
      </trkpt>
      <trkpt lat="45.95156" lon="6.52416">
        <ele>1539.4000244141</ele>
        <time>2015-02-07T08:17:08.000Z</time>
      </trkpt>
      <trkpt lat="45.95156" lon="6.52416">
        <ele>1539.8000488281</ele>
        <time>2015-02-07T08:17:11.000Z</time>
      </trkpt>
      <trkpt lat="45.95156" lon="6.52416">
        <ele>1540.5999755859</ele>
        <time>2015-02-07T08:17:14.000Z</time>
      </trkpt>
      <trkpt lat="45.95154" lon="6.52416">
        <ele>1541</ele>
        <time>2015-02-07T08:17:17.000Z</time>
      </trkpt>
      <trkpt lat="45.95154" lon="6.52416">
        <ele>1541.5999755859</ele>
        <time>2015-02-07T08:17:20.000Z</time>
      </trkpt>
      <trkpt lat="45.95154" lon="6.52416">
        <ele>1542</ele>
        <time>2015-02-07T08:17:22.000Z</time>
      </trkpt>
      <trkpt lat="45.95154" lon="6.52416">
        <ele>1542.5999755859</ele>
        <time>2015-02-07T08:17:26.000Z</time>
      </trkpt>
      <trkpt lat="45.95154" lon="6.52416">
        <ele>1543.1999511719</ele>
        <time>2015-02-07T08:17:28.000Z</time>
      </trkpt>
      <trkpt lat="45.95154" lon="6.52416">
        <ele>1543.5999755859</ele>
        <time>2015-02-07T08:17:42.000Z</time>
      </trkpt>
      <trkpt lat="45.95154" lon="6.52416">
        <ele>1543.5999755859</ele>
        <time>2015-02-07T08:17:53.000Z</time>
      </trkpt>
      <trkpt lat="45.95153" lon="6.52417">
        <ele>1543.4000244141</ele>
        <time>2015-02-07T08:18:07.000Z</time>
      </trkpt>
      <trkpt lat="45.95151" lon="6.52417">
        <ele>1543.4000244141</ele>
        <time>2015-02-07T08:18:16.000Z</time>
      </trkpt>
      <trkpt lat="45.95146" lon="6.52419">
        <ele>1543.8000488281</ele>
        <time>2015-02-07T08:18:19.000Z</time>
      </trkpt>
      <trkpt lat="45.95141" lon="6.52419">
        <ele>1544.1999511719</ele>
        <time>2015-02-07T08:18:22.000Z</time>
      </trkpt>
      <trkpt lat="45.95137" lon="6.5242">
        <ele>1544.4000244141</ele>
        <time>2015-02-07T08:18:24.000Z</time>
      </trkpt>
      <trkpt lat="45.95131" lon="6.5242">
        <ele>1545</ele>
        <time>2015-02-07T08:18:27.000Z</time>
      </trkpt>
      <trkpt lat="45.95123" lon="6.52415">
        <ele>1545.8000488281</ele>
        <time>2015-02-07T08:18:35.000Z</time>
      </trkpt>
      <trkpt lat="45.95121" lon="6.52414">
        <ele>1546</ele>
        <time>2015-02-07T08:18:36.000Z</time>
      </trkpt>
      <trkpt lat="45.95118" lon="6.52411">
        <ele>1547</ele>
        <time>2015-02-07T08:18:40.000Z</time>
      </trkpt>
      <trkpt lat="45.95116" lon="6.5241">
        <ele>1547.4000244141</ele>
        <time>2015-02-07T08:18:42.000Z</time>
      </trkpt>
      <trkpt lat="45.95112" lon="6.52407">
        <ele>1548.1999511719</ele>
        <time>2015-02-07T08:18:46.000Z</time>
      </trkpt>
      <trkpt lat="45.95111" lon="6.52406">
        <ele>1548.4000244141</ele>
        <time>2015-02-07T08:18:47.000Z</time>
      </trkpt>
      <trkpt lat="45.95107" lon="6.52401">
        <ele>1549.1999511719</ele>
        <time>2015-02-07T08:18:52.000Z</time>
      </trkpt>
      <trkpt lat="45.95107" lon="6.52401">
        <ele>1549.5999755859</ele>
        <time>2015-02-07T08:18:53.000Z</time>
      </trkpt>
      <trkpt lat="45.951" lon="6.52395">
        <ele>1549.8000488281</ele>
        <time>2015-02-07T08:18:59.000Z</time>
      </trkpt>
      <trkpt lat="45.95096" lon="6.52392">
        <ele>1550.1999511719</ele>
        <time>2015-02-07T08:19:05.000Z</time>
      </trkpt>
      <trkpt lat="45.95096" lon="6.52392">
        <ele>1550.4000244141</ele>
        <time>2015-02-07T08:19:06.000Z</time>
      </trkpt>
      <trkpt lat="45.9509" lon="6.52388">
        <ele>1551</ele>
        <time>2015-02-07T08:19:11.000Z</time>
      </trkpt>
      <trkpt lat="45.95086" lon="6.52386">
        <ele>1551.4000244141</ele>
        <time>2015-02-07T08:19:14.000Z</time>
      </trkpt>
      <trkpt lat="45.95082" lon="6.52384">
        <ele>1551.5999755859</ele>
        <time>2015-02-07T08:19:18.000Z</time>
      </trkpt>
      <trkpt lat="45.95075" lon="6.52379">
        <ele>1551.8000488281</ele>
        <time>2015-02-07T08:19:26.000Z</time>
      </trkpt>
      <trkpt lat="45.95071" lon="6.52377">
        <ele>1552</ele>
        <time>2015-02-07T08:19:31.000Z</time>
      </trkpt>
      <trkpt lat="45.95066" lon="6.52375">
        <ele>1552.4000244141</ele>
        <time>2015-02-07T08:19:36.000Z</time>
      </trkpt>
      <trkpt lat="45.95061" lon="6.52369">
        <ele>1552.5999755859</ele>
        <time>2015-02-07T08:19:42.000Z</time>
      </trkpt>
      <trkpt lat="45.95055" lon="6.52362">
        <ele>1552.8000488281</ele>
        <time>2015-02-07T08:19:48.000Z</time>
      </trkpt>
      <trkpt lat="45.95052" lon="6.52359">
        <ele>1553</ele>
        <time>2015-02-07T08:19:54.000Z</time>
      </trkpt>
      <trkpt lat="45.9505" lon="6.52357">
        <ele>1553.4000244141</ele>
        <time>2015-02-07T08:19:59.000Z</time>
      </trkpt>
      <trkpt lat="45.95049" lon="6.52356">
        <ele>1553.5999755859</ele>
        <time>2015-02-07T08:20:00.000Z</time>
      </trkpt>
      <trkpt lat="45.95044" lon="6.52351">
        <ele>1553.8000488281</ele>
        <time>2015-02-07T08:20:05.000Z</time>
      </trkpt>
      <trkpt lat="45.9504" lon="6.52346">
        <ele>1554.5999755859</ele>
        <time>2015-02-07T08:20:10.000Z</time>
      </trkpt>
      <trkpt lat="45.95037" lon="6.52341">
        <ele>1555.4000244141</ele>
        <time>2015-02-07T08:20:15.000Z</time>
      </trkpt>
      <trkpt lat="45.95034" lon="6.52337">
        <ele>1555.5999755859</ele>
        <time>2015-02-07T08:20:18.000Z</time>
      </trkpt>
      <trkpt lat="45.95032" lon="6.52334">
        <ele>1555.8000488281</ele>
        <time>2015-02-07T08:20:21.000Z</time>
      </trkpt>
      <trkpt lat="45.95029" lon="6.52332">
        <ele>1556.8000488281</ele>
        <time>2015-02-07T08:20:26.000Z</time>
      </trkpt>
      <trkpt lat="45.95026" lon="6.52331">
        <ele>1557.8000488281</ele>
        <time>2015-02-07T08:20:30.000Z</time>
      </trkpt>
      <trkpt lat="45.95026" lon="6.52331">
        <ele>1558</ele>
        <time>2015-02-07T08:20:31.000Z</time>
      </trkpt>
      <trkpt lat="45.95024" lon="6.52328">
        <ele>1559.1999511719</ele>
        <time>2015-02-07T08:20:36.000Z</time>
      </trkpt>
      <trkpt lat="45.95021" lon="6.52328">
        <ele>1560</ele>
        <time>2015-02-07T08:20:41.000Z</time>
      </trkpt>
      <trkpt lat="45.9502" lon="6.52327">
        <ele>1560.1999511719</ele>
        <time>2015-02-07T08:20:42.000Z</time>
      </trkpt>
      <trkpt lat="45.95016" lon="6.52323">
        <ele>1561.1999511719</ele>
        <time>2015-02-07T08:20:51.000Z</time>
      </trkpt>
      <trkpt lat="45.95016" lon="6.52322">
        <ele>1562.4000244141</ele>
        <time>2015-02-07T08:20:59.000Z</time>
      </trkpt>
      <trkpt lat="45.95015" lon="6.52322">
        <ele>1562.8000488281</ele>
        <time>2015-02-07T08:21:01.000Z</time>
      </trkpt>
      <trkpt lat="45.95013" lon="6.52318">
        <ele>1563.5999755859</ele>
        <time>2015-02-07T08:21:05.000Z</time>
      </trkpt>
      <trkpt lat="45.9501" lon="6.52315">
        <ele>1564.5999755859</ele>
        <time>2015-02-07T08:21:11.000Z</time>
      </trkpt>
      <trkpt lat="45.9501" lon="6.52315">
        <ele>1564.8000488281</ele>
        <time>2015-02-07T08:21:12.000Z</time>
      </trkpt>
      <trkpt lat="45.95012" lon="6.5231">
        <ele>1565.5999755859</ele>
        <time>2015-02-07T08:21:21.000Z</time>
      </trkpt>
      <trkpt lat="45.95012" lon="6.52308">
        <ele>1565.5999755859</ele>
        <time>2015-02-07T08:21:23.000Z</time>
      </trkpt>
      <trkpt lat="45.9501" lon="6.52306">
        <ele>1566.4000244141</ele>
        <time>2015-02-07T08:21:27.000Z</time>
      </trkpt>
      <trkpt lat="45.9501" lon="6.52306">
        <ele>1566.8000488281</ele>
        <time>2015-02-07T08:21:29.000Z</time>
      </trkpt>
      <trkpt lat="45.95008" lon="6.52306">
        <ele>1567.8000488281</ele>
        <time>2015-02-07T08:21:34.000Z</time>
      </trkpt>
      <trkpt lat="45.95008" lon="6.52306">
        <ele>1567.8000488281</ele>
        <time>2015-02-07T08:21:35.000Z</time>
      </trkpt>
      <trkpt lat="45.95005" lon="6.52304">
        <ele>1568.4000244141</ele>
        <time>2015-02-07T08:21:46.000Z</time>
      </trkpt>
      <trkpt lat="45.95005" lon="6.52302">
        <ele>1569</ele>
        <time>2015-02-07T08:21:51.000Z</time>
      </trkpt>
      <trkpt lat="45.95005" lon="6.52302">
        <ele>1569.4000244141</ele>
        <time>2015-02-07T08:21:54.000Z</time>
      </trkpt>
      <trkpt lat="45.95005" lon="6.52302">
        <ele>1570</ele>
        <time>2015-02-07T08:21:58.000Z</time>
      </trkpt>
      <trkpt lat="45.95005" lon="6.52302">
        <ele>1570.1999511719</ele>
        <time>2015-02-07T08:22:15.000Z</time>
      </trkpt>
      <trkpt lat="45.95005" lon="6.52302">
        <ele>1570.5999755859</ele>
        <time>2015-02-07T08:22:31.000Z</time>
      </trkpt>
      <trkpt lat="45.95005" lon="6.52302">
        <ele>1571</ele>
        <time>2015-02-07T08:22:47.000Z</time>
      </trkpt>
      <trkpt lat="45.95005" lon="6.52302">
        <ele>1571</ele>
        <time>2015-02-07T08:22:48.000Z</time>
      </trkpt>
      <trkpt lat="45.95003" lon="6.52301">
        <ele>1571.5999755859</ele>
        <time>2015-02-07T08:22:56.000Z</time>
      </trkpt>
      <trkpt lat="45.95003" lon="6.52299">
        <ele>1571.4000244141</ele>
        <time>2015-02-07T08:23:04.000Z</time>
      </trkpt>
      <trkpt lat="45.95003" lon="6.52299">
        <ele>1571.1999511719</ele>
        <time>2015-02-07T08:23:15.000Z</time>
      </trkpt>
      <trkpt lat="45.95003" lon="6.52298">
        <ele>1571.4000244141</ele>
        <time>2015-02-07T08:23:25.000Z</time>
      </trkpt>
      <trkpt lat="45.95003" lon="6.52298">
        <ele>1571.8000488281</ele>
        <time>2015-02-07T08:23:35.000Z</time>
      </trkpt>
      <trkpt lat="45.95003" lon="6.52298">
        <ele>1572</ele>
        <time>2015-02-07T08:23:36.000Z</time>
      </trkpt>
      <trkpt lat="45.95003" lon="6.52298">
        <ele>1572.5999755859</ele>
        <time>2015-02-07T08:23:45.000Z</time>
      </trkpt>
      <trkpt lat="45.95001" lon="6.52297">
        <ele>1573.1999511719</ele>
        <time>2015-02-07T08:23:48.000Z</time>
      </trkpt>
      <trkpt lat="45.94998" lon="6.52294">
        <ele>1574.1999511719</ele>
        <time>2015-02-07T08:23:52.000Z</time>
      </trkpt>
      <trkpt lat="45.94998" lon="6.52294">
        <ele>1574.4000244141</ele>
        <time>2015-02-07T08:24:07.000Z</time>
      </trkpt>
      <trkpt lat="45.94998" lon="6.52294">
        <ele>1574.8000488281</ele>
        <time>2015-02-07T08:24:09.000Z</time>
      </trkpt>
      <trkpt lat="45.94998" lon="6.52294">
        <ele>1575.1999511719</ele>
        <time>2015-02-07T08:24:10.000Z</time>
      </trkpt>
      <trkpt lat="45.94997" lon="6.52292">
        <ele>1574.8000488281</ele>
        <time>2015-02-07T08:24:25.000Z</time>
      </trkpt>
      <trkpt lat="45.94994" lon="6.52287">
        <ele>1575</ele>
        <time>2015-02-07T08:24:32.000Z</time>
      </trkpt>
      <trkpt lat="45.94989" lon="6.52283">
        <ele>1576.1999511719</ele>
        <time>2015-02-07T08:24:36.000Z</time>
      </trkpt>
      <trkpt lat="45.94987" lon="6.52281">
        <ele>1577</ele>
        <time>2015-02-07T08:24:38.000Z</time>
      </trkpt>
      <trkpt lat="45.94986" lon="6.5228">
        <ele>1577.4000244141</ele>
        <time>2015-02-07T08:24:39.000Z</time>
      </trkpt>
      <trkpt lat="45.94982" lon="6.52278">
        <ele>1578.1999511719</ele>
        <time>2015-02-07T08:24:43.000Z</time>
      </trkpt>
      <trkpt lat="45.94982" lon="6.52278">
        <ele>1578.4000244141</ele>
        <time>2015-02-07T08:24:44.000Z</time>
      </trkpt>
      <trkpt lat="45.94977" lon="6.52275">
        <ele>1579</ele>
        <time>2015-02-07T08:24:47.000Z</time>
      </trkpt>
      <trkpt lat="45.94973" lon="6.52273">
        <ele>1579.8000488281</ele>
        <time>2015-02-07T08:24:51.000Z</time>
      </trkpt>
      <trkpt lat="45.94972" lon="6.52272">
        <ele>1579.8000488281</ele>
        <time>2015-02-07T08:24:52.000Z</time>
      </trkpt>
      <trkpt lat="45.94966" lon="6.52268">
        <ele>1580.4000244141</ele>
        <time>2015-02-07T08:24:57.000Z</time>
      </trkpt>
      <trkpt lat="45.94964" lon="6.52267">
        <ele>1580.8000488281</ele>
        <time>2015-02-07T08:24:59.000Z</time>
      </trkpt>
      <trkpt lat="45.94962" lon="6.52265">
        <ele>1582</ele>
        <time>2015-02-07T08:25:03.000Z</time>
      </trkpt>
      <trkpt lat="45.94961" lon="6.52265">
        <ele>1582</ele>
        <time>2015-02-07T08:25:04.000Z</time>
      </trkpt>
      <trkpt lat="45.94957" lon="6.52264">
        <ele>1583.1999511719</ele>
        <time>2015-02-07T08:25:08.000Z</time>
      </trkpt>
      <trkpt lat="45.94953" lon="6.52262">
        <ele>1584.4000244141</ele>
        <time>2015-02-07T08:25:13.000Z</time>
      </trkpt>
      <trkpt lat="45.9495" lon="6.52259">
        <ele>1585.4000244141</ele>
        <time>2015-02-07T08:25:17.000Z</time>
      </trkpt>
      <trkpt lat="45.9495" lon="6.52259">
        <ele>1585.8000488281</ele>
        <time>2015-02-07T08:25:18.000Z</time>
      </trkpt>
      <trkpt lat="45.94947" lon="6.52258">
        <ele>1586.5999755859</ele>
        <time>2015-02-07T08:25:21.000Z</time>
      </trkpt>
      <trkpt lat="45.94946" lon="6.52257">
        <ele>1586.8000488281</ele>
        <time>2015-02-07T08:25:22.000Z</time>
      </trkpt>
      <trkpt lat="45.94942" lon="6.52254">
        <ele>1587.5999755859</ele>
        <time>2015-02-07T08:25:27.000Z</time>
      </trkpt>
      <trkpt lat="45.94942" lon="6.52254">
        <ele>1587.5999755859</ele>
        <time>2015-02-07T08:25:28.000Z</time>
      </trkpt>
      <trkpt lat="45.9494" lon="6.52253">
        <ele>1588.4000244141</ele>
        <time>2015-02-07T08:25:32.000Z</time>
      </trkpt>
      <trkpt lat="45.94939" lon="6.52253">
        <ele>1589</ele>
        <time>2015-02-07T08:25:34.000Z</time>
      </trkpt>
      <trkpt lat="45.94936" lon="6.5225">
        <ele>1589.5999755859</ele>
        <time>2015-02-07T08:25:37.000Z</time>
      </trkpt>
      <trkpt lat="45.94934" lon="6.52248">
        <ele>1590</ele>
        <time>2015-02-07T08:25:39.000Z</time>
      </trkpt>
      <trkpt lat="45.94933" lon="6.52247">
        <ele>1590.5999755859</ele>
        <time>2015-02-07T08:25:41.000Z</time>
      </trkpt>
      <trkpt lat="45.94932" lon="6.52246">
        <ele>1591.1999511719</ele>
        <time>2015-02-07T08:25:44.000Z</time>
      </trkpt>
      <trkpt lat="45.94932" lon="6.52246">
        <ele>1591.4000244141</ele>
        <time>2015-02-07T08:25:45.000Z</time>
      </trkpt>
      <trkpt lat="45.9493" lon="6.52244">
        <ele>1592.4000244141</ele>
        <time>2015-02-07T08:25:49.000Z</time>
      </trkpt>
      <trkpt lat="45.94929" lon="6.52243">
        <ele>1593.1999511719</ele>
        <time>2015-02-07T08:25:52.000Z</time>
      </trkpt>
      <trkpt lat="45.94928" lon="6.52241">
        <ele>1593.4000244141</ele>
        <time>2015-02-07T08:25:54.000Z</time>
      </trkpt>
      <trkpt lat="45.94925" lon="6.52239">
        <ele>1593.8000488281</ele>
        <time>2015-02-07T08:25:57.000Z</time>
      </trkpt>
      <trkpt lat="45.94923" lon="6.52237">
        <ele>1594.5999755859</ele>
        <time>2015-02-07T08:26:00.000Z</time>
      </trkpt>
      <trkpt lat="45.94921" lon="6.52235">
        <ele>1595.8000488281</ele>
        <time>2015-02-07T08:26:04.000Z</time>
      </trkpt>
      <trkpt lat="45.9492" lon="6.52235">
        <ele>1597</ele>
        <time>2015-02-07T08:26:08.000Z</time>
      </trkpt>
      <trkpt lat="45.94919" lon="6.52235">
        <ele>1597.4000244141</ele>
        <time>2015-02-07T08:26:10.000Z</time>
      </trkpt>
      <trkpt lat="45.94919" lon="6.52234">
        <ele>1598.1999511719</ele>
        <time>2015-02-07T08:26:14.000Z</time>
      </trkpt>
      <trkpt lat="45.94919" lon="6.52234">
        <ele>1598.4000244141</ele>
        <time>2015-02-07T08:26:15.000Z</time>
      </trkpt>
      <trkpt lat="45.94917" lon="6.52235">
        <ele>1599.4000244141</ele>
        <time>2015-02-07T08:26:20.000Z</time>
      </trkpt>
      <trkpt lat="45.94916" lon="6.52235">
        <ele>1599.5999755859</ele>
        <time>2015-02-07T08:26:22.000Z</time>
      </trkpt>
      <trkpt lat="45.94913" lon="6.52236">
        <ele>1600.4000244141</ele>
        <time>2015-02-07T08:26:26.000Z</time>
      </trkpt>
      <trkpt lat="45.94911" lon="6.52236">
        <ele>1600.5999755859</ele>
        <time>2015-02-07T08:26:27.000Z</time>
      </trkpt>
      <trkpt lat="45.94909" lon="6.52236">
        <ele>1601.5999755859</ele>
        <time>2015-02-07T08:26:31.000Z</time>
      </trkpt>
      <trkpt lat="45.94905" lon="6.52236">
        <ele>1602.8000488281</ele>
        <time>2015-02-07T08:26:37.000Z</time>
      </trkpt>
      <trkpt lat="45.94902" lon="6.52238">
        <ele>1603.8000488281</ele>
        <time>2015-02-07T08:26:42.000Z</time>
      </trkpt>
      <trkpt lat="45.94902" lon="6.52238">
        <ele>1604</ele>
        <time>2015-02-07T08:26:43.000Z</time>
      </trkpt>
      <trkpt lat="45.94901" lon="6.52244">
        <ele>1604.8000488281</ele>
        <time>2015-02-07T08:26:48.000Z</time>
      </trkpt>
      <trkpt lat="45.949" lon="6.52245">
        <ele>1605.1999511719</ele>
        <time>2015-02-07T08:26:49.000Z</time>
      </trkpt>
      <trkpt lat="45.94899" lon="6.52248">
        <ele>1606</ele>
        <time>2015-02-07T08:26:52.000Z</time>
      </trkpt>
      <trkpt lat="45.94898" lon="6.52249">
        <ele>1606.1999511719</ele>
        <time>2015-02-07T08:26:55.000Z</time>
      </trkpt>
      <trkpt lat="45.94896" lon="6.52249">
        <ele>1607.1999511719</ele>
        <time>2015-02-07T08:26:58.000Z</time>
      </trkpt>
      <trkpt lat="45.94894" lon="6.52249">
        <ele>1607.8000488281</ele>
        <time>2015-02-07T08:27:01.000Z</time>
      </trkpt>
      <trkpt lat="45.94892" lon="6.5225">
        <ele>1608.1999511719</ele>
        <time>2015-02-07T08:27:04.000Z</time>
      </trkpt>
      <trkpt lat="45.9489" lon="6.52251">
        <ele>1608.8000488281</ele>
        <time>2015-02-07T08:27:07.000Z</time>
      </trkpt>
      <trkpt lat="45.94889" lon="6.52252">
        <ele>1609.1999511719</ele>
        <time>2015-02-07T08:27:09.000Z</time>
      </trkpt>
      <trkpt lat="45.94888" lon="6.52256">
        <ele>1610</ele>
        <time>2015-02-07T08:27:14.000Z</time>
      </trkpt>
      <trkpt lat="45.94888" lon="6.52256">
        <ele>1610.5999755859</ele>
        <time>2015-02-07T08:27:15.000Z</time>
      </trkpt>
      <trkpt lat="45.94888" lon="6.5226">
        <ele>1611.4000244141</ele>
        <time>2015-02-07T08:27:19.000Z</time>
      </trkpt>
      <trkpt lat="45.94887" lon="6.52262">
        <ele>1611.5999755859</ele>
        <time>2015-02-07T08:27:21.000Z</time>
      </trkpt>
      <trkpt lat="45.94887" lon="6.52267">
        <ele>1612</ele>
        <time>2015-02-07T08:27:26.000Z</time>
      </trkpt>
      <trkpt lat="45.94887" lon="6.5227">
        <ele>1612.8000488281</ele>
        <time>2015-02-07T08:27:29.000Z</time>
      </trkpt>
      <trkpt lat="45.94887" lon="6.52271">
        <ele>1613.4000244141</ele>
        <time>2015-02-07T08:27:32.000Z</time>
      </trkpt>
      <trkpt lat="45.94888" lon="6.52274">
        <ele>1614</ele>
        <time>2015-02-07T08:27:35.000Z</time>
      </trkpt>
      <trkpt lat="45.94888" lon="6.52274">
        <ele>1614.4000244141</ele>
        <time>2015-02-07T08:27:37.000Z</time>
      </trkpt>
      <trkpt lat="45.94887" lon="6.52275">
        <ele>1615</ele>
        <time>2015-02-07T08:27:41.000Z</time>
      </trkpt>
      <trkpt lat="45.94886" lon="6.52275">
        <ele>1615.1999511719</ele>
        <time>2015-02-07T08:27:42.000Z</time>
      </trkpt>
      <trkpt lat="45.94885" lon="6.52275">
        <ele>1616.1999511719</ele>
        <time>2015-02-07T08:27:47.000Z</time>
      </trkpt>
      <trkpt lat="45.94885" lon="6.52275">
        <ele>1616.4000244141</ele>
        <time>2015-02-07T08:27:49.000Z</time>
      </trkpt>
      <trkpt lat="45.94883" lon="6.52274">
        <ele>1616.8000488281</ele>
        <time>2015-02-07T08:27:54.000Z</time>
      </trkpt>
      <trkpt lat="45.94882" lon="6.52274">
        <ele>1617.1999511719</ele>
        <time>2015-02-07T08:27:58.000Z</time>
      </trkpt>
      <trkpt lat="45.94881" lon="6.52274">
        <ele>1617.4000244141</ele>
        <time>2015-02-07T08:28:01.000Z</time>
      </trkpt>
      <trkpt lat="45.94879" lon="6.52274">
        <ele>1617.1999511719</ele>
        <time>2015-02-07T08:28:06.000Z</time>
      </trkpt>
      <trkpt lat="45.94876" lon="6.52273">
        <ele>1618.5999755859</ele>
        <time>2015-02-07T08:28:12.000Z</time>
      </trkpt>
      <trkpt lat="45.94874" lon="6.52272">
        <ele>1619.4000244141</ele>
        <time>2015-02-07T08:28:16.000Z</time>
      </trkpt>
      <trkpt lat="45.94872" lon="6.52271">
        <ele>1619.5999755859</ele>
        <time>2015-02-07T08:28:17.000Z</time>
      </trkpt>
      <trkpt lat="45.94871" lon="6.5227">
        <ele>1620.4000244141</ele>
        <time>2015-02-07T08:28:21.000Z</time>
      </trkpt>
      <trkpt lat="45.9487" lon="6.5227">
        <ele>1620.5999755859</ele>
        <time>2015-02-07T08:28:22.000Z</time>
      </trkpt>
      <trkpt lat="45.9487" lon="6.52269">
        <ele>1621.1999511719</ele>
        <time>2015-02-07T08:28:27.000Z</time>
      </trkpt>
      <trkpt lat="45.94868" lon="6.52268">
        <ele>1621.8000488281</ele>
        <time>2015-02-07T08:28:31.000Z</time>
      </trkpt>
      <trkpt lat="45.94866" lon="6.52267">
        <ele>1622.4000244141</ele>
        <time>2015-02-07T08:28:34.000Z</time>
      </trkpt>
      <trkpt lat="45.94865" lon="6.52266">
        <ele>1622.8000488281</ele>
        <time>2015-02-07T08:28:36.000Z</time>
      </trkpt>
      <trkpt lat="45.94863" lon="6.52267">
        <ele>1623</ele>
        <time>2015-02-07T08:28:40.000Z</time>
      </trkpt>
      <trkpt lat="45.94863" lon="6.52267">
        <ele>1624.1999511719</ele>
        <time>2015-02-07T08:28:44.000Z</time>
      </trkpt>
      <trkpt lat="45.94863" lon="6.52267">
        <ele>1624.5999755859</ele>
        <time>2015-02-07T08:28:46.000Z</time>
      </trkpt>
      <trkpt lat="45.94862" lon="6.52266">
        <ele>1625.1999511719</ele>
        <time>2015-02-07T08:28:51.000Z</time>
      </trkpt>
      <trkpt lat="45.94861" lon="6.52266">
        <ele>1625.4000244141</ele>
        <time>2015-02-07T08:28:52.000Z</time>
      </trkpt>
      <trkpt lat="45.94855" lon="6.52262">
        <ele>1626</ele>
        <time>2015-02-07T08:28:58.000Z</time>
      </trkpt>
      <trkpt lat="45.94852" lon="6.52259">
        <ele>1626.1999511719</ele>
        <time>2015-02-07T08:29:03.000Z</time>
      </trkpt>
      <trkpt lat="45.94851" lon="6.52259">
        <ele>1626.1999511719</ele>
        <time>2015-02-07T08:29:04.000Z</time>
      </trkpt>
      <trkpt lat="45.9485" lon="6.52259">
        <ele>1626.8000488281</ele>
        <time>2015-02-07T08:29:10.000Z</time>
      </trkpt>
      <trkpt lat="45.9485" lon="6.52259">
        <ele>1627.4000244141</ele>
        <time>2015-02-07T08:29:13.000Z</time>
      </trkpt>
      <trkpt lat="45.9485" lon="6.52259">
        <ele>1627.4000244141</ele>
        <time>2015-02-07T08:29:17.000Z</time>
      </trkpt>
      <trkpt lat="45.94848" lon="6.52259">
        <ele>1628.1999511719</ele>
        <time>2015-02-07T08:29:26.000Z</time>
      </trkpt>
      <trkpt lat="45.94848" lon="6.52259">
        <ele>1628.4000244141</ele>
        <time>2015-02-07T08:29:30.000Z</time>
      </trkpt>
      <trkpt lat="45.94848" lon="6.52259">
        <ele>1628.4000244141</ele>
        <time>2015-02-07T08:29:43.000Z</time>
      </trkpt>
      <trkpt lat="45.94846" lon="6.52259">
        <ele>1629</ele>
        <time>2015-02-07T08:29:49.000Z</time>
      </trkpt>
      <trkpt lat="45.94846" lon="6.52259">
        <ele>1629.5999755859</ele>
        <time>2015-02-07T08:29:51.000Z</time>
      </trkpt>
      <trkpt lat="45.94846" lon="6.52259">
        <ele>1629.8000488281</ele>
        <time>2015-02-07T08:29:58.000Z</time>
      </trkpt>
      <trkpt lat="45.94846" lon="6.5226">
        <ele>1630.5999755859</ele>
        <time>2015-02-07T08:30:02.000Z</time>
      </trkpt>
      <trkpt lat="45.94846" lon="6.5226">
        <ele>1631</ele>
        <time>2015-02-07T08:30:05.000Z</time>
      </trkpt>
      <trkpt lat="45.94836" lon="6.52262">
        <ele>1631.1999511719</ele>
        <time>2015-02-07T08:30:11.000Z</time>
      </trkpt>
      <trkpt lat="45.94831" lon="6.52261">
        <ele>1630.8000488281</ele>
        <time>2015-02-07T08:30:17.000Z</time>
      </trkpt>
      <trkpt lat="45.94826" lon="6.52259">
        <ele>1630.8000488281</ele>
        <time>2015-02-07T08:30:23.000Z</time>
      </trkpt>
      <trkpt lat="45.94825" lon="6.52258">
        <ele>1631.8000488281</ele>
        <time>2015-02-07T08:30:28.000Z</time>
      </trkpt>
      <trkpt lat="45.94823" lon="6.52257">
        <ele>1632.8000488281</ele>
        <time>2015-02-07T08:30:33.000Z</time>
      </trkpt>
      <trkpt lat="45.94821" lon="6.52256">
        <ele>1633.1999511719</ele>
        <time>2015-02-07T08:30:36.000Z</time>
      </trkpt>
      <trkpt lat="45.9482" lon="6.52256">
        <ele>1633.8000488281</ele>
        <time>2015-02-07T08:30:39.000Z</time>
      </trkpt>
      <trkpt lat="45.94818" lon="6.52255">
        <ele>1634.1999511719</ele>
        <time>2015-02-07T08:30:43.000Z</time>
      </trkpt>
      <trkpt lat="45.94815" lon="6.52252">
        <ele>1634.8000488281</ele>
        <time>2015-02-07T08:30:47.000Z</time>
      </trkpt>
      <trkpt lat="45.94812" lon="6.52251">
        <ele>1635.1999511719</ele>
        <time>2015-02-07T08:30:49.000Z</time>
      </trkpt>
      <trkpt lat="45.9481" lon="6.5225">
        <ele>1636</ele>
        <time>2015-02-07T08:30:52.000Z</time>
      </trkpt>
      <trkpt lat="45.94808" lon="6.52249">
        <ele>1636.1999511719</ele>
        <time>2015-02-07T08:30:54.000Z</time>
      </trkpt>
      <trkpt lat="45.94807" lon="6.52248">
        <ele>1636.1999511719</ele>
        <time>2015-02-07T08:30:55.000Z</time>
      </trkpt>
      <trkpt lat="45.94803" lon="6.52245">
        <ele>1637</ele>
        <time>2015-02-07T08:30:59.000Z</time>
      </trkpt>
      <trkpt lat="45.94803" lon="6.52244">
        <ele>1637</ele>
        <time>2015-02-07T08:31:00.000Z</time>
      </trkpt>
      <trkpt lat="45.94802" lon="6.52243">
        <ele>1638</ele>
        <time>2015-02-07T08:31:05.000Z</time>
      </trkpt>
      <trkpt lat="45.94801" lon="6.52243">
        <ele>1638</ele>
        <time>2015-02-07T08:31:06.000Z</time>
      </trkpt>
      <trkpt lat="45.94801" lon="6.52243">
        <ele>1638.1999511719</ele>
        <time>2015-02-07T08:31:09.000Z</time>
      </trkpt>
      <trkpt lat="45.94801" lon="6.52244">
        <ele>1639.1999511719</ele>
        <time>2015-02-07T08:31:14.000Z</time>
      </trkpt>
      <trkpt lat="45.94801" lon="6.52244">
        <ele>1639.1999511719</ele>
        <time>2015-02-07T08:31:15.000Z</time>
      </trkpt>
      <trkpt lat="45.94802" lon="6.5225">
        <ele>1639.8000488281</ele>
        <time>2015-02-07T08:31:19.000Z</time>
      </trkpt>
      <trkpt lat="45.94802" lon="6.5225">
        <ele>1640</ele>
        <time>2015-02-07T08:31:21.000Z</time>
      </trkpt>
      <trkpt lat="45.94802" lon="6.5225">
        <ele>1640.4000244141</ele>
        <time>2015-02-07T08:31:25.000Z</time>
      </trkpt>
      <trkpt lat="45.94802" lon="6.52251">
        <ele>1640.8000488281</ele>
        <time>2015-02-07T08:31:29.000Z</time>
      </trkpt>
      <trkpt lat="45.94802" lon="6.52252">
        <ele>1641.1999511719</ele>
        <time>2015-02-07T08:31:38.000Z</time>
      </trkpt>
      <trkpt lat="45.94802" lon="6.52252">
        <ele>1641.5999755859</ele>
        <time>2015-02-07T08:31:40.000Z</time>
      </trkpt>
      <trkpt lat="45.94799" lon="6.52252">
        <ele>1642.1999511719</ele>
        <time>2015-02-07T08:31:44.000Z</time>
      </trkpt>
      <trkpt lat="45.94797" lon="6.52252">
        <ele>1642.5999755859</ele>
        <time>2015-02-07T08:31:47.000Z</time>
      </trkpt>
      <trkpt lat="45.94794" lon="6.52252">
        <ele>1643.1999511719</ele>
        <time>2015-02-07T08:31:50.000Z</time>
      </trkpt>
      <trkpt lat="45.94792" lon="6.52251">
        <ele>1643.8000488281</ele>
        <time>2015-02-07T08:31:54.000Z</time>
      </trkpt>
      <trkpt lat="45.94792" lon="6.5225">
        <ele>1644</ele>
        <time>2015-02-07T08:31:55.000Z</time>
      </trkpt>
      <trkpt lat="45.94789" lon="6.52249">
        <ele>1644.8000488281</ele>
        <time>2015-02-07T08:31:59.000Z</time>
      </trkpt>
      <trkpt lat="45.94789" lon="6.52248">
        <ele>1644.8000488281</ele>
        <time>2015-02-07T08:32:00.000Z</time>
      </trkpt>
      <trkpt lat="45.94786" lon="6.52247">
        <ele>1645.1999511719</ele>
        <time>2015-02-07T08:32:06.000Z</time>
      </trkpt>
      <trkpt lat="45.94784" lon="6.52248">
        <ele>1645.5999755859</ele>
        <time>2015-02-07T08:32:11.000Z</time>
      </trkpt>
      <trkpt lat="45.94783" lon="6.52248">
        <ele>1646</ele>
        <time>2015-02-07T08:32:13.000Z</time>
      </trkpt>
      <trkpt lat="45.94781" lon="6.52249">
        <ele>1646.8000488281</ele>
        <time>2015-02-07T08:32:18.000Z</time>
      </trkpt>
      <trkpt lat="45.94781" lon="6.52249">
        <ele>1647</ele>
        <time>2015-02-07T08:32:20.000Z</time>
      </trkpt>
      <trkpt lat="45.94781" lon="6.52249">
        <ele>1647.4000244141</ele>
        <time>2015-02-07T08:32:24.000Z</time>
      </trkpt>
      <trkpt lat="45.94782" lon="6.52253">
        <ele>1648</ele>
        <time>2015-02-07T08:32:29.000Z</time>
      </trkpt>
      <trkpt lat="45.94782" lon="6.52253">
        <ele>1648.4000244141</ele>
        <time>2015-02-07T08:32:30.000Z</time>
      </trkpt>
      <trkpt lat="45.94782" lon="6.52256">
        <ele>1649.1999511719</ele>
        <time>2015-02-07T08:32:34.000Z</time>
      </trkpt>
      <trkpt lat="45.94782" lon="6.52258">
        <ele>1650</ele>
        <time>2015-02-07T08:32:39.000Z</time>
      </trkpt>
      <trkpt lat="45.94782" lon="6.52259">
        <ele>1650.4000244141</ele>
        <time>2015-02-07T08:32:41.000Z</time>
      </trkpt>
      <trkpt lat="45.94782" lon="6.5226">
        <ele>1651.1999511719</ele>
        <time>2015-02-07T08:32:46.000Z</time>
      </trkpt>
      <trkpt lat="45.94781" lon="6.52261">
        <ele>1651.4000244141</ele>
        <time>2015-02-07T08:32:51.000Z</time>
      </trkpt>
      <trkpt lat="45.94779" lon="6.52261">
        <ele>1651.5999755859</ele>
        <time>2015-02-07T08:32:53.000Z</time>
      </trkpt>
      <trkpt lat="45.94776" lon="6.52261">
        <ele>1652.5999755859</ele>
        <time>2015-02-07T08:32:57.000Z</time>
      </trkpt>
      <trkpt lat="45.94776" lon="6.52261">
        <ele>1652.8000488281</ele>
        <time>2015-02-07T08:32:58.000Z</time>
      </trkpt>
      <trkpt lat="45.94772" lon="6.52262">
        <ele>1653.8000488281</ele>
        <time>2015-02-07T08:33:04.000Z</time>
      </trkpt>
      <trkpt lat="45.94771" lon="6.52263">
        <ele>1654.1999511719</ele>
        <time>2015-02-07T08:33:06.000Z</time>
      </trkpt>
      <trkpt lat="45.9477" lon="6.52264">
        <ele>1655</ele>
        <time>2015-02-07T08:33:09.000Z</time>
      </trkpt>
      <trkpt lat="45.94769" lon="6.52265">
        <ele>1655.4000244141</ele>
        <time>2015-02-07T08:33:11.000Z</time>
      </trkpt>
      <trkpt lat="45.94768" lon="6.52266">
        <ele>1656</ele>
        <time>2015-02-07T08:33:15.000Z</time>
      </trkpt>
      <trkpt lat="45.94762" lon="6.5227">
        <ele>1657.1999511719</ele>
        <time>2015-02-07T08:33:24.000Z</time>
      </trkpt>
      <trkpt lat="45.94759" lon="6.5227">
        <ele>1658</ele>
        <time>2015-02-07T08:33:29.000Z</time>
      </trkpt>
      <trkpt lat="45.94758" lon="6.5227">
        <ele>1658.1999511719</ele>
        <time>2015-02-07T08:33:30.000Z</time>
      </trkpt>
      <trkpt lat="45.94757" lon="6.5227">
        <ele>1659.1999511719</ele>
        <time>2015-02-07T08:33:34.000Z</time>
      </trkpt>
      <trkpt lat="45.94756" lon="6.52271">
        <ele>1659.4000244141</ele>
        <time>2015-02-07T08:33:35.000Z</time>
      </trkpt>
      <trkpt lat="45.94754" lon="6.52271">
        <ele>1659.5999755859</ele>
        <time>2015-02-07T08:33:39.000Z</time>
      </trkpt>
      <trkpt lat="45.94753" lon="6.52271">
        <ele>1660.4000244141</ele>
        <time>2015-02-07T08:33:45.000Z</time>
      </trkpt>
      <trkpt lat="45.94753" lon="6.52271">
        <ele>1660.5999755859</ele>
        <time>2015-02-07T08:33:46.000Z</time>
      </trkpt>
      <trkpt lat="45.94753" lon="6.52271">
        <ele>1660.5999755859</ele>
        <time>2015-02-07T08:33:59.000Z</time>
      </trkpt>
      <trkpt lat="45.94751" lon="6.5227">
        <ele>1660.8000488281</ele>
        <time>2015-02-07T08:34:10.000Z</time>
      </trkpt>
      <trkpt lat="45.94749" lon="6.5227">
        <ele>1661</ele>
        <time>2015-02-07T08:34:17.000Z</time>
      </trkpt>
      <trkpt lat="45.94749" lon="6.5227">
        <ele>1661.5999755859</ele>
        <time>2015-02-07T08:34:21.000Z</time>
      </trkpt>
      <trkpt lat="45.94745" lon="6.52271">
        <ele>1661.8000488281</ele>
        <time>2015-02-07T08:34:24.000Z</time>
      </trkpt>
      <trkpt lat="45.9474" lon="6.52269">
        <ele>1662.8000488281</ele>
        <time>2015-02-07T08:34:29.000Z</time>
      </trkpt>
      <trkpt lat="45.94738" lon="6.52269">
        <ele>1664</ele>
        <time>2015-02-07T08:34:33.000Z</time>
      </trkpt>
      <trkpt lat="45.94738" lon="6.52269">
        <ele>1664.1999511719</ele>
        <time>2015-02-07T08:34:34.000Z</time>
      </trkpt>
      <trkpt lat="45.94733" lon="6.52273">
        <ele>1664.5999755859</ele>
        <time>2015-02-07T08:34:42.000Z</time>
      </trkpt>
      <trkpt lat="45.94728" lon="6.5228">
        <ele>1664.1999511719</ele>
        <time>2015-02-07T08:34:52.000Z</time>
      </trkpt>
      <trkpt lat="45.94724" lon="6.52284">
        <ele>1663.4000244141</ele>
        <time>2015-02-07T08:35:00.000Z</time>
      </trkpt>
      <trkpt lat="45.94719" lon="6.52288">
        <ele>1663.5999755859</ele>
        <time>2015-02-07T08:35:06.000Z</time>
      </trkpt>
      <trkpt lat="45.94717" lon="6.52294">
        <ele>1664.1999511719</ele>
        <time>2015-02-07T08:35:11.000Z</time>
      </trkpt>
      <trkpt lat="45.94717" lon="6.52299">
        <ele>1664.8000488281</ele>
        <time>2015-02-07T08:35:17.000Z</time>
      </trkpt>
      <trkpt lat="45.94717" lon="6.52299">
        <ele>1665.1999511719</ele>
        <time>2015-02-07T08:35:20.000Z</time>
      </trkpt>
      <trkpt lat="45.94716" lon="6.523">
        <ele>1665.1999511719</ele>
        <time>2015-02-07T08:35:24.000Z</time>
      </trkpt>
      <trkpt lat="45.94714" lon="6.52306">
        <ele>1665.5999755859</ele>
        <time>2015-02-07T08:35:29.000Z</time>
      </trkpt>
      <trkpt lat="45.94713" lon="6.52313">
        <ele>1666.1999511719</ele>
        <time>2015-02-07T08:35:33.000Z</time>
      </trkpt>
      <trkpt lat="45.94713" lon="6.52313">
        <ele>1666.4000244141</ele>
        <time>2015-02-07T08:35:34.000Z</time>
      </trkpt>
      <trkpt lat="45.94713" lon="6.52319">
        <ele>1667.4000244141</ele>
        <time>2015-02-07T08:35:38.000Z</time>
      </trkpt>
      <trkpt lat="45.94712" lon="6.5232">
        <ele>1668</ele>
        <time>2015-02-07T08:35:40.000Z</time>
      </trkpt>
      <trkpt lat="45.94712" lon="6.52321">
        <ele>1668.4000244141</ele>
        <time>2015-02-07T08:35:42.000Z</time>
      </trkpt>
      <trkpt lat="45.94711" lon="6.5232">
        <ele>1669</ele>
        <time>2015-02-07T08:35:46.000Z</time>
      </trkpt>
      <trkpt lat="45.94711" lon="6.5232">
        <ele>1669.4000244141</ele>
        <time>2015-02-07T08:35:48.000Z</time>
      </trkpt>
      <trkpt lat="45.94709" lon="6.5232">
        <ele>1670</ele>
        <time>2015-02-07T08:35:54.000Z</time>
      </trkpt>
      <trkpt lat="45.94708" lon="6.5232">
        <ele>1670.5999755859</ele>
        <time>2015-02-07T08:35:58.000Z</time>
      </trkpt>
      <trkpt lat="45.94706" lon="6.52318">
        <ele>1670.8000488281</ele>
        <time>2015-02-07T08:36:01.000Z</time>
      </trkpt>
      <trkpt lat="45.94705" lon="6.52322">
        <ele>1671.8000488281</ele>
        <time>2015-02-07T08:36:06.000Z</time>
      </trkpt>
      <trkpt lat="45.94704" lon="6.52324">
        <ele>1672</ele>
        <time>2015-02-07T08:36:08.000Z</time>
      </trkpt>
      <trkpt lat="45.94703" lon="6.52328">
        <ele>1672.5999755859</ele>
        <time>2015-02-07T08:36:14.000Z</time>
      </trkpt>
      <trkpt lat="45.94703" lon="6.52329">
        <ele>1672.8000488281</ele>
        <time>2015-02-07T08:36:15.000Z</time>
      </trkpt>
      <trkpt lat="45.94703" lon="6.52334">
        <ele>1673.8000488281</ele>
        <time>2015-02-07T08:36:21.000Z</time>
      </trkpt>
      <trkpt lat="45.94702" lon="6.5234">
        <ele>1674.4000244141</ele>
        <time>2015-02-07T08:36:26.000Z</time>
      </trkpt>
      <trkpt lat="45.94702" lon="6.52341">
        <ele>1674.8000488281</ele>
        <time>2015-02-07T08:36:31.000Z</time>
      </trkpt>
      <trkpt lat="45.94702" lon="6.52345">
        <ele>1675.4000244141</ele>
        <time>2015-02-07T08:36:39.000Z</time>
      </trkpt>
      <trkpt lat="45.94702" lon="6.52348">
        <ele>1676</ele>
        <time>2015-02-07T08:36:43.000Z</time>
      </trkpt>
      <trkpt lat="45.94702" lon="6.52348">
        <ele>1676.1999511719</ele>
        <time>2015-02-07T08:36:46.000Z</time>
      </trkpt>
      <trkpt lat="45.94701" lon="6.52352">
        <ele>1677</ele>
        <time>2015-02-07T08:36:53.000Z</time>
      </trkpt>
      <trkpt lat="45.94701" lon="6.52352">
        <ele>1678</ele>
        <time>2015-02-07T08:37:00.000Z</time>
      </trkpt>
      <trkpt lat="45.94697" lon="6.52348">
        <ele>1678.8000488281</ele>
        <time>2015-02-07T08:37:08.000Z</time>
      </trkpt>
      <trkpt lat="45.94696" lon="6.52347">
        <ele>1679</ele>
        <time>2015-02-07T08:37:09.000Z</time>
      </trkpt>
      <trkpt lat="45.94695" lon="6.52346">
        <ele>1680</ele>
        <time>2015-02-07T08:37:14.000Z</time>
      </trkpt>
      <trkpt lat="45.94695" lon="6.52345">
        <ele>1681</ele>
        <time>2015-02-07T08:37:22.000Z</time>
      </trkpt>
      <trkpt lat="45.94695" lon="6.52345">
        <ele>1681</ele>
        <time>2015-02-07T08:37:40.000Z</time>
      </trkpt>
      <trkpt lat="45.94695" lon="6.52344">
        <ele>1681</ele>
        <time>2015-02-07T08:37:49.000Z</time>
      </trkpt>
      <trkpt lat="45.94693" lon="6.52342">
        <ele>1681.1999511719</ele>
        <time>2015-02-07T08:37:53.000Z</time>
      </trkpt>
      <trkpt lat="45.94693" lon="6.52342">
        <ele>1681.5999755859</ele>
        <time>2015-02-07T08:38:02.000Z</time>
      </trkpt>
      <trkpt lat="45.94693" lon="6.52342">
        <ele>1681.5999755859</ele>
        <time>2015-02-07T08:38:19.000Z</time>
      </trkpt>
      <trkpt lat="45.94692" lon="6.52338">
        <ele>1682</ele>
        <time>2015-02-07T08:38:25.000Z</time>
      </trkpt>
      <trkpt lat="45.94692" lon="6.52338">
        <ele>1682</ele>
        <time>2015-02-07T08:38:26.000Z</time>
      </trkpt>
      <trkpt lat="45.94693" lon="6.52334">
        <ele>1682.1999511719</ele>
        <time>2015-02-07T08:38:33.000Z</time>
      </trkpt>
      <trkpt lat="45.94693" lon="6.52332">
        <ele>1682.4000244141</ele>
        <time>2015-02-07T08:38:40.000Z</time>
      </trkpt>
      <trkpt lat="45.94693" lon="6.52331">
        <ele>1683</ele>
        <time>2015-02-07T08:38:45.000Z</time>
      </trkpt>
      <trkpt lat="45.94693" lon="6.52331">
        <ele>1683.4000244141</ele>
        <time>2015-02-07T08:38:47.000Z</time>
      </trkpt>
      <trkpt lat="45.9469" lon="6.52332">
        <ele>1683.4000244141</ele>
        <time>2015-02-07T08:38:55.000Z</time>
      </trkpt>
      <trkpt lat="45.94687" lon="6.52338">
        <ele>1684.1999511719</ele>
        <time>2015-02-07T08:39:00.000Z</time>
      </trkpt>
      <trkpt lat="45.94686" lon="6.52338">
        <ele>1684.1999511719</ele>
        <time>2015-02-07T08:39:01.000Z</time>
      </trkpt>
      <trkpt lat="45.94684" lon="6.52338">
        <ele>1685</ele>
        <time>2015-02-07T08:39:07.000Z</time>
      </trkpt>
      <trkpt lat="45.94683" lon="6.52339">
        <ele>1685.1999511719</ele>
        <time>2015-02-07T08:39:08.000Z</time>
      </trkpt>
      <trkpt lat="45.94679" lon="6.5234">
        <ele>1686.1999511719</ele>
        <time>2015-02-07T08:39:13.000Z</time>
      </trkpt>
      <trkpt lat="45.94676" lon="6.5234">
        <ele>1687.4000244141</ele>
        <time>2015-02-07T08:39:16.000Z</time>
      </trkpt>
      <trkpt lat="45.94675" lon="6.52339">
        <ele>1688</ele>
        <time>2015-02-07T08:39:19.000Z</time>
      </trkpt>
      <trkpt lat="45.94673" lon="6.52338">
        <ele>1688.4000244141</ele>
        <time>2015-02-07T08:39:23.000Z</time>
      </trkpt>
      <trkpt lat="45.94672" lon="6.52338">
        <ele>1688.8000488281</ele>
        <time>2015-02-07T08:39:25.000Z</time>
      </trkpt>
      <trkpt lat="45.94671" lon="6.52342">
        <ele>1689.4000244141</ele>
        <time>2015-02-07T08:39:31.000Z</time>
      </trkpt>
      <trkpt lat="45.94671" lon="6.52348">
        <ele>1690.5999755859</ele>
        <time>2015-02-07T08:39:38.000Z</time>
      </trkpt>
      <trkpt lat="45.94671" lon="6.52352">
        <ele>1691.5999755859</ele>
        <time>2015-02-07T08:39:44.000Z</time>
      </trkpt>
      <trkpt lat="45.94671" lon="6.52355">
        <ele>1691.8000488281</ele>
        <time>2015-02-07T08:39:45.000Z</time>
      </trkpt>
      <trkpt lat="45.94672" lon="6.52355">
        <ele>1692.4000244141</ele>
        <time>2015-02-07T08:39:48.000Z</time>
      </trkpt>
      <trkpt lat="45.94672" lon="6.52356">
        <ele>1692.8000488281</ele>
        <time>2015-02-07T08:39:50.000Z</time>
      </trkpt>
      <trkpt lat="45.94672" lon="6.52358">
        <ele>1693.1999511719</ele>
        <time>2015-02-07T08:39:53.000Z</time>
      </trkpt>
      <trkpt lat="45.94673" lon="6.52361">
        <ele>1693.8000488281</ele>
        <time>2015-02-07T08:39:57.000Z</time>
      </trkpt>
      <trkpt lat="45.94674" lon="6.52362">
        <ele>1694.1999511719</ele>
        <time>2015-02-07T08:39:58.000Z</time>
      </trkpt>
      <trkpt lat="45.94674" lon="6.52364">
        <ele>1695</ele>
        <time>2015-02-07T08:40:01.000Z</time>
      </trkpt>
      <trkpt lat="45.94674" lon="6.52364">
        <ele>1695.1999511719</ele>
        <time>2015-02-07T08:40:02.000Z</time>
      </trkpt>
      <trkpt lat="45.94674" lon="6.52365">
        <ele>1695.8000488281</ele>
        <time>2015-02-07T08:40:08.000Z</time>
      </trkpt>
      <trkpt lat="45.94675" lon="6.52367">
        <ele>1696</ele>
        <time>2015-02-07T08:40:11.000Z</time>
      </trkpt>
      <trkpt lat="45.94675" lon="6.52368">
        <ele>1696</ele>
        <time>2015-02-07T08:40:12.000Z</time>
      </trkpt>
      <trkpt lat="45.94675" lon="6.52368">
        <ele>1696.5999755859</ele>
        <time>2015-02-07T08:40:16.000Z</time>
      </trkpt>
      <trkpt lat="45.94673" lon="6.52366">
        <ele>1697</ele>
        <time>2015-02-07T08:40:19.000Z</time>
      </trkpt>
      <trkpt lat="45.94672" lon="6.52364">
        <ele>1697.1999511719</ele>
        <time>2015-02-07T08:40:21.000Z</time>
      </trkpt>
      <trkpt lat="45.94671" lon="6.52362">
        <ele>1696.5999755859</ele>
        <time>2015-02-07T08:40:29.000Z</time>
      </trkpt>
      <trkpt lat="45.94668" lon="6.52364">
        <ele>1696.8000488281</ele>
        <time>2015-02-07T08:40:34.000Z</time>
      </trkpt>
      <trkpt lat="45.94668" lon="6.52364">
        <ele>1698</ele>
        <time>2015-02-07T08:40:40.000Z</time>
      </trkpt>
      <trkpt lat="45.94668" lon="6.52364">
        <ele>1698.1999511719</ele>
        <time>2015-02-07T08:40:41.000Z</time>
      </trkpt>
      <trkpt lat="45.94666" lon="6.52364">
        <ele>1698.4000244141</ele>
        <time>2015-02-07T08:40:47.000Z</time>
      </trkpt>
      <trkpt lat="45.94667" lon="6.52367">
        <ele>1699</ele>
        <time>2015-02-07T08:40:52.000Z</time>
      </trkpt>
      <trkpt lat="45.94668" lon="6.52368">
        <ele>1699.1999511719</ele>
        <time>2015-02-07T08:40:54.000Z</time>
      </trkpt>
      <trkpt lat="45.9467" lon="6.52373">
        <ele>1699.5999755859</ele>
        <time>2015-02-07T08:40:58.000Z</time>
      </trkpt>
      <trkpt lat="45.94672" lon="6.52377">
        <ele>1700.1999511719</ele>
        <time>2015-02-07T08:41:02.000Z</time>
      </trkpt>
      <trkpt lat="45.94673" lon="6.52379">
        <ele>1700.4000244141</ele>
        <time>2015-02-07T08:41:04.000Z</time>
      </trkpt>
      <trkpt lat="45.94675" lon="6.52383">
        <ele>1701.4000244141</ele>
        <time>2015-02-07T08:41:10.000Z</time>
      </trkpt>
      <trkpt lat="45.94675" lon="6.52383">
        <ele>1701.5999755859</ele>
        <time>2015-02-07T08:41:11.000Z</time>
      </trkpt>
      <trkpt lat="45.94677" lon="6.52387">
        <ele>1702.4000244141</ele>
        <time>2015-02-07T08:41:16.000Z</time>
      </trkpt>
      <trkpt lat="45.94678" lon="6.52388">
        <ele>1702.8000488281</ele>
        <time>2015-02-07T08:41:18.000Z</time>
      </trkpt>
      <trkpt lat="45.94678" lon="6.52388">
        <ele>1703.4000244141</ele>
        <time>2015-02-07T08:41:23.000Z</time>
      </trkpt>
      <trkpt lat="45.94678" lon="6.52388">
        <ele>1704</ele>
        <time>2015-02-07T08:41:28.000Z</time>
      </trkpt>
      <trkpt lat="45.94675" lon="6.52389">
        <ele>1704.5999755859</ele>
        <time>2015-02-07T08:41:32.000Z</time>
      </trkpt>
      <trkpt lat="45.94672" lon="6.5239">
        <ele>1705.1999511719</ele>
        <time>2015-02-07T08:41:35.000Z</time>
      </trkpt>
      <trkpt lat="45.9467" lon="6.52391">
        <ele>1705.8000488281</ele>
        <time>2015-02-07T08:41:41.000Z</time>
      </trkpt>
      <trkpt lat="45.9467" lon="6.52391">
        <ele>1707</ele>
        <time>2015-02-07T08:41:45.000Z</time>
      </trkpt>
      <trkpt lat="45.94668" lon="6.52392">
        <ele>1707.4000244141</ele>
        <time>2015-02-07T08:41:48.000Z</time>
      </trkpt>
      <trkpt lat="45.94665" lon="6.52392">
        <ele>1708.1999511719</ele>
        <time>2015-02-07T08:41:53.000Z</time>
      </trkpt>
      <trkpt lat="45.94665" lon="6.52392">
        <ele>1709.1999511719</ele>
        <time>2015-02-07T08:42:02.000Z</time>
      </trkpt>
      <trkpt lat="45.94664" lon="6.52393">
        <ele>1709.1999511719</ele>
        <time>2015-02-07T08:42:05.000Z</time>
      </trkpt>
      <trkpt lat="45.94661" lon="6.52394">
        <ele>1710.1999511719</ele>
        <time>2015-02-07T08:42:13.000Z</time>
      </trkpt>
      <trkpt lat="45.94661" lon="6.52394">
        <ele>1710.1999511719</ele>
        <time>2015-02-07T08:42:14.000Z</time>
      </trkpt>
      <trkpt lat="45.94665" lon="6.52398">
        <ele>1711.1999511719</ele>
        <time>2015-02-07T08:42:20.000Z</time>
      </trkpt>
      <trkpt lat="45.94666" lon="6.52404">
        <ele>1712.1999511719</ele>
        <time>2015-02-07T08:42:24.000Z</time>
      </trkpt>
      <trkpt lat="45.94666" lon="6.52405">
        <ele>1712.4000244141</ele>
        <time>2015-02-07T08:42:25.000Z</time>
      </trkpt>
      <trkpt lat="45.94668" lon="6.52411">
        <ele>1713.4000244141</ele>
        <time>2015-02-07T08:42:30.000Z</time>
      </trkpt>
      <trkpt lat="45.94668" lon="6.52412">
        <ele>1713.5999755859</ele>
        <time>2015-02-07T08:42:31.000Z</time>
      </trkpt>
      <trkpt lat="45.94668" lon="6.52417">
        <ele>1714.5999755859</ele>
        <time>2015-02-07T08:42:37.000Z</time>
      </trkpt>
      <trkpt lat="45.94668" lon="6.52417">
        <ele>1714.8000488281</ele>
        <time>2015-02-07T08:42:38.000Z</time>
      </trkpt>
      <trkpt lat="45.94669" lon="6.5242">
        <ele>1715.5999755859</ele>
        <time>2015-02-07T08:42:42.000Z</time>
      </trkpt>
      <trkpt lat="45.94669" lon="6.52421">
        <ele>1716</ele>
        <time>2015-02-07T08:42:45.000Z</time>
      </trkpt>
      <trkpt lat="45.94669" lon="6.52422">
        <ele>1716.5999755859</ele>
        <time>2015-02-07T08:42:47.000Z</time>
      </trkpt>
      <trkpt lat="45.94668" lon="6.52428">
        <ele>1717.4000244141</ele>
        <time>2015-02-07T08:42:52.000Z</time>
      </trkpt>
      <trkpt lat="45.94668" lon="6.52429">
        <ele>1717.5999755859</ele>
        <time>2015-02-07T08:42:53.000Z</time>
      </trkpt>
      <trkpt lat="45.94669" lon="6.52432">
        <ele>1718.1999511719</ele>
        <time>2015-02-07T08:43:00.000Z</time>
      </trkpt>
      <trkpt lat="45.94669" lon="6.52433">
        <ele>1718.5999755859</ele>
        <time>2015-02-07T08:43:03.000Z</time>
      </trkpt>
      <trkpt lat="45.94669" lon="6.52434">
        <ele>1718.8000488281</ele>
        <time>2015-02-07T08:43:05.000Z</time>
      </trkpt>
      <trkpt lat="45.94669" lon="6.52435">
        <ele>1719.5999755859</ele>
        <time>2015-02-07T08:43:10.000Z</time>
      </trkpt>
      <trkpt lat="45.94669" lon="6.52436">
        <ele>1719.8000488281</ele>
        <time>2015-02-07T08:43:11.000Z</time>
      </trkpt>
      <trkpt lat="45.94668" lon="6.52438">
        <ele>1720.1999511719</ele>
        <time>2015-02-07T08:43:16.000Z</time>
      </trkpt>
      <trkpt lat="45.94668" lon="6.52438">
        <ele>1720.8000488281</ele>
        <time>2015-02-07T08:43:17.000Z</time>
      </trkpt>
      <trkpt lat="45.94663" lon="6.52438">
        <ele>1721.4000244141</ele>
        <time>2015-02-07T08:43:23.000Z</time>
      </trkpt>
      <trkpt lat="45.94661" lon="6.52437">
        <ele>1721.8000488281</ele>
        <time>2015-02-07T08:43:26.000Z</time>
      </trkpt>
      <trkpt lat="45.9466" lon="6.52436">
        <ele>1722</ele>
        <time>2015-02-07T08:43:28.000Z</time>
      </trkpt>
      <trkpt lat="45.94658" lon="6.52436">
        <ele>1723</ele>
        <time>2015-02-07T08:43:33.000Z</time>
      </trkpt>
      <trkpt lat="45.94658" lon="6.52436">
        <ele>1723.1999511719</ele>
        <time>2015-02-07T08:43:34.000Z</time>
      </trkpt>
      <trkpt lat="45.94652" lon="6.52437">
        <ele>1723.8000488281</ele>
        <time>2015-02-07T08:43:43.000Z</time>
      </trkpt>
      <trkpt lat="45.94651" lon="6.52437">
        <ele>1724</ele>
        <time>2015-02-07T08:43:45.000Z</time>
      </trkpt>
      <trkpt lat="45.94648" lon="6.52437">
        <ele>1724.5999755859</ele>
        <time>2015-02-07T08:43:49.000Z</time>
      </trkpt>
      <trkpt lat="45.94648" lon="6.52437">
        <ele>1725</ele>
        <time>2015-02-07T08:43:51.000Z</time>
      </trkpt>
      <trkpt lat="45.94647" lon="6.52437">
        <ele>1725.5999755859</ele>
        <time>2015-02-07T08:44:00.000Z</time>
      </trkpt>
      <trkpt lat="45.94643" lon="6.52437">
        <ele>1726.1999511719</ele>
        <time>2015-02-07T08:44:06.000Z</time>
      </trkpt>
      <trkpt lat="45.94644" lon="6.52439">
        <ele>1726.5999755859</ele>
        <time>2015-02-07T08:44:08.000Z</time>
      </trkpt>
      <trkpt lat="45.94644" lon="6.52443">
        <ele>1727</ele>
        <time>2015-02-07T08:44:12.000Z</time>
      </trkpt>
      <trkpt lat="45.94644" lon="6.52444">
        <ele>1727.1999511719</ele>
        <time>2015-02-07T08:44:13.000Z</time>
      </trkpt>
      <trkpt lat="45.94643" lon="6.52444">
        <ele>1727.4000244141</ele>
        <time>2015-02-07T08:44:22.000Z</time>
      </trkpt>
      <trkpt lat="45.94643" lon="6.52444">
        <ele>1728.1999511719</ele>
        <time>2015-02-07T08:44:33.000Z</time>
      </trkpt>
      <trkpt lat="45.94644" lon="6.52445">
        <ele>1728.1999511719</ele>
        <time>2015-02-07T08:44:34.000Z</time>
      </trkpt>
      <trkpt lat="45.94645" lon="6.52449">
        <ele>1728.4000244141</ele>
        <time>2015-02-07T08:44:39.000Z</time>
      </trkpt>
      <trkpt lat="45.94647" lon="6.52456">
        <ele>1729.1999511719</ele>
        <time>2015-02-07T08:44:44.000Z</time>
      </trkpt>
      <trkpt lat="45.94647" lon="6.52456">
        <ele>1729.4000244141</ele>
        <time>2015-02-07T08:44:45.000Z</time>
      </trkpt>
      <trkpt lat="45.94648" lon="6.52459">
        <ele>1730.1999511719</ele>
        <time>2015-02-07T08:44:48.000Z</time>
      </trkpt>
      <trkpt lat="45.94648" lon="6.5246">
        <ele>1730.5999755859</ele>
        <time>2015-02-07T08:44:50.000Z</time>
      </trkpt>
      <trkpt lat="45.94648" lon="6.52462">
        <ele>1731.4000244141</ele>
        <time>2015-02-07T08:44:53.000Z</time>
      </trkpt>
      <trkpt lat="45.94648" lon="6.52464">
        <ele>1731.8000488281</ele>
        <time>2015-02-07T08:44:55.000Z</time>
      </trkpt>
      <trkpt lat="45.94648" lon="6.52464">
        <ele>1732.4000244141</ele>
        <time>2015-02-07T08:44:59.000Z</time>
      </trkpt>
      <trkpt lat="45.94647" lon="6.52464">
        <ele>1733.1999511719</ele>
        <time>2015-02-07T08:45:01.000Z</time>
      </trkpt>
      <trkpt lat="45.94644" lon="6.52464">
        <ele>1734</ele>
        <time>2015-02-07T08:45:04.000Z</time>
      </trkpt>
      <trkpt lat="45.94643" lon="6.52463">
        <ele>1734.1999511719</ele>
        <time>2015-02-07T08:45:05.000Z</time>
      </trkpt>
      <trkpt lat="45.94639" lon="6.5246">
        <ele>1734.5999755859</ele>
        <time>2015-02-07T08:45:09.000Z</time>
      </trkpt>
      <trkpt lat="45.94633" lon="6.52458">
        <ele>1735.1999511719</ele>
        <time>2015-02-07T08:45:16.000Z</time>
      </trkpt>
      <trkpt lat="45.94632" lon="6.52457">
        <ele>1735.4000244141</ele>
        <time>2015-02-07T08:45:17.000Z</time>
      </trkpt>
      <trkpt lat="45.94631" lon="6.52456">
        <ele>1736.4000244141</ele>
        <time>2015-02-07T08:45:24.000Z</time>
      </trkpt>
      <trkpt lat="45.94631" lon="6.52456">
        <ele>1736.4000244141</ele>
        <time>2015-02-07T08:45:25.000Z</time>
      </trkpt>
      <trkpt lat="45.9463" lon="6.52456">
        <ele>1736.4000244141</ele>
        <time>2015-02-07T08:45:37.000Z</time>
      </trkpt>
      <trkpt lat="45.94627" lon="6.52451">
        <ele>1736.8000488281</ele>
        <time>2015-02-07T08:45:43.000Z</time>
      </trkpt>
      <trkpt lat="45.94626" lon="6.52448">
        <ele>1737.4000244141</ele>
        <time>2015-02-07T08:45:47.000Z</time>
      </trkpt>
      <trkpt lat="45.94625" lon="6.52447">
        <ele>1738.1999511719</ele>
        <time>2015-02-07T08:45:49.000Z</time>
      </trkpt>
      <trkpt lat="45.94622" lon="6.52445">
        <ele>1738.5999755859</ele>
        <time>2015-02-07T08:45:52.000Z</time>
      </trkpt>
      <trkpt lat="45.94621" lon="6.52443">
        <ele>1739</ele>
        <time>2015-02-07T08:45:56.000Z</time>
      </trkpt>
      <trkpt lat="45.94621" lon="6.52442">
        <ele>1739.5999755859</ele>
        <time>2015-02-07T08:46:02.000Z</time>
      </trkpt>
      <trkpt lat="45.94621" lon="6.52442">
        <ele>1739.8000488281</ele>
        <time>2015-02-07T08:46:03.000Z</time>
      </trkpt>
      <trkpt lat="45.9462" lon="6.52441">
        <ele>1740.4000244141</ele>
        <time>2015-02-07T08:46:10.000Z</time>
      </trkpt>
      <trkpt lat="45.9462" lon="6.5244">
        <ele>1740.8000488281</ele>
        <time>2015-02-07T08:46:18.000Z</time>
      </trkpt>
      <trkpt lat="45.9462" lon="6.5244">
        <ele>1740.8000488281</ele>
        <time>2015-02-07T08:46:19.000Z</time>
      </trkpt>
      <trkpt lat="45.94619" lon="6.5244">
        <ele>1741.4000244141</ele>
        <time>2015-02-07T08:46:26.000Z</time>
      </trkpt>
      <trkpt lat="45.94619" lon="6.5244">
        <ele>1741.1999511719</ele>
        <time>2015-02-07T08:46:33.000Z</time>
      </trkpt>
      <trkpt lat="45.9462" lon="6.52443">
        <ele>1741.8000488281</ele>
        <time>2015-02-07T08:46:36.000Z</time>
      </trkpt>
      <trkpt lat="45.9462" lon="6.52444">
        <ele>1742.4000244141</ele>
        <time>2015-02-07T08:46:39.000Z</time>
      </trkpt>
      <trkpt lat="45.9462" lon="6.52445">
        <ele>1742.8000488281</ele>
        <time>2015-02-07T08:46:44.000Z</time>
      </trkpt>
      <trkpt lat="45.9462" lon="6.52445">
        <ele>1742.8000488281</ele>
        <time>2015-02-07T08:46:47.000Z</time>
      </trkpt>
      <trkpt lat="45.9462" lon="6.52445">
        <ele>1743.4000244141</ele>
        <time>2015-02-07T08:46:55.000Z</time>
      </trkpt>
      <trkpt lat="45.94619" lon="6.52448">
        <ele>1743.4000244141</ele>
        <time>2015-02-07T08:47:00.000Z</time>
      </trkpt>
      <trkpt lat="45.94618" lon="6.52448">
        <ele>1744</ele>
        <time>2015-02-07T08:47:06.000Z</time>
      </trkpt>
      <trkpt lat="45.94617" lon="6.52447">
        <ele>1744.4000244141</ele>
        <time>2015-02-07T08:47:07.000Z</time>
      </trkpt>
      <trkpt lat="45.94616" lon="6.52446">
        <ele>1745.1999511719</ele>
        <time>2015-02-07T08:47:10.000Z</time>
      </trkpt>
      <trkpt lat="45.94616" lon="6.52446">
        <ele>1745.1999511719</ele>
        <time>2015-02-07T08:47:12.000Z</time>
      </trkpt>
      <trkpt lat="45.94615" lon="6.52446">
        <ele>1746</ele>
        <time>2015-02-07T08:47:24.000Z</time>
      </trkpt>
      <trkpt lat="45.94614" lon="6.52447">
        <ele>1746</ele>
        <time>2015-02-07T08:47:31.000Z</time>
      </trkpt>
      <trkpt lat="45.94614" lon="6.52447">
        <ele>1746.1999511719</ele>
        <time>2015-02-07T08:47:32.000Z</time>
      </trkpt>
      <trkpt lat="45.94614" lon="6.52448">
        <ele>1746.1999511719</ele>
        <time>2015-02-07T08:47:34.000Z</time>
      </trkpt>
      <trkpt lat="45.94614" lon="6.52449">
        <ele>1746.1999511719</ele>
        <time>2015-02-07T08:47:35.000Z</time>
      </trkpt>
      <trkpt lat="45.94615" lon="6.5245">
        <ele>1747.1999511719</ele>
        <time>2015-02-07T08:47:41.000Z</time>
      </trkpt>
      <trkpt lat="45.94615" lon="6.5245">
        <ele>1747.1999511719</ele>
        <time>2015-02-07T08:47:42.000Z</time>
      </trkpt>
      <trkpt lat="45.94614" lon="6.52451">
        <ele>1747.4000244141</ele>
        <time>2015-02-07T08:47:47.000Z</time>
      </trkpt>
      <trkpt lat="45.94614" lon="6.52451">
        <ele>1748.4000244141</ele>
        <time>2015-02-07T08:47:51.000Z</time>
      </trkpt>
      <trkpt lat="45.94613" lon="6.52451">
        <ele>1748.8000488281</ele>
        <time>2015-02-07T08:47:54.000Z</time>
      </trkpt>
      <trkpt lat="45.94611" lon="6.52451">
        <ele>1749</ele>
        <time>2015-02-07T08:47:58.000Z</time>
      </trkpt>
      <trkpt lat="45.94609" lon="6.52449">
        <ele>1749.5999755859</ele>
        <time>2015-02-07T08:48:03.000Z</time>
      </trkpt>
      <trkpt lat="45.94607" lon="6.52447">
        <ele>1750.4000244141</ele>
        <time>2015-02-07T08:48:06.000Z</time>
      </trkpt>
      <trkpt lat="45.94607" lon="6.52446">
        <ele>1750.5999755859</ele>
        <time>2015-02-07T08:48:07.000Z</time>
      </trkpt>
      <trkpt lat="45.94607" lon="6.52443">
        <ele>1751.5999755859</ele>
        <time>2015-02-07T08:48:13.000Z</time>
      </trkpt>
      <trkpt lat="45.94607" lon="6.52443">
        <ele>1751.8000488281</ele>
        <time>2015-02-07T08:48:14.000Z</time>
      </trkpt>
      <trkpt lat="45.94607" lon="6.52442">
        <ele>1752.5999755859</ele>
        <time>2015-02-07T08:48:21.000Z</time>
      </trkpt>
      <trkpt lat="45.94607" lon="6.52442">
        <ele>1752.8000488281</ele>
        <time>2015-02-07T08:48:23.000Z</time>
      </trkpt>
      <trkpt lat="45.94604" lon="6.52439">
        <ele>1753</ele>
        <time>2015-02-07T08:48:31.000Z</time>
      </trkpt>
      <trkpt lat="45.94603" lon="6.52437">
        <ele>1753.5999755859</ele>
        <time>2015-02-07T08:48:40.000Z</time>
      </trkpt>
      <trkpt lat="45.94603" lon="6.52437">
        <ele>1753.8000488281</ele>
        <time>2015-02-07T08:48:42.000Z</time>
      </trkpt>
      <trkpt lat="45.94603" lon="6.52439">
        <ele>1754.1999511719</ele>
        <time>2015-02-07T08:48:48.000Z</time>
      </trkpt>
      <trkpt lat="45.94602" lon="6.52442">
        <ele>1754.8000488281</ele>
        <time>2015-02-07T08:48:54.000Z</time>
      </trkpt>
      <trkpt lat="45.94602" lon="6.52442">
        <ele>1755</ele>
        <time>2015-02-07T08:48:56.000Z</time>
      </trkpt>
      <trkpt lat="45.94602" lon="6.52442">
        <ele>1755.1999511719</ele>
        <time>2015-02-07T08:48:59.000Z</time>
      </trkpt>
      <trkpt lat="45.94602" lon="6.52443">
        <ele>1755.8000488281</ele>
        <time>2015-02-07T08:49:08.000Z</time>
      </trkpt>
      <trkpt lat="45.94602" lon="6.52445">
        <ele>1755.8000488281</ele>
        <time>2015-02-07T08:49:16.000Z</time>
      </trkpt>
      <trkpt lat="45.94602" lon="6.52446">
        <ele>1756</ele>
        <time>2015-02-07T08:49:18.000Z</time>
      </trkpt>
      <trkpt lat="45.94601" lon="6.52448">
        <ele>1756.4000244141</ele>
        <time>2015-02-07T08:49:23.000Z</time>
      </trkpt>
      <trkpt lat="45.94601" lon="6.52451">
        <ele>1756.8000488281</ele>
        <time>2015-02-07T08:49:31.000Z</time>
      </trkpt>
      <trkpt lat="45.94601" lon="6.52452">
        <ele>1757</ele>
        <time>2015-02-07T08:49:37.000Z</time>
      </trkpt>
      <trkpt lat="45.94601" lon="6.52452">
        <ele>1757</ele>
        <time>2015-02-07T08:49:40.000Z</time>
      </trkpt>
      <trkpt lat="45.94601" lon="6.52452">
        <ele>1757.8000488281</ele>
        <time>2015-02-07T08:49:43.000Z</time>
      </trkpt>
      <trkpt lat="45.94601" lon="6.52452">
        <ele>1758.1999511719</ele>
        <time>2015-02-07T08:49:46.000Z</time>
      </trkpt>
      <trkpt lat="45.94599" lon="6.52451">
        <ele>1758.8000488281</ele>
        <time>2015-02-07T08:49:53.000Z</time>
      </trkpt>
      <trkpt lat="45.94599" lon="6.52451">
        <ele>1759.4000244141</ele>
        <time>2015-02-07T08:49:59.000Z</time>
      </trkpt>
      <trkpt lat="45.94599" lon="6.52452">
        <ele>1759.4000244141</ele>
        <time>2015-02-07T08:50:01.000Z</time>
      </trkpt>
      <trkpt lat="45.94599" lon="6.52455">
        <ele>1760</ele>
        <time>2015-02-07T08:50:07.000Z</time>
      </trkpt>
      <trkpt lat="45.94598" lon="6.52456">
        <ele>1760.4000244141</ele>
        <time>2015-02-07T08:50:10.000Z</time>
      </trkpt>
      <trkpt lat="45.94598" lon="6.52457">
        <ele>1761.1999511719</ele>
        <time>2015-02-07T08:50:16.000Z</time>
      </trkpt>
      <trkpt lat="45.94598" lon="6.52457">
        <ele>1761.5999755859</ele>
        <time>2015-02-07T08:50:21.000Z</time>
      </trkpt>
      <trkpt lat="45.94598" lon="6.52457">
        <ele>1762.4000244141</ele>
        <time>2015-02-07T08:50:26.000Z</time>
      </trkpt>
      <trkpt lat="45.946" lon="6.52462">
        <ele>1762.5999755859</ele>
        <time>2015-02-07T08:50:31.000Z</time>
      </trkpt>
      <trkpt lat="45.94601" lon="6.52464">
        <ele>1762.8000488281</ele>
        <time>2015-02-07T08:50:33.000Z</time>
      </trkpt>
      <trkpt lat="45.94601" lon="6.52466">
        <ele>1763.4000244141</ele>
        <time>2015-02-07T08:50:36.000Z</time>
      </trkpt>
      <trkpt lat="45.94601" lon="6.52467">
        <ele>1764</ele>
        <time>2015-02-07T08:50:38.000Z</time>
      </trkpt>
      <trkpt lat="45.94602" lon="6.52469">
        <ele>1764.8000488281</ele>
        <time>2015-02-07T08:50:42.000Z</time>
      </trkpt>
      <trkpt lat="45.94602" lon="6.5247">
        <ele>1765</ele>
        <time>2015-02-07T08:50:45.000Z</time>
      </trkpt>
      <trkpt lat="45.94603" lon="6.52471">
        <ele>1765.1999511719</ele>
        <time>2015-02-07T08:50:49.000Z</time>
      </trkpt>
      <trkpt lat="45.94603" lon="6.52473">
        <ele>1765.4000244141</ele>
        <time>2015-02-07T08:50:56.000Z</time>
      </trkpt>
      <trkpt lat="45.94603" lon="6.52473">
        <ele>1766</ele>
        <time>2015-02-07T08:51:01.000Z</time>
      </trkpt>
      <trkpt lat="45.946" lon="6.52471">
        <ele>1766.1999511719</ele>
        <time>2015-02-07T08:51:04.000Z</time>
      </trkpt>
      <trkpt lat="45.94596" lon="6.52469">
        <ele>1767</ele>
        <time>2015-02-07T08:51:11.000Z</time>
      </trkpt>
      <trkpt lat="45.94594" lon="6.52468">
        <ele>1768.4000244141</ele>
        <time>2015-02-07T08:51:17.000Z</time>
      </trkpt>
      <trkpt lat="45.94589" lon="6.52466">
        <ele>1769.5999755859</ele>
        <time>2015-02-07T08:51:24.000Z</time>
      </trkpt>
      <trkpt lat="45.94588" lon="6.52465">
        <ele>1770.1999511719</ele>
        <time>2015-02-07T08:51:33.000Z</time>
      </trkpt>
      <trkpt lat="45.94587" lon="6.52463">
        <ele>1770.4000244141</ele>
        <time>2015-02-07T08:51:43.000Z</time>
      </trkpt>
      <trkpt lat="45.94587" lon="6.52463">
        <ele>1770.5999755859</ele>
        <time>2015-02-07T08:51:44.000Z</time>
      </trkpt>
      <trkpt lat="45.94584" lon="6.52466">
        <ele>1770.8000488281</ele>
        <time>2015-02-07T08:51:51.000Z</time>
      </trkpt>
      <trkpt lat="45.94585" lon="6.52471">
        <ele>1771.5999755859</ele>
        <time>2015-02-07T08:51:57.000Z</time>
      </trkpt>
      <trkpt lat="45.94585" lon="6.52471">
        <ele>1772.5999755859</ele>
        <time>2015-02-07T08:52:06.000Z</time>
      </trkpt>
      <trkpt lat="45.94585" lon="6.52471">
        <ele>1772.5999755859</ele>
        <time>2015-02-07T08:52:07.000Z</time>
      </trkpt>
      <trkpt lat="45.94583" lon="6.52471">
        <ele>1773.8000488281</ele>
        <time>2015-02-07T08:52:10.000Z</time>
      </trkpt>
      <trkpt lat="45.9458" lon="6.5247">
        <ele>1774.4000244141</ele>
        <time>2015-02-07T08:52:13.000Z</time>
      </trkpt>
      <trkpt lat="45.94578" lon="6.52469">
        <ele>1774.8000488281</ele>
        <time>2015-02-07T08:52:16.000Z</time>
      </trkpt>
      <trkpt lat="45.94577" lon="6.52468">
        <ele>1775.5999755859</ele>
        <time>2015-02-07T08:52:21.000Z</time>
      </trkpt>
      <trkpt lat="45.94576" lon="6.52468">
        <ele>1775.8000488281</ele>
        <time>2015-02-07T08:52:25.000Z</time>
      </trkpt>
      <trkpt lat="45.94576" lon="6.52467">
        <ele>1776.1999511719</ele>
        <time>2015-02-07T08:52:28.000Z</time>
      </trkpt>
      <trkpt lat="45.94576" lon="6.52467">
        <ele>1776.8000488281</ele>
        <time>2015-02-07T08:52:36.000Z</time>
      </trkpt>
      <trkpt lat="45.94576" lon="6.52467">
        <ele>1777</ele>
        <time>2015-02-07T08:52:37.000Z</time>
      </trkpt>
      <trkpt lat="45.94576" lon="6.52472">
        <ele>1777.4000244141</ele>
        <time>2015-02-07T08:52:42.000Z</time>
      </trkpt>
      <trkpt lat="45.94576" lon="6.52475">
        <ele>1778</ele>
        <time>2015-02-07T08:52:46.000Z</time>
      </trkpt>
      <trkpt lat="45.94576" lon="6.52476">
        <ele>1778.1999511719</ele>
        <time>2015-02-07T08:52:47.000Z</time>
      </trkpt>
      <trkpt lat="45.94577" lon="6.52478">
        <ele>1779.1999511719</ele>
        <time>2015-02-07T08:52:52.000Z</time>
      </trkpt>
      <trkpt lat="45.94577" lon="6.52478">
        <ele>1779.5999755859</ele>
        <time>2015-02-07T08:52:53.000Z</time>
      </trkpt>
      <trkpt lat="45.94577" lon="6.52478">
        <ele>1779.8000488281</ele>
        <time>2015-02-07T08:53:05.000Z</time>
      </trkpt>
      <trkpt lat="45.94577" lon="6.52478">
        <ele>1780.1999511719</ele>
        <time>2015-02-07T08:53:09.000Z</time>
      </trkpt>
      <trkpt lat="45.94577" lon="6.52478">
        <ele>1780.4000244141</ele>
        <time>2015-02-07T08:53:10.000Z</time>
      </trkpt>
      <trkpt lat="45.94577" lon="6.52478">
        <ele>1780.8000488281</ele>
        <time>2015-02-07T08:53:16.000Z</time>
      </trkpt>
      <trkpt lat="45.94577" lon="6.52478">
        <ele>1781.1999511719</ele>
        <time>2015-02-07T08:53:22.000Z</time>
      </trkpt>
      <trkpt lat="45.94577" lon="6.52478">
        <ele>1781.5999755859</ele>
        <time>2015-02-07T08:53:23.000Z</time>
      </trkpt>
      <trkpt lat="45.94574" lon="6.52479">
        <ele>1782.4000244141</ele>
        <time>2015-02-07T08:53:28.000Z</time>
      </trkpt>
      <trkpt lat="45.94573" lon="6.52479">
        <ele>1782.5999755859</ele>
        <time>2015-02-07T08:53:29.000Z</time>
      </trkpt>
      <trkpt lat="45.94571" lon="6.52478">
        <ele>1783.4000244141</ele>
        <time>2015-02-07T08:53:32.000Z</time>
      </trkpt>
      <trkpt lat="45.94568" lon="6.52477">
        <ele>1784.1999511719</ele>
        <time>2015-02-07T08:53:36.000Z</time>
      </trkpt>
      <trkpt lat="45.94567" lon="6.52476">
        <ele>1784.5999755859</ele>
        <time>2015-02-07T08:53:38.000Z</time>
      </trkpt>
      <trkpt lat="45.94565" lon="6.52474">
        <ele>1785.1999511719</ele>
        <time>2015-02-07T08:53:42.000Z</time>
      </trkpt>
      <trkpt lat="45.94563" lon="6.52473">
        <ele>1785.5999755859</ele>
        <time>2015-02-07T08:53:45.000Z</time>
      </trkpt>
      <trkpt lat="45.94562" lon="6.52471">
        <ele>1786</ele>
        <time>2015-02-07T08:53:48.000Z</time>
      </trkpt>
      <trkpt lat="45.9456" lon="6.52468">
        <ele>1786.5999755859</ele>
        <time>2015-02-07T08:53:53.000Z</time>
      </trkpt>
      <trkpt lat="45.9456" lon="6.52468">
        <ele>1786.8000488281</ele>
        <time>2015-02-07T08:53:54.000Z</time>
      </trkpt>
      <trkpt lat="45.94558" lon="6.52465">
        <ele>1787.8000488281</ele>
        <time>2015-02-07T08:54:00.000Z</time>
      </trkpt>
      <trkpt lat="45.94558" lon="6.52464">
        <ele>1787.8000488281</ele>
        <time>2015-02-07T08:54:01.000Z</time>
      </trkpt>
      <trkpt lat="45.94558" lon="6.52464">
        <ele>1788.5999755859</ele>
        <time>2015-02-07T08:54:09.000Z</time>
      </trkpt>
      <trkpt lat="45.94558" lon="6.52464">
        <ele>1788.8000488281</ele>
        <time>2015-02-07T08:54:14.000Z</time>
      </trkpt>
      <trkpt lat="45.94558" lon="6.52464">
        <ele>1789</ele>
        <time>2015-02-07T08:54:15.000Z</time>
      </trkpt>
      <trkpt lat="45.94558" lon="6.52464">
        <ele>1789.1999511719</ele>
        <time>2015-02-07T08:54:20.000Z</time>
      </trkpt>
      <trkpt lat="45.94558" lon="6.52464">
        <ele>1789.8000488281</ele>
        <time>2015-02-07T08:54:26.000Z</time>
      </trkpt>
      <trkpt lat="45.94558" lon="6.52464">
        <ele>1790.8000488281</ele>
        <time>2015-02-07T08:54:32.000Z</time>
      </trkpt>
      <trkpt lat="45.94557" lon="6.52465">
        <ele>1791</ele>
        <time>2015-02-07T08:54:33.000Z</time>
      </trkpt>
      <trkpt lat="45.94557" lon="6.52467">
        <ele>1791.4000244141</ele>
        <time>2015-02-07T08:54:36.000Z</time>
      </trkpt>
      <trkpt lat="45.94558" lon="6.5247">
        <ele>1792</ele>
        <time>2015-02-07T08:54:40.000Z</time>
      </trkpt>
      <trkpt lat="45.94558" lon="6.5247">
        <ele>1792.1999511719</ele>
        <time>2015-02-07T08:54:41.000Z</time>
      </trkpt>
      <trkpt lat="45.94558" lon="6.5247">
        <ele>1792.8000488281</ele>
        <time>2015-02-07T08:54:46.000Z</time>
      </trkpt>
      <trkpt lat="45.94558" lon="6.5247">
        <ele>1793.4000244141</ele>
        <time>2015-02-07T08:54:52.000Z</time>
      </trkpt>
      <trkpt lat="45.94558" lon="6.5247">
        <ele>1794</ele>
        <time>2015-02-07T08:54:53.000Z</time>
      </trkpt>
      <trkpt lat="45.94558" lon="6.5247">
        <ele>1794.1999511719</ele>
        <time>2015-02-07T08:54:58.000Z</time>
      </trkpt>
      <trkpt lat="45.94558" lon="6.5247">
        <ele>1794.4000244141</ele>
        <time>2015-02-07T08:54:59.000Z</time>
      </trkpt>
      <trkpt lat="45.94554" lon="6.52469">
        <ele>1794.8000488281</ele>
        <time>2015-02-07T08:55:08.000Z</time>
      </trkpt>
      <trkpt lat="45.94552" lon="6.52468">
        <ele>1795.4000244141</ele>
        <time>2015-02-07T08:55:12.000Z</time>
      </trkpt>
      <trkpt lat="45.9455" lon="6.52467">
        <ele>1795.8000488281</ele>
        <time>2015-02-07T08:55:15.000Z</time>
      </trkpt>
      <trkpt lat="45.94548" lon="6.52466">
        <ele>1796.4000244141</ele>
        <time>2015-02-07T08:55:18.000Z</time>
      </trkpt>
      <trkpt lat="45.94546" lon="6.52466">
        <ele>1796.8000488281</ele>
        <time>2015-02-07T08:55:20.000Z</time>
      </trkpt>
      <trkpt lat="45.94542" lon="6.52465">
        <ele>1797.5999755859</ele>
        <time>2015-02-07T08:55:24.000Z</time>
      </trkpt>
      <trkpt lat="45.9454" lon="6.52464">
        <ele>1798</ele>
        <time>2015-02-07T08:55:27.000Z</time>
      </trkpt>
      <trkpt lat="45.94536" lon="6.52464">
        <ele>1798.8000488281</ele>
        <time>2015-02-07T08:55:33.000Z</time>
      </trkpt>
      <trkpt lat="45.94532" lon="6.52465">
        <ele>1799.8000488281</ele>
        <time>2015-02-07T08:55:40.000Z</time>
      </trkpt>
      <trkpt lat="45.94532" lon="6.52465">
        <ele>1800.8000488281</ele>
        <time>2015-02-07T08:55:44.000Z</time>
      </trkpt>
      <trkpt lat="45.94532" lon="6.52465">
        <ele>1801.4000244141</ele>
        <time>2015-02-07T08:55:46.000Z</time>
      </trkpt>
      <trkpt lat="45.94532" lon="6.52465">
        <ele>1801.8000488281</ele>
        <time>2015-02-07T08:55:49.000Z</time>
      </trkpt>
      <trkpt lat="45.9453" lon="6.52465">
        <ele>1802.1999511719</ele>
        <time>2015-02-07T08:55:51.000Z</time>
      </trkpt>
      <trkpt lat="45.94526" lon="6.52465">
        <ele>1803</ele>
        <time>2015-02-07T08:55:57.000Z</time>
      </trkpt>
      <trkpt lat="45.94524" lon="6.52466">
        <ele>1803.5999755859</ele>
        <time>2015-02-07T08:56:04.000Z</time>
      </trkpt>
      <trkpt lat="45.94524" lon="6.52466">
        <ele>1804</ele>
        <time>2015-02-07T08:56:08.000Z</time>
      </trkpt>
      <trkpt lat="45.94524" lon="6.52467">
        <ele>1804.4000244141</ele>
        <time>2015-02-07T08:56:11.000Z</time>
      </trkpt>
      <trkpt lat="45.94525" lon="6.5247">
        <ele>1805.1999511719</ele>
        <time>2015-02-07T08:56:15.000Z</time>
      </trkpt>
      <trkpt lat="45.94525" lon="6.52471">
        <ele>1805.5999755859</ele>
        <time>2015-02-07T08:56:17.000Z</time>
      </trkpt>
      <trkpt lat="45.94525" lon="6.52474">
        <ele>1806.1999511719</ele>
        <time>2015-02-07T08:56:21.000Z</time>
      </trkpt>
      <trkpt lat="45.94526" lon="6.52476">
        <ele>1806.4000244141</ele>
        <time>2015-02-07T08:56:22.000Z</time>
      </trkpt>
      <trkpt lat="45.94526" lon="6.52477">
        <ele>1807</ele>
        <time>2015-02-07T08:56:26.000Z</time>
      </trkpt>
      <trkpt lat="45.94526" lon="6.52478">
        <ele>1807.4000244141</ele>
        <time>2015-02-07T08:56:28.000Z</time>
      </trkpt>
      <trkpt lat="45.94526" lon="6.52479">
        <ele>1807.8000488281</ele>
        <time>2015-02-07T08:56:32.000Z</time>
      </trkpt>
      <trkpt lat="45.94523" lon="6.52479">
        <ele>1808.4000244141</ele>
        <time>2015-02-07T08:56:38.000Z</time>
      </trkpt>
      <trkpt lat="45.94519" lon="6.52476">
        <ele>1809.1999511719</ele>
        <time>2015-02-07T08:56:44.000Z</time>
      </trkpt>
      <trkpt lat="45.94517" lon="6.52475">
        <ele>1809.4000244141</ele>
        <time>2015-02-07T08:56:47.000Z</time>
      </trkpt>
      <trkpt lat="45.94515" lon="6.52474">
        <ele>1809.8000488281</ele>
        <time>2015-02-07T08:56:50.000Z</time>
      </trkpt>
      <trkpt lat="45.94512" lon="6.52472">
        <ele>1810.5999755859</ele>
        <time>2015-02-07T08:56:56.000Z</time>
      </trkpt>
      <trkpt lat="45.9451" lon="6.5247">
        <ele>1811.5999755859</ele>
        <time>2015-02-07T08:57:01.000Z</time>
      </trkpt>
      <trkpt lat="45.94509" lon="6.52469">
        <ele>1811.8000488281</ele>
        <time>2015-02-07T08:57:03.000Z</time>
      </trkpt>
      <trkpt lat="45.94506" lon="6.52466">
        <ele>1812.8000488281</ele>
        <time>2015-02-07T08:57:10.000Z</time>
      </trkpt>
      <trkpt lat="45.94505" lon="6.52465">
        <ele>1813.1999511719</ele>
        <time>2015-02-07T08:57:12.000Z</time>
      </trkpt>
      <trkpt lat="45.94504" lon="6.52465">
        <ele>1813.8000488281</ele>
        <time>2015-02-07T08:57:15.000Z</time>
      </trkpt>
      <trkpt lat="45.94504" lon="6.52464">
        <ele>1814.1999511719</ele>
        <time>2015-02-07T08:57:20.000Z</time>
      </trkpt>
      <trkpt lat="45.94504" lon="6.52465">
        <ele>1814.4000244141</ele>
        <time>2015-02-07T08:57:27.000Z</time>
      </trkpt>
      <trkpt lat="45.94505" lon="6.52467">
        <ele>1814.8000488281</ele>
        <time>2015-02-07T08:57:30.000Z</time>
      </trkpt>
      <trkpt lat="45.94505" lon="6.52471">
        <ele>1815.4000244141</ele>
        <time>2015-02-07T08:57:33.000Z</time>
      </trkpt>
      <trkpt lat="45.94505" lon="6.52474">
        <ele>1816</ele>
        <time>2015-02-07T08:57:37.000Z</time>
      </trkpt>
      <trkpt lat="45.94505" lon="6.52476">
        <ele>1817</ele>
        <time>2015-02-07T08:57:41.000Z</time>
      </trkpt>
      <trkpt lat="45.94505" lon="6.5248">
        <ele>1817.4000244141</ele>
        <time>2015-02-07T08:57:44.000Z</time>
      </trkpt>
      <trkpt lat="45.94505" lon="6.52482">
        <ele>1818</ele>
        <time>2015-02-07T08:57:48.000Z</time>
      </trkpt>
      <trkpt lat="45.94505" lon="6.52483">
        <ele>1818.1999511719</ele>
        <time>2015-02-07T08:57:49.000Z</time>
      </trkpt>
      <trkpt lat="45.94505" lon="6.52488">
        <ele>1819.1999511719</ele>
        <time>2015-02-07T08:57:53.000Z</time>
      </trkpt>
      <trkpt lat="45.94505" lon="6.52489">
        <ele>1819.4000244141</ele>
        <time>2015-02-07T08:57:54.000Z</time>
      </trkpt>
      <trkpt lat="45.94505" lon="6.52492">
        <ele>1820</ele>
        <time>2015-02-07T08:58:00.000Z</time>
      </trkpt>
      <trkpt lat="45.94505" lon="6.52492">
        <ele>1820.1999511719</ele>
        <time>2015-02-07T08:58:01.000Z</time>
      </trkpt>
      <trkpt lat="45.94506" lon="6.52493">
        <ele>1821.4000244141</ele>
        <time>2015-02-07T08:58:05.000Z</time>
      </trkpt>
      <trkpt lat="45.94506" lon="6.52494">
        <ele>1821.4000244141</ele>
        <time>2015-02-07T08:58:07.000Z</time>
      </trkpt>
      <trkpt lat="45.94505" lon="6.52494">
        <ele>1821.8000488281</ele>
        <time>2015-02-07T08:58:14.000Z</time>
      </trkpt>
      <trkpt lat="45.94501" lon="6.52493">
        <ele>1822.4000244141</ele>
        <time>2015-02-07T08:58:19.000Z</time>
      </trkpt>
      <trkpt lat="45.94497" lon="6.52488">
        <ele>1823.4000244141</ele>
        <time>2015-02-07T08:58:26.000Z</time>
      </trkpt>
      <trkpt lat="45.94495" lon="6.52486">
        <ele>1824.4000244141</ele>
        <time>2015-02-07T08:58:30.000Z</time>
      </trkpt>
      <trkpt lat="45.94494" lon="6.52485">
        <ele>1825</ele>
        <time>2015-02-07T08:58:32.000Z</time>
      </trkpt>
      <trkpt lat="45.94492" lon="6.52484">
        <ele>1825.5999755859</ele>
        <time>2015-02-07T08:58:35.000Z</time>
      </trkpt>
      <trkpt lat="45.94491" lon="6.52483">
        <ele>1825.8000488281</ele>
        <time>2015-02-07T08:58:37.000Z</time>
      </trkpt>
      <trkpt lat="45.94488" lon="6.52481">
        <ele>1826.5999755859</ele>
        <time>2015-02-07T08:58:43.000Z</time>
      </trkpt>
      <trkpt lat="45.94486" lon="6.5248">
        <ele>1827</ele>
        <time>2015-02-07T08:58:48.000Z</time>
      </trkpt>
      <trkpt lat="45.94484" lon="6.5248">
        <ele>1827</ele>
        <time>2015-02-07T08:58:54.000Z</time>
      </trkpt>
      <trkpt lat="45.94483" lon="6.5248">
        <ele>1827.8000488281</ele>
        <time>2015-02-07T08:58:59.000Z</time>
      </trkpt>
      <trkpt lat="45.94482" lon="6.5248">
        <ele>1828.1999511719</ele>
        <time>2015-02-07T08:59:00.000Z</time>
      </trkpt>
      <trkpt lat="45.94482" lon="6.5248">
        <ele>1828.8000488281</ele>
        <time>2015-02-07T08:59:02.000Z</time>
      </trkpt>
      <trkpt lat="45.9448" lon="6.52482">
        <ele>1829.1999511719</ele>
        <time>2015-02-07T08:59:06.000Z</time>
      </trkpt>
      <trkpt lat="45.94477" lon="6.52484">
        <ele>1829.4000244141</ele>
        <time>2015-02-07T08:59:12.000Z</time>
      </trkpt>
      <trkpt lat="45.94477" lon="6.52484">
        <ele>1830</ele>
        <time>2015-02-07T08:59:15.000Z</time>
      </trkpt>
      <trkpt lat="45.94474" lon="6.52487">
        <ele>1831</ele>
        <time>2015-02-07T08:59:21.000Z</time>
      </trkpt>
      <trkpt lat="45.94474" lon="6.52487">
        <ele>1831</ele>
        <time>2015-02-07T08:59:22.000Z</time>
      </trkpt>
      <trkpt lat="45.94474" lon="6.52487">
        <ele>1831.8000488281</ele>
        <time>2015-02-07T08:59:35.000Z</time>
      </trkpt>
      <trkpt lat="45.94472" lon="6.52488">
        <ele>1832</ele>
        <time>2015-02-07T08:59:45.000Z</time>
      </trkpt>
      <trkpt lat="45.94467" lon="6.52491">
        <ele>1833</ele>
        <time>2015-02-07T08:59:52.000Z</time>
      </trkpt>
      <trkpt lat="45.94467" lon="6.52492">
        <ele>1833.1999511719</ele>
        <time>2015-02-07T08:59:54.000Z</time>
      </trkpt>
      <trkpt lat="45.94467" lon="6.52492">
        <ele>1833.5999755859</ele>
        <time>2015-02-07T09:00:00.000Z</time>
      </trkpt>
      <trkpt lat="45.94464" lon="6.52493">
        <ele>1833.4000244141</ele>
        <time>2015-02-07T09:00:12.000Z</time>
      </trkpt>
      <trkpt lat="45.9446" lon="6.52495">
        <ele>1834</ele>
        <time>2015-02-07T09:00:18.000Z</time>
      </trkpt>
      <trkpt lat="45.94459" lon="6.52495">
        <ele>1834.1999511719</ele>
        <time>2015-02-07T09:00:19.000Z</time>
      </trkpt>
      <trkpt lat="45.94459" lon="6.52495">
        <ele>1835.1999511719</ele>
        <time>2015-02-07T09:00:24.000Z</time>
      </trkpt>
      <trkpt lat="45.94459" lon="6.52495">
        <ele>1835.4000244141</ele>
        <time>2015-02-07T09:00:25.000Z</time>
      </trkpt>
      <trkpt lat="45.94456" lon="6.52498">
        <ele>1835.4000244141</ele>
        <time>2015-02-07T09:00:32.000Z</time>
      </trkpt>
      <trkpt lat="45.94454" lon="6.52501">
        <ele>1836.1999511719</ele>
        <time>2015-02-07T09:00:37.000Z</time>
      </trkpt>
      <trkpt lat="45.94453" lon="6.52502">
        <ele>1836.4000244141</ele>
        <time>2015-02-07T09:00:38.000Z</time>
      </trkpt>
      <trkpt lat="45.94448" lon="6.52506">
        <ele>1837.1999511719</ele>
        <time>2015-02-07T09:00:44.000Z</time>
      </trkpt>
      <trkpt lat="45.94447" lon="6.52505">
        <ele>1837.4000244141</ele>
        <time>2015-02-07T09:00:46.000Z</time>
      </trkpt>
      <trkpt lat="45.94444" lon="6.52505">
        <ele>1838</ele>
        <time>2015-02-07T09:00:50.000Z</time>
      </trkpt>
      <trkpt lat="45.94442" lon="6.52505">
        <ele>1838.4000244141</ele>
        <time>2015-02-07T09:00:52.000Z</time>
      </trkpt>
      <trkpt lat="45.9444" lon="6.52505">
        <ele>1839.4000244141</ele>
        <time>2015-02-07T09:00:56.000Z</time>
      </trkpt>
      <trkpt lat="45.94439" lon="6.52506">
        <ele>1839.5999755859</ele>
        <time>2015-02-07T09:00:57.000Z</time>
      </trkpt>
      <trkpt lat="45.94435" lon="6.52509">
        <ele>1840.4000244141</ele>
        <time>2015-02-07T09:01:03.000Z</time>
      </trkpt>
      <trkpt lat="45.94431" lon="6.52512">
        <ele>1840.5999755859</ele>
        <time>2015-02-07T09:01:09.000Z</time>
      </trkpt>
      <trkpt lat="45.9443" lon="6.52513">
        <ele>1840.5999755859</ele>
        <time>2015-02-07T09:01:10.000Z</time>
      </trkpt>
      <trkpt lat="45.94427" lon="6.52515">
        <ele>1841.1999511719</ele>
        <time>2015-02-07T09:01:15.000Z</time>
      </trkpt>
      <trkpt lat="45.94426" lon="6.52516">
        <ele>1841.8000488281</ele>
        <time>2015-02-07T09:01:17.000Z</time>
      </trkpt>
      <trkpt lat="45.94422" lon="6.52517">
        <ele>1842.1999511719</ele>
        <time>2015-02-07T09:01:22.000Z</time>
      </trkpt>
      <trkpt lat="45.94421" lon="6.52518">
        <ele>1842.8000488281</ele>
        <time>2015-02-07T09:01:26.000Z</time>
      </trkpt>
      <trkpt lat="45.94419" lon="6.52518">
        <ele>1843.1999511719</ele>
        <time>2015-02-07T09:01:29.000Z</time>
      </trkpt>
      <trkpt lat="45.94415" lon="6.52519">
        <ele>1844</ele>
        <time>2015-02-07T09:01:34.000Z</time>
      </trkpt>
      <trkpt lat="45.94414" lon="6.52519">
        <ele>1844</ele>
        <time>2015-02-07T09:01:35.000Z</time>
      </trkpt>
      <trkpt lat="45.94411" lon="6.52517">
        <ele>1845</ele>
        <time>2015-02-07T09:01:42.000Z</time>
      </trkpt>
      <trkpt lat="45.9441" lon="6.52517">
        <ele>1845.1999511719</ele>
        <time>2015-02-07T09:01:43.000Z</time>
      </trkpt>
      <trkpt lat="45.94408" lon="6.52516">
        <ele>1845.8000488281</ele>
        <time>2015-02-07T09:01:48.000Z</time>
      </trkpt>
      <trkpt lat="45.94407" lon="6.52516">
        <ele>1846.1999511719</ele>
        <time>2015-02-07T09:01:50.000Z</time>
      </trkpt>
      <trkpt lat="45.94404" lon="6.52518">
        <ele>1847</ele>
        <time>2015-02-07T09:01:54.000Z</time>
      </trkpt>
      <trkpt lat="45.94403" lon="6.52519">
        <ele>1847.1999511719</ele>
        <time>2015-02-07T09:01:55.000Z</time>
      </trkpt>
      <trkpt lat="45.94401" lon="6.52521">
        <ele>1847.5999755859</ele>
        <time>2015-02-07T09:02:00.000Z</time>
      </trkpt>
      <trkpt lat="45.94399" lon="6.52523">
        <ele>1848.1999511719</ele>
        <time>2015-02-07T09:02:04.000Z</time>
      </trkpt>
      <trkpt lat="45.94397" lon="6.52524">
        <ele>1848.5999755859</ele>
        <time>2015-02-07T09:02:07.000Z</time>
      </trkpt>
      <trkpt lat="45.94396" lon="6.52524">
        <ele>1849.1999511719</ele>
        <time>2015-02-07T09:02:11.000Z</time>
      </trkpt>
      <trkpt lat="45.94396" lon="6.52524">
        <ele>1849.5999755859</ele>
        <time>2015-02-07T09:02:13.000Z</time>
      </trkpt>
      <trkpt lat="45.94393" lon="6.52524">
        <ele>1849.5999755859</ele>
        <time>2015-02-07T09:02:22.000Z</time>
      </trkpt>
      <trkpt lat="45.94392" lon="6.52524">
        <ele>1850.4000244141</ele>
        <time>2015-02-07T09:02:27.000Z</time>
      </trkpt>
      <trkpt lat="45.94392" lon="6.52524">
        <ele>1850.5999755859</ele>
        <time>2015-02-07T09:02:29.000Z</time>
      </trkpt>
      <trkpt lat="45.94393" lon="6.52525">
        <ele>1850.8000488281</ele>
        <time>2015-02-07T09:02:36.000Z</time>
      </trkpt>
      <trkpt lat="45.94393" lon="6.52525">
        <ele>1851.4000244141</ele>
        <time>2015-02-07T09:02:38.000Z</time>
      </trkpt>
      <trkpt lat="45.94393" lon="6.52525">
        <ele>1852.1999511719</ele>
        <time>2015-02-07T09:02:46.000Z</time>
      </trkpt>
      <trkpt lat="45.94394" lon="6.52528">
        <ele>1852.4000244141</ele>
        <time>2015-02-07T09:02:55.000Z</time>
      </trkpt>
      <trkpt lat="45.94395" lon="6.52531">
        <ele>1852.5999755859</ele>
        <time>2015-02-07T09:02:57.000Z</time>
      </trkpt>
      <trkpt lat="45.94397" lon="6.52535">
        <ele>1853.5999755859</ele>
        <time>2015-02-07T09:03:02.000Z</time>
      </trkpt>
      <trkpt lat="45.94397" lon="6.52535">
        <ele>1853.8000488281</ele>
        <time>2015-02-07T09:03:04.000Z</time>
      </trkpt>
      <trkpt lat="45.94398" lon="6.52537">
        <ele>1854</ele>
        <time>2015-02-07T09:03:13.000Z</time>
      </trkpt>
      <trkpt lat="45.94398" lon="6.52537">
        <ele>1855</ele>
        <time>2015-02-07T09:03:18.000Z</time>
      </trkpt>
      <trkpt lat="45.94398" lon="6.52538">
        <ele>1855.1999511719</ele>
        <time>2015-02-07T09:03:20.000Z</time>
      </trkpt>
      <trkpt lat="45.94394" lon="6.52537">
        <ele>1855.4000244141</ele>
        <time>2015-02-07T09:03:26.000Z</time>
      </trkpt>
      <trkpt lat="45.94391" lon="6.52538">
        <ele>1856.1999511719</ele>
        <time>2015-02-07T09:03:30.000Z</time>
      </trkpt>
      <trkpt lat="45.9439" lon="6.52537">
        <ele>1856.4000244141</ele>
        <time>2015-02-07T09:03:32.000Z</time>
      </trkpt>
      <trkpt lat="45.94387" lon="6.52537">
        <ele>1856.8000488281</ele>
        <time>2015-02-07T09:03:38.000Z</time>
      </trkpt>
      <trkpt lat="45.94387" lon="6.52537">
        <ele>1857.4000244141</ele>
        <time>2015-02-07T09:03:40.000Z</time>
      </trkpt>
      <trkpt lat="45.94384" lon="6.52537">
        <ele>1857.8000488281</ele>
        <time>2015-02-07T09:03:48.000Z</time>
      </trkpt>
      <trkpt lat="45.94383" lon="6.52536">
        <ele>1857.4000244141</ele>
        <time>2015-02-07T09:03:56.000Z</time>
      </trkpt>
      <trkpt lat="45.9438" lon="6.52531">
        <ele>1857.1999511719</ele>
        <time>2015-02-07T09:04:03.000Z</time>
      </trkpt>
      <trkpt lat="45.94379" lon="6.52529">
        <ele>1858.4000244141</ele>
        <time>2015-02-07T09:04:09.000Z</time>
      </trkpt>
      <trkpt lat="45.94379" lon="6.52529">
        <ele>1859</ele>
        <time>2015-02-07T09:04:27.000Z</time>
      </trkpt>
      <trkpt lat="45.94379" lon="6.52529">
        <ele>1859</ele>
        <time>2015-02-07T09:04:42.000Z</time>
      </trkpt>
      <trkpt lat="45.94379" lon="6.52529">
        <ele>1859</ele>
        <time>2015-02-07T09:05:04.000Z</time>
      </trkpt>
      <trkpt lat="45.94376" lon="6.5253">
        <ele>1859</ele>
        <time>2015-02-07T09:05:11.000Z</time>
      </trkpt>
      <trkpt lat="45.94373" lon="6.52531">
        <ele>1859.5999755859</ele>
        <time>2015-02-07T09:05:16.000Z</time>
      </trkpt>
      <trkpt lat="45.94373" lon="6.52532">
        <ele>1860.1999511719</ele>
        <time>2015-02-07T09:05:18.000Z</time>
      </trkpt>
      <trkpt lat="45.94374" lon="6.52534">
        <ele>1860.5999755859</ele>
        <time>2015-02-07T09:05:19.000Z</time>
      </trkpt>
      <trkpt lat="45.94375" lon="6.52538">
        <ele>1861.8000488281</ele>
        <time>2015-02-07T09:05:25.000Z</time>
      </trkpt>
      <trkpt lat="45.9437" lon="6.52541">
        <ele>1862.4000244141</ele>
        <time>2015-02-07T09:05:31.000Z</time>
      </trkpt>
      <trkpt lat="45.94366" lon="6.52541">
        <ele>1862.8000488281</ele>
        <time>2015-02-07T09:05:35.000Z</time>
      </trkpt>
      <trkpt lat="45.94366" lon="6.52541">
        <ele>1863</ele>
        <time>2015-02-07T09:05:36.000Z</time>
      </trkpt>
      <trkpt lat="45.94363" lon="6.52538">
        <ele>1863.5999755859</ele>
        <time>2015-02-07T09:05:43.000Z</time>
      </trkpt>
      <trkpt lat="45.94364" lon="6.52537">
        <ele>1863.5999755859</ele>
        <time>2015-02-07T09:05:51.000Z</time>
      </trkpt>
      <trkpt lat="45.94364" lon="6.52537">
        <ele>1863.5999755859</ele>
        <time>2015-02-07T09:06:06.000Z</time>
      </trkpt>
      <trkpt lat="45.94364" lon="6.52537">
        <ele>1863.4000244141</ele>
        <time>2015-02-07T09:06:22.000Z</time>
      </trkpt>
      <trkpt lat="45.94363" lon="6.52536">
        <ele>1863.5999755859</ele>
        <time>2015-02-07T09:06:37.000Z</time>
      </trkpt>
      <trkpt lat="45.9436" lon="6.52539">
        <ele>1864</ele>
        <time>2015-02-07T09:06:43.000Z</time>
      </trkpt>
      <trkpt lat="45.9436" lon="6.52539">
        <ele>1864.1999511719</ele>
        <time>2015-02-07T09:06:44.000Z</time>
      </trkpt>
      <trkpt lat="45.94359" lon="6.52541">
        <ele>1864.5999755859</ele>
        <time>2015-02-07T09:06:52.000Z</time>
      </trkpt>
      <trkpt lat="45.94357" lon="6.52545">
        <ele>1864.8000488281</ele>
        <time>2015-02-07T09:06:59.000Z</time>
      </trkpt>
      <trkpt lat="45.94355" lon="6.52547">
        <ele>1865</ele>
        <time>2015-02-07T09:07:02.000Z</time>
      </trkpt>
      <trkpt lat="45.94353" lon="6.52551">
        <ele>1865.1999511719</ele>
        <time>2015-02-07T09:07:06.000Z</time>
      </trkpt>
      <trkpt lat="45.94352" lon="6.52553">
        <ele>1865.1999511719</ele>
        <time>2015-02-07T09:07:14.000Z</time>
      </trkpt>
      <trkpt lat="45.94352" lon="6.52553">
        <ele>1865.4000244141</ele>
        <time>2015-02-07T09:07:29.000Z</time>
      </trkpt>
      <trkpt lat="45.94352" lon="6.52553">
        <ele>1865.1999511719</ele>
        <time>2015-02-07T09:07:39.000Z</time>
      </trkpt>
      <trkpt lat="45.94352" lon="6.52553">
        <ele>1865.1999511719</ele>
        <time>2015-02-07T09:07:59.000Z</time>
      </trkpt>
      <trkpt lat="45.94349" lon="6.52556">
        <ele>1865.1999511719</ele>
        <time>2015-02-07T09:08:17.000Z</time>
      </trkpt>
      <trkpt lat="45.94344" lon="6.52559">
        <ele>1864.8000488281</ele>
        <time>2015-02-07T09:08:23.000Z</time>
      </trkpt>
      <trkpt lat="45.94338" lon="6.52561">
        <ele>1864.4000244141</ele>
        <time>2015-02-07T09:08:28.000Z</time>
      </trkpt>
      <trkpt lat="45.94338" lon="6.52561">
        <ele>1864.1999511719</ele>
        <time>2015-02-07T09:08:29.000Z</time>
      </trkpt>
      <trkpt lat="45.94338" lon="6.52561">
        <ele>1863.8000488281</ele>
        <time>2015-02-07T09:08:30.000Z</time>
      </trkpt>
      <trkpt lat="45.94338" lon="6.52561">
        <ele>1862.5999755859</ele>
        <time>2015-02-07T09:08:33.000Z</time>
      </trkpt>
      <trkpt lat="45.94338" lon="6.52561">
        <ele>1862.4000244141</ele>
        <time>2015-02-07T09:08:37.000Z</time>
      </trkpt>
      <trkpt lat="45.94336" lon="6.52564">
        <ele>1863.1999511719</ele>
        <time>2015-02-07T09:08:44.000Z</time>
      </trkpt>
      <trkpt lat="45.94333" lon="6.52565">
        <ele>1863.1999511719</ele>
        <time>2015-02-07T09:08:50.000Z</time>
      </trkpt>
      <trkpt lat="45.94333" lon="6.52565">
        <ele>1863.1999511719</ele>
        <time>2015-02-07T09:09:07.000Z</time>
      </trkpt>
      <trkpt lat="45.94333" lon="6.52565">
        <ele>1863.1999511719</ele>
        <time>2015-02-07T09:09:17.000Z</time>
      </trkpt>
      <trkpt lat="45.94333" lon="6.52565">
        <ele>1863.1999511719</ele>
        <time>2015-02-07T09:09:23.000Z</time>
      </trkpt>
      <trkpt lat="45.94332" lon="6.52566">
        <ele>1862.4000244141</ele>
        <time>2015-02-07T09:09:32.000Z</time>
      </trkpt>
      <trkpt lat="45.94332" lon="6.52566">
        <ele>1861.8000488281</ele>
        <time>2015-02-07T09:09:42.000Z</time>
      </trkpt>
      <trkpt lat="45.94332" lon="6.52566">
        <ele>1861.8000488281</ele>
        <time>2015-02-07T09:09:54.000Z</time>
      </trkpt>
      <trkpt lat="45.9433" lon="6.52567">
        <ele>1861.8000488281</ele>
        <time>2015-02-07T09:10:02.000Z</time>
      </trkpt>
      <trkpt lat="45.9433" lon="6.52567">
        <ele>1861.5999755859</ele>
        <time>2015-02-07T09:10:03.000Z</time>
      </trkpt>
      <trkpt lat="45.9433" lon="6.52567">
        <ele>1861</ele>
        <time>2015-02-07T09:10:13.000Z</time>
      </trkpt>
      <trkpt lat="45.94328" lon="6.52569">
        <ele>1860.5999755859</ele>
        <time>2015-02-07T09:10:18.000Z</time>
      </trkpt>
      <trkpt lat="45.94328" lon="6.52569">
        <ele>1860.4000244141</ele>
        <time>2015-02-07T09:10:19.000Z</time>
      </trkpt>
      <trkpt lat="45.94328" lon="6.52569">
        <ele>1859.4000244141</ele>
        <time>2015-02-07T09:10:21.000Z</time>
      </trkpt>
      <trkpt lat="45.94328" lon="6.52569">
        <ele>1858.1999511719</ele>
        <time>2015-02-07T09:10:25.000Z</time>
      </trkpt>
      <trkpt lat="45.94328" lon="6.52569">
        <ele>1858</ele>
        <time>2015-02-07T09:10:27.000Z</time>
      </trkpt>
      <trkpt lat="45.94324" lon="6.52574">
        <ele>1858.8000488281</ele>
        <time>2015-02-07T09:10:35.000Z</time>
      </trkpt>
      <trkpt lat="45.94315" lon="6.52582">
        <ele>1858.1999511719</ele>
        <time>2015-02-07T09:10:41.000Z</time>
      </trkpt>
      <trkpt lat="45.9431" lon="6.52584">
        <ele>1857.8000488281</ele>
        <time>2015-02-07T09:10:46.000Z</time>
      </trkpt>
      <trkpt lat="45.94304" lon="6.52587">
        <ele>1858.8000488281</ele>
        <time>2015-02-07T09:10:52.000Z</time>
      </trkpt>
      <trkpt lat="45.943" lon="6.52589">
        <ele>1859.1999511719</ele>
        <time>2015-02-07T09:10:57.000Z</time>
      </trkpt>
      <trkpt lat="45.94299" lon="6.5259">
        <ele>1859.1999511719</ele>
        <time>2015-02-07T09:10:59.000Z</time>
      </trkpt>
      <trkpt lat="45.94295" lon="6.52591">
        <ele>1859.8000488281</ele>
        <time>2015-02-07T09:11:03.000Z</time>
      </trkpt>
      <trkpt lat="45.94291" lon="6.52594">
        <ele>1860.4000244141</ele>
        <time>2015-02-07T09:11:08.000Z</time>
      </trkpt>
      <trkpt lat="45.94291" lon="6.52594">
        <ele>1860.5999755859</ele>
        <time>2015-02-07T09:11:10.000Z</time>
      </trkpt>
      <trkpt lat="45.94289" lon="6.52595">
        <ele>1860.8000488281</ele>
        <time>2015-02-07T09:11:22.000Z</time>
      </trkpt>
      <trkpt lat="45.94283" lon="6.52596">
        <ele>1860.5999755859</ele>
        <time>2015-02-07T09:11:26.000Z</time>
      </trkpt>
      <trkpt lat="45.94283" lon="6.52596">
        <ele>1860.4000244141</ele>
        <time>2015-02-07T09:11:28.000Z</time>
      </trkpt>
      <trkpt lat="45.9428" lon="6.52599">
        <ele>1859.4000244141</ele>
        <time>2015-02-07T09:11:33.000Z</time>
      </trkpt>
      <trkpt lat="45.94275" lon="6.52603">
        <ele>1860</ele>
        <time>2015-02-07T09:11:39.000Z</time>
      </trkpt>
      <trkpt lat="45.94269" lon="6.52607">
        <ele>1861.1999511719</ele>
        <time>2015-02-07T09:11:46.000Z</time>
      </trkpt>
      <trkpt lat="45.94268" lon="6.52607">
        <ele>1861.4000244141</ele>
        <time>2015-02-07T09:11:48.000Z</time>
      </trkpt>
      <trkpt lat="45.94265" lon="6.52609">
        <ele>1861.8000488281</ele>
        <time>2015-02-07T09:11:52.000Z</time>
      </trkpt>
      <trkpt lat="45.94262" lon="6.52611">
        <ele>1862.4000244141</ele>
        <time>2015-02-07T09:11:56.000Z</time>
      </trkpt>
      <trkpt lat="45.94259" lon="6.52612">
        <ele>1862.5999755859</ele>
        <time>2015-02-07T09:11:59.000Z</time>
      </trkpt>
      <trkpt lat="45.94255" lon="6.52614">
        <ele>1863.5999755859</ele>
        <time>2015-02-07T09:12:05.000Z</time>
      </trkpt>
      <trkpt lat="45.9425" lon="6.52618">
        <ele>1864.1999511719</ele>
        <time>2015-02-07T09:12:11.000Z</time>
      </trkpt>
      <trkpt lat="45.94244" lon="6.52617">
        <ele>1864.1999511719</ele>
        <time>2015-02-07T09:12:17.000Z</time>
      </trkpt>
      <trkpt lat="45.94243" lon="6.52617">
        <ele>1864.5999755859</ele>
        <time>2015-02-07T09:12:19.000Z</time>
      </trkpt>
      <trkpt lat="45.9424" lon="6.52616">
        <ele>1865.1999511719</ele>
        <time>2015-02-07T09:12:25.000Z</time>
      </trkpt>
      <trkpt lat="45.9424" lon="6.52616">
        <ele>1865.5999755859</ele>
        <time>2015-02-07T09:12:33.000Z</time>
      </trkpt>
      <trkpt lat="45.9424" lon="6.52616">
        <ele>1865.8000488281</ele>
        <time>2015-02-07T09:12:34.000Z</time>
      </trkpt>
      <trkpt lat="45.94237" lon="6.52616">
        <ele>1866.5999755859</ele>
        <time>2015-02-07T09:12:41.000Z</time>
      </trkpt>
      <trkpt lat="45.94233" lon="6.52615">
        <ele>1866.8000488281</ele>
        <time>2015-02-07T09:12:46.000Z</time>
      </trkpt>
      <trkpt lat="45.9423" lon="6.52615">
        <ele>1867.4000244141</ele>
        <time>2015-02-07T09:12:48.000Z</time>
      </trkpt>
      <trkpt lat="45.94227" lon="6.52613">
        <ele>1868</ele>
        <time>2015-02-07T09:12:53.000Z</time>
      </trkpt>
      <trkpt lat="45.94223" lon="6.52612">
        <ele>1869</ele>
        <time>2015-02-07T09:12:58.000Z</time>
      </trkpt>
      <trkpt lat="45.94222" lon="6.52612">
        <ele>1869.1999511719</ele>
        <time>2015-02-07T09:12:59.000Z</time>
      </trkpt>
      <trkpt lat="45.94218" lon="6.5261">
        <ele>1869.8000488281</ele>
        <time>2015-02-07T09:13:04.000Z</time>
      </trkpt>
      <trkpt lat="45.94216" lon="6.5261">
        <ele>1870.1999511719</ele>
        <time>2015-02-07T09:13:08.000Z</time>
      </trkpt>
      <trkpt lat="45.94216" lon="6.5261">
        <ele>1870.4000244141</ele>
        <time>2015-02-07T09:13:10.000Z</time>
      </trkpt>
      <trkpt lat="45.94211" lon="6.52609">
        <ele>1871.1999511719</ele>
        <time>2015-02-07T09:13:18.000Z</time>
      </trkpt>
      <trkpt lat="45.94209" lon="6.52608">
        <ele>1872.4000244141</ele>
        <time>2015-02-07T09:13:22.000Z</time>
      </trkpt>
      <trkpt lat="45.94209" lon="6.52608">
        <ele>1873</ele>
        <time>2015-02-07T09:13:25.000Z</time>
      </trkpt>
      <trkpt lat="45.94209" lon="6.52608">
        <ele>1873.4000244141</ele>
        <time>2015-02-07T09:13:29.000Z</time>
      </trkpt>
      <trkpt lat="45.94203" lon="6.52608">
        <ele>1873.4000244141</ele>
        <time>2015-02-07T09:13:34.000Z</time>
      </trkpt>
      <trkpt lat="45.94196" lon="6.52607">
        <ele>1874.4000244141</ele>
        <time>2015-02-07T09:13:43.000Z</time>
      </trkpt>
      <trkpt lat="45.94195" lon="6.52607">
        <ele>1874.4000244141</ele>
        <time>2015-02-07T09:13:44.000Z</time>
      </trkpt>
      <trkpt lat="45.94192" lon="6.52607">
        <ele>1875.5999755859</ele>
        <time>2015-02-07T09:13:49.000Z</time>
      </trkpt>
      <trkpt lat="45.94192" lon="6.52607">
        <ele>1875.8000488281</ele>
        <time>2015-02-07T09:13:51.000Z</time>
      </trkpt>
      <trkpt lat="45.94189" lon="6.52608">
        <ele>1875.8000488281</ele>
        <time>2015-02-07T09:13:57.000Z</time>
      </trkpt>
      <trkpt lat="45.94185" lon="6.52609">
        <ele>1875.8000488281</ele>
        <time>2015-02-07T09:14:04.000Z</time>
      </trkpt>
      <trkpt lat="45.94183" lon="6.52611">
        <ele>1876.5999755859</ele>
        <time>2015-02-07T09:14:08.000Z</time>
      </trkpt>
      <trkpt lat="45.94182" lon="6.52613">
        <ele>1877.4000244141</ele>
        <time>2015-02-07T09:14:12.000Z</time>
      </trkpt>
      <trkpt lat="45.9418" lon="6.52613">
        <ele>1877.8000488281</ele>
        <time>2015-02-07T09:14:14.000Z</time>
      </trkpt>
      <trkpt lat="45.94177" lon="6.52613">
        <ele>1878.8000488281</ele>
        <time>2015-02-07T09:14:19.000Z</time>
      </trkpt>
      <trkpt lat="45.94177" lon="6.52613">
        <ele>1879</ele>
        <time>2015-02-07T09:14:21.000Z</time>
      </trkpt>
      <trkpt lat="45.94172" lon="6.52612">
        <ele>1879.4000244141</ele>
        <time>2015-02-07T09:14:28.000Z</time>
      </trkpt>
      <trkpt lat="45.9417" lon="6.52611">
        <ele>1879.8000488281</ele>
        <time>2015-02-07T09:14:30.000Z</time>
      </trkpt>
      <trkpt lat="45.94168" lon="6.52611">
        <ele>1880.8000488281</ele>
        <time>2015-02-07T09:14:34.000Z</time>
      </trkpt>
      <trkpt lat="45.94166" lon="6.5261">
        <ele>1881</ele>
        <time>2015-02-07T09:14:38.000Z</time>
      </trkpt>
      <trkpt lat="45.94163" lon="6.5261">
        <ele>1881.8000488281</ele>
        <time>2015-02-07T09:14:42.000Z</time>
      </trkpt>
      <trkpt lat="45.94161" lon="6.5261">
        <ele>1882</ele>
        <time>2015-02-07T09:14:46.000Z</time>
      </trkpt>
      <trkpt lat="45.9416" lon="6.52611">
        <ele>1882.4000244141</ele>
        <time>2015-02-07T09:14:48.000Z</time>
      </trkpt>
      <trkpt lat="45.94157" lon="6.52612">
        <ele>1883.4000244141</ele>
        <time>2015-02-07T09:14:55.000Z</time>
      </trkpt>
      <trkpt lat="45.94157" lon="6.52612">
        <ele>1883.5999755859</ele>
        <time>2015-02-07T09:14:56.000Z</time>
      </trkpt>
      <trkpt lat="45.94154" lon="6.52612">
        <ele>1884</ele>
        <time>2015-02-07T09:15:01.000Z</time>
      </trkpt>
      <trkpt lat="45.94152" lon="6.52611">
        <ele>1884.8000488281</ele>
        <time>2015-02-07T09:15:04.000Z</time>
      </trkpt>
      <trkpt lat="45.9415" lon="6.52611">
        <ele>1885.5999755859</ele>
        <time>2015-02-07T09:15:07.000Z</time>
      </trkpt>
      <trkpt lat="45.94148" lon="6.52611">
        <ele>1885.8000488281</ele>
        <time>2015-02-07T09:15:09.000Z</time>
      </trkpt>
      <trkpt lat="45.94146" lon="6.5261">
        <ele>1886.1999511719</ele>
        <time>2015-02-07T09:15:14.000Z</time>
      </trkpt>
      <trkpt lat="45.94146" lon="6.52609">
        <ele>1886.8000488281</ele>
        <time>2015-02-07T09:15:20.000Z</time>
      </trkpt>
      <trkpt lat="45.94146" lon="6.52611">
        <ele>1886.8000488281</ele>
        <time>2015-02-07T09:15:22.000Z</time>
      </trkpt>
      <trkpt lat="45.94147" lon="6.52617">
        <ele>1887.4000244141</ele>
        <time>2015-02-07T09:15:29.000Z</time>
      </trkpt>
      <trkpt lat="45.94147" lon="6.52619">
        <ele>1888</ele>
        <time>2015-02-07T09:15:33.000Z</time>
      </trkpt>
      <trkpt lat="45.94148" lon="6.5262">
        <ele>1888.4000244141</ele>
        <time>2015-02-07T09:15:36.000Z</time>
      </trkpt>
      <trkpt lat="45.94149" lon="6.52626">
        <ele>1889.1999511719</ele>
        <time>2015-02-07T09:15:42.000Z</time>
      </trkpt>
      <trkpt lat="45.9415" lon="6.52627">
        <ele>1889.5999755859</ele>
        <time>2015-02-07T09:15:43.000Z</time>
      </trkpt>
      <trkpt lat="45.94151" lon="6.52632">
        <ele>1890.1999511719</ele>
        <time>2015-02-07T09:15:51.000Z</time>
      </trkpt>
      <trkpt lat="45.94154" lon="6.52636">
        <ele>1890.8000488281</ele>
        <time>2015-02-07T09:15:58.000Z</time>
      </trkpt>
      <trkpt lat="45.94154" lon="6.52637">
        <ele>1891.1999511719</ele>
        <time>2015-02-07T09:16:00.000Z</time>
      </trkpt>
      <trkpt lat="45.94155" lon="6.52638">
        <ele>1891.8000488281</ele>
        <time>2015-02-07T09:16:06.000Z</time>
      </trkpt>
      <trkpt lat="45.94156" lon="6.5264">
        <ele>1892.4000244141</ele>
        <time>2015-02-07T09:16:08.000Z</time>
      </trkpt>
      <trkpt lat="45.94157" lon="6.52642">
        <ele>1892.8000488281</ele>
        <time>2015-02-07T09:16:11.000Z</time>
      </trkpt>
      <trkpt lat="45.94157" lon="6.52642">
        <ele>1893.4000244141</ele>
        <time>2015-02-07T09:16:15.000Z</time>
      </trkpt>
      <trkpt lat="45.94157" lon="6.52642">
        <ele>1894</ele>
        <time>2015-02-07T09:16:17.000Z</time>
      </trkpt>
      <trkpt lat="45.94155" lon="6.52645">
        <ele>1894.5999755859</ele>
        <time>2015-02-07T09:16:20.000Z</time>
      </trkpt>
      <trkpt lat="45.94153" lon="6.52647">
        <ele>1894.5999755859</ele>
        <time>2015-02-07T09:16:23.000Z</time>
      </trkpt>
      <trkpt lat="45.94152" lon="6.52649">
        <ele>1895.1999511719</ele>
        <time>2015-02-07T09:16:28.000Z</time>
      </trkpt>
      <trkpt lat="45.94151" lon="6.52649">
        <ele>1895.8000488281</ele>
        <time>2015-02-07T09:16:30.000Z</time>
      </trkpt>
      <trkpt lat="45.94148" lon="6.52651">
        <ele>1896.1999511719</ele>
        <time>2015-02-07T09:16:34.000Z</time>
      </trkpt>
      <trkpt lat="45.94146" lon="6.52651">
        <ele>1896.8000488281</ele>
        <time>2015-02-07T09:16:38.000Z</time>
      </trkpt>
      <trkpt lat="45.94144" lon="6.52652">
        <ele>1897.5999755859</ele>
        <time>2015-02-07T09:16:41.000Z</time>
      </trkpt>
      <trkpt lat="45.94143" lon="6.52651">
        <ele>1897.8000488281</ele>
        <time>2015-02-07T09:16:43.000Z</time>
      </trkpt>
      <trkpt lat="45.94142" lon="6.52651">
        <ele>1898.5999755859</ele>
        <time>2015-02-07T09:16:47.000Z</time>
      </trkpt>
      <trkpt lat="45.94139" lon="6.52651">
        <ele>1899</ele>
        <time>2015-02-07T09:16:51.000Z</time>
      </trkpt>
      <trkpt lat="45.94139" lon="6.5265">
        <ele>1899.1999511719</ele>
        <time>2015-02-07T09:16:53.000Z</time>
      </trkpt>
      <trkpt lat="45.94135" lon="6.52654">
        <ele>1900.1999511719</ele>
        <time>2015-02-07T09:16:59.000Z</time>
      </trkpt>
      <trkpt lat="45.94134" lon="6.52654">
        <ele>1900.4000244141</ele>
        <time>2015-02-07T09:17:04.000Z</time>
      </trkpt>
      <trkpt lat="45.94132" lon="6.52654">
        <ele>1901.1999511719</ele>
        <time>2015-02-07T09:17:08.000Z</time>
      </trkpt>
      <trkpt lat="45.94132" lon="6.52654">
        <ele>1901.5999755859</ele>
        <time>2015-02-07T09:17:10.000Z</time>
      </trkpt>
      <trkpt lat="45.94133" lon="6.52657">
        <ele>1901.5999755859</ele>
        <time>2015-02-07T09:17:14.000Z</time>
      </trkpt>
      <trkpt lat="45.94133" lon="6.52663">
        <ele>1902.4000244141</ele>
        <time>2015-02-07T09:17:19.000Z</time>
      </trkpt>
      <trkpt lat="45.94134" lon="6.52665">
        <ele>1903.4000244141</ele>
        <time>2015-02-07T09:17:25.000Z</time>
      </trkpt>
      <trkpt lat="45.94134" lon="6.52666">
        <ele>1903.5999755859</ele>
        <time>2015-02-07T09:17:27.000Z</time>
      </trkpt>
      <trkpt lat="45.94135" lon="6.52672">
        <ele>1904</ele>
        <time>2015-02-07T09:17:35.000Z</time>
      </trkpt>
      <trkpt lat="45.94135" lon="6.52674">
        <ele>1904.5999755859</ele>
        <time>2015-02-07T09:17:40.000Z</time>
      </trkpt>
      <trkpt lat="45.94135" lon="6.52675">
        <ele>1905</ele>
        <time>2015-02-07T09:17:42.000Z</time>
      </trkpt>
      <trkpt lat="45.94135" lon="6.52676">
        <ele>1906</ele>
        <time>2015-02-07T09:17:45.000Z</time>
      </trkpt>
      <trkpt lat="45.94135" lon="6.52678">
        <ele>1906.4000244141</ele>
        <time>2015-02-07T09:17:48.000Z</time>
      </trkpt>
      <trkpt lat="45.94134" lon="6.52678">
        <ele>1907</ele>
        <time>2015-02-07T09:17:52.000Z</time>
      </trkpt>
      <trkpt lat="45.94133" lon="6.52678">
        <ele>1907.1999511719</ele>
        <time>2015-02-07T09:17:53.000Z</time>
      </trkpt>
      <trkpt lat="45.94131" lon="6.52679">
        <ele>1908</ele>
        <time>2015-02-07T09:17:58.000Z</time>
      </trkpt>
      <trkpt lat="45.9413" lon="6.52679">
        <ele>1908</ele>
        <time>2015-02-07T09:17:59.000Z</time>
      </trkpt>
      <trkpt lat="45.94127" lon="6.52679">
        <ele>1908.5999755859</ele>
        <time>2015-02-07T09:18:04.000Z</time>
      </trkpt>
      <trkpt lat="45.94125" lon="6.52678">
        <ele>1909.1999511719</ele>
        <time>2015-02-07T09:18:08.000Z</time>
      </trkpt>
      <trkpt lat="45.94124" lon="6.52678">
        <ele>1910.4000244141</ele>
        <time>2015-02-07T09:18:12.000Z</time>
      </trkpt>
      <trkpt lat="45.9412" lon="6.52678">
        <ele>1910.5999755859</ele>
        <time>2015-02-07T09:18:17.000Z</time>
      </trkpt>
      <trkpt lat="45.94119" lon="6.52677">
        <ele>1911.5999755859</ele>
        <time>2015-02-07T09:18:21.000Z</time>
      </trkpt>
      <trkpt lat="45.94118" lon="6.52676">
        <ele>1912</ele>
        <time>2015-02-07T09:18:23.000Z</time>
      </trkpt>
      <trkpt lat="45.94113" lon="6.52674">
        <ele>1912.8000488281</ele>
        <time>2015-02-07T09:18:31.000Z</time>
      </trkpt>
      <trkpt lat="45.94111" lon="6.52675">
        <ele>1913.8000488281</ele>
        <time>2015-02-07T09:18:38.000Z</time>
      </trkpt>
      <trkpt lat="45.94111" lon="6.52675">
        <ele>1914</ele>
        <time>2015-02-07T09:18:39.000Z</time>
      </trkpt>
      <trkpt lat="45.9411" lon="6.52675">
        <ele>1914.8000488281</ele>
        <time>2015-02-07T09:18:46.000Z</time>
      </trkpt>
      <trkpt lat="45.94107" lon="6.52677">
        <ele>1914.5999755859</ele>
        <time>2015-02-07T09:18:52.000Z</time>
      </trkpt>
      <trkpt lat="45.94107" lon="6.52677">
        <ele>1915</ele>
        <time>2015-02-07T09:18:53.000Z</time>
      </trkpt>
      <trkpt lat="45.94105" lon="6.52677">
        <ele>1915.8000488281</ele>
        <time>2015-02-07T09:18:58.000Z</time>
      </trkpt>
      <trkpt lat="45.94105" lon="6.52677">
        <ele>1916</ele>
        <time>2015-02-07T09:19:01.000Z</time>
      </trkpt>
      <trkpt lat="45.94105" lon="6.52677">
        <ele>1917</ele>
        <time>2015-02-07T09:19:06.000Z</time>
      </trkpt>
      <trkpt lat="45.94105" lon="6.52677">
        <ele>1917</ele>
        <time>2015-02-07T09:19:07.000Z</time>
      </trkpt>
      <trkpt lat="45.94105" lon="6.52677">
        <ele>1918</ele>
        <time>2015-02-07T09:19:12.000Z</time>
      </trkpt>
      <trkpt lat="45.94105" lon="6.52677">
        <ele>1918.1999511719</ele>
        <time>2015-02-07T09:19:13.000Z</time>
      </trkpt>
      <trkpt lat="45.94105" lon="6.52677">
        <ele>1918.1999511719</ele>
        <time>2015-02-07T09:19:25.000Z</time>
      </trkpt>
      <trkpt lat="45.94104" lon="6.52677">
        <ele>1918.1999511719</ele>
        <time>2015-02-07T09:19:45.000Z</time>
      </trkpt>
      <trkpt lat="45.94104" lon="6.52677">
        <ele>1918.1999511719</ele>
        <time>2015-02-07T09:20:04.000Z</time>
      </trkpt>
      <trkpt lat="45.94104" lon="6.52678">
        <ele>1918.1999511719</ele>
        <time>2015-02-07T09:20:19.000Z</time>
      </trkpt>
      <trkpt lat="45.94104" lon="6.52678">
        <ele>1918.1999511719</ele>
        <time>2015-02-07T09:20:46.000Z</time>
      </trkpt>
      <trkpt lat="45.94104" lon="6.52678">
        <ele>1918.1999511719</ele>
        <time>2015-02-07T09:21:07.000Z</time>
      </trkpt>
      <trkpt lat="45.94104" lon="6.52678">
        <ele>1918</ele>
        <time>2015-02-07T09:21:25.000Z</time>
      </trkpt>
      <trkpt lat="45.94103" lon="6.52678">
        <ele>1918.1999511719</ele>
        <time>2015-02-07T09:21:36.000Z</time>
      </trkpt>
      <trkpt lat="45.94102" lon="6.52678">
        <ele>1918</ele>
        <time>2015-02-07T09:21:52.000Z</time>
      </trkpt>
      <trkpt lat="45.94094" lon="6.52679">
        <ele>1918.4000244141</ele>
        <time>2015-02-07T09:21:58.000Z</time>
      </trkpt>
      <trkpt lat="45.9409" lon="6.5268">
        <ele>1919.1999511719</ele>
        <time>2015-02-07T09:22:02.000Z</time>
      </trkpt>
      <trkpt lat="45.94089" lon="6.52681">
        <ele>1919.4000244141</ele>
        <time>2015-02-07T09:22:03.000Z</time>
      </trkpt>
      <trkpt lat="45.94085" lon="6.52684">
        <ele>1920.1999511719</ele>
        <time>2015-02-07T09:22:07.000Z</time>
      </trkpt>
      <trkpt lat="45.94081" lon="6.52683">
        <ele>1921.4000244141</ele>
        <time>2015-02-07T09:22:11.000Z</time>
      </trkpt>
      <trkpt lat="45.94078" lon="6.5268">
        <ele>1922.4000244141</ele>
        <time>2015-02-07T09:22:16.000Z</time>
      </trkpt>
      <trkpt lat="45.94076" lon="6.52678">
        <ele>1922.5999755859</ele>
        <time>2015-02-07T09:22:18.000Z</time>
      </trkpt>
      <trkpt lat="45.94075" lon="6.52675">
        <ele>1923.1999511719</ele>
        <time>2015-02-07T09:22:28.000Z</time>
      </trkpt>
      <trkpt lat="45.94074" lon="6.52675">
        <ele>1923.4000244141</ele>
        <time>2015-02-07T09:22:29.000Z</time>
      </trkpt>
      <trkpt lat="45.94069" lon="6.52673">
        <ele>1924.5999755859</ele>
        <time>2015-02-07T09:22:34.000Z</time>
      </trkpt>
      <trkpt lat="45.94065" lon="6.52673">
        <ele>1925.5999755859</ele>
        <time>2015-02-07T09:22:38.000Z</time>
      </trkpt>
      <trkpt lat="45.94062" lon="6.52674">
        <ele>1926.5999755859</ele>
        <time>2015-02-07T09:22:42.000Z</time>
      </trkpt>
      <trkpt lat="45.94058" lon="6.52676">
        <ele>1928</ele>
        <time>2015-02-07T09:22:48.000Z</time>
      </trkpt>
      <trkpt lat="45.94054" lon="6.52678">
        <ele>1929</ele>
        <time>2015-02-07T09:22:53.000Z</time>
      </trkpt>
      <trkpt lat="45.94053" lon="6.52678">
        <ele>1929.1999511719</ele>
        <time>2015-02-07T09:22:55.000Z</time>
      </trkpt>
      <trkpt lat="45.9405" lon="6.52679">
        <ele>1930</ele>
        <time>2015-02-07T09:22:59.000Z</time>
      </trkpt>
      <trkpt lat="45.94048" lon="6.52679">
        <ele>1930.5999755859</ele>
        <time>2015-02-07T09:23:02.000Z</time>
      </trkpt>
      <trkpt lat="45.94046" lon="6.5268">
        <ele>1931</ele>
        <time>2015-02-07T09:23:04.000Z</time>
      </trkpt>
      <trkpt lat="45.94042" lon="6.5268">
        <ele>1931.8000488281</ele>
        <time>2015-02-07T09:23:08.000Z</time>
      </trkpt>
      <trkpt lat="45.94042" lon="6.5268">
        <ele>1932.1999511719</ele>
        <time>2015-02-07T09:23:10.000Z</time>
      </trkpt>
      <trkpt lat="45.94039" lon="6.52681">
        <ele>1932.8000488281</ele>
        <time>2015-02-07T09:23:14.000Z</time>
      </trkpt>
      <trkpt lat="45.94038" lon="6.52682">
        <ele>1933.1999511719</ele>
        <time>2015-02-07T09:23:16.000Z</time>
      </trkpt>
      <trkpt lat="45.94035" lon="6.52682">
        <ele>1934.4000244141</ele>
        <time>2015-02-07T09:23:20.000Z</time>
      </trkpt>
      <trkpt lat="45.94031" lon="6.52683">
        <ele>1935.4000244141</ele>
        <time>2015-02-07T09:23:26.000Z</time>
      </trkpt>
      <trkpt lat="45.94028" lon="6.52685">
        <ele>1936.5999755859</ele>
        <time>2015-02-07T09:23:31.000Z</time>
      </trkpt>
      <trkpt lat="45.94028" lon="6.52685">
        <ele>1936.5999755859</ele>
        <time>2015-02-07T09:23:32.000Z</time>
      </trkpt>
      <trkpt lat="45.94024" lon="6.52684">
        <ele>1937.5999755859</ele>
        <time>2015-02-07T09:23:38.000Z</time>
      </trkpt>
      <trkpt lat="45.94024" lon="6.52684">
        <ele>1938</ele>
        <time>2015-02-07T09:23:45.000Z</time>
      </trkpt>
      <trkpt lat="45.94026" lon="6.52687">
        <ele>1938.5999755859</ele>
        <time>2015-02-07T09:23:49.000Z</time>
      </trkpt>
      <trkpt lat="45.94028" lon="6.5269">
        <ele>1938.8000488281</ele>
        <time>2015-02-07T09:23:50.000Z</time>
      </trkpt>
      <trkpt lat="45.94032" lon="6.52694">
        <ele>1939.5999755859</ele>
        <time>2015-02-07T09:23:55.000Z</time>
      </trkpt>
      <trkpt lat="45.94033" lon="6.52695">
        <ele>1939.8000488281</ele>
        <time>2015-02-07T09:23:56.000Z</time>
      </trkpt>
      <trkpt lat="45.94035" lon="6.52696">
        <ele>1940.5999755859</ele>
        <time>2015-02-07T09:24:00.000Z</time>
      </trkpt>
      <trkpt lat="45.94037" lon="6.52697">
        <ele>1940.8000488281</ele>
        <time>2015-02-07T09:24:01.000Z</time>
      </trkpt>
      <trkpt lat="45.9404" lon="6.527">
        <ele>1942</ele>
        <time>2015-02-07T09:24:07.000Z</time>
      </trkpt>
      <trkpt lat="45.94043" lon="6.52703">
        <ele>1943</ele>
        <time>2015-02-07T09:24:12.000Z</time>
      </trkpt>
      <trkpt lat="45.94044" lon="6.52705">
        <ele>1943.4000244141</ele>
        <time>2015-02-07T09:24:14.000Z</time>
      </trkpt>
      <trkpt lat="45.94045" lon="6.52708">
        <ele>1944.1999511719</ele>
        <time>2015-02-07T09:24:18.000Z</time>
      </trkpt>
      <trkpt lat="45.94046" lon="6.5271">
        <ele>1944.1999511719</ele>
        <time>2015-02-07T09:24:19.000Z</time>
      </trkpt>
      <trkpt lat="45.94047" lon="6.52713">
        <ele>1945.1999511719</ele>
        <time>2015-02-07T09:24:23.000Z</time>
      </trkpt>
      <trkpt lat="45.94047" lon="6.52717">
        <ele>1945.5999755859</ele>
        <time>2015-02-07T09:24:25.000Z</time>
      </trkpt>
      <trkpt lat="45.94047" lon="6.5272">
        <ele>1946</ele>
        <time>2015-02-07T09:24:28.000Z</time>
      </trkpt>
      <trkpt lat="45.94047" lon="6.52719">
        <ele>1946.1999511719</ele>
        <time>2015-02-07T09:24:30.000Z</time>
      </trkpt>
      <trkpt lat="45.94047" lon="6.52719">
        <ele>1946.1999511719</ele>
        <time>2015-02-07T09:24:31.000Z</time>
      </trkpt>
      <trkpt lat="45.94047" lon="6.52719">
        <ele>1947.4000244141</ele>
        <time>2015-02-07T09:24:34.000Z</time>
      </trkpt>
      <trkpt lat="45.94047" lon="6.52719">
        <ele>1947.8000488281</ele>
        <time>2015-02-07T09:24:37.000Z</time>
      </trkpt>
      <trkpt lat="45.94042" lon="6.52716">
        <ele>1948.5999755859</ele>
        <time>2015-02-07T09:24:43.000Z</time>
      </trkpt>
      <trkpt lat="45.94036" lon="6.52714">
        <ele>1949.5999755859</ele>
        <time>2015-02-07T09:24:48.000Z</time>
      </trkpt>
      <trkpt lat="45.94033" lon="6.52716">
        <ele>1950.8000488281</ele>
        <time>2015-02-07T09:24:54.000Z</time>
      </trkpt>
      <trkpt lat="45.94029" lon="6.52718">
        <ele>1951.8000488281</ele>
        <time>2015-02-07T09:24:58.000Z</time>
      </trkpt>
      <trkpt lat="45.94029" lon="6.52718">
        <ele>1952.1999511719</ele>
        <time>2015-02-07T09:25:00.000Z</time>
      </trkpt>
      <trkpt lat="45.94025" lon="6.5272">
        <ele>1953</ele>
        <time>2015-02-07T09:25:04.000Z</time>
      </trkpt>
      <trkpt lat="45.94024" lon="6.52719">
        <ele>1953.5999755859</ele>
        <time>2015-02-07T09:25:06.000Z</time>
      </trkpt>
      <trkpt lat="45.94022" lon="6.5272">
        <ele>1954.1999511719</ele>
        <time>2015-02-07T09:25:09.000Z</time>
      </trkpt>
      <trkpt lat="45.94021" lon="6.52719">
        <ele>1954.4000244141</ele>
        <time>2015-02-07T09:25:11.000Z</time>
      </trkpt>
      <trkpt lat="45.9402" lon="6.52719">
        <ele>1955.1999511719</ele>
        <time>2015-02-07T09:25:16.000Z</time>
      </trkpt>
      <trkpt lat="45.9402" lon="6.52719">
        <ele>1955.4000244141</ele>
        <time>2015-02-07T09:25:18.000Z</time>
      </trkpt>
      <trkpt lat="45.94024" lon="6.52724">
        <ele>1955.8000488281</ele>
        <time>2015-02-07T09:25:24.000Z</time>
      </trkpt>
      <trkpt lat="45.94026" lon="6.52726">
        <ele>1956.4000244141</ele>
        <time>2015-02-07T09:25:27.000Z</time>
      </trkpt>
      <trkpt lat="45.94029" lon="6.52727">
        <ele>1956.8000488281</ele>
        <time>2015-02-07T09:25:29.000Z</time>
      </trkpt>
      <trkpt lat="45.94031" lon="6.5273">
        <ele>1957.4000244141</ele>
        <time>2015-02-07T09:25:33.000Z</time>
      </trkpt>
      <trkpt lat="45.94032" lon="6.52733">
        <ele>1958</ele>
        <time>2015-02-07T09:25:36.000Z</time>
      </trkpt>
      <trkpt lat="45.94034" lon="6.52737">
        <ele>1958.5999755859</ele>
        <time>2015-02-07T09:25:39.000Z</time>
      </trkpt>
      <trkpt lat="45.94034" lon="6.52738">
        <ele>1959</ele>
        <time>2015-02-07T09:25:41.000Z</time>
      </trkpt>
      <trkpt lat="45.94034" lon="6.52741">
        <ele>1959.8000488281</ele>
        <time>2015-02-07T09:25:44.000Z</time>
      </trkpt>
      <trkpt lat="45.94036" lon="6.52746">
        <ele>1960.4000244141</ele>
        <time>2015-02-07T09:25:48.000Z</time>
      </trkpt>
      <trkpt lat="45.94038" lon="6.5275">
        <ele>1961</ele>
        <time>2015-02-07T09:25:51.000Z</time>
      </trkpt>
      <trkpt lat="45.94039" lon="6.52751">
        <ele>1961.1999511719</ele>
        <time>2015-02-07T09:25:53.000Z</time>
      </trkpt>
      <trkpt lat="45.94041" lon="6.52756">
        <ele>1962.1999511719</ele>
        <time>2015-02-07T09:25:58.000Z</time>
      </trkpt>
      <trkpt lat="45.94045" lon="6.52759">
        <ele>1963</ele>
        <time>2015-02-07T09:26:04.000Z</time>
      </trkpt>
      <trkpt lat="45.94047" lon="6.52762">
        <ele>1963.1999511719</ele>
        <time>2015-02-07T09:26:06.000Z</time>
      </trkpt>
      <trkpt lat="45.94049" lon="6.52763">
        <ele>1964.1999511719</ele>
        <time>2015-02-07T09:26:10.000Z</time>
      </trkpt>
      <trkpt lat="45.94052" lon="6.52766">
        <ele>1965.4000244141</ele>
        <time>2015-02-07T09:26:16.000Z</time>
      </trkpt>
      <trkpt lat="45.94054" lon="6.52767">
        <ele>1966</ele>
        <time>2015-02-07T09:26:21.000Z</time>
      </trkpt>
      <trkpt lat="45.94054" lon="6.52767">
        <ele>1966.5999755859</ele>
        <time>2015-02-07T09:26:24.000Z</time>
      </trkpt>
      <trkpt lat="45.94051" lon="6.52768">
        <ele>1967</ele>
        <time>2015-02-07T09:26:27.000Z</time>
      </trkpt>
      <trkpt lat="45.94048" lon="6.5277">
        <ele>1967.5999755859</ele>
        <time>2015-02-07T09:26:32.000Z</time>
      </trkpt>
      <trkpt lat="45.94043" lon="6.52771">
        <ele>1968.8000488281</ele>
        <time>2015-02-07T09:26:37.000Z</time>
      </trkpt>
      <trkpt lat="45.94043" lon="6.52771">
        <ele>1969</ele>
        <time>2015-02-07T09:26:38.000Z</time>
      </trkpt>
      <trkpt lat="45.94039" lon="6.52771">
        <ele>1970</ele>
        <time>2015-02-07T09:26:43.000Z</time>
      </trkpt>
      <trkpt lat="45.94038" lon="6.52771">
        <ele>1970.1999511719</ele>
        <time>2015-02-07T09:26:44.000Z</time>
      </trkpt>
      <trkpt lat="45.94034" lon="6.52772">
        <ele>1971</ele>
        <time>2015-02-07T09:26:49.000Z</time>
      </trkpt>
      <trkpt lat="45.94032" lon="6.52772">
        <ele>1971.1999511719</ele>
        <time>2015-02-07T09:26:50.000Z</time>
      </trkpt>
      <trkpt lat="45.94029" lon="6.52771">
        <ele>1972</ele>
        <time>2015-02-07T09:26:55.000Z</time>
      </trkpt>
      <trkpt lat="45.94027" lon="6.5277">
        <ele>1972.1999511719</ele>
        <time>2015-02-07T09:26:56.000Z</time>
      </trkpt>
      <trkpt lat="45.94022" lon="6.52768">
        <ele>1973.1999511719</ele>
        <time>2015-02-07T09:27:01.000Z</time>
      </trkpt>
      <trkpt lat="45.94021" lon="6.52768">
        <ele>1973.4000244141</ele>
        <time>2015-02-07T09:27:02.000Z</time>
      </trkpt>
      <trkpt lat="45.94018" lon="6.52767">
        <ele>1974.4000244141</ele>
        <time>2015-02-07T09:27:07.000Z</time>
      </trkpt>
      <trkpt lat="45.94018" lon="6.52767">
        <ele>1974.5999755859</ele>
        <time>2015-02-07T09:27:08.000Z</time>
      </trkpt>
      <trkpt lat="45.94014" lon="6.52767">
        <ele>1975.5999755859</ele>
        <time>2015-02-07T09:27:14.000Z</time>
      </trkpt>
      <trkpt lat="45.94014" lon="6.52767">
        <ele>1976.5999755859</ele>
        <time>2015-02-07T09:27:23.000Z</time>
      </trkpt>
      <trkpt lat="45.94014" lon="6.52767">
        <ele>1976.8000488281</ele>
        <time>2015-02-07T09:27:29.000Z</time>
      </trkpt>
      <trkpt lat="45.94016" lon="6.52772">
        <ele>1977.8000488281</ele>
        <time>2015-02-07T09:27:33.000Z</time>
      </trkpt>
      <trkpt lat="45.94016" lon="6.52774">
        <ele>1978</ele>
        <time>2015-02-07T09:27:35.000Z</time>
      </trkpt>
      <trkpt lat="45.94018" lon="6.52778">
        <ele>1978.8000488281</ele>
        <time>2015-02-07T09:27:41.000Z</time>
      </trkpt>
      <trkpt lat="45.94018" lon="6.52778">
        <ele>1978.8000488281</ele>
        <time>2015-02-07T09:27:42.000Z</time>
      </trkpt>
      <trkpt lat="45.94018" lon="6.52778">
        <ele>1979.8000488281</ele>
        <time>2015-02-07T09:27:47.000Z</time>
      </trkpt>
      <trkpt lat="45.9402" lon="6.52783">
        <ele>1979.8000488281</ele>
        <time>2015-02-07T09:27:51.000Z</time>
      </trkpt>
      <trkpt lat="45.94022" lon="6.52789">
        <ele>1980.1999511719</ele>
        <time>2015-02-07T09:27:57.000Z</time>
      </trkpt>
      <trkpt lat="45.94024" lon="6.52793">
        <ele>1981</ele>
        <time>2015-02-07T09:28:02.000Z</time>
      </trkpt>
      <trkpt lat="45.94025" lon="6.52795">
        <ele>1981.5999755859</ele>
        <time>2015-02-07T09:28:07.000Z</time>
      </trkpt>
      <trkpt lat="45.94025" lon="6.52796">
        <ele>1982.1999511719</ele>
        <time>2015-02-07T09:28:09.000Z</time>
      </trkpt>
      <trkpt lat="45.94026" lon="6.52798">
        <ele>1982.4000244141</ele>
        <time>2015-02-07T09:28:12.000Z</time>
      </trkpt>
      <trkpt lat="45.94027" lon="6.52801">
        <ele>1983.1999511719</ele>
        <time>2015-02-07T09:28:17.000Z</time>
      </trkpt>
      <trkpt lat="45.94028" lon="6.52802">
        <ele>1983.4000244141</ele>
        <time>2015-02-07T09:28:19.000Z</time>
      </trkpt>
      <trkpt lat="45.94031" lon="6.52808">
        <ele>1984.1999511719</ele>
        <time>2015-02-07T09:28:25.000Z</time>
      </trkpt>
      <trkpt lat="45.94031" lon="6.52809">
        <ele>1984.1999511719</ele>
        <time>2015-02-07T09:28:26.000Z</time>
      </trkpt>
      <trkpt lat="45.94034" lon="6.52813">
        <ele>1985.1999511719</ele>
        <time>2015-02-07T09:28:32.000Z</time>
      </trkpt>
      <trkpt lat="45.94034" lon="6.52813">
        <ele>1985.4000244141</ele>
        <time>2015-02-07T09:28:33.000Z</time>
      </trkpt>
      <trkpt lat="45.94036" lon="6.52814">
        <ele>1986.4000244141</ele>
        <time>2015-02-07T09:28:40.000Z</time>
      </trkpt>
      <trkpt lat="45.94038" lon="6.52815">
        <ele>1986.4000244141</ele>
        <time>2015-02-07T09:28:42.000Z</time>
      </trkpt>
      <trkpt lat="45.9404" lon="6.52818">
        <ele>1987</ele>
        <time>2015-02-07T09:28:46.000Z</time>
      </trkpt>
      <trkpt lat="45.94042" lon="6.52823">
        <ele>1987.4000244141</ele>
        <time>2015-02-07T09:28:51.000Z</time>
      </trkpt>
      <trkpt lat="45.94043" lon="6.52825">
        <ele>1987.5999755859</ele>
        <time>2015-02-07T09:28:52.000Z</time>
      </trkpt>
      <trkpt lat="45.94043" lon="6.52827">
        <ele>1988.8000488281</ele>
        <time>2015-02-07T09:28:56.000Z</time>
      </trkpt>
      <trkpt lat="45.94044" lon="6.52828">
        <ele>1989</ele>
        <time>2015-02-07T09:28:57.000Z</time>
      </trkpt>
      <trkpt lat="45.94044" lon="6.52829">
        <ele>1990</ele>
        <time>2015-02-07T09:29:01.000Z</time>
      </trkpt>
      <trkpt lat="45.94044" lon="6.52829">
        <ele>1990.1999511719</ele>
        <time>2015-02-07T09:29:07.000Z</time>
      </trkpt>
      <trkpt lat="45.94044" lon="6.52834">
        <ele>1990.5999755859</ele>
        <time>2015-02-07T09:29:13.000Z</time>
      </trkpt>
      <trkpt lat="45.94044" lon="6.52834">
        <ele>1991</ele>
        <time>2015-02-07T09:29:15.000Z</time>
      </trkpt>
      <trkpt lat="45.94043" lon="6.52841">
        <ele>1991.5999755859</ele>
        <time>2015-02-07T09:29:22.000Z</time>
      </trkpt>
      <trkpt lat="45.94042" lon="6.52844">
        <ele>1992</ele>
        <time>2015-02-07T09:29:25.000Z</time>
      </trkpt>
      <trkpt lat="45.94041" lon="6.52847">
        <ele>1992.8000488281</ele>
        <time>2015-02-07T09:29:28.000Z</time>
      </trkpt>
      <trkpt lat="45.94041" lon="6.52847">
        <ele>1993.1999511719</ele>
        <time>2015-02-07T09:29:30.000Z</time>
      </trkpt>
      <trkpt lat="45.9404" lon="6.52846">
        <ele>1994.1999511719</ele>
        <time>2015-02-07T09:29:33.000Z</time>
      </trkpt>
      <trkpt lat="45.94039" lon="6.52847">
        <ele>1994.4000244141</ele>
        <time>2015-02-07T09:29:34.000Z</time>
      </trkpt>
      <trkpt lat="45.94036" lon="6.52848">
        <ele>1995.1999511719</ele>
        <time>2015-02-07T09:29:39.000Z</time>
      </trkpt>
      <trkpt lat="45.94036" lon="6.52849">
        <ele>1995.4000244141</ele>
        <time>2015-02-07T09:29:40.000Z</time>
      </trkpt>
      <trkpt lat="45.94033" lon="6.52849">
        <ele>1996</ele>
        <time>2015-02-07T09:29:46.000Z</time>
      </trkpt>
      <trkpt lat="45.94032" lon="6.52849">
        <ele>1996.1999511719</ele>
        <time>2015-02-07T09:29:47.000Z</time>
      </trkpt>
      <trkpt lat="45.94028" lon="6.52849">
        <ele>1997.1999511719</ele>
        <time>2015-02-07T09:29:53.000Z</time>
      </trkpt>
      <trkpt lat="45.94027" lon="6.52849">
        <ele>1997.4000244141</ele>
        <time>2015-02-07T09:29:54.000Z</time>
      </trkpt>
      <trkpt lat="45.94024" lon="6.52848">
        <ele>1998.4000244141</ele>
        <time>2015-02-07T09:29:59.000Z</time>
      </trkpt>
      <trkpt lat="45.94023" lon="6.52847">
        <ele>1998.5999755859</ele>
        <time>2015-02-07T09:30:01.000Z</time>
      </trkpt>
      <trkpt lat="45.94023" lon="6.52847">
        <ele>1999.4000244141</ele>
        <time>2015-02-07T09:30:07.000Z</time>
      </trkpt>
      <trkpt lat="45.94023" lon="6.52847">
        <ele>2000</ele>
        <time>2015-02-07T09:30:08.000Z</time>
      </trkpt>
      <trkpt lat="45.94018" lon="6.52845">
        <ele>2000.5999755859</ele>
        <time>2015-02-07T09:30:13.000Z</time>
      </trkpt>
      <trkpt lat="45.94016" lon="6.52845">
        <ele>2001</ele>
        <time>2015-02-07T09:30:16.000Z</time>
      </trkpt>
      <trkpt lat="45.94014" lon="6.52845">
        <ele>2002.1999511719</ele>
        <time>2015-02-07T09:30:21.000Z</time>
      </trkpt>
      <trkpt lat="45.9401" lon="6.52846">
        <ele>2002.8000488281</ele>
        <time>2015-02-07T09:30:27.000Z</time>
      </trkpt>
      <trkpt lat="45.94009" lon="6.52846">
        <ele>2002.8000488281</ele>
        <time>2015-02-07T09:30:28.000Z</time>
      </trkpt>
      <trkpt lat="45.94007" lon="6.52846">
        <ele>2003.1999511719</ele>
        <time>2015-02-07T09:30:31.000Z</time>
      </trkpt>
      <trkpt lat="45.94006" lon="6.52847">
        <ele>2003.5999755859</ele>
        <time>2015-02-07T09:30:35.000Z</time>
      </trkpt>
      <trkpt lat="45.94003" lon="6.52847">
        <ele>2004.4000244141</ele>
        <time>2015-02-07T09:30:39.000Z</time>
      </trkpt>
      <trkpt lat="45.94003" lon="6.52847">
        <ele>2005.1999511719</ele>
        <time>2015-02-07T09:30:42.000Z</time>
      </trkpt>
      <trkpt lat="45.94003" lon="6.52847">
        <ele>2005.4000244141</ele>
        <time>2015-02-07T09:30:44.000Z</time>
      </trkpt>
      <trkpt lat="45.94003" lon="6.52847">
        <ele>2005.8000488281</ele>
        <time>2015-02-07T09:30:49.000Z</time>
      </trkpt>
      <trkpt lat="45.94002" lon="6.52847">
        <ele>2006.5999755859</ele>
        <time>2015-02-07T09:30:53.000Z</time>
      </trkpt>
      <trkpt lat="45.94" lon="6.52847">
        <ele>2007.4000244141</ele>
        <time>2015-02-07T09:30:56.000Z</time>
      </trkpt>
      <trkpt lat="45.93999" lon="6.52846">
        <ele>2007.8000488281</ele>
        <time>2015-02-07T09:30:59.000Z</time>
      </trkpt>
      <trkpt lat="45.93999" lon="6.52846">
        <ele>2008</ele>
        <time>2015-02-07T09:31:03.000Z</time>
      </trkpt>
      <trkpt lat="45.93995" lon="6.52846">
        <ele>2008.5999755859</ele>
        <time>2015-02-07T09:31:10.000Z</time>
      </trkpt>
      <trkpt lat="45.93993" lon="6.52846">
        <ele>2008.8000488281</ele>
        <time>2015-02-07T09:31:11.000Z</time>
      </trkpt>
      <trkpt lat="45.93989" lon="6.52846">
        <ele>2009.1999511719</ele>
        <time>2015-02-07T09:31:16.000Z</time>
      </trkpt>
      <trkpt lat="45.93987" lon="6.52845">
        <ele>2009.8000488281</ele>
        <time>2015-02-07T09:31:19.000Z</time>
      </trkpt>
      <trkpt lat="45.93987" lon="6.52845">
        <ele>2010.5999755859</ele>
        <time>2015-02-07T09:31:22.000Z</time>
      </trkpt>
      <trkpt lat="45.93987" lon="6.52845">
        <ele>2011</ele>
        <time>2015-02-07T09:31:23.000Z</time>
      </trkpt>
      <trkpt lat="45.93987" lon="6.52845">
        <ele>2011.4000244141</ele>
        <time>2015-02-07T09:31:29.000Z</time>
      </trkpt>
      <trkpt lat="45.93982" lon="6.52843">
        <ele>2012</ele>
        <time>2015-02-07T09:31:33.000Z</time>
      </trkpt>
      <trkpt lat="45.93981" lon="6.52842">
        <ele>2012.4000244141</ele>
        <time>2015-02-07T09:31:35.000Z</time>
      </trkpt>
      <trkpt lat="45.93979" lon="6.52841">
        <ele>2013</ele>
        <time>2015-02-07T09:31:39.000Z</time>
      </trkpt>
      <trkpt lat="45.93979" lon="6.52841">
        <ele>2014</ele>
        <time>2015-02-07T09:31:44.000Z</time>
      </trkpt>
      <trkpt lat="45.93979" lon="6.52841">
        <ele>2014.1999511719</ele>
        <time>2015-02-07T09:31:46.000Z</time>
      </trkpt>
      <trkpt lat="45.93979" lon="6.52841">
        <ele>2015.1999511719</ele>
        <time>2015-02-07T09:31:53.000Z</time>
      </trkpt>
      <trkpt lat="45.93979" lon="6.52841">
        <ele>2015.4000244141</ele>
        <time>2015-02-07T09:31:54.000Z</time>
      </trkpt>
      <trkpt lat="45.93979" lon="6.52841">
        <ele>2016.1999511719</ele>
        <time>2015-02-07T09:32:00.000Z</time>
      </trkpt>
      <trkpt lat="45.93979" lon="6.52841">
        <ele>2016.4000244141</ele>
        <time>2015-02-07T09:32:02.000Z</time>
      </trkpt>
      <trkpt lat="45.93979" lon="6.52841">
        <ele>2017</ele>
        <time>2015-02-07T09:32:07.000Z</time>
      </trkpt>
      <trkpt lat="45.93979" lon="6.52841">
        <ele>2017.4000244141</ele>
        <time>2015-02-07T09:32:09.000Z</time>
      </trkpt>
      <trkpt lat="45.93979" lon="6.52841">
        <ele>2018</ele>
        <time>2015-02-07T09:32:15.000Z</time>
      </trkpt>
      <trkpt lat="45.93978" lon="6.52843">
        <ele>2018</ele>
        <time>2015-02-07T09:32:22.000Z</time>
      </trkpt>
      <trkpt lat="45.93977" lon="6.52843">
        <ele>2018.4000244141</ele>
        <time>2015-02-07T09:32:24.000Z</time>
      </trkpt>
      <trkpt lat="45.93975" lon="6.52846">
        <ele>2018.5999755859</ele>
        <time>2015-02-07T09:32:27.000Z</time>
      </trkpt>
      <trkpt lat="45.93971" lon="6.52852">
        <ele>2019.8000488281</ele>
        <time>2015-02-07T09:32:32.000Z</time>
      </trkpt>
      <trkpt lat="45.93971" lon="6.52854">
        <ele>2020.5999755859</ele>
        <time>2015-02-07T09:32:38.000Z</time>
      </trkpt>
      <trkpt lat="45.9397" lon="6.52856">
        <ele>2020.8000488281</ele>
        <time>2015-02-07T09:32:40.000Z</time>
      </trkpt>
      <trkpt lat="45.93968" lon="6.52861">
        <ele>2021.1999511719</ele>
        <time>2015-02-07T09:32:43.000Z</time>
      </trkpt>
      <trkpt lat="45.93966" lon="6.52867">
        <ele>2022</ele>
        <time>2015-02-07T09:32:48.000Z</time>
      </trkpt>
      <trkpt lat="45.93965" lon="6.52868">
        <ele>2022</ele>
        <time>2015-02-07T09:32:49.000Z</time>
      </trkpt>
      <trkpt lat="45.93961" lon="6.52876">
        <ele>2023</ele>
        <time>2015-02-07T09:32:55.000Z</time>
      </trkpt>
      <trkpt lat="45.93959" lon="6.5288">
        <ele>2024</ele>
        <time>2015-02-07T09:33:00.000Z</time>
      </trkpt>
      <trkpt lat="45.93959" lon="6.52881">
        <ele>2024.1999511719</ele>
        <time>2015-02-07T09:33:01.000Z</time>
      </trkpt>
      <trkpt lat="45.93958" lon="6.52887">
        <ele>2025.1999511719</ele>
        <time>2015-02-07T09:33:05.000Z</time>
      </trkpt>
      <trkpt lat="45.93957" lon="6.52889">
        <ele>2025.4000244141</ele>
        <time>2015-02-07T09:33:07.000Z</time>
      </trkpt>
      <trkpt lat="45.93956" lon="6.52894">
        <ele>2026.1999511719</ele>
        <time>2015-02-07T09:33:11.000Z</time>
      </trkpt>
      <trkpt lat="45.93957" lon="6.52898">
        <ele>2026.5999755859</ele>
        <time>2015-02-07T09:33:14.000Z</time>
      </trkpt>
      <trkpt lat="45.93957" lon="6.52898">
        <ele>2027.1999511719</ele>
        <time>2015-02-07T09:33:17.000Z</time>
      </trkpt>
      <trkpt lat="45.93958" lon="6.52901">
        <ele>2028.1999511719</ele>
        <time>2015-02-07T09:33:20.000Z</time>
      </trkpt>
      <trkpt lat="45.93958" lon="6.52902">
        <ele>2028.4000244141</ele>
        <time>2015-02-07T09:33:21.000Z</time>
      </trkpt>
      <trkpt lat="45.9396" lon="6.52907">
        <ele>2029.1999511719</ele>
        <time>2015-02-07T09:33:25.000Z</time>
      </trkpt>
      <trkpt lat="45.93961" lon="6.52908">
        <ele>2029.5999755859</ele>
        <time>2015-02-07T09:33:26.000Z</time>
      </trkpt>
      <trkpt lat="45.93962" lon="6.52913">
        <ele>2029.8000488281</ele>
        <time>2015-02-07T09:33:29.000Z</time>
      </trkpt>
      <trkpt lat="45.93962" lon="6.52916">
        <ele>2030.5999755859</ele>
        <time>2015-02-07T09:33:34.000Z</time>
      </trkpt>
      <trkpt lat="45.93962" lon="6.52916">
        <ele>2031.5999755859</ele>
        <time>2015-02-07T09:33:41.000Z</time>
      </trkpt>
      <trkpt lat="45.93962" lon="6.52916">
        <ele>2031.5999755859</ele>
        <time>2015-02-07T09:33:46.000Z</time>
      </trkpt>
      <trkpt lat="45.9396" lon="6.52918">
        <ele>2031.8000488281</ele>
        <time>2015-02-07T09:33:50.000Z</time>
      </trkpt>
      <trkpt lat="45.93956" lon="6.52921">
        <ele>2032.8000488281</ele>
        <time>2015-02-07T09:33:55.000Z</time>
      </trkpt>
      <trkpt lat="45.93956" lon="6.52921">
        <ele>2032.8000488281</ele>
        <time>2015-02-07T09:33:56.000Z</time>
      </trkpt>
      <trkpt lat="45.93953" lon="6.52921">
        <ele>2033.8000488281</ele>
        <time>2015-02-07T09:34:01.000Z</time>
      </trkpt>
      <trkpt lat="45.93952" lon="6.52921">
        <ele>2034</ele>
        <time>2015-02-07T09:34:02.000Z</time>
      </trkpt>
      <trkpt lat="45.93948" lon="6.52921">
        <ele>2035</ele>
        <time>2015-02-07T09:34:06.000Z</time>
      </trkpt>
      <trkpt lat="45.93947" lon="6.52921">
        <ele>2035.4000244141</ele>
        <time>2015-02-07T09:34:08.000Z</time>
      </trkpt>
      <trkpt lat="45.93943" lon="6.5292">
        <ele>2036</ele>
        <time>2015-02-07T09:34:12.000Z</time>
      </trkpt>
      <trkpt lat="45.9394" lon="6.5292">
        <ele>2036.5999755859</ele>
        <time>2015-02-07T09:34:15.000Z</time>
      </trkpt>
      <trkpt lat="45.93938" lon="6.5292">
        <ele>2037.1999511719</ele>
        <time>2015-02-07T09:34:19.000Z</time>
      </trkpt>
      <trkpt lat="45.93935" lon="6.52922">
        <ele>2037.8000488281</ele>
        <time>2015-02-07T09:34:22.000Z</time>
      </trkpt>
      <trkpt lat="45.93932" lon="6.52924">
        <ele>2038.1999511719</ele>
        <time>2015-02-07T09:34:27.000Z</time>
      </trkpt>
      <trkpt lat="45.93931" lon="6.52924">
        <ele>2038.4000244141</ele>
        <time>2015-02-07T09:34:28.000Z</time>
      </trkpt>
      <trkpt lat="45.9393" lon="6.52924">
        <ele>2039.4000244141</ele>
        <time>2015-02-07T09:34:34.000Z</time>
      </trkpt>
      <trkpt lat="45.9393" lon="6.52924">
        <ele>2039.5999755859</ele>
        <time>2015-02-07T09:34:35.000Z</time>
      </trkpt>
      <trkpt lat="45.9393" lon="6.52925">
        <ele>2040.4000244141</ele>
        <time>2015-02-07T09:34:40.000Z</time>
      </trkpt>
      <trkpt lat="45.93928" lon="6.52925">
        <ele>2040.5999755859</ele>
        <time>2015-02-07T09:34:41.000Z</time>
      </trkpt>
      <trkpt lat="45.93921" lon="6.52926">
        <ele>2041.1999511719</ele>
        <time>2015-02-07T09:34:47.000Z</time>
      </trkpt>
      <trkpt lat="45.93919" lon="6.52927">
        <ele>2041.5999755859</ele>
        <time>2015-02-07T09:34:49.000Z</time>
      </trkpt>
      <trkpt lat="45.93917" lon="6.52928">
        <ele>2042</ele>
        <time>2015-02-07T09:34:52.000Z</time>
      </trkpt>
      <trkpt lat="45.93914" lon="6.52929">
        <ele>2042.5999755859</ele>
        <time>2015-02-07T09:34:55.000Z</time>
      </trkpt>
      <trkpt lat="45.93914" lon="6.52929">
        <ele>2043.4000244141</ele>
        <time>2015-02-07T09:34:59.000Z</time>
      </trkpt>
      <trkpt lat="45.93914" lon="6.52929">
        <ele>2043.8000488281</ele>
        <time>2015-02-07T09:35:01.000Z</time>
      </trkpt>
      <trkpt lat="45.93911" lon="6.52929">
        <ele>2044.1999511719</ele>
        <time>2015-02-07T09:35:04.000Z</time>
      </trkpt>
      <trkpt lat="45.9391" lon="6.52931">
        <ele>2044.8000488281</ele>
        <time>2015-02-07T09:35:07.000Z</time>
      </trkpt>
      <trkpt lat="45.93908" lon="6.52932">
        <ele>2045</ele>
        <time>2015-02-07T09:35:09.000Z</time>
      </trkpt>
      <trkpt lat="45.93906" lon="6.52934">
        <ele>2045.5999755859</ele>
        <time>2015-02-07T09:35:13.000Z</time>
      </trkpt>
      <trkpt lat="45.93905" lon="6.52935">
        <ele>2045.8000488281</ele>
        <time>2015-02-07T09:35:14.000Z</time>
      </trkpt>
      <trkpt lat="45.939" lon="6.52938">
        <ele>2046.4000244141</ele>
        <time>2015-02-07T09:35:19.000Z</time>
      </trkpt>
      <trkpt lat="45.93898" lon="6.52939">
        <ele>2046.8000488281</ele>
        <time>2015-02-07T09:35:22.000Z</time>
      </trkpt>
      <trkpt lat="45.93894" lon="6.5294">
        <ele>2047.5999755859</ele>
        <time>2015-02-07T09:35:26.000Z</time>
      </trkpt>
      <trkpt lat="45.93889" lon="6.5294">
        <ele>2048</ele>
        <time>2015-02-07T09:35:31.000Z</time>
      </trkpt>
      <trkpt lat="45.93888" lon="6.5294">
        <ele>2048.1999511719</ele>
        <time>2015-02-07T09:35:32.000Z</time>
      </trkpt>
      <trkpt lat="45.93884" lon="6.52941">
        <ele>2049.1999511719</ele>
        <time>2015-02-07T09:35:38.000Z</time>
      </trkpt>
      <trkpt lat="45.93878" lon="6.52941">
        <ele>2050</ele>
        <time>2015-02-07T09:35:44.000Z</time>
      </trkpt>
      <trkpt lat="45.93877" lon="6.52941">
        <ele>2050.1999511719</ele>
        <time>2015-02-07T09:35:45.000Z</time>
      </trkpt>
      <trkpt lat="45.93874" lon="6.5294">
        <ele>2051.1999511719</ele>
        <time>2015-02-07T09:35:49.000Z</time>
      </trkpt>
      <trkpt lat="45.93872" lon="6.5294">
        <ele>2051.3999023438</ele>
        <time>2015-02-07T09:35:51.000Z</time>
      </trkpt>
      <trkpt lat="45.93867" lon="6.52939">
        <ele>2052.1999511719</ele>
        <time>2015-02-07T09:35:57.000Z</time>
      </trkpt>
      <trkpt lat="45.93867" lon="6.52939">
        <ele>2052.3999023438</ele>
        <time>2015-02-07T09:35:58.000Z</time>
      </trkpt>
      <trkpt lat="45.93864" lon="6.52938">
        <ele>2053</ele>
        <time>2015-02-07T09:36:02.000Z</time>
      </trkpt>
      <trkpt lat="45.93861" lon="6.52938">
        <ele>2053.3999023438</ele>
        <time>2015-02-07T09:36:05.000Z</time>
      </trkpt>
      <trkpt lat="45.93859" lon="6.52939">
        <ele>2053.8000488281</ele>
        <time>2015-02-07T09:36:09.000Z</time>
      </trkpt>
      <trkpt lat="45.93856" lon="6.52938">
        <ele>2054.6000976562</ele>
        <time>2015-02-07T09:36:13.000Z</time>
      </trkpt>
      <trkpt lat="45.93854" lon="6.52937">
        <ele>2055.1999511719</ele>
        <time>2015-02-07T09:36:17.000Z</time>
      </trkpt>
      <trkpt lat="45.93853" lon="6.52938">
        <ele>2055.6000976562</ele>
        <time>2015-02-07T09:36:19.000Z</time>
      </trkpt>
      <trkpt lat="45.93852" lon="6.52938">
        <ele>2056.6000976562</ele>
        <time>2015-02-07T09:36:25.000Z</time>
      </trkpt>
      <trkpt lat="45.93852" lon="6.52938">
        <ele>2056.8000488281</ele>
        <time>2015-02-07T09:36:26.000Z</time>
      </trkpt>
      <trkpt lat="45.93852" lon="6.52938">
        <ele>2057.8000488281</ele>
        <time>2015-02-07T09:36:33.000Z</time>
      </trkpt>
      <trkpt lat="45.93852" lon="6.52938">
        <ele>2058</ele>
        <time>2015-02-07T09:36:35.000Z</time>
      </trkpt>
      <trkpt lat="45.93852" lon="6.52938">
        <ele>2058.8000488281</ele>
        <time>2015-02-07T09:36:40.000Z</time>
      </trkpt>
      <trkpt lat="45.93852" lon="6.52938">
        <ele>2059.1999511719</ele>
        <time>2015-02-07T09:36:43.000Z</time>
      </trkpt>
      <trkpt lat="45.93852" lon="6.52938">
        <ele>2060</ele>
        <time>2015-02-07T09:36:46.000Z</time>
      </trkpt>
      <trkpt lat="45.93852" lon="6.52938">
        <ele>2060.6000976562</ele>
        <time>2015-02-07T09:36:52.000Z</time>
      </trkpt>
      <trkpt lat="45.93852" lon="6.52938">
        <ele>2061.1999511719</ele>
        <time>2015-02-07T09:36:55.000Z</time>
      </trkpt>
      <trkpt lat="45.93852" lon="6.52938">
        <ele>2061.6000976562</ele>
        <time>2015-02-07T09:37:00.000Z</time>
      </trkpt>
      <trkpt lat="45.93847" lon="6.52943">
        <ele>2062</ele>
        <time>2015-02-07T09:37:07.000Z</time>
      </trkpt>
      <trkpt lat="45.93844" lon="6.52946">
        <ele>2062.1999511719</ele>
        <time>2015-02-07T09:37:10.000Z</time>
      </trkpt>
      <trkpt lat="45.93843" lon="6.52952">
        <ele>2062.6000976562</ele>
        <time>2015-02-07T09:37:13.000Z</time>
      </trkpt>
      <trkpt lat="45.93842" lon="6.52956">
        <ele>2063.1999511719</ele>
        <time>2015-02-07T09:37:16.000Z</time>
      </trkpt>
      <trkpt lat="45.93842" lon="6.5296">
        <ele>2063.6000976562</ele>
        <time>2015-02-07T09:37:18.000Z</time>
      </trkpt>
      <trkpt lat="45.93842" lon="6.52964">
        <ele>2064.3999023438</ele>
        <time>2015-02-07T09:37:22.000Z</time>
      </trkpt>
      <trkpt lat="45.93842" lon="6.52966">
        <ele>2064.6000976562</ele>
        <time>2015-02-07T09:37:24.000Z</time>
      </trkpt>
      <trkpt lat="45.93844" lon="6.5297">
        <ele>2065.3999023438</ele>
        <time>2015-02-07T09:37:29.000Z</time>
      </trkpt>
      <trkpt lat="45.93846" lon="6.52973">
        <ele>2066</ele>
        <time>2015-02-07T09:37:33.000Z</time>
      </trkpt>
      <trkpt lat="45.93847" lon="6.52976">
        <ele>2066.3999023438</ele>
        <time>2015-02-07T09:37:36.000Z</time>
      </trkpt>
      <trkpt lat="45.93847" lon="6.52978">
        <ele>2066.8000488281</ele>
        <time>2015-02-07T09:37:38.000Z</time>
      </trkpt>
      <trkpt lat="45.93848" lon="6.5298">
        <ele>2067.6000976562</ele>
        <time>2015-02-07T09:37:42.000Z</time>
      </trkpt>
      <trkpt lat="45.93849" lon="6.52981">
        <ele>2067.8000488281</ele>
        <time>2015-02-07T09:37:43.000Z</time>
      </trkpt>
      <trkpt lat="45.93852" lon="6.52984">
        <ele>2068.6000976562</ele>
        <time>2015-02-07T09:37:47.000Z</time>
      </trkpt>
      <trkpt lat="45.93854" lon="6.52987">
        <ele>2069.6000976562</ele>
        <time>2015-02-07T09:37:52.000Z</time>
      </trkpt>
      <trkpt lat="45.93855" lon="6.52987">
        <ele>2069.6000976562</ele>
        <time>2015-02-07T09:37:53.000Z</time>
      </trkpt>
      <trkpt lat="45.93855" lon="6.52991">
        <ele>2070</ele>
        <time>2015-02-07T09:37:57.000Z</time>
      </trkpt>
      <trkpt lat="45.93857" lon="6.52996">
        <ele>2070.8000488281</ele>
        <time>2015-02-07T09:38:02.000Z</time>
      </trkpt>
      <trkpt lat="45.93858" lon="6.52997">
        <ele>2071</ele>
        <time>2015-02-07T09:38:04.000Z</time>
      </trkpt>
      <trkpt lat="45.9386" lon="6.53">
        <ele>2071.8000488281</ele>
        <time>2015-02-07T09:38:07.000Z</time>
      </trkpt>
      <trkpt lat="45.93861" lon="6.53002">
        <ele>2072.1999511719</ele>
        <time>2015-02-07T09:38:09.000Z</time>
      </trkpt>
      <trkpt lat="45.93862" lon="6.53006">
        <ele>2072.8000488281</ele>
        <time>2015-02-07T09:38:14.000Z</time>
      </trkpt>
      <trkpt lat="45.93863" lon="6.53006">
        <ele>2073</ele>
        <time>2015-02-07T09:38:15.000Z</time>
      </trkpt>
      <trkpt lat="45.93863" lon="6.53011">
        <ele>2073.6000976562</ele>
        <time>2015-02-07T09:38:20.000Z</time>
      </trkpt>
      <trkpt lat="45.93863" lon="6.53011">
        <ele>2074</ele>
        <time>2015-02-07T09:38:21.000Z</time>
      </trkpt>
      <trkpt lat="45.93865" lon="6.53015">
        <ele>2074.6000976562</ele>
        <time>2015-02-07T09:38:26.000Z</time>
      </trkpt>
      <trkpt lat="45.93867" lon="6.53018">
        <ele>2075</ele>
        <time>2015-02-07T09:38:30.000Z</time>
      </trkpt>
      <trkpt lat="45.93867" lon="6.53018">
        <ele>2075.1999511719</ele>
        <time>2015-02-07T09:38:31.000Z</time>
      </trkpt>
      <trkpt lat="45.93869" lon="6.53022">
        <ele>2076</ele>
        <time>2015-02-07T09:38:36.000Z</time>
      </trkpt>
      <trkpt lat="45.93869" lon="6.53022">
        <ele>2076.1999511719</ele>
        <time>2015-02-07T09:38:37.000Z</time>
      </trkpt>
      <trkpt lat="45.93871" lon="6.53025">
        <ele>2077.1999511719</ele>
        <time>2015-02-07T09:38:43.000Z</time>
      </trkpt>
      <trkpt lat="45.93874" lon="6.5303">
        <ele>2078</ele>
        <time>2015-02-07T09:38:49.000Z</time>
      </trkpt>
      <trkpt lat="45.93874" lon="6.53031">
        <ele>2078.1999511719</ele>
        <time>2015-02-07T09:38:50.000Z</time>
      </trkpt>
      <trkpt lat="45.93875" lon="6.53035">
        <ele>2078.8000488281</ele>
        <time>2015-02-07T09:38:55.000Z</time>
      </trkpt>
      <trkpt lat="45.93876" lon="6.53037">
        <ele>2079.3999023438</ele>
        <time>2015-02-07T09:38:57.000Z</time>
      </trkpt>
      <trkpt lat="45.93876" lon="6.5304">
        <ele>2080</ele>
        <time>2015-02-07T09:39:00.000Z</time>
      </trkpt>
      <trkpt lat="45.93878" lon="6.53043">
        <ele>2080.6000976562</ele>
        <time>2015-02-07T09:39:05.000Z</time>
      </trkpt>
      <trkpt lat="45.93879" lon="6.53046">
        <ele>2081</ele>
        <time>2015-02-07T09:39:10.000Z</time>
      </trkpt>
      <trkpt lat="45.9388" lon="6.53052">
        <ele>2081.6000976562</ele>
        <time>2015-02-07T09:39:15.000Z</time>
      </trkpt>
      <trkpt lat="45.93882" lon="6.53055">
        <ele>2082.6000976562</ele>
        <time>2015-02-07T09:39:20.000Z</time>
      </trkpt>
      <trkpt lat="45.93882" lon="6.53055">
        <ele>2082.8000488281</ele>
        <time>2015-02-07T09:39:21.000Z</time>
      </trkpt>
      <trkpt lat="45.93884" lon="6.53062">
        <ele>2083.8000488281</ele>
        <time>2015-02-07T09:39:27.000Z</time>
      </trkpt>
      <trkpt lat="45.93886" lon="6.53066">
        <ele>2084.3999023438</ele>
        <time>2015-02-07T09:39:33.000Z</time>
      </trkpt>
      <trkpt lat="45.93886" lon="6.53069">
        <ele>2085</ele>
        <time>2015-02-07T09:39:36.000Z</time>
      </trkpt>
      <trkpt lat="45.93887" lon="6.53071">
        <ele>2085.3999023438</ele>
        <time>2015-02-07T09:39:38.000Z</time>
      </trkpt>
      <trkpt lat="45.93888" lon="6.53077">
        <ele>2085.8000488281</ele>
        <time>2015-02-07T09:39:43.000Z</time>
      </trkpt>
      <trkpt lat="45.93889" lon="6.53078">
        <ele>2086</ele>
        <time>2015-02-07T09:39:44.000Z</time>
      </trkpt>
      <trkpt lat="45.93889" lon="6.5308">
        <ele>2086.6000976562</ele>
        <time>2015-02-07T09:39:48.000Z</time>
      </trkpt>
      <trkpt lat="45.93888" lon="6.53082">
        <ele>2087</ele>
        <time>2015-02-07T09:39:52.000Z</time>
      </trkpt>
      <trkpt lat="45.93887" lon="6.53084">
        <ele>2087.6000976562</ele>
        <time>2015-02-07T09:39:54.000Z</time>
      </trkpt>
      <trkpt lat="45.93887" lon="6.53084">
        <ele>2088.1999511719</ele>
        <time>2015-02-07T09:39:56.000Z</time>
      </trkpt>
      <trkpt lat="45.93884" lon="6.53083">
        <ele>2088.8000488281</ele>
        <time>2015-02-07T09:40:01.000Z</time>
      </trkpt>
      <trkpt lat="45.93883" lon="6.53083">
        <ele>2089.1999511719</ele>
        <time>2015-02-07T09:40:03.000Z</time>
      </trkpt>
      <trkpt lat="45.93881" lon="6.53083">
        <ele>2089.8000488281</ele>
        <time>2015-02-07T09:40:07.000Z</time>
      </trkpt>
      <trkpt lat="45.93879" lon="6.53082">
        <ele>2090.3999023438</ele>
        <time>2015-02-07T09:40:09.000Z</time>
      </trkpt>
      <trkpt lat="45.93877" lon="6.53081">
        <ele>2090.6000976562</ele>
        <time>2015-02-07T09:40:12.000Z</time>
      </trkpt>
      <trkpt lat="45.93874" lon="6.53082">
        <ele>2091.3999023438</ele>
        <time>2015-02-07T09:40:17.000Z</time>
      </trkpt>
      <trkpt lat="45.93874" lon="6.53082">
        <ele>2091.6000976562</ele>
        <time>2015-02-07T09:40:18.000Z</time>
      </trkpt>
      <trkpt lat="45.9387" lon="6.53082">
        <ele>2092.6000976562</ele>
        <time>2015-02-07T09:40:25.000Z</time>
      </trkpt>
      <trkpt lat="45.9387" lon="6.53082">
        <ele>2093.1999511719</ele>
        <time>2015-02-07T09:40:30.000Z</time>
      </trkpt>
      <trkpt lat="45.9387" lon="6.53082">
        <ele>2093.8000488281</ele>
        <time>2015-02-07T09:40:33.000Z</time>
      </trkpt>
      <trkpt lat="45.93868" lon="6.53081">
        <ele>2094</ele>
        <time>2015-02-07T09:40:35.000Z</time>
      </trkpt>
      <trkpt lat="45.93865" lon="6.53079">
        <ele>2094.8000488281</ele>
        <time>2015-02-07T09:40:40.000Z</time>
      </trkpt>
      <trkpt lat="45.93865" lon="6.53079">
        <ele>2094.8000488281</ele>
        <time>2015-02-07T09:40:41.000Z</time>
      </trkpt>
      <trkpt lat="45.93864" lon="6.53079">
        <ele>2095.8000488281</ele>
        <time>2015-02-07T09:40:48.000Z</time>
      </trkpt>
      <trkpt lat="45.93863" lon="6.53079">
        <ele>2096</ele>
        <time>2015-02-07T09:40:50.000Z</time>
      </trkpt>
      <trkpt lat="45.93859" lon="6.53078">
        <ele>2096.3999023438</ele>
        <time>2015-02-07T09:40:53.000Z</time>
      </trkpt>
      <trkpt lat="45.93854" lon="6.53076">
        <ele>2097.1999511719</ele>
        <time>2015-02-07T09:40:59.000Z</time>
      </trkpt>
      <trkpt lat="45.93851" lon="6.53076">
        <ele>2098</ele>
        <time>2015-02-07T09:41:05.000Z</time>
      </trkpt>
      <trkpt lat="45.93851" lon="6.53076">
        <ele>2098.1999511719</ele>
        <time>2015-02-07T09:41:09.000Z</time>
      </trkpt>
      <trkpt lat="45.93849" lon="6.53075">
        <ele>2098</ele>
        <time>2015-02-07T09:41:10.000Z</time>
      </trkpt>
      <trkpt lat="45.93842" lon="6.53071">
        <ele>2099</ele>
        <time>2015-02-07T09:41:15.000Z</time>
      </trkpt>
      <trkpt lat="45.93841" lon="6.5307">
        <ele>2099.1999511719</ele>
        <time>2015-02-07T09:41:16.000Z</time>
      </trkpt>
      <trkpt lat="45.93837" lon="6.53068">
        <ele>2100.3999023438</ele>
        <time>2015-02-07T09:41:21.000Z</time>
      </trkpt>
      <trkpt lat="45.93836" lon="6.53067">
        <ele>2100.6000976562</ele>
        <time>2015-02-07T09:41:23.000Z</time>
      </trkpt>
      <trkpt lat="45.93834" lon="6.53066">
        <ele>2101.3999023438</ele>
        <time>2015-02-07T09:41:28.000Z</time>
      </trkpt>
      <trkpt lat="45.93834" lon="6.53066">
        <ele>2101.6000976562</ele>
        <time>2015-02-07T09:41:30.000Z</time>
      </trkpt>
      <trkpt lat="45.93833" lon="6.53065">
        <ele>2102.3999023438</ele>
        <time>2015-02-07T09:41:38.000Z</time>
      </trkpt>
      <trkpt lat="45.93832" lon="6.53064">
        <ele>2103</ele>
        <time>2015-02-07T09:41:43.000Z</time>
      </trkpt>
      <trkpt lat="45.93831" lon="6.53062">
        <ele>2103.6000976562</ele>
        <time>2015-02-07T09:41:45.000Z</time>
      </trkpt>
      <trkpt lat="45.93826" lon="6.53059">
        <ele>2104.6000976562</ele>
        <time>2015-02-07T09:41:50.000Z</time>
      </trkpt>
      <trkpt lat="45.93825" lon="6.53059">
        <ele>2104.6000976562</ele>
        <time>2015-02-07T09:41:51.000Z</time>
      </trkpt>
      <trkpt lat="45.9382" lon="6.53058">
        <ele>2105.1999511719</ele>
        <time>2015-02-07T09:41:56.000Z</time>
      </trkpt>
      <trkpt lat="45.93818" lon="6.53058">
        <ele>2105.8000488281</ele>
        <time>2015-02-07T09:41:59.000Z</time>
      </trkpt>
      <trkpt lat="45.93815" lon="6.53059">
        <ele>2106.3999023438</ele>
        <time>2015-02-07T09:42:02.000Z</time>
      </trkpt>
      <trkpt lat="45.93814" lon="6.53058">
        <ele>2107</ele>
        <time>2015-02-07T09:42:05.000Z</time>
      </trkpt>
      <trkpt lat="45.93813" lon="6.53061">
        <ele>2107.1999511719</ele>
        <time>2015-02-07T09:42:08.000Z</time>
      </trkpt>
      <trkpt lat="45.93812" lon="6.53062">
        <ele>2108</ele>
        <time>2015-02-07T09:42:10.000Z</time>
      </trkpt>
      <trkpt lat="45.93812" lon="6.53065">
        <ele>2108.3999023438</ele>
        <time>2015-02-07T09:42:13.000Z</time>
      </trkpt>
      <trkpt lat="45.93813" lon="6.53067">
        <ele>2109</ele>
        <time>2015-02-07T09:42:15.000Z</time>
      </trkpt>
      <trkpt lat="45.93813" lon="6.5307">
        <ele>2109.8000488281</ele>
        <time>2015-02-07T09:42:18.000Z</time>
      </trkpt>
      <trkpt lat="45.93813" lon="6.53071">
        <ele>2110</ele>
        <time>2015-02-07T09:42:19.000Z</time>
      </trkpt>
      <trkpt lat="45.93813" lon="6.53074">
        <ele>2111</ele>
        <time>2015-02-07T09:42:24.000Z</time>
      </trkpt>
      <trkpt lat="45.93813" lon="6.53075">
        <ele>2111.1999511719</ele>
        <time>2015-02-07T09:42:25.000Z</time>
      </trkpt>
      <trkpt lat="45.93813" lon="6.53082">
        <ele>2112.1999511719</ele>
        <time>2015-02-07T09:42:31.000Z</time>
      </trkpt>
      <trkpt lat="45.93812" lon="6.53085">
        <ele>2112.3999023438</ele>
        <time>2015-02-07T09:42:33.000Z</time>
      </trkpt>
      <trkpt lat="45.93813" lon="6.53087">
        <ele>2113.3999023438</ele>
        <time>2015-02-07T09:42:37.000Z</time>
      </trkpt>
      <trkpt lat="45.93813" lon="6.53087">
        <ele>2113.6000976562</ele>
        <time>2015-02-07T09:42:38.000Z</time>
      </trkpt>
      <trkpt lat="45.93814" lon="6.53089">
        <ele>2114.3999023438</ele>
        <time>2015-02-07T09:42:44.000Z</time>
      </trkpt>
      <trkpt lat="45.93815" lon="6.53092">
        <ele>2114.6000976562</ele>
        <time>2015-02-07T09:42:46.000Z</time>
      </trkpt>
      <trkpt lat="45.93816" lon="6.53094">
        <ele>2115.6000976562</ele>
        <time>2015-02-07T09:42:51.000Z</time>
      </trkpt>
      <trkpt lat="45.93816" lon="6.53094">
        <ele>2115.6000976562</ele>
        <time>2015-02-07T09:42:52.000Z</time>
      </trkpt>
      <trkpt lat="45.93816" lon="6.53098">
        <ele>2115.8000488281</ele>
        <time>2015-02-07T09:42:55.000Z</time>
      </trkpt>
      <trkpt lat="45.93819" lon="6.53102">
        <ele>2116.6000976562</ele>
        <time>2015-02-07T09:42:59.000Z</time>
      </trkpt>
      <trkpt lat="45.93819" lon="6.53103">
        <ele>2116.8000488281</ele>
        <time>2015-02-07T09:43:01.000Z</time>
      </trkpt>
      <trkpt lat="45.93822" lon="6.53107">
        <ele>2117.8000488281</ele>
        <time>2015-02-07T09:43:06.000Z</time>
      </trkpt>
      <trkpt lat="45.93823" lon="6.5311">
        <ele>2118</ele>
        <time>2015-02-07T09:43:08.000Z</time>
      </trkpt>
      <trkpt lat="45.93826" lon="6.53112">
        <ele>2118.8000488281</ele>
        <time>2015-02-07T09:43:13.000Z</time>
      </trkpt>
      <trkpt lat="45.93828" lon="6.53117">
        <ele>2119.8000488281</ele>
        <time>2015-02-07T09:43:19.000Z</time>
      </trkpt>
      <trkpt lat="45.93828" lon="6.53118">
        <ele>2120</ele>
        <time>2015-02-07T09:43:20.000Z</time>
      </trkpt>
      <trkpt lat="45.93831" lon="6.53122">
        <ele>2120.6000976562</ele>
        <time>2015-02-07T09:43:25.000Z</time>
      </trkpt>
      <trkpt lat="45.93832" lon="6.53123">
        <ele>2121.1999511719</ele>
        <time>2015-02-07T09:43:27.000Z</time>
      </trkpt>
      <trkpt lat="45.93833" lon="6.53126">
        <ele>2121.8000488281</ele>
        <time>2015-02-07T09:43:31.000Z</time>
      </trkpt>
      <trkpt lat="45.93834" lon="6.53128">
        <ele>2122.1999511719</ele>
        <time>2015-02-07T09:43:36.000Z</time>
      </trkpt>
      <trkpt lat="45.93835" lon="6.5313">
        <ele>2122.6000976562</ele>
        <time>2015-02-07T09:43:38.000Z</time>
      </trkpt>
      <trkpt lat="45.93836" lon="6.53132">
        <ele>2123.1999511719</ele>
        <time>2015-02-07T09:43:41.000Z</time>
      </trkpt>
      <trkpt lat="45.93838" lon="6.53134">
        <ele>2123.8000488281</ele>
        <time>2015-02-07T09:43:46.000Z</time>
      </trkpt>
      <trkpt lat="45.93838" lon="6.53135">
        <ele>2124.1999511719</ele>
        <time>2015-02-07T09:43:49.000Z</time>
      </trkpt>
      <trkpt lat="45.93838" lon="6.53136">
        <ele>2124.3999023438</ele>
        <time>2015-02-07T09:43:51.000Z</time>
      </trkpt>
      <trkpt lat="45.93837" lon="6.53135">
        <ele>2125.3999023438</ele>
        <time>2015-02-07T09:43:57.000Z</time>
      </trkpt>
      <trkpt lat="45.93834" lon="6.53135">
        <ele>2126</ele>
        <time>2015-02-07T09:44:00.000Z</time>
      </trkpt>
      <trkpt lat="45.93829" lon="6.53134">
        <ele>2126.3999023438</ele>
        <time>2015-02-07T09:44:06.000Z</time>
      </trkpt>
      <trkpt lat="45.93827" lon="6.53133">
        <ele>2126.8000488281</ele>
        <time>2015-02-07T09:44:08.000Z</time>
      </trkpt>
      <trkpt lat="45.93824" lon="6.53132">
        <ele>2127.6000976562</ele>
        <time>2015-02-07T09:44:13.000Z</time>
      </trkpt>
      <trkpt lat="45.93823" lon="6.53132">
        <ele>2127.8000488281</ele>
        <time>2015-02-07T09:44:15.000Z</time>
      </trkpt>
      <trkpt lat="45.93821" lon="6.53132">
        <ele>2128.6000976562</ele>
        <time>2015-02-07T09:44:20.000Z</time>
      </trkpt>
      <trkpt lat="45.9382" lon="6.53132">
        <ele>2128.8000488281</ele>
        <time>2015-02-07T09:44:21.000Z</time>
      </trkpt>
      <trkpt lat="45.93817" lon="6.53131">
        <ele>2129.6000976562</ele>
        <time>2015-02-07T09:44:28.000Z</time>
      </trkpt>
      <trkpt lat="45.93813" lon="6.53128">
        <ele>2130.8000488281</ele>
        <time>2015-02-07T09:44:35.000Z</time>
      </trkpt>
      <trkpt lat="45.93813" lon="6.53128">
        <ele>2131</ele>
        <time>2015-02-07T09:44:37.000Z</time>
      </trkpt>
      <trkpt lat="45.93812" lon="6.53128">
        <ele>2131.8000488281</ele>
        <time>2015-02-07T09:44:46.000Z</time>
      </trkpt>
      <trkpt lat="45.93812" lon="6.53128">
        <ele>2132</ele>
        <time>2015-02-07T09:45:07.000Z</time>
      </trkpt>
      <trkpt lat="45.93812" lon="6.53128">
        <ele>2132</ele>
        <time>2015-02-07T09:45:26.000Z</time>
      </trkpt>
      <trkpt lat="45.93812" lon="6.53128">
        <ele>2132.1999511719</ele>
        <time>2015-02-07T09:45:40.000Z</time>
      </trkpt>
      <trkpt lat="45.93812" lon="6.53128">
        <ele>2132</ele>
        <time>2015-02-07T09:45:50.000Z</time>
      </trkpt>
      <trkpt lat="45.93813" lon="6.53132">
        <ele>2133</ele>
        <time>2015-02-07T09:45:56.000Z</time>
      </trkpt>
      <trkpt lat="45.93814" lon="6.53142">
        <ele>2133.6000976562</ele>
        <time>2015-02-07T09:46:01.000Z</time>
      </trkpt>
      <trkpt lat="45.93817" lon="6.53146">
        <ele>2134.1999511719</ele>
        <time>2015-02-07T09:46:05.000Z</time>
      </trkpt>
      <trkpt lat="45.93818" lon="6.53148">
        <ele>2134.8000488281</ele>
        <time>2015-02-07T09:46:07.000Z</time>
      </trkpt>
      <trkpt lat="45.93819" lon="6.5315">
        <ele>2135.1999511719</ele>
        <time>2015-02-07T09:46:09.000Z</time>
      </trkpt>
      <trkpt lat="45.93822" lon="6.53154">
        <ele>2136.1999511719</ele>
        <time>2015-02-07T09:46:13.000Z</time>
      </trkpt>
      <trkpt lat="45.93824" lon="6.53159">
        <ele>2137.3999023438</ele>
        <time>2015-02-07T09:46:19.000Z</time>
      </trkpt>
      <trkpt lat="45.93827" lon="6.53163">
        <ele>2138.3999023438</ele>
        <time>2015-02-07T09:46:24.000Z</time>
      </trkpt>
      <trkpt lat="45.93828" lon="6.53164">
        <ele>2138.3999023438</ele>
        <time>2015-02-07T09:46:25.000Z</time>
      </trkpt>
      <trkpt lat="45.93829" lon="6.53167">
        <ele>2139.1999511719</ele>
        <time>2015-02-07T09:46:31.000Z</time>
      </trkpt>
      <trkpt lat="45.93829" lon="6.53167">
        <ele>2139.3999023438</ele>
        <time>2015-02-07T09:46:33.000Z</time>
      </trkpt>
      <trkpt lat="45.93829" lon="6.53166">
        <ele>2140.6000976562</ele>
        <time>2015-02-07T09:46:37.000Z</time>
      </trkpt>
      <trkpt lat="45.93828" lon="6.53166">
        <ele>2140.6000976562</ele>
        <time>2015-02-07T09:46:38.000Z</time>
      </trkpt>
      <trkpt lat="45.93825" lon="6.53166">
        <ele>2141.1999511719</ele>
        <time>2015-02-07T09:46:44.000Z</time>
      </trkpt>
      <trkpt lat="45.93822" lon="6.53165">
        <ele>2141.6000976562</ele>
        <time>2015-02-07T09:46:48.000Z</time>
      </trkpt>
      <trkpt lat="45.93821" lon="6.53165">
        <ele>2141.8000488281</ele>
        <time>2015-02-07T09:46:49.000Z</time>
      </trkpt>
      <trkpt lat="45.93816" lon="6.53165">
        <ele>2142.8000488281</ele>
        <time>2015-02-07T09:46:54.000Z</time>
      </trkpt>
      <trkpt lat="45.93811" lon="6.53166">
        <ele>2143.8000488281</ele>
        <time>2015-02-07T09:47:00.000Z</time>
      </trkpt>
      <trkpt lat="45.9381" lon="6.53167">
        <ele>2143.8000488281</ele>
        <time>2015-02-07T09:47:01.000Z</time>
      </trkpt>
      <trkpt lat="45.93805" lon="6.53166">
        <ele>2144.6000976562</ele>
        <time>2015-02-07T09:47:07.000Z</time>
      </trkpt>
      <trkpt lat="45.93804" lon="6.53166">
        <ele>2144.8000488281</ele>
        <time>2015-02-07T09:47:08.000Z</time>
      </trkpt>
      <trkpt lat="45.938" lon="6.53164">
        <ele>2146</ele>
        <time>2015-02-07T09:47:13.000Z</time>
      </trkpt>
      <trkpt lat="45.93799" lon="6.53164">
        <ele>2146</ele>
        <time>2015-02-07T09:47:14.000Z</time>
      </trkpt>
      <trkpt lat="45.93793" lon="6.53163">
        <ele>2147</ele>
        <time>2015-02-07T09:47:20.000Z</time>
      </trkpt>
      <trkpt lat="45.93789" lon="6.53161">
        <ele>2148</ele>
        <time>2015-02-07T09:47:26.000Z</time>
      </trkpt>
      <trkpt lat="45.93788" lon="6.53161">
        <ele>2148.1999511719</ele>
        <time>2015-02-07T09:47:27.000Z</time>
      </trkpt>
      <trkpt lat="45.93783" lon="6.53159">
        <ele>2149.1999511719</ele>
        <time>2015-02-07T09:47:33.000Z</time>
      </trkpt>
      <trkpt lat="45.93783" lon="6.53159">
        <ele>2149.1999511719</ele>
        <time>2015-02-07T09:47:34.000Z</time>
      </trkpt>
      <trkpt lat="45.93779" lon="6.53157">
        <ele>2150.1999511719</ele>
        <time>2015-02-07T09:47:39.000Z</time>
      </trkpt>
      <trkpt lat="45.93777" lon="6.53155">
        <ele>2150.8000488281</ele>
        <time>2015-02-07T09:47:42.000Z</time>
      </trkpt>
      <trkpt lat="45.93777" lon="6.53155">
        <ele>2151.1999511719</ele>
        <time>2015-02-07T09:47:44.000Z</time>
      </trkpt>
      <trkpt lat="45.93777" lon="6.53158">
        <ele>2151.6000976562</ele>
        <time>2015-02-07T09:47:49.000Z</time>
      </trkpt>
      <trkpt lat="45.93779" lon="6.53167">
        <ele>2152.1999511719</ele>
        <time>2015-02-07T09:47:53.000Z</time>
      </trkpt>
      <trkpt lat="45.93779" lon="6.53168">
        <ele>2152.3999023438</ele>
        <time>2015-02-07T09:47:54.000Z</time>
      </trkpt>
      <trkpt lat="45.93778" lon="6.53175">
        <ele>2153.6000976562</ele>
        <time>2015-02-07T09:48:00.000Z</time>
      </trkpt>
      <trkpt lat="45.93779" lon="6.53184">
        <ele>2154.1999511719</ele>
        <time>2015-02-07T09:48:07.000Z</time>
      </trkpt>
      <trkpt lat="45.9378" lon="6.53186">
        <ele>2154.6000976562</ele>
        <time>2015-02-07T09:48:10.000Z</time>
      </trkpt>
      <trkpt lat="45.93781" lon="6.53189">
        <ele>2155.1999511719</ele>
        <time>2015-02-07T09:48:13.000Z</time>
      </trkpt>
      <trkpt lat="45.93781" lon="6.53191">
        <ele>2155.6000976562</ele>
        <time>2015-02-07T09:48:15.000Z</time>
      </trkpt>
      <trkpt lat="45.93782" lon="6.53192">
        <ele>2156.1999511719</ele>
        <time>2015-02-07T09:48:18.000Z</time>
      </trkpt>
      <trkpt lat="45.93784" lon="6.53196">
        <ele>2156.8000488281</ele>
        <time>2015-02-07T09:48:22.000Z</time>
      </trkpt>
      <trkpt lat="45.93784" lon="6.53198">
        <ele>2157.3999023438</ele>
        <time>2015-02-07T09:48:25.000Z</time>
      </trkpt>
      <trkpt lat="45.93786" lon="6.53202">
        <ele>2157.8000488281</ele>
        <time>2015-02-07T09:48:29.000Z</time>
      </trkpt>
      <trkpt lat="45.93787" lon="6.53205">
        <ele>2158.6000976562</ele>
        <time>2015-02-07T09:48:33.000Z</time>
      </trkpt>
      <trkpt lat="45.93788" lon="6.53206">
        <ele>2158.8000488281</ele>
        <time>2015-02-07T09:48:35.000Z</time>
      </trkpt>
      <trkpt lat="45.9379" lon="6.53209">
        <ele>2159.6000976562</ele>
        <time>2015-02-07T09:48:39.000Z</time>
      </trkpt>
      <trkpt lat="45.9379" lon="6.53209">
        <ele>2160</ele>
        <time>2015-02-07T09:48:40.000Z</time>
      </trkpt>
      <trkpt lat="45.93793" lon="6.53212">
        <ele>2160.8000488281</ele>
        <time>2015-02-07T09:48:46.000Z</time>
      </trkpt>
      <trkpt lat="45.93794" lon="6.53213">
        <ele>2161</ele>
        <time>2015-02-07T09:48:47.000Z</time>
      </trkpt>
      <trkpt lat="45.938" lon="6.53217">
        <ele>2162</ele>
        <time>2015-02-07T09:48:54.000Z</time>
      </trkpt>
      <trkpt lat="45.93802" lon="6.53218">
        <ele>2162.3999023438</ele>
        <time>2015-02-07T09:48:56.000Z</time>
      </trkpt>
      <trkpt lat="45.93806" lon="6.5322">
        <ele>2163.3999023438</ele>
        <time>2015-02-07T09:49:02.000Z</time>
      </trkpt>
      <trkpt lat="45.93807" lon="6.53221">
        <ele>2163.3999023438</ele>
        <time>2015-02-07T09:49:03.000Z</time>
      </trkpt>
      <trkpt lat="45.93808" lon="6.53222">
        <ele>2164</ele>
        <time>2015-02-07T09:49:11.000Z</time>
      </trkpt>
      <trkpt lat="45.93808" lon="6.53222">
        <ele>2164.6000976562</ele>
        <time>2015-02-07T09:49:13.000Z</time>
      </trkpt>
      <trkpt lat="45.93808" lon="6.53222">
        <ele>2165.8000488281</ele>
        <time>2015-02-07T09:49:16.000Z</time>
      </trkpt>
      <trkpt lat="45.93808" lon="6.53222">
        <ele>2166</ele>
        <time>2015-02-07T09:49:19.000Z</time>
      </trkpt>
      <trkpt lat="45.93807" lon="6.53222">
        <ele>2165.8000488281</ele>
        <time>2015-02-07T09:49:28.000Z</time>
      </trkpt>
      <trkpt lat="45.93799" lon="6.53221">
        <ele>2166.8000488281</ele>
        <time>2015-02-07T09:49:35.000Z</time>
      </trkpt>
      <trkpt lat="45.93798" lon="6.5322">
        <ele>2167</ele>
        <time>2015-02-07T09:49:37.000Z</time>
      </trkpt>
      <trkpt lat="45.93792" lon="6.53219">
        <ele>2168</ele>
        <time>2015-02-07T09:49:43.000Z</time>
      </trkpt>
      <trkpt lat="45.93791" lon="6.5322">
        <ele>2168.6000976562</ele>
        <time>2015-02-07T09:49:46.000Z</time>
      </trkpt>
      <trkpt lat="45.9379" lon="6.53221">
        <ele>2169</ele>
        <time>2015-02-07T09:49:48.000Z</time>
      </trkpt>
      <trkpt lat="45.93787" lon="6.53223">
        <ele>2170</ele>
        <time>2015-02-07T09:49:53.000Z</time>
      </trkpt>
      <trkpt lat="45.93786" lon="6.53223">
        <ele>2170.1999511719</ele>
        <time>2015-02-07T09:49:54.000Z</time>
      </trkpt>
      <trkpt lat="45.93783" lon="6.53224">
        <ele>2171.3999023438</ele>
        <time>2015-02-07T09:50:01.000Z</time>
      </trkpt>
      <trkpt lat="45.93778" lon="6.53225">
        <ele>2172.3999023438</ele>
        <time>2015-02-07T09:50:08.000Z</time>
      </trkpt>
      <trkpt lat="45.93776" lon="6.53225">
        <ele>2172.8000488281</ele>
        <time>2015-02-07T09:50:10.000Z</time>
      </trkpt>
      <trkpt lat="45.93775" lon="6.53224">
        <ele>2173.3999023438</ele>
        <time>2015-02-07T09:50:13.000Z</time>
      </trkpt>
      <trkpt lat="45.93773" lon="6.53225">
        <ele>2174.1999511719</ele>
        <time>2015-02-07T09:50:19.000Z</time>
      </trkpt>
      <trkpt lat="45.93774" lon="6.53226">
        <ele>2174.6000976562</ele>
        <time>2015-02-07T09:50:22.000Z</time>
      </trkpt>
      <trkpt lat="45.93774" lon="6.53225">
        <ele>2175</ele>
        <time>2015-02-07T09:50:28.000Z</time>
      </trkpt>
      <trkpt lat="45.93771" lon="6.53222">
        <ele>2175.1999511719</ele>
        <time>2015-02-07T09:50:37.000Z</time>
      </trkpt>
      <trkpt lat="45.93768" lon="6.5322">
        <ele>2175</ele>
        <time>2015-02-07T09:50:47.000Z</time>
      </trkpt>
      <trkpt lat="45.93768" lon="6.5322">
        <ele>2174.8000488281</ele>
        <time>2015-02-07T09:51:08.000Z</time>
      </trkpt>
      <trkpt lat="45.93767" lon="6.5322">
        <ele>2175</ele>
        <time>2015-02-07T09:51:33.000Z</time>
      </trkpt>
      <trkpt lat="45.93767" lon="6.5322">
        <ele>2175</ele>
        <time>2015-02-07T09:51:43.000Z</time>
      </trkpt>
      <trkpt lat="45.93767" lon="6.5322">
        <ele>2175</ele>
        <time>2015-02-07T09:51:58.000Z</time>
      </trkpt>
      <trkpt lat="45.93767" lon="6.5322">
        <ele>2175</ele>
        <time>2015-02-07T09:52:16.000Z</time>
      </trkpt>
      <trkpt lat="45.93767" lon="6.5322">
        <ele>2175</ele>
        <time>2015-02-07T09:52:30.000Z</time>
      </trkpt>
      <trkpt lat="45.93767" lon="6.53221">
        <ele>2175</ele>
        <time>2015-02-07T09:52:45.000Z</time>
      </trkpt>
      <trkpt lat="45.93767" lon="6.53221">
        <ele>2175</ele>
        <time>2015-02-07T09:52:58.000Z</time>
      </trkpt>
      <trkpt lat="45.93767" lon="6.53221">
        <ele>2175</ele>
        <time>2015-02-07T09:53:12.000Z</time>
      </trkpt>
      <trkpt lat="45.93768" lon="6.53222">
        <ele>2175</ele>
        <time>2015-02-07T09:53:32.000Z</time>
      </trkpt>
      <trkpt lat="45.93768" lon="6.53222">
        <ele>2175</ele>
        <time>2015-02-07T09:54:04.000Z</time>
      </trkpt>
      <trkpt lat="45.93768" lon="6.53222">
        <ele>2175</ele>
        <time>2015-02-07T09:54:21.000Z</time>
      </trkpt>
      <trkpt lat="45.93768" lon="6.53222">
        <ele>2174.8000488281</ele>
        <time>2015-02-07T09:54:36.000Z</time>
      </trkpt>
      <trkpt lat="45.93768" lon="6.53222">
        <ele>2174.8000488281</ele>
        <time>2015-02-07T09:54:50.000Z</time>
      </trkpt>
      <trkpt lat="45.93768" lon="6.53223">
        <ele>2174.6000976562</ele>
        <time>2015-02-07T09:55:03.000Z</time>
      </trkpt>
      <trkpt lat="45.93768" lon="6.53223">
        <ele>2174.6000976562</ele>
        <time>2015-02-07T09:55:23.000Z</time>
      </trkpt>
      <trkpt lat="45.93768" lon="6.53223">
        <ele>2174.3999023438</ele>
        <time>2015-02-07T09:55:39.000Z</time>
      </trkpt>
      <trkpt lat="45.93768" lon="6.53223">
        <ele>2174.3999023438</ele>
        <time>2015-02-07T09:55:54.000Z</time>
      </trkpt>
      <trkpt lat="45.93768" lon="6.53223">
        <ele>2174.3999023438</ele>
        <time>2015-02-07T09:56:08.000Z</time>
      </trkpt>
      <trkpt lat="45.93767" lon="6.53222">
        <ele>2174.3999023438</ele>
        <time>2015-02-07T09:56:22.000Z</time>
      </trkpt>
      <trkpt lat="45.93765" lon="6.53228">
        <ele>2174.8000488281</ele>
        <time>2015-02-07T09:56:30.000Z</time>
      </trkpt>
      <trkpt lat="45.93762" lon="6.5324">
        <ele>2175.6000976562</ele>
        <time>2015-02-07T09:56:38.000Z</time>
      </trkpt>
      <trkpt lat="45.93761" lon="6.53248">
        <ele>2176.3999023438</ele>
        <time>2015-02-07T09:56:45.000Z</time>
      </trkpt>
      <trkpt lat="45.93762" lon="6.5325">
        <ele>2176.6000976562</ele>
        <time>2015-02-07T09:56:47.000Z</time>
      </trkpt>
      <trkpt lat="45.93763" lon="6.53253">
        <ele>2177.8000488281</ele>
        <time>2015-02-07T09:56:52.000Z</time>
      </trkpt>
      <trkpt lat="45.93764" lon="6.53255">
        <ele>2178.1999511719</ele>
        <time>2015-02-07T09:56:53.000Z</time>
      </trkpt>
      <trkpt lat="45.93767" lon="6.53258">
        <ele>2179</ele>
        <time>2015-02-07T09:56:57.000Z</time>
      </trkpt>
      <trkpt lat="45.93766" lon="6.53261">
        <ele>2179.6000976562</ele>
        <time>2015-02-07T09:57:01.000Z</time>
      </trkpt>
      <trkpt lat="45.93767" lon="6.53262">
        <ele>2180.1999511719</ele>
        <time>2015-02-07T09:57:03.000Z</time>
      </trkpt>
      <trkpt lat="45.93767" lon="6.53262">
        <ele>2180.3999023438</ele>
        <time>2015-02-07T09:57:12.000Z</time>
      </trkpt>
      <trkpt lat="45.93767" lon="6.53263">
        <ele>2181.1999511719</ele>
        <time>2015-02-07T09:57:17.000Z</time>
      </trkpt>
      <trkpt lat="45.93767" lon="6.53264">
        <ele>2181.3999023438</ele>
        <time>2015-02-07T09:57:19.000Z</time>
      </trkpt>
      <trkpt lat="45.93764" lon="6.53272">
        <ele>2181.8000488281</ele>
        <time>2015-02-07T09:57:26.000Z</time>
      </trkpt>
      <trkpt lat="45.93763" lon="6.53279">
        <ele>2182</ele>
        <time>2015-02-07T09:57:33.000Z</time>
      </trkpt>
      <trkpt lat="45.93763" lon="6.53282">
        <ele>2182.1999511719</ele>
        <time>2015-02-07T09:57:34.000Z</time>
      </trkpt>
      <trkpt lat="45.93764" lon="6.5329">
        <ele>2182.3999023438</ele>
        <time>2015-02-07T09:57:39.000Z</time>
      </trkpt>
      <trkpt lat="45.93763" lon="6.53299">
        <ele>2183</ele>
        <time>2015-02-07T09:57:46.000Z</time>
      </trkpt>
      <trkpt lat="45.93762" lon="6.53303">
        <ele>2183.1999511719</ele>
        <time>2015-02-07T09:57:49.000Z</time>
      </trkpt>
      <trkpt lat="45.93762" lon="6.53308">
        <ele>2183.6000976562</ele>
        <time>2015-02-07T09:57:52.000Z</time>
      </trkpt>
      <trkpt lat="45.93766" lon="6.53315">
        <ele>2184</ele>
        <time>2015-02-07T09:57:57.000Z</time>
      </trkpt>
      <trkpt lat="45.9377" lon="6.53319">
        <ele>2184.3999023438</ele>
        <time>2015-02-07T09:58:01.000Z</time>
      </trkpt>
      <trkpt lat="45.93769" lon="6.53324">
        <ele>2184.8000488281</ele>
        <time>2015-02-07T09:58:05.000Z</time>
      </trkpt>
      <trkpt lat="45.93776" lon="6.53336">
        <ele>2185.1999511719</ele>
        <time>2015-02-07T09:58:14.000Z</time>
      </trkpt>
      <trkpt lat="45.93774" lon="6.5334">
        <ele>2185.3999023438</ele>
        <time>2015-02-07T09:58:19.000Z</time>
      </trkpt>
      <trkpt lat="45.93774" lon="6.53341">
        <ele>2185.3999023438</ele>
        <time>2015-02-07T09:58:21.000Z</time>
      </trkpt>
      <trkpt lat="45.93774" lon="6.53345">
        <ele>2186</ele>
        <time>2015-02-07T09:58:28.000Z</time>
      </trkpt>
      <trkpt lat="45.93773" lon="6.53348">
        <ele>2186.3999023438</ele>
        <time>2015-02-07T09:58:32.000Z</time>
      </trkpt>
      <trkpt lat="45.93769" lon="6.5335">
        <ele>2186.6000976562</ele>
        <time>2015-02-07T09:58:35.000Z</time>
      </trkpt>
      <trkpt lat="45.93764" lon="6.53358">
        <ele>2187</ele>
        <time>2015-02-07T09:58:42.000Z</time>
      </trkpt>
      <trkpt lat="45.93762" lon="6.53363">
        <ele>2187.3999023438</ele>
        <time>2015-02-07T09:58:48.000Z</time>
      </trkpt>
      <trkpt lat="45.93761" lon="6.53369">
        <ele>2188.3999023438</ele>
        <time>2015-02-07T09:58:56.000Z</time>
      </trkpt>
      <trkpt lat="45.93762" lon="6.5337">
        <ele>2188.6000976562</ele>
        <time>2015-02-07T09:58:57.000Z</time>
      </trkpt>
      <trkpt lat="45.93764" lon="6.53374">
        <ele>2188.8000488281</ele>
        <time>2015-02-07T09:59:02.000Z</time>
      </trkpt>
      <trkpt lat="45.93762" lon="6.53379">
        <ele>2189.1999511719</ele>
        <time>2015-02-07T09:59:09.000Z</time>
      </trkpt>
      <trkpt lat="45.9376" lon="6.53382">
        <ele>2189.6000976562</ele>
        <time>2015-02-07T09:59:14.000Z</time>
      </trkpt>
      <trkpt lat="45.93757" lon="6.53391">
        <ele>2190.1999511719</ele>
        <time>2015-02-07T09:59:22.000Z</time>
      </trkpt>
      <trkpt lat="45.93757" lon="6.53399">
        <ele>2190.6000976562</ele>
        <time>2015-02-07T09:59:28.000Z</time>
      </trkpt>
      <trkpt lat="45.93757" lon="6.53399">
        <ele>2190.6000976562</ele>
        <time>2015-02-07T09:59:29.000Z</time>
      </trkpt>
      <trkpt lat="45.93758" lon="6.53402">
        <ele>2191.3999023438</ele>
        <time>2015-02-07T09:59:36.000Z</time>
      </trkpt>
      <trkpt lat="45.93757" lon="6.53407">
        <ele>2191.8000488281</ele>
        <time>2015-02-07T09:59:40.000Z</time>
      </trkpt>
      <trkpt lat="45.93756" lon="6.53409">
        <ele>2192</ele>
        <time>2015-02-07T09:59:43.000Z</time>
      </trkpt>
      <trkpt lat="45.93754" lon="6.53414">
        <ele>2192</ele>
        <time>2015-02-07T09:59:49.000Z</time>
      </trkpt>
      <trkpt lat="45.93752" lon="6.5342">
        <ele>2192.8000488281</ele>
        <time>2015-02-07T09:59:55.000Z</time>
      </trkpt>
      <trkpt lat="45.93752" lon="6.53421">
        <ele>2193</ele>
        <time>2015-02-07T09:59:57.000Z</time>
      </trkpt>
      <trkpt lat="45.93755" lon="6.53425">
        <ele>2193.3999023438</ele>
        <time>2015-02-07T10:00:02.000Z</time>
      </trkpt>
      <trkpt lat="45.93754" lon="6.53427">
        <ele>2194</ele>
        <time>2015-02-07T10:00:04.000Z</time>
      </trkpt>
      <trkpt lat="45.93754" lon="6.53432">
        <ele>2194.6000976562</ele>
        <time>2015-02-07T10:00:09.000Z</time>
      </trkpt>
      <trkpt lat="45.93753" lon="6.53435">
        <ele>2195</ele>
        <time>2015-02-07T10:00:12.000Z</time>
      </trkpt>
      <trkpt lat="45.93753" lon="6.53439">
        <ele>2195.1999511719</ele>
        <time>2015-02-07T10:00:16.000Z</time>
      </trkpt>
      <trkpt lat="45.93755" lon="6.53444">
        <ele>2196</ele>
        <time>2015-02-07T10:00:22.000Z</time>
      </trkpt>
      <trkpt lat="45.93755" lon="6.53445">
        <ele>2196.1999511719</ele>
        <time>2015-02-07T10:00:23.000Z</time>
      </trkpt>
      <trkpt lat="45.93755" lon="6.53448">
        <ele>2196.8000488281</ele>
        <time>2015-02-07T10:00:29.000Z</time>
      </trkpt>
      <trkpt lat="45.93756" lon="6.5345">
        <ele>2197.1999511719</ele>
        <time>2015-02-07T10:00:32.000Z</time>
      </trkpt>
      <trkpt lat="45.93756" lon="6.53453">
        <ele>2197.1999511719</ele>
        <time>2015-02-07T10:00:36.000Z</time>
      </trkpt>
      <trkpt lat="45.93752" lon="6.53459">
        <ele>2197.8000488281</ele>
        <time>2015-02-07T10:00:42.000Z</time>
      </trkpt>
      <trkpt lat="45.93752" lon="6.5346">
        <ele>2198.1999511719</ele>
        <time>2015-02-07T10:00:45.000Z</time>
      </trkpt>
      <trkpt lat="45.93753" lon="6.53463">
        <ele>2198.8000488281</ele>
        <time>2015-02-07T10:00:48.000Z</time>
      </trkpt>
      <trkpt lat="45.93752" lon="6.53468">
        <ele>2199.3999023438</ele>
        <time>2015-02-07T10:00:52.000Z</time>
      </trkpt>
      <trkpt lat="45.93752" lon="6.53468">
        <ele>2199.3999023438</ele>
        <time>2015-02-07T10:00:54.000Z</time>
      </trkpt>
      <trkpt lat="45.93751" lon="6.53471">
        <ele>2199.8000488281</ele>
        <time>2015-02-07T10:01:00.000Z</time>
      </trkpt>
      <trkpt lat="45.93749" lon="6.53478">
        <ele>2200.3999023438</ele>
        <time>2015-02-07T10:01:07.000Z</time>
      </trkpt>
      <trkpt lat="45.93748" lon="6.53484">
        <ele>2201.1999511719</ele>
        <time>2015-02-07T10:01:13.000Z</time>
      </trkpt>
      <trkpt lat="45.93748" lon="6.53485">
        <ele>2201.3999023438</ele>
        <time>2015-02-07T10:01:16.000Z</time>
      </trkpt>
      <trkpt lat="45.93748" lon="6.53487">
        <ele>2202</ele>
        <time>2015-02-07T10:01:20.000Z</time>
      </trkpt>
      <trkpt lat="45.93748" lon="6.53488">
        <ele>2202.6000976562</ele>
        <time>2015-02-07T10:01:23.000Z</time>
      </trkpt>
      <trkpt lat="45.93749" lon="6.53493">
        <ele>2203</ele>
        <time>2015-02-07T10:01:27.000Z</time>
      </trkpt>
      <trkpt lat="45.93746" lon="6.53501">
        <ele>2203.6000976562</ele>
        <time>2015-02-07T10:01:36.000Z</time>
      </trkpt>
      <trkpt lat="45.93744" lon="6.53507">
        <ele>2204.6000976562</ele>
        <time>2015-02-07T10:01:42.000Z</time>
      </trkpt>
      <trkpt lat="45.93744" lon="6.53507">
        <ele>2204.8000488281</ele>
        <time>2015-02-07T10:01:43.000Z</time>
      </trkpt>
      <trkpt lat="45.93743" lon="6.53507">
        <ele>2205</ele>
        <time>2015-02-07T10:01:49.000Z</time>
      </trkpt>
      <trkpt lat="45.93742" lon="6.5351">
        <ele>2205.8000488281</ele>
        <time>2015-02-07T10:01:56.000Z</time>
      </trkpt>
      <trkpt lat="45.93741" lon="6.53511">
        <ele>2206</ele>
        <time>2015-02-07T10:01:58.000Z</time>
      </trkpt>
      <trkpt lat="45.93742" lon="6.53512">
        <ele>2207</ele>
        <time>2015-02-07T10:02:04.000Z</time>
      </trkpt>
      <trkpt lat="45.93742" lon="6.53513">
        <ele>2207.3999023438</ele>
        <time>2015-02-07T10:02:06.000Z</time>
      </trkpt>
      <trkpt lat="45.93738" lon="6.53519">
        <ele>2208</ele>
        <time>2015-02-07T10:02:14.000Z</time>
      </trkpt>
      <trkpt lat="45.93736" lon="6.53523">
        <ele>2208.8000488281</ele>
        <time>2015-02-07T10:02:22.000Z</time>
      </trkpt>
      <trkpt lat="45.93736" lon="6.53523">
        <ele>2209</ele>
        <time>2015-02-07T10:02:23.000Z</time>
      </trkpt>
      <trkpt lat="45.93735" lon="6.53527">
        <ele>2209.6000976562</ele>
        <time>2015-02-07T10:02:32.000Z</time>
      </trkpt>
      <trkpt lat="45.93734" lon="6.53529">
        <ele>2210.1999511719</ele>
        <time>2015-02-07T10:02:35.000Z</time>
      </trkpt>
      <trkpt lat="45.93733" lon="6.53529">
        <ele>2210.3999023438</ele>
        <time>2015-02-07T10:02:40.000Z</time>
      </trkpt>
      <trkpt lat="45.9373" lon="6.53535">
        <ele>2210.8000488281</ele>
        <time>2015-02-07T10:02:47.000Z</time>
      </trkpt>
      <trkpt lat="45.93729" lon="6.53537">
        <ele>2211.3999023438</ele>
        <time>2015-02-07T10:02:50.000Z</time>
      </trkpt>
      <trkpt lat="45.93728" lon="6.53538">
        <ele>2212</ele>
        <time>2015-02-07T10:02:58.000Z</time>
      </trkpt>
      <trkpt lat="45.93726" lon="6.5354">
        <ele>2212.1999511719</ele>
        <time>2015-02-07T10:03:06.000Z</time>
      </trkpt>
      <trkpt lat="45.93726" lon="6.5354">
        <ele>2212.3999023438</ele>
        <time>2015-02-07T10:03:07.000Z</time>
      </trkpt>
      <trkpt lat="45.93726" lon="6.5354">
        <ele>2212.3999023438</ele>
        <time>2015-02-07T10:03:15.000Z</time>
      </trkpt>
      <trkpt lat="45.93728" lon="6.53539">
        <ele>2213</ele>
        <time>2015-02-07T10:03:24.000Z</time>
      </trkpt>
      <trkpt lat="45.93728" lon="6.53539">
        <ele>2213.1999511719</ele>
        <time>2015-02-07T10:03:33.000Z</time>
      </trkpt>
      <trkpt lat="45.93728" lon="6.53539">
        <ele>2213.3999023438</ele>
        <time>2015-02-07T10:03:36.000Z</time>
      </trkpt>
      <trkpt lat="45.93729" lon="6.53539">
        <ele>2213</ele>
        <time>2015-02-07T10:03:45.000Z</time>
      </trkpt>
      <trkpt lat="45.93729" lon="6.53539">
        <ele>2213.3999023438</ele>
        <time>2015-02-07T10:03:54.000Z</time>
      </trkpt>
      <trkpt lat="45.93734" lon="6.53539">
        <ele>2213.8000488281</ele>
        <time>2015-02-07T10:04:02.000Z</time>
      </trkpt>
      <trkpt lat="45.93737" lon="6.53539">
        <ele>2214.3999023438</ele>
        <time>2015-02-07T10:04:07.000Z</time>
      </trkpt>
      <trkpt lat="45.93737" lon="6.53539">
        <ele>2214.3999023438</ele>
        <time>2015-02-07T10:04:09.000Z</time>
      </trkpt>
      <trkpt lat="45.93737" lon="6.53539">
        <ele>2215.1999511719</ele>
        <time>2015-02-07T10:04:15.000Z</time>
      </trkpt>
      <trkpt lat="45.93737" lon="6.53539">
        <ele>2215.3999023438</ele>
        <time>2015-02-07T10:04:17.000Z</time>
      </trkpt>
      <trkpt lat="45.93737" lon="6.53539">
        <ele>2216</ele>
        <time>2015-02-07T10:04:22.000Z</time>
      </trkpt>
      <trkpt lat="45.93741" lon="6.53537">
        <ele>2216.6000976562</ele>
        <time>2015-02-07T10:04:27.000Z</time>
      </trkpt>
      <trkpt lat="45.93743" lon="6.53537">
        <ele>2217</ele>
        <time>2015-02-07T10:04:28.000Z</time>
      </trkpt>
      <trkpt lat="45.93747" lon="6.53537">
        <ele>2217.6000976562</ele>
        <time>2015-02-07T10:04:30.000Z</time>
      </trkpt>
      <trkpt lat="45.93752" lon="6.53536">
        <ele>2218.1999511719</ele>
        <time>2015-02-07T10:04:34.000Z</time>
      </trkpt>
      <trkpt lat="45.93757" lon="6.53536">
        <ele>2218.6000976562</ele>
        <time>2015-02-07T10:04:38.000Z</time>
      </trkpt>
      <trkpt lat="45.9376" lon="6.53535">
        <ele>2218.8000488281</ele>
        <time>2015-02-07T10:04:40.000Z</time>
      </trkpt>
      <trkpt lat="45.93762" lon="6.53533">
        <ele>2219.8000488281</ele>
        <time>2015-02-07T10:04:46.000Z</time>
      </trkpt>
      <trkpt lat="45.93762" lon="6.53533">
        <ele>2219.8000488281</ele>
        <time>2015-02-07T10:04:47.000Z</time>
      </trkpt>
      <trkpt lat="45.93764" lon="6.53531">
        <ele>2221</ele>
        <time>2015-02-07T10:04:53.000Z</time>
      </trkpt>
      <trkpt lat="45.93765" lon="6.5353">
        <ele>2221</ele>
        <time>2015-02-07T10:04:54.000Z</time>
      </trkpt>
      <trkpt lat="45.93768" lon="6.53529">
        <ele>2221.3999023438</ele>
        <time>2015-02-07T10:04:59.000Z</time>
      </trkpt>
      <trkpt lat="45.9377" lon="6.53528">
        <ele>2221.8000488281</ele>
        <time>2015-02-07T10:05:04.000Z</time>
      </trkpt>
      <trkpt lat="45.9377" lon="6.53528">
        <ele>2222</ele>
        <time>2015-02-07T10:05:05.000Z</time>
      </trkpt>
      <trkpt lat="45.93769" lon="6.5353">
        <ele>2223</ele>
        <time>2015-02-07T10:05:10.000Z</time>
      </trkpt>
      <trkpt lat="45.93769" lon="6.5353">
        <ele>2223</ele>
        <time>2015-02-07T10:05:11.000Z</time>
      </trkpt>
      <trkpt lat="45.93767" lon="6.53534">
        <ele>2224</ele>
        <time>2015-02-07T10:05:17.000Z</time>
      </trkpt>
      <trkpt lat="45.93767" lon="6.53535">
        <ele>2224.1999511719</ele>
        <time>2015-02-07T10:05:18.000Z</time>
      </trkpt>
      <trkpt lat="45.93766" lon="6.5354">
        <ele>2225.1999511719</ele>
        <time>2015-02-07T10:05:24.000Z</time>
      </trkpt>
      <trkpt lat="45.93765" lon="6.53542">
        <ele>2225.3999023438</ele>
        <time>2015-02-07T10:05:26.000Z</time>
      </trkpt>
      <trkpt lat="45.93763" lon="6.53544">
        <ele>2226.3999023438</ele>
        <time>2015-02-07T10:05:32.000Z</time>
      </trkpt>
      <trkpt lat="45.93763" lon="6.53546">
        <ele>2226.3999023438</ele>
        <time>2015-02-07T10:05:33.000Z</time>
      </trkpt>
      <trkpt lat="45.93758" lon="6.53552">
        <ele>2227</ele>
        <time>2015-02-07T10:05:39.000Z</time>
      </trkpt>
      <trkpt lat="45.93758" lon="6.53553">
        <ele>2227.3999023438</ele>
        <time>2015-02-07T10:05:41.000Z</time>
      </trkpt>
      <trkpt lat="45.93756" lon="6.53558">
        <ele>2227.8000488281</ele>
        <time>2015-02-07T10:05:45.000Z</time>
      </trkpt>
      <trkpt lat="45.93754" lon="6.53561">
        <ele>2228.6000976562</ele>
        <time>2015-02-07T10:05:49.000Z</time>
      </trkpt>
      <trkpt lat="45.93752" lon="6.53563">
        <ele>2229</ele>
        <time>2015-02-07T10:05:52.000Z</time>
      </trkpt>
      <trkpt lat="45.93749" lon="6.53566">
        <ele>2229.6000976562</ele>
        <time>2015-02-07T10:05:56.000Z</time>
      </trkpt>
      <trkpt lat="45.93749" lon="6.53566">
        <ele>2229.8000488281</ele>
        <time>2015-02-07T10:05:57.000Z</time>
      </trkpt>
      <trkpt lat="45.93749" lon="6.53566">
        <ele>2230.1999511719</ele>
        <time>2015-02-07T10:06:00.000Z</time>
      </trkpt>
      <trkpt lat="45.93748" lon="6.53569">
        <ele>2230.8000488281</ele>
        <time>2015-02-07T10:06:04.000Z</time>
      </trkpt>
      <trkpt lat="45.93747" lon="6.53571">
        <ele>2231.1999511719</ele>
        <time>2015-02-07T10:06:06.000Z</time>
      </trkpt>
      <trkpt lat="45.93745" lon="6.53575">
        <ele>2231.8000488281</ele>
        <time>2015-02-07T10:06:10.000Z</time>
      </trkpt>
      <trkpt lat="45.93743" lon="6.53578">
        <ele>2232.6000976562</ele>
        <time>2015-02-07T10:06:15.000Z</time>
      </trkpt>
      <trkpt lat="45.93743" lon="6.53578">
        <ele>2232.8000488281</ele>
        <time>2015-02-07T10:06:16.000Z</time>
      </trkpt>
      <trkpt lat="45.93743" lon="6.53579">
        <ele>2233.8000488281</ele>
        <time>2015-02-07T10:06:24.000Z</time>
      </trkpt>
      <trkpt lat="45.93743" lon="6.53579">
        <ele>2233.8000488281</ele>
        <time>2015-02-07T10:06:25.000Z</time>
      </trkpt>
      <trkpt lat="45.93744" lon="6.53578">
        <ele>2234.6000976562</ele>
        <time>2015-02-07T10:06:34.000Z</time>
      </trkpt>
      <trkpt lat="45.93745" lon="6.53578">
        <ele>2234.8000488281</ele>
        <time>2015-02-07T10:06:39.000Z</time>
      </trkpt>
      <trkpt lat="45.93745" lon="6.53578">
        <ele>2234.8000488281</ele>
        <time>2015-02-07T10:06:44.000Z</time>
      </trkpt>
      <trkpt lat="45.93745" lon="6.53578">
        <ele>2235</ele>
        <time>2015-02-07T10:07:03.000Z</time>
      </trkpt>
      <trkpt lat="45.93745" lon="6.53578">
        <ele>2235</ele>
        <time>2015-02-07T10:07:15.000Z</time>
      </trkpt>
      <trkpt lat="45.93745" lon="6.53578">
        <ele>2234.8000488281</ele>
        <time>2015-02-07T10:07:27.000Z</time>
      </trkpt>
      <trkpt lat="45.93745" lon="6.53578">
        <ele>2234.8000488281</ele>
        <time>2015-02-07T10:07:39.000Z</time>
      </trkpt>
      <trkpt lat="45.93746" lon="6.53578">
        <ele>2234.8000488281</ele>
        <time>2015-02-07T10:07:54.000Z</time>
      </trkpt>
      <trkpt lat="45.93753" lon="6.5358">
        <ele>2235.3999023438</ele>
        <time>2015-02-07T10:08:01.000Z</time>
      </trkpt>
      <trkpt lat="45.93757" lon="6.5358">
        <ele>2236</ele>
        <time>2015-02-07T10:08:05.000Z</time>
      </trkpt>
      <trkpt lat="45.93759" lon="6.5358">
        <ele>2236.6000976562</ele>
        <time>2015-02-07T10:08:08.000Z</time>
      </trkpt>
      <trkpt lat="45.93761" lon="6.53581">
        <ele>2237</ele>
        <time>2015-02-07T10:08:12.000Z</time>
      </trkpt>
      <trkpt lat="45.93764" lon="6.5358">
        <ele>2237.6000976562</ele>
        <time>2015-02-07T10:08:17.000Z</time>
      </trkpt>
      <trkpt lat="45.93766" lon="6.53579">
        <ele>2238</ele>
        <time>2015-02-07T10:08:22.000Z</time>
      </trkpt>
      <trkpt lat="45.9377" lon="6.53578">
        <ele>2238.6000976562</ele>
        <time>2015-02-07T10:08:27.000Z</time>
      </trkpt>
      <trkpt lat="45.93772" lon="6.53578">
        <ele>2239.1999511719</ele>
        <time>2015-02-07T10:08:29.000Z</time>
      </trkpt>
      <trkpt lat="45.93777" lon="6.53577">
        <ele>2239.8000488281</ele>
        <time>2015-02-07T10:08:34.000Z</time>
      </trkpt>
      <trkpt lat="45.93779" lon="6.53576">
        <ele>2240.1999511719</ele>
        <time>2015-02-07T10:08:38.000Z</time>
      </trkpt>
      <trkpt lat="45.93781" lon="6.53575">
        <ele>2240.6000976562</ele>
        <time>2015-02-07T10:08:40.000Z</time>
      </trkpt>
      <trkpt lat="45.93784" lon="6.53573">
        <ele>2241.1999511719</ele>
        <time>2015-02-07T10:08:45.000Z</time>
      </trkpt>
      <trkpt lat="45.93784" lon="6.53572">
        <ele>2241.3999023438</ele>
        <time>2015-02-07T10:08:46.000Z</time>
      </trkpt>
      <trkpt lat="45.93786" lon="6.53572">
        <ele>2242.1999511719</ele>
        <time>2015-02-07T10:08:51.000Z</time>
      </trkpt>
      <trkpt lat="45.93787" lon="6.53572">
        <ele>2242.6000976562</ele>
        <time>2015-02-07T10:08:53.000Z</time>
      </trkpt>
      <trkpt lat="45.93788" lon="6.53571">
        <ele>2242.8000488281</ele>
        <time>2015-02-07T10:08:56.000Z</time>
      </trkpt>
      <trkpt lat="45.93788" lon="6.53575">
        <ele>2243.8000488281</ele>
        <time>2015-02-07T10:09:03.000Z</time>
      </trkpt>
      <trkpt lat="45.93786" lon="6.5358">
        <ele>2244.1999511719</ele>
        <time>2015-02-07T10:09:08.000Z</time>
      </trkpt>
      <trkpt lat="45.9378" lon="6.53585">
        <ele>2245</ele>
        <time>2015-02-07T10:09:15.000Z</time>
      </trkpt>
      <trkpt lat="45.93777" lon="6.53589">
        <ele>2246</ele>
        <time>2015-02-07T10:09:21.000Z</time>
      </trkpt>
      <trkpt lat="45.93774" lon="6.53593">
        <ele>2246.6000976562</ele>
        <time>2015-02-07T10:09:26.000Z</time>
      </trkpt>
      <trkpt lat="45.93773" lon="6.53595">
        <ele>2247</ele>
        <time>2015-02-07T10:09:29.000Z</time>
      </trkpt>
      <trkpt lat="45.93771" lon="6.53597">
        <ele>2247.8000488281</ele>
        <time>2015-02-07T10:09:33.000Z</time>
      </trkpt>
      <trkpt lat="45.9377" lon="6.53599">
        <ele>2248.1999511719</ele>
        <time>2015-02-07T10:09:35.000Z</time>
      </trkpt>
      <trkpt lat="45.93768" lon="6.53605">
        <ele>2249.1999511719</ele>
        <time>2015-02-07T10:09:42.000Z</time>
      </trkpt>
      <trkpt lat="45.93767" lon="6.53606">
        <ele>2249.3999023438</ele>
        <time>2015-02-07T10:09:43.000Z</time>
      </trkpt>
      <trkpt lat="45.93766" lon="6.5361">
        <ele>2250.1999511719</ele>
        <time>2015-02-07T10:09:49.000Z</time>
      </trkpt>
      <trkpt lat="45.93766" lon="6.53611">
        <ele>2250.3999023438</ele>
        <time>2015-02-07T10:09:50.000Z</time>
      </trkpt>
      <trkpt lat="45.93763" lon="6.53615">
        <ele>2251.3999023438</ele>
        <time>2015-02-07T10:09:57.000Z</time>
      </trkpt>
      <trkpt lat="45.93762" lon="6.53616">
        <ele>2251.6000976562</ele>
        <time>2015-02-07T10:09:59.000Z</time>
      </trkpt>
      <trkpt lat="45.9376" lon="6.53617">
        <ele>2252.6000976562</ele>
        <time>2015-02-07T10:10:05.000Z</time>
      </trkpt>
      <trkpt lat="45.9376" lon="6.53617">
        <ele>2252.6000976562</ele>
        <time>2015-02-07T10:10:08.000Z</time>
      </trkpt>
      <trkpt lat="45.93759" lon="6.53618">
        <ele>2253.6000976562</ele>
        <time>2015-02-07T10:10:18.000Z</time>
      </trkpt>
      <trkpt lat="45.93763" lon="6.53617">
        <ele>2253.6000976562</ele>
        <time>2015-02-07T10:10:21.000Z</time>
      </trkpt>
      <trkpt lat="45.93767" lon="6.53618">
        <ele>2254.3999023438</ele>
        <time>2015-02-07T10:10:27.000Z</time>
      </trkpt>
      <trkpt lat="45.93769" lon="6.53617">
        <ele>2254.8000488281</ele>
        <time>2015-02-07T10:10:29.000Z</time>
      </trkpt>
      <trkpt lat="45.9377" lon="6.53617">
        <ele>2255.3999023438</ele>
        <time>2015-02-07T10:10:34.000Z</time>
      </trkpt>
      <trkpt lat="45.9377" lon="6.53617">
        <ele>2255.8000488281</ele>
        <time>2015-02-07T10:10:37.000Z</time>
      </trkpt>
      <trkpt lat="45.93772" lon="6.53617">
        <ele>2256.1999511719</ele>
        <time>2015-02-07T10:10:43.000Z</time>
      </trkpt>
      <trkpt lat="45.93777" lon="6.53616">
        <ele>2257</ele>
        <time>2015-02-07T10:10:48.000Z</time>
      </trkpt>
      <trkpt lat="45.9378" lon="6.53616">
        <ele>2257.1999511719</ele>
        <time>2015-02-07T10:10:50.000Z</time>
      </trkpt>
      <trkpt lat="45.93784" lon="6.53616">
        <ele>2258</ele>
        <time>2015-02-07T10:10:54.000Z</time>
      </trkpt>
      <trkpt lat="45.93786" lon="6.53614">
        <ele>2258.3999023438</ele>
        <time>2015-02-07T10:10:56.000Z</time>
      </trkpt>
      <trkpt lat="45.93788" lon="6.53614">
        <ele>2259.1999511719</ele>
        <time>2015-02-07T10:11:00.000Z</time>
      </trkpt>
      <trkpt lat="45.9379" lon="6.53614">
        <ele>2259.3999023438</ele>
        <time>2015-02-07T10:11:03.000Z</time>
      </trkpt>
      <trkpt lat="45.93794" lon="6.53615">
        <ele>2260.3999023438</ele>
        <time>2015-02-07T10:11:10.000Z</time>
      </trkpt>
      <trkpt lat="45.93794" lon="6.53615">
        <ele>2260.6000976562</ele>
        <time>2015-02-07T10:11:11.000Z</time>
      </trkpt>
      <trkpt lat="45.93796" lon="6.53614">
        <ele>2261.8000488281</ele>
        <time>2015-02-07T10:11:17.000Z</time>
      </trkpt>
      <trkpt lat="45.93796" lon="6.53614">
        <ele>2262</ele>
        <time>2015-02-07T10:11:27.000Z</time>
      </trkpt>
      <trkpt lat="45.93799" lon="6.53615">
        <ele>2262.3999023438</ele>
        <time>2015-02-07T10:11:33.000Z</time>
      </trkpt>
      <trkpt lat="45.93799" lon="6.53615">
        <ele>2262.8000488281</ele>
        <time>2015-02-07T10:11:36.000Z</time>
      </trkpt>
      <trkpt lat="45.93799" lon="6.53616">
        <ele>2263.6000976562</ele>
        <time>2015-02-07T10:11:41.000Z</time>
      </trkpt>
      <trkpt lat="45.93798" lon="6.53617">
        <ele>2264</ele>
        <time>2015-02-07T10:11:44.000Z</time>
      </trkpt>
      <trkpt lat="45.93798" lon="6.53618">
        <ele>2264.1999511719</ele>
        <time>2015-02-07T10:11:46.000Z</time>
      </trkpt>
      <trkpt lat="45.93795" lon="6.53622">
        <ele>2265.1999511719</ele>
        <time>2015-02-07T10:11:52.000Z</time>
      </trkpt>
      <trkpt lat="45.93792" lon="6.53624">
        <ele>2266.3999023438</ele>
        <time>2015-02-07T10:11:57.000Z</time>
      </trkpt>
      <trkpt lat="45.93792" lon="6.53624">
        <ele>2266.3999023438</ele>
        <time>2015-02-07T10:11:58.000Z</time>
      </trkpt>
      <trkpt lat="45.93791" lon="6.53625">
        <ele>2267.3999023438</ele>
        <time>2015-02-07T10:12:02.000Z</time>
      </trkpt>
      <trkpt lat="45.9379" lon="6.53628">
        <ele>2267.8000488281</ele>
        <time>2015-02-07T10:12:05.000Z</time>
      </trkpt>
      <trkpt lat="45.93786" lon="6.53633">
        <ele>2268.6000976562</ele>
        <time>2015-02-07T10:12:12.000Z</time>
      </trkpt>
      <trkpt lat="45.93785" lon="6.53634">
        <ele>2269.1999511719</ele>
        <time>2015-02-07T10:12:14.000Z</time>
      </trkpt>
      <trkpt lat="45.93782" lon="6.53638">
        <ele>2269.6000976562</ele>
        <time>2015-02-07T10:12:20.000Z</time>
      </trkpt>
      <trkpt lat="45.93782" lon="6.53638">
        <ele>2270</ele>
        <time>2015-02-07T10:12:22.000Z</time>
      </trkpt>
      <trkpt lat="45.93781" lon="6.53641">
        <ele>2270.8000488281</ele>
        <time>2015-02-07T10:12:26.000Z</time>
      </trkpt>
      <trkpt lat="45.93779" lon="6.53644">
        <ele>2271</ele>
        <time>2015-02-07T10:12:29.000Z</time>
      </trkpt>
      <trkpt lat="45.93777" lon="6.53646">
        <ele>2271.8000488281</ele>
        <time>2015-02-07T10:12:36.000Z</time>
      </trkpt>
      <trkpt lat="45.93777" lon="6.53646">
        <ele>2272.8000488281</ele>
        <time>2015-02-07T10:12:46.000Z</time>
      </trkpt>
      <trkpt lat="45.93777" lon="6.53646">
        <ele>2272.8000488281</ele>
        <time>2015-02-07T10:12:47.000Z</time>
      </trkpt>
      <trkpt lat="45.93777" lon="6.53647">
        <ele>2273.3999023438</ele>
        <time>2015-02-07T10:12:55.000Z</time>
      </trkpt>
      <trkpt lat="45.9378" lon="6.53649">
        <ele>2274</ele>
        <time>2015-02-07T10:13:00.000Z</time>
      </trkpt>
      <trkpt lat="45.93781" lon="6.53649">
        <ele>2274.1999511719</ele>
        <time>2015-02-07T10:13:01.000Z</time>
      </trkpt>
      <trkpt lat="45.93784" lon="6.53649">
        <ele>2275.1999511719</ele>
        <time>2015-02-07T10:13:07.000Z</time>
      </trkpt>
      <trkpt lat="45.93785" lon="6.5365">
        <ele>2275.8000488281</ele>
        <time>2015-02-07T10:13:09.000Z</time>
      </trkpt>
      <trkpt lat="45.93786" lon="6.53649">
        <ele>2276.1999511719</ele>
        <time>2015-02-07T10:13:12.000Z</time>
      </trkpt>
      <trkpt lat="45.93786" lon="6.53649">
        <ele>2276.3999023438</ele>
        <time>2015-02-07T10:13:15.000Z</time>
      </trkpt>
      <trkpt lat="45.93787" lon="6.53649">
        <ele>2277.3999023438</ele>
        <time>2015-02-07T10:13:20.000Z</time>
      </trkpt>
      <trkpt lat="45.93789" lon="6.53649">
        <ele>2278</ele>
        <time>2015-02-07T10:13:23.000Z</time>
      </trkpt>
      <trkpt lat="45.93793" lon="6.53649">
        <ele>2278.3999023438</ele>
        <time>2015-02-07T10:13:29.000Z</time>
      </trkpt>
      <trkpt lat="45.93795" lon="6.53649">
        <ele>2278.6000976562</ele>
        <time>2015-02-07T10:13:31.000Z</time>
      </trkpt>
      <trkpt lat="45.93798" lon="6.5365">
        <ele>2279.6000976562</ele>
        <time>2015-02-07T10:13:37.000Z</time>
      </trkpt>
      <trkpt lat="45.93798" lon="6.5365">
        <ele>2280.1999511719</ele>
        <time>2015-02-07T10:13:41.000Z</time>
      </trkpt>
      <trkpt lat="45.93798" lon="6.5365">
        <ele>2280.1999511719</ele>
        <time>2015-02-07T10:13:52.000Z</time>
      </trkpt>
      <trkpt lat="45.93801" lon="6.5365">
        <ele>2280.6000976562</ele>
        <time>2015-02-07T10:13:55.000Z</time>
      </trkpt>
      <trkpt lat="45.93805" lon="6.53651">
        <ele>2281.1999511719</ele>
        <time>2015-02-07T10:13:59.000Z</time>
      </trkpt>
      <trkpt lat="45.93809" lon="6.53653">
        <ele>2281.6000976562</ele>
        <time>2015-02-07T10:14:03.000Z</time>
      </trkpt>
      <trkpt lat="45.93813" lon="6.53653">
        <ele>2282.3999023438</ele>
        <time>2015-02-07T10:14:09.000Z</time>
      </trkpt>
      <trkpt lat="45.93816" lon="6.53652">
        <ele>2282.6000976562</ele>
        <time>2015-02-07T10:14:11.000Z</time>
      </trkpt>
      <trkpt lat="45.93819" lon="6.53653">
        <ele>2283.3999023438</ele>
        <time>2015-02-07T10:14:16.000Z</time>
      </trkpt>
      <trkpt lat="45.9382" lon="6.53653">
        <ele>2283.8000488281</ele>
        <time>2015-02-07T10:14:19.000Z</time>
      </trkpt>
      <trkpt lat="45.93822" lon="6.53652">
        <ele>2284</ele>
        <time>2015-02-07T10:14:22.000Z</time>
      </trkpt>
      <trkpt lat="45.93826" lon="6.53651">
        <ele>2285</ele>
        <time>2015-02-07T10:14:27.000Z</time>
      </trkpt>
      <trkpt lat="45.93829" lon="6.53651">
        <ele>2286.1999511719</ele>
        <time>2015-02-07T10:14:32.000Z</time>
      </trkpt>
      <trkpt lat="45.9383" lon="6.5365">
        <ele>2286.6000976562</ele>
        <time>2015-02-07T10:14:35.000Z</time>
      </trkpt>
      <trkpt lat="45.93831" lon="6.5365">
        <ele>2286.8000488281</ele>
        <time>2015-02-07T10:14:40.000Z</time>
      </trkpt>
      <trkpt lat="45.93833" lon="6.53649">
        <ele>2287.3999023438</ele>
        <time>2015-02-07T10:14:42.000Z</time>
      </trkpt>
      <trkpt lat="45.93834" lon="6.53648">
        <ele>2288.3999023438</ele>
        <time>2015-02-07T10:14:46.000Z</time>
      </trkpt>
      <trkpt lat="45.93834" lon="6.53648">
        <ele>2288.6000976562</ele>
        <time>2015-02-07T10:14:47.000Z</time>
      </trkpt>
      <trkpt lat="45.93835" lon="6.53646">
        <ele>2289.1999511719</ele>
        <time>2015-02-07T10:14:54.000Z</time>
      </trkpt>
      <trkpt lat="45.93836" lon="6.53646">
        <ele>2289.6000976562</ele>
        <time>2015-02-07T10:14:57.000Z</time>
      </trkpt>
      <trkpt lat="45.93838" lon="6.53645">
        <ele>2290.6000976562</ele>
        <time>2015-02-07T10:15:02.000Z</time>
      </trkpt>
      <trkpt lat="45.93839" lon="6.53643">
        <ele>2291.8000488281</ele>
        <time>2015-02-07T10:15:07.000Z</time>
      </trkpt>
      <trkpt lat="45.93839" lon="6.53643">
        <ele>2292.1999511719</ele>
        <time>2015-02-07T10:15:11.000Z</time>
      </trkpt>
      <trkpt lat="45.93839" lon="6.53644">
        <ele>2292.1999511719</ele>
        <time>2015-02-07T10:15:23.000Z</time>
      </trkpt>
      <trkpt lat="45.93839" lon="6.53644">
        <ele>2292</ele>
        <time>2015-02-07T10:15:33.000Z</time>
      </trkpt>
      <trkpt lat="45.93839" lon="6.53644">
        <ele>2293</ele>
        <time>2015-02-07T10:15:39.000Z</time>
      </trkpt>
      <trkpt lat="45.93839" lon="6.53644">
        <ele>2293.1999511719</ele>
        <time>2015-02-07T10:15:41.000Z</time>
      </trkpt>
      <trkpt lat="45.9384" lon="6.53647">
        <ele>2293</ele>
        <time>2015-02-07T10:15:49.000Z</time>
      </trkpt>
      <trkpt lat="45.9384" lon="6.53653">
        <ele>2294.1999511719</ele>
        <time>2015-02-07T10:15:54.000Z</time>
      </trkpt>
      <trkpt lat="45.9384" lon="6.53654">
        <ele>2294.3999023438</ele>
        <time>2015-02-07T10:15:55.000Z</time>
      </trkpt>
      <trkpt lat="45.9384" lon="6.53656">
        <ele>2295.1999511719</ele>
        <time>2015-02-07T10:15:59.000Z</time>
      </trkpt>
      <trkpt lat="45.9384" lon="6.53657">
        <ele>2295.6000976562</ele>
        <time>2015-02-07T10:16:01.000Z</time>
      </trkpt>
      <trkpt lat="45.93839" lon="6.53662">
        <ele>2296.3999023438</ele>
        <time>2015-02-07T10:16:05.000Z</time>
      </trkpt>
      <trkpt lat="45.93839" lon="6.53664">
        <ele>2296.6000976562</ele>
        <time>2015-02-07T10:16:09.000Z</time>
      </trkpt>
      <trkpt lat="45.93839" lon="6.53665">
        <ele>2296.8000488281</ele>
        <time>2015-02-07T10:16:12.000Z</time>
      </trkpt>
      <trkpt lat="45.93839" lon="6.53666">
        <ele>2297.3999023438</ele>
        <time>2015-02-07T10:16:15.000Z</time>
      </trkpt>
      <trkpt lat="45.93839" lon="6.53667">
        <ele>2297.3999023438</ele>
        <time>2015-02-07T10:16:16.000Z</time>
      </trkpt>
      <trkpt lat="45.93837" lon="6.53674">
        <ele>2298.1999511719</ele>
        <time>2015-02-07T10:16:23.000Z</time>
      </trkpt>
      <trkpt lat="45.93837" lon="6.53676">
        <ele>2298.3999023438</ele>
        <time>2015-02-07T10:16:25.000Z</time>
      </trkpt>
      <trkpt lat="45.93836" lon="6.53677">
        <ele>2299.6000976562</ele>
        <time>2015-02-07T10:16:30.000Z</time>
      </trkpt>
      <trkpt lat="45.93836" lon="6.53677">
        <ele>2300</ele>
        <time>2015-02-07T10:16:33.000Z</time>
      </trkpt>
      <trkpt lat="45.93836" lon="6.53677">
        <ele>2300.3999023438</ele>
        <time>2015-02-07T10:16:42.000Z</time>
      </trkpt>
      <trkpt lat="45.93837" lon="6.53677">
        <ele>2300.6000976562</ele>
        <time>2015-02-07T10:16:45.000Z</time>
      </trkpt>
      <trkpt lat="45.93838" lon="6.53677">
        <ele>2301.1999511719</ele>
        <time>2015-02-07T10:16:48.000Z</time>
      </trkpt>
      <trkpt lat="45.93841" lon="6.53677">
        <ele>2301.8000488281</ele>
        <time>2015-02-07T10:16:52.000Z</time>
      </trkpt>
      <trkpt lat="45.93845" lon="6.53677">
        <ele>2302.3999023438</ele>
        <time>2015-02-07T10:16:55.000Z</time>
      </trkpt>
      <trkpt lat="45.93848" lon="6.53678">
        <ele>2303</ele>
        <time>2015-02-07T10:16:59.000Z</time>
      </trkpt>
      <trkpt lat="45.93851" lon="6.53676">
        <ele>2303.3999023438</ele>
        <time>2015-02-07T10:17:02.000Z</time>
      </trkpt>
      <trkpt lat="45.93853" lon="6.53678">
        <ele>2304.1999511719</ele>
        <time>2015-02-07T10:17:07.000Z</time>
      </trkpt>
      <trkpt lat="45.93856" lon="6.53675">
        <ele>2305.1999511719</ele>
        <time>2015-02-07T10:17:14.000Z</time>
      </trkpt>
      <trkpt lat="45.93856" lon="6.53674">
        <ele>2305.3999023438</ele>
        <time>2015-02-07T10:17:15.000Z</time>
      </trkpt>
      <trkpt lat="45.93859" lon="6.53672">
        <ele>2306.3999023438</ele>
        <time>2015-02-07T10:17:21.000Z</time>
      </trkpt>
      <trkpt lat="45.9386" lon="6.53671">
        <ele>2306.6000976562</ele>
        <time>2015-02-07T10:17:22.000Z</time>
      </trkpt>
      <trkpt lat="45.93863" lon="6.53668">
        <ele>2307.3999023438</ele>
        <time>2015-02-07T10:17:27.000Z</time>
      </trkpt>
      <trkpt lat="45.93863" lon="6.53667">
        <ele>2307.3999023438</ele>
        <time>2015-02-07T10:17:28.000Z</time>
      </trkpt>
      <trkpt lat="45.93866" lon="6.53665">
        <ele>2308.3999023438</ele>
        <time>2015-02-07T10:17:33.000Z</time>
      </trkpt>
      <trkpt lat="45.93867" lon="6.53664">
        <ele>2308.6000976562</ele>
        <time>2015-02-07T10:17:35.000Z</time>
      </trkpt>
      <trkpt lat="45.93867" lon="6.53663">
        <ele>2309.1999511719</ele>
        <time>2015-02-07T10:17:38.000Z</time>
      </trkpt>
      <trkpt lat="45.93867" lon="6.53661">
        <ele>2309.8000488281</ele>
        <time>2015-02-07T10:17:41.000Z</time>
      </trkpt>
      <trkpt lat="45.93868" lon="6.5366">
        <ele>2310</ele>
        <time>2015-02-07T10:17:42.000Z</time>
      </trkpt>
      <trkpt lat="45.93869" lon="6.53658">
        <ele>2310.8000488281</ele>
        <time>2015-02-07T10:17:47.000Z</time>
      </trkpt>
      <trkpt lat="45.93869" lon="6.53658">
        <ele>2311</ele>
        <time>2015-02-07T10:17:48.000Z</time>
      </trkpt>
      <trkpt lat="45.9387" lon="6.53655">
        <ele>2312</ele>
        <time>2015-02-07T10:17:54.000Z</time>
      </trkpt>
      <trkpt lat="45.93873" lon="6.53649">
        <ele>2312.8000488281</ele>
        <time>2015-02-07T10:18:01.000Z</time>
      </trkpt>
      <trkpt lat="45.93874" lon="6.53646">
        <ele>2313</ele>
        <time>2015-02-07T10:18:03.000Z</time>
      </trkpt>
      <trkpt lat="45.93875" lon="6.53645">
        <ele>2313.6000976562</ele>
        <time>2015-02-07T10:18:06.000Z</time>
      </trkpt>
      <trkpt lat="45.93878" lon="6.53645">
        <ele>2314.1999511719</ele>
        <time>2015-02-07T10:18:10.000Z</time>
      </trkpt>
      <trkpt lat="45.93879" lon="6.53645">
        <ele>2314.3999023438</ele>
        <time>2015-02-07T10:18:12.000Z</time>
      </trkpt>
      <trkpt lat="45.93884" lon="6.53646">
        <ele>2315.1999511719</ele>
        <time>2015-02-07T10:18:19.000Z</time>
      </trkpt>
      <trkpt lat="45.93886" lon="6.53645">
        <ele>2316.1999511719</ele>
        <time>2015-02-07T10:18:24.000Z</time>
      </trkpt>
      <trkpt lat="45.93886" lon="6.53645">
        <ele>2316.3999023438</ele>
        <time>2015-02-07T10:18:25.000Z</time>
      </trkpt>
      <trkpt lat="45.93888" lon="6.53644">
        <ele>2317.3999023438</ele>
        <time>2015-02-07T10:18:29.000Z</time>
      </trkpt>
      <trkpt lat="45.93889" lon="6.53644">
        <ele>2317.6000976562</ele>
        <time>2015-02-07T10:18:30.000Z</time>
      </trkpt>
      <trkpt lat="45.93889" lon="6.53644">
        <ele>2317.8000488281</ele>
        <time>2015-02-07T10:18:40.000Z</time>
      </trkpt>
      <trkpt lat="45.93889" lon="6.53644">
        <ele>2317.8000488281</ele>
        <time>2015-02-07T10:18:57.000Z</time>
      </trkpt>
      <trkpt lat="45.93889" lon="6.53644">
        <ele>2318</ele>
        <time>2015-02-07T10:19:11.000Z</time>
      </trkpt>
      <trkpt lat="45.93889" lon="6.53644">
        <ele>2318.1999511719</ele>
        <time>2015-02-07T10:19:21.000Z</time>
      </trkpt>
      <trkpt lat="45.93889" lon="6.53644">
        <ele>2318</ele>
        <time>2015-02-07T10:19:30.000Z</time>
      </trkpt>
      <trkpt lat="45.93889" lon="6.53644">
        <ele>2317.6000976562</ele>
        <time>2015-02-07T10:19:40.000Z</time>
      </trkpt>
      <trkpt lat="45.93889" lon="6.53644">
        <ele>2318.3999023438</ele>
        <time>2015-02-07T10:19:46.000Z</time>
      </trkpt>
      <trkpt lat="45.9389" lon="6.53645">
        <ele>2318.6000976562</ele>
        <time>2015-02-07T10:19:48.000Z</time>
      </trkpt>
      <trkpt lat="45.93891" lon="6.53645">
        <ele>2318.8000488281</ele>
        <time>2015-02-07T10:19:50.000Z</time>
      </trkpt>
      <trkpt lat="45.93894" lon="6.53647">
        <ele>2318.6000976562</ele>
        <time>2015-02-07T10:19:53.000Z</time>
      </trkpt>
      <trkpt lat="45.93898" lon="6.53649">
        <ele>2319</ele>
        <time>2015-02-07T10:19:59.000Z</time>
      </trkpt>
      <trkpt lat="45.93903" lon="6.53651">
        <ele>2319.6000976562</ele>
        <time>2015-02-07T10:20:04.000Z</time>
      </trkpt>
      <trkpt lat="45.93903" lon="6.53652">
        <ele>2319.8000488281</ele>
        <time>2015-02-07T10:20:05.000Z</time>
      </trkpt>
      <trkpt lat="45.93905" lon="6.53652">
        <ele>2320</ele>
        <time>2015-02-07T10:20:12.000Z</time>
      </trkpt>
      <trkpt lat="45.93905" lon="6.53652">
        <ele>2320.8000488281</ele>
        <time>2015-02-07T10:20:18.000Z</time>
      </trkpt>
      <trkpt lat="45.93905" lon="6.53652">
        <ele>2320.3999023438</ele>
        <time>2015-02-07T10:20:24.000Z</time>
      </trkpt>
      <trkpt lat="45.93906" lon="6.53654">
        <ele>2320.6000976562</ele>
        <time>2015-02-07T10:20:35.000Z</time>
      </trkpt>
      <trkpt lat="45.93909" lon="6.53656">
        <ele>2321.1999511719</ele>
        <time>2015-02-07T10:20:42.000Z</time>
      </trkpt>
      <trkpt lat="45.93913" lon="6.53657">
        <ele>2321.6000976562</ele>
        <time>2015-02-07T10:20:49.000Z</time>
      </trkpt>
      <trkpt lat="45.93916" lon="6.53658">
        <ele>2321.8000488281</ele>
        <time>2015-02-07T10:20:52.000Z</time>
      </trkpt>
      <trkpt lat="45.93918" lon="6.53658">
        <ele>2322.6000976562</ele>
        <time>2015-02-07T10:20:55.000Z</time>
      </trkpt>
      <trkpt lat="45.9392" lon="6.5366">
        <ele>2323</ele>
        <time>2015-02-07T10:20:58.000Z</time>
      </trkpt>
      <trkpt lat="45.93922" lon="6.5366">
        <ele>2323.6000976562</ele>
        <time>2015-02-07T10:21:01.000Z</time>
      </trkpt>
      <trkpt lat="45.93924" lon="6.53661">
        <ele>2324</ele>
        <time>2015-02-07T10:21:04.000Z</time>
      </trkpt>
      <trkpt lat="45.93925" lon="6.53662">
        <ele>2324.6000976562</ele>
        <time>2015-02-07T10:21:06.000Z</time>
      </trkpt>
      <trkpt lat="45.93928" lon="6.53663">
        <ele>2325</ele>
        <time>2015-02-07T10:21:09.000Z</time>
      </trkpt>
      <trkpt lat="45.9393" lon="6.53665">
        <ele>2325.6000976562</ele>
        <time>2015-02-07T10:21:13.000Z</time>
      </trkpt>
      <trkpt lat="45.93931" lon="6.53665">
        <ele>2326.1999511719</ele>
        <time>2015-02-07T10:21:16.000Z</time>
      </trkpt>
      <trkpt lat="45.93932" lon="6.53666">
        <ele>2326.8000488281</ele>
        <time>2015-02-07T10:21:20.000Z</time>
      </trkpt>
      <trkpt lat="45.93932" lon="6.53666">
        <ele>2327.1999511719</ele>
        <time>2015-02-07T10:21:21.000Z</time>
      </trkpt>
      <trkpt lat="45.93932" lon="6.53666">
        <ele>2327.6000976562</ele>
        <time>2015-02-07T10:21:33.000Z</time>
      </trkpt>
      <trkpt lat="45.93934" lon="6.53666">
        <ele>2327.6000976562</ele>
        <time>2015-02-07T10:21:44.000Z</time>
      </trkpt>
      <trkpt lat="45.93937" lon="6.53665">
        <ele>2327.3999023438</ele>
        <time>2015-02-07T10:21:47.000Z</time>
      </trkpt>
      <trkpt lat="45.9394" lon="6.53665">
        <ele>2328.1999511719</ele>
        <time>2015-02-07T10:21:53.000Z</time>
      </trkpt>
      <trkpt lat="45.93944" lon="6.53665">
        <ele>2329.1999511719</ele>
        <time>2015-02-07T10:22:00.000Z</time>
      </trkpt>
      <trkpt lat="45.93944" lon="6.53665">
        <ele>2329.1999511719</ele>
        <time>2015-02-07T10:22:02.000Z</time>
      </trkpt>
      <trkpt lat="45.93946" lon="6.53665">
        <ele>2329.3999023438</ele>
        <time>2015-02-07T10:22:07.000Z</time>
      </trkpt>
      <trkpt lat="45.93948" lon="6.53665">
        <ele>2329.6000976562</ele>
        <time>2015-02-07T10:22:14.000Z</time>
      </trkpt>
      <trkpt lat="45.9395" lon="6.53665">
        <ele>2329.8000488281</ele>
        <time>2015-02-07T10:22:22.000Z</time>
      </trkpt>
      <trkpt lat="45.93952" lon="6.53664">
        <ele>2330.1999511719</ele>
        <time>2015-02-07T10:22:29.000Z</time>
      </trkpt>
      <trkpt lat="45.93952" lon="6.53664">
        <ele>2330.3999023438</ele>
        <time>2015-02-07T10:22:30.000Z</time>
      </trkpt>
      <trkpt lat="45.93954" lon="6.53664">
        <ele>2330.3999023438</ele>
        <time>2015-02-07T10:22:37.000Z</time>
      </trkpt>
      <trkpt lat="45.93954" lon="6.53663">
        <ele>2330.6000976562</ele>
        <time>2015-02-07T10:22:48.000Z</time>
      </trkpt>
      <trkpt lat="45.93954" lon="6.53663">
        <ele>2331.3999023438</ele>
        <time>2015-02-07T10:22:59.000Z</time>
      </trkpt>
      <trkpt lat="45.93956" lon="6.53664">
        <ele>2331.3999023438</ele>
        <time>2015-02-07T10:23:07.000Z</time>
      </trkpt>
      <trkpt lat="45.93958" lon="6.53661">
        <ele>2331</ele>
        <time>2015-02-07T10:23:14.000Z</time>
      </trkpt>
      <trkpt lat="45.93957" lon="6.5366">
        <ele>2329.1999511719</ele>
        <time>2015-02-07T10:23:22.000Z</time>
      </trkpt>
      <trkpt lat="45.93957" lon="6.5366">
        <ele>2328.6000976562</ele>
        <time>2015-02-07T10:23:30.000Z</time>
      </trkpt>
      <trkpt lat="45.93957" lon="6.5366">
        <ele>2328.8000488281</ele>
        <time>2015-02-07T10:23:31.000Z</time>
      </trkpt>
      <trkpt lat="45.93957" lon="6.5366">
        <ele>2329.6000976562</ele>
        <time>2015-02-07T10:23:42.000Z</time>
      </trkpt>
      <trkpt lat="45.9396" lon="6.53661">
        <ele>2329.8000488281</ele>
        <time>2015-02-07T10:23:51.000Z</time>
      </trkpt>
      <trkpt lat="45.93965" lon="6.53662">
        <ele>2330.1999511719</ele>
        <time>2015-02-07T10:23:56.000Z</time>
      </trkpt>
      <trkpt lat="45.93967" lon="6.53663">
        <ele>2330.3999023438</ele>
        <time>2015-02-07T10:23:58.000Z</time>
      </trkpt>
      <trkpt lat="45.93968" lon="6.53664">
        <ele>2331.1999511719</ele>
        <time>2015-02-07T10:24:02.000Z</time>
      </trkpt>
      <trkpt lat="45.93969" lon="6.53664">
        <ele>2331.6000976562</ele>
        <time>2015-02-07T10:24:05.000Z</time>
      </trkpt>
      <trkpt lat="45.93971" lon="6.53666">
        <ele>2332.3999023438</ele>
        <time>2015-02-07T10:24:10.000Z</time>
      </trkpt>
      <trkpt lat="45.93972" lon="6.53667">
        <ele>2332.6000976562</ele>
        <time>2015-02-07T10:24:12.000Z</time>
      </trkpt>
      <trkpt lat="45.93974" lon="6.53667">
        <ele>2333.6000976562</ele>
        <time>2015-02-07T10:24:16.000Z</time>
      </trkpt>
      <trkpt lat="45.93974" lon="6.53668">
        <ele>2334</ele>
        <time>2015-02-07T10:24:18.000Z</time>
      </trkpt>
      <trkpt lat="45.93975" lon="6.53669">
        <ele>2334.6000976562</ele>
        <time>2015-02-07T10:24:21.000Z</time>
      </trkpt>
      <trkpt lat="45.93977" lon="6.5367">
        <ele>2335</ele>
        <time>2015-02-07T10:24:26.000Z</time>
      </trkpt>
      <trkpt lat="45.93978" lon="6.5367">
        <ele>2335.1999511719</ele>
        <time>2015-02-07T10:24:37.000Z</time>
      </trkpt>
      <trkpt lat="45.93982" lon="6.53671">
        <ele>2335.8000488281</ele>
        <time>2015-02-07T10:24:41.000Z</time>
      </trkpt>
      <trkpt lat="45.93984" lon="6.53672">
        <ele>2336</ele>
        <time>2015-02-07T10:24:43.000Z</time>
      </trkpt>
      <trkpt lat="45.93989" lon="6.53672">
        <ele>2336.8000488281</ele>
        <time>2015-02-07T10:24:49.000Z</time>
      </trkpt>
      <trkpt lat="45.93989" lon="6.53672">
        <ele>2337.1999511719</ele>
        <time>2015-02-07T10:24:50.000Z</time>
      </trkpt>
      <trkpt lat="45.9399" lon="6.53673">
        <ele>2337.8000488281</ele>
        <time>2015-02-07T10:24:53.000Z</time>
      </trkpt>
      <trkpt lat="45.9399" lon="6.53674">
        <ele>2338.1999511719</ele>
        <time>2015-02-07T10:24:55.000Z</time>
      </trkpt>
      <trkpt lat="45.93991" lon="6.53676">
        <ele>2338.8000488281</ele>
        <time>2015-02-07T10:24:58.000Z</time>
      </trkpt>
      <trkpt lat="45.93991" lon="6.53678">
        <ele>2339.3999023438</ele>
        <time>2015-02-07T10:25:00.000Z</time>
      </trkpt>
      <trkpt lat="45.93992" lon="6.53682">
        <ele>2340</ele>
        <time>2015-02-07T10:25:04.000Z</time>
      </trkpt>
      <trkpt lat="45.93992" lon="6.53683">
        <ele>2340.1999511719</ele>
        <time>2015-02-07T10:25:05.000Z</time>
      </trkpt>
      <trkpt lat="45.93993" lon="6.53687">
        <ele>2341</ele>
        <time>2015-02-07T10:25:09.000Z</time>
      </trkpt>
      <trkpt lat="45.93993" lon="6.53688">
        <ele>2341.1999511719</ele>
        <time>2015-02-07T10:25:10.000Z</time>
      </trkpt>
      <trkpt lat="45.93993" lon="6.53689">
        <ele>2342</ele>
        <time>2015-02-07T10:25:14.000Z</time>
      </trkpt>
      <trkpt lat="45.93993" lon="6.53689">
        <ele>2342.1999511719</ele>
        <time>2015-02-07T10:25:24.000Z</time>
      </trkpt>
      <trkpt lat="45.93993" lon="6.53689">
        <ele>2341.8000488281</ele>
        <time>2015-02-07T10:25:38.000Z</time>
      </trkpt>
      <trkpt lat="45.93993" lon="6.53689">
        <ele>2342</ele>
        <time>2015-02-07T10:25:53.000Z</time>
      </trkpt>
      <trkpt lat="45.93994" lon="6.53692">
        <ele>2342.1999511719</ele>
        <time>2015-02-07T10:26:03.000Z</time>
      </trkpt>
      <trkpt lat="45.93994" lon="6.53693">
        <ele>2342.3999023438</ele>
        <time>2015-02-07T10:26:05.000Z</time>
      </trkpt>
      <trkpt lat="45.93996" lon="6.53697">
        <ele>2343.1999511719</ele>
        <time>2015-02-07T10:26:08.000Z</time>
      </trkpt>
      <trkpt lat="45.93997" lon="6.53699">
        <ele>2343.3999023438</ele>
        <time>2015-02-07T10:26:09.000Z</time>
      </trkpt>
      <trkpt lat="45.93998" lon="6.537">
        <ele>2343.3999023438</ele>
        <time>2015-02-07T10:26:10.000Z</time>
      </trkpt>
      <trkpt lat="45.93998" lon="6.53703">
        <ele>2343.3999023438</ele>
        <time>2015-02-07T10:26:11.000Z</time>
      </trkpt>
      <trkpt lat="45.94003" lon="6.5371">
        <ele>2344.1999511719</ele>
        <time>2015-02-07T10:26:16.000Z</time>
      </trkpt>
      <trkpt lat="45.94004" lon="6.53713">
        <ele>2344.6000976562</ele>
        <time>2015-02-07T10:26:18.000Z</time>
      </trkpt>
      <trkpt lat="45.94006" lon="6.53718">
        <ele>2344.6000976562</ele>
        <time>2015-02-07T10:26:21.000Z</time>
      </trkpt>
      <trkpt lat="45.94011" lon="6.53728">
        <ele>2344.8000488281</ele>
        <time>2015-02-07T10:26:27.000Z</time>
      </trkpt>
      <trkpt lat="45.94019" lon="6.53735">
        <ele>2343.3999023438</ele>
        <time>2015-02-07T10:26:32.000Z</time>
      </trkpt>
      <trkpt lat="45.94025" lon="6.53741">
        <ele>2342.3999023438</ele>
        <time>2015-02-07T10:26:38.000Z</time>
      </trkpt>
      <trkpt lat="45.9403" lon="6.53747">
        <ele>2342.8000488281</ele>
        <time>2015-02-07T10:26:43.000Z</time>
      </trkpt>
      <trkpt lat="45.94032" lon="6.53753">
        <ele>2343.6000976562</ele>
        <time>2015-02-07T10:26:49.000Z</time>
      </trkpt>
      <trkpt lat="45.94032" lon="6.53755">
        <ele>2344.3999023438</ele>
        <time>2015-02-07T10:26:54.000Z</time>
      </trkpt>
      <trkpt lat="45.94032" lon="6.53755">
        <ele>2345</ele>
        <time>2015-02-07T10:26:57.000Z</time>
      </trkpt>
      <trkpt lat="45.94031" lon="6.53756">
        <ele>2345.3999023438</ele>
        <time>2015-02-07T10:27:00.000Z</time>
      </trkpt>
      <trkpt lat="45.94032" lon="6.5376">
        <ele>2345.6000976562</ele>
        <time>2015-02-07T10:27:04.000Z</time>
      </trkpt>
      <trkpt lat="45.94033" lon="6.53765">
        <ele>2346.1999511719</ele>
        <time>2015-02-07T10:27:09.000Z</time>
      </trkpt>
      <trkpt lat="45.94032" lon="6.53767">
        <ele>2346.6000976562</ele>
        <time>2015-02-07T10:27:11.000Z</time>
      </trkpt>
      <trkpt lat="45.94031" lon="6.5377">
        <ele>2347</ele>
        <time>2015-02-07T10:27:13.000Z</time>
      </trkpt>
      <trkpt lat="45.9403" lon="6.53773">
        <ele>2347.8000488281</ele>
        <time>2015-02-07T10:27:17.000Z</time>
      </trkpt>
      <trkpt lat="45.94029" lon="6.53775">
        <ele>2348.6000976562</ele>
        <time>2015-02-07T10:27:20.000Z</time>
      </trkpt>
      <trkpt lat="45.94028" lon="6.53775">
        <ele>2348.8000488281</ele>
        <time>2015-02-07T10:27:21.000Z</time>
      </trkpt>
      <trkpt lat="45.94024" lon="6.53778">
        <ele>2349.8000488281</ele>
        <time>2015-02-07T10:27:26.000Z</time>
      </trkpt>
      <trkpt lat="45.94023" lon="6.53779">
        <ele>2350</ele>
        <time>2015-02-07T10:27:27.000Z</time>
      </trkpt>
      <trkpt lat="45.94018" lon="6.53782">
        <ele>2351.1999511719</ele>
        <time>2015-02-07T10:27:33.000Z</time>
      </trkpt>
      <trkpt lat="45.94016" lon="6.53786">
        <ele>2352.1999511719</ele>
        <time>2015-02-07T10:27:37.000Z</time>
      </trkpt>
      <trkpt lat="45.94014" lon="6.53788">
        <ele>2353</ele>
        <time>2015-02-07T10:27:41.000Z</time>
      </trkpt>
      <trkpt lat="45.94013" lon="6.53789">
        <ele>2353.3999023438</ele>
        <time>2015-02-07T10:27:42.000Z</time>
      </trkpt>
      <trkpt lat="45.94012" lon="6.53793">
        <ele>2354.1999511719</ele>
        <time>2015-02-07T10:27:48.000Z</time>
      </trkpt>
      <trkpt lat="45.94013" lon="6.53794">
        <ele>2354.3999023438</ele>
        <time>2015-02-07T10:27:49.000Z</time>
      </trkpt>
      <trkpt lat="45.94016" lon="6.53797">
        <ele>2355.6000976562</ele>
        <time>2015-02-07T10:27:54.000Z</time>
      </trkpt>
      <trkpt lat="45.94017" lon="6.53798">
        <ele>2355.8000488281</ele>
        <time>2015-02-07T10:27:55.000Z</time>
      </trkpt>
      <trkpt lat="45.9402" lon="6.53802">
        <ele>2356.6000976562</ele>
        <time>2015-02-07T10:28:01.000Z</time>
      </trkpt>
      <trkpt lat="45.94022" lon="6.53803">
        <ele>2356.8000488281</ele>
        <time>2015-02-07T10:28:03.000Z</time>
      </trkpt>
      <trkpt lat="45.94026" lon="6.53805">
        <ele>2357.8000488281</ele>
        <time>2015-02-07T10:28:06.000Z</time>
      </trkpt>
      <trkpt lat="45.9403" lon="6.53806">
        <ele>2358.3999023438</ele>
        <time>2015-02-07T10:28:11.000Z</time>
      </trkpt>
      <trkpt lat="45.94033" lon="6.53808">
        <ele>2359</ele>
        <time>2015-02-07T10:28:14.000Z</time>
      </trkpt>
      <trkpt lat="45.94034" lon="6.53811">
        <ele>2359.3999023438</ele>
        <time>2015-02-07T10:28:17.000Z</time>
      </trkpt>
      <trkpt lat="45.94035" lon="6.53813">
        <ele>2360</ele>
        <time>2015-02-07T10:28:21.000Z</time>
      </trkpt>
      <trkpt lat="45.94035" lon="6.53813">
        <ele>2360.6000976562</ele>
        <time>2015-02-07T10:28:23.000Z</time>
      </trkpt>
      <trkpt lat="45.94037" lon="6.53816">
        <ele>2361.1999511719</ele>
        <time>2015-02-07T10:28:27.000Z</time>
      </trkpt>
      <trkpt lat="45.94038" lon="6.53818">
        <ele>2361.3999023438</ele>
        <time>2015-02-07T10:28:29.000Z</time>
      </trkpt>
      <trkpt lat="45.94038" lon="6.5382">
        <ele>2362.1999511719</ele>
        <time>2015-02-07T10:28:32.000Z</time>
      </trkpt>
      <trkpt lat="45.9404" lon="6.53823">
        <ele>2362.8000488281</ele>
        <time>2015-02-07T10:28:35.000Z</time>
      </trkpt>
      <trkpt lat="45.9404" lon="6.53825">
        <ele>2363.1999511719</ele>
        <time>2015-02-07T10:28:38.000Z</time>
      </trkpt>
      <trkpt lat="45.94041" lon="6.53827">
        <ele>2363.6000976562</ele>
        <time>2015-02-07T10:28:40.000Z</time>
      </trkpt>
      <trkpt lat="45.94042" lon="6.53831">
        <ele>2364.3999023438</ele>
        <time>2015-02-07T10:28:44.000Z</time>
      </trkpt>
      <trkpt lat="45.94043" lon="6.53833">
        <ele>2365</ele>
        <time>2015-02-07T10:28:46.000Z</time>
      </trkpt>
      <trkpt lat="45.94046" lon="6.53836">
        <ele>2365.3999023438</ele>
        <time>2015-02-07T10:28:51.000Z</time>
      </trkpt>
      <trkpt lat="45.94046" lon="6.53837">
        <ele>2365.6000976562</ele>
        <time>2015-02-07T10:28:52.000Z</time>
      </trkpt>
      <trkpt lat="45.94048" lon="6.53843">
        <ele>2366.3999023438</ele>
        <time>2015-02-07T10:28:57.000Z</time>
      </trkpt>
      <trkpt lat="45.94047" lon="6.53846">
        <ele>2366.8000488281</ele>
        <time>2015-02-07T10:28:59.000Z</time>
      </trkpt>
      <trkpt lat="45.94047" lon="6.53851">
        <ele>2367.3999023438</ele>
        <time>2015-02-07T10:29:03.000Z</time>
      </trkpt>
      <trkpt lat="45.94048" lon="6.53854">
        <ele>2367.8000488281</ele>
        <time>2015-02-07T10:29:06.000Z</time>
      </trkpt>
      <trkpt lat="45.94049" lon="6.53858">
        <ele>2367.8000488281</ele>
        <time>2015-02-07T10:29:09.000Z</time>
      </trkpt>
      <trkpt lat="45.94051" lon="6.53862">
        <ele>2368.3999023438</ele>
        <time>2015-02-07T10:29:14.000Z</time>
      </trkpt>
      <trkpt lat="45.94051" lon="6.53865">
        <ele>2368.8000488281</ele>
        <time>2015-02-07T10:29:17.000Z</time>
      </trkpt>
      <trkpt lat="45.94052" lon="6.53868">
        <ele>2369.6000976562</ele>
        <time>2015-02-07T10:29:20.000Z</time>
      </trkpt>
      <trkpt lat="45.94052" lon="6.5387">
        <ele>2369.8000488281</ele>
        <time>2015-02-07T10:29:22.000Z</time>
      </trkpt>
      <trkpt lat="45.94054" lon="6.53873">
        <ele>2370.3999023438</ele>
        <time>2015-02-07T10:29:26.000Z</time>
      </trkpt>
      <trkpt lat="45.94058" lon="6.53877">
        <ele>2371</ele>
        <time>2015-02-07T10:29:31.000Z</time>
      </trkpt>
      <trkpt lat="45.94058" lon="6.5388">
        <ele>2371.3999023438</ele>
        <time>2015-02-07T10:29:33.000Z</time>
      </trkpt>
      <trkpt lat="45.9406" lon="6.53886">
        <ele>2372</ele>
        <time>2015-02-07T10:29:38.000Z</time>
      </trkpt>
      <trkpt lat="45.9406" lon="6.53887">
        <ele>2372.1999511719</ele>
        <time>2015-02-07T10:29:39.000Z</time>
      </trkpt>
      <trkpt lat="45.94061" lon="6.53893">
        <ele>2373</ele>
        <time>2015-02-07T10:29:44.000Z</time>
      </trkpt>
      <trkpt lat="45.94061" lon="6.53894">
        <ele>2373.1999511719</ele>
        <time>2015-02-07T10:29:45.000Z</time>
      </trkpt>
      <trkpt lat="45.94063" lon="6.53898">
        <ele>2374</ele>
        <time>2015-02-07T10:29:51.000Z</time>
      </trkpt>
      <trkpt lat="45.94063" lon="6.53903">
        <ele>2374.8000488281</ele>
        <time>2015-02-07T10:29:56.000Z</time>
      </trkpt>
      <trkpt lat="45.94062" lon="6.53905">
        <ele>2375.1999511719</ele>
        <time>2015-02-07T10:29:58.000Z</time>
      </trkpt>
      <trkpt lat="45.94063" lon="6.53908">
        <ele>2375.6000976562</ele>
        <time>2015-02-07T10:30:01.000Z</time>
      </trkpt>
      <trkpt lat="45.94062" lon="6.53914">
        <ele>2376.1999511719</ele>
        <time>2015-02-07T10:30:05.000Z</time>
      </trkpt>
      <trkpt lat="45.94061" lon="6.53918">
        <ele>2376.8000488281</ele>
        <time>2015-02-07T10:30:08.000Z</time>
      </trkpt>
      <trkpt lat="45.9406" lon="6.53921">
        <ele>2377.3999023438</ele>
        <time>2015-02-07T10:30:11.000Z</time>
      </trkpt>
      <trkpt lat="45.94061" lon="6.53923">
        <ele>2378</ele>
        <time>2015-02-07T10:30:14.000Z</time>
      </trkpt>
      <trkpt lat="45.94061" lon="6.53925">
        <ele>2378.3999023438</ele>
        <time>2015-02-07T10:30:17.000Z</time>
      </trkpt>
      <trkpt lat="45.9406" lon="6.53929">
        <ele>2378.8000488281</ele>
        <time>2015-02-07T10:30:21.000Z</time>
      </trkpt>
      <trkpt lat="45.94059" lon="6.53931">
        <ele>2379.6000976562</ele>
        <time>2015-02-07T10:30:25.000Z</time>
      </trkpt>
      <trkpt lat="45.94058" lon="6.53933">
        <ele>2379.8000488281</ele>
        <time>2015-02-07T10:30:27.000Z</time>
      </trkpt>
      <trkpt lat="45.94058" lon="6.53935">
        <ele>2380.6000976562</ele>
        <time>2015-02-07T10:30:31.000Z</time>
      </trkpt>
      <trkpt lat="45.94057" lon="6.53937">
        <ele>2381</ele>
        <time>2015-02-07T10:30:34.000Z</time>
      </trkpt>
      <trkpt lat="45.94056" lon="6.53939">
        <ele>2381.6000976562</ele>
        <time>2015-02-07T10:30:39.000Z</time>
      </trkpt>
      <trkpt lat="45.94054" lon="6.53943">
        <ele>2382.6000976562</ele>
        <time>2015-02-07T10:30:46.000Z</time>
      </trkpt>
      <trkpt lat="45.94054" lon="6.53944">
        <ele>2382.8000488281</ele>
        <time>2015-02-07T10:30:47.000Z</time>
      </trkpt>
      <trkpt lat="45.94051" lon="6.53944">
        <ele>2384</ele>
        <time>2015-02-07T10:30:52.000Z</time>
      </trkpt>
      <trkpt lat="45.9405" lon="6.53944">
        <ele>2384.3999023438</ele>
        <time>2015-02-07T10:30:54.000Z</time>
      </trkpt>
      <trkpt lat="45.94049" lon="6.53945">
        <ele>2385</ele>
        <time>2015-02-07T10:30:57.000Z</time>
      </trkpt>
      <trkpt lat="45.94049" lon="6.53945">
        <ele>2385.3999023438</ele>
        <time>2015-02-07T10:31:05.000Z</time>
      </trkpt>
      <trkpt lat="45.94049" lon="6.53945">
        <ele>2385.3999023438</ele>
        <time>2015-02-07T10:31:11.000Z</time>
      </trkpt>
      <trkpt lat="45.94049" lon="6.53945">
        <ele>2385.3999023438</ele>
        <time>2015-02-07T10:31:28.000Z</time>
      </trkpt>
      <trkpt lat="45.94047" lon="6.53945">
        <ele>2385.3999023438</ele>
        <time>2015-02-07T10:31:40.000Z</time>
      </trkpt>
      <trkpt lat="45.94043" lon="6.53946">
        <ele>2386</ele>
        <time>2015-02-07T10:31:45.000Z</time>
      </trkpt>
      <trkpt lat="45.94042" lon="6.53947">
        <ele>2386.1999511719</ele>
        <time>2015-02-07T10:31:46.000Z</time>
      </trkpt>
      <trkpt lat="45.94038" lon="6.53947">
        <ele>2387.1999511719</ele>
        <time>2015-02-07T10:31:51.000Z</time>
      </trkpt>
      <trkpt lat="45.94036" lon="6.53947">
        <ele>2387.8000488281</ele>
        <time>2015-02-07T10:31:54.000Z</time>
      </trkpt>
      <trkpt lat="45.94034" lon="6.53947">
        <ele>2388.3999023438</ele>
        <time>2015-02-07T10:31:57.000Z</time>
      </trkpt>
      <trkpt lat="45.94031" lon="6.53946">
        <ele>2389.3999023438</ele>
        <time>2015-02-07T10:32:02.000Z</time>
      </trkpt>
      <trkpt lat="45.9403" lon="6.53946">
        <ele>2389.6000976562</ele>
        <time>2015-02-07T10:32:03.000Z</time>
      </trkpt>
      <trkpt lat="45.94028" lon="6.53945">
        <ele>2390.3999023438</ele>
        <time>2015-02-07T10:32:07.000Z</time>
      </trkpt>
      <trkpt lat="45.94027" lon="6.53944">
        <ele>2391</ele>
        <time>2015-02-07T10:32:10.000Z</time>
      </trkpt>
      <trkpt lat="45.94027" lon="6.53946">
        <ele>2391.6000976562</ele>
        <time>2015-02-07T10:32:14.000Z</time>
      </trkpt>
      <trkpt lat="45.94029" lon="6.5395">
        <ele>2391.8000488281</ele>
        <time>2015-02-07T10:32:18.000Z</time>
      </trkpt>
      <trkpt lat="45.94032" lon="6.53956">
        <ele>2392.6000976562</ele>
        <time>2015-02-07T10:32:24.000Z</time>
      </trkpt>
      <trkpt lat="45.94032" lon="6.53957">
        <ele>2393</ele>
        <time>2015-02-07T10:32:26.000Z</time>
      </trkpt>
      <trkpt lat="45.94033" lon="6.53959">
        <ele>2393.8000488281</ele>
        <time>2015-02-07T10:32:30.000Z</time>
      </trkpt>
      <trkpt lat="45.94035" lon="6.5396">
        <ele>2394.3999023438</ele>
        <time>2015-02-07T10:32:34.000Z</time>
      </trkpt>
      <trkpt lat="45.94039" lon="6.53963">
        <ele>2394.6000976562</ele>
        <time>2015-02-07T10:32:41.000Z</time>
      </trkpt>
      <trkpt lat="45.94041" lon="6.53966">
        <ele>2394.6000976562</ele>
        <time>2015-02-07T10:32:49.000Z</time>
      </trkpt>
      <trkpt lat="45.94044" lon="6.53968">
        <ele>2395</ele>
        <time>2015-02-07T10:32:54.000Z</time>
      </trkpt>
      <trkpt lat="45.94045" lon="6.53969">
        <ele>2395.3999023438</ele>
        <time>2015-02-07T10:32:57.000Z</time>
      </trkpt>
      <trkpt lat="45.94047" lon="6.53971">
        <ele>2396</ele>
        <time>2015-02-07T10:33:05.000Z</time>
      </trkpt>
      <trkpt lat="45.94049" lon="6.53973">
        <ele>2397</ele>
        <time>2015-02-07T10:33:13.000Z</time>
      </trkpt>
      <trkpt lat="45.9405" lon="6.53973">
        <ele>2397</ele>
        <time>2015-02-07T10:33:15.000Z</time>
      </trkpt>
      <trkpt lat="45.94054" lon="6.53974">
        <ele>2398</ele>
        <time>2015-02-07T10:33:20.000Z</time>
      </trkpt>
      <trkpt lat="45.94054" lon="6.53974">
        <ele>2398.1999511719</ele>
        <time>2015-02-07T10:33:22.000Z</time>
      </trkpt>
      <trkpt lat="45.94055" lon="6.53976">
        <ele>2398.8000488281</ele>
        <time>2015-02-07T10:33:26.000Z</time>
      </trkpt>
      <trkpt lat="45.94054" lon="6.53976">
        <ele>2399.6000976562</ele>
        <time>2015-02-07T10:33:32.000Z</time>
      </trkpt>
      <trkpt lat="45.94051" lon="6.53979">
        <ele>2400</ele>
        <time>2015-02-07T10:33:39.000Z</time>
      </trkpt>
      <trkpt lat="45.94045" lon="6.5398">
        <ele>2400.6000976562</ele>
        <time>2015-02-07T10:33:46.000Z</time>
      </trkpt>
      <trkpt lat="45.94044" lon="6.5398">
        <ele>2400.8000488281</ele>
        <time>2015-02-07T10:33:47.000Z</time>
      </trkpt>
      <trkpt lat="45.94044" lon="6.53981">
        <ele>2401</ele>
        <time>2015-02-07T10:33:48.000Z</time>
      </trkpt>
      <trkpt lat="45.94042" lon="6.53982">
        <ele>2401.3999023438</ele>
        <time>2015-02-07T10:33:51.000Z</time>
      </trkpt>
      <trkpt lat="45.9404" lon="6.53982">
        <ele>2401.8000488281</ele>
        <time>2015-02-07T10:33:53.000Z</time>
      </trkpt>
      <trkpt lat="45.94038" lon="6.53983">
        <ele>2402.6000976562</ele>
        <time>2015-02-07T10:33:59.000Z</time>
      </trkpt>
      <trkpt lat="45.94038" lon="6.53983">
        <ele>2402.8000488281</ele>
        <time>2015-02-07T10:34:00.000Z</time>
      </trkpt>
      <trkpt lat="45.94036" lon="6.53983">
        <ele>2404</ele>
        <time>2015-02-07T10:34:05.000Z</time>
      </trkpt>
      <trkpt lat="45.94036" lon="6.53983">
        <ele>2405</ele>
        <time>2015-02-07T10:34:09.000Z</time>
      </trkpt>
      <trkpt lat="45.94036" lon="6.53983">
        <ele>2405.1999511719</ele>
        <time>2015-02-07T10:34:17.000Z</time>
      </trkpt>
      <trkpt lat="45.94036" lon="6.53983">
        <ele>2406.1999511719</ele>
        <time>2015-02-07T10:34:26.000Z</time>
      </trkpt>
      <trkpt lat="45.94035" lon="6.53983">
        <ele>2406.8000488281</ele>
        <time>2015-02-07T10:34:37.000Z</time>
      </trkpt>
      <trkpt lat="45.94035" lon="6.53983">
        <ele>2407.1999511719</ele>
        <time>2015-02-07T10:34:41.000Z</time>
      </trkpt>
      <trkpt lat="45.94035" lon="6.53983">
        <ele>2407.3999023438</ele>
        <time>2015-02-07T10:34:52.000Z</time>
      </trkpt>
      <trkpt lat="45.94035" lon="6.53983">
        <ele>2407.3999023438</ele>
        <time>2015-02-07T10:35:08.000Z</time>
      </trkpt>
      <trkpt lat="45.94035" lon="6.53983">
        <ele>2407.3999023438</ele>
        <time>2015-02-07T10:35:23.000Z</time>
      </trkpt>
      <trkpt lat="45.94035" lon="6.53983">
        <ele>2407.3999023438</ele>
        <time>2015-02-07T10:35:36.000Z</time>
      </trkpt>
      <trkpt lat="45.94035" lon="6.53983">
        <ele>2407.1999511719</ele>
        <time>2015-02-07T10:35:50.000Z</time>
      </trkpt>
      <trkpt lat="45.94035" lon="6.53983">
        <ele>2406.8000488281</ele>
        <time>2015-02-07T10:35:59.000Z</time>
      </trkpt>
      <trkpt lat="45.94035" lon="6.53983">
        <ele>2407.3999023438</ele>
        <time>2015-02-07T10:36:13.000Z</time>
      </trkpt>
      <trkpt lat="45.94035" lon="6.53983">
        <ele>2406.6000976562</ele>
        <time>2015-02-07T10:36:28.000Z</time>
      </trkpt>
      <trkpt lat="45.94035" lon="6.53983">
        <ele>2407</ele>
        <time>2015-02-07T10:36:40.000Z</time>
      </trkpt>
      <trkpt lat="45.94035" lon="6.53983">
        <ele>2406.8000488281</ele>
        <time>2015-02-07T10:36:56.000Z</time>
      </trkpt>
      <trkpt lat="45.94035" lon="6.53983">
        <ele>2406.8000488281</ele>
        <time>2015-02-07T10:37:15.000Z</time>
      </trkpt>
      <trkpt lat="45.94035" lon="6.53983">
        <ele>2406.8000488281</ele>
        <time>2015-02-07T10:37:33.000Z</time>
      </trkpt>
      <trkpt lat="45.94035" lon="6.53983">
        <ele>2406.6000976562</ele>
        <time>2015-02-07T10:37:52.000Z</time>
      </trkpt>
      <trkpt lat="45.94035" lon="6.53982">
        <ele>2406.8000488281</ele>
        <time>2015-02-07T10:38:09.000Z</time>
      </trkpt>
      <trkpt lat="45.94035" lon="6.53982">
        <ele>2406</ele>
        <time>2015-02-07T10:38:14.000Z</time>
      </trkpt>
      <trkpt lat="45.94035" lon="6.53982">
        <ele>2407</ele>
        <time>2015-02-07T10:38:23.000Z</time>
      </trkpt>
      <trkpt lat="45.94035" lon="6.53982">
        <ele>2406.8000488281</ele>
        <time>2015-02-07T10:38:37.000Z</time>
      </trkpt>
      <trkpt lat="45.94035" lon="6.53982">
        <ele>2407</ele>
        <time>2015-02-07T10:38:40.000Z</time>
      </trkpt>
      <trkpt lat="45.94035" lon="6.53982">
        <ele>2407.1999511719</ele>
        <time>2015-02-07T10:38:45.000Z</time>
      </trkpt>
      <trkpt lat="45.94035" lon="6.53982">
        <ele>2407</ele>
        <time>2015-02-07T10:38:59.000Z</time>
      </trkpt>
      <trkpt lat="45.94035" lon="6.53982">
        <ele>2406.3999023438</ele>
        <time>2015-02-07T10:39:11.000Z</time>
      </trkpt>
      <trkpt lat="45.94035" lon="6.53983">
        <ele>2406.6000976562</ele>
        <time>2015-02-07T10:39:23.000Z</time>
      </trkpt>
      <trkpt lat="45.94035" lon="6.53983">
        <ele>2406.6000976562</ele>
        <time>2015-02-07T10:39:38.000Z</time>
      </trkpt>
      <trkpt lat="45.94035" lon="6.53983">
        <ele>2406.6000976562</ele>
        <time>2015-02-07T10:39:48.000Z</time>
      </trkpt>
      <trkpt lat="45.94034" lon="6.53983">
        <ele>2406.6000976562</ele>
        <time>2015-02-07T10:40:02.000Z</time>
      </trkpt>
      <trkpt lat="45.94034" lon="6.53983">
        <ele>2406.3999023438</ele>
        <time>2015-02-07T10:40:16.000Z</time>
      </trkpt>
      <trkpt lat="45.94034" lon="6.53983">
        <ele>2406.1999511719</ele>
        <time>2015-02-07T10:40:33.000Z</time>
      </trkpt>
      <trkpt lat="45.94034" lon="6.53982">
        <ele>2406.3999023438</ele>
        <time>2015-02-07T10:40:58.000Z</time>
      </trkpt>
      <trkpt lat="45.94034" lon="6.53982">
        <ele>2406.6000976562</ele>
        <time>2015-02-07T10:41:14.000Z</time>
      </trkpt>
      <trkpt lat="45.94034" lon="6.53982">
        <ele>2406.3999023438</ele>
        <time>2015-02-07T10:41:28.000Z</time>
      </trkpt>
      <trkpt lat="45.94034" lon="6.53982">
        <ele>2406.3999023438</ele>
        <time>2015-02-07T10:41:44.000Z</time>
      </trkpt>
      <trkpt lat="45.94034" lon="6.53982">
        <ele>2406.3999023438</ele>
        <time>2015-02-07T10:41:56.000Z</time>
      </trkpt>
      <trkpt lat="45.94034" lon="6.53982">
        <ele>2406.3999023438</ele>
        <time>2015-02-07T10:42:08.000Z</time>
      </trkpt>
      <trkpt lat="45.94034" lon="6.53982">
        <ele>2406.3999023438</ele>
        <time>2015-02-07T10:42:24.000Z</time>
      </trkpt>
      <trkpt lat="45.94034" lon="6.53982">
        <ele>2406.6000976562</ele>
        <time>2015-02-07T10:42:44.000Z</time>
      </trkpt>
      <trkpt lat="45.94034" lon="6.53982">
        <ele>2406</ele>
        <time>2015-02-07T10:42:59.000Z</time>
      </trkpt>
      <trkpt lat="45.94034" lon="6.53982">
        <ele>2406.8000488281</ele>
        <time>2015-02-07T10:43:10.000Z</time>
      </trkpt>
      <trkpt lat="45.94034" lon="6.53983">
        <ele>2406.6000976562</ele>
        <time>2015-02-07T10:43:27.000Z</time>
      </trkpt>
      <trkpt lat="45.94033" lon="6.53983">
        <ele>2406.8000488281</ele>
        <time>2015-02-07T10:43:37.000Z</time>
      </trkpt>
      <trkpt lat="45.94033" lon="6.53983">
        <ele>2406.3999023438</ele>
        <time>2015-02-07T10:43:47.000Z</time>
      </trkpt>
      <trkpt lat="45.94033" lon="6.53983">
        <ele>2407</ele>
        <time>2015-02-07T10:43:58.000Z</time>
      </trkpt>
      <trkpt lat="45.94033" lon="6.53983">
        <ele>2407</ele>
        <time>2015-02-07T10:44:05.000Z</time>
      </trkpt>
      <trkpt lat="45.94033" lon="6.53983">
        <ele>2406.6000976562</ele>
        <time>2015-02-07T10:44:18.000Z</time>
      </trkpt>
      <trkpt lat="45.94033" lon="6.53983">
        <ele>2406.3999023438</ele>
        <time>2015-02-07T10:44:27.000Z</time>
      </trkpt>
      <trkpt lat="45.94033" lon="6.53983">
        <ele>2407</ele>
        <time>2015-02-07T10:44:38.000Z</time>
      </trkpt>
      <trkpt lat="45.94033" lon="6.53983">
        <ele>2406.8000488281</ele>
        <time>2015-02-07T10:44:48.000Z</time>
      </trkpt>
      <trkpt lat="45.94033" lon="6.53983">
        <ele>2406.8000488281</ele>
        <time>2015-02-07T10:44:56.000Z</time>
      </trkpt>
      <trkpt lat="45.94033" lon="6.53983">
        <ele>2406.8000488281</ele>
        <time>2015-02-07T10:45:00.000Z</time>
      </trkpt>
      <trkpt lat="45.94033" lon="6.53983">
        <ele>2406.3999023438</ele>
        <time>2015-02-07T10:45:11.000Z</time>
      </trkpt>
      <trkpt lat="45.94033" lon="6.53983">
        <ele>2406.6000976562</ele>
        <time>2015-02-07T10:45:24.000Z</time>
      </trkpt>
      <trkpt lat="45.94033" lon="6.53983">
        <ele>2406.1999511719</ele>
        <time>2015-02-07T10:45:42.000Z</time>
      </trkpt>
      <trkpt lat="45.94033" lon="6.53983">
        <ele>2406.1999511719</ele>
        <time>2015-02-07T10:45:45.000Z</time>
      </trkpt>
      <trkpt lat="45.94033" lon="6.53983">
        <ele>2406.1999511719</ele>
        <time>2015-02-07T10:45:55.000Z</time>
      </trkpt>
      <trkpt lat="45.94033" lon="6.53984">
        <ele>2406.3999023438</ele>
        <time>2015-02-07T10:46:13.000Z</time>
      </trkpt>
      <trkpt lat="45.94033" lon="6.53984">
        <ele>2406.1999511719</ele>
        <time>2015-02-07T10:46:31.000Z</time>
      </trkpt>
      <trkpt lat="45.94033" lon="6.53984">
        <ele>2406.3999023438</ele>
        <time>2015-02-07T10:46:44.000Z</time>
      </trkpt>
      <trkpt lat="45.94033" lon="6.53984">
        <ele>2406.3999023438</ele>
        <time>2015-02-07T10:47:05.000Z</time>
      </trkpt>
      <trkpt lat="45.94033" lon="6.53984">
        <ele>2406</ele>
        <time>2015-02-07T10:47:15.000Z</time>
      </trkpt>
      <trkpt lat="45.94033" lon="6.53984">
        <ele>2406.3999023438</ele>
        <time>2015-02-07T10:47:21.000Z</time>
      </trkpt>
      <trkpt lat="45.94033" lon="6.53984">
        <ele>2406.3999023438</ele>
        <time>2015-02-07T10:47:40.000Z</time>
      </trkpt>
      <trkpt lat="45.94033" lon="6.53984">
        <ele>2406.1999511719</ele>
        <time>2015-02-07T10:47:55.000Z</time>
      </trkpt>
      <trkpt lat="45.94033" lon="6.53984">
        <ele>2406.1999511719</ele>
        <time>2015-02-07T10:48:14.000Z</time>
      </trkpt>
      <trkpt lat="45.94033" lon="6.53984">
        <ele>2406.1999511719</ele>
        <time>2015-02-07T10:48:16.000Z</time>
      </trkpt>
      <trkpt lat="45.94033" lon="6.53984">
        <ele>2406.6000976562</ele>
        <time>2015-02-07T10:48:33.000Z</time>
      </trkpt>
      <trkpt lat="45.94033" lon="6.53984">
        <ele>2406.3999023438</ele>
        <time>2015-02-07T10:48:47.000Z</time>
      </trkpt>
      <trkpt lat="45.94033" lon="6.53984">
        <ele>2406</ele>
        <time>2015-02-07T10:49:00.000Z</time>
      </trkpt>
      <trkpt lat="45.94033" lon="6.53984">
        <ele>2406.8000488281</ele>
        <time>2015-02-07T10:49:14.000Z</time>
      </trkpt>
      <trkpt lat="45.94033" lon="6.53984">
        <ele>2406.1999511719</ele>
        <time>2015-02-07T10:49:30.000Z</time>
      </trkpt>
      <trkpt lat="45.94033" lon="6.53984">
        <ele>2406.6000976562</ele>
        <time>2015-02-07T10:49:45.000Z</time>
      </trkpt>
      <trkpt lat="45.94033" lon="6.53984">
        <ele>2406.1999511719</ele>
        <time>2015-02-07T10:49:59.000Z</time>
      </trkpt>
      <trkpt lat="45.94033" lon="6.53984">
        <ele>2406.3999023438</ele>
        <time>2015-02-07T10:50:13.000Z</time>
      </trkpt>
      <trkpt lat="45.94033" lon="6.53984">
        <ele>2406.3999023438</ele>
        <time>2015-02-07T10:50:29.000Z</time>
      </trkpt>
      <trkpt lat="45.94033" lon="6.53984">
        <ele>2406.3999023438</ele>
        <time>2015-02-07T10:50:45.000Z</time>
      </trkpt>
      <trkpt lat="45.94033" lon="6.53983">
        <ele>2406.3999023438</ele>
        <time>2015-02-07T10:51:00.000Z</time>
      </trkpt>
      <trkpt lat="45.94033" lon="6.53983">
        <ele>2406.3999023438</ele>
        <time>2015-02-07T10:51:14.000Z</time>
      </trkpt>
      <trkpt lat="45.94033" lon="6.53983">
        <ele>2406.1999511719</ele>
        <time>2015-02-07T10:51:29.000Z</time>
      </trkpt>
      <trkpt lat="45.94033" lon="6.53983">
        <ele>2406.3999023438</ele>
        <time>2015-02-07T10:51:42.000Z</time>
      </trkpt>
      <trkpt lat="45.94033" lon="6.53983">
        <ele>2406</ele>
        <time>2015-02-07T10:51:57.000Z</time>
      </trkpt>
      <trkpt lat="45.94033" lon="6.53983">
        <ele>2406.3999023438</ele>
        <time>2015-02-07T10:52:10.000Z</time>
      </trkpt>
      <trkpt lat="45.94033" lon="6.53983">
        <ele>2406.3999023438</ele>
        <time>2015-02-07T10:52:27.000Z</time>
      </trkpt>
      <trkpt lat="45.94033" lon="6.53983">
        <ele>2405.8000488281</ele>
        <time>2015-02-07T10:52:43.000Z</time>
      </trkpt>
      <trkpt lat="45.94033" lon="6.53983">
        <ele>2406</ele>
        <time>2015-02-07T10:52:55.000Z</time>
      </trkpt>
      <trkpt lat="45.94033" lon="6.53983">
        <ele>2406.3999023438</ele>
        <time>2015-02-07T10:53:06.000Z</time>
      </trkpt>
      <trkpt lat="45.94033" lon="6.53983">
        <ele>2406</ele>
        <time>2015-02-07T10:53:19.000Z</time>
      </trkpt>
      <trkpt lat="45.94033" lon="6.53983">
        <ele>2406</ele>
        <time>2015-02-07T10:53:28.000Z</time>
      </trkpt>
      <trkpt lat="45.94033" lon="6.53983">
        <ele>2406.1999511719</ele>
        <time>2015-02-07T10:53:41.000Z</time>
      </trkpt>
      <trkpt lat="45.94033" lon="6.53983">
        <ele>2406.1999511719</ele>
        <time>2015-02-07T10:53:58.000Z</time>
      </trkpt>
      <trkpt lat="45.94032" lon="6.53983">
        <ele>2406.1999511719</ele>
        <time>2015-02-07T10:54:15.000Z</time>
      </trkpt>
      <trkpt lat="45.94032" lon="6.53983">
        <ele>2406.1999511719</ele>
        <time>2015-02-07T10:54:38.000Z</time>
      </trkpt>
      <trkpt lat="45.94032" lon="6.53983">
        <ele>2406.1999511719</ele>
        <time>2015-02-07T10:54:55.000Z</time>
      </trkpt>
      <trkpt lat="45.94032" lon="6.53983">
        <ele>2406.1999511719</ele>
        <time>2015-02-07T10:55:12.000Z</time>
      </trkpt>
      <trkpt lat="45.94032" lon="6.53983">
        <ele>2406</ele>
        <time>2015-02-07T10:55:31.000Z</time>
      </trkpt>
      <trkpt lat="45.94032" lon="6.53983">
        <ele>2406</ele>
        <time>2015-02-07T10:55:44.000Z</time>
      </trkpt>
      <trkpt lat="45.94032" lon="6.53983">
        <ele>2406.1999511719</ele>
        <time>2015-02-07T10:55:53.000Z</time>
      </trkpt>
      <trkpt lat="45.94032" lon="6.53983">
        <ele>2406</ele>
        <time>2015-02-07T10:56:08.000Z</time>
      </trkpt>
      <trkpt lat="45.94035" lon="6.53982">
        <ele>2405.8000488281</ele>
        <time>2015-02-07T10:56:16.000Z</time>
      </trkpt>
      <trkpt lat="45.94051" lon="6.53975">
        <ele>2405.1999511719</ele>
        <time>2015-02-07T10:56:19.000Z</time>
      </trkpt>
      <trkpt lat="45.94057" lon="6.53973">
        <ele>2404.8000488281</ele>
        <time>2015-02-07T10:56:20.000Z</time>
      </trkpt>
      <trkpt lat="45.94062" lon="6.5397">
        <ele>2404.3999023438</ele>
        <time>2015-02-07T10:56:21.000Z</time>
      </trkpt>
      <trkpt lat="45.94066" lon="6.53967">
        <ele>2403.8000488281</ele>
        <time>2015-02-07T10:56:22.000Z</time>
      </trkpt>
      <trkpt lat="45.94068" lon="6.53966">
        <ele>2402.3999023438</ele>
        <time>2015-02-07T10:56:24.000Z</time>
      </trkpt>
      <trkpt lat="45.94067" lon="6.53966">
        <ele>2401.6000976562</ele>
        <time>2015-02-07T10:56:25.000Z</time>
      </trkpt>
      <trkpt lat="45.94067" lon="6.53966">
        <ele>2400.6000976562</ele>
        <time>2015-02-07T10:56:26.000Z</time>
      </trkpt>
      <trkpt lat="45.94067" lon="6.53967">
        <ele>2398.8000488281</ele>
        <time>2015-02-07T10:56:28.000Z</time>
      </trkpt>
      <trkpt lat="45.94066" lon="6.53967">
        <ele>2398</ele>
        <time>2015-02-07T10:56:33.000Z</time>
      </trkpt>
      <trkpt lat="45.94066" lon="6.53967">
        <ele>2397.8000488281</ele>
        <time>2015-02-07T10:56:36.000Z</time>
      </trkpt>
      <trkpt lat="45.94066" lon="6.53967">
        <ele>2397.8000488281</ele>
        <time>2015-02-07T10:56:40.000Z</time>
      </trkpt>
      <trkpt lat="45.94066" lon="6.53967">
        <ele>2397.6000976562</ele>
        <time>2015-02-07T10:56:54.000Z</time>
      </trkpt>
      <trkpt lat="45.94066" lon="6.53967">
        <ele>2397.8000488281</ele>
        <time>2015-02-07T10:57:07.000Z</time>
      </trkpt>
      <trkpt lat="45.94066" lon="6.53967">
        <ele>2397.6000976562</ele>
        <time>2015-02-07T10:57:21.000Z</time>
      </trkpt>
      <trkpt lat="45.94066" lon="6.53967">
        <ele>2397.6000976562</ele>
        <time>2015-02-07T10:57:36.000Z</time>
      </trkpt>
      <trkpt lat="45.94067" lon="6.53968">
        <ele>2397.6000976562</ele>
        <time>2015-02-07T10:57:52.000Z</time>
      </trkpt>
      <trkpt lat="45.94067" lon="6.53968">
        <ele>2397.6000976562</ele>
        <time>2015-02-07T10:58:09.000Z</time>
      </trkpt>
      <trkpt lat="45.94067" lon="6.53968">
        <ele>2397.3999023438</ele>
        <time>2015-02-07T10:58:23.000Z</time>
      </trkpt>
      <trkpt lat="45.94068" lon="6.53968">
        <ele>2397.3999023438</ele>
        <time>2015-02-07T10:58:38.000Z</time>
      </trkpt>
      <trkpt lat="45.94068" lon="6.53968">
        <ele>2397.3999023438</ele>
        <time>2015-02-07T10:58:52.000Z</time>
      </trkpt>
      <trkpt lat="45.94068" lon="6.53968">
        <ele>2397</ele>
        <time>2015-02-07T10:59:08.000Z</time>
      </trkpt>
      <trkpt lat="45.94068" lon="6.53969">
        <ele>2396.8000488281</ele>
        <time>2015-02-07T10:59:10.000Z</time>
      </trkpt>
      <trkpt lat="45.94068" lon="6.53969">
        <ele>2397.8000488281</ele>
        <time>2015-02-07T10:59:15.000Z</time>
      </trkpt>
      <trkpt lat="45.94068" lon="6.53969">
        <ele>2397.3999023438</ele>
        <time>2015-02-07T10:59:22.000Z</time>
      </trkpt>
      <trkpt lat="45.94068" lon="6.53969">
        <ele>2397.6000976562</ele>
        <time>2015-02-07T10:59:36.000Z</time>
      </trkpt>
      <trkpt lat="45.94068" lon="6.53969">
        <ele>2397.6000976562</ele>
        <time>2015-02-07T10:59:42.000Z</time>
      </trkpt>
      <trkpt lat="45.94069" lon="6.53969">
        <ele>2397.6000976562</ele>
        <time>2015-02-07T10:59:53.000Z</time>
      </trkpt>
      <trkpt lat="45.94069" lon="6.53969">
        <ele>2397.6000976562</ele>
        <time>2015-02-07T11:00:08.000Z</time>
      </trkpt>
      <trkpt lat="45.94069" lon="6.53969">
        <ele>2397.6000976562</ele>
        <time>2015-02-07T11:00:23.000Z</time>
      </trkpt>
      <trkpt lat="45.94069" lon="6.5397">
        <ele>2397.6000976562</ele>
        <time>2015-02-07T11:00:33.000Z</time>
      </trkpt>
      <trkpt lat="45.94069" lon="6.5397">
        <ele>2397.6000976562</ele>
        <time>2015-02-07T11:00:46.000Z</time>
      </trkpt>
      <trkpt lat="45.94069" lon="6.5397">
        <ele>2397.6000976562</ele>
        <time>2015-02-07T11:00:59.000Z</time>
      </trkpt>
      <trkpt lat="45.94069" lon="6.5397">
        <ele>2397.6000976562</ele>
        <time>2015-02-07T11:01:10.000Z</time>
      </trkpt>
      <trkpt lat="45.94069" lon="6.5397">
        <ele>2397.6000976562</ele>
        <time>2015-02-07T11:01:12.000Z</time>
      </trkpt>
      <trkpt lat="45.94069" lon="6.5397">
        <ele>2397.8000488281</ele>
        <time>2015-02-07T11:01:30.000Z</time>
      </trkpt>
      <trkpt lat="45.94069" lon="6.5397">
        <ele>2397.6000976562</ele>
        <time>2015-02-07T11:01:43.000Z</time>
      </trkpt>
      <trkpt lat="45.94069" lon="6.5397">
        <ele>2397.6000976562</ele>
        <time>2015-02-07T11:01:54.000Z</time>
      </trkpt>
      <trkpt lat="45.94069" lon="6.5397">
        <ele>2397.6000976562</ele>
        <time>2015-02-07T11:02:07.000Z</time>
      </trkpt>
      <trkpt lat="45.94069" lon="6.5397">
        <ele>2397.6000976562</ele>
        <time>2015-02-07T11:02:18.000Z</time>
      </trkpt>
      <trkpt lat="45.94069" lon="6.5397">
        <ele>2397.6000976562</ele>
        <time>2015-02-07T11:02:30.000Z</time>
      </trkpt>
      <trkpt lat="45.94069" lon="6.5397">
        <ele>2397.6000976562</ele>
        <time>2015-02-07T11:02:33.000Z</time>
      </trkpt>
      <trkpt lat="45.94069" lon="6.5397">
        <ele>2397.6000976562</ele>
        <time>2015-02-07T11:02:44.000Z</time>
      </trkpt>
      <trkpt lat="45.94069" lon="6.5397">
        <ele>2397.6000976562</ele>
        <time>2015-02-07T11:02:57.000Z</time>
      </trkpt>
      <trkpt lat="45.94069" lon="6.5397">
        <ele>2397.8000488281</ele>
        <time>2015-02-07T11:03:09.000Z</time>
      </trkpt>
      <trkpt lat="45.94069" lon="6.5397">
        <ele>2397.8000488281</ele>
        <time>2015-02-07T11:03:25.000Z</time>
      </trkpt>
      <trkpt lat="45.94068" lon="6.5397">
        <ele>2397.8000488281</ele>
        <time>2015-02-07T11:03:38.000Z</time>
      </trkpt>
      <trkpt lat="45.94065" lon="6.5397">
        <ele>2397.8000488281</ele>
        <time>2015-02-07T11:03:39.000Z</time>
      </trkpt>
      <trkpt lat="45.94053" lon="6.53966">
        <ele>2397.3999023438</ele>
        <time>2015-02-07T11:03:42.000Z</time>
      </trkpt>
      <trkpt lat="45.94038" lon="6.53956">
        <ele>2396</ele>
        <time>2015-02-07T11:03:45.000Z</time>
      </trkpt>
      <trkpt lat="45.94033" lon="6.53952">
        <ele>2395.3999023438</ele>
        <time>2015-02-07T11:03:46.000Z</time>
      </trkpt>
      <trkpt lat="45.9403" lon="6.53947">
        <ele>2394.6000976562</ele>
        <time>2015-02-07T11:03:47.000Z</time>
      </trkpt>
      <trkpt lat="45.94023" lon="6.53938">
        <ele>2393.1999511719</ele>
        <time>2015-02-07T11:03:49.000Z</time>
      </trkpt>
      <trkpt lat="45.94018" lon="6.53927">
        <ele>2391.8000488281</ele>
        <time>2015-02-07T11:03:51.000Z</time>
      </trkpt>
      <trkpt lat="45.94015" lon="6.53914">
        <ele>2390.8000488281</ele>
        <time>2015-02-07T11:03:53.000Z</time>
      </trkpt>
      <trkpt lat="45.94012" lon="6.53901">
        <ele>2389.3999023438</ele>
        <time>2015-02-07T11:03:55.000Z</time>
      </trkpt>
      <trkpt lat="45.94008" lon="6.53887">
        <ele>2387.8000488281</ele>
        <time>2015-02-07T11:03:57.000Z</time>
      </trkpt>
      <trkpt lat="45.94006" lon="6.53881">
        <ele>2386.8000488281</ele>
        <time>2015-02-07T11:03:58.000Z</time>
      </trkpt>
      <trkpt lat="45.94003" lon="6.53874">
        <ele>2386</ele>
        <time>2015-02-07T11:03:59.000Z</time>
      </trkpt>
      <trkpt lat="45.93997" lon="6.53863">
        <ele>2384.1999511719</ele>
        <time>2015-02-07T11:04:01.000Z</time>
      </trkpt>
      <trkpt lat="45.93994" lon="6.53859">
        <ele>2383.3999023438</ele>
        <time>2015-02-07T11:04:02.000Z</time>
      </trkpt>
      <trkpt lat="45.93992" lon="6.53855">
        <ele>2382.6000976562</ele>
        <time>2015-02-07T11:04:03.000Z</time>
      </trkpt>
      <trkpt lat="45.93986" lon="6.53848">
        <ele>2381.1999511719</ele>
        <time>2015-02-07T11:04:05.000Z</time>
      </trkpt>
      <trkpt lat="45.93976" lon="6.53835">
        <ele>2380</ele>
        <time>2015-02-07T11:04:08.000Z</time>
      </trkpt>
      <trkpt lat="45.93972" lon="6.53829">
        <ele>2378.8000488281</ele>
        <time>2015-02-07T11:04:09.000Z</time>
      </trkpt>
      <trkpt lat="45.93966" lon="6.53816">
        <ele>2377.8000488281</ele>
        <time>2015-02-07T11:04:11.000Z</time>
      </trkpt>
      <trkpt lat="45.9396" lon="6.53803">
        <ele>2376.3999023438</ele>
        <time>2015-02-07T11:04:13.000Z</time>
      </trkpt>
      <trkpt lat="45.93954" lon="6.53787">
        <ele>2374.8000488281</ele>
        <time>2015-02-07T11:04:15.000Z</time>
      </trkpt>
      <trkpt lat="45.93949" lon="6.53772">
        <ele>2373</ele>
        <time>2015-02-07T11:04:17.000Z</time>
      </trkpt>
      <trkpt lat="45.93948" lon="6.53765">
        <ele>2371.6000976562</ele>
        <time>2015-02-07T11:04:18.000Z</time>
      </trkpt>
      <trkpt lat="45.93945" lon="6.53758">
        <ele>2370.3999023438</ele>
        <time>2015-02-07T11:04:19.000Z</time>
      </trkpt>
      <trkpt lat="45.93943" lon="6.53751">
        <ele>2369.3999023438</ele>
        <time>2015-02-07T11:04:20.000Z</time>
      </trkpt>
      <trkpt lat="45.93941" lon="6.53746">
        <ele>2368.8000488281</ele>
        <time>2015-02-07T11:04:21.000Z</time>
      </trkpt>
      <trkpt lat="45.93939" lon="6.53739">
        <ele>2368.1999511719</ele>
        <time>2015-02-07T11:04:22.000Z</time>
      </trkpt>
      <trkpt lat="45.93934" lon="6.53727">
        <ele>2367</ele>
        <time>2015-02-07T11:04:24.000Z</time>
      </trkpt>
      <trkpt lat="45.93928" lon="6.53719">
        <ele>2366</ele>
        <time>2015-02-07T11:04:26.000Z</time>
      </trkpt>
      <trkpt lat="45.93926" lon="6.53711">
        <ele>2364.8000488281</ele>
        <time>2015-02-07T11:04:28.000Z</time>
      </trkpt>
      <trkpt lat="45.93929" lon="6.53709">
        <ele>2364</ele>
        <time>2015-02-07T11:04:29.000Z</time>
      </trkpt>
      <trkpt lat="45.9393" lon="6.53705">
        <ele>2363</ele>
        <time>2015-02-07T11:04:30.000Z</time>
      </trkpt>
      <trkpt lat="45.93929" lon="6.53703">
        <ele>2362</ele>
        <time>2015-02-07T11:04:31.000Z</time>
      </trkpt>
      <trkpt lat="45.93929" lon="6.53701">
        <ele>2361.1999511719</ele>
        <time>2015-02-07T11:04:32.000Z</time>
      </trkpt>
      <trkpt lat="45.9393" lon="6.53698">
        <ele>2359.6000976562</ele>
        <time>2015-02-07T11:04:33.000Z</time>
      </trkpt>
      <trkpt lat="45.93932" lon="6.53695">
        <ele>2358.1999511719</ele>
        <time>2015-02-07T11:04:34.000Z</time>
      </trkpt>
      <trkpt lat="45.93931" lon="6.53691">
        <ele>2356.6000976562</ele>
        <time>2015-02-07T11:04:35.000Z</time>
      </trkpt>
      <trkpt lat="45.93931" lon="6.53688">
        <ele>2355.3999023438</ele>
        <time>2015-02-07T11:04:36.000Z</time>
      </trkpt>
      <trkpt lat="45.93931" lon="6.53686">
        <ele>2354.1999511719</ele>
        <time>2015-02-07T11:04:37.000Z</time>
      </trkpt>
      <trkpt lat="45.93931" lon="6.53683">
        <ele>2352.6000976562</ele>
        <time>2015-02-07T11:04:38.000Z</time>
      </trkpt>
      <trkpt lat="45.9393" lon="6.5368">
        <ele>2350.3999023438</ele>
        <time>2015-02-07T11:04:39.000Z</time>
      </trkpt>
      <trkpt lat="45.93928" lon="6.53679">
        <ele>2348.6000976562</ele>
        <time>2015-02-07T11:04:40.000Z</time>
      </trkpt>
      <trkpt lat="45.93927" lon="6.53678">
        <ele>2347.1999511719</ele>
        <time>2015-02-07T11:04:41.000Z</time>
      </trkpt>
      <trkpt lat="45.93925" lon="6.53677">
        <ele>2345.8000488281</ele>
        <time>2015-02-07T11:04:42.000Z</time>
      </trkpt>
      <trkpt lat="45.93924" lon="6.53676">
        <ele>2344.1999511719</ele>
        <time>2015-02-07T11:04:43.000Z</time>
      </trkpt>
      <trkpt lat="45.93924" lon="6.53673">
        <ele>2342.8000488281</ele>
        <time>2015-02-07T11:04:44.000Z</time>
      </trkpt>
      <trkpt lat="45.93925" lon="6.53669">
        <ele>2341.1999511719</ele>
        <time>2015-02-07T11:04:45.000Z</time>
      </trkpt>
      <trkpt lat="45.93924" lon="6.53666">
        <ele>2339.8000488281</ele>
        <time>2015-02-07T11:04:46.000Z</time>
      </trkpt>
      <trkpt lat="45.93922" lon="6.53663">
        <ele>2338.3999023438</ele>
        <time>2015-02-07T11:04:47.000Z</time>
      </trkpt>
      <trkpt lat="45.93922" lon="6.53661">
        <ele>2337.3999023438</ele>
        <time>2015-02-07T11:04:48.000Z</time>
      </trkpt>
      <trkpt lat="45.93922" lon="6.53656">
        <ele>2336.1999511719</ele>
        <time>2015-02-07T11:04:49.000Z</time>
      </trkpt>
      <trkpt lat="45.93922" lon="6.53651">
        <ele>2334.3999023438</ele>
        <time>2015-02-07T11:04:50.000Z</time>
      </trkpt>
      <trkpt lat="45.93919" lon="6.53647">
        <ele>2332.1999511719</ele>
        <time>2015-02-07T11:04:51.000Z</time>
      </trkpt>
      <trkpt lat="45.93915" lon="6.53644">
        <ele>2329.8000488281</ele>
        <time>2015-02-07T11:04:52.000Z</time>
      </trkpt>
      <trkpt lat="45.93913" lon="6.53641">
        <ele>2327.6000976562</ele>
        <time>2015-02-07T11:04:53.000Z</time>
      </trkpt>
      <trkpt lat="45.9391" lon="6.53636">
        <ele>2325.6000976562</ele>
        <time>2015-02-07T11:04:54.000Z</time>
      </trkpt>
      <trkpt lat="45.93906" lon="6.53629">
        <ele>2323.3999023438</ele>
        <time>2015-02-07T11:04:55.000Z</time>
      </trkpt>
      <trkpt lat="45.93902" lon="6.53618">
        <ele>2321.1999511719</ele>
        <time>2015-02-07T11:04:56.000Z</time>
      </trkpt>
      <trkpt lat="45.93905" lon="6.53604">
        <ele>2317.6000976562</ele>
        <time>2015-02-07T11:04:57.000Z</time>
      </trkpt>
      <trkpt lat="45.93907" lon="6.53596">
        <ele>2315.6000976562</ele>
        <time>2015-02-07T11:04:58.000Z</time>
      </trkpt>
      <trkpt lat="45.93908" lon="6.53592">
        <ele>2313.6000976562</ele>
        <time>2015-02-07T11:04:59.000Z</time>
      </trkpt>
      <trkpt lat="45.93908" lon="6.53589">
        <ele>2312</ele>
        <time>2015-02-07T11:05:00.000Z</time>
      </trkpt>
      <trkpt lat="45.93908" lon="6.53587">
        <ele>2310.6000976562</ele>
        <time>2015-02-07T11:05:01.000Z</time>
      </trkpt>
      <trkpt lat="45.9391" lon="6.53578">
        <ele>2309.1999511719</ele>
        <time>2015-02-07T11:05:03.000Z</time>
      </trkpt>
      <trkpt lat="45.93917" lon="6.53562">
        <ele>2308</ele>
        <time>2015-02-07T11:05:06.000Z</time>
      </trkpt>
      <trkpt lat="45.9392" lon="6.53557">
        <ele>2307.1999511719</ele>
        <time>2015-02-07T11:05:07.000Z</time>
      </trkpt>
      <trkpt lat="45.93928" lon="6.53548">
        <ele>2306</ele>
        <time>2015-02-07T11:05:08.000Z</time>
      </trkpt>
      <trkpt lat="45.93935" lon="6.53541">
        <ele>2304.6000976562</ele>
        <time>2015-02-07T11:05:09.000Z</time>
      </trkpt>
      <trkpt lat="45.9394" lon="6.53535">
        <ele>2303.3999023438</ele>
        <time>2015-02-07T11:05:10.000Z</time>
      </trkpt>
      <trkpt lat="45.93946" lon="6.53531">
        <ele>2302.1999511719</ele>
        <time>2015-02-07T11:05:11.000Z</time>
      </trkpt>
      <trkpt lat="45.9395" lon="6.53528">
        <ele>2301.1999511719</ele>
        <time>2015-02-07T11:05:12.000Z</time>
      </trkpt>
      <trkpt lat="45.93953" lon="6.53525">
        <ele>2300.1999511719</ele>
        <time>2015-02-07T11:05:13.000Z</time>
      </trkpt>
      <trkpt lat="45.93955" lon="6.53525">
        <ele>2299.1999511719</ele>
        <time>2015-02-07T11:05:14.000Z</time>
      </trkpt>
      <trkpt lat="45.93956" lon="6.53525">
        <ele>2298.3999023438</ele>
        <time>2015-02-07T11:05:15.000Z</time>
      </trkpt>
      <trkpt lat="45.93958" lon="6.53523">
        <ele>2297.3999023438</ele>
        <time>2015-02-07T11:05:19.000Z</time>
      </trkpt>
      <trkpt lat="45.93961" lon="6.53521">
        <ele>2297.1999511719</ele>
        <time>2015-02-07T11:05:30.000Z</time>
      </trkpt>
      <trkpt lat="45.93961" lon="6.53521">
        <ele>2297.1999511719</ele>
        <time>2015-02-07T11:05:44.000Z</time>
      </trkpt>
      <trkpt lat="45.93972" lon="6.53519">
        <ele>2296.8000488281</ele>
        <time>2015-02-07T11:05:49.000Z</time>
      </trkpt>
      <trkpt lat="45.93975" lon="6.5352">
        <ele>2296.3999023438</ele>
        <time>2015-02-07T11:05:51.000Z</time>
      </trkpt>
      <trkpt lat="45.93975" lon="6.5352">
        <ele>2295.8000488281</ele>
        <time>2015-02-07T11:05:56.000Z</time>
      </trkpt>
      <trkpt lat="45.93975" lon="6.5352">
        <ele>2295.6000976562</ele>
        <time>2015-02-07T11:06:07.000Z</time>
      </trkpt>
      <trkpt lat="45.93975" lon="6.5352">
        <ele>2295.6000976562</ele>
        <time>2015-02-07T11:06:21.000Z</time>
      </trkpt>
      <trkpt lat="45.93975" lon="6.5352">
        <ele>2295.6000976562</ele>
        <time>2015-02-07T11:06:40.000Z</time>
      </trkpt>
      <trkpt lat="45.93975" lon="6.5352">
        <ele>2295.6000976562</ele>
        <time>2015-02-07T11:07:01.000Z</time>
      </trkpt>
      <trkpt lat="45.93976" lon="6.53522">
        <ele>2295.6000976562</ele>
        <time>2015-02-07T11:07:16.000Z</time>
      </trkpt>
      <trkpt lat="45.93979" lon="6.53526">
        <ele>2295.6000976562</ele>
        <time>2015-02-07T11:07:17.000Z</time>
      </trkpt>
      <trkpt lat="45.93986" lon="6.53534">
        <ele>2295.3999023438</ele>
        <time>2015-02-07T11:07:19.000Z</time>
      </trkpt>
      <trkpt lat="45.93989" lon="6.53534">
        <ele>2295</ele>
        <time>2015-02-07T11:07:20.000Z</time>
      </trkpt>
      <trkpt lat="45.93996" lon="6.53534">
        <ele>2293.8000488281</ele>
        <time>2015-02-07T11:07:21.000Z</time>
      </trkpt>
      <trkpt lat="45.94002" lon="6.53532">
        <ele>2293</ele>
        <time>2015-02-07T11:07:22.000Z</time>
      </trkpt>
      <trkpt lat="45.9401" lon="6.53528">
        <ele>2291.8000488281</ele>
        <time>2015-02-07T11:07:23.000Z</time>
      </trkpt>
      <trkpt lat="45.94016" lon="6.53525">
        <ele>2290.1999511719</ele>
        <time>2015-02-07T11:07:24.000Z</time>
      </trkpt>
      <trkpt lat="45.94021" lon="6.53523">
        <ele>2288.6000976562</ele>
        <time>2015-02-07T11:07:25.000Z</time>
      </trkpt>
      <trkpt lat="45.94025" lon="6.5352">
        <ele>2287.3999023438</ele>
        <time>2015-02-07T11:07:26.000Z</time>
      </trkpt>
      <trkpt lat="45.94032" lon="6.53514">
        <ele>2285.8000488281</ele>
        <time>2015-02-07T11:07:28.000Z</time>
      </trkpt>
      <trkpt lat="45.94038" lon="6.53513">
        <ele>2284.8000488281</ele>
        <time>2015-02-07T11:07:31.000Z</time>
      </trkpt>
      <trkpt lat="45.94037" lon="6.53513">
        <ele>2284.1999511719</ele>
        <time>2015-02-07T11:07:32.000Z</time>
      </trkpt>
      <trkpt lat="45.94039" lon="6.5351">
        <ele>2283.6000976562</ele>
        <time>2015-02-07T11:07:34.000Z</time>
      </trkpt>
      <trkpt lat="45.94037" lon="6.53509">
        <ele>2282.8000488281</ele>
        <time>2015-02-07T11:07:35.000Z</time>
      </trkpt>
      <trkpt lat="45.94038" lon="6.53505">
        <ele>2281.8000488281</ele>
        <time>2015-02-07T11:07:36.000Z</time>
      </trkpt>
      <trkpt lat="45.94037" lon="6.53502">
        <ele>2280.3999023438</ele>
        <time>2015-02-07T11:07:37.000Z</time>
      </trkpt>
      <trkpt lat="45.94038" lon="6.535">
        <ele>2278.8000488281</ele>
        <time>2015-02-07T11:07:38.000Z</time>
      </trkpt>
      <trkpt lat="45.94038" lon="6.53497">
        <ele>2276.8000488281</ele>
        <time>2015-02-07T11:07:39.000Z</time>
      </trkpt>
      <trkpt lat="45.9404" lon="6.53493">
        <ele>2274.6000976562</ele>
        <time>2015-02-07T11:07:40.000Z</time>
      </trkpt>
      <trkpt lat="45.94041" lon="6.53489">
        <ele>2272.3999023438</ele>
        <time>2015-02-07T11:07:41.000Z</time>
      </trkpt>
      <trkpt lat="45.94042" lon="6.53485">
        <ele>2269.8000488281</ele>
        <time>2015-02-07T11:07:42.000Z</time>
      </trkpt>
      <trkpt lat="45.94043" lon="6.53482">
        <ele>2267</ele>
        <time>2015-02-07T11:07:43.000Z</time>
      </trkpt>
      <trkpt lat="45.94045" lon="6.53478">
        <ele>2264.1999511719</ele>
        <time>2015-02-07T11:07:44.000Z</time>
      </trkpt>
      <trkpt lat="45.94047" lon="6.53474">
        <ele>2258.3999023438</ele>
        <time>2015-02-07T11:07:45.000Z</time>
      </trkpt>
      <trkpt lat="45.94048" lon="6.53469">
        <ele>2255.6000976562</ele>
        <time>2015-02-07T11:07:46.000Z</time>
      </trkpt>
      <trkpt lat="45.94046" lon="6.53468">
        <ele>2252.8000488281</ele>
        <time>2015-02-07T11:07:47.000Z</time>
      </trkpt>
      <trkpt lat="45.94046" lon="6.53463">
        <ele>2250.3999023438</ele>
        <time>2015-02-07T11:07:48.000Z</time>
      </trkpt>
      <trkpt lat="45.94049" lon="6.53455">
        <ele>2247.8000488281</ele>
        <time>2015-02-07T11:07:49.000Z</time>
      </trkpt>
      <trkpt lat="45.94051" lon="6.53448">
        <ele>2245</ele>
        <time>2015-02-07T11:07:50.000Z</time>
      </trkpt>
      <trkpt lat="45.94052" lon="6.53444">
        <ele>2242.1999511719</ele>
        <time>2015-02-07T11:07:51.000Z</time>
      </trkpt>
      <trkpt lat="45.94054" lon="6.53437">
        <ele>2239.8000488281</ele>
        <time>2015-02-07T11:07:52.000Z</time>
      </trkpt>
      <trkpt lat="45.94054" lon="6.53433">
        <ele>2237.3999023438</ele>
        <time>2015-02-07T11:07:53.000Z</time>
      </trkpt>
      <trkpt lat="45.94052" lon="6.53427">
        <ele>2235.3999023438</ele>
        <time>2015-02-07T11:07:54.000Z</time>
      </trkpt>
      <trkpt lat="45.94052" lon="6.5342">
        <ele>2233</ele>
        <time>2015-02-07T11:07:55.000Z</time>
      </trkpt>
      <trkpt lat="45.94052" lon="6.53412">
        <ele>2230.1999511719</ele>
        <time>2015-02-07T11:07:56.000Z</time>
      </trkpt>
      <trkpt lat="45.94052" lon="6.53404">
        <ele>2227.1999511719</ele>
        <time>2015-02-07T11:07:57.000Z</time>
      </trkpt>
      <trkpt lat="45.94051" lon="6.53396">
        <ele>2224.1999511719</ele>
        <time>2015-02-07T11:07:58.000Z</time>
      </trkpt>
      <trkpt lat="45.94051" lon="6.53388">
        <ele>2221.3999023438</ele>
        <time>2015-02-07T11:07:59.000Z</time>
      </trkpt>
      <trkpt lat="45.94051" lon="6.53379">
        <ele>2218.6000976562</ele>
        <time>2015-02-07T11:08:00.000Z</time>
      </trkpt>
      <trkpt lat="45.94051" lon="6.53372">
        <ele>2215.6000976562</ele>
        <time>2015-02-07T11:08:01.000Z</time>
      </trkpt>
      <trkpt lat="45.94051" lon="6.53364">
        <ele>2212.6000976562</ele>
        <time>2015-02-07T11:08:02.000Z</time>
      </trkpt>
      <trkpt lat="45.94052" lon="6.53357">
        <ele>2209.8000488281</ele>
        <time>2015-02-07T11:08:03.000Z</time>
      </trkpt>
      <trkpt lat="45.94052" lon="6.5335">
        <ele>2207</ele>
        <time>2015-02-07T11:08:04.000Z</time>
      </trkpt>
      <trkpt lat="45.94052" lon="6.53345">
        <ele>2204.1999511719</ele>
        <time>2015-02-07T11:08:05.000Z</time>
      </trkpt>
      <trkpt lat="45.94053" lon="6.53338">
        <ele>2201.6000976562</ele>
        <time>2015-02-07T11:08:06.000Z</time>
      </trkpt>
      <trkpt lat="45.94054" lon="6.53333">
        <ele>2199.3999023438</ele>
        <time>2015-02-07T11:08:07.000Z</time>
      </trkpt>
      <trkpt lat="45.94053" lon="6.53328">
        <ele>2197</ele>
        <time>2015-02-07T11:08:08.000Z</time>
      </trkpt>
      <trkpt lat="45.94053" lon="6.53322">
        <ele>2192.8000488281</ele>
        <time>2015-02-07T11:08:09.000Z</time>
      </trkpt>
      <trkpt lat="45.94055" lon="6.53318">
        <ele>2190.6000976562</ele>
        <time>2015-02-07T11:08:10.000Z</time>
      </trkpt>
      <trkpt lat="45.94058" lon="6.53315">
        <ele>2188.6000976562</ele>
        <time>2015-02-07T11:08:11.000Z</time>
      </trkpt>
      <trkpt lat="45.94058" lon="6.53313">
        <ele>2186.3999023438</ele>
        <time>2015-02-07T11:08:12.000Z</time>
      </trkpt>
      <trkpt lat="45.94059" lon="6.53311">
        <ele>2184.3999023438</ele>
        <time>2015-02-07T11:08:13.000Z</time>
      </trkpt>
      <trkpt lat="45.9406" lon="6.5331">
        <ele>2183</ele>
        <time>2015-02-07T11:08:14.000Z</time>
      </trkpt>
      <trkpt lat="45.9406" lon="6.53309">
        <ele>2181.6000976562</ele>
        <time>2015-02-07T11:08:16.000Z</time>
      </trkpt>
      <trkpt lat="45.9406" lon="6.53309">
        <ele>2180.8000488281</ele>
        <time>2015-02-07T11:08:24.000Z</time>
      </trkpt>
      <trkpt lat="45.94061" lon="6.53302">
        <ele>2181</ele>
        <time>2015-02-07T11:08:27.000Z</time>
      </trkpt>
      <trkpt lat="45.94045" lon="6.53299">
        <ele>2180.6000976562</ele>
        <time>2015-02-07T11:08:30.000Z</time>
      </trkpt>
      <trkpt lat="45.94039" lon="6.53298">
        <ele>2179.8000488281</ele>
        <time>2015-02-07T11:08:31.000Z</time>
      </trkpt>
      <trkpt lat="45.94033" lon="6.53296">
        <ele>2178.3999023438</ele>
        <time>2015-02-07T11:08:32.000Z</time>
      </trkpt>
      <trkpt lat="45.94029" lon="6.53294">
        <ele>2175.6000976562</ele>
        <time>2015-02-07T11:08:33.000Z</time>
      </trkpt>
      <trkpt lat="45.94025" lon="6.53292">
        <ele>2174.3999023438</ele>
        <time>2015-02-07T11:08:34.000Z</time>
      </trkpt>
      <trkpt lat="45.94023" lon="6.53289">
        <ele>2173.3999023438</ele>
        <time>2015-02-07T11:08:35.000Z</time>
      </trkpt>
      <trkpt lat="45.94018" lon="6.53284">
        <ele>2171.6000976562</ele>
        <time>2015-02-07T11:08:37.000Z</time>
      </trkpt>
      <trkpt lat="45.94018" lon="6.53282">
        <ele>2170.3999023438</ele>
        <time>2015-02-07T11:08:38.000Z</time>
      </trkpt>
      <trkpt lat="45.94017" lon="6.5328">
        <ele>2169.1999511719</ele>
        <time>2015-02-07T11:08:39.000Z</time>
      </trkpt>
      <trkpt lat="45.94017" lon="6.53274">
        <ele>2168</ele>
        <time>2015-02-07T11:08:40.000Z</time>
      </trkpt>
      <trkpt lat="45.94017" lon="6.53268">
        <ele>2166.6000976562</ele>
        <time>2015-02-07T11:08:41.000Z</time>
      </trkpt>
      <trkpt lat="45.94015" lon="6.53263">
        <ele>2164.8000488281</ele>
        <time>2015-02-07T11:08:42.000Z</time>
      </trkpt>
      <trkpt lat="45.94016" lon="6.53259">
        <ele>2163</ele>
        <time>2015-02-07T11:08:43.000Z</time>
      </trkpt>
      <trkpt lat="45.94016" lon="6.53252">
        <ele>2160.8000488281</ele>
        <time>2015-02-07T11:08:44.000Z</time>
      </trkpt>
      <trkpt lat="45.94014" lon="6.53247">
        <ele>2158.6000976562</ele>
        <time>2015-02-07T11:08:45.000Z</time>
      </trkpt>
      <trkpt lat="45.94013" lon="6.53241">
        <ele>2156.1999511719</ele>
        <time>2015-02-07T11:08:46.000Z</time>
      </trkpt>
      <trkpt lat="45.94007" lon="6.53237">
        <ele>2153.6000976562</ele>
        <time>2015-02-07T11:08:47.000Z</time>
      </trkpt>
      <trkpt lat="45.94003" lon="6.53231">
        <ele>2151.1999511719</ele>
        <time>2015-02-07T11:08:48.000Z</time>
      </trkpt>
      <trkpt lat="45.94" lon="6.53225">
        <ele>2148.6000976562</ele>
        <time>2015-02-07T11:08:49.000Z</time>
      </trkpt>
      <trkpt lat="45.93997" lon="6.53219">
        <ele>2146.1999511719</ele>
        <time>2015-02-07T11:08:50.000Z</time>
      </trkpt>
      <trkpt lat="45.93993" lon="6.53213">
        <ele>2143.3999023438</ele>
        <time>2015-02-07T11:08:51.000Z</time>
      </trkpt>
      <trkpt lat="45.93991" lon="6.53206">
        <ele>2140.6000976562</ele>
        <time>2015-02-07T11:08:52.000Z</time>
      </trkpt>
      <trkpt lat="45.9399" lon="6.53199">
        <ele>2137.6000976562</ele>
        <time>2015-02-07T11:08:53.000Z</time>
      </trkpt>
      <trkpt lat="45.93988" lon="6.53194">
        <ele>2134.6000976562</ele>
        <time>2015-02-07T11:08:54.000Z</time>
      </trkpt>
      <trkpt lat="45.93985" lon="6.53188">
        <ele>2131.8000488281</ele>
        <time>2015-02-07T11:08:55.000Z</time>
      </trkpt>
      <trkpt lat="45.93983" lon="6.53181">
        <ele>2129.1999511719</ele>
        <time>2015-02-07T11:08:56.000Z</time>
      </trkpt>
      <trkpt lat="45.93982" lon="6.53174">
        <ele>2124.1999511719</ele>
        <time>2015-02-07T11:08:57.000Z</time>
      </trkpt>
      <trkpt lat="45.93981" lon="6.53167">
        <ele>2121.6000976562</ele>
        <time>2015-02-07T11:08:58.000Z</time>
      </trkpt>
      <trkpt lat="45.93982" lon="6.5316">
        <ele>2118.8000488281</ele>
        <time>2015-02-07T11:08:59.000Z</time>
      </trkpt>
      <trkpt lat="45.93983" lon="6.53154">
        <ele>2116</ele>
        <time>2015-02-07T11:09:00.000Z</time>
      </trkpt>
      <trkpt lat="45.93985" lon="6.53151">
        <ele>2113.1999511719</ele>
        <time>2015-02-07T11:09:01.000Z</time>
      </trkpt>
      <trkpt lat="45.93988" lon="6.53149">
        <ele>2110.3999023438</ele>
        <time>2015-02-07T11:09:02.000Z</time>
      </trkpt>
      <trkpt lat="45.9399" lon="6.53147">
        <ele>2107.8000488281</ele>
        <time>2015-02-07T11:09:03.000Z</time>
      </trkpt>
      <trkpt lat="45.93992" lon="6.53146">
        <ele>2105.6000976562</ele>
        <time>2015-02-07T11:09:04.000Z</time>
      </trkpt>
      <trkpt lat="45.93992" lon="6.53146">
        <ele>2104</ele>
        <time>2015-02-07T11:09:05.000Z</time>
      </trkpt>
      <trkpt lat="45.93992" lon="6.53146">
        <ele>2102.8000488281</ele>
        <time>2015-02-07T11:09:06.000Z</time>
      </trkpt>
      <trkpt lat="45.93992" lon="6.53146">
        <ele>2101.8000488281</ele>
        <time>2015-02-07T11:09:08.000Z</time>
      </trkpt>
      <trkpt lat="45.93992" lon="6.53146">
        <ele>2101.3999023438</ele>
        <time>2015-02-07T11:09:19.000Z</time>
      </trkpt>
      <trkpt lat="45.93992" lon="6.53146">
        <ele>2101</ele>
        <time>2015-02-07T11:09:34.000Z</time>
      </trkpt>
      <trkpt lat="45.93992" lon="6.53144">
        <ele>2101</ele>
        <time>2015-02-07T11:09:51.000Z</time>
      </trkpt>
      <trkpt lat="45.93992" lon="6.53144">
        <ele>2101</ele>
        <time>2015-02-07T11:09:54.000Z</time>
      </trkpt>
      <trkpt lat="45.93992" lon="6.53144">
        <ele>2101</ele>
        <time>2015-02-07T11:10:13.000Z</time>
      </trkpt>
      <trkpt lat="45.93993" lon="6.53142">
        <ele>2100.6000976562</ele>
        <time>2015-02-07T11:10:29.000Z</time>
      </trkpt>
      <trkpt lat="45.93993" lon="6.53142">
        <ele>2100.6000976562</ele>
        <time>2015-02-07T11:10:31.000Z</time>
      </trkpt>
      <trkpt lat="45.93996" lon="6.53139">
        <ele>2100.8000488281</ele>
        <time>2015-02-07T11:10:38.000Z</time>
      </trkpt>
      <trkpt lat="45.94" lon="6.53136">
        <ele>2100.8000488281</ele>
        <time>2015-02-07T11:10:39.000Z</time>
      </trkpt>
      <trkpt lat="45.94008" lon="6.53121">
        <ele>2100</ele>
        <time>2015-02-07T11:10:42.000Z</time>
      </trkpt>
      <trkpt lat="45.9401" lon="6.53115">
        <ele>2099.1999511719</ele>
        <time>2015-02-07T11:10:43.000Z</time>
      </trkpt>
      <trkpt lat="45.94012" lon="6.53108">
        <ele>2098</ele>
        <time>2015-02-07T11:10:44.000Z</time>
      </trkpt>
      <trkpt lat="45.94014" lon="6.53099">
        <ele>2096.6000976562</ele>
        <time>2015-02-07T11:10:45.000Z</time>
      </trkpt>
      <trkpt lat="45.94016" lon="6.5309">
        <ele>2094.6000976562</ele>
        <time>2015-02-07T11:10:46.000Z</time>
      </trkpt>
      <trkpt lat="45.94018" lon="6.5308">
        <ele>2092.3999023438</ele>
        <time>2015-02-07T11:10:47.000Z</time>
      </trkpt>
      <trkpt lat="45.94023" lon="6.53069">
        <ele>2090</ele>
        <time>2015-02-07T11:10:48.000Z</time>
      </trkpt>
      <trkpt lat="45.94028" lon="6.53059">
        <ele>2087.6000976562</ele>
        <time>2015-02-07T11:10:49.000Z</time>
      </trkpt>
      <trkpt lat="45.94032" lon="6.53051">
        <ele>2085</ele>
        <time>2015-02-07T11:10:50.000Z</time>
      </trkpt>
      <trkpt lat="45.94036" lon="6.53044">
        <ele>2082.1999511719</ele>
        <time>2015-02-07T11:10:51.000Z</time>
      </trkpt>
      <trkpt lat="45.94041" lon="6.53038">
        <ele>2079.3999023438</ele>
        <time>2015-02-07T11:10:52.000Z</time>
      </trkpt>
      <trkpt lat="45.94045" lon="6.53034">
        <ele>2076.6000976562</ele>
        <time>2015-02-07T11:10:53.000Z</time>
      </trkpt>
      <trkpt lat="45.94051" lon="6.53029">
        <ele>2074.3999023438</ele>
        <time>2015-02-07T11:10:54.000Z</time>
      </trkpt>
      <trkpt lat="45.94056" lon="6.53024">
        <ele>2072.6000976562</ele>
        <time>2015-02-07T11:10:55.000Z</time>
      </trkpt>
      <trkpt lat="45.94061" lon="6.5302">
        <ele>2071.3999023438</ele>
        <time>2015-02-07T11:10:56.000Z</time>
      </trkpt>
      <trkpt lat="45.94065" lon="6.53015">
        <ele>2069</ele>
        <time>2015-02-07T11:10:57.000Z</time>
      </trkpt>
      <trkpt lat="45.94068" lon="6.5301">
        <ele>2067.6000976562</ele>
        <time>2015-02-07T11:10:58.000Z</time>
      </trkpt>
      <trkpt lat="45.94071" lon="6.53004">
        <ele>2065.8000488281</ele>
        <time>2015-02-07T11:10:59.000Z</time>
      </trkpt>
      <trkpt lat="45.94073" lon="6.52997">
        <ele>2064</ele>
        <time>2015-02-07T11:11:00.000Z</time>
      </trkpt>
      <trkpt lat="45.94075" lon="6.52989">
        <ele>2061.6000976562</ele>
        <time>2015-02-07T11:11:01.000Z</time>
      </trkpt>
      <trkpt lat="45.94076" lon="6.52981">
        <ele>2059.1999511719</ele>
        <time>2015-02-07T11:11:02.000Z</time>
      </trkpt>
      <trkpt lat="45.94077" lon="6.52971">
        <ele>2056.3999023438</ele>
        <time>2015-02-07T11:11:03.000Z</time>
      </trkpt>
      <trkpt lat="45.94078" lon="6.52962">
        <ele>2053.3999023438</ele>
        <time>2015-02-07T11:11:04.000Z</time>
      </trkpt>
      <trkpt lat="45.94079" lon="6.52951">
        <ele>2050</ele>
        <time>2015-02-07T11:11:05.000Z</time>
      </trkpt>
      <trkpt lat="45.9408" lon="6.5294">
        <ele>2046.5999755859</ele>
        <time>2015-02-07T11:11:06.000Z</time>
      </trkpt>
      <trkpt lat="45.94083" lon="6.52928">
        <ele>2042.8000488281</ele>
        <time>2015-02-07T11:11:07.000Z</time>
      </trkpt>
      <trkpt lat="45.94088" lon="6.52917">
        <ele>2039.1999511719</ele>
        <time>2015-02-07T11:11:08.000Z</time>
      </trkpt>
      <trkpt lat="45.94092" lon="6.52906">
        <ele>2035.4000244141</ele>
        <time>2015-02-07T11:11:09.000Z</time>
      </trkpt>
      <trkpt lat="45.94094" lon="6.52895">
        <ele>2031.8000488281</ele>
        <time>2015-02-07T11:11:10.000Z</time>
      </trkpt>
      <trkpt lat="45.94096" lon="6.52885">
        <ele>2028.1999511719</ele>
        <time>2015-02-07T11:11:11.000Z</time>
      </trkpt>
      <trkpt lat="45.94097" lon="6.52878">
        <ele>2025</ele>
        <time>2015-02-07T11:11:12.000Z</time>
      </trkpt>
      <trkpt lat="45.94097" lon="6.52874">
        <ele>2021.4000244141</ele>
        <time>2015-02-07T11:11:13.000Z</time>
      </trkpt>
      <trkpt lat="45.94095" lon="6.5287">
        <ele>2018</ele>
        <time>2015-02-07T11:11:14.000Z</time>
      </trkpt>
      <trkpt lat="45.94094" lon="6.52868">
        <ele>2014.8000488281</ele>
        <time>2015-02-07T11:11:15.000Z</time>
      </trkpt>
      <trkpt lat="45.94092" lon="6.52866">
        <ele>2012.4000244141</ele>
        <time>2015-02-07T11:11:16.000Z</time>
      </trkpt>
      <trkpt lat="45.94091" lon="6.52865">
        <ele>2010.8000488281</ele>
        <time>2015-02-07T11:11:17.000Z</time>
      </trkpt>
      <trkpt lat="45.94089" lon="6.52867">
        <ele>2009.4000244141</ele>
        <time>2015-02-07T11:11:19.000Z</time>
      </trkpt>
      <trkpt lat="45.94088" lon="6.52869">
        <ele>2009</ele>
        <time>2015-02-07T11:11:20.000Z</time>
      </trkpt>
      <trkpt lat="45.94086" lon="6.52879">
        <ele>2008.8000488281</ele>
        <time>2015-02-07T11:11:31.000Z</time>
      </trkpt>
      <trkpt lat="45.94085" lon="6.5288">
        <ele>2009</ele>
        <time>2015-02-07T11:11:40.000Z</time>
      </trkpt>
      <trkpt lat="45.94085" lon="6.5288">
        <ele>2008.4000244141</ele>
        <time>2015-02-07T11:11:54.000Z</time>
      </trkpt>
      <trkpt lat="45.94078" lon="6.52876">
        <ele>2008.1999511719</ele>
        <time>2015-02-07T11:11:56.000Z</time>
      </trkpt>
      <trkpt lat="45.94073" lon="6.5287">
        <ele>2007.8000488281</ele>
        <time>2015-02-07T11:11:58.000Z</time>
      </trkpt>
      <trkpt lat="45.94072" lon="6.52865">
        <ele>2007</ele>
        <time>2015-02-07T11:11:59.000Z</time>
      </trkpt>
      <trkpt lat="45.94072" lon="6.52861">
        <ele>2005.8000488281</ele>
        <time>2015-02-07T11:12:00.000Z</time>
      </trkpt>
      <trkpt lat="45.94071" lon="6.52856">
        <ele>2004.5999755859</ele>
        <time>2015-02-07T11:12:01.000Z</time>
      </trkpt>
      <trkpt lat="45.94071" lon="6.5285">
        <ele>2003.4000244141</ele>
        <time>2015-02-07T11:12:02.000Z</time>
      </trkpt>
      <trkpt lat="45.9407" lon="6.52845">
        <ele>2002</ele>
        <time>2015-02-07T11:12:03.000Z</time>
      </trkpt>
      <trkpt lat="45.94068" lon="6.52839">
        <ele>2000.5999755859</ele>
        <time>2015-02-07T11:12:04.000Z</time>
      </trkpt>
      <trkpt lat="45.94066" lon="6.52834">
        <ele>1998.8000488281</ele>
        <time>2015-02-07T11:12:05.000Z</time>
      </trkpt>
      <trkpt lat="45.94064" lon="6.52828">
        <ele>1996.8000488281</ele>
        <time>2015-02-07T11:12:06.000Z</time>
      </trkpt>
      <trkpt lat="45.94063" lon="6.5282">
        <ele>1994.4000244141</ele>
        <time>2015-02-07T11:12:07.000Z</time>
      </trkpt>
      <trkpt lat="45.94061" lon="6.52811">
        <ele>1991.8000488281</ele>
        <time>2015-02-07T11:12:08.000Z</time>
      </trkpt>
      <trkpt lat="45.9406" lon="6.52806">
        <ele>1987</ele>
        <time>2015-02-07T11:12:09.000Z</time>
      </trkpt>
      <trkpt lat="45.94061" lon="6.528">
        <ele>1984.8000488281</ele>
        <time>2015-02-07T11:12:10.000Z</time>
      </trkpt>
      <trkpt lat="45.94064" lon="6.52795">
        <ele>1982.4000244141</ele>
        <time>2015-02-07T11:12:11.000Z</time>
      </trkpt>
      <trkpt lat="45.94068" lon="6.52792">
        <ele>1980.1999511719</ele>
        <time>2015-02-07T11:12:12.000Z</time>
      </trkpt>
      <trkpt lat="45.94072" lon="6.5279">
        <ele>1978</ele>
        <time>2015-02-07T11:12:13.000Z</time>
      </trkpt>
      <trkpt lat="45.94077" lon="6.52787">
        <ele>1975.5999755859</ele>
        <time>2015-02-07T11:12:14.000Z</time>
      </trkpt>
      <trkpt lat="45.94083" lon="6.52785">
        <ele>1972.8000488281</ele>
        <time>2015-02-07T11:12:15.000Z</time>
      </trkpt>
      <trkpt lat="45.94089" lon="6.5278">
        <ele>1969.8000488281</ele>
        <time>2015-02-07T11:12:16.000Z</time>
      </trkpt>
      <trkpt lat="45.94096" lon="6.52773">
        <ele>1967</ele>
        <time>2015-02-07T11:12:17.000Z</time>
      </trkpt>
      <trkpt lat="45.94102" lon="6.52765">
        <ele>1964.1999511719</ele>
        <time>2015-02-07T11:12:18.000Z</time>
      </trkpt>
      <trkpt lat="45.94107" lon="6.52757">
        <ele>1961.4000244141</ele>
        <time>2015-02-07T11:12:19.000Z</time>
      </trkpt>
      <trkpt lat="45.94111" lon="6.52748">
        <ele>1958.4000244141</ele>
        <time>2015-02-07T11:12:20.000Z</time>
      </trkpt>
      <trkpt lat="45.94115" lon="6.52739">
        <ele>1955.1999511719</ele>
        <time>2015-02-07T11:12:21.000Z</time>
      </trkpt>
      <trkpt lat="45.94118" lon="6.52728">
        <ele>1952.1999511719</ele>
        <time>2015-02-07T11:12:22.000Z</time>
      </trkpt>
      <trkpt lat="45.94121" lon="6.52716">
        <ele>1949.1999511719</ele>
        <time>2015-02-07T11:12:23.000Z</time>
      </trkpt>
      <trkpt lat="45.94126" lon="6.52704">
        <ele>1946.4000244141</ele>
        <time>2015-02-07T11:12:24.000Z</time>
      </trkpt>
      <trkpt lat="45.94132" lon="6.52693">
        <ele>1943.8000488281</ele>
        <time>2015-02-07T11:12:25.000Z</time>
      </trkpt>
      <trkpt lat="45.94139" lon="6.52681">
        <ele>1940.8000488281</ele>
        <time>2015-02-07T11:12:26.000Z</time>
      </trkpt>
      <trkpt lat="45.94143" lon="6.52669">
        <ele>1937.5999755859</ele>
        <time>2015-02-07T11:12:27.000Z</time>
      </trkpt>
      <trkpt lat="45.94148" lon="6.52657">
        <ele>1934.1999511719</ele>
        <time>2015-02-07T11:12:28.000Z</time>
      </trkpt>
      <trkpt lat="45.94155" lon="6.52644">
        <ele>1930.1999511719</ele>
        <time>2015-02-07T11:12:29.000Z</time>
      </trkpt>
      <trkpt lat="45.9416" lon="6.52631">
        <ele>1926</ele>
        <time>2015-02-07T11:12:30.000Z</time>
      </trkpt>
      <trkpt lat="45.94165" lon="6.52619">
        <ele>1922</ele>
        <time>2015-02-07T11:12:31.000Z</time>
      </trkpt>
      <trkpt lat="45.94171" lon="6.52607">
        <ele>1917.8000488281</ele>
        <time>2015-02-07T11:12:32.000Z</time>
      </trkpt>
      <trkpt lat="45.94176" lon="6.52594">
        <ele>1910</ele>
        <time>2015-02-07T11:12:33.000Z</time>
      </trkpt>
      <trkpt lat="45.94183" lon="6.52581">
        <ele>1906.1999511719</ele>
        <time>2015-02-07T11:12:34.000Z</time>
      </trkpt>
      <trkpt lat="45.94189" lon="6.52571">
        <ele>1902.5999755859</ele>
        <time>2015-02-07T11:12:35.000Z</time>
      </trkpt>
      <trkpt lat="45.94193" lon="6.52561">
        <ele>1899</ele>
        <time>2015-02-07T11:12:36.000Z</time>
      </trkpt>
      <trkpt lat="45.94196" lon="6.52553">
        <ele>1895.4000244141</ele>
        <time>2015-02-07T11:12:37.000Z</time>
      </trkpt>
      <trkpt lat="45.94198" lon="6.52544">
        <ele>1891.8000488281</ele>
        <time>2015-02-07T11:12:38.000Z</time>
      </trkpt>
      <trkpt lat="45.94201" lon="6.52534">
        <ele>1888.4000244141</ele>
        <time>2015-02-07T11:12:39.000Z</time>
      </trkpt>
      <trkpt lat="45.94203" lon="6.52523">
        <ele>1885.4000244141</ele>
        <time>2015-02-07T11:12:40.000Z</time>
      </trkpt>
      <trkpt lat="45.94208" lon="6.5251">
        <ele>1882.5999755859</ele>
        <time>2015-02-07T11:12:41.000Z</time>
      </trkpt>
      <trkpt lat="45.94213" lon="6.52495">
        <ele>1880</ele>
        <time>2015-02-07T11:12:42.000Z</time>
      </trkpt>
      <trkpt lat="45.94218" lon="6.5248">
        <ele>1876.8000488281</ele>
        <time>2015-02-07T11:12:43.000Z</time>
      </trkpt>
      <trkpt lat="45.94224" lon="6.52465">
        <ele>1873</ele>
        <time>2015-02-07T11:12:44.000Z</time>
      </trkpt>
      <trkpt lat="45.94228" lon="6.52453">
        <ele>1869.1999511719</ele>
        <time>2015-02-07T11:12:45.000Z</time>
      </trkpt>
      <trkpt lat="45.94231" lon="6.52442">
        <ele>1865.4000244141</ele>
        <time>2015-02-07T11:12:46.000Z</time>
      </trkpt>
      <trkpt lat="45.94234" lon="6.52433">
        <ele>1862</ele>
        <time>2015-02-07T11:12:47.000Z</time>
      </trkpt>
      <trkpt lat="45.94236" lon="6.52426">
        <ele>1858.8000488281</ele>
        <time>2015-02-07T11:12:48.000Z</time>
      </trkpt>
      <trkpt lat="45.94229" lon="6.52423">
        <ele>1855.8000488281</ele>
        <time>2015-02-07T11:12:49.000Z</time>
      </trkpt>
      <trkpt lat="45.94228" lon="6.52419">
        <ele>1853.4000244141</ele>
        <time>2015-02-07T11:12:50.000Z</time>
      </trkpt>
      <trkpt lat="45.94228" lon="6.52416">
        <ele>1851.8000488281</ele>
        <time>2015-02-07T11:12:51.000Z</time>
      </trkpt>
      <trkpt lat="45.94226" lon="6.52412">
        <ele>1850.5999755859</ele>
        <time>2015-02-07T11:12:52.000Z</time>
      </trkpt>
      <trkpt lat="45.94224" lon="6.52405">
        <ele>1849.5999755859</ele>
        <time>2015-02-07T11:12:54.000Z</time>
      </trkpt>
      <trkpt lat="45.94218" lon="6.52382">
        <ele>1849.1999511719</ele>
        <time>2015-02-07T11:13:00.000Z</time>
      </trkpt>
      <trkpt lat="45.94205" lon="6.52381">
        <ele>1849.1999511719</ele>
        <time>2015-02-07T11:13:04.000Z</time>
      </trkpt>
      <trkpt lat="45.94194" lon="6.52385">
        <ele>1849</ele>
        <time>2015-02-07T11:13:07.000Z</time>
      </trkpt>
      <trkpt lat="45.94178" lon="6.52408">
        <ele>1849</ele>
        <time>2015-02-07T11:13:15.000Z</time>
      </trkpt>
      <trkpt lat="45.94166" lon="6.52438">
        <ele>1849</ele>
        <time>2015-02-07T11:13:26.000Z</time>
      </trkpt>
      <trkpt lat="45.94157" lon="6.5244">
        <ele>1849</ele>
        <time>2015-02-07T11:13:40.000Z</time>
      </trkpt>
      <trkpt lat="45.94155" lon="6.52454">
        <ele>1848.8000488281</ele>
        <time>2015-02-07T11:13:52.000Z</time>
      </trkpt>
      <trkpt lat="45.94163" lon="6.52478">
        <ele>1848.8000488281</ele>
        <time>2015-02-07T11:14:02.000Z</time>
      </trkpt>
      <trkpt lat="45.94163" lon="6.52477">
        <ele>1848.8000488281</ele>
        <time>2015-02-07T11:14:03.000Z</time>
      </trkpt>
      <trkpt lat="45.94172" lon="6.52467">
        <ele>1848.4000244141</ele>
        <time>2015-02-07T11:14:06.000Z</time>
      </trkpt>
      <trkpt lat="45.9418" lon="6.52459">
        <ele>1847.4000244141</ele>
        <time>2015-02-07T11:14:08.000Z</time>
      </trkpt>
      <trkpt lat="45.94186" lon="6.52453">
        <ele>1845.4000244141</ele>
        <time>2015-02-07T11:14:09.000Z</time>
      </trkpt>
      <trkpt lat="45.94191" lon="6.52446">
        <ele>1843.5999755859</ele>
        <time>2015-02-07T11:14:10.000Z</time>
      </trkpt>
      <trkpt lat="45.94196" lon="6.52438">
        <ele>1841.1999511719</ele>
        <time>2015-02-07T11:14:11.000Z</time>
      </trkpt>
      <trkpt lat="45.94202" lon="6.52428">
        <ele>1838.1999511719</ele>
        <time>2015-02-07T11:14:12.000Z</time>
      </trkpt>
      <trkpt lat="45.94208" lon="6.52418">
        <ele>1834.8000488281</ele>
        <time>2015-02-07T11:14:13.000Z</time>
      </trkpt>
      <trkpt lat="45.94215" lon="6.52409">
        <ele>1831.4000244141</ele>
        <time>2015-02-07T11:14:14.000Z</time>
      </trkpt>
      <trkpt lat="45.94221" lon="6.52399">
        <ele>1827.5999755859</ele>
        <time>2015-02-07T11:14:15.000Z</time>
      </trkpt>
      <trkpt lat="45.94225" lon="6.52388">
        <ele>1823.8000488281</ele>
        <time>2015-02-07T11:14:16.000Z</time>
      </trkpt>
      <trkpt lat="45.94229" lon="6.52377">
        <ele>1820.1999511719</ele>
        <time>2015-02-07T11:14:17.000Z</time>
      </trkpt>
      <trkpt lat="45.94233" lon="6.52367">
        <ele>1816.4000244141</ele>
        <time>2015-02-07T11:14:18.000Z</time>
      </trkpt>
      <trkpt lat="45.94238" lon="6.52358">
        <ele>1812.1999511719</ele>
        <time>2015-02-07T11:14:19.000Z</time>
      </trkpt>
      <trkpt lat="45.94243" lon="6.52348">
        <ele>1807.8000488281</ele>
        <time>2015-02-07T11:14:20.000Z</time>
      </trkpt>
      <trkpt lat="45.94247" lon="6.52338">
        <ele>1803.5999755859</ele>
        <time>2015-02-07T11:14:21.000Z</time>
      </trkpt>
      <trkpt lat="45.94251" lon="6.52328">
        <ele>1799.5999755859</ele>
        <time>2015-02-07T11:14:22.000Z</time>
      </trkpt>
      <trkpt lat="45.94253" lon="6.52319">
        <ele>1796</ele>
        <time>2015-02-07T11:14:23.000Z</time>
      </trkpt>
      <trkpt lat="45.94253" lon="6.52312">
        <ele>1792.5999755859</ele>
        <time>2015-02-07T11:14:24.000Z</time>
      </trkpt>
      <trkpt lat="45.94255" lon="6.52304">
        <ele>1789.4000244141</ele>
        <time>2015-02-07T11:14:25.000Z</time>
      </trkpt>
      <trkpt lat="45.94255" lon="6.52296">
        <ele>1786.8000488281</ele>
        <time>2015-02-07T11:14:26.000Z</time>
      </trkpt>
      <trkpt lat="45.94252" lon="6.52289">
        <ele>1784.1999511719</ele>
        <time>2015-02-07T11:14:27.000Z</time>
      </trkpt>
      <trkpt lat="45.94248" lon="6.52283">
        <ele>1781.8000488281</ele>
        <time>2015-02-07T11:14:28.000Z</time>
      </trkpt>
      <trkpt lat="45.94247" lon="6.52278">
        <ele>1779.4000244141</ele>
        <time>2015-02-07T11:14:29.000Z</time>
      </trkpt>
      <trkpt lat="45.94246" lon="6.52276">
        <ele>1777.1999511719</ele>
        <time>2015-02-07T11:14:30.000Z</time>
      </trkpt>
      <trkpt lat="45.94245" lon="6.52274">
        <ele>1775.4000244141</ele>
        <time>2015-02-07T11:14:31.000Z</time>
      </trkpt>
      <trkpt lat="45.94244" lon="6.52272">
        <ele>1773.8000488281</ele>
        <time>2015-02-07T11:14:32.000Z</time>
      </trkpt>
      <trkpt lat="45.94244" lon="6.52269">
        <ele>1772.4000244141</ele>
        <time>2015-02-07T11:14:33.000Z</time>
      </trkpt>
      <trkpt lat="45.94248" lon="6.52269">
        <ele>1771.5999755859</ele>
        <time>2015-02-07T11:14:36.000Z</time>
      </trkpt>
      <trkpt lat="45.94252" lon="6.52268">
        <ele>1771.4000244141</ele>
        <time>2015-02-07T11:14:37.000Z</time>
      </trkpt>
      <trkpt lat="45.94265" lon="6.52261">
        <ele>1770</ele>
        <time>2015-02-07T11:14:40.000Z</time>
      </trkpt>
      <trkpt lat="45.94269" lon="6.5226">
        <ele>1768.5999755859</ele>
        <time>2015-02-07T11:14:41.000Z</time>
      </trkpt>
      <trkpt lat="45.94274" lon="6.52258">
        <ele>1766.5999755859</ele>
        <time>2015-02-07T11:14:42.000Z</time>
      </trkpt>
      <trkpt lat="45.9428" lon="6.52253">
        <ele>1764.5999755859</ele>
        <time>2015-02-07T11:14:43.000Z</time>
      </trkpt>
      <trkpt lat="45.94286" lon="6.52246">
        <ele>1762.8000488281</ele>
        <time>2015-02-07T11:14:44.000Z</time>
      </trkpt>
      <trkpt lat="45.94292" lon="6.52239">
        <ele>1761</ele>
        <time>2015-02-07T11:14:45.000Z</time>
      </trkpt>
      <trkpt lat="45.94296" lon="6.52232">
        <ele>1758.8000488281</ele>
        <time>2015-02-07T11:14:46.000Z</time>
      </trkpt>
      <trkpt lat="45.94297" lon="6.52227">
        <ele>1756.4000244141</ele>
        <time>2015-02-07T11:14:47.000Z</time>
      </trkpt>
      <trkpt lat="45.943" lon="6.52226">
        <ele>1754.1999511719</ele>
        <time>2015-02-07T11:14:48.000Z</time>
      </trkpt>
      <trkpt lat="45.94302" lon="6.52225">
        <ele>1752.4000244141</ele>
        <time>2015-02-07T11:14:49.000Z</time>
      </trkpt>
      <trkpt lat="45.94304" lon="6.52226">
        <ele>1750.8000488281</ele>
        <time>2015-02-07T11:14:50.000Z</time>
      </trkpt>
      <trkpt lat="45.94307" lon="6.52226">
        <ele>1749.8000488281</ele>
        <time>2015-02-07T11:14:51.000Z</time>
      </trkpt>
      <trkpt lat="45.94312" lon="6.52227">
        <ele>1748.5999755859</ele>
        <time>2015-02-07T11:14:53.000Z</time>
      </trkpt>
      <trkpt lat="45.94308" lon="6.52229">
        <ele>1748.4000244141</ele>
        <time>2015-02-07T11:14:59.000Z</time>
      </trkpt>
      <trkpt lat="45.94308" lon="6.52231">
        <ele>1748.4000244141</ele>
        <time>2015-02-07T11:15:04.000Z</time>
      </trkpt>
      <trkpt lat="45.94309" lon="6.52234">
        <ele>1748.1999511719</ele>
        <time>2015-02-07T11:15:05.000Z</time>
      </trkpt>
      <trkpt lat="45.94318" lon="6.52237">
        <ele>1747</ele>
        <time>2015-02-07T11:15:08.000Z</time>
      </trkpt>
      <trkpt lat="45.94328" lon="6.52228">
        <ele>1745</ele>
        <time>2015-02-07T11:15:10.000Z</time>
      </trkpt>
      <trkpt lat="45.9433" lon="6.52223">
        <ele>1743.5999755859</ele>
        <time>2015-02-07T11:15:11.000Z</time>
      </trkpt>
      <trkpt lat="45.94332" lon="6.52217">
        <ele>1741.8000488281</ele>
        <time>2015-02-07T11:15:12.000Z</time>
      </trkpt>
      <trkpt lat="45.94333" lon="6.52212">
        <ele>1739.5999755859</ele>
        <time>2015-02-07T11:15:13.000Z</time>
      </trkpt>
      <trkpt lat="45.94336" lon="6.52206">
        <ele>1737.5999755859</ele>
        <time>2015-02-07T11:15:14.000Z</time>
      </trkpt>
      <trkpt lat="45.9434" lon="6.522">
        <ele>1736</ele>
        <time>2015-02-07T11:15:15.000Z</time>
      </trkpt>
      <trkpt lat="45.94344" lon="6.52193">
        <ele>1734.4000244141</ele>
        <time>2015-02-07T11:15:16.000Z</time>
      </trkpt>
      <trkpt lat="45.94349" lon="6.52186">
        <ele>1732.8000488281</ele>
        <time>2015-02-07T11:15:17.000Z</time>
      </trkpt>
      <trkpt lat="45.94352" lon="6.52179">
        <ele>1730.8000488281</ele>
        <time>2015-02-07T11:15:18.000Z</time>
      </trkpt>
      <trkpt lat="45.94357" lon="6.52169">
        <ele>1728.5999755859</ele>
        <time>2015-02-07T11:15:19.000Z</time>
      </trkpt>
      <trkpt lat="45.9436" lon="6.52159">
        <ele>1726</ele>
        <time>2015-02-07T11:15:20.000Z</time>
      </trkpt>
      <trkpt lat="45.94362" lon="6.52149">
        <ele>1720.1999511719</ele>
        <time>2015-02-07T11:15:21.000Z</time>
      </trkpt>
      <trkpt lat="45.94364" lon="6.52139">
        <ele>1717</ele>
        <time>2015-02-07T11:15:22.000Z</time>
      </trkpt>
      <trkpt lat="45.94366" lon="6.52132">
        <ele>1713.5999755859</ele>
        <time>2015-02-07T11:15:23.000Z</time>
      </trkpt>
      <trkpt lat="45.94367" lon="6.52131">
        <ele>1710.1999511719</ele>
        <time>2015-02-07T11:15:24.000Z</time>
      </trkpt>
      <trkpt lat="45.94366" lon="6.52133">
        <ele>1707</ele>
        <time>2015-02-07T11:15:25.000Z</time>
      </trkpt>
      <trkpt lat="45.94364" lon="6.52135">
        <ele>1704.5999755859</ele>
        <time>2015-02-07T11:15:26.000Z</time>
      </trkpt>
      <trkpt lat="45.94362" lon="6.52137">
        <ele>1702.5999755859</ele>
        <time>2015-02-07T11:15:27.000Z</time>
      </trkpt>
      <trkpt lat="45.94363" lon="6.52138">
        <ele>1701.4000244141</ele>
        <time>2015-02-07T11:15:28.000Z</time>
      </trkpt>
      <trkpt lat="45.94363" lon="6.52138">
        <ele>1700</ele>
        <time>2015-02-07T11:15:30.000Z</time>
      </trkpt>
      <trkpt lat="45.94363" lon="6.52138">
        <ele>1699.4000244141</ele>
        <time>2015-02-07T11:15:34.000Z</time>
      </trkpt>
      <trkpt lat="45.94361" lon="6.5214">
        <ele>1699.1999511719</ele>
        <time>2015-02-07T11:15:41.000Z</time>
      </trkpt>
      <trkpt lat="45.94361" lon="6.5214">
        <ele>1699.1999511719</ele>
        <time>2015-02-07T11:15:56.000Z</time>
      </trkpt>
      <trkpt lat="45.94361" lon="6.5214">
        <ele>1699.1999511719</ele>
        <time>2015-02-07T11:16:13.000Z</time>
      </trkpt>
      <trkpt lat="45.94361" lon="6.5214">
        <ele>1699</ele>
        <time>2015-02-07T11:16:18.000Z</time>
      </trkpt>
      <trkpt lat="45.94363" lon="6.5214">
        <ele>1698.8000488281</ele>
        <time>2015-02-07T11:16:19.000Z</time>
      </trkpt>
      <trkpt lat="45.94366" lon="6.52131">
        <ele>1697.8000488281</ele>
        <time>2015-02-07T11:16:22.000Z</time>
      </trkpt>
      <trkpt lat="45.94362" lon="6.52123">
        <ele>1696.5999755859</ele>
        <time>2015-02-07T11:16:24.000Z</time>
      </trkpt>
      <trkpt lat="45.94362" lon="6.52121">
        <ele>1695.5999755859</ele>
        <time>2015-02-07T11:16:25.000Z</time>
      </trkpt>
      <trkpt lat="45.94359" lon="6.5212">
        <ele>1694.4000244141</ele>
        <time>2015-02-07T11:16:26.000Z</time>
      </trkpt>
      <trkpt lat="45.94357" lon="6.52119">
        <ele>1693.1999511719</ele>
        <time>2015-02-07T11:16:27.000Z</time>
      </trkpt>
      <trkpt lat="45.94353" lon="6.52118">
        <ele>1692</ele>
        <time>2015-02-07T11:16:29.000Z</time>
      </trkpt>
      <trkpt lat="45.94351" lon="6.52117">
        <ele>1691.5999755859</ele>
        <time>2015-02-07T11:16:32.000Z</time>
      </trkpt>
      <trkpt lat="45.94346" lon="6.52119">
        <ele>1691.5999755859</ele>
        <time>2015-02-07T11:16:35.000Z</time>
      </trkpt>
      <trkpt lat="45.94342" lon="6.5212">
        <ele>1691.5999755859</ele>
        <time>2015-02-07T11:16:44.000Z</time>
      </trkpt>
      <trkpt lat="45.94342" lon="6.5212">
        <ele>1691.5999755859</ele>
        <time>2015-02-07T11:16:57.000Z</time>
      </trkpt>
      <trkpt lat="45.94342" lon="6.5212">
        <ele>1691.4000244141</ele>
        <time>2015-02-07T11:17:15.000Z</time>
      </trkpt>
      <trkpt lat="45.94344" lon="6.52132">
        <ele>1691.1999511719</ele>
        <time>2015-02-07T11:17:22.000Z</time>
      </trkpt>
      <trkpt lat="45.9435" lon="6.52136">
        <ele>1691</ele>
        <time>2015-02-07T11:17:24.000Z</time>
      </trkpt>
      <trkpt lat="45.94359" lon="6.52141">
        <ele>1690</ele>
        <time>2015-02-07T11:17:26.000Z</time>
      </trkpt>
      <trkpt lat="45.94362" lon="6.52143">
        <ele>1689.1999511719</ele>
        <time>2015-02-07T11:17:27.000Z</time>
      </trkpt>
      <trkpt lat="45.94368" lon="6.52144">
        <ele>1687.5999755859</ele>
        <time>2015-02-07T11:17:29.000Z</time>
      </trkpt>
      <trkpt lat="45.94371" lon="6.52142">
        <ele>1686.5999755859</ele>
        <time>2015-02-07T11:17:31.000Z</time>
      </trkpt>
      <trkpt lat="45.94371" lon="6.5214">
        <ele>1685.4000244141</ele>
        <time>2015-02-07T11:17:33.000Z</time>
      </trkpt>
      <trkpt lat="45.94369" lon="6.52139">
        <ele>1683.4000244141</ele>
        <time>2015-02-07T11:17:35.000Z</time>
      </trkpt>
      <trkpt lat="45.94368" lon="6.52139">
        <ele>1682.8000488281</ele>
        <time>2015-02-07T11:17:36.000Z</time>
      </trkpt>
      <trkpt lat="45.94368" lon="6.52139">
        <ele>1682.4000244141</ele>
        <time>2015-02-07T11:17:38.000Z</time>
      </trkpt>
      <trkpt lat="45.94368" lon="6.52139">
        <ele>1682</ele>
        <time>2015-02-07T11:17:47.000Z</time>
      </trkpt>
      <trkpt lat="45.94368" lon="6.52139">
        <ele>1682</ele>
        <time>2015-02-07T11:18:03.000Z</time>
      </trkpt>
      <trkpt lat="45.94366" lon="6.52139">
        <ele>1681.8000488281</ele>
        <time>2015-02-07T11:18:21.000Z</time>
      </trkpt>
      <trkpt lat="45.94366" lon="6.52139">
        <ele>1681.8000488281</ele>
        <time>2015-02-07T11:18:36.000Z</time>
      </trkpt>
      <trkpt lat="45.94362" lon="6.52138">
        <ele>1681.5999755859</ele>
        <time>2015-02-07T11:18:45.000Z</time>
      </trkpt>
      <trkpt lat="45.94358" lon="6.52137">
        <ele>1681.4000244141</ele>
        <time>2015-02-07T11:18:46.000Z</time>
      </trkpt>
      <trkpt lat="45.94353" lon="6.52131">
        <ele>1681.1999511719</ele>
        <time>2015-02-07T11:18:47.000Z</time>
      </trkpt>
      <trkpt lat="45.94354" lon="6.52121">
        <ele>1679.4000244141</ele>
        <time>2015-02-07T11:18:49.000Z</time>
      </trkpt>
      <trkpt lat="45.94357" lon="6.52117">
        <ele>1677.4000244141</ele>
        <time>2015-02-07T11:18:50.000Z</time>
      </trkpt>
      <trkpt lat="45.94359" lon="6.52113">
        <ele>1675</ele>
        <time>2015-02-07T11:18:51.000Z</time>
      </trkpt>
      <trkpt lat="45.94361" lon="6.52108">
        <ele>1672.5999755859</ele>
        <time>2015-02-07T11:18:52.000Z</time>
      </trkpt>
      <trkpt lat="45.94365" lon="6.52104">
        <ele>1670.4000244141</ele>
        <time>2015-02-07T11:18:53.000Z</time>
      </trkpt>
      <trkpt lat="45.94368" lon="6.52099">
        <ele>1668.1999511719</ele>
        <time>2015-02-07T11:18:54.000Z</time>
      </trkpt>
      <trkpt lat="45.94371" lon="6.52094">
        <ele>1665.4000244141</ele>
        <time>2015-02-07T11:18:55.000Z</time>
      </trkpt>
      <trkpt lat="45.94373" lon="6.52087">
        <ele>1662.1999511719</ele>
        <time>2015-02-07T11:18:56.000Z</time>
      </trkpt>
      <trkpt lat="45.94376" lon="6.5208">
        <ele>1658.8000488281</ele>
        <time>2015-02-07T11:18:57.000Z</time>
      </trkpt>
      <trkpt lat="45.94379" lon="6.52074">
        <ele>1652</ele>
        <time>2015-02-07T11:18:58.000Z</time>
      </trkpt>
      <trkpt lat="45.94382" lon="6.52069">
        <ele>1648.5999755859</ele>
        <time>2015-02-07T11:18:59.000Z</time>
      </trkpt>
      <trkpt lat="45.94384" lon="6.52064">
        <ele>1645.1999511719</ele>
        <time>2015-02-07T11:19:00.000Z</time>
      </trkpt>
      <trkpt lat="45.94385" lon="6.5206">
        <ele>1642.1999511719</ele>
        <time>2015-02-07T11:19:01.000Z</time>
      </trkpt>
      <trkpt lat="45.94385" lon="6.52058">
        <ele>1639.8000488281</ele>
        <time>2015-02-07T11:19:02.000Z</time>
      </trkpt>
      <trkpt lat="45.94386" lon="6.52057">
        <ele>1638</ele>
        <time>2015-02-07T11:19:03.000Z</time>
      </trkpt>
      <trkpt lat="45.94385" lon="6.52056">
        <ele>1636.5999755859</ele>
        <time>2015-02-07T11:19:04.000Z</time>
      </trkpt>
      <trkpt lat="45.94385" lon="6.52056">
        <ele>1635.5999755859</ele>
        <time>2015-02-07T11:19:05.000Z</time>
      </trkpt>
      <trkpt lat="45.94385" lon="6.52056">
        <ele>1635</ele>
        <time>2015-02-07T11:19:06.000Z</time>
      </trkpt>
      <trkpt lat="45.94385" lon="6.52058">
        <ele>1634.4000244141</ele>
        <time>2015-02-07T11:19:13.000Z</time>
      </trkpt>
      <trkpt lat="45.94387" lon="6.52055">
        <ele>1634</ele>
        <time>2015-02-07T11:19:18.000Z</time>
      </trkpt>
      <trkpt lat="45.94394" lon="6.52053">
        <ele>1631.5999755859</ele>
        <time>2015-02-07T11:19:22.000Z</time>
      </trkpt>
      <trkpt lat="45.94398" lon="6.52053">
        <ele>1630.1999511719</ele>
        <time>2015-02-07T11:19:23.000Z</time>
      </trkpt>
      <trkpt lat="45.94402" lon="6.52052">
        <ele>1629</ele>
        <time>2015-02-07T11:19:24.000Z</time>
      </trkpt>
      <trkpt lat="45.94407" lon="6.5205">
        <ele>1627.5999755859</ele>
        <time>2015-02-07T11:19:25.000Z</time>
      </trkpt>
      <trkpt lat="45.94413" lon="6.52045">
        <ele>1626.1999511719</ele>
        <time>2015-02-07T11:19:26.000Z</time>
      </trkpt>
      <trkpt lat="45.94418" lon="6.52041">
        <ele>1624.4000244141</ele>
        <time>2015-02-07T11:19:27.000Z</time>
      </trkpt>
      <trkpt lat="45.94424" lon="6.52038">
        <ele>1622.5999755859</ele>
        <time>2015-02-07T11:19:28.000Z</time>
      </trkpt>
      <trkpt lat="45.9443" lon="6.52037">
        <ele>1620.5999755859</ele>
        <time>2015-02-07T11:19:29.000Z</time>
      </trkpt>
      <trkpt lat="45.94435" lon="6.52036">
        <ele>1618.8000488281</ele>
        <time>2015-02-07T11:19:30.000Z</time>
      </trkpt>
      <trkpt lat="45.9444" lon="6.52036">
        <ele>1617.1999511719</ele>
        <time>2015-02-07T11:19:31.000Z</time>
      </trkpt>
      <trkpt lat="45.94445" lon="6.52034">
        <ele>1615.8000488281</ele>
        <time>2015-02-07T11:19:32.000Z</time>
      </trkpt>
      <trkpt lat="45.9445" lon="6.52032">
        <ele>1614.1999511719</ele>
        <time>2015-02-07T11:19:33.000Z</time>
      </trkpt>
      <trkpt lat="45.94455" lon="6.52029">
        <ele>1612.5999755859</ele>
        <time>2015-02-07T11:19:34.000Z</time>
      </trkpt>
      <trkpt lat="45.94459" lon="6.52027">
        <ele>1611</ele>
        <time>2015-02-07T11:19:35.000Z</time>
      </trkpt>
      <trkpt lat="45.94464" lon="6.52025">
        <ele>1609.4000244141</ele>
        <time>2015-02-07T11:19:36.000Z</time>
      </trkpt>
      <trkpt lat="45.94469" lon="6.52023">
        <ele>1607.8000488281</ele>
        <time>2015-02-07T11:19:37.000Z</time>
      </trkpt>
      <trkpt lat="45.94473" lon="6.5202">
        <ele>1606.1999511719</ele>
        <time>2015-02-07T11:19:38.000Z</time>
      </trkpt>
      <trkpt lat="45.94475" lon="6.52016">
        <ele>1604.5999755859</ele>
        <time>2015-02-07T11:19:39.000Z</time>
      </trkpt>
      <trkpt lat="45.94476" lon="6.52015">
        <ele>1603</ele>
        <time>2015-02-07T11:19:40.000Z</time>
      </trkpt>
      <trkpt lat="45.94477" lon="6.52012">
        <ele>1601</ele>
        <time>2015-02-07T11:19:41.000Z</time>
      </trkpt>
      <trkpt lat="45.94478" lon="6.52006">
        <ele>1598.4000244141</ele>
        <time>2015-02-07T11:19:42.000Z</time>
      </trkpt>
      <trkpt lat="45.9448" lon="6.51998">
        <ele>1595.8000488281</ele>
        <time>2015-02-07T11:19:43.000Z</time>
      </trkpt>
      <trkpt lat="45.94483" lon="6.51989">
        <ele>1593</ele>
        <time>2015-02-07T11:19:44.000Z</time>
      </trkpt>
      <trkpt lat="45.94486" lon="6.5198">
        <ele>1590.1999511719</ele>
        <time>2015-02-07T11:19:45.000Z</time>
      </trkpt>
      <trkpt lat="45.94489" lon="6.51969">
        <ele>1584</ele>
        <time>2015-02-07T11:19:46.000Z</time>
      </trkpt>
      <trkpt lat="45.94493" lon="6.5196">
        <ele>1580.5999755859</ele>
        <time>2015-02-07T11:19:47.000Z</time>
      </trkpt>
      <trkpt lat="45.94497" lon="6.51952">
        <ele>1577</ele>
        <time>2015-02-07T11:19:48.000Z</time>
      </trkpt>
      <trkpt lat="45.94501" lon="6.51945">
        <ele>1573.4000244141</ele>
        <time>2015-02-07T11:19:49.000Z</time>
      </trkpt>
      <trkpt lat="45.94504" lon="6.51937">
        <ele>1570.4000244141</ele>
        <time>2015-02-07T11:19:50.000Z</time>
      </trkpt>
      <trkpt lat="45.94507" lon="6.51928">
        <ele>1567.5999755859</ele>
        <time>2015-02-07T11:19:51.000Z</time>
      </trkpt>
      <trkpt lat="45.94508" lon="6.5192">
        <ele>1565</ele>
        <time>2015-02-07T11:19:52.000Z</time>
      </trkpt>
      <trkpt lat="45.9451" lon="6.51914">
        <ele>1562.4000244141</ele>
        <time>2015-02-07T11:19:53.000Z</time>
      </trkpt>
      <trkpt lat="45.94512" lon="6.51909">
        <ele>1559.8000488281</ele>
        <time>2015-02-07T11:19:54.000Z</time>
      </trkpt>
      <trkpt lat="45.94512" lon="6.51905">
        <ele>1558</ele>
        <time>2015-02-07T11:19:55.000Z</time>
      </trkpt>
      <trkpt lat="45.94513" lon="6.51902">
        <ele>1556.4000244141</ele>
        <time>2015-02-07T11:19:56.000Z</time>
      </trkpt>
      <trkpt lat="45.94513" lon="6.519">
        <ele>1555.1999511719</ele>
        <time>2015-02-07T11:19:57.000Z</time>
      </trkpt>
      <trkpt lat="45.94513" lon="6.51899">
        <ele>1554</ele>
        <time>2015-02-07T11:19:58.000Z</time>
      </trkpt>
      <trkpt lat="45.94513" lon="6.51897">
        <ele>1552.4000244141</ele>
        <time>2015-02-07T11:20:00.000Z</time>
      </trkpt>
      <trkpt lat="45.94513" lon="6.51898">
        <ele>1551.4000244141</ele>
        <time>2015-02-07T11:20:03.000Z</time>
      </trkpt>
      <trkpt lat="45.94515" lon="6.51902">
        <ele>1551</ele>
        <time>2015-02-07T11:20:07.000Z</time>
      </trkpt>
      <trkpt lat="45.94516" lon="6.51907">
        <ele>1551</ele>
        <time>2015-02-07T11:20:14.000Z</time>
      </trkpt>
      <trkpt lat="45.94516" lon="6.51906">
        <ele>1551.1999511719</ele>
        <time>2015-02-07T11:20:20.000Z</time>
      </trkpt>
      <trkpt lat="45.94514" lon="6.51901">
        <ele>1551</ele>
        <time>2015-02-07T11:20:32.000Z</time>
      </trkpt>
      <trkpt lat="45.94514" lon="6.51902">
        <ele>1551</ele>
        <time>2015-02-07T11:20:46.000Z</time>
      </trkpt>
      <trkpt lat="45.94514" lon="6.51902">
        <ele>1550.4000244141</ele>
        <time>2015-02-07T11:20:58.000Z</time>
      </trkpt>
      <trkpt lat="45.94514" lon="6.51902">
        <ele>1551</ele>
        <time>2015-02-07T11:21:11.000Z</time>
      </trkpt>
      <trkpt lat="45.94513" lon="6.51901">
        <ele>1551.4000244141</ele>
        <time>2015-02-07T11:21:23.000Z</time>
      </trkpt>
      <trkpt lat="45.94513" lon="6.51901">
        <ele>1550.8000488281</ele>
        <time>2015-02-07T11:21:37.000Z</time>
      </trkpt>
      <trkpt lat="45.94513" lon="6.51901">
        <ele>1550.8000488281</ele>
        <time>2015-02-07T11:21:49.000Z</time>
      </trkpt>
      <trkpt lat="45.94513" lon="6.51901">
        <ele>1551</ele>
        <time>2015-02-07T11:22:02.000Z</time>
      </trkpt>
      <trkpt lat="45.94513" lon="6.51901">
        <ele>1550.8000488281</ele>
        <time>2015-02-07T11:22:17.000Z</time>
      </trkpt>
      <trkpt lat="45.94513" lon="6.51901">
        <ele>1550.8000488281</ele>
        <time>2015-02-07T11:22:30.000Z</time>
      </trkpt>
      <trkpt lat="45.94512" lon="6.519">
        <ele>1550.5999755859</ele>
        <time>2015-02-07T11:22:50.000Z</time>
      </trkpt>
      <trkpt lat="45.94512" lon="6.519">
        <ele>1550.5999755859</ele>
        <time>2015-02-07T11:23:03.000Z</time>
      </trkpt>
      <trkpt lat="45.94512" lon="6.519">
        <ele>1550.4000244141</ele>
        <time>2015-02-07T11:23:20.000Z</time>
      </trkpt>
      <trkpt lat="45.94511" lon="6.519">
        <ele>1550.4000244141</ele>
        <time>2015-02-07T11:23:38.000Z</time>
      </trkpt>
      <trkpt lat="45.94511" lon="6.519">
        <ele>1550.4000244141</ele>
        <time>2015-02-07T11:23:57.000Z</time>
      </trkpt>
      <trkpt lat="45.94511" lon="6.519">
        <ele>1550.1999511719</ele>
        <time>2015-02-07T11:24:07.000Z</time>
      </trkpt>
      <trkpt lat="45.94511" lon="6.51899">
        <ele>1550.8000488281</ele>
        <time>2015-02-07T11:24:14.000Z</time>
      </trkpt>
      <trkpt lat="45.94511" lon="6.51899">
        <ele>1550.8000488281</ele>
        <time>2015-02-07T11:24:25.000Z</time>
      </trkpt>
      <trkpt lat="45.94511" lon="6.51899">
        <ele>1550.5999755859</ele>
        <time>2015-02-07T11:24:38.000Z</time>
      </trkpt>
      <trkpt lat="45.94511" lon="6.51899">
        <ele>1550.4000244141</ele>
        <time>2015-02-07T11:24:50.000Z</time>
      </trkpt>
      <trkpt lat="45.94511" lon="6.51899">
        <ele>1549.1999511719</ele>
        <time>2015-02-07T11:25:00.000Z</time>
      </trkpt>
      <trkpt lat="45.94511" lon="6.51899">
        <ele>1549</ele>
        <time>2015-02-07T11:25:01.000Z</time>
      </trkpt>
      <trkpt lat="45.94511" lon="6.51899">
        <ele>1550.5999755859</ele>
        <time>2015-02-07T11:25:05.000Z</time>
      </trkpt>
      <trkpt lat="45.94511" lon="6.51899">
        <ele>1551.5999755859</ele>
        <time>2015-02-07T11:25:07.000Z</time>
      </trkpt>
      <trkpt lat="45.94511" lon="6.51899">
        <ele>1550.8000488281</ele>
        <time>2015-02-07T11:25:16.000Z</time>
      </trkpt>
      <trkpt lat="45.94511" lon="6.51899">
        <ele>1550.8000488281</ele>
        <time>2015-02-07T11:25:30.000Z</time>
      </trkpt>
      <trkpt lat="45.94511" lon="6.51899">
        <ele>1550.8000488281</ele>
        <time>2015-02-07T11:25:45.000Z</time>
      </trkpt>
      <trkpt lat="45.94511" lon="6.51899">
        <ele>1550.8000488281</ele>
        <time>2015-02-07T11:26:00.000Z</time>
      </trkpt>
      <trkpt lat="45.94511" lon="6.51898">
        <ele>1550.8000488281</ele>
        <time>2015-02-07T11:26:16.000Z</time>
      </trkpt>
      <trkpt lat="45.94511" lon="6.51898">
        <ele>1550.8000488281</ele>
        <time>2015-02-07T11:26:32.000Z</time>
      </trkpt>
      <trkpt lat="45.94511" lon="6.51898">
        <ele>1550.8000488281</ele>
        <time>2015-02-07T11:26:49.000Z</time>
      </trkpt>
      <trkpt lat="45.94511" lon="6.51898">
        <ele>1550.5999755859</ele>
        <time>2015-02-07T11:26:53.000Z</time>
      </trkpt>
      <trkpt lat="45.94511" lon="6.51898">
        <ele>1550.8000488281</ele>
        <time>2015-02-07T11:27:04.000Z</time>
      </trkpt>
      <trkpt lat="45.94511" lon="6.51898">
        <ele>1550.8000488281</ele>
        <time>2015-02-07T11:27:20.000Z</time>
      </trkpt>
      <trkpt lat="45.94511" lon="6.51897">
        <ele>1550.8000488281</ele>
        <time>2015-02-07T11:27:37.000Z</time>
      </trkpt>
      <trkpt lat="45.94509" lon="6.51898">
        <ele>1550.8000488281</ele>
        <time>2015-02-07T11:27:45.000Z</time>
      </trkpt>
      <trkpt lat="45.94509" lon="6.51898">
        <ele>1551</ele>
        <time>2015-02-07T11:27:54.000Z</time>
      </trkpt>
      <trkpt lat="45.94509" lon="6.51898">
        <ele>1551.1999511719</ele>
        <time>2015-02-07T11:28:08.000Z</time>
      </trkpt>
      <trkpt lat="45.94508" lon="6.51896">
        <ele>1551.1999511719</ele>
        <time>2015-02-07T11:28:24.000Z</time>
      </trkpt>
      <trkpt lat="45.94508" lon="6.51896">
        <ele>1551.1999511719</ele>
        <time>2015-02-07T11:28:33.000Z</time>
      </trkpt>
      <trkpt lat="45.94508" lon="6.51896">
        <ele>1551.4000244141</ele>
        <time>2015-02-07T11:28:43.000Z</time>
      </trkpt>
      <trkpt lat="45.94508" lon="6.51896">
        <ele>1551.1999511719</ele>
        <time>2015-02-07T11:29:01.000Z</time>
      </trkpt>
      <trkpt lat="45.94507" lon="6.51896">
        <ele>1551.1999511719</ele>
        <time>2015-02-07T11:29:13.000Z</time>
      </trkpt>
      <trkpt lat="45.94507" lon="6.51896">
        <ele>1551.1999511719</ele>
        <time>2015-02-07T11:29:21.000Z</time>
      </trkpt>
      <trkpt lat="45.94507" lon="6.51896">
        <ele>1551</ele>
        <time>2015-02-07T11:29:32.000Z</time>
      </trkpt>
      <trkpt lat="45.94507" lon="6.51895">
        <ele>1551</ele>
        <time>2015-02-07T11:29:39.000Z</time>
      </trkpt>
      <trkpt lat="45.94507" lon="6.51895">
        <ele>1551</ele>
        <time>2015-02-07T11:29:52.000Z</time>
      </trkpt>
      <trkpt lat="45.94507" lon="6.51895">
        <ele>1551.1999511719</ele>
        <time>2015-02-07T11:30:07.000Z</time>
      </trkpt>
      <trkpt lat="45.94507" lon="6.51895">
        <ele>1551.4000244141</ele>
        <time>2015-02-07T11:30:23.000Z</time>
      </trkpt>
      <trkpt lat="45.94507" lon="6.51895">
        <ele>1551.1999511719</ele>
        <time>2015-02-07T11:30:33.000Z</time>
      </trkpt>
      <trkpt lat="45.94507" lon="6.51895">
        <ele>1551</ele>
        <time>2015-02-07T11:30:44.000Z</time>
      </trkpt>
      <trkpt lat="45.94507" lon="6.51895">
        <ele>1551.1999511719</ele>
        <time>2015-02-07T11:31:05.000Z</time>
      </trkpt>
      <trkpt lat="45.94507" lon="6.51896">
        <ele>1551</ele>
        <time>2015-02-07T11:31:28.000Z</time>
      </trkpt>
      <trkpt lat="45.94507" lon="6.51896">
        <ele>1551.1999511719</ele>
        <time>2015-02-07T11:31:43.000Z</time>
      </trkpt>
      <trkpt lat="45.94508" lon="6.51895">
        <ele>1551</ele>
        <time>2015-02-07T11:31:53.000Z</time>
      </trkpt>
      <trkpt lat="45.94509" lon="6.51893">
        <ele>1551</ele>
        <time>2015-02-07T11:31:59.000Z</time>
      </trkpt>
      <trkpt lat="45.94511" lon="6.51887">
        <ele>1550.8000488281</ele>
        <time>2015-02-07T11:32:04.000Z</time>
      </trkpt>
      <trkpt lat="45.94512" lon="6.51881">
        <ele>1551.1999511719</ele>
        <time>2015-02-07T11:32:09.000Z</time>
      </trkpt>
      <trkpt lat="45.94514" lon="6.51878">
        <ele>1551.4000244141</ele>
        <time>2015-02-07T11:32:16.000Z</time>
      </trkpt>
      <trkpt lat="45.94515" lon="6.51877">
        <ele>1551.5999755859</ele>
        <time>2015-02-07T11:32:17.000Z</time>
      </trkpt>
      <trkpt lat="45.94517" lon="6.51875">
        <ele>1552.5999755859</ele>
        <time>2015-02-07T11:32:21.000Z</time>
      </trkpt>
      <trkpt lat="45.94519" lon="6.51873">
        <ele>1552.8000488281</ele>
        <time>2015-02-07T11:32:23.000Z</time>
      </trkpt>
      <trkpt lat="45.94519" lon="6.51873">
        <ele>1552.5999755859</ele>
        <time>2015-02-07T11:32:30.000Z</time>
      </trkpt>
      <trkpt lat="45.94519" lon="6.51873">
        <ele>1553</ele>
        <time>2015-02-07T11:32:39.000Z</time>
      </trkpt>
      <trkpt lat="45.94522" lon="6.51871">
        <ele>1553.1999511719</ele>
        <time>2015-02-07T11:32:47.000Z</time>
      </trkpt>
      <trkpt lat="45.94527" lon="6.51869">
        <ele>1552.8000488281</ele>
        <time>2015-02-07T11:32:53.000Z</time>
      </trkpt>
      <trkpt lat="45.94531" lon="6.51871">
        <ele>1552.1999511719</ele>
        <time>2015-02-07T11:32:58.000Z</time>
      </trkpt>
      <trkpt lat="45.94532" lon="6.51872">
        <ele>1551.5999755859</ele>
        <time>2015-02-07T11:33:02.000Z</time>
      </trkpt>
      <trkpt lat="45.94533" lon="6.51872">
        <ele>1551.4000244141</ele>
        <time>2015-02-07T11:33:04.000Z</time>
      </trkpt>
      <trkpt lat="45.9454" lon="6.51874">
        <ele>1551</ele>
        <time>2015-02-07T11:33:11.000Z</time>
      </trkpt>
      <trkpt lat="45.94544" lon="6.51878">
        <ele>1550.8000488281</ele>
        <time>2015-02-07T11:33:17.000Z</time>
      </trkpt>
      <trkpt lat="45.94547" lon="6.51879">
        <ele>1550.5999755859</ele>
        <time>2015-02-07T11:33:19.000Z</time>
      </trkpt>
      <trkpt lat="45.9455" lon="6.5188">
        <ele>1550.8000488281</ele>
        <time>2015-02-07T11:33:23.000Z</time>
      </trkpt>
      <trkpt lat="45.94557" lon="6.51881">
        <ele>1549.8000488281</ele>
        <time>2015-02-07T11:33:31.000Z</time>
      </trkpt>
      <trkpt lat="45.94558" lon="6.51881">
        <ele>1549.5999755859</ele>
        <time>2015-02-07T11:33:33.000Z</time>
      </trkpt>
      <trkpt lat="45.94564" lon="6.51883">
        <ele>1549.4000244141</ele>
        <time>2015-02-07T11:33:39.000Z</time>
      </trkpt>
      <trkpt lat="45.94573" lon="6.51886">
        <ele>1549</ele>
        <time>2015-02-07T11:33:47.000Z</time>
      </trkpt>
      <trkpt lat="45.94576" lon="6.51886">
        <ele>1548.4000244141</ele>
        <time>2015-02-07T11:33:50.000Z</time>
      </trkpt>
      <trkpt lat="45.94582" lon="6.5189">
        <ele>1547.8000488281</ele>
        <time>2015-02-07T11:33:56.000Z</time>
      </trkpt>
      <trkpt lat="45.9459" lon="6.51891">
        <ele>1547.5999755859</ele>
        <time>2015-02-07T11:34:02.000Z</time>
      </trkpt>
      <trkpt lat="45.94596" lon="6.51891">
        <ele>1547.8000488281</ele>
        <time>2015-02-07T11:34:09.000Z</time>
      </trkpt>
      <trkpt lat="45.94597" lon="6.5189">
        <ele>1548.4000244141</ele>
        <time>2015-02-07T11:34:17.000Z</time>
      </trkpt>
      <trkpt lat="45.94601" lon="6.5189">
        <ele>1548.4000244141</ele>
        <time>2015-02-07T11:34:26.000Z</time>
      </trkpt>
      <trkpt lat="45.94607" lon="6.51888">
        <ele>1547.8000488281</ele>
        <time>2015-02-07T11:34:33.000Z</time>
      </trkpt>
      <trkpt lat="45.94609" lon="6.51887">
        <ele>1548.1999511719</ele>
        <time>2015-02-07T11:34:39.000Z</time>
      </trkpt>
      <trkpt lat="45.94609" lon="6.51887">
        <ele>1548.5999755859</ele>
        <time>2015-02-07T11:34:48.000Z</time>
      </trkpt>
      <trkpt lat="45.94602" lon="6.51891">
        <ele>1549.4000244141</ele>
        <time>2015-02-07T11:34:55.000Z</time>
      </trkpt>
      <trkpt lat="45.946" lon="6.51896">
        <ele>1550.1999511719</ele>
        <time>2015-02-07T11:35:00.000Z</time>
      </trkpt>
      <trkpt lat="45.946" lon="6.51896">
        <ele>1550.5999755859</ele>
        <time>2015-02-07T11:35:01.000Z</time>
      </trkpt>
      <trkpt lat="45.94602" lon="6.51901">
        <ele>1551.5999755859</ele>
        <time>2015-02-07T11:35:06.000Z</time>
      </trkpt>
      <trkpt lat="45.94602" lon="6.51902">
        <ele>1551.5999755859</ele>
        <time>2015-02-07T11:35:07.000Z</time>
      </trkpt>
      <trkpt lat="45.94603" lon="6.51904">
        <ele>1552.4000244141</ele>
        <time>2015-02-07T11:35:14.000Z</time>
      </trkpt>
      <trkpt lat="45.94603" lon="6.51904">
        <ele>1552.5999755859</ele>
        <time>2015-02-07T11:35:16.000Z</time>
      </trkpt>
      <trkpt lat="45.94603" lon="6.51904">
        <ele>1553.1999511719</ele>
        <time>2015-02-07T11:35:26.000Z</time>
      </trkpt>
      <trkpt lat="45.94601" lon="6.51909">
        <ele>1553.8000488281</ele>
        <time>2015-02-07T11:35:32.000Z</time>
      </trkpt>
      <trkpt lat="45.94601" lon="6.51909">
        <ele>1553.8000488281</ele>
        <time>2015-02-07T11:35:34.000Z</time>
      </trkpt>
      <trkpt lat="45.94602" lon="6.51909">
        <ele>1554</ele>
        <time>2015-02-07T11:35:40.000Z</time>
      </trkpt>
      <trkpt lat="45.94602" lon="6.51909">
        <ele>1554</ele>
        <time>2015-02-07T11:35:49.000Z</time>
      </trkpt>
      <trkpt lat="45.94602" lon="6.51908">
        <ele>1553.8000488281</ele>
        <time>2015-02-07T11:35:58.000Z</time>
      </trkpt>
      <trkpt lat="45.94602" lon="6.5191">
        <ele>1553.1999511719</ele>
        <time>2015-02-07T11:36:04.000Z</time>
      </trkpt>
      <trkpt lat="45.94602" lon="6.51915">
        <ele>1554.5999755859</ele>
        <time>2015-02-07T11:36:11.000Z</time>
      </trkpt>
      <trkpt lat="45.94602" lon="6.51916">
        <ele>1555</ele>
        <time>2015-02-07T11:36:12.000Z</time>
      </trkpt>
      <trkpt lat="45.94602" lon="6.51916">
        <ele>1556</ele>
        <time>2015-02-07T11:36:20.000Z</time>
      </trkpt>
      <trkpt lat="45.94602" lon="6.51916">
        <ele>1556.4000244141</ele>
        <time>2015-02-07T11:36:27.000Z</time>
      </trkpt>
      <trkpt lat="45.94602" lon="6.51916">
        <ele>1557.1999511719</ele>
        <time>2015-02-07T11:36:32.000Z</time>
      </trkpt>
      <trkpt lat="45.94603" lon="6.51917">
        <ele>1557.5999755859</ele>
        <time>2015-02-07T11:36:34.000Z</time>
      </trkpt>
      <trkpt lat="45.94605" lon="6.51917">
        <ele>1558.1999511719</ele>
        <time>2015-02-07T11:36:36.000Z</time>
      </trkpt>
      <trkpt lat="45.94609" lon="6.51919">
        <ele>1559</ele>
        <time>2015-02-07T11:36:43.000Z</time>
      </trkpt>
      <trkpt lat="45.9461" lon="6.51919">
        <ele>1559.1999511719</ele>
        <time>2015-02-07T11:36:46.000Z</time>
      </trkpt>
      <trkpt lat="45.9461" lon="6.5192">
        <ele>1559.5999755859</ele>
        <time>2015-02-07T11:36:49.000Z</time>
      </trkpt>
      <trkpt lat="45.94609" lon="6.51924">
        <ele>1559.5999755859</ele>
        <time>2015-02-07T11:36:54.000Z</time>
      </trkpt>
      <trkpt lat="45.94612" lon="6.51928">
        <ele>1560.4000244141</ele>
        <time>2015-02-07T11:36:59.000Z</time>
      </trkpt>
      <trkpt lat="45.94613" lon="6.5193">
        <ele>1560.5999755859</ele>
        <time>2015-02-07T11:37:01.000Z</time>
      </trkpt>
      <trkpt lat="45.94614" lon="6.51934">
        <ele>1561.4000244141</ele>
        <time>2015-02-07T11:37:05.000Z</time>
      </trkpt>
      <trkpt lat="45.94615" lon="6.51939">
        <ele>1562.1999511719</ele>
        <time>2015-02-07T11:37:09.000Z</time>
      </trkpt>
      <trkpt lat="45.94615" lon="6.51939">
        <ele>1562.4000244141</ele>
        <time>2015-02-07T11:37:10.000Z</time>
      </trkpt>
      <trkpt lat="45.94616" lon="6.51942">
        <ele>1563.4000244141</ele>
        <time>2015-02-07T11:37:15.000Z</time>
      </trkpt>
      <trkpt lat="45.94617" lon="6.51943">
        <ele>1563.5999755859</ele>
        <time>2015-02-07T11:37:16.000Z</time>
      </trkpt>
      <trkpt lat="45.94618" lon="6.51948">
        <ele>1564.4000244141</ele>
        <time>2015-02-07T11:37:21.000Z</time>
      </trkpt>
      <trkpt lat="45.94618" lon="6.51948">
        <ele>1564.4000244141</ele>
        <time>2015-02-07T11:37:22.000Z</time>
      </trkpt>
      <trkpt lat="45.94619" lon="6.51948">
        <ele>1565.5999755859</ele>
        <time>2015-02-07T11:37:27.000Z</time>
      </trkpt>
      <trkpt lat="45.94619" lon="6.51948">
        <ele>1565.5999755859</ele>
        <time>2015-02-07T11:37:28.000Z</time>
      </trkpt>
      <trkpt lat="45.9462" lon="6.51947">
        <ele>1566.4000244141</ele>
        <time>2015-02-07T11:37:35.000Z</time>
      </trkpt>
      <trkpt lat="45.94622" lon="6.51947">
        <ele>1566.4000244141</ele>
        <time>2015-02-07T11:37:42.000Z</time>
      </trkpt>
      <trkpt lat="45.94622" lon="6.51947">
        <ele>1566.8000488281</ele>
        <time>2015-02-07T11:37:46.000Z</time>
      </trkpt>
      <trkpt lat="45.94622" lon="6.51947">
        <ele>1566.8000488281</ele>
        <time>2015-02-07T11:37:53.000Z</time>
      </trkpt>
      <trkpt lat="45.94623" lon="6.51946">
        <ele>1566.5999755859</ele>
        <time>2015-02-07T11:38:01.000Z</time>
      </trkpt>
      <trkpt lat="45.94627" lon="6.51939">
        <ele>1566.4000244141</ele>
        <time>2015-02-07T11:38:06.000Z</time>
      </trkpt>
      <trkpt lat="45.94629" lon="6.51932">
        <ele>1567.4000244141</ele>
        <time>2015-02-07T11:38:11.000Z</time>
      </trkpt>
      <trkpt lat="45.94632" lon="6.51928">
        <ele>1567.8000488281</ele>
        <time>2015-02-07T11:38:16.000Z</time>
      </trkpt>
      <trkpt lat="45.94634" lon="6.51926">
        <ele>1568.1999511719</ele>
        <time>2015-02-07T11:38:19.000Z</time>
      </trkpt>
      <trkpt lat="45.94638" lon="6.51925">
        <ele>1568.8000488281</ele>
        <time>2015-02-07T11:38:24.000Z</time>
      </trkpt>
      <trkpt lat="45.9464" lon="6.51925">
        <ele>1569.1999511719</ele>
        <time>2015-02-07T11:38:27.000Z</time>
      </trkpt>
      <trkpt lat="45.9464" lon="6.51925">
        <ele>1570</ele>
        <time>2015-02-07T11:38:30.000Z</time>
      </trkpt>
      <trkpt lat="45.94643" lon="6.51923">
        <ele>1570.8000488281</ele>
        <time>2015-02-07T11:38:35.000Z</time>
      </trkpt>
      <trkpt lat="45.94644" lon="6.51922">
        <ele>1571</ele>
        <time>2015-02-07T11:38:36.000Z</time>
      </trkpt>
      <trkpt lat="45.94651" lon="6.51918">
        <ele>1571.8000488281</ele>
        <time>2015-02-07T11:38:43.000Z</time>
      </trkpt>
      <trkpt lat="45.94655" lon="6.51919">
        <ele>1572</ele>
        <time>2015-02-07T11:38:47.000Z</time>
      </trkpt>
      <trkpt lat="45.94656" lon="6.5192">
        <ele>1573</ele>
        <time>2015-02-07T11:38:51.000Z</time>
      </trkpt>
      <trkpt lat="45.94659" lon="6.51922">
        <ele>1574</ele>
        <time>2015-02-07T11:38:59.000Z</time>
      </trkpt>
      <trkpt lat="45.9466" lon="6.51922">
        <ele>1574.1999511719</ele>
        <time>2015-02-07T11:39:00.000Z</time>
      </trkpt>
      <trkpt lat="45.94661" lon="6.51922">
        <ele>1574.5999755859</ele>
        <time>2015-02-07T11:39:04.000Z</time>
      </trkpt>
      <trkpt lat="45.94664" lon="6.51925">
        <ele>1575.1999511719</ele>
        <time>2015-02-07T11:39:09.000Z</time>
      </trkpt>
      <trkpt lat="45.94666" lon="6.51929">
        <ele>1575.5999755859</ele>
        <time>2015-02-07T11:39:12.000Z</time>
      </trkpt>
      <trkpt lat="45.94667" lon="6.51933">
        <ele>1576.1999511719</ele>
        <time>2015-02-07T11:39:15.000Z</time>
      </trkpt>
      <trkpt lat="45.94667" lon="6.51937">
        <ele>1576.5999755859</ele>
        <time>2015-02-07T11:39:20.000Z</time>
      </trkpt>
      <trkpt lat="45.94668" lon="6.51939">
        <ele>1577.4000244141</ele>
        <time>2015-02-07T11:39:23.000Z</time>
      </trkpt>
      <trkpt lat="45.94668" lon="6.51939">
        <ele>1578.1999511719</ele>
        <time>2015-02-07T11:39:27.000Z</time>
      </trkpt>
      <trkpt lat="45.94668" lon="6.5194">
        <ele>1578.4000244141</ele>
        <time>2015-02-07T11:39:28.000Z</time>
      </trkpt>
      <trkpt lat="45.94668" lon="6.51943">
        <ele>1579.4000244141</ele>
        <time>2015-02-07T11:39:33.000Z</time>
      </trkpt>
      <trkpt lat="45.9467" lon="6.51946">
        <ele>1580</ele>
        <time>2015-02-07T11:39:36.000Z</time>
      </trkpt>
      <trkpt lat="45.9467" lon="6.51948">
        <ele>1580.4000244141</ele>
        <time>2015-02-07T11:39:38.000Z</time>
      </trkpt>
      <trkpt lat="45.94672" lon="6.51951">
        <ele>1581.1999511719</ele>
        <time>2015-02-07T11:39:42.000Z</time>
      </trkpt>
      <trkpt lat="45.94672" lon="6.51954">
        <ele>1581.5999755859</ele>
        <time>2015-02-07T11:39:44.000Z</time>
      </trkpt>
      <trkpt lat="45.94671" lon="6.51955">
        <ele>1582.4000244141</ele>
        <time>2015-02-07T11:39:48.000Z</time>
      </trkpt>
      <trkpt lat="45.94671" lon="6.51959">
        <ele>1582.5999755859</ele>
        <time>2015-02-07T11:39:51.000Z</time>
      </trkpt>
      <trkpt lat="45.94672" lon="6.51961">
        <ele>1583.1999511719</ele>
        <time>2015-02-07T11:39:54.000Z</time>
      </trkpt>
      <trkpt lat="45.94673" lon="6.51964">
        <ele>1583.8000488281</ele>
        <time>2015-02-07T11:39:57.000Z</time>
      </trkpt>
      <trkpt lat="45.94673" lon="6.51966">
        <ele>1584.1999511719</ele>
        <time>2015-02-07T11:40:01.000Z</time>
      </trkpt>
      <trkpt lat="45.94674" lon="6.51966">
        <ele>1584.5999755859</ele>
        <time>2015-02-07T11:40:09.000Z</time>
      </trkpt>
      <trkpt lat="45.94674" lon="6.51966">
        <ele>1584.1999511719</ele>
        <time>2015-02-07T11:40:16.000Z</time>
      </trkpt>
      <trkpt lat="45.94677" lon="6.51971">
        <ele>1584</ele>
        <time>2015-02-07T11:40:20.000Z</time>
      </trkpt>
      <trkpt lat="45.94679" lon="6.51977">
        <ele>1584.1999511719</ele>
        <time>2015-02-07T11:40:24.000Z</time>
      </trkpt>
      <trkpt lat="45.94681" lon="6.51982">
        <ele>1584.8000488281</ele>
        <time>2015-02-07T11:40:29.000Z</time>
      </trkpt>
      <trkpt lat="45.94682" lon="6.51984">
        <ele>1585</ele>
        <time>2015-02-07T11:40:31.000Z</time>
      </trkpt>
      <trkpt lat="45.94685" lon="6.51991">
        <ele>1585.5999755859</ele>
        <time>2015-02-07T11:40:39.000Z</time>
      </trkpt>
      <trkpt lat="45.94685" lon="6.51991">
        <ele>1585.8000488281</ele>
        <time>2015-02-07T11:40:43.000Z</time>
      </trkpt>
      <trkpt lat="45.94685" lon="6.51991">
        <ele>1586.1999511719</ele>
        <time>2015-02-07T11:40:50.000Z</time>
      </trkpt>
      <trkpt lat="45.94685" lon="6.51991">
        <ele>1586.5999755859</ele>
        <time>2015-02-07T11:41:01.000Z</time>
      </trkpt>
      <trkpt lat="45.94685" lon="6.51991">
        <ele>1586.5999755859</ele>
        <time>2015-02-07T11:41:09.000Z</time>
      </trkpt>
      <trkpt lat="45.94686" lon="6.51992">
        <ele>1586</ele>
        <time>2015-02-07T11:41:17.000Z</time>
      </trkpt>
      <trkpt lat="45.94696" lon="6.51997">
        <ele>1586.5999755859</ele>
        <time>2015-02-07T11:41:27.000Z</time>
      </trkpt>
      <trkpt lat="45.94698" lon="6.52">
        <ele>1587</ele>
        <time>2015-02-07T11:41:30.000Z</time>
      </trkpt>
      <trkpt lat="45.94701" lon="6.52002">
        <ele>1587.4000244141</ele>
        <time>2015-02-07T11:41:34.000Z</time>
      </trkpt>
      <trkpt lat="45.94704" lon="6.52006">
        <ele>1588</ele>
        <time>2015-02-07T11:41:40.000Z</time>
      </trkpt>
      <trkpt lat="45.94705" lon="6.52007">
        <ele>1588</ele>
        <time>2015-02-07T11:41:41.000Z</time>
      </trkpt>
      <trkpt lat="45.94707" lon="6.52009">
        <ele>1588.5999755859</ele>
        <time>2015-02-07T11:41:46.000Z</time>
      </trkpt>
      <trkpt lat="45.94707" lon="6.52009">
        <ele>1589.1999511719</ele>
        <time>2015-02-07T11:41:47.000Z</time>
      </trkpt>
      <trkpt lat="45.94709" lon="6.52013">
        <ele>1589.8000488281</ele>
        <time>2015-02-07T11:41:52.000Z</time>
      </trkpt>
      <trkpt lat="45.9471" lon="6.52015">
        <ele>1590.1999511719</ele>
        <time>2015-02-07T11:41:56.000Z</time>
      </trkpt>
      <trkpt lat="45.9471" lon="6.52015">
        <ele>1590.4000244141</ele>
        <time>2015-02-07T11:41:57.000Z</time>
      </trkpt>
      <trkpt lat="45.94711" lon="6.52017">
        <ele>1591</ele>
        <time>2015-02-07T11:42:02.000Z</time>
      </trkpt>
      <trkpt lat="45.94712" lon="6.52018">
        <ele>1591.4000244141</ele>
        <time>2015-02-07T11:42:03.000Z</time>
      </trkpt>
      <trkpt lat="45.94715" lon="6.5202">
        <ele>1591.5999755859</ele>
        <time>2015-02-07T11:42:09.000Z</time>
      </trkpt>
      <trkpt lat="45.94718" lon="6.52024">
        <ele>1592.1999511719</ele>
        <time>2015-02-07T11:42:15.000Z</time>
      </trkpt>
      <trkpt lat="45.94718" lon="6.52025">
        <ele>1592.5999755859</ele>
        <time>2015-02-07T11:42:17.000Z</time>
      </trkpt>
      <trkpt lat="45.94721" lon="6.52028">
        <ele>1593.1999511719</ele>
        <time>2015-02-07T11:42:22.000Z</time>
      </trkpt>
      <trkpt lat="45.94721" lon="6.52029">
        <ele>1593</ele>
        <time>2015-02-07T11:42:30.000Z</time>
      </trkpt>
      <trkpt lat="45.94727" lon="6.52032">
        <ele>1593</ele>
        <time>2015-02-07T11:42:37.000Z</time>
      </trkpt>
      <trkpt lat="45.94731" lon="6.52034">
        <ele>1592.4000244141</ele>
        <time>2015-02-07T11:42:40.000Z</time>
      </trkpt>
      <trkpt lat="45.94734" lon="6.52036">
        <ele>1592</ele>
        <time>2015-02-07T11:42:44.000Z</time>
      </trkpt>
      <trkpt lat="45.94735" lon="6.52039">
        <ele>1591.4000244141</ele>
        <time>2015-02-07T11:42:49.000Z</time>
      </trkpt>
      <trkpt lat="45.94737" lon="6.52043">
        <ele>1591.5999755859</ele>
        <time>2015-02-07T11:42:57.000Z</time>
      </trkpt>
      <trkpt lat="45.94738" lon="6.52048">
        <ele>1591.4000244141</ele>
        <time>2015-02-07T11:43:02.000Z</time>
      </trkpt>
      <trkpt lat="45.9474" lon="6.52054">
        <ele>1592.1999511719</ele>
        <time>2015-02-07T11:43:08.000Z</time>
      </trkpt>
      <trkpt lat="45.94741" lon="6.52055">
        <ele>1592.5999755859</ele>
        <time>2015-02-07T11:43:10.000Z</time>
      </trkpt>
      <trkpt lat="45.94741" lon="6.52057">
        <ele>1593.1999511719</ele>
        <time>2015-02-07T11:43:13.000Z</time>
      </trkpt>
      <trkpt lat="45.9474" lon="6.52057">
        <ele>1593.5999755859</ele>
        <time>2015-02-07T11:43:20.000Z</time>
      </trkpt>
      <trkpt lat="45.9474" lon="6.52057">
        <ele>1593.8000488281</ele>
        <time>2015-02-07T11:43:21.000Z</time>
      </trkpt>
      <trkpt lat="45.94737" lon="6.52055">
        <ele>1594.5999755859</ele>
        <time>2015-02-07T11:43:28.000Z</time>
      </trkpt>
      <trkpt lat="45.94735" lon="6.52054">
        <ele>1594.8000488281</ele>
        <time>2015-02-07T11:43:29.000Z</time>
      </trkpt>
      <trkpt lat="45.94735" lon="6.52054">
        <ele>1595.1999511719</ele>
        <time>2015-02-07T11:43:30.000Z</time>
      </trkpt>
      <trkpt lat="45.94733" lon="6.52053">
        <ele>1595.4000244141</ele>
        <time>2015-02-07T11:43:32.000Z</time>
      </trkpt>
      <trkpt lat="45.94731" lon="6.5205">
        <ele>1596.1999511719</ele>
        <time>2015-02-07T11:43:38.000Z</time>
      </trkpt>
      <trkpt lat="45.9473" lon="6.5205">
        <ele>1596.4000244141</ele>
        <time>2015-02-07T11:43:39.000Z</time>
      </trkpt>
      <trkpt lat="45.94726" lon="6.52045">
        <ele>1597.4000244141</ele>
        <time>2015-02-07T11:43:46.000Z</time>
      </trkpt>
      <trkpt lat="45.94726" lon="6.52045">
        <ele>1597.8000488281</ele>
        <time>2015-02-07T11:43:47.000Z</time>
      </trkpt>
      <trkpt lat="45.94726" lon="6.52044">
        <ele>1598.5999755859</ele>
        <time>2015-02-07T11:43:50.000Z</time>
      </trkpt>
      <trkpt lat="45.94726" lon="6.52044">
        <ele>1599</ele>
        <time>2015-02-07T11:43:57.000Z</time>
      </trkpt>
      <trkpt lat="45.94726" lon="6.52044">
        <ele>1598.8000488281</ele>
        <time>2015-02-07T11:44:03.000Z</time>
      </trkpt>
      <trkpt lat="45.94726" lon="6.52046">
        <ele>1599.5999755859</ele>
        <time>2015-02-07T11:44:12.000Z</time>
      </trkpt>
      <trkpt lat="45.94726" lon="6.52047">
        <ele>1600</ele>
        <time>2015-02-07T11:44:17.000Z</time>
      </trkpt>
      <trkpt lat="45.94725" lon="6.5205">
        <ele>1600.4000244141</ele>
        <time>2015-02-07T11:44:21.000Z</time>
      </trkpt>
      <trkpt lat="45.94726" lon="6.52052">
        <ele>1600.8000488281</ele>
        <time>2015-02-07T11:44:23.000Z</time>
      </trkpt>
      <trkpt lat="45.94726" lon="6.52052">
        <ele>1601.4000244141</ele>
        <time>2015-02-07T11:44:25.000Z</time>
      </trkpt>
      <trkpt lat="45.94726" lon="6.52053">
        <ele>1602</ele>
        <time>2015-02-07T11:44:27.000Z</time>
      </trkpt>
      <trkpt lat="45.94726" lon="6.52053">
        <ele>1602.4000244141</ele>
        <time>2015-02-07T11:44:31.000Z</time>
      </trkpt>
      <trkpt lat="45.94726" lon="6.52053">
        <ele>1603</ele>
        <time>2015-02-07T11:44:41.000Z</time>
      </trkpt>
      <trkpt lat="45.94726" lon="6.52053">
        <ele>1603</ele>
        <time>2015-02-07T11:44:44.000Z</time>
      </trkpt>
      <trkpt lat="45.94726" lon="6.52053">
        <ele>1603.1999511719</ele>
        <time>2015-02-07T11:44:49.000Z</time>
      </trkpt>
      <trkpt lat="45.94724" lon="6.52052">
        <ele>1603.5999755859</ele>
        <time>2015-02-07T11:44:57.000Z</time>
      </trkpt>
      <trkpt lat="45.94722" lon="6.52049">
        <ele>1604.1999511719</ele>
        <time>2015-02-07T11:45:00.000Z</time>
      </trkpt>
      <trkpt lat="45.9472" lon="6.52047">
        <ele>1604</ele>
        <time>2015-02-07T11:45:04.000Z</time>
      </trkpt>
      <trkpt lat="45.94718" lon="6.52047">
        <ele>1604.1999511719</ele>
        <time>2015-02-07T11:45:09.000Z</time>
      </trkpt>
      <trkpt lat="45.94715" lon="6.52047">
        <ele>1605.1999511719</ele>
        <time>2015-02-07T11:45:14.000Z</time>
      </trkpt>
      <trkpt lat="45.94712" lon="6.52047">
        <ele>1605.4000244141</ele>
        <time>2015-02-07T11:45:17.000Z</time>
      </trkpt>
      <trkpt lat="45.94709" lon="6.52047">
        <ele>1606.1999511719</ele>
        <time>2015-02-07T11:45:22.000Z</time>
      </trkpt>
      <trkpt lat="45.94705" lon="6.52045">
        <ele>1607.4000244141</ele>
        <time>2015-02-07T11:45:28.000Z</time>
      </trkpt>
      <trkpt lat="45.94705" lon="6.52045">
        <ele>1607.5999755859</ele>
        <time>2015-02-07T11:45:30.000Z</time>
      </trkpt>
      <trkpt lat="45.947" lon="6.52041">
        <ele>1607.5999755859</ele>
        <time>2015-02-07T11:45:39.000Z</time>
      </trkpt>
      <trkpt lat="45.947" lon="6.52041">
        <ele>1608.4000244141</ele>
        <time>2015-02-07T11:45:42.000Z</time>
      </trkpt>
      <trkpt lat="45.94698" lon="6.52041">
        <ele>1608.5999755859</ele>
        <time>2015-02-07T11:45:44.000Z</time>
      </trkpt>
      <trkpt lat="45.94696" lon="6.52039">
        <ele>1609</ele>
        <time>2015-02-07T11:45:48.000Z</time>
      </trkpt>
      <trkpt lat="45.94695" lon="6.52039">
        <ele>1609.5999755859</ele>
        <time>2015-02-07T11:45:51.000Z</time>
      </trkpt>
      <trkpt lat="45.94695" lon="6.52039">
        <ele>1610.1999511719</ele>
        <time>2015-02-07T11:45:54.000Z</time>
      </trkpt>
      <trkpt lat="45.94697" lon="6.52048">
        <ele>1610.4000244141</ele>
        <time>2015-02-07T11:45:58.000Z</time>
      </trkpt>
      <trkpt lat="45.94697" lon="6.52051">
        <ele>1610.8000488281</ele>
        <time>2015-02-07T11:46:00.000Z</time>
      </trkpt>
      <trkpt lat="45.94698" lon="6.52054">
        <ele>1611.4000244141</ele>
        <time>2015-02-07T11:46:03.000Z</time>
      </trkpt>
      <trkpt lat="45.94699" lon="6.52057">
        <ele>1612</ele>
        <time>2015-02-07T11:46:06.000Z</time>
      </trkpt>
      <trkpt lat="45.94699" lon="6.52057">
        <ele>1612.4000244141</ele>
        <time>2015-02-07T11:46:09.000Z</time>
      </trkpt>
      <trkpt lat="45.94699" lon="6.52057">
        <ele>1613.1999511719</ele>
        <time>2015-02-07T11:46:11.000Z</time>
      </trkpt>
      <trkpt lat="45.947" lon="6.52061">
        <ele>1613.5999755859</ele>
        <time>2015-02-07T11:46:17.000Z</time>
      </trkpt>
      <trkpt lat="45.94702" lon="6.52067">
        <ele>1614</ele>
        <time>2015-02-07T11:46:24.000Z</time>
      </trkpt>
      <trkpt lat="45.94703" lon="6.52069">
        <ele>1614.1999511719</ele>
        <time>2015-02-07T11:46:26.000Z</time>
      </trkpt>
      <trkpt lat="45.94704" lon="6.5207">
        <ele>1614.8000488281</ele>
        <time>2015-02-07T11:46:30.000Z</time>
      </trkpt>
      <trkpt lat="45.94704" lon="6.52074">
        <ele>1615.5999755859</ele>
        <time>2015-02-07T11:46:36.000Z</time>
      </trkpt>
      <trkpt lat="45.94705" lon="6.52077">
        <ele>1616</ele>
        <time>2015-02-07T11:46:39.000Z</time>
      </trkpt>
      <trkpt lat="45.94706" lon="6.52077">
        <ele>1616.5999755859</ele>
        <time>2015-02-07T11:46:43.000Z</time>
      </trkpt>
      <trkpt lat="45.94706" lon="6.52077">
        <ele>1616.8000488281</ele>
        <time>2015-02-07T11:46:44.000Z</time>
      </trkpt>
      <trkpt lat="45.94706" lon="6.52078">
        <ele>1617</ele>
        <time>2015-02-07T11:47:02.000Z</time>
      </trkpt>
      <trkpt lat="45.94708" lon="6.52079">
        <ele>1617</ele>
        <time>2015-02-07T11:47:08.000Z</time>
      </trkpt>
      <trkpt lat="45.94707" lon="6.52082">
        <ele>1616.8000488281</ele>
        <time>2015-02-07T11:47:16.000Z</time>
      </trkpt>
      <trkpt lat="45.94702" lon="6.5209">
        <ele>1615.8000488281</ele>
        <time>2015-02-07T11:47:22.000Z</time>
      </trkpt>
      <trkpt lat="45.94702" lon="6.5209">
        <ele>1615.4000244141</ele>
        <time>2015-02-07T11:47:23.000Z</time>
      </trkpt>
      <trkpt lat="45.94701" lon="6.521">
        <ele>1614.4000244141</ele>
        <time>2015-02-07T11:47:29.000Z</time>
      </trkpt>
      <trkpt lat="45.947" lon="6.52109">
        <ele>1615.1999511719</ele>
        <time>2015-02-07T11:47:35.000Z</time>
      </trkpt>
      <trkpt lat="45.947" lon="6.52112">
        <ele>1616.4000244141</ele>
        <time>2015-02-07T11:47:42.000Z</time>
      </trkpt>
      <trkpt lat="45.947" lon="6.52112">
        <ele>1616.5999755859</ele>
        <time>2015-02-07T11:47:43.000Z</time>
      </trkpt>
      <trkpt lat="45.947" lon="6.52111">
        <ele>1617.5999755859</ele>
        <time>2015-02-07T11:47:49.000Z</time>
      </trkpt>
      <trkpt lat="45.947" lon="6.52111">
        <ele>1617.8000488281</ele>
        <time>2015-02-07T11:47:51.000Z</time>
      </trkpt>
      <trkpt lat="45.947" lon="6.52118">
        <ele>1618.5999755859</ele>
        <time>2015-02-07T11:47:58.000Z</time>
      </trkpt>
      <trkpt lat="45.947" lon="6.52119">
        <ele>1618.8000488281</ele>
        <time>2015-02-07T11:47:59.000Z</time>
      </trkpt>
      <trkpt lat="45.94698" lon="6.52122">
        <ele>1620</ele>
        <time>2015-02-07T11:48:04.000Z</time>
      </trkpt>
      <trkpt lat="45.94697" lon="6.52123">
        <ele>1620.1999511719</ele>
        <time>2015-02-07T11:48:05.000Z</time>
      </trkpt>
      <trkpt lat="45.94698" lon="6.52135">
        <ele>1621</ele>
        <time>2015-02-07T11:48:12.000Z</time>
      </trkpt>
      <trkpt lat="45.94699" lon="6.52143">
        <ele>1621.5999755859</ele>
        <time>2015-02-07T11:48:18.000Z</time>
      </trkpt>
      <trkpt lat="45.94699" lon="6.52152">
        <ele>1621.5999755859</ele>
        <time>2015-02-07T11:48:24.000Z</time>
      </trkpt>
      <trkpt lat="45.94701" lon="6.52158">
        <ele>1621.4000244141</ele>
        <time>2015-02-07T11:48:31.000Z</time>
      </trkpt>
      <trkpt lat="45.94702" lon="6.52161">
        <ele>1621.5999755859</ele>
        <time>2015-02-07T11:48:40.000Z</time>
      </trkpt>
      <trkpt lat="45.94704" lon="6.52163">
        <ele>1621.8000488281</ele>
        <time>2015-02-07T11:48:47.000Z</time>
      </trkpt>
      <trkpt lat="45.94705" lon="6.52163">
        <ele>1622</ele>
        <time>2015-02-07T11:48:48.000Z</time>
      </trkpt>
      <trkpt lat="45.94705" lon="6.52163">
        <ele>1622.5999755859</ele>
        <time>2015-02-07T11:48:56.000Z</time>
      </trkpt>
      <trkpt lat="45.9471" lon="6.52164">
        <ele>1622.4000244141</ele>
        <time>2015-02-07T11:49:02.000Z</time>
      </trkpt>
      <trkpt lat="45.94713" lon="6.52169">
        <ele>1623</ele>
        <time>2015-02-07T11:49:08.000Z</time>
      </trkpt>
      <trkpt lat="45.94713" lon="6.52169">
        <ele>1623</ele>
        <time>2015-02-07T11:49:09.000Z</time>
      </trkpt>
      <trkpt lat="45.94713" lon="6.52169">
        <ele>1624.1999511719</ele>
        <time>2015-02-07T11:49:13.000Z</time>
      </trkpt>
      <trkpt lat="45.94713" lon="6.52169">
        <ele>1624.4000244141</ele>
        <time>2015-02-07T11:49:15.000Z</time>
      </trkpt>
      <trkpt lat="45.94717" lon="6.52171">
        <ele>1625</ele>
        <time>2015-02-07T11:49:21.000Z</time>
      </trkpt>
      <trkpt lat="45.94719" lon="6.52172">
        <ele>1625.4000244141</ele>
        <time>2015-02-07T11:49:24.000Z</time>
      </trkpt>
      <trkpt lat="45.9472" lon="6.52173">
        <ele>1625.8000488281</ele>
        <time>2015-02-07T11:49:30.000Z</time>
      </trkpt>
      <trkpt lat="45.9472" lon="6.52173">
        <ele>1625.8000488281</ele>
        <time>2015-02-07T11:49:41.000Z</time>
      </trkpt>
      <trkpt lat="45.94722" lon="6.52179">
        <ele>1626</ele>
        <time>2015-02-07T11:49:55.000Z</time>
      </trkpt>
      <trkpt lat="45.94725" lon="6.52181">
        <ele>1626.5999755859</ele>
        <time>2015-02-07T11:50:00.000Z</time>
      </trkpt>
      <trkpt lat="45.94726" lon="6.52183">
        <ele>1626.8000488281</ele>
        <time>2015-02-07T11:50:01.000Z</time>
      </trkpt>
      <trkpt lat="45.94731" lon="6.52187">
        <ele>1627</ele>
        <time>2015-02-07T11:50:07.000Z</time>
      </trkpt>
      <trkpt lat="45.94735" lon="6.52192">
        <ele>1626.5999755859</ele>
        <time>2015-02-07T11:50:14.000Z</time>
      </trkpt>
      <trkpt lat="45.94739" lon="6.52198">
        <ele>1626.5999755859</ele>
        <time>2015-02-07T11:50:22.000Z</time>
      </trkpt>
      <trkpt lat="45.94745" lon="6.52204">
        <ele>1627.4000244141</ele>
        <time>2015-02-07T11:50:32.000Z</time>
      </trkpt>
      <trkpt lat="45.94746" lon="6.52205">
        <ele>1627.1999511719</ele>
        <time>2015-02-07T11:50:42.000Z</time>
      </trkpt>
      <trkpt lat="45.94749" lon="6.52207">
        <ele>1626.4000244141</ele>
        <time>2015-02-07T11:50:48.000Z</time>
      </trkpt>
      <trkpt lat="45.94749" lon="6.52207">
        <ele>1625.4000244141</ele>
        <time>2015-02-07T11:50:51.000Z</time>
      </trkpt>
      <trkpt lat="45.94749" lon="6.52207">
        <ele>1625.8000488281</ele>
        <time>2015-02-07T11:50:56.000Z</time>
      </trkpt>
      <trkpt lat="45.94749" lon="6.52207">
        <ele>1625.5999755859</ele>
        <time>2015-02-07T11:51:13.000Z</time>
      </trkpt>
      <trkpt lat="45.94749" lon="6.52207">
        <ele>1625.5999755859</ele>
        <time>2015-02-07T11:51:24.000Z</time>
      </trkpt>
      <trkpt lat="45.94749" lon="6.52207">
        <ele>1625.8000488281</ele>
        <time>2015-02-07T11:51:30.000Z</time>
      </trkpt>
      <trkpt lat="45.94749" lon="6.52207">
        <ele>1625.8000488281</ele>
        <time>2015-02-07T11:51:46.000Z</time>
      </trkpt>
      <trkpt lat="45.94749" lon="6.52207">
        <ele>1625.8000488281</ele>
        <time>2015-02-07T11:51:57.000Z</time>
      </trkpt>
      <trkpt lat="45.94752" lon="6.52205">
        <ele>1625.5999755859</ele>
        <time>2015-02-07T11:52:11.000Z</time>
      </trkpt>
      <trkpt lat="45.94756" lon="6.52204">
        <ele>1624.4000244141</ele>
        <time>2015-02-07T11:52:15.000Z</time>
      </trkpt>
      <trkpt lat="45.94756" lon="6.52204">
        <ele>1623.4000244141</ele>
        <time>2015-02-07T11:52:18.000Z</time>
      </trkpt>
      <trkpt lat="45.94756" lon="6.52204">
        <ele>1623.1999511719</ele>
        <time>2015-02-07T11:52:19.000Z</time>
      </trkpt>
      <trkpt lat="45.9476" lon="6.52204">
        <ele>1623.1999511719</ele>
        <time>2015-02-07T11:52:26.000Z</time>
      </trkpt>
      <trkpt lat="45.94764" lon="6.52205">
        <ele>1623.8000488281</ele>
        <time>2015-02-07T11:52:33.000Z</time>
      </trkpt>
      <trkpt lat="45.94767" lon="6.52207">
        <ele>1624.1999511719</ele>
        <time>2015-02-07T11:52:36.000Z</time>
      </trkpt>
      <trkpt lat="45.94767" lon="6.52207">
        <ele>1624.8000488281</ele>
        <time>2015-02-07T11:52:39.000Z</time>
      </trkpt>
      <trkpt lat="45.94767" lon="6.52207">
        <ele>1625.4000244141</ele>
        <time>2015-02-07T11:52:42.000Z</time>
      </trkpt>
      <trkpt lat="45.94767" lon="6.52207">
        <ele>1625.8000488281</ele>
        <time>2015-02-07T11:52:45.000Z</time>
      </trkpt>
      <trkpt lat="45.94767" lon="6.52207">
        <ele>1626</ele>
        <time>2015-02-07T11:52:57.000Z</time>
      </trkpt>
      <trkpt lat="45.94767" lon="6.52207">
        <ele>1626</ele>
        <time>2015-02-07T11:53:06.000Z</time>
      </trkpt>
      <trkpt lat="45.94758" lon="6.52201">
        <ele>1625.1999511719</ele>
        <time>2015-02-07T11:53:14.000Z</time>
      </trkpt>
      <trkpt lat="45.94758" lon="6.522">
        <ele>1624.1999511719</ele>
        <time>2015-02-07T11:53:17.000Z</time>
      </trkpt>
      <trkpt lat="45.94756" lon="6.52199">
        <ele>1623.5999755859</ele>
        <time>2015-02-07T11:53:19.000Z</time>
      </trkpt>
      <trkpt lat="45.94752" lon="6.52201">
        <ele>1623.1999511719</ele>
        <time>2015-02-07T11:53:25.000Z</time>
      </trkpt>
      <trkpt lat="45.94747" lon="6.522">
        <ele>1624.8000488281</ele>
        <time>2015-02-07T11:53:34.000Z</time>
      </trkpt>
      <trkpt lat="45.94746" lon="6.52199">
        <ele>1625.1999511719</ele>
        <time>2015-02-07T11:53:36.000Z</time>
      </trkpt>
      <trkpt lat="45.94745" lon="6.52198">
        <ele>1625.8000488281</ele>
        <time>2015-02-07T11:53:39.000Z</time>
      </trkpt>
      <trkpt lat="45.94744" lon="6.52197">
        <ele>1626.1999511719</ele>
        <time>2015-02-07T11:53:41.000Z</time>
      </trkpt>
      <trkpt lat="45.94741" lon="6.52195">
        <ele>1627.4000244141</ele>
        <time>2015-02-07T11:53:46.000Z</time>
      </trkpt>
      <trkpt lat="45.94736" lon="6.52191">
        <ele>1627.8000488281</ele>
        <time>2015-02-07T11:53:53.000Z</time>
      </trkpt>
      <trkpt lat="45.94732" lon="6.5219">
        <ele>1627.5999755859</ele>
        <time>2015-02-07T11:53:59.000Z</time>
      </trkpt>
      <trkpt lat="45.94732" lon="6.5219">
        <ele>1627.5999755859</ele>
        <time>2015-02-07T11:54:09.000Z</time>
      </trkpt>
      <trkpt lat="45.94732" lon="6.5219">
        <ele>1627.5999755859</ele>
        <time>2015-02-07T11:54:10.000Z</time>
      </trkpt>
      <trkpt lat="45.94734" lon="6.52197">
        <ele>1628.1999511719</ele>
        <time>2015-02-07T11:54:17.000Z</time>
      </trkpt>
      <trkpt lat="45.94735" lon="6.52198">
        <ele>1628.4000244141</ele>
        <time>2015-02-07T11:54:18.000Z</time>
      </trkpt>
      <trkpt lat="45.94738" lon="6.52203">
        <ele>1629.5999755859</ele>
        <time>2015-02-07T11:54:23.000Z</time>
      </trkpt>
      <trkpt lat="45.94738" lon="6.52205">
        <ele>1630.1999511719</ele>
        <time>2015-02-07T11:54:26.000Z</time>
      </trkpt>
      <trkpt lat="45.94738" lon="6.52205">
        <ele>1630.5999755859</ele>
        <time>2015-02-07T11:54:28.000Z</time>
      </trkpt>
      <trkpt lat="45.94735" lon="6.52204">
        <ele>1631.4000244141</ele>
        <time>2015-02-07T11:54:34.000Z</time>
      </trkpt>
      <trkpt lat="45.94732" lon="6.52202">
        <ele>1631.5999755859</ele>
        <time>2015-02-07T11:54:39.000Z</time>
      </trkpt>
      <trkpt lat="45.94732" lon="6.52201">
        <ele>1631.8000488281</ele>
        <time>2015-02-07T11:54:40.000Z</time>
      </trkpt>
      <trkpt lat="45.94731" lon="6.52201">
        <ele>1632.8000488281</ele>
        <time>2015-02-07T11:54:45.000Z</time>
      </trkpt>
      <trkpt lat="45.94732" lon="6.52202">
        <ele>1633</ele>
        <time>2015-02-07T11:54:53.000Z</time>
      </trkpt>
      <trkpt lat="45.94735" lon="6.52208">
        <ele>1633.4000244141</ele>
        <time>2015-02-07T11:54:58.000Z</time>
      </trkpt>
      <trkpt lat="45.94736" lon="6.52212">
        <ele>1634.1999511719</ele>
        <time>2015-02-07T11:55:00.000Z</time>
      </trkpt>
      <trkpt lat="45.94736" lon="6.52214">
        <ele>1634.8000488281</ele>
        <time>2015-02-07T11:55:03.000Z</time>
      </trkpt>
      <trkpt lat="45.94736" lon="6.52215">
        <ele>1635.1999511719</ele>
        <time>2015-02-07T11:55:06.000Z</time>
      </trkpt>
      <trkpt lat="45.94736" lon="6.52215">
        <ele>1635.4000244141</ele>
        <time>2015-02-07T11:55:09.000Z</time>
      </trkpt>
      <trkpt lat="45.94736" lon="6.52215">
        <ele>1636.4000244141</ele>
        <time>2015-02-07T11:55:15.000Z</time>
      </trkpt>
      <trkpt lat="45.94735" lon="6.52215">
        <ele>1636.4000244141</ele>
        <time>2015-02-07T11:55:18.000Z</time>
      </trkpt>
      <trkpt lat="45.94732" lon="6.52217">
        <ele>1636.8000488281</ele>
        <time>2015-02-07T11:55:23.000Z</time>
      </trkpt>
      <trkpt lat="45.9473" lon="6.52217">
        <ele>1637.4000244141</ele>
        <time>2015-02-07T11:55:25.000Z</time>
      </trkpt>
      <trkpt lat="45.94729" lon="6.52219">
        <ele>1638.1999511719</ele>
        <time>2015-02-07T11:55:29.000Z</time>
      </trkpt>
      <trkpt lat="45.94729" lon="6.52219">
        <ele>1638.4000244141</ele>
        <time>2015-02-07T11:55:30.000Z</time>
      </trkpt>
      <trkpt lat="45.94729" lon="6.52226">
        <ele>1639</ele>
        <time>2015-02-07T11:55:34.000Z</time>
      </trkpt>
      <trkpt lat="45.94728" lon="6.52231">
        <ele>1639.5999755859</ele>
        <time>2015-02-07T11:55:38.000Z</time>
      </trkpt>
      <trkpt lat="45.94728" lon="6.52233">
        <ele>1640</ele>
        <time>2015-02-07T11:55:40.000Z</time>
      </trkpt>
      <trkpt lat="45.94727" lon="6.52235">
        <ele>1640.5999755859</ele>
        <time>2015-02-07T11:55:45.000Z</time>
      </trkpt>
      <trkpt lat="45.94726" lon="6.52236">
        <ele>1640.8000488281</ele>
        <time>2015-02-07T11:55:46.000Z</time>
      </trkpt>
      <trkpt lat="45.94723" lon="6.52238">
        <ele>1641.5999755859</ele>
        <time>2015-02-07T11:55:51.000Z</time>
      </trkpt>
      <trkpt lat="45.94722" lon="6.52239">
        <ele>1641.8000488281</ele>
        <time>2015-02-07T11:55:52.000Z</time>
      </trkpt>
      <trkpt lat="45.94722" lon="6.52241">
        <ele>1643</ele>
        <time>2015-02-07T11:55:58.000Z</time>
      </trkpt>
      <trkpt lat="45.94722" lon="6.52242">
        <ele>1643</ele>
        <time>2015-02-07T11:55:59.000Z</time>
      </trkpt>
      <trkpt lat="45.94723" lon="6.52244">
        <ele>1643.1999511719</ele>
        <time>2015-02-07T11:56:03.000Z</time>
      </trkpt>
      <trkpt lat="45.94726" lon="6.52247">
        <ele>1644</ele>
        <time>2015-02-07T11:56:07.000Z</time>
      </trkpt>
      <trkpt lat="45.94727" lon="6.52249">
        <ele>1644.4000244141</ele>
        <time>2015-02-07T11:56:09.000Z</time>
      </trkpt>
      <trkpt lat="45.94729" lon="6.5225">
        <ele>1645.1999511719</ele>
        <time>2015-02-07T11:56:13.000Z</time>
      </trkpt>
      <trkpt lat="45.9473" lon="6.52251">
        <ele>1645.8000488281</ele>
        <time>2015-02-07T11:56:15.000Z</time>
      </trkpt>
      <trkpt lat="45.94731" lon="6.52251">
        <ele>1646.4000244141</ele>
        <time>2015-02-07T11:56:18.000Z</time>
      </trkpt>
      <trkpt lat="45.94731" lon="6.52252">
        <ele>1647</ele>
        <time>2015-02-07T11:56:21.000Z</time>
      </trkpt>
      <trkpt lat="45.94732" lon="6.52254">
        <ele>1647.5999755859</ele>
        <time>2015-02-07T11:56:26.000Z</time>
      </trkpt>
      <trkpt lat="45.94731" lon="6.52256">
        <ele>1648.4000244141</ele>
        <time>2015-02-07T11:56:29.000Z</time>
      </trkpt>
      <trkpt lat="45.94731" lon="6.52256">
        <ele>1648.5999755859</ele>
        <time>2015-02-07T11:56:30.000Z</time>
      </trkpt>
      <trkpt lat="45.94727" lon="6.52256">
        <ele>1649.8000488281</ele>
        <time>2015-02-07T11:56:35.000Z</time>
      </trkpt>
      <trkpt lat="45.94725" lon="6.52257">
        <ele>1650.4000244141</ele>
        <time>2015-02-07T11:56:39.000Z</time>
      </trkpt>
      <trkpt lat="45.94725" lon="6.52257">
        <ele>1650.8000488281</ele>
        <time>2015-02-07T11:56:41.000Z</time>
      </trkpt>
      <trkpt lat="45.94721" lon="6.52258">
        <ele>1651.1999511719</ele>
        <time>2015-02-07T11:56:44.000Z</time>
      </trkpt>
      <trkpt lat="45.94719" lon="6.52259">
        <ele>1651.8000488281</ele>
        <time>2015-02-07T11:56:47.000Z</time>
      </trkpt>
      <trkpt lat="45.94717" lon="6.5226">
        <ele>1652.1999511719</ele>
        <time>2015-02-07T11:56:50.000Z</time>
      </trkpt>
      <trkpt lat="45.94716" lon="6.52263">
        <ele>1652.8000488281</ele>
        <time>2015-02-07T11:56:55.000Z</time>
      </trkpt>
      <trkpt lat="45.94718" lon="6.52265">
        <ele>1653</ele>
        <time>2015-02-07T11:56:56.000Z</time>
      </trkpt>
      <trkpt lat="45.94721" lon="6.52269">
        <ele>1653.8000488281</ele>
        <time>2015-02-07T11:57:00.000Z</time>
      </trkpt>
      <trkpt lat="45.94723" lon="6.5227">
        <ele>1654.1999511719</ele>
        <time>2015-02-07T11:57:02.000Z</time>
      </trkpt>
      <trkpt lat="45.94728" lon="6.52273">
        <ele>1654.8000488281</ele>
        <time>2015-02-07T11:57:10.000Z</time>
      </trkpt>
      <trkpt lat="45.94729" lon="6.52273">
        <ele>1654.5999755859</ele>
        <time>2015-02-07T11:57:19.000Z</time>
      </trkpt>
      <trkpt lat="45.94729" lon="6.52273">
        <ele>1655</ele>
        <time>2015-02-07T11:57:27.000Z</time>
      </trkpt>
      <trkpt lat="45.94729" lon="6.52273">
        <ele>1655</ele>
        <time>2015-02-07T11:57:31.000Z</time>
      </trkpt>
      <trkpt lat="45.9473" lon="6.52274">
        <ele>1655.1999511719</ele>
        <time>2015-02-07T11:57:38.000Z</time>
      </trkpt>
      <trkpt lat="45.9473" lon="6.52274">
        <ele>1655.1999511719</ele>
        <time>2015-02-07T11:57:49.000Z</time>
      </trkpt>
      <trkpt lat="45.9473" lon="6.52274">
        <ele>1654.8000488281</ele>
        <time>2015-02-07T11:58:02.000Z</time>
      </trkpt>
      <trkpt lat="45.9473" lon="6.52274">
        <ele>1655</ele>
        <time>2015-02-07T11:58:10.000Z</time>
      </trkpt>
      <trkpt lat="45.9473" lon="6.52274">
        <ele>1655</ele>
        <time>2015-02-07T11:58:20.000Z</time>
      </trkpt>
      <trkpt lat="45.9473" lon="6.52274">
        <ele>1655</ele>
        <time>2015-02-07T11:58:35.000Z</time>
      </trkpt>
      <trkpt lat="45.94731" lon="6.52275">
        <ele>1655</ele>
        <time>2015-02-07T11:58:53.000Z</time>
      </trkpt>
      <trkpt lat="45.94731" lon="6.52275">
        <ele>1655</ele>
        <time>2015-02-07T11:59:01.000Z</time>
      </trkpt>
      <trkpt lat="45.94731" lon="6.52275">
        <ele>1655</ele>
        <time>2015-02-07T11:59:15.000Z</time>
      </trkpt>
      <trkpt lat="45.94731" lon="6.52275">
        <ele>1655</ele>
        <time>2015-02-07T11:59:31.000Z</time>
      </trkpt>
      <trkpt lat="45.94731" lon="6.52275">
        <ele>1654.8000488281</ele>
        <time>2015-02-07T11:59:48.000Z</time>
      </trkpt>
      <trkpt lat="45.94731" lon="6.52275">
        <ele>1655</ele>
        <time>2015-02-07T12:00:06.000Z</time>
      </trkpt>
      <trkpt lat="45.94731" lon="6.52276">
        <ele>1654.8000488281</ele>
        <time>2015-02-07T12:00:23.000Z</time>
      </trkpt>
      <trkpt lat="45.94731" lon="6.52276">
        <ele>1654.8000488281</ele>
        <time>2015-02-07T12:00:37.000Z</time>
      </trkpt>
      <trkpt lat="45.94731" lon="6.52276">
        <ele>1654.8000488281</ele>
        <time>2015-02-07T12:00:53.000Z</time>
      </trkpt>
      <trkpt lat="45.94731" lon="6.52275">
        <ele>1654.8000488281</ele>
        <time>2015-02-07T12:01:09.000Z</time>
      </trkpt>
      <trkpt lat="45.94731" lon="6.52275">
        <ele>1654.8000488281</ele>
        <time>2015-02-07T12:01:22.000Z</time>
      </trkpt>
      <trkpt lat="45.9473" lon="6.52276">
        <ele>1654.5999755859</ele>
        <time>2015-02-07T12:01:34.000Z</time>
      </trkpt>
      <trkpt lat="45.94726" lon="6.52282">
        <ele>1654.5999755859</ele>
        <time>2015-02-07T12:01:41.000Z</time>
      </trkpt>
      <trkpt lat="45.94721" lon="6.52285">
        <ele>1654.1999511719</ele>
        <time>2015-02-07T12:01:46.000Z</time>
      </trkpt>
      <trkpt lat="45.9472" lon="6.52286">
        <ele>1654.1999511719</ele>
        <time>2015-02-07T12:01:47.000Z</time>
      </trkpt>
      <trkpt lat="45.94718" lon="6.52289">
        <ele>1654.1999511719</ele>
        <time>2015-02-07T12:01:50.000Z</time>
      </trkpt>
      <trkpt lat="45.94717" lon="6.52292">
        <ele>1654.4000244141</ele>
        <time>2015-02-07T12:01:52.000Z</time>
      </trkpt>
      <trkpt lat="45.94716" lon="6.523">
        <ele>1655.5999755859</ele>
        <time>2015-02-07T12:01:58.000Z</time>
      </trkpt>
      <trkpt lat="45.94713" lon="6.52306">
        <ele>1656</ele>
        <time>2015-02-07T12:02:03.000Z</time>
      </trkpt>
      <trkpt lat="45.94712" lon="6.52309">
        <ele>1656.5999755859</ele>
        <time>2015-02-07T12:02:05.000Z</time>
      </trkpt>
      <trkpt lat="45.94712" lon="6.52312">
        <ele>1657</ele>
        <time>2015-02-07T12:02:08.000Z</time>
      </trkpt>
      <trkpt lat="45.94712" lon="6.52315">
        <ele>1657.5999755859</ele>
        <time>2015-02-07T12:02:10.000Z</time>
      </trkpt>
      <trkpt lat="45.94712" lon="6.52317">
        <ele>1658.1999511719</ele>
        <time>2015-02-07T12:02:12.000Z</time>
      </trkpt>
      <trkpt lat="45.9471" lon="6.52321">
        <ele>1659.4000244141</ele>
        <time>2015-02-07T12:02:17.000Z</time>
      </trkpt>
      <trkpt lat="45.94707" lon="6.5232">
        <ele>1660</ele>
        <time>2015-02-07T12:02:20.000Z</time>
      </trkpt>
      <trkpt lat="45.94707" lon="6.5232">
        <ele>1660.4000244141</ele>
        <time>2015-02-07T12:02:22.000Z</time>
      </trkpt>
      <trkpt lat="45.94706" lon="6.52319">
        <ele>1660.5999755859</ele>
        <time>2015-02-07T12:02:23.000Z</time>
      </trkpt>
      <trkpt lat="45.94705" lon="6.5232">
        <ele>1661.8000488281</ele>
        <time>2015-02-07T12:02:27.000Z</time>
      </trkpt>
      <trkpt lat="45.94703" lon="6.52328">
        <ele>1663</ele>
        <time>2015-02-07T12:02:34.000Z</time>
      </trkpt>
      <trkpt lat="45.94703" lon="6.52332">
        <ele>1664</ele>
        <time>2015-02-07T12:02:38.000Z</time>
      </trkpt>
      <trkpt lat="45.94703" lon="6.52333">
        <ele>1664.1999511719</ele>
        <time>2015-02-07T12:02:39.000Z</time>
      </trkpt>
      <trkpt lat="45.94702" lon="6.52339">
        <ele>1665.1999511719</ele>
        <time>2015-02-07T12:02:44.000Z</time>
      </trkpt>
      <trkpt lat="45.94702" lon="6.5234">
        <ele>1665.4000244141</ele>
        <time>2015-02-07T12:02:45.000Z</time>
      </trkpt>
      <trkpt lat="45.94702" lon="6.52345">
        <ele>1666.1999511719</ele>
        <time>2015-02-07T12:02:51.000Z</time>
      </trkpt>
      <trkpt lat="45.94702" lon="6.52346">
        <ele>1666.4000244141</ele>
        <time>2015-02-07T12:02:52.000Z</time>
      </trkpt>
      <trkpt lat="45.94702" lon="6.5235">
        <ele>1667.4000244141</ele>
        <time>2015-02-07T12:02:56.000Z</time>
      </trkpt>
      <trkpt lat="45.94702" lon="6.52351">
        <ele>1667.1999511719</ele>
        <time>2015-02-07T12:02:57.000Z</time>
      </trkpt>
      <trkpt lat="45.94702" lon="6.52353">
        <ele>1668.1999511719</ele>
        <time>2015-02-07T12:03:03.000Z</time>
      </trkpt>
      <trkpt lat="45.94702" lon="6.52353">
        <ele>1668.4000244141</ele>
        <time>2015-02-07T12:03:04.000Z</time>
      </trkpt>
      <trkpt lat="45.94701" lon="6.52353">
        <ele>1669.4000244141</ele>
        <time>2015-02-07T12:03:10.000Z</time>
      </trkpt>
      <trkpt lat="45.94698" lon="6.5235">
        <ele>1669.8000488281</ele>
        <time>2015-02-07T12:03:15.000Z</time>
      </trkpt>
      <trkpt lat="45.94696" lon="6.52346">
        <ele>1670.4000244141</ele>
        <time>2015-02-07T12:03:19.000Z</time>
      </trkpt>
      <trkpt lat="45.94695" lon="6.52344">
        <ele>1671.1999511719</ele>
        <time>2015-02-07T12:03:21.000Z</time>
      </trkpt>
      <trkpt lat="45.94693" lon="6.5234">
        <ele>1671.5999755859</ele>
        <time>2015-02-07T12:03:24.000Z</time>
      </trkpt>
      <trkpt lat="45.94692" lon="6.52338">
        <ele>1672</ele>
        <time>2015-02-07T12:03:26.000Z</time>
      </trkpt>
      <trkpt lat="45.94691" lon="6.52333">
        <ele>1672.5999755859</ele>
        <time>2015-02-07T12:03:30.000Z</time>
      </trkpt>
      <trkpt lat="45.94691" lon="6.52331">
        <ele>1673</ele>
        <time>2015-02-07T12:03:32.000Z</time>
      </trkpt>
      <trkpt lat="45.9469" lon="6.52329">
        <ele>1673.5999755859</ele>
        <time>2015-02-07T12:03:39.000Z</time>
      </trkpt>
      <trkpt lat="45.94688" lon="6.5233">
        <ele>1674.1999511719</ele>
        <time>2015-02-07T12:03:45.000Z</time>
      </trkpt>
      <trkpt lat="45.94687" lon="6.52333">
        <ele>1674.8000488281</ele>
        <time>2015-02-07T12:03:49.000Z</time>
      </trkpt>
      <trkpt lat="45.94687" lon="6.52335">
        <ele>1675</ele>
        <time>2015-02-07T12:03:50.000Z</time>
      </trkpt>
      <trkpt lat="45.94684" lon="6.52337">
        <ele>1675.1999511719</ele>
        <time>2015-02-07T12:03:55.000Z</time>
      </trkpt>
      <trkpt lat="45.94683" lon="6.52337">
        <ele>1676</ele>
        <time>2015-02-07T12:03:58.000Z</time>
      </trkpt>
      <trkpt lat="45.94682" lon="6.52337">
        <ele>1676.8000488281</ele>
        <time>2015-02-07T12:04:01.000Z</time>
      </trkpt>
      <trkpt lat="45.94681" lon="6.52338">
        <ele>1677.1999511719</ele>
        <time>2015-02-07T12:04:03.000Z</time>
      </trkpt>
      <trkpt lat="45.94679" lon="6.52339">
        <ele>1677.4000244141</ele>
        <time>2015-02-07T12:04:06.000Z</time>
      </trkpt>
      <trkpt lat="45.94677" lon="6.52339">
        <ele>1678.1999511719</ele>
        <time>2015-02-07T12:04:11.000Z</time>
      </trkpt>
      <trkpt lat="45.94673" lon="6.52339">
        <ele>1679.4000244141</ele>
        <time>2015-02-07T12:04:16.000Z</time>
      </trkpt>
      <trkpt lat="45.94672" lon="6.52338">
        <ele>1679.4000244141</ele>
        <time>2015-02-07T12:04:17.000Z</time>
      </trkpt>
      <trkpt lat="45.9467" lon="6.52341">
        <ele>1680.4000244141</ele>
        <time>2015-02-07T12:04:22.000Z</time>
      </trkpt>
      <trkpt lat="45.94669" lon="6.52347">
        <ele>1681.4000244141</ele>
        <time>2015-02-07T12:04:27.000Z</time>
      </trkpt>
      <trkpt lat="45.94669" lon="6.52348">
        <ele>1681.5999755859</ele>
        <time>2015-02-07T12:04:28.000Z</time>
      </trkpt>
      <trkpt lat="45.9467" lon="6.52352">
        <ele>1682.4000244141</ele>
        <time>2015-02-07T12:04:32.000Z</time>
      </trkpt>
      <trkpt lat="45.9467" lon="6.52354">
        <ele>1682.8000488281</ele>
        <time>2015-02-07T12:04:34.000Z</time>
      </trkpt>
      <trkpt lat="45.94672" lon="6.52358">
        <ele>1683.5999755859</ele>
        <time>2015-02-07T12:04:39.000Z</time>
      </trkpt>
      <trkpt lat="45.94673" lon="6.52359">
        <ele>1684</ele>
        <time>2015-02-07T12:04:40.000Z</time>
      </trkpt>
      <trkpt lat="45.94674" lon="6.52362">
        <ele>1684.8000488281</ele>
        <time>2015-02-07T12:04:43.000Z</time>
      </trkpt>
      <trkpt lat="45.94674" lon="6.52364">
        <ele>1685.1999511719</ele>
        <time>2015-02-07T12:04:46.000Z</time>
      </trkpt>
      <trkpt lat="45.94674" lon="6.52365">
        <ele>1685.8000488281</ele>
        <time>2015-02-07T12:04:48.000Z</time>
      </trkpt>
      <trkpt lat="45.94674" lon="6.52365">
        <ele>1686.4000244141</ele>
        <time>2015-02-07T12:04:54.000Z</time>
      </trkpt>
      <trkpt lat="45.94675" lon="6.52368">
        <ele>1686.1999511719</ele>
        <time>2015-02-07T12:05:00.000Z</time>
      </trkpt>
      <trkpt lat="45.94675" lon="6.52368">
        <ele>1686.8000488281</ele>
        <time>2015-02-07T12:05:05.000Z</time>
      </trkpt>
      <trkpt lat="45.94676" lon="6.52369">
        <ele>1687</ele>
        <time>2015-02-07T12:05:06.000Z</time>
      </trkpt>
      <trkpt lat="45.94676" lon="6.5237">
        <ele>1687</ele>
        <time>2015-02-07T12:05:07.000Z</time>
      </trkpt>
      <trkpt lat="45.94678" lon="6.52373">
        <ele>1687.4000244141</ele>
        <time>2015-02-07T12:05:12.000Z</time>
      </trkpt>
      <trkpt lat="45.94678" lon="6.52373">
        <ele>1688</ele>
        <time>2015-02-07T12:05:16.000Z</time>
      </trkpt>
      <trkpt lat="45.94679" lon="6.52375">
        <ele>1688.8000488281</ele>
        <time>2015-02-07T12:05:19.000Z</time>
      </trkpt>
      <trkpt lat="45.9468" lon="6.5238">
        <ele>1689</ele>
        <time>2015-02-07T12:05:24.000Z</time>
      </trkpt>
      <trkpt lat="45.9468" lon="6.52381">
        <ele>1689.1999511719</ele>
        <time>2015-02-07T12:05:25.000Z</time>
      </trkpt>
      <trkpt lat="45.94681" lon="6.52383">
        <ele>1689.5999755859</ele>
        <time>2015-02-07T12:05:29.000Z</time>
      </trkpt>
      <trkpt lat="45.9468" lon="6.52382">
        <ele>1690.1999511719</ele>
        <time>2015-02-07T12:05:33.000Z</time>
      </trkpt>
      <trkpt lat="45.94678" lon="6.52382">
        <ele>1691.4000244141</ele>
        <time>2015-02-07T12:05:37.000Z</time>
      </trkpt>
      <trkpt lat="45.94676" lon="6.52382">
        <ele>1692</ele>
        <time>2015-02-07T12:05:41.000Z</time>
      </trkpt>
      <trkpt lat="45.94676" lon="6.52383">
        <ele>1692.4000244141</ele>
        <time>2015-02-07T12:05:43.000Z</time>
      </trkpt>
      <trkpt lat="45.94677" lon="6.52386">
        <ele>1693.1999511719</ele>
        <time>2015-02-07T12:05:47.000Z</time>
      </trkpt>
      <trkpt lat="45.94677" lon="6.52388">
        <ele>1693.8000488281</ele>
        <time>2015-02-07T12:05:49.000Z</time>
      </trkpt>
      <trkpt lat="45.94678" lon="6.52391">
        <ele>1694.5999755859</ele>
        <time>2015-02-07T12:05:52.000Z</time>
      </trkpt>
      <trkpt lat="45.94678" lon="6.52391">
        <ele>1694.8000488281</ele>
        <time>2015-02-07T12:05:54.000Z</time>
      </trkpt>
      <trkpt lat="45.94676" lon="6.52391">
        <ele>1695.4000244141</ele>
        <time>2015-02-07T12:05:59.000Z</time>
      </trkpt>
      <trkpt lat="45.94674" lon="6.52392">
        <ele>1696</ele>
        <time>2015-02-07T12:06:01.000Z</time>
      </trkpt>
      <trkpt lat="45.94671" lon="6.52393">
        <ele>1696.4000244141</ele>
        <time>2015-02-07T12:06:04.000Z</time>
      </trkpt>
      <trkpt lat="45.9467" lon="6.52392">
        <ele>1697</ele>
        <time>2015-02-07T12:06:08.000Z</time>
      </trkpt>
      <trkpt lat="45.94669" lon="6.52392">
        <ele>1697</ele>
        <time>2015-02-07T12:06:09.000Z</time>
      </trkpt>
      <trkpt lat="45.94669" lon="6.52392">
        <ele>1698</ele>
        <time>2015-02-07T12:06:12.000Z</time>
      </trkpt>
      <trkpt lat="45.94666" lon="6.52392">
        <ele>1699.1999511719</ele>
        <time>2015-02-07T12:06:15.000Z</time>
      </trkpt>
      <trkpt lat="45.94665" lon="6.52392">
        <ele>1699.8000488281</ele>
        <time>2015-02-07T12:06:19.000Z</time>
      </trkpt>
      <trkpt lat="45.94664" lon="6.52392">
        <ele>1700.1999511719</ele>
        <time>2015-02-07T12:06:23.000Z</time>
      </trkpt>
      <trkpt lat="45.94663" lon="6.52392">
        <ele>1700.5999755859</ele>
        <time>2015-02-07T12:06:25.000Z</time>
      </trkpt>
      <trkpt lat="45.94662" lon="6.52393">
        <ele>1701.1999511719</ele>
        <time>2015-02-07T12:06:28.000Z</time>
      </trkpt>
      <trkpt lat="45.94663" lon="6.52396">
        <ele>1701.5999755859</ele>
        <time>2015-02-07T12:06:31.000Z</time>
      </trkpt>
      <trkpt lat="45.94664" lon="6.52401">
        <ele>1702</ele>
        <time>2015-02-07T12:06:36.000Z</time>
      </trkpt>
      <trkpt lat="45.94665" lon="6.52401">
        <ele>1702.5999755859</ele>
        <time>2015-02-07T12:06:37.000Z</time>
      </trkpt>
      <trkpt lat="45.94665" lon="6.52407">
        <ele>1703.4000244141</ele>
        <time>2015-02-07T12:06:41.000Z</time>
      </trkpt>
      <trkpt lat="45.94666" lon="6.52409">
        <ele>1703.8000488281</ele>
        <time>2015-02-07T12:06:43.000Z</time>
      </trkpt>
      <trkpt lat="45.94666" lon="6.52412">
        <ele>1704.1999511719</ele>
        <time>2015-02-07T12:06:46.000Z</time>
      </trkpt>
      <trkpt lat="45.94667" lon="6.52417">
        <ele>1705</ele>
        <time>2015-02-07T12:06:52.000Z</time>
      </trkpt>
      <trkpt lat="45.94667" lon="6.52417">
        <ele>1705.1999511719</ele>
        <time>2015-02-07T12:06:53.000Z</time>
      </trkpt>
      <trkpt lat="45.94668" lon="6.5242">
        <ele>1706.1999511719</ele>
        <time>2015-02-07T12:06:56.000Z</time>
      </trkpt>
      <trkpt lat="45.94668" lon="6.52424">
        <ele>1706.8000488281</ele>
        <time>2015-02-07T12:06:59.000Z</time>
      </trkpt>
      <trkpt lat="45.94668" lon="6.52426">
        <ele>1707.4000244141</ele>
        <time>2015-02-07T12:07:01.000Z</time>
      </trkpt>
      <trkpt lat="45.94668" lon="6.52429">
        <ele>1707.8000488281</ele>
        <time>2015-02-07T12:07:04.000Z</time>
      </trkpt>
      <trkpt lat="45.94669" lon="6.52432">
        <ele>1708.4000244141</ele>
        <time>2015-02-07T12:07:06.000Z</time>
      </trkpt>
      <trkpt lat="45.94669" lon="6.52435">
        <ele>1709.1999511719</ele>
        <time>2015-02-07T12:07:10.000Z</time>
      </trkpt>
      <trkpt lat="45.94669" lon="6.52436">
        <ele>1709.4000244141</ele>
        <time>2015-02-07T12:07:11.000Z</time>
      </trkpt>
      <trkpt lat="45.9467" lon="6.52441">
        <ele>1710.4000244141</ele>
        <time>2015-02-07T12:07:16.000Z</time>
      </trkpt>
      <trkpt lat="45.94669" lon="6.52441">
        <ele>1711.5999755859</ele>
        <time>2015-02-07T12:07:21.000Z</time>
      </trkpt>
      <trkpt lat="45.94665" lon="6.52439">
        <ele>1712.4000244141</ele>
        <time>2015-02-07T12:07:26.000Z</time>
      </trkpt>
      <trkpt lat="45.94662" lon="6.52439">
        <ele>1712.5999755859</ele>
        <time>2015-02-07T12:07:29.000Z</time>
      </trkpt>
      <trkpt lat="45.94662" lon="6.52439">
        <ele>1712.8000488281</ele>
        <time>2015-02-07T12:07:30.000Z</time>
      </trkpt>
      <trkpt lat="45.94658" lon="6.52438">
        <ele>1713.8000488281</ele>
        <time>2015-02-07T12:07:35.000Z</time>
      </trkpt>
      <trkpt lat="45.94653" lon="6.52438">
        <ele>1714.5999755859</ele>
        <time>2015-02-07T12:07:40.000Z</time>
      </trkpt>
      <trkpt lat="45.94649" lon="6.52439">
        <ele>1715</ele>
        <time>2015-02-07T12:07:44.000Z</time>
      </trkpt>
      <trkpt lat="45.94646" lon="6.52439">
        <ele>1716</ele>
        <time>2015-02-07T12:07:49.000Z</time>
      </trkpt>
      <trkpt lat="45.94646" lon="6.52438">
        <ele>1716.1999511719</ele>
        <time>2015-02-07T12:07:50.000Z</time>
      </trkpt>
      <trkpt lat="45.94642" lon="6.52439">
        <ele>1717</ele>
        <time>2015-02-07T12:07:54.000Z</time>
      </trkpt>
      <trkpt lat="45.94642" lon="6.5244">
        <ele>1717</ele>
        <time>2015-02-07T12:07:55.000Z</time>
      </trkpt>
      <trkpt lat="45.94642" lon="6.52442">
        <ele>1717.1999511719</ele>
        <time>2015-02-07T12:07:56.000Z</time>
      </trkpt>
      <trkpt lat="45.94642" lon="6.52445">
        <ele>1718</ele>
        <time>2015-02-07T12:07:59.000Z</time>
      </trkpt>
      <trkpt lat="45.94642" lon="6.52446">
        <ele>1718.1999511719</ele>
        <time>2015-02-07T12:08:00.000Z</time>
      </trkpt>
      <trkpt lat="45.94643" lon="6.52451">
        <ele>1719</ele>
        <time>2015-02-07T12:08:04.000Z</time>
      </trkpt>
      <trkpt lat="45.94644" lon="6.52452">
        <ele>1719.4000244141</ele>
        <time>2015-02-07T12:08:05.000Z</time>
      </trkpt>
      <trkpt lat="45.94645" lon="6.52456">
        <ele>1720.4000244141</ele>
        <time>2015-02-07T12:08:10.000Z</time>
      </trkpt>
      <trkpt lat="45.94647" lon="6.5246">
        <ele>1721.5999755859</ele>
        <time>2015-02-07T12:08:15.000Z</time>
      </trkpt>
      <trkpt lat="45.94647" lon="6.52461">
        <ele>1721.8000488281</ele>
        <time>2015-02-07T12:08:16.000Z</time>
      </trkpt>
      <trkpt lat="45.94647" lon="6.52464">
        <ele>1722.5999755859</ele>
        <time>2015-02-07T12:08:21.000Z</time>
      </trkpt>
      <trkpt lat="45.94647" lon="6.52465">
        <ele>1722.8000488281</ele>
        <time>2015-02-07T12:08:22.000Z</time>
      </trkpt>
      <trkpt lat="45.94647" lon="6.52467">
        <ele>1723.8000488281</ele>
        <time>2015-02-07T12:08:25.000Z</time>
      </trkpt>
      <trkpt lat="45.94648" lon="6.5247">
        <ele>1724</ele>
        <time>2015-02-07T12:08:28.000Z</time>
      </trkpt>
      <trkpt lat="45.9465" lon="6.52474">
        <ele>1724.4000244141</ele>
        <time>2015-02-07T12:08:33.000Z</time>
      </trkpt>
      <trkpt lat="45.9465" lon="6.52474">
        <ele>1724.8000488281</ele>
        <time>2015-02-07T12:08:34.000Z</time>
      </trkpt>
      <trkpt lat="45.9465" lon="6.52476">
        <ele>1725.8000488281</ele>
        <time>2015-02-07T12:08:42.000Z</time>
      </trkpt>
      <trkpt lat="45.94651" lon="6.52479">
        <ele>1725.8000488281</ele>
        <time>2015-02-07T12:08:45.000Z</time>
      </trkpt>
      <trkpt lat="45.94653" lon="6.52483">
        <ele>1726.1999511719</ele>
        <time>2015-02-07T12:08:49.000Z</time>
      </trkpt>
      <trkpt lat="45.94653" lon="6.52487">
        <ele>1726.8000488281</ele>
        <time>2015-02-07T12:08:53.000Z</time>
      </trkpt>
      <trkpt lat="45.94653" lon="6.52488">
        <ele>1726.8000488281</ele>
        <time>2015-02-07T12:08:54.000Z</time>
      </trkpt>
      <trkpt lat="45.94655" lon="6.52494">
        <ele>1727.4000244141</ele>
        <time>2015-02-07T12:09:00.000Z</time>
      </trkpt>
      <trkpt lat="45.94655" lon="6.52496">
        <ele>1728.1999511719</ele>
        <time>2015-02-07T12:09:02.000Z</time>
      </trkpt>
      <trkpt lat="45.94657" lon="6.52499">
        <ele>1728.5999755859</ele>
        <time>2015-02-07T12:09:06.000Z</time>
      </trkpt>
      <trkpt lat="45.94658" lon="6.52503">
        <ele>1729.1999511719</ele>
        <time>2015-02-07T12:09:11.000Z</time>
      </trkpt>
      <trkpt lat="45.94658" lon="6.52504">
        <ele>1729.1999511719</ele>
        <time>2015-02-07T12:09:12.000Z</time>
      </trkpt>
      <trkpt lat="45.94659" lon="6.52508">
        <ele>1730.4000244141</ele>
        <time>2015-02-07T12:09:17.000Z</time>
      </trkpt>
      <trkpt lat="45.9466" lon="6.52513">
        <ele>1731.1999511719</ele>
        <time>2015-02-07T12:09:22.000Z</time>
      </trkpt>
      <trkpt lat="45.9466" lon="6.52515">
        <ele>1731.4000244141</ele>
        <time>2015-02-07T12:09:25.000Z</time>
      </trkpt>
      <trkpt lat="45.94661" lon="6.52516">
        <ele>1731.8000488281</ele>
        <time>2015-02-07T12:09:27.000Z</time>
      </trkpt>
      <trkpt lat="45.94661" lon="6.52518">
        <ele>1732.5999755859</ele>
        <time>2015-02-07T12:09:30.000Z</time>
      </trkpt>
      <trkpt lat="45.94662" lon="6.52519">
        <ele>1732.8000488281</ele>
        <time>2015-02-07T12:09:32.000Z</time>
      </trkpt>
      <trkpt lat="45.94662" lon="6.52527">
        <ele>1733.8000488281</ele>
        <time>2015-02-07T12:09:38.000Z</time>
      </trkpt>
      <trkpt lat="45.94664" lon="6.52533">
        <ele>1734.8000488281</ele>
        <time>2015-02-07T12:09:44.000Z</time>
      </trkpt>
      <trkpt lat="45.94664" lon="6.52535">
        <ele>1734.8000488281</ele>
        <time>2015-02-07T12:09:45.000Z</time>
      </trkpt>
      <trkpt lat="45.94664" lon="6.52537">
        <ele>1735.5999755859</ele>
        <time>2015-02-07T12:09:49.000Z</time>
      </trkpt>
      <trkpt lat="45.94665" lon="6.52538">
        <ele>1735.8000488281</ele>
        <time>2015-02-07T12:09:50.000Z</time>
      </trkpt>
      <trkpt lat="45.94666" lon="6.52542">
        <ele>1736.8000488281</ele>
        <time>2015-02-07T12:09:55.000Z</time>
      </trkpt>
      <trkpt lat="45.94667" lon="6.52547">
        <ele>1737.4000244141</ele>
        <time>2015-02-07T12:10:01.000Z</time>
      </trkpt>
      <trkpt lat="45.94667" lon="6.52548">
        <ele>1738</ele>
        <time>2015-02-07T12:10:03.000Z</time>
      </trkpt>
      <trkpt lat="45.94669" lon="6.52552">
        <ele>1738.4000244141</ele>
        <time>2015-02-07T12:10:07.000Z</time>
      </trkpt>
      <trkpt lat="45.9467" lon="6.52555">
        <ele>1739</ele>
        <time>2015-02-07T12:10:12.000Z</time>
      </trkpt>
      <trkpt lat="45.94672" lon="6.52556">
        <ele>1740.1999511719</ele>
        <time>2015-02-07T12:10:17.000Z</time>
      </trkpt>
      <trkpt lat="45.94672" lon="6.52557">
        <ele>1740</ele>
        <time>2015-02-07T12:10:18.000Z</time>
      </trkpt>
      <trkpt lat="45.94677" lon="6.5256">
        <ele>1740.8000488281</ele>
        <time>2015-02-07T12:10:24.000Z</time>
      </trkpt>
      <trkpt lat="45.94679" lon="6.52561">
        <ele>1741.1999511719</ele>
        <time>2015-02-07T12:10:26.000Z</time>
      </trkpt>
      <trkpt lat="45.9468" lon="6.52561">
        <ele>1741.8000488281</ele>
        <time>2015-02-07T12:10:29.000Z</time>
      </trkpt>
      <trkpt lat="45.94683" lon="6.52562">
        <ele>1742.1999511719</ele>
        <time>2015-02-07T12:10:36.000Z</time>
      </trkpt>
      <trkpt lat="45.94684" lon="6.52562">
        <ele>1742.5999755859</ele>
        <time>2015-02-07T12:10:37.000Z</time>
      </trkpt>
      <trkpt lat="45.94688" lon="6.52563">
        <ele>1743.4000244141</ele>
        <time>2015-02-07T12:10:43.000Z</time>
      </trkpt>
      <trkpt lat="45.94689" lon="6.52564">
        <ele>1743.8000488281</ele>
        <time>2015-02-07T12:10:45.000Z</time>
      </trkpt>
      <trkpt lat="45.94691" lon="6.52565">
        <ele>1744.5999755859</ele>
        <time>2015-02-07T12:10:48.000Z</time>
      </trkpt>
      <trkpt lat="45.94692" lon="6.52565">
        <ele>1744.5999755859</ele>
        <time>2015-02-07T12:10:50.000Z</time>
      </trkpt>
      <trkpt lat="45.94694" lon="6.52567">
        <ele>1745.1999511719</ele>
        <time>2015-02-07T12:10:55.000Z</time>
      </trkpt>
      <trkpt lat="45.94695" lon="6.52569">
        <ele>1745.8000488281</ele>
        <time>2015-02-07T12:10:59.000Z</time>
      </trkpt>
      <trkpt lat="45.94695" lon="6.5257">
        <ele>1745.8000488281</ele>
        <time>2015-02-07T12:11:00.000Z</time>
      </trkpt>
      <trkpt lat="45.94694" lon="6.52572">
        <ele>1747</ele>
        <time>2015-02-07T12:11:04.000Z</time>
      </trkpt>
      <trkpt lat="45.94693" lon="6.52573">
        <ele>1747.4000244141</ele>
        <time>2015-02-07T12:11:06.000Z</time>
      </trkpt>
      <trkpt lat="45.94692" lon="6.52576">
        <ele>1748</ele>
        <time>2015-02-07T12:11:12.000Z</time>
      </trkpt>
      <trkpt lat="45.94691" lon="6.52576">
        <ele>1748.4000244141</ele>
        <time>2015-02-07T12:11:14.000Z</time>
      </trkpt>
      <trkpt lat="45.94691" lon="6.52577">
        <ele>1749.1999511719</ele>
        <time>2015-02-07T12:11:17.000Z</time>
      </trkpt>
      <trkpt lat="45.94691" lon="6.52577">
        <ele>1749.4000244141</ele>
        <time>2015-02-07T12:11:23.000Z</time>
      </trkpt>
      <trkpt lat="45.94688" lon="6.52579">
        <ele>1749.1999511719</ele>
        <time>2015-02-07T12:11:26.000Z</time>
      </trkpt>
      <trkpt lat="45.94687" lon="6.52579">
        <ele>1749.1999511719</ele>
        <time>2015-02-07T12:11:28.000Z</time>
      </trkpt>
      <trkpt lat="45.94683" lon="6.52581">
        <ele>1749.8000488281</ele>
        <time>2015-02-07T12:11:33.000Z</time>
      </trkpt>
      <trkpt lat="45.9468" lon="6.52582">
        <ele>1750.1999511719</ele>
        <time>2015-02-07T12:11:36.000Z</time>
      </trkpt>
      <trkpt lat="45.94678" lon="6.52586">
        <ele>1750.8000488281</ele>
        <time>2015-02-07T12:11:40.000Z</time>
      </trkpt>
      <trkpt lat="45.94675" lon="6.52587">
        <ele>1751.4000244141</ele>
        <time>2015-02-07T12:11:45.000Z</time>
      </trkpt>
      <trkpt lat="45.94672" lon="6.52588">
        <ele>1752.5999755859</ele>
        <time>2015-02-07T12:11:51.000Z</time>
      </trkpt>
      <trkpt lat="45.94669" lon="6.5259">
        <ele>1753</ele>
        <time>2015-02-07T12:11:57.000Z</time>
      </trkpt>
      <trkpt lat="45.94671" lon="6.52593">
        <ele>1753.1999511719</ele>
        <time>2015-02-07T12:12:02.000Z</time>
      </trkpt>
      <trkpt lat="45.94672" lon="6.52595">
        <ele>1753.5999755859</ele>
        <time>2015-02-07T12:12:04.000Z</time>
      </trkpt>
      <trkpt lat="45.94675" lon="6.52596">
        <ele>1754.1999511719</ele>
        <time>2015-02-07T12:12:07.000Z</time>
      </trkpt>
      <trkpt lat="45.94676" lon="6.52596">
        <ele>1754.5999755859</ele>
        <time>2015-02-07T12:12:09.000Z</time>
      </trkpt>
      <trkpt lat="45.94678" lon="6.52597">
        <ele>1755.1999511719</ele>
        <time>2015-02-07T12:12:13.000Z</time>
      </trkpt>
      <trkpt lat="45.94681" lon="6.52597">
        <ele>1755.5999755859</ele>
        <time>2015-02-07T12:12:16.000Z</time>
      </trkpt>
      <trkpt lat="45.94685" lon="6.52597">
        <ele>1755.8000488281</ele>
        <time>2015-02-07T12:12:20.000Z</time>
      </trkpt>
      <trkpt lat="45.94687" lon="6.52596">
        <ele>1756.5999755859</ele>
        <time>2015-02-07T12:12:27.000Z</time>
      </trkpt>
      <trkpt lat="45.94688" lon="6.52596">
        <ele>1756.8000488281</ele>
        <time>2015-02-07T12:12:28.000Z</time>
      </trkpt>
      <trkpt lat="45.94689" lon="6.52597">
        <ele>1757.8000488281</ele>
        <time>2015-02-07T12:12:31.000Z</time>
      </trkpt>
      <trkpt lat="45.9469" lon="6.52598">
        <ele>1758</ele>
        <time>2015-02-07T12:12:34.000Z</time>
      </trkpt>
      <trkpt lat="45.94691" lon="6.526">
        <ele>1758.5999755859</ele>
        <time>2015-02-07T12:12:39.000Z</time>
      </trkpt>
      <trkpt lat="45.94691" lon="6.52601">
        <ele>1759</ele>
        <time>2015-02-07T12:12:40.000Z</time>
      </trkpt>
      <trkpt lat="45.94692" lon="6.52603">
        <ele>1760</ele>
        <time>2015-02-07T12:12:44.000Z</time>
      </trkpt>
      <trkpt lat="45.94692" lon="6.52605">
        <ele>1760.1999511719</ele>
        <time>2015-02-07T12:12:45.000Z</time>
      </trkpt>
      <trkpt lat="45.94691" lon="6.5261">
        <ele>1760.4000244141</ele>
        <time>2015-02-07T12:12:50.000Z</time>
      </trkpt>
      <trkpt lat="45.94688" lon="6.52614">
        <ele>1761.1999511719</ele>
        <time>2015-02-07T12:12:55.000Z</time>
      </trkpt>
      <trkpt lat="45.94686" lon="6.52616">
        <ele>1761.8000488281</ele>
        <time>2015-02-07T12:13:00.000Z</time>
      </trkpt>
      <trkpt lat="45.94685" lon="6.52616">
        <ele>1762.4000244141</ele>
        <time>2015-02-07T12:13:02.000Z</time>
      </trkpt>
      <trkpt lat="45.94684" lon="6.52617">
        <ele>1762.5999755859</ele>
        <time>2015-02-07T12:13:05.000Z</time>
      </trkpt>
      <trkpt lat="45.94684" lon="6.52617">
        <ele>1763.4000244141</ele>
        <time>2015-02-07T12:13:11.000Z</time>
      </trkpt>
      <trkpt lat="45.94684" lon="6.52617">
        <ele>1764.4000244141</ele>
        <time>2015-02-07T12:13:16.000Z</time>
      </trkpt>
      <trkpt lat="45.94683" lon="6.52617">
        <ele>1764.4000244141</ele>
        <time>2015-02-07T12:13:17.000Z</time>
      </trkpt>
      <trkpt lat="45.94678" lon="6.5262">
        <ele>1765.4000244141</ele>
        <time>2015-02-07T12:13:23.000Z</time>
      </trkpt>
      <trkpt lat="45.94678" lon="6.5262">
        <ele>1765.8000488281</ele>
        <time>2015-02-07T12:13:24.000Z</time>
      </trkpt>
      <trkpt lat="45.94678" lon="6.5262">
        <ele>1766.1999511719</ele>
        <time>2015-02-07T12:13:31.000Z</time>
      </trkpt>
      <trkpt lat="45.94678" lon="6.5262">
        <ele>1766.4000244141</ele>
        <time>2015-02-07T12:13:39.000Z</time>
      </trkpt>
      <trkpt lat="45.9468" lon="6.52624">
        <ele>1766.8000488281</ele>
        <time>2015-02-07T12:13:44.000Z</time>
      </trkpt>
      <trkpt lat="45.9468" lon="6.52625">
        <ele>1767</ele>
        <time>2015-02-07T12:13:45.000Z</time>
      </trkpt>
      <trkpt lat="45.94681" lon="6.52629">
        <ele>1768.1999511719</ele>
        <time>2015-02-07T12:13:50.000Z</time>
      </trkpt>
      <trkpt lat="45.94682" lon="6.52631">
        <ele>1768.1999511719</ele>
        <time>2015-02-07T12:13:51.000Z</time>
      </trkpt>
      <trkpt lat="45.94682" lon="6.52635">
        <ele>1768.8000488281</ele>
        <time>2015-02-07T12:13:56.000Z</time>
      </trkpt>
      <trkpt lat="45.94682" lon="6.52638">
        <ele>1769.1999511719</ele>
        <time>2015-02-07T12:14:00.000Z</time>
      </trkpt>
      <trkpt lat="45.94682" lon="6.52639">
        <ele>1769.1999511719</ele>
        <time>2015-02-07T12:14:01.000Z</time>
      </trkpt>
      <trkpt lat="45.94683" lon="6.52642">
        <ele>1770.1999511719</ele>
        <time>2015-02-07T12:14:07.000Z</time>
      </trkpt>
      <trkpt lat="45.94683" lon="6.52643">
        <ele>1771.1999511719</ele>
        <time>2015-02-07T12:14:12.000Z</time>
      </trkpt>
      <trkpt lat="45.94683" lon="6.52643">
        <ele>1771.4000244141</ele>
        <time>2015-02-07T12:14:13.000Z</time>
      </trkpt>
      <trkpt lat="45.94684" lon="6.52646">
        <ele>1771.5999755859</ele>
        <time>2015-02-07T12:14:17.000Z</time>
      </trkpt>
      <trkpt lat="45.94685" lon="6.52647">
        <ele>1772.1999511719</ele>
        <time>2015-02-07T12:14:22.000Z</time>
      </trkpt>
      <trkpt lat="45.94685" lon="6.52649">
        <ele>1772.5999755859</ele>
        <time>2015-02-07T12:14:23.000Z</time>
      </trkpt>
      <trkpt lat="45.94686" lon="6.52653">
        <ele>1773.1999511719</ele>
        <time>2015-02-07T12:14:27.000Z</time>
      </trkpt>
      <trkpt lat="45.94689" lon="6.52659">
        <ele>1773.5999755859</ele>
        <time>2015-02-07T12:14:32.000Z</time>
      </trkpt>
      <trkpt lat="45.94689" lon="6.5266">
        <ele>1773.8000488281</ele>
        <time>2015-02-07T12:14:33.000Z</time>
      </trkpt>
      <trkpt lat="45.94692" lon="6.52665">
        <ele>1774.5999755859</ele>
        <time>2015-02-07T12:14:38.000Z</time>
      </trkpt>
      <trkpt lat="45.94692" lon="6.52665">
        <ele>1774.8000488281</ele>
        <time>2015-02-07T12:14:39.000Z</time>
      </trkpt>
      <trkpt lat="45.94693" lon="6.52668">
        <ele>1775.8000488281</ele>
        <time>2015-02-07T12:14:44.000Z</time>
      </trkpt>
      <trkpt lat="45.94693" lon="6.52668">
        <ele>1775.8000488281</ele>
        <time>2015-02-07T12:14:45.000Z</time>
      </trkpt>
      <trkpt lat="45.94695" lon="6.5267">
        <ele>1775.8000488281</ele>
        <time>2015-02-07T12:14:49.000Z</time>
      </trkpt>
      <trkpt lat="45.94695" lon="6.52671">
        <ele>1776.1999511719</ele>
        <time>2015-02-07T12:14:54.000Z</time>
      </trkpt>
      <trkpt lat="45.94698" lon="6.52674">
        <ele>1777</ele>
        <time>2015-02-07T12:14:58.000Z</time>
      </trkpt>
      <trkpt lat="45.94698" lon="6.52675">
        <ele>1777</ele>
        <time>2015-02-07T12:14:59.000Z</time>
      </trkpt>
      <trkpt lat="45.94701" lon="6.52677">
        <ele>1778</ele>
        <time>2015-02-07T12:15:04.000Z</time>
      </trkpt>
      <trkpt lat="45.94701" lon="6.52678">
        <ele>1778.1999511719</ele>
        <time>2015-02-07T12:15:05.000Z</time>
      </trkpt>
      <trkpt lat="45.94703" lon="6.52681">
        <ele>1778.5999755859</ele>
        <time>2015-02-07T12:15:10.000Z</time>
      </trkpt>
      <trkpt lat="45.94703" lon="6.52681">
        <ele>1779</ele>
        <time>2015-02-07T12:15:14.000Z</time>
      </trkpt>
      <trkpt lat="45.94703" lon="6.52681">
        <ele>1779.4000244141</ele>
        <time>2015-02-07T12:15:16.000Z</time>
      </trkpt>
      <trkpt lat="45.94703" lon="6.52681">
        <ele>1780</ele>
        <time>2015-02-07T12:15:19.000Z</time>
      </trkpt>
      <trkpt lat="45.94703" lon="6.52681">
        <ele>1780.8000488281</ele>
        <time>2015-02-07T12:15:23.000Z</time>
      </trkpt>
      <trkpt lat="45.94703" lon="6.52681">
        <ele>1781.1999511719</ele>
        <time>2015-02-07T12:15:25.000Z</time>
      </trkpt>
      <trkpt lat="45.94703" lon="6.52681">
        <ele>1781.8000488281</ele>
        <time>2015-02-07T12:15:28.000Z</time>
      </trkpt>
      <trkpt lat="45.94703" lon="6.52681">
        <ele>1782.4000244141</ele>
        <time>2015-02-07T12:15:33.000Z</time>
      </trkpt>
      <trkpt lat="45.94703" lon="6.52681">
        <ele>1782.4000244141</ele>
        <time>2015-02-07T12:15:34.000Z</time>
      </trkpt>
      <trkpt lat="45.94698" lon="6.52688">
        <ele>1783.4000244141</ele>
        <time>2015-02-07T12:15:39.000Z</time>
      </trkpt>
      <trkpt lat="45.94698" lon="6.52689">
        <ele>1783.4000244141</ele>
        <time>2015-02-07T12:15:40.000Z</time>
      </trkpt>
      <trkpt lat="45.94698" lon="6.52689">
        <ele>1784</ele>
        <time>2015-02-07T12:15:43.000Z</time>
      </trkpt>
      <trkpt lat="45.94698" lon="6.52689">
        <ele>1784.4000244141</ele>
        <time>2015-02-07T12:15:46.000Z</time>
      </trkpt>
      <trkpt lat="45.94694" lon="6.52694">
        <ele>1784.8000488281</ele>
        <time>2015-02-07T12:15:49.000Z</time>
      </trkpt>
      <trkpt lat="45.94692" lon="6.52697">
        <ele>1785.5999755859</ele>
        <time>2015-02-07T12:15:53.000Z</time>
      </trkpt>
      <trkpt lat="45.9469" lon="6.527">
        <ele>1786.5999755859</ele>
        <time>2015-02-07T12:15:58.000Z</time>
      </trkpt>
      <trkpt lat="45.94689" lon="6.52701">
        <ele>1786.8000488281</ele>
        <time>2015-02-07T12:15:59.000Z</time>
      </trkpt>
      <trkpt lat="45.94685" lon="6.52704">
        <ele>1787.1999511719</ele>
        <time>2015-02-07T12:16:04.000Z</time>
      </trkpt>
      <trkpt lat="45.94683" lon="6.52707">
        <ele>1788</ele>
        <time>2015-02-07T12:16:09.000Z</time>
      </trkpt>
      <trkpt lat="45.94683" lon="6.52707">
        <ele>1788.4000244141</ele>
        <time>2015-02-07T12:16:11.000Z</time>
      </trkpt>
      <trkpt lat="45.94685" lon="6.52712">
        <ele>1788.8000488281</ele>
        <time>2015-02-07T12:16:16.000Z</time>
      </trkpt>
      <trkpt lat="45.94687" lon="6.52717">
        <ele>1789.1999511719</ele>
        <time>2015-02-07T12:16:20.000Z</time>
      </trkpt>
      <trkpt lat="45.94688" lon="6.5272">
        <ele>1789.5999755859</ele>
        <time>2015-02-07T12:16:22.000Z</time>
      </trkpt>
      <trkpt lat="45.94688" lon="6.52722">
        <ele>1790.1999511719</ele>
        <time>2015-02-07T12:16:25.000Z</time>
      </trkpt>
      <trkpt lat="45.94688" lon="6.52724">
        <ele>1790.5999755859</ele>
        <time>2015-02-07T12:16:26.000Z</time>
      </trkpt>
      <trkpt lat="45.94689" lon="6.52729">
        <ele>1791.1999511719</ele>
        <time>2015-02-07T12:16:32.000Z</time>
      </trkpt>
      <trkpt lat="45.9469" lon="6.52731">
        <ele>1791.4000244141</ele>
        <time>2015-02-07T12:16:34.000Z</time>
      </trkpt>
      <trkpt lat="45.9469" lon="6.52732">
        <ele>1791.8000488281</ele>
        <time>2015-02-07T12:16:37.000Z</time>
      </trkpt>
      <trkpt lat="45.94691" lon="6.52736">
        <ele>1792.5999755859</ele>
        <time>2015-02-07T12:16:40.000Z</time>
      </trkpt>
      <trkpt lat="45.94692" lon="6.52738">
        <ele>1793.1999511719</ele>
        <time>2015-02-07T12:16:43.000Z</time>
      </trkpt>
      <trkpt lat="45.94693" lon="6.52742">
        <ele>1793.8000488281</ele>
        <time>2015-02-07T12:16:47.000Z</time>
      </trkpt>
      <trkpt lat="45.94694" lon="6.52744">
        <ele>1794.1999511719</ele>
        <time>2015-02-07T12:16:49.000Z</time>
      </trkpt>
      <trkpt lat="45.94694" lon="6.52748">
        <ele>1794.5999755859</ele>
        <time>2015-02-07T12:16:54.000Z</time>
      </trkpt>
      <trkpt lat="45.94695" lon="6.52751">
        <ele>1794.8000488281</ele>
        <time>2015-02-07T12:16:56.000Z</time>
      </trkpt>
      <trkpt lat="45.94697" lon="6.52755">
        <ele>1795.4000244141</ele>
        <time>2015-02-07T12:17:00.000Z</time>
      </trkpt>
      <trkpt lat="45.94697" lon="6.52757">
        <ele>1796</ele>
        <time>2015-02-07T12:17:02.000Z</time>
      </trkpt>
      <trkpt lat="45.94697" lon="6.5276">
        <ele>1796.1999511719</ele>
        <time>2015-02-07T12:17:05.000Z</time>
      </trkpt>
      <trkpt lat="45.94698" lon="6.52763">
        <ele>1797</ele>
        <time>2015-02-07T12:17:09.000Z</time>
      </trkpt>
      <trkpt lat="45.94698" lon="6.52763">
        <ele>1797.1999511719</ele>
        <time>2015-02-07T12:17:12.000Z</time>
      </trkpt>
      <trkpt lat="45.94698" lon="6.52763">
        <ele>1797.8000488281</ele>
        <time>2015-02-07T12:17:20.000Z</time>
      </trkpt>
      <trkpt lat="45.94699" lon="6.52766">
        <ele>1797.8000488281</ele>
        <time>2015-02-07T12:17:24.000Z</time>
      </trkpt>
      <trkpt lat="45.94699" lon="6.52768">
        <ele>1798</ele>
        <time>2015-02-07T12:17:26.000Z</time>
      </trkpt>
      <trkpt lat="45.94702" lon="6.52776">
        <ele>1798.8000488281</ele>
        <time>2015-02-07T12:17:32.000Z</time>
      </trkpt>
      <trkpt lat="45.94703" lon="6.52783">
        <ele>1799.1999511719</ele>
        <time>2015-02-07T12:17:38.000Z</time>
      </trkpt>
      <trkpt lat="45.94705" lon="6.52788">
        <ele>1800</ele>
        <time>2015-02-07T12:17:44.000Z</time>
      </trkpt>
      <trkpt lat="45.94705" lon="6.5279">
        <ele>1800.1999511719</ele>
        <time>2015-02-07T12:17:46.000Z</time>
      </trkpt>
      <trkpt lat="45.94706" lon="6.52793">
        <ele>1800.4000244141</ele>
        <time>2015-02-07T12:17:50.000Z</time>
      </trkpt>
      <trkpt lat="45.94707" lon="6.52795">
        <ele>1800.8000488281</ele>
        <time>2015-02-07T12:17:55.000Z</time>
      </trkpt>
      <trkpt lat="45.94708" lon="6.52797">
        <ele>1801.4000244141</ele>
        <time>2015-02-07T12:17:58.000Z</time>
      </trkpt>
      <trkpt lat="45.94708" lon="6.52799">
        <ele>1801.5999755859</ele>
        <time>2015-02-07T12:18:00.000Z</time>
      </trkpt>
      <trkpt lat="45.94709" lon="6.52801">
        <ele>1802.1999511719</ele>
        <time>2015-02-07T12:18:05.000Z</time>
      </trkpt>
      <trkpt lat="45.94709" lon="6.52802">
        <ele>1802.4000244141</ele>
        <time>2015-02-07T12:18:07.000Z</time>
      </trkpt>
      <trkpt lat="45.9471" lon="6.52805">
        <ele>1803</ele>
        <time>2015-02-07T12:18:12.000Z</time>
      </trkpt>
      <trkpt lat="45.9471" lon="6.52808">
        <ele>1803.4000244141</ele>
        <time>2015-02-07T12:18:16.000Z</time>
      </trkpt>
      <trkpt lat="45.9471" lon="6.52809">
        <ele>1803.5999755859</ele>
        <time>2015-02-07T12:18:18.000Z</time>
      </trkpt>
      <trkpt lat="45.94712" lon="6.52817">
        <ele>1804.5999755859</ele>
        <time>2015-02-07T12:18:25.000Z</time>
      </trkpt>
      <trkpt lat="45.94715" lon="6.52826">
        <ele>1805.8000488281</ele>
        <time>2015-02-07T12:18:33.000Z</time>
      </trkpt>
      <trkpt lat="45.94716" lon="6.52831">
        <ele>1806.4000244141</ele>
        <time>2015-02-07T12:18:38.000Z</time>
      </trkpt>
      <trkpt lat="45.94717" lon="6.52833">
        <ele>1807</ele>
        <time>2015-02-07T12:18:42.000Z</time>
      </trkpt>
      <trkpt lat="45.94718" lon="6.52839">
        <ele>1807.5999755859</ele>
        <time>2015-02-07T12:18:47.000Z</time>
      </trkpt>
      <trkpt lat="45.94718" lon="6.5284">
        <ele>1808</ele>
        <time>2015-02-07T12:18:51.000Z</time>
      </trkpt>
      <trkpt lat="45.94716" lon="6.52844">
        <ele>1809.4000244141</ele>
        <time>2015-02-07T12:18:59.000Z</time>
      </trkpt>
      <trkpt lat="45.94716" lon="6.52844">
        <ele>1809.4000244141</ele>
        <time>2015-02-07T12:19:00.000Z</time>
      </trkpt>
      <trkpt lat="45.94716" lon="6.52847">
        <ele>1810.5999755859</ele>
        <time>2015-02-07T12:19:04.000Z</time>
      </trkpt>
      <trkpt lat="45.94716" lon="6.52849">
        <ele>1810.8000488281</ele>
        <time>2015-02-07T12:19:05.000Z</time>
      </trkpt>
      <trkpt lat="45.94718" lon="6.52851">
        <ele>1811.8000488281</ele>
        <time>2015-02-07T12:19:08.000Z</time>
      </trkpt>
      <trkpt lat="45.94719" lon="6.52853">
        <ele>1812</ele>
        <time>2015-02-07T12:19:11.000Z</time>
      </trkpt>
      <trkpt lat="45.94722" lon="6.52859">
        <ele>1812.5999755859</ele>
        <time>2015-02-07T12:19:18.000Z</time>
      </trkpt>
      <trkpt lat="45.94722" lon="6.5286">
        <ele>1812.8000488281</ele>
        <time>2015-02-07T12:19:19.000Z</time>
      </trkpt>
      <trkpt lat="45.94723" lon="6.52862">
        <ele>1813.4000244141</ele>
        <time>2015-02-07T12:19:24.000Z</time>
      </trkpt>
      <trkpt lat="45.94724" lon="6.52864">
        <ele>1813.8000488281</ele>
        <time>2015-02-07T12:19:28.000Z</time>
      </trkpt>
      <trkpt lat="45.94725" lon="6.52866">
        <ele>1814.4000244141</ele>
        <time>2015-02-07T12:19:32.000Z</time>
      </trkpt>
      <trkpt lat="45.94727" lon="6.52869">
        <ele>1814.8000488281</ele>
        <time>2015-02-07T12:19:36.000Z</time>
      </trkpt>
      <trkpt lat="45.94727" lon="6.5287">
        <ele>1814.8000488281</ele>
        <time>2015-02-07T12:19:37.000Z</time>
      </trkpt>
      <trkpt lat="45.94729" lon="6.52872">
        <ele>1815.1999511719</ele>
        <time>2015-02-07T12:19:43.000Z</time>
      </trkpt>
      <trkpt lat="45.9473" lon="6.52874">
        <ele>1815.8000488281</ele>
        <time>2015-02-07T12:19:47.000Z</time>
      </trkpt>
      <trkpt lat="45.94731" lon="6.52876">
        <ele>1816.8000488281</ele>
        <time>2015-02-07T12:19:51.000Z</time>
      </trkpt>
      <trkpt lat="45.94731" lon="6.52876">
        <ele>1816.8000488281</ele>
        <time>2015-02-07T12:19:52.000Z</time>
      </trkpt>
      <trkpt lat="45.94732" lon="6.52878">
        <ele>1817.4000244141</ele>
        <time>2015-02-07T12:19:59.000Z</time>
      </trkpt>
      <trkpt lat="45.94733" lon="6.5288">
        <ele>1818.1999511719</ele>
        <time>2015-02-07T12:20:03.000Z</time>
      </trkpt>
      <trkpt lat="45.94734" lon="6.52882">
        <ele>1818.4000244141</ele>
        <time>2015-02-07T12:20:04.000Z</time>
      </trkpt>
      <trkpt lat="45.94735" lon="6.52883">
        <ele>1819.1999511719</ele>
        <time>2015-02-07T12:20:08.000Z</time>
      </trkpt>
      <trkpt lat="45.94736" lon="6.52884">
        <ele>1819.1999511719</ele>
        <time>2015-02-07T12:20:09.000Z</time>
      </trkpt>
      <trkpt lat="45.94737" lon="6.52886">
        <ele>1819.5999755859</ele>
        <time>2015-02-07T12:20:14.000Z</time>
      </trkpt>
      <trkpt lat="45.94736" lon="6.52887">
        <ele>1820.4000244141</ele>
        <time>2015-02-07T12:20:19.000Z</time>
      </trkpt>
      <trkpt lat="45.94732" lon="6.52888">
        <ele>1821.1999511719</ele>
        <time>2015-02-07T12:20:26.000Z</time>
      </trkpt>
      <trkpt lat="45.94732" lon="6.52888">
        <ele>1821.5999755859</ele>
        <time>2015-02-07T12:20:27.000Z</time>
      </trkpt>
      <trkpt lat="45.94729" lon="6.52889">
        <ele>1822.1999511719</ele>
        <time>2015-02-07T12:20:33.000Z</time>
      </trkpt>
      <trkpt lat="45.94728" lon="6.52889">
        <ele>1822.5999755859</ele>
        <time>2015-02-07T12:20:35.000Z</time>
      </trkpt>
      <trkpt lat="45.94727" lon="6.52889">
        <ele>1823.1999511719</ele>
        <time>2015-02-07T12:20:39.000Z</time>
      </trkpt>
      <trkpt lat="45.94729" lon="6.52892">
        <ele>1823.5999755859</ele>
        <time>2015-02-07T12:20:45.000Z</time>
      </trkpt>
      <trkpt lat="45.9473" lon="6.52894">
        <ele>1823.5999755859</ele>
        <time>2015-02-07T12:20:47.000Z</time>
      </trkpt>
      <trkpt lat="45.94731" lon="6.52896">
        <ele>1824</ele>
        <time>2015-02-07T12:20:50.000Z</time>
      </trkpt>
      <trkpt lat="45.94732" lon="6.52898">
        <ele>1824.8000488281</ele>
        <time>2015-02-07T12:20:53.000Z</time>
      </trkpt>
      <trkpt lat="45.94733" lon="6.52898">
        <ele>1825</ele>
        <time>2015-02-07T12:20:55.000Z</time>
      </trkpt>
      <trkpt lat="45.94736" lon="6.52901">
        <ele>1825.1999511719</ele>
        <time>2015-02-07T12:21:01.000Z</time>
      </trkpt>
      <trkpt lat="45.94737" lon="6.52902">
        <ele>1825.8000488281</ele>
        <time>2015-02-07T12:21:03.000Z</time>
      </trkpt>
      <trkpt lat="45.94737" lon="6.52902">
        <ele>1827</ele>
        <time>2015-02-07T12:21:08.000Z</time>
      </trkpt>
      <trkpt lat="45.94737" lon="6.52903">
        <ele>1827</ele>
        <time>2015-02-07T12:21:10.000Z</time>
      </trkpt>
      <trkpt lat="45.94738" lon="6.52905">
        <ele>1827.5999755859</ele>
        <time>2015-02-07T12:21:15.000Z</time>
      </trkpt>
      <trkpt lat="45.94741" lon="6.52908">
        <ele>1828</ele>
        <time>2015-02-07T12:21:19.000Z</time>
      </trkpt>
      <trkpt lat="45.94742" lon="6.52908">
        <ele>1828</ele>
        <time>2015-02-07T12:21:20.000Z</time>
      </trkpt>
      <trkpt lat="45.94744" lon="6.5291">
        <ele>1829.1999511719</ele>
        <time>2015-02-07T12:21:26.000Z</time>
      </trkpt>
      <trkpt lat="45.94744" lon="6.52911">
        <ele>1829.4000244141</ele>
        <time>2015-02-07T12:21:28.000Z</time>
      </trkpt>
      <trkpt lat="45.94742" lon="6.52913">
        <ele>1830</ele>
        <time>2015-02-07T12:21:35.000Z</time>
      </trkpt>
      <trkpt lat="45.94741" lon="6.52913">
        <ele>1830.4000244141</ele>
        <time>2015-02-07T12:21:37.000Z</time>
      </trkpt>
      <trkpt lat="45.94738" lon="6.52913">
        <ele>1831.1999511719</ele>
        <time>2015-02-07T12:21:42.000Z</time>
      </trkpt>
      <trkpt lat="45.94738" lon="6.52914">
        <ele>1831.5999755859</ele>
        <time>2015-02-07T12:21:44.000Z</time>
      </trkpt>
      <trkpt lat="45.94737" lon="6.52914">
        <ele>1832</ele>
        <time>2015-02-07T12:21:46.000Z</time>
      </trkpt>
      <trkpt lat="45.94733" lon="6.52915">
        <ele>1832.8000488281</ele>
        <time>2015-02-07T12:21:51.000Z</time>
      </trkpt>
      <trkpt lat="45.94732" lon="6.52915">
        <ele>1832.8000488281</ele>
        <time>2015-02-07T12:21:52.000Z</time>
      </trkpt>
      <trkpt lat="45.94731" lon="6.52916">
        <ele>1833.1999511719</ele>
        <time>2015-02-07T12:21:58.000Z</time>
      </trkpt>
      <trkpt lat="45.94729" lon="6.52917">
        <ele>1833.8000488281</ele>
        <time>2015-02-07T12:22:03.000Z</time>
      </trkpt>
      <trkpt lat="45.94729" lon="6.52918">
        <ele>1834</ele>
        <time>2015-02-07T12:22:05.000Z</time>
      </trkpt>
      <trkpt lat="45.94726" lon="6.52922">
        <ele>1834.5999755859</ele>
        <time>2015-02-07T12:22:12.000Z</time>
      </trkpt>
      <trkpt lat="45.94726" lon="6.52922">
        <ele>1834.8000488281</ele>
        <time>2015-02-07T12:22:13.000Z</time>
      </trkpt>
      <trkpt lat="45.94726" lon="6.52922">
        <ele>1836</ele>
        <time>2015-02-07T12:22:16.000Z</time>
      </trkpt>
      <trkpt lat="45.94725" lon="6.52923">
        <ele>1836.1999511719</ele>
        <time>2015-02-07T12:22:19.000Z</time>
      </trkpt>
      <trkpt lat="45.94725" lon="6.52924">
        <ele>1836.4000244141</ele>
        <time>2015-02-07T12:22:23.000Z</time>
      </trkpt>
      <trkpt lat="45.94724" lon="6.52926">
        <ele>1837</ele>
        <time>2015-02-07T12:22:30.000Z</time>
      </trkpt>
      <trkpt lat="45.94724" lon="6.52925">
        <ele>1837.5999755859</ele>
        <time>2015-02-07T12:22:35.000Z</time>
      </trkpt>
      <trkpt lat="45.94724" lon="6.52925">
        <ele>1838.4000244141</ele>
        <time>2015-02-07T12:22:38.000Z</time>
      </trkpt>
      <trkpt lat="45.94724" lon="6.52925">
        <ele>1838.8000488281</ele>
        <time>2015-02-07T12:22:41.000Z</time>
      </trkpt>
      <trkpt lat="45.94724" lon="6.52925">
        <ele>1839.4000244141</ele>
        <time>2015-02-07T12:22:46.000Z</time>
      </trkpt>
      <trkpt lat="45.94724" lon="6.52925">
        <ele>1839.5999755859</ele>
        <time>2015-02-07T12:22:47.000Z</time>
      </trkpt>
      <trkpt lat="45.94719" lon="6.52931">
        <ele>1840.5999755859</ele>
        <time>2015-02-07T12:22:53.000Z</time>
      </trkpt>
      <trkpt lat="45.94719" lon="6.52931">
        <ele>1840.8000488281</ele>
        <time>2015-02-07T12:22:54.000Z</time>
      </trkpt>
      <trkpt lat="45.94719" lon="6.52931">
        <ele>1841.1999511719</ele>
        <time>2015-02-07T12:23:07.000Z</time>
      </trkpt>
      <trkpt lat="45.94719" lon="6.52931">
        <ele>1841.1999511719</ele>
        <time>2015-02-07T12:23:19.000Z</time>
      </trkpt>
      <trkpt lat="45.94719" lon="6.52932">
        <ele>1841</ele>
        <time>2015-02-07T12:23:37.000Z</time>
      </trkpt>
      <trkpt lat="45.94719" lon="6.52932">
        <ele>1840.8000488281</ele>
        <time>2015-02-07T12:23:53.000Z</time>
      </trkpt>
      <trkpt lat="45.94719" lon="6.52932">
        <ele>1841</ele>
        <time>2015-02-07T12:24:06.000Z</time>
      </trkpt>
      <trkpt lat="45.94719" lon="6.52932">
        <ele>1841.1999511719</ele>
        <time>2015-02-07T12:24:17.000Z</time>
      </trkpt>
      <trkpt lat="45.94719" lon="6.52935">
        <ele>1841.8000488281</ele>
        <time>2015-02-07T12:24:25.000Z</time>
      </trkpt>
      <trkpt lat="45.94722" lon="6.5295">
        <ele>1843</ele>
        <time>2015-02-07T12:24:31.000Z</time>
      </trkpt>
      <trkpt lat="45.94722" lon="6.52954">
        <ele>1843.5999755859</ele>
        <time>2015-02-07T12:24:36.000Z</time>
      </trkpt>
      <trkpt lat="45.94723" lon="6.52958">
        <ele>1844.4000244141</ele>
        <time>2015-02-07T12:24:39.000Z</time>
      </trkpt>
      <trkpt lat="45.94725" lon="6.5296">
        <ele>1844.8000488281</ele>
        <time>2015-02-07T12:24:41.000Z</time>
      </trkpt>
      <trkpt lat="45.94728" lon="6.52963">
        <ele>1845.4000244141</ele>
        <time>2015-02-07T12:24:44.000Z</time>
      </trkpt>
      <trkpt lat="45.94729" lon="6.52964">
        <ele>1845.8000488281</ele>
        <time>2015-02-07T12:24:47.000Z</time>
      </trkpt>
      <trkpt lat="45.94733" lon="6.52966">
        <ele>1846.4000244141</ele>
        <time>2015-02-07T12:24:52.000Z</time>
      </trkpt>
      <trkpt lat="45.94733" lon="6.52967">
        <ele>1846.5999755859</ele>
        <time>2015-02-07T12:24:53.000Z</time>
      </trkpt>
      <trkpt lat="45.94737" lon="6.52969">
        <ele>1847.4000244141</ele>
        <time>2015-02-07T12:24:58.000Z</time>
      </trkpt>
      <trkpt lat="45.94737" lon="6.5297">
        <ele>1847.8000488281</ele>
        <time>2015-02-07T12:24:59.000Z</time>
      </trkpt>
      <trkpt lat="45.9474" lon="6.52973">
        <ele>1848.8000488281</ele>
        <time>2015-02-07T12:25:04.000Z</time>
      </trkpt>
      <trkpt lat="45.94741" lon="6.52976">
        <ele>1849.5999755859</ele>
        <time>2015-02-07T12:25:09.000Z</time>
      </trkpt>
      <trkpt lat="45.94742" lon="6.52979">
        <ele>1850</ele>
        <time>2015-02-07T12:25:12.000Z</time>
      </trkpt>
      <trkpt lat="45.94743" lon="6.5298">
        <ele>1850.5999755859</ele>
        <time>2015-02-07T12:25:15.000Z</time>
      </trkpt>
      <trkpt lat="45.94745" lon="6.52984">
        <ele>1851.1999511719</ele>
        <time>2015-02-07T12:25:19.000Z</time>
      </trkpt>
      <trkpt lat="45.94745" lon="6.52984">
        <ele>1851.1999511719</ele>
        <time>2015-02-07T12:25:20.000Z</time>
      </trkpt>
      <trkpt lat="45.94747" lon="6.52986">
        <ele>1851.8000488281</ele>
        <time>2015-02-07T12:25:26.000Z</time>
      </trkpt>
      <trkpt lat="45.94748" lon="6.52986">
        <ele>1852.1999511719</ele>
        <time>2015-02-07T12:25:28.000Z</time>
      </trkpt>
      <trkpt lat="45.9475" lon="6.52986">
        <ele>1853</ele>
        <time>2015-02-07T12:25:33.000Z</time>
      </trkpt>
      <trkpt lat="45.9475" lon="6.52985">
        <ele>1853.1999511719</ele>
        <time>2015-02-07T12:25:34.000Z</time>
      </trkpt>
      <trkpt lat="45.94753" lon="6.52985">
        <ele>1854</ele>
        <time>2015-02-07T12:25:39.000Z</time>
      </trkpt>
      <trkpt lat="45.94753" lon="6.52986">
        <ele>1854.4000244141</ele>
        <time>2015-02-07T12:25:40.000Z</time>
      </trkpt>
      <trkpt lat="45.94757" lon="6.52987">
        <ele>1854.8000488281</ele>
        <time>2015-02-07T12:25:45.000Z</time>
      </trkpt>
      <trkpt lat="45.94759" lon="6.5299">
        <ele>1855.4000244141</ele>
        <time>2015-02-07T12:25:50.000Z</time>
      </trkpt>
      <trkpt lat="45.94759" lon="6.52991">
        <ele>1856</ele>
        <time>2015-02-07T12:25:52.000Z</time>
      </trkpt>
      <trkpt lat="45.9476" lon="6.52992">
        <ele>1856.5999755859</ele>
        <time>2015-02-07T12:25:54.000Z</time>
      </trkpt>
      <trkpt lat="45.94762" lon="6.52996">
        <ele>1856.8000488281</ele>
        <time>2015-02-07T12:25:58.000Z</time>
      </trkpt>
      <trkpt lat="45.94763" lon="6.52999">
        <ele>1857.5999755859</ele>
        <time>2015-02-07T12:26:02.000Z</time>
      </trkpt>
      <trkpt lat="45.94764" lon="6.53">
        <ele>1858</ele>
        <time>2015-02-07T12:26:04.000Z</time>
      </trkpt>
      <trkpt lat="45.94764" lon="6.53006">
        <ele>1858.5999755859</ele>
        <time>2015-02-07T12:26:08.000Z</time>
      </trkpt>
      <trkpt lat="45.94764" lon="6.53009">
        <ele>1859</ele>
        <time>2015-02-07T12:26:10.000Z</time>
      </trkpt>
      <trkpt lat="45.94763" lon="6.53011">
        <ele>1859.8000488281</ele>
        <time>2015-02-07T12:26:13.000Z</time>
      </trkpt>
      <trkpt lat="45.94764" lon="6.53014">
        <ele>1860</ele>
        <time>2015-02-07T12:26:15.000Z</time>
      </trkpt>
      <trkpt lat="45.94768" lon="6.53019">
        <ele>1860.1999511719</ele>
        <time>2015-02-07T12:26:21.000Z</time>
      </trkpt>
      <trkpt lat="45.94769" lon="6.53021">
        <ele>1861</ele>
        <time>2015-02-07T12:26:26.000Z</time>
      </trkpt>
      <trkpt lat="45.94769" lon="6.53023">
        <ele>1861.1999511719</ele>
        <time>2015-02-07T12:26:27.000Z</time>
      </trkpt>
      <trkpt lat="45.9477" lon="6.53024">
        <ele>1861.8000488281</ele>
        <time>2015-02-07T12:26:32.000Z</time>
      </trkpt>
      <trkpt lat="45.9477" lon="6.53025">
        <ele>1862</ele>
        <time>2015-02-07T12:26:34.000Z</time>
      </trkpt>
      <trkpt lat="45.9477" lon="6.53028">
        <ele>1862.5999755859</ele>
        <time>2015-02-07T12:26:37.000Z</time>
      </trkpt>
      <trkpt lat="45.9477" lon="6.53031">
        <ele>1863.1999511719</ele>
        <time>2015-02-07T12:26:41.000Z</time>
      </trkpt>
      <trkpt lat="45.9477" lon="6.53032">
        <ele>1863.4000244141</ele>
        <time>2015-02-07T12:26:42.000Z</time>
      </trkpt>
      <trkpt lat="45.9477" lon="6.53037">
        <ele>1864.4000244141</ele>
        <time>2015-02-07T12:26:46.000Z</time>
      </trkpt>
      <trkpt lat="45.9477" lon="6.53041">
        <ele>1864.8000488281</ele>
        <time>2015-02-07T12:26:49.000Z</time>
      </trkpt>
      <trkpt lat="45.94769" lon="6.53044">
        <ele>1865.5999755859</ele>
        <time>2015-02-07T12:26:54.000Z</time>
      </trkpt>
      <trkpt lat="45.94769" lon="6.53044">
        <ele>1865.8000488281</ele>
        <time>2015-02-07T12:26:55.000Z</time>
      </trkpt>
      <trkpt lat="45.94768" lon="6.53046">
        <ele>1866.5999755859</ele>
        <time>2015-02-07T12:27:00.000Z</time>
      </trkpt>
      <trkpt lat="45.94768" lon="6.53047">
        <ele>1866.8000488281</ele>
        <time>2015-02-07T12:27:01.000Z</time>
      </trkpt>
      <trkpt lat="45.94768" lon="6.5305">
        <ele>1867.5999755859</ele>
        <time>2015-02-07T12:27:06.000Z</time>
      </trkpt>
      <trkpt lat="45.94768" lon="6.53051">
        <ele>1867.8000488281</ele>
        <time>2015-02-07T12:27:07.000Z</time>
      </trkpt>
      <trkpt lat="45.9477" lon="6.53053">
        <ele>1868.5999755859</ele>
        <time>2015-02-07T12:27:12.000Z</time>
      </trkpt>
      <trkpt lat="45.94771" lon="6.53053">
        <ele>1868.8000488281</ele>
        <time>2015-02-07T12:27:13.000Z</time>
      </trkpt>
      <trkpt lat="45.94773" lon="6.53055">
        <ele>1869.8000488281</ele>
        <time>2015-02-07T12:27:19.000Z</time>
      </trkpt>
      <trkpt lat="45.94775" lon="6.53057">
        <ele>1870.8000488281</ele>
        <time>2015-02-07T12:27:25.000Z</time>
      </trkpt>
      <trkpt lat="45.94775" lon="6.53057">
        <ele>1870.8000488281</ele>
        <time>2015-02-07T12:27:26.000Z</time>
      </trkpt>
      <trkpt lat="45.94777" lon="6.5306">
        <ele>1870.8000488281</ele>
        <time>2015-02-07T12:27:32.000Z</time>
      </trkpt>
      <trkpt lat="45.94779" lon="6.53066">
        <ele>1871.5999755859</ele>
        <time>2015-02-07T12:27:38.000Z</time>
      </trkpt>
      <trkpt lat="45.94781" lon="6.53069">
        <ele>1872</ele>
        <time>2015-02-07T12:27:40.000Z</time>
      </trkpt>
      <trkpt lat="45.94782" lon="6.53071">
        <ele>1872.5999755859</ele>
        <time>2015-02-07T12:27:43.000Z</time>
      </trkpt>
      <trkpt lat="45.94785" lon="6.53074">
        <ele>1873</ele>
        <time>2015-02-07T12:27:48.000Z</time>
      </trkpt>
      <trkpt lat="45.94785" lon="6.53074">
        <ele>1873</ele>
        <time>2015-02-07T12:27:49.000Z</time>
      </trkpt>
      <trkpt lat="45.94786" lon="6.53076">
        <ele>1874</ele>
        <time>2015-02-07T12:27:54.000Z</time>
      </trkpt>
      <trkpt lat="45.94787" lon="6.53076">
        <ele>1874.1999511719</ele>
        <time>2015-02-07T12:27:55.000Z</time>
      </trkpt>
      <trkpt lat="45.94788" lon="6.53079">
        <ele>1874.5999755859</ele>
        <time>2015-02-07T12:27:59.000Z</time>
      </trkpt>
      <trkpt lat="45.9479" lon="6.53081">
        <ele>1875.1999511719</ele>
        <time>2015-02-07T12:28:03.000Z</time>
      </trkpt>
      <trkpt lat="45.9479" lon="6.53081">
        <ele>1875.4000244141</ele>
        <time>2015-02-07T12:28:04.000Z</time>
      </trkpt>
      <trkpt lat="45.94793" lon="6.53085">
        <ele>1876.4000244141</ele>
        <time>2015-02-07T12:28:10.000Z</time>
      </trkpt>
      <trkpt lat="45.94796" lon="6.5309">
        <ele>1877.4000244141</ele>
        <time>2015-02-07T12:28:16.000Z</time>
      </trkpt>
      <trkpt lat="45.94798" lon="6.53092">
        <ele>1878.1999511719</ele>
        <time>2015-02-07T12:28:21.000Z</time>
      </trkpt>
      <trkpt lat="45.94798" lon="6.53094">
        <ele>1878.5999755859</ele>
        <time>2015-02-07T12:28:23.000Z</time>
      </trkpt>
      <trkpt lat="45.94801" lon="6.53098">
        <ele>1879.1999511719</ele>
        <time>2015-02-07T12:28:27.000Z</time>
      </trkpt>
      <trkpt lat="45.94803" lon="6.53101">
        <ele>1879.5999755859</ele>
        <time>2015-02-07T12:28:32.000Z</time>
      </trkpt>
      <trkpt lat="45.94805" lon="6.53103">
        <ele>1880.5999755859</ele>
        <time>2015-02-07T12:28:37.000Z</time>
      </trkpt>
      <trkpt lat="45.94805" lon="6.53103">
        <ele>1880.8000488281</ele>
        <time>2015-02-07T12:28:38.000Z</time>
      </trkpt>
      <trkpt lat="45.94807" lon="6.53105">
        <ele>1881.5999755859</ele>
        <time>2015-02-07T12:28:43.000Z</time>
      </trkpt>
      <trkpt lat="45.94808" lon="6.53105">
        <ele>1882.5999755859</ele>
        <time>2015-02-07T12:28:48.000Z</time>
      </trkpt>
      <trkpt lat="45.94809" lon="6.53108">
        <ele>1882.8000488281</ele>
        <time>2015-02-07T12:28:50.000Z</time>
      </trkpt>
      <trkpt lat="45.9481" lon="6.53109">
        <ele>1883.1999511719</ele>
        <time>2015-02-07T12:28:52.000Z</time>
      </trkpt>
      <trkpt lat="45.94813" lon="6.53112">
        <ele>1883.8000488281</ele>
        <time>2015-02-07T12:28:57.000Z</time>
      </trkpt>
      <trkpt lat="45.94815" lon="6.53113">
        <ele>1884.1999511719</ele>
        <time>2015-02-07T12:28:59.000Z</time>
      </trkpt>
      <trkpt lat="45.94817" lon="6.53114">
        <ele>1885</ele>
        <time>2015-02-07T12:29:04.000Z</time>
      </trkpt>
      <trkpt lat="45.94819" lon="6.53116">
        <ele>1886</ele>
        <time>2015-02-07T12:29:11.000Z</time>
      </trkpt>
      <trkpt lat="45.94823" lon="6.53115">
        <ele>1887</ele>
        <time>2015-02-07T12:29:18.000Z</time>
      </trkpt>
      <trkpt lat="45.94823" lon="6.53115">
        <ele>1887.1999511719</ele>
        <time>2015-02-07T12:29:19.000Z</time>
      </trkpt>
      <trkpt lat="45.94828" lon="6.53118">
        <ele>1888.1999511719</ele>
        <time>2015-02-07T12:29:25.000Z</time>
      </trkpt>
      <trkpt lat="45.94828" lon="6.53119">
        <ele>1889.1999511719</ele>
        <time>2015-02-07T12:29:30.000Z</time>
      </trkpt>
      <trkpt lat="45.94828" lon="6.53119">
        <ele>1889.4000244141</ele>
        <time>2015-02-07T12:29:31.000Z</time>
      </trkpt>
      <trkpt lat="45.94829" lon="6.5312">
        <ele>1889.1999511719</ele>
        <time>2015-02-07T12:29:44.000Z</time>
      </trkpt>
      <trkpt lat="45.94832" lon="6.53125">
        <ele>1889.8000488281</ele>
        <time>2015-02-07T12:29:49.000Z</time>
      </trkpt>
      <trkpt lat="45.94833" lon="6.53128">
        <ele>1890.4000244141</ele>
        <time>2015-02-07T12:29:51.000Z</time>
      </trkpt>
      <trkpt lat="45.94834" lon="6.53129">
        <ele>1890.8000488281</ele>
        <time>2015-02-07T12:29:53.000Z</time>
      </trkpt>
      <trkpt lat="45.94836" lon="6.53133">
        <ele>1891.5999755859</ele>
        <time>2015-02-07T12:29:57.000Z</time>
      </trkpt>
      <trkpt lat="45.94837" lon="6.53134">
        <ele>1891.8000488281</ele>
        <time>2015-02-07T12:29:59.000Z</time>
      </trkpt>
      <trkpt lat="45.94838" lon="6.53136">
        <ele>1892.4000244141</ele>
        <time>2015-02-07T12:30:03.000Z</time>
      </trkpt>
      <trkpt lat="45.94839" lon="6.53137">
        <ele>1892.5999755859</ele>
        <time>2015-02-07T12:30:05.000Z</time>
      </trkpt>
      <trkpt lat="45.94841" lon="6.5314">
        <ele>1893.4000244141</ele>
        <time>2015-02-07T12:30:10.000Z</time>
      </trkpt>
      <trkpt lat="45.94843" lon="6.53144">
        <ele>1893.8000488281</ele>
        <time>2015-02-07T12:30:14.000Z</time>
      </trkpt>
      <trkpt lat="45.94844" lon="6.53145">
        <ele>1894.1999511719</ele>
        <time>2015-02-07T12:30:15.000Z</time>
      </trkpt>
      <trkpt lat="45.94844" lon="6.53147">
        <ele>1894.8000488281</ele>
        <time>2015-02-07T12:30:18.000Z</time>
      </trkpt>
      <trkpt lat="45.94846" lon="6.53148">
        <ele>1895.1999511719</ele>
        <time>2015-02-07T12:30:21.000Z</time>
      </trkpt>
      <trkpt lat="45.94846" lon="6.53151">
        <ele>1896</ele>
        <time>2015-02-07T12:30:26.000Z</time>
      </trkpt>
      <trkpt lat="45.94845" lon="6.53154">
        <ele>1897</ele>
        <time>2015-02-07T12:30:31.000Z</time>
      </trkpt>
      <trkpt lat="45.94843" lon="6.53155">
        <ele>1898</ele>
        <time>2015-02-07T12:30:36.000Z</time>
      </trkpt>
      <trkpt lat="45.94841" lon="6.53156">
        <ele>1899.1999511719</ele>
        <time>2015-02-07T12:30:42.000Z</time>
      </trkpt>
      <trkpt lat="45.94841" lon="6.53156">
        <ele>1899.1999511719</ele>
        <time>2015-02-07T12:30:43.000Z</time>
      </trkpt>
      <trkpt lat="45.94838" lon="6.53158">
        <ele>1899.8000488281</ele>
        <time>2015-02-07T12:30:50.000Z</time>
      </trkpt>
      <trkpt lat="45.94836" lon="6.5316">
        <ele>1900.1999511719</ele>
        <time>2015-02-07T12:30:55.000Z</time>
      </trkpt>
      <trkpt lat="45.94832" lon="6.53161">
        <ele>1901.4000244141</ele>
        <time>2015-02-07T12:31:01.000Z</time>
      </trkpt>
      <trkpt lat="45.94829" lon="6.53163">
        <ele>1902.4000244141</ele>
        <time>2015-02-07T12:31:06.000Z</time>
      </trkpt>
      <trkpt lat="45.94828" lon="6.53164">
        <ele>1902.8000488281</ele>
        <time>2015-02-07T12:31:07.000Z</time>
      </trkpt>
      <trkpt lat="45.94829" lon="6.53164">
        <ele>1903</ele>
        <time>2015-02-07T12:31:17.000Z</time>
      </trkpt>
      <trkpt lat="45.9483" lon="6.53166">
        <ele>1903</ele>
        <time>2015-02-07T12:31:23.000Z</time>
      </trkpt>
      <trkpt lat="45.9483" lon="6.53167">
        <ele>1903.5999755859</ele>
        <time>2015-02-07T12:31:25.000Z</time>
      </trkpt>
      <trkpt lat="45.94831" lon="6.53169">
        <ele>1904.1999511719</ele>
        <time>2015-02-07T12:31:29.000Z</time>
      </trkpt>
      <trkpt lat="45.94832" lon="6.53173">
        <ele>1904.5999755859</ele>
        <time>2015-02-07T12:31:32.000Z</time>
      </trkpt>
      <trkpt lat="45.94833" lon="6.53178">
        <ele>1905.4000244141</ele>
        <time>2015-02-07T12:31:36.000Z</time>
      </trkpt>
      <trkpt lat="45.94834" lon="6.5318">
        <ele>1905.8000488281</ele>
        <time>2015-02-07T12:31:38.000Z</time>
      </trkpt>
      <trkpt lat="45.94835" lon="6.53181">
        <ele>1906.1999511719</ele>
        <time>2015-02-07T12:31:41.000Z</time>
      </trkpt>
      <trkpt lat="45.94837" lon="6.53185">
        <ele>1906.8000488281</ele>
        <time>2015-02-07T12:31:45.000Z</time>
      </trkpt>
      <trkpt lat="45.94837" lon="6.53185">
        <ele>1907</ele>
        <time>2015-02-07T12:31:46.000Z</time>
      </trkpt>
      <trkpt lat="45.94839" lon="6.53189">
        <ele>1907.5999755859</ele>
        <time>2015-02-07T12:31:51.000Z</time>
      </trkpt>
      <trkpt lat="45.9484" lon="6.5319">
        <ele>1907.8000488281</ele>
        <time>2015-02-07T12:31:52.000Z</time>
      </trkpt>
      <trkpt lat="45.94841" lon="6.53192">
        <ele>1908.4000244141</ele>
        <time>2015-02-07T12:31:56.000Z</time>
      </trkpt>
      <trkpt lat="45.94841" lon="6.53193">
        <ele>1908.5999755859</ele>
        <time>2015-02-07T12:32:14.000Z</time>
      </trkpt>
      <trkpt lat="45.94841" lon="6.53193">
        <ele>1908.8000488281</ele>
        <time>2015-02-07T12:32:15.000Z</time>
      </trkpt>
      <trkpt lat="45.94842" lon="6.53194">
        <ele>1909.8000488281</ele>
        <time>2015-02-07T12:32:20.000Z</time>
      </trkpt>
      <trkpt lat="45.94842" lon="6.53194">
        <ele>1910</ele>
        <time>2015-02-07T12:32:21.000Z</time>
      </trkpt>
      <trkpt lat="45.94842" lon="6.53194">
        <ele>1910</ele>
        <time>2015-02-07T12:32:27.000Z</time>
      </trkpt>
      <trkpt lat="45.94842" lon="6.53195">
        <ele>1911</ele>
        <time>2015-02-07T12:32:33.000Z</time>
      </trkpt>
      <trkpt lat="45.94842" lon="6.53195">
        <ele>1911.1999511719</ele>
        <time>2015-02-07T12:32:36.000Z</time>
      </trkpt>
      <trkpt lat="45.94839" lon="6.53197">
        <ele>1911</ele>
        <time>2015-02-07T12:32:43.000Z</time>
      </trkpt>
      <trkpt lat="45.94835" lon="6.53198">
        <ele>1911.8000488281</ele>
        <time>2015-02-07T12:32:47.000Z</time>
      </trkpt>
      <trkpt lat="45.94834" lon="6.53199">
        <ele>1912.1999511719</ele>
        <time>2015-02-07T12:32:49.000Z</time>
      </trkpt>
      <trkpt lat="45.94832" lon="6.53199">
        <ele>1912.5999755859</ele>
        <time>2015-02-07T12:32:52.000Z</time>
      </trkpt>
      <trkpt lat="45.94831" lon="6.532">
        <ele>1913.1999511719</ele>
        <time>2015-02-07T12:32:55.000Z</time>
      </trkpt>
      <trkpt lat="45.9483" lon="6.532">
        <ele>1913.4000244141</ele>
        <time>2015-02-07T12:32:56.000Z</time>
      </trkpt>
      <trkpt lat="45.94827" lon="6.53201">
        <ele>1914.4000244141</ele>
        <time>2015-02-07T12:33:01.000Z</time>
      </trkpt>
      <trkpt lat="45.94827" lon="6.53202">
        <ele>1914.5999755859</ele>
        <time>2015-02-07T12:33:02.000Z</time>
      </trkpt>
      <trkpt lat="45.94825" lon="6.53202">
        <ele>1915.4000244141</ele>
        <time>2015-02-07T12:33:05.000Z</time>
      </trkpt>
      <trkpt lat="45.94824" lon="6.53203">
        <ele>1915.5999755859</ele>
        <time>2015-02-07T12:33:07.000Z</time>
      </trkpt>
      <trkpt lat="45.94821" lon="6.53206">
        <ele>1916.1999511719</ele>
        <time>2015-02-07T12:33:12.000Z</time>
      </trkpt>
      <trkpt lat="45.94821" lon="6.53206">
        <ele>1916.5999755859</ele>
        <time>2015-02-07T12:33:13.000Z</time>
      </trkpt>
      <trkpt lat="45.9482" lon="6.53211">
        <ele>1917.4000244141</ele>
        <time>2015-02-07T12:33:18.000Z</time>
      </trkpt>
      <trkpt lat="45.9482" lon="6.53212">
        <ele>1917.5999755859</ele>
        <time>2015-02-07T12:33:19.000Z</time>
      </trkpt>
      <trkpt lat="45.94821" lon="6.53215">
        <ele>1918.1999511719</ele>
        <time>2015-02-07T12:33:24.000Z</time>
      </trkpt>
      <trkpt lat="45.94821" lon="6.53215">
        <ele>1918.5999755859</ele>
        <time>2015-02-07T12:33:26.000Z</time>
      </trkpt>
      <trkpt lat="45.94821" lon="6.53215">
        <ele>1918.5999755859</ele>
        <time>2015-02-07T12:33:34.000Z</time>
      </trkpt>
      <trkpt lat="45.94821" lon="6.53215">
        <ele>1918.8000488281</ele>
        <time>2015-02-07T12:33:45.000Z</time>
      </trkpt>
      <trkpt lat="45.94821" lon="6.53215">
        <ele>1919.1999511719</ele>
        <time>2015-02-07T12:34:01.000Z</time>
      </trkpt>
      <trkpt lat="45.94822" lon="6.5322">
        <ele>1919.4000244141</ele>
        <time>2015-02-07T12:34:06.000Z</time>
      </trkpt>
      <trkpt lat="45.94823" lon="6.53221">
        <ele>1919.5999755859</ele>
        <time>2015-02-07T12:34:07.000Z</time>
      </trkpt>
      <trkpt lat="45.94825" lon="6.53226">
        <ele>1920.4000244141</ele>
        <time>2015-02-07T12:34:12.000Z</time>
      </trkpt>
      <trkpt lat="45.94825" lon="6.53227">
        <ele>1920.8000488281</ele>
        <time>2015-02-07T12:34:14.000Z</time>
      </trkpt>
      <trkpt lat="45.94826" lon="6.53231">
        <ele>1921.4000244141</ele>
        <time>2015-02-07T12:34:17.000Z</time>
      </trkpt>
      <trkpt lat="45.94827" lon="6.53235">
        <ele>1921.8000488281</ele>
        <time>2015-02-07T12:34:20.000Z</time>
      </trkpt>
      <trkpt lat="45.94828" lon="6.53236">
        <ele>1922.1999511719</ele>
        <time>2015-02-07T12:34:23.000Z</time>
      </trkpt>
      <trkpt lat="45.94828" lon="6.53238">
        <ele>1923</ele>
        <time>2015-02-07T12:34:27.000Z</time>
      </trkpt>
      <trkpt lat="45.94829" lon="6.53239">
        <ele>1923.1999511719</ele>
        <time>2015-02-07T12:34:29.000Z</time>
      </trkpt>
      <trkpt lat="45.94831" lon="6.53243">
        <ele>1924</ele>
        <time>2015-02-07T12:34:32.000Z</time>
      </trkpt>
      <trkpt lat="45.94831" lon="6.53243">
        <ele>1924.5999755859</ele>
        <time>2015-02-07T12:34:34.000Z</time>
      </trkpt>
      <trkpt lat="45.94832" lon="6.53245">
        <ele>1925.1999511719</ele>
        <time>2015-02-07T12:34:37.000Z</time>
      </trkpt>
      <trkpt lat="45.94832" lon="6.53246">
        <ele>1925.8000488281</ele>
        <time>2015-02-07T12:34:39.000Z</time>
      </trkpt>
      <trkpt lat="45.94832" lon="6.53245">
        <ele>1926.1999511719</ele>
        <time>2015-02-07T12:34:41.000Z</time>
      </trkpt>
      <trkpt lat="45.94834" lon="6.5325">
        <ele>1926.8000488281</ele>
        <time>2015-02-07T12:34:45.000Z</time>
      </trkpt>
      <trkpt lat="45.94836" lon="6.53252">
        <ele>1927.4000244141</ele>
        <time>2015-02-07T12:34:47.000Z</time>
      </trkpt>
      <trkpt lat="45.94836" lon="6.53252">
        <ele>1927.5999755859</ele>
        <time>2015-02-07T12:34:50.000Z</time>
      </trkpt>
      <trkpt lat="45.94837" lon="6.53254">
        <ele>1928.4000244141</ele>
        <time>2015-02-07T12:34:53.000Z</time>
      </trkpt>
      <trkpt lat="45.94837" lon="6.53254">
        <ele>1928.5999755859</ele>
        <time>2015-02-07T12:34:55.000Z</time>
      </trkpt>
      <trkpt lat="45.94837" lon="6.53254">
        <ele>1929.5999755859</ele>
        <time>2015-02-07T12:35:02.000Z</time>
      </trkpt>
      <trkpt lat="45.94837" lon="6.53254">
        <ele>1930.1999511719</ele>
        <time>2015-02-07T12:35:03.000Z</time>
      </trkpt>
      <trkpt lat="45.94837" lon="6.53256">
        <ele>1930.5999755859</ele>
        <time>2015-02-07T12:35:05.000Z</time>
      </trkpt>
      <trkpt lat="45.94837" lon="6.53258">
        <ele>1931</ele>
        <time>2015-02-07T12:35:08.000Z</time>
      </trkpt>
      <trkpt lat="45.94834" lon="6.53263">
        <ele>1931.5999755859</ele>
        <time>2015-02-07T12:35:13.000Z</time>
      </trkpt>
      <trkpt lat="45.94833" lon="6.53263">
        <ele>1931.5999755859</ele>
        <time>2015-02-07T12:35:14.000Z</time>
      </trkpt>
      <trkpt lat="45.94832" lon="6.53265">
        <ele>1932.1999511719</ele>
        <time>2015-02-07T12:35:16.000Z</time>
      </trkpt>
      <trkpt lat="45.94831" lon="6.53266">
        <ele>1932.4000244141</ele>
        <time>2015-02-07T12:35:19.000Z</time>
      </trkpt>
      <trkpt lat="45.9483" lon="6.53267">
        <ele>1932.8000488281</ele>
        <time>2015-02-07T12:35:21.000Z</time>
      </trkpt>
      <trkpt lat="45.9483" lon="6.53267">
        <ele>1933.8000488281</ele>
        <time>2015-02-07T12:35:26.000Z</time>
      </trkpt>
      <trkpt lat="45.9483" lon="6.53267">
        <ele>1934</ele>
        <time>2015-02-07T12:35:27.000Z</time>
      </trkpt>
      <trkpt lat="45.9483" lon="6.53267">
        <ele>1933.8000488281</ele>
        <time>2015-02-07T12:35:43.000Z</time>
      </trkpt>
      <trkpt lat="45.9483" lon="6.53267">
        <ele>1933.8000488281</ele>
        <time>2015-02-07T12:35:55.000Z</time>
      </trkpt>
      <trkpt lat="45.94829" lon="6.53268">
        <ele>1933.8000488281</ele>
        <time>2015-02-07T12:36:12.000Z</time>
      </trkpt>
      <trkpt lat="45.94826" lon="6.53269">
        <ele>1934.5999755859</ele>
        <time>2015-02-07T12:36:17.000Z</time>
      </trkpt>
      <trkpt lat="45.94825" lon="6.53269">
        <ele>1935</ele>
        <time>2015-02-07T12:36:18.000Z</time>
      </trkpt>
      <trkpt lat="45.94822" lon="6.53269">
        <ele>1935.5999755859</ele>
        <time>2015-02-07T12:36:22.000Z</time>
      </trkpt>
      <trkpt lat="45.94823" lon="6.5327">
        <ele>1936</ele>
        <time>2015-02-07T12:36:26.000Z</time>
      </trkpt>
      <trkpt lat="45.94823" lon="6.53271">
        <ele>1936</ele>
        <time>2015-02-07T12:36:27.000Z</time>
      </trkpt>
      <trkpt lat="45.94827" lon="6.53275">
        <ele>1936.8000488281</ele>
        <time>2015-02-07T12:36:32.000Z</time>
      </trkpt>
      <trkpt lat="45.94829" lon="6.53278">
        <ele>1936.8000488281</ele>
        <time>2015-02-07T12:36:33.000Z</time>
      </trkpt>
      <trkpt lat="45.9483" lon="6.53279">
        <ele>1937.1999511719</ele>
        <time>2015-02-07T12:36:35.000Z</time>
      </trkpt>
      <trkpt lat="45.94831" lon="6.5328">
        <ele>1937.4000244141</ele>
        <time>2015-02-07T12:36:37.000Z</time>
      </trkpt>
      <trkpt lat="45.94834" lon="6.53283">
        <ele>1938.1999511719</ele>
        <time>2015-02-07T12:36:41.000Z</time>
      </trkpt>
      <trkpt lat="45.94838" lon="6.53289">
        <ele>1939</ele>
        <time>2015-02-07T12:36:46.000Z</time>
      </trkpt>
      <trkpt lat="45.94839" lon="6.53292">
        <ele>1939.4000244141</ele>
        <time>2015-02-07T12:36:49.000Z</time>
      </trkpt>
      <trkpt lat="45.9484" lon="6.53292">
        <ele>1940</ele>
        <time>2015-02-07T12:36:52.000Z</time>
      </trkpt>
      <trkpt lat="45.94842" lon="6.53295">
        <ele>1940.5999755859</ele>
        <time>2015-02-07T12:36:55.000Z</time>
      </trkpt>
      <trkpt lat="45.94843" lon="6.53296">
        <ele>1940.8000488281</ele>
        <time>2015-02-07T12:36:56.000Z</time>
      </trkpt>
      <trkpt lat="45.94844" lon="6.53298">
        <ele>1941.5999755859</ele>
        <time>2015-02-07T12:37:00.000Z</time>
      </trkpt>
      <trkpt lat="45.94846" lon="6.533">
        <ele>1941.8000488281</ele>
        <time>2015-02-07T12:37:01.000Z</time>
      </trkpt>
      <trkpt lat="45.94847" lon="6.53302">
        <ele>1942.5999755859</ele>
        <time>2015-02-07T12:37:05.000Z</time>
      </trkpt>
      <trkpt lat="45.94849" lon="6.53304">
        <ele>1942.5999755859</ele>
        <time>2015-02-07T12:37:06.000Z</time>
      </trkpt>
      <trkpt lat="45.9485" lon="6.53308">
        <ele>1943.4000244141</ele>
        <time>2015-02-07T12:37:11.000Z</time>
      </trkpt>
      <trkpt lat="45.94851" lon="6.53309">
        <ele>1943.5999755859</ele>
        <time>2015-02-07T12:37:13.000Z</time>
      </trkpt>
      <trkpt lat="45.94853" lon="6.53312">
        <ele>1944.1999511719</ele>
        <time>2015-02-07T12:37:16.000Z</time>
      </trkpt>
      <trkpt lat="45.94854" lon="6.53314">
        <ele>1944.8000488281</ele>
        <time>2015-02-07T12:37:20.000Z</time>
      </trkpt>
      <trkpt lat="45.94855" lon="6.53316">
        <ele>1944.8000488281</ele>
        <time>2015-02-07T12:37:21.000Z</time>
      </trkpt>
      <trkpt lat="45.94858" lon="6.5332">
        <ele>1946</ele>
        <time>2015-02-07T12:37:27.000Z</time>
      </trkpt>
      <trkpt lat="45.94859" lon="6.53324">
        <ele>1946.8000488281</ele>
        <time>2015-02-07T12:37:33.000Z</time>
      </trkpt>
      <trkpt lat="45.94859" lon="6.53324">
        <ele>1947</ele>
        <time>2015-02-07T12:37:34.000Z</time>
      </trkpt>
      <trkpt lat="45.94862" lon="6.53327">
        <ele>1948</ele>
        <time>2015-02-07T12:37:38.000Z</time>
      </trkpt>
      <trkpt lat="45.94862" lon="6.53327">
        <ele>1948</ele>
        <time>2015-02-07T12:37:39.000Z</time>
      </trkpt>
      <trkpt lat="45.94862" lon="6.53327">
        <ele>1948.1999511719</ele>
        <time>2015-02-07T12:37:42.000Z</time>
      </trkpt>
      <trkpt lat="45.94862" lon="6.53327">
        <ele>1949</ele>
        <time>2015-02-07T12:37:45.000Z</time>
      </trkpt>
      <trkpt lat="45.94858" lon="6.53325">
        <ele>1949.8000488281</ele>
        <time>2015-02-07T12:37:49.000Z</time>
      </trkpt>
      <trkpt lat="45.94857" lon="6.53325">
        <ele>1950.4000244141</ele>
        <time>2015-02-07T12:37:51.000Z</time>
      </trkpt>
      <trkpt lat="45.94855" lon="6.53325">
        <ele>1950.4000244141</ele>
        <time>2015-02-07T12:37:52.000Z</time>
      </trkpt>
      <trkpt lat="45.94854" lon="6.53325">
        <ele>1950.5999755859</ele>
        <time>2015-02-07T12:37:54.000Z</time>
      </trkpt>
      <trkpt lat="45.94851" lon="6.53324">
        <ele>1951.4000244141</ele>
        <time>2015-02-07T12:37:58.000Z</time>
      </trkpt>
      <trkpt lat="45.94848" lon="6.53324">
        <ele>1951.8000488281</ele>
        <time>2015-02-07T12:38:00.000Z</time>
      </trkpt>
      <trkpt lat="45.94846" lon="6.53324">
        <ele>1952.5999755859</ele>
        <time>2015-02-07T12:38:04.000Z</time>
      </trkpt>
      <trkpt lat="45.94843" lon="6.53324">
        <ele>1953</ele>
        <time>2015-02-07T12:38:07.000Z</time>
      </trkpt>
      <trkpt lat="45.94842" lon="6.53324">
        <ele>1953.5999755859</ele>
        <time>2015-02-07T12:38:09.000Z</time>
      </trkpt>
      <trkpt lat="45.9484" lon="6.53324">
        <ele>1954.1999511719</ele>
        <time>2015-02-07T12:38:12.000Z</time>
      </trkpt>
      <trkpt lat="45.94837" lon="6.53324">
        <ele>1954.5999755859</ele>
        <time>2015-02-07T12:38:14.000Z</time>
      </trkpt>
      <trkpt lat="45.94834" lon="6.53323">
        <ele>1955.8000488281</ele>
        <time>2015-02-07T12:38:18.000Z</time>
      </trkpt>
      <trkpt lat="45.94833" lon="6.53324">
        <ele>1955.8000488281</ele>
        <time>2015-02-07T12:38:19.000Z</time>
      </trkpt>
      <trkpt lat="45.94831" lon="6.53326">
        <ele>1956.5999755859</ele>
        <time>2015-02-07T12:38:24.000Z</time>
      </trkpt>
      <trkpt lat="45.9483" lon="6.53326">
        <ele>1956.8000488281</ele>
        <time>2015-02-07T12:38:27.000Z</time>
      </trkpt>
      <trkpt lat="45.94828" lon="6.53328">
        <ele>1956.8000488281</ele>
        <time>2015-02-07T12:38:29.000Z</time>
      </trkpt>
      <trkpt lat="45.94826" lon="6.5333">
        <ele>1957.8000488281</ele>
        <time>2015-02-07T12:38:34.000Z</time>
      </trkpt>
      <trkpt lat="45.94826" lon="6.5333">
        <ele>1958</ele>
        <time>2015-02-07T12:38:35.000Z</time>
      </trkpt>
      <trkpt lat="45.94822" lon="6.53331">
        <ele>1959.1999511719</ele>
        <time>2015-02-07T12:38:39.000Z</time>
      </trkpt>
      <trkpt lat="45.94822" lon="6.53331">
        <ele>1959.4000244141</ele>
        <time>2015-02-07T12:38:40.000Z</time>
      </trkpt>
      <trkpt lat="45.94821" lon="6.53331">
        <ele>1959.8000488281</ele>
        <time>2015-02-07T12:38:43.000Z</time>
      </trkpt>
      <trkpt lat="45.9482" lon="6.53332">
        <ele>1960.1999511719</ele>
        <time>2015-02-07T12:38:45.000Z</time>
      </trkpt>
      <trkpt lat="45.94818" lon="6.53332">
        <ele>1960.4000244141</ele>
        <time>2015-02-07T12:38:46.000Z</time>
      </trkpt>
      <trkpt lat="45.94818" lon="6.53332">
        <ele>1960.8000488281</ele>
        <time>2015-02-07T12:38:52.000Z</time>
      </trkpt>
      <trkpt lat="45.94821" lon="6.53335">
        <ele>1961</ele>
        <time>2015-02-07T12:38:56.000Z</time>
      </trkpt>
      <trkpt lat="45.94821" lon="6.53336">
        <ele>1961.1999511719</ele>
        <time>2015-02-07T12:38:58.000Z</time>
      </trkpt>
      <trkpt lat="45.94822" lon="6.53337">
        <ele>1961.1999511719</ele>
        <time>2015-02-07T12:38:59.000Z</time>
      </trkpt>
      <trkpt lat="45.94825" lon="6.5334">
        <ele>1962.1999511719</ele>
        <time>2015-02-07T12:39:04.000Z</time>
      </trkpt>
      <trkpt lat="45.94825" lon="6.5334">
        <ele>1962.4000244141</ele>
        <time>2015-02-07T12:39:05.000Z</time>
      </trkpt>
      <trkpt lat="45.9483" lon="6.53344">
        <ele>1963.4000244141</ele>
        <time>2015-02-07T12:39:10.000Z</time>
      </trkpt>
      <trkpt lat="45.94831" lon="6.53345">
        <ele>1963.5999755859</ele>
        <time>2015-02-07T12:39:11.000Z</time>
      </trkpt>
      <trkpt lat="45.94833" lon="6.53347">
        <ele>1964.5999755859</ele>
        <time>2015-02-07T12:39:16.000Z</time>
      </trkpt>
      <trkpt lat="45.94835" lon="6.53351">
        <ele>1965.4000244141</ele>
        <time>2015-02-07T12:39:20.000Z</time>
      </trkpt>
      <trkpt lat="45.94838" lon="6.53352">
        <ele>1965.5999755859</ele>
        <time>2015-02-07T12:39:22.000Z</time>
      </trkpt>
      <trkpt lat="45.9484" lon="6.53353">
        <ele>1966.4000244141</ele>
        <time>2015-02-07T12:39:26.000Z</time>
      </trkpt>
      <trkpt lat="45.94841" lon="6.53353">
        <ele>1966.8000488281</ele>
        <time>2015-02-07T12:39:27.000Z</time>
      </trkpt>
      <trkpt lat="45.94844" lon="6.53357">
        <ele>1967.5999755859</ele>
        <time>2015-02-07T12:39:32.000Z</time>
      </trkpt>
      <trkpt lat="45.94845" lon="6.5336">
        <ele>1967.8000488281</ele>
        <time>2015-02-07T12:39:35.000Z</time>
      </trkpt>
      <trkpt lat="45.94847" lon="6.53362">
        <ele>1968.1999511719</ele>
        <time>2015-02-07T12:39:38.000Z</time>
      </trkpt>
      <trkpt lat="45.94848" lon="6.53365">
        <ele>1968.8000488281</ele>
        <time>2015-02-07T12:39:42.000Z</time>
      </trkpt>
      <trkpt lat="45.94848" lon="6.53366">
        <ele>1969</ele>
        <time>2015-02-07T12:39:44.000Z</time>
      </trkpt>
      <trkpt lat="45.94849" lon="6.53367">
        <ele>1969.8000488281</ele>
        <time>2015-02-07T12:39:49.000Z</time>
      </trkpt>
      <trkpt lat="45.94848" lon="6.53366">
        <ele>1970</ele>
        <time>2015-02-07T12:39:50.000Z</time>
      </trkpt>
      <trkpt lat="45.94848" lon="6.53366">
        <ele>1971.1999511719</ele>
        <time>2015-02-07T12:39:52.000Z</time>
      </trkpt>
      <trkpt lat="45.94845" lon="6.53364">
        <ele>1972</ele>
        <time>2015-02-07T12:39:56.000Z</time>
      </trkpt>
      <trkpt lat="45.94842" lon="6.53362">
        <ele>1972</ele>
        <time>2015-02-07T12:40:01.000Z</time>
      </trkpt>
      <trkpt lat="45.94842" lon="6.53362">
        <ele>1972.4000244141</ele>
        <time>2015-02-07T12:40:03.000Z</time>
      </trkpt>
      <trkpt lat="45.9484" lon="6.53363">
        <ele>1973</ele>
        <time>2015-02-07T12:40:06.000Z</time>
      </trkpt>
      <trkpt lat="45.9484" lon="6.53364">
        <ele>1973.4000244141</ele>
        <time>2015-02-07T12:40:07.000Z</time>
      </trkpt>
      <trkpt lat="45.94841" lon="6.53371">
        <ele>1973.8000488281</ele>
        <time>2015-02-07T12:40:11.000Z</time>
      </trkpt>
      <trkpt lat="45.94842" lon="6.53375">
        <ele>1974.1999511719</ele>
        <time>2015-02-07T12:40:16.000Z</time>
      </trkpt>
      <trkpt lat="45.94843" lon="6.53376">
        <ele>1974.5999755859</ele>
        <time>2015-02-07T12:40:18.000Z</time>
      </trkpt>
      <trkpt lat="45.94843" lon="6.5338">
        <ele>1975.4000244141</ele>
        <time>2015-02-07T12:40:22.000Z</time>
      </trkpt>
      <trkpt lat="45.94843" lon="6.5338">
        <ele>1975.8000488281</ele>
        <time>2015-02-07T12:40:24.000Z</time>
      </trkpt>
      <trkpt lat="45.94841" lon="6.5338">
        <ele>1977</ele>
        <time>2015-02-07T12:40:28.000Z</time>
      </trkpt>
      <trkpt lat="45.94839" lon="6.5338">
        <ele>1978</ele>
        <time>2015-02-07T12:40:34.000Z</time>
      </trkpt>
      <trkpt lat="45.94838" lon="6.5338">
        <ele>1978</ele>
        <time>2015-02-07T12:40:35.000Z</time>
      </trkpt>
      <trkpt lat="45.94835" lon="6.5338">
        <ele>1978.4000244141</ele>
        <time>2015-02-07T12:40:37.000Z</time>
      </trkpt>
      <trkpt lat="45.94833" lon="6.5338">
        <ele>1978.8000488281</ele>
        <time>2015-02-07T12:40:39.000Z</time>
      </trkpt>
      <trkpt lat="45.94834" lon="6.5338">
        <ele>1979.1999511719</ele>
        <time>2015-02-07T12:40:40.000Z</time>
      </trkpt>
      <trkpt lat="45.9483" lon="6.5338">
        <ele>1979.8000488281</ele>
        <time>2015-02-07T12:40:44.000Z</time>
      </trkpt>
      <trkpt lat="45.9483" lon="6.53381">
        <ele>1980.4000244141</ele>
        <time>2015-02-07T12:40:46.000Z</time>
      </trkpt>
      <trkpt lat="45.9483" lon="6.53381">
        <ele>1981</ele>
        <time>2015-02-07T12:40:50.000Z</time>
      </trkpt>
      <trkpt lat="45.94832" lon="6.53383">
        <ele>1981</ele>
        <time>2015-02-07T12:40:55.000Z</time>
      </trkpt>
      <trkpt lat="45.94834" lon="6.53387">
        <ele>1981</ele>
        <time>2015-02-07T12:40:59.000Z</time>
      </trkpt>
      <trkpt lat="45.94835" lon="6.5339">
        <ele>1981.4000244141</ele>
        <time>2015-02-07T12:41:01.000Z</time>
      </trkpt>
      <trkpt lat="45.94836" lon="6.5339">
        <ele>1982</ele>
        <time>2015-02-07T12:41:03.000Z</time>
      </trkpt>
      <trkpt lat="45.94837" lon="6.53392">
        <ele>1982.5999755859</ele>
        <time>2015-02-07T12:41:05.000Z</time>
      </trkpt>
      <trkpt lat="45.9484" lon="6.53395">
        <ele>1983.1999511719</ele>
        <time>2015-02-07T12:41:09.000Z</time>
      </trkpt>
      <trkpt lat="45.9484" lon="6.53396">
        <ele>1983.5999755859</ele>
        <time>2015-02-07T12:41:12.000Z</time>
      </trkpt>
      <trkpt lat="45.94842" lon="6.534">
        <ele>1984</ele>
        <time>2015-02-07T12:41:14.000Z</time>
      </trkpt>
      <trkpt lat="45.94845" lon="6.53406">
        <ele>1984.8000488281</ele>
        <time>2015-02-07T12:41:19.000Z</time>
      </trkpt>
      <trkpt lat="45.94846" lon="6.53408">
        <ele>1985.4000244141</ele>
        <time>2015-02-07T12:41:23.000Z</time>
      </trkpt>
      <trkpt lat="45.94847" lon="6.53411">
        <ele>1985.8000488281</ele>
        <time>2015-02-07T12:41:26.000Z</time>
      </trkpt>
      <trkpt lat="45.94847" lon="6.53412">
        <ele>1986.5999755859</ele>
        <time>2015-02-07T12:41:29.000Z</time>
      </trkpt>
      <trkpt lat="45.94847" lon="6.53415">
        <ele>1987</ele>
        <time>2015-02-07T12:41:33.000Z</time>
      </trkpt>
      <trkpt lat="45.94847" lon="6.53415">
        <ele>1987.4000244141</ele>
        <time>2015-02-07T12:41:34.000Z</time>
      </trkpt>
      <trkpt lat="45.94847" lon="6.53414">
        <ele>1988.1999511719</ele>
        <time>2015-02-07T12:41:36.000Z</time>
      </trkpt>
      <trkpt lat="45.94845" lon="6.53413">
        <ele>1989.1999511719</ele>
        <time>2015-02-07T12:41:39.000Z</time>
      </trkpt>
      <trkpt lat="45.94845" lon="6.53412">
        <ele>1989.1999511719</ele>
        <time>2015-02-07T12:41:40.000Z</time>
      </trkpt>
      <trkpt lat="45.94838" lon="6.53408">
        <ele>1989.1999511719</ele>
        <time>2015-02-07T12:41:46.000Z</time>
      </trkpt>
      <trkpt lat="45.94837" lon="6.53407">
        <ele>1989.1999511719</ele>
        <time>2015-02-07T12:41:47.000Z</time>
      </trkpt>
      <trkpt lat="45.94831" lon="6.53401">
        <ele>1989.1999511719</ele>
        <time>2015-02-07T12:41:51.000Z</time>
      </trkpt>
      <trkpt lat="45.94827" lon="6.534">
        <ele>1988.4000244141</ele>
        <time>2015-02-07T12:41:55.000Z</time>
      </trkpt>
      <trkpt lat="45.94826" lon="6.53401">
        <ele>1988.4000244141</ele>
        <time>2015-02-07T12:41:56.000Z</time>
      </trkpt>
      <trkpt lat="45.94825" lon="6.53404">
        <ele>1988</ele>
        <time>2015-02-07T12:41:58.000Z</time>
      </trkpt>
      <trkpt lat="45.94825" lon="6.53407">
        <ele>1987.8000488281</ele>
        <time>2015-02-07T12:42:01.000Z</time>
      </trkpt>
      <trkpt lat="45.94824" lon="6.53413">
        <ele>1988.5999755859</ele>
        <time>2015-02-07T12:42:07.000Z</time>
      </trkpt>
      <trkpt lat="45.94823" lon="6.53417">
        <ele>1989</ele>
        <time>2015-02-07T12:42:10.000Z</time>
      </trkpt>
      <trkpt lat="45.94823" lon="6.5342">
        <ele>1989.8000488281</ele>
        <time>2015-02-07T12:42:13.000Z</time>
      </trkpt>
      <trkpt lat="45.94822" lon="6.5342">
        <ele>1990.1999511719</ele>
        <time>2015-02-07T12:42:14.000Z</time>
      </trkpt>
      <trkpt lat="45.9482" lon="6.53424">
        <ele>1991</ele>
        <time>2015-02-07T12:42:18.000Z</time>
      </trkpt>
      <trkpt lat="45.9482" lon="6.53424">
        <ele>1991.1999511719</ele>
        <time>2015-02-07T12:42:19.000Z</time>
      </trkpt>
      <trkpt lat="45.94819" lon="6.53425">
        <ele>1991.8000488281</ele>
        <time>2015-02-07T12:42:22.000Z</time>
      </trkpt>
      <trkpt lat="45.94817" lon="6.5343">
        <ele>1992</ele>
        <time>2015-02-07T12:42:25.000Z</time>
      </trkpt>
      <trkpt lat="45.94817" lon="6.5343">
        <ele>1992</ele>
        <time>2015-02-07T12:42:26.000Z</time>
      </trkpt>
      <trkpt lat="45.94817" lon="6.53432">
        <ele>1992.4000244141</ele>
        <time>2015-02-07T12:42:28.000Z</time>
      </trkpt>
      <trkpt lat="45.94817" lon="6.53436">
        <ele>1993</ele>
        <time>2015-02-07T12:42:31.000Z</time>
      </trkpt>
      <trkpt lat="45.94818" lon="6.53441">
        <ele>1993.5999755859</ele>
        <time>2015-02-07T12:42:35.000Z</time>
      </trkpt>
      <trkpt lat="45.94819" lon="6.53447">
        <ele>1995</ele>
        <time>2015-02-07T12:42:40.000Z</time>
      </trkpt>
      <trkpt lat="45.94819" lon="6.53448">
        <ele>1995</ele>
        <time>2015-02-07T12:42:41.000Z</time>
      </trkpt>
      <trkpt lat="45.94821" lon="6.53453">
        <ele>1995.8000488281</ele>
        <time>2015-02-07T12:42:47.000Z</time>
      </trkpt>
      <trkpt lat="45.94821" lon="6.53452">
        <ele>1996.1999511719</ele>
        <time>2015-02-07T12:42:49.000Z</time>
      </trkpt>
      <trkpt lat="45.94821" lon="6.53452">
        <ele>1997.4000244141</ele>
        <time>2015-02-07T12:42:52.000Z</time>
      </trkpt>
      <trkpt lat="45.94821" lon="6.53452">
        <ele>1997.8000488281</ele>
        <time>2015-02-07T12:42:53.000Z</time>
      </trkpt>
      <trkpt lat="45.94818" lon="6.5345">
        <ele>1998</ele>
        <time>2015-02-07T12:42:55.000Z</time>
      </trkpt>
      <trkpt lat="45.94816" lon="6.53449">
        <ele>1998</ele>
        <time>2015-02-07T12:42:57.000Z</time>
      </trkpt>
      <trkpt lat="45.94812" lon="6.53448">
        <ele>1998.1999511719</ele>
        <time>2015-02-07T12:43:02.000Z</time>
      </trkpt>
      <trkpt lat="45.94811" lon="6.53447">
        <ele>1999</ele>
        <time>2015-02-07T12:43:04.000Z</time>
      </trkpt>
      <trkpt lat="45.9481" lon="6.53445">
        <ele>1999.1999511719</ele>
        <time>2015-02-07T12:43:06.000Z</time>
      </trkpt>
      <trkpt lat="45.94807" lon="6.53444">
        <ele>2000.1999511719</ele>
        <time>2015-02-07T12:43:11.000Z</time>
      </trkpt>
      <trkpt lat="45.94807" lon="6.53444">
        <ele>2000.4000244141</ele>
        <time>2015-02-07T12:43:12.000Z</time>
      </trkpt>
      <trkpt lat="45.94804" lon="6.53444">
        <ele>2001.1999511719</ele>
        <time>2015-02-07T12:43:17.000Z</time>
      </trkpt>
      <trkpt lat="45.94802" lon="6.53445">
        <ele>2001.4000244141</ele>
        <time>2015-02-07T12:43:18.000Z</time>
      </trkpt>
      <trkpt lat="45.948" lon="6.53446">
        <ele>2002.1999511719</ele>
        <time>2015-02-07T12:43:23.000Z</time>
      </trkpt>
      <trkpt lat="45.948" lon="6.53446">
        <ele>2002.4000244141</ele>
        <time>2015-02-07T12:43:24.000Z</time>
      </trkpt>
      <trkpt lat="45.94798" lon="6.53448">
        <ele>2003.5999755859</ele>
        <time>2015-02-07T12:43:28.000Z</time>
      </trkpt>
      <trkpt lat="45.94799" lon="6.53448">
        <ele>2003.8000488281</ele>
        <time>2015-02-07T12:43:29.000Z</time>
      </trkpt>
      <trkpt lat="45.94796" lon="6.53452">
        <ele>2004.5999755859</ele>
        <time>2015-02-07T12:43:34.000Z</time>
      </trkpt>
      <trkpt lat="45.94794" lon="6.53454">
        <ele>2005.8000488281</ele>
        <time>2015-02-07T12:43:39.000Z</time>
      </trkpt>
      <trkpt lat="45.94792" lon="6.53457">
        <ele>2006.1999511719</ele>
        <time>2015-02-07T12:43:43.000Z</time>
      </trkpt>
      <trkpt lat="45.94791" lon="6.53459">
        <ele>2006.8000488281</ele>
        <time>2015-02-07T12:43:45.000Z</time>
      </trkpt>
      <trkpt lat="45.9479" lon="6.53463">
        <ele>2007.5999755859</ele>
        <time>2015-02-07T12:43:49.000Z</time>
      </trkpt>
      <trkpt lat="45.9479" lon="6.53463">
        <ele>2007.8000488281</ele>
        <time>2015-02-07T12:43:50.000Z</time>
      </trkpt>
      <trkpt lat="45.9479" lon="6.53468">
        <ele>2008.5999755859</ele>
        <time>2015-02-07T12:43:55.000Z</time>
      </trkpt>
      <trkpt lat="45.94791" lon="6.5347">
        <ele>2009</ele>
        <time>2015-02-07T12:43:57.000Z</time>
      </trkpt>
      <trkpt lat="45.94792" lon="6.53472">
        <ele>2009.4000244141</ele>
        <time>2015-02-07T12:43:59.000Z</time>
      </trkpt>
      <trkpt lat="45.94794" lon="6.53476">
        <ele>2010</ele>
        <time>2015-02-07T12:44:03.000Z</time>
      </trkpt>
      <trkpt lat="45.94795" lon="6.53478">
        <ele>2010.1999511719</ele>
        <time>2015-02-07T12:44:05.000Z</time>
      </trkpt>
      <trkpt lat="45.94797" lon="6.53481">
        <ele>2011.1999511719</ele>
        <time>2015-02-07T12:44:10.000Z</time>
      </trkpt>
      <trkpt lat="45.94797" lon="6.53481">
        <ele>2011.4000244141</ele>
        <time>2015-02-07T12:44:11.000Z</time>
      </trkpt>
      <trkpt lat="45.94798" lon="6.53483">
        <ele>2012.1999511719</ele>
        <time>2015-02-07T12:44:17.000Z</time>
      </trkpt>
      <trkpt lat="45.94798" lon="6.53484">
        <ele>2012.4000244141</ele>
        <time>2015-02-07T12:44:18.000Z</time>
      </trkpt>
      <trkpt lat="45.94801" lon="6.53489">
        <ele>2013.5999755859</ele>
        <time>2015-02-07T12:44:23.000Z</time>
      </trkpt>
      <trkpt lat="45.94803" lon="6.53494">
        <ele>2014.5999755859</ele>
        <time>2015-02-07T12:44:30.000Z</time>
      </trkpt>
      <trkpt lat="45.94803" lon="6.53495">
        <ele>2014.8000488281</ele>
        <time>2015-02-07T12:44:31.000Z</time>
      </trkpt>
      <trkpt lat="45.94803" lon="6.53499">
        <ele>2015.8000488281</ele>
        <time>2015-02-07T12:44:35.000Z</time>
      </trkpt>
      <trkpt lat="45.94802" lon="6.535">
        <ele>2016.1999511719</ele>
        <time>2015-02-07T12:44:37.000Z</time>
      </trkpt>
      <trkpt lat="45.94802" lon="6.53502">
        <ele>2017</ele>
        <time>2015-02-07T12:44:40.000Z</time>
      </trkpt>
      <trkpt lat="45.94801" lon="6.53505">
        <ele>2018</ele>
        <time>2015-02-07T12:44:44.000Z</time>
      </trkpt>
      <trkpt lat="45.94799" lon="6.5351">
        <ele>2019.1999511719</ele>
        <time>2015-02-07T12:44:49.000Z</time>
      </trkpt>
      <trkpt lat="45.94799" lon="6.5351">
        <ele>2019.1999511719</ele>
        <time>2015-02-07T12:44:50.000Z</time>
      </trkpt>
      <trkpt lat="45.94799" lon="6.53513">
        <ele>2020.1999511719</ele>
        <time>2015-02-07T12:44:55.000Z</time>
      </trkpt>
      <trkpt lat="45.948" lon="6.53516">
        <ele>2021</ele>
        <time>2015-02-07T12:45:01.000Z</time>
      </trkpt>
      <trkpt lat="45.948" lon="6.53519">
        <ele>2021.5999755859</ele>
        <time>2015-02-07T12:45:04.000Z</time>
      </trkpt>
      <trkpt lat="45.948" lon="6.53523">
        <ele>2022.4000244141</ele>
        <time>2015-02-07T12:45:08.000Z</time>
      </trkpt>
      <trkpt lat="45.948" lon="6.53525">
        <ele>2022.5999755859</ele>
        <time>2015-02-07T12:45:10.000Z</time>
      </trkpt>
      <trkpt lat="45.948" lon="6.53527">
        <ele>2023</ele>
        <time>2015-02-07T12:45:13.000Z</time>
      </trkpt>
      <trkpt lat="45.94802" lon="6.53528">
        <ele>2023.8000488281</ele>
        <time>2015-02-07T12:45:18.000Z</time>
      </trkpt>
      <trkpt lat="45.94805" lon="6.53529">
        <ele>2025</ele>
        <time>2015-02-07T12:45:23.000Z</time>
      </trkpt>
      <trkpt lat="45.94807" lon="6.53529">
        <ele>2025.4000244141</ele>
        <time>2015-02-07T12:45:25.000Z</time>
      </trkpt>
      <trkpt lat="45.94809" lon="6.5353">
        <ele>2026</ele>
        <time>2015-02-07T12:45:30.000Z</time>
      </trkpt>
      <trkpt lat="45.94809" lon="6.5353">
        <ele>2026.1999511719</ele>
        <time>2015-02-07T12:45:31.000Z</time>
      </trkpt>
      <trkpt lat="45.94812" lon="6.53531">
        <ele>2027</ele>
        <time>2015-02-07T12:45:36.000Z</time>
      </trkpt>
      <trkpt lat="45.94812" lon="6.53532">
        <ele>2027.1999511719</ele>
        <time>2015-02-07T12:45:37.000Z</time>
      </trkpt>
      <trkpt lat="45.94814" lon="6.53532">
        <ele>2027.5999755859</ele>
        <time>2015-02-07T12:45:41.000Z</time>
      </trkpt>
      <trkpt lat="45.94814" lon="6.53533">
        <ele>2028.1999511719</ele>
        <time>2015-02-07T12:45:45.000Z</time>
      </trkpt>
      <trkpt lat="45.94817" lon="6.53538">
        <ele>2028.8000488281</ele>
        <time>2015-02-07T12:45:48.000Z</time>
      </trkpt>
      <trkpt lat="45.94818" lon="6.5354">
        <ele>2029.1999511719</ele>
        <time>2015-02-07T12:45:50.000Z</time>
      </trkpt>
      <trkpt lat="45.94819" lon="6.53542">
        <ele>2030</ele>
        <time>2015-02-07T12:45:53.000Z</time>
      </trkpt>
      <trkpt lat="45.94819" lon="6.53543">
        <ele>2030.1999511719</ele>
        <time>2015-02-07T12:45:54.000Z</time>
      </trkpt>
      <trkpt lat="45.94819" lon="6.53546">
        <ele>2030.8000488281</ele>
        <time>2015-02-07T12:45:58.000Z</time>
      </trkpt>
      <trkpt lat="45.9482" lon="6.53549">
        <ele>2031.4000244141</ele>
        <time>2015-02-07T12:46:01.000Z</time>
      </trkpt>
      <trkpt lat="45.9482" lon="6.53552">
        <ele>2032</ele>
        <time>2015-02-07T12:46:04.000Z</time>
      </trkpt>
      <trkpt lat="45.94822" lon="6.53556">
        <ele>2032.5999755859</ele>
        <time>2015-02-07T12:46:08.000Z</time>
      </trkpt>
      <trkpt lat="45.94822" lon="6.53557">
        <ele>2032.5999755859</ele>
        <time>2015-02-07T12:46:09.000Z</time>
      </trkpt>
      <trkpt lat="45.94824" lon="6.5356">
        <ele>2033.4000244141</ele>
        <time>2015-02-07T12:46:13.000Z</time>
      </trkpt>
      <trkpt lat="45.94825" lon="6.53561">
        <ele>2033.5999755859</ele>
        <time>2015-02-07T12:46:15.000Z</time>
      </trkpt>
      <trkpt lat="45.94827" lon="6.53563">
        <ele>2034.4000244141</ele>
        <time>2015-02-07T12:46:19.000Z</time>
      </trkpt>
      <trkpt lat="45.94827" lon="6.53563">
        <ele>2034.8000488281</ele>
        <time>2015-02-07T12:46:20.000Z</time>
      </trkpt>
      <trkpt lat="45.94828" lon="6.53564">
        <ele>2035.8000488281</ele>
        <time>2015-02-07T12:46:26.000Z</time>
      </trkpt>
      <trkpt lat="45.94828" lon="6.53564">
        <ele>2035.8000488281</ele>
        <time>2015-02-07T12:46:27.000Z</time>
      </trkpt>
      <trkpt lat="45.9483" lon="6.53568">
        <ele>2035.8000488281</ele>
        <time>2015-02-07T12:46:33.000Z</time>
      </trkpt>
      <trkpt lat="45.94833" lon="6.53575">
        <ele>2036.8000488281</ele>
        <time>2015-02-07T12:46:39.000Z</time>
      </trkpt>
      <trkpt lat="45.94833" lon="6.53576">
        <ele>2037.1999511719</ele>
        <time>2015-02-07T12:46:40.000Z</time>
      </trkpt>
      <trkpt lat="45.94835" lon="6.5358">
        <ele>2038.1999511719</ele>
        <time>2015-02-07T12:46:45.000Z</time>
      </trkpt>
      <trkpt lat="45.94838" lon="6.53583">
        <ele>2039</ele>
        <time>2015-02-07T12:46:51.000Z</time>
      </trkpt>
      <trkpt lat="45.94839" lon="6.53583">
        <ele>2039.1999511719</ele>
        <time>2015-02-07T12:46:52.000Z</time>
      </trkpt>
      <trkpt lat="45.94841" lon="6.53587">
        <ele>2040.1999511719</ele>
        <time>2015-02-07T12:46:56.000Z</time>
      </trkpt>
      <trkpt lat="45.94842" lon="6.53588">
        <ele>2040.1999511719</ele>
        <time>2015-02-07T12:46:57.000Z</time>
      </trkpt>
      <trkpt lat="45.94844" lon="6.5359">
        <ele>2040.8000488281</ele>
        <time>2015-02-07T12:47:01.000Z</time>
      </trkpt>
      <trkpt lat="45.94844" lon="6.5359">
        <ele>2041.1999511719</ele>
        <time>2015-02-07T12:47:03.000Z</time>
      </trkpt>
      <trkpt lat="45.94846" lon="6.53592">
        <ele>2042</ele>
        <time>2015-02-07T12:47:07.000Z</time>
      </trkpt>
      <trkpt lat="45.94847" lon="6.53593">
        <ele>2042.4000244141</ele>
        <time>2015-02-07T12:47:09.000Z</time>
      </trkpt>
      <trkpt lat="45.94848" lon="6.53594">
        <ele>2042.8000488281</ele>
        <time>2015-02-07T12:47:12.000Z</time>
      </trkpt>
      <trkpt lat="45.9485" lon="6.53598">
        <ele>2043.5999755859</ele>
        <time>2015-02-07T12:47:17.000Z</time>
      </trkpt>
      <trkpt lat="45.94851" lon="6.53601">
        <ele>2044.5999755859</ele>
        <time>2015-02-07T12:47:22.000Z</time>
      </trkpt>
      <trkpt lat="45.94853" lon="6.53605">
        <ele>2045.8000488281</ele>
        <time>2015-02-07T12:47:28.000Z</time>
      </trkpt>
      <trkpt lat="45.94854" lon="6.53603">
        <ele>2046.8000488281</ele>
        <time>2015-02-07T12:47:31.000Z</time>
      </trkpt>
      <trkpt lat="45.94856" lon="6.53602">
        <ele>2047.5999755859</ele>
        <time>2015-02-07T12:47:34.000Z</time>
      </trkpt>
      <trkpt lat="45.94858" lon="6.536">
        <ele>2047.8000488281</ele>
        <time>2015-02-07T12:47:36.000Z</time>
      </trkpt>
      <trkpt lat="45.9486" lon="6.53598">
        <ele>2048.3999023438</ele>
        <time>2015-02-07T12:47:40.000Z</time>
      </trkpt>
      <trkpt lat="45.94862" lon="6.53598">
        <ele>2049</ele>
        <time>2015-02-07T12:47:43.000Z</time>
      </trkpt>
      <trkpt lat="45.94863" lon="6.53597">
        <ele>2049.3999023438</ele>
        <time>2015-02-07T12:47:45.000Z</time>
      </trkpt>
      <trkpt lat="45.94864" lon="6.53596">
        <ele>2050</ele>
        <time>2015-02-07T12:47:49.000Z</time>
      </trkpt>
      <trkpt lat="45.94865" lon="6.53595">
        <ele>2050.1999511719</ele>
        <time>2015-02-07T12:47:51.000Z</time>
      </trkpt>
      <trkpt lat="45.94868" lon="6.53593">
        <ele>2051</ele>
        <time>2015-02-07T12:47:56.000Z</time>
      </trkpt>
      <trkpt lat="45.94869" lon="6.53593">
        <ele>2051.3999023438</ele>
        <time>2015-02-07T12:47:59.000Z</time>
      </trkpt>
      <trkpt lat="45.94872" lon="6.53594">
        <ele>2052</ele>
        <time>2015-02-07T12:48:04.000Z</time>
      </trkpt>
      <trkpt lat="45.94872" lon="6.53596">
        <ele>2052.1999511719</ele>
        <time>2015-02-07T12:48:06.000Z</time>
      </trkpt>
      <trkpt lat="45.94873" lon="6.536">
        <ele>2053</ele>
        <time>2015-02-07T12:48:10.000Z</time>
      </trkpt>
      <trkpt lat="45.94875" lon="6.53602">
        <ele>2053.1999511719</ele>
        <time>2015-02-07T12:48:14.000Z</time>
      </trkpt>
      <trkpt lat="45.94875" lon="6.53602">
        <ele>2053.3999023438</ele>
        <time>2015-02-07T12:48:15.000Z</time>
      </trkpt>
      <trkpt lat="45.94876" lon="6.53605">
        <ele>2054.3999023438</ele>
        <time>2015-02-07T12:48:18.000Z</time>
      </trkpt>
      <trkpt lat="45.94876" lon="6.53608">
        <ele>2054.8000488281</ele>
        <time>2015-02-07T12:48:21.000Z</time>
      </trkpt>
      <trkpt lat="45.94876" lon="6.5361">
        <ele>2055.6000976562</ele>
        <time>2015-02-07T12:48:24.000Z</time>
      </trkpt>
      <trkpt lat="45.94876" lon="6.53612">
        <ele>2056</ele>
        <time>2015-02-07T12:48:26.000Z</time>
      </trkpt>
      <trkpt lat="45.94875" lon="6.53615">
        <ele>2056.8000488281</ele>
        <time>2015-02-07T12:48:29.000Z</time>
      </trkpt>
      <trkpt lat="45.94874" lon="6.53618">
        <ele>2057.3999023438</ele>
        <time>2015-02-07T12:48:32.000Z</time>
      </trkpt>
      <trkpt lat="45.94874" lon="6.53619">
        <ele>2057.8000488281</ele>
        <time>2015-02-07T12:48:35.000Z</time>
      </trkpt>
      <trkpt lat="45.94874" lon="6.53621">
        <ele>2058.1999511719</ele>
        <time>2015-02-07T12:48:37.000Z</time>
      </trkpt>
      <trkpt lat="45.94873" lon="6.53624">
        <ele>2059</ele>
        <time>2015-02-07T12:48:40.000Z</time>
      </trkpt>
      <trkpt lat="45.94872" lon="6.53626">
        <ele>2059.3999023438</ele>
        <time>2015-02-07T12:48:42.000Z</time>
      </trkpt>
      <trkpt lat="45.94872" lon="6.53629">
        <ele>2060</ele>
        <time>2015-02-07T12:48:47.000Z</time>
      </trkpt>
      <trkpt lat="45.94872" lon="6.53629">
        <ele>2060.1999511719</ele>
        <time>2015-02-07T12:48:48.000Z</time>
      </trkpt>
      <trkpt lat="45.94871" lon="6.53633">
        <ele>2061</ele>
        <time>2015-02-07T12:48:52.000Z</time>
      </trkpt>
      <trkpt lat="45.94871" lon="6.53633">
        <ele>2061.3999023438</ele>
        <time>2015-02-07T12:48:53.000Z</time>
      </trkpt>
      <trkpt lat="45.9487" lon="6.53635">
        <ele>2062.1999511719</ele>
        <time>2015-02-07T12:48:58.000Z</time>
      </trkpt>
      <trkpt lat="45.9487" lon="6.53635">
        <ele>2063.1999511719</ele>
        <time>2015-02-07T12:49:04.000Z</time>
      </trkpt>
      <trkpt lat="45.9487" lon="6.53635">
        <ele>2063.1999511719</ele>
        <time>2015-02-07T12:49:06.000Z</time>
      </trkpt>
      <trkpt lat="45.94875" lon="6.53637">
        <ele>2064</ele>
        <time>2015-02-07T12:49:13.000Z</time>
      </trkpt>
      <trkpt lat="45.94877" lon="6.53637">
        <ele>2064.1999511719</ele>
        <time>2015-02-07T12:49:15.000Z</time>
      </trkpt>
      <trkpt lat="45.94882" lon="6.53638">
        <ele>2065.1999511719</ele>
        <time>2015-02-07T12:49:20.000Z</time>
      </trkpt>
      <trkpt lat="45.94884" lon="6.53639">
        <ele>2065.3999023438</ele>
        <time>2015-02-07T12:49:21.000Z</time>
      </trkpt>
      <trkpt lat="45.94886" lon="6.53638">
        <ele>2066</ele>
        <time>2015-02-07T12:49:25.000Z</time>
      </trkpt>
      <trkpt lat="45.94889" lon="6.53638">
        <ele>2066.8000488281</ele>
        <time>2015-02-07T12:49:28.000Z</time>
      </trkpt>
      <trkpt lat="45.94891" lon="6.53638">
        <ele>2067.3999023438</ele>
        <time>2015-02-07T12:49:32.000Z</time>
      </trkpt>
      <trkpt lat="45.94894" lon="6.53637">
        <ele>2067.8000488281</ele>
        <time>2015-02-07T12:49:35.000Z</time>
      </trkpt>
      <trkpt lat="45.94897" lon="6.53635">
        <ele>2068.3999023438</ele>
        <time>2015-02-07T12:49:39.000Z</time>
      </trkpt>
      <trkpt lat="45.94897" lon="6.53635">
        <ele>2069</ele>
        <time>2015-02-07T12:49:41.000Z</time>
      </trkpt>
      <trkpt lat="45.94899" lon="6.53634">
        <ele>2070</ele>
        <time>2015-02-07T12:49:45.000Z</time>
      </trkpt>
      <trkpt lat="45.94899" lon="6.53634">
        <ele>2070.1999511719</ele>
        <time>2015-02-07T12:49:46.000Z</time>
      </trkpt>
      <trkpt lat="45.94899" lon="6.53634">
        <ele>2071.1999511719</ele>
        <time>2015-02-07T12:49:51.000Z</time>
      </trkpt>
      <trkpt lat="45.94899" lon="6.53634">
        <ele>2071.3999023438</ele>
        <time>2015-02-07T12:49:53.000Z</time>
      </trkpt>
      <trkpt lat="45.94899" lon="6.53637">
        <ele>2071.1999511719</ele>
        <time>2015-02-07T12:50:04.000Z</time>
      </trkpt>
      <trkpt lat="45.949" lon="6.53639">
        <ele>2071.6000976562</ele>
        <time>2015-02-07T12:50:11.000Z</time>
      </trkpt>
      <trkpt lat="45.949" lon="6.53639">
        <ele>2071.8000488281</ele>
        <time>2015-02-07T12:50:22.000Z</time>
      </trkpt>
      <trkpt lat="45.949" lon="6.53639">
        <ele>2071.8000488281</ele>
        <time>2015-02-07T12:50:35.000Z</time>
      </trkpt>
      <trkpt lat="45.949" lon="6.53639">
        <ele>2072.3999023438</ele>
        <time>2015-02-07T12:50:45.000Z</time>
      </trkpt>
      <trkpt lat="45.94899" lon="6.53639">
        <ele>2072.3999023438</ele>
        <time>2015-02-07T12:50:48.000Z</time>
      </trkpt>
      <trkpt lat="45.94899" lon="6.53639">
        <ele>2072</ele>
        <time>2015-02-07T12:50:58.000Z</time>
      </trkpt>
      <trkpt lat="45.94899" lon="6.53639">
        <ele>2071.8000488281</ele>
        <time>2015-02-07T12:51:09.000Z</time>
      </trkpt>
      <trkpt lat="45.94899" lon="6.53639">
        <ele>2071.8000488281</ele>
        <time>2015-02-07T12:51:23.000Z</time>
      </trkpt>
      <trkpt lat="45.949" lon="6.53639">
        <ele>2071.8000488281</ele>
        <time>2015-02-07T12:51:39.000Z</time>
      </trkpt>
      <trkpt lat="45.949" lon="6.53639">
        <ele>2071.8000488281</ele>
        <time>2015-02-07T12:51:54.000Z</time>
      </trkpt>
      <trkpt lat="45.949" lon="6.53639">
        <ele>2071.8000488281</ele>
        <time>2015-02-07T12:52:15.000Z</time>
      </trkpt>
      <trkpt lat="45.949" lon="6.53639">
        <ele>2072</ele>
        <time>2015-02-07T12:52:30.000Z</time>
      </trkpt>
      <trkpt lat="45.949" lon="6.53639">
        <ele>2072</ele>
        <time>2015-02-07T12:52:45.000Z</time>
      </trkpt>
      <trkpt lat="45.949" lon="6.53639">
        <ele>2072.1999511719</ele>
        <time>2015-02-07T12:53:06.000Z</time>
      </trkpt>
      <trkpt lat="45.949" lon="6.53639">
        <ele>2072</ele>
        <time>2015-02-07T12:53:15.000Z</time>
      </trkpt>
      <trkpt lat="45.949" lon="6.53639">
        <ele>2072</ele>
        <time>2015-02-07T12:53:30.000Z</time>
      </trkpt>
      <trkpt lat="45.949" lon="6.53639">
        <ele>2072</ele>
        <time>2015-02-07T12:53:38.000Z</time>
      </trkpt>
      <trkpt lat="45.949" lon="6.53639">
        <ele>2072.1999511719</ele>
        <time>2015-02-07T12:53:48.000Z</time>
      </trkpt>
      <trkpt lat="45.949" lon="6.53639">
        <ele>2072.1999511719</ele>
        <time>2015-02-07T12:54:05.000Z</time>
      </trkpt>
      <trkpt lat="45.949" lon="6.53639">
        <ele>2072</ele>
        <time>2015-02-07T12:54:23.000Z</time>
      </trkpt>
      <trkpt lat="45.949" lon="6.53639">
        <ele>2072</ele>
        <time>2015-02-07T12:54:35.000Z</time>
      </trkpt>
      <trkpt lat="45.949" lon="6.53639">
        <ele>2072</ele>
        <time>2015-02-07T12:54:47.000Z</time>
      </trkpt>
      <trkpt lat="45.949" lon="6.53639">
        <ele>2072.1999511719</ele>
        <time>2015-02-07T12:55:04.000Z</time>
      </trkpt>
      <trkpt lat="45.949" lon="6.53639">
        <ele>2072.3999023438</ele>
        <time>2015-02-07T12:55:19.000Z</time>
      </trkpt>
      <trkpt lat="45.949" lon="6.53639">
        <ele>2072.1999511719</ele>
        <time>2015-02-07T12:55:32.000Z</time>
      </trkpt>
      <trkpt lat="45.949" lon="6.53639">
        <ele>2072.3999023438</ele>
        <time>2015-02-07T12:55:50.000Z</time>
      </trkpt>
      <trkpt lat="45.94899" lon="6.53639">
        <ele>2072.1999511719</ele>
        <time>2015-02-07T12:56:07.000Z</time>
      </trkpt>
      <trkpt lat="45.94899" lon="6.53639">
        <ele>2072.1999511719</ele>
        <time>2015-02-07T12:56:08.000Z</time>
      </trkpt>
      <trkpt lat="45.94899" lon="6.53639">
        <ele>2072.3999023438</ele>
        <time>2015-02-07T12:56:28.000Z</time>
      </trkpt>
      <trkpt lat="45.94899" lon="6.53639">
        <ele>2072.1999511719</ele>
        <time>2015-02-07T12:56:45.000Z</time>
      </trkpt>
      <trkpt lat="45.94899" lon="6.53639">
        <ele>2072.3999023438</ele>
        <time>2015-02-07T12:57:03.000Z</time>
      </trkpt>
      <trkpt lat="45.94899" lon="6.53639">
        <ele>2072.3999023438</ele>
        <time>2015-02-07T12:57:21.000Z</time>
      </trkpt>
      <trkpt lat="45.94899" lon="6.5364">
        <ele>2072.3999023438</ele>
        <time>2015-02-07T12:57:32.000Z</time>
      </trkpt>
      <trkpt lat="45.94899" lon="6.5364">
        <ele>2073</ele>
        <time>2015-02-07T12:57:46.000Z</time>
      </trkpt>
      <trkpt lat="45.94899" lon="6.5364">
        <ele>2073</ele>
        <time>2015-02-07T12:58:04.000Z</time>
      </trkpt>
      <trkpt lat="45.949" lon="6.5364">
        <ele>2073.1999511719</ele>
        <time>2015-02-07T12:58:10.000Z</time>
      </trkpt>
      <trkpt lat="45.949" lon="6.5364">
        <ele>2073</ele>
        <time>2015-02-07T12:58:14.000Z</time>
      </trkpt>
      <trkpt lat="45.94897" lon="6.53643">
        <ele>2072.8000488281</ele>
        <time>2015-02-07T12:58:28.000Z</time>
      </trkpt>
      <trkpt lat="45.94894" lon="6.53648">
        <ele>2073.1999511719</ele>
        <time>2015-02-07T12:58:33.000Z</time>
      </trkpt>
      <trkpt lat="45.94893" lon="6.5365">
        <ele>2073.3999023438</ele>
        <time>2015-02-07T12:58:35.000Z</time>
      </trkpt>
      <trkpt lat="45.94889" lon="6.53654">
        <ele>2073.6000976562</ele>
        <time>2015-02-07T12:58:39.000Z</time>
      </trkpt>
      <trkpt lat="45.94886" lon="6.53658">
        <ele>2074.1999511719</ele>
        <time>2015-02-07T12:58:44.000Z</time>
      </trkpt>
      <trkpt lat="45.94883" lon="6.53661">
        <ele>2074.3999023438</ele>
        <time>2015-02-07T12:58:48.000Z</time>
      </trkpt>
      <trkpt lat="45.94883" lon="6.53661">
        <ele>2074.3999023438</ele>
        <time>2015-02-07T12:58:49.000Z</time>
      </trkpt>
      <trkpt lat="45.9488" lon="6.53664">
        <ele>2075.1999511719</ele>
        <time>2015-02-07T12:58:55.000Z</time>
      </trkpt>
      <trkpt lat="45.94879" lon="6.53664">
        <ele>2075.3999023438</ele>
        <time>2015-02-07T12:58:56.000Z</time>
      </trkpt>
      <trkpt lat="45.94877" lon="6.53667">
        <ele>2075.8000488281</ele>
        <time>2015-02-07T12:59:00.000Z</time>
      </trkpt>
      <trkpt lat="45.94875" lon="6.53668">
        <ele>2076.6000976562</ele>
        <time>2015-02-07T12:59:03.000Z</time>
      </trkpt>
      <trkpt lat="45.94873" lon="6.53669">
        <ele>2077</ele>
        <time>2015-02-07T12:59:05.000Z</time>
      </trkpt>
      <trkpt lat="45.94871" lon="6.5367">
        <ele>2077.8000488281</ele>
        <time>2015-02-07T12:59:08.000Z</time>
      </trkpt>
      <trkpt lat="45.9487" lon="6.53671">
        <ele>2077.8000488281</ele>
        <time>2015-02-07T12:59:09.000Z</time>
      </trkpt>
      <trkpt lat="45.94867" lon="6.53672">
        <ele>2078.6000976562</ele>
        <time>2015-02-07T12:59:13.000Z</time>
      </trkpt>
      <trkpt lat="45.94866" lon="6.53672">
        <ele>2078.8000488281</ele>
        <time>2015-02-07T12:59:15.000Z</time>
      </trkpt>
      <trkpt lat="45.94864" lon="6.53673">
        <ele>2079.1999511719</ele>
        <time>2015-02-07T12:59:18.000Z</time>
      </trkpt>
      <trkpt lat="45.94862" lon="6.53675">
        <ele>2080</ele>
        <time>2015-02-07T12:59:21.000Z</time>
      </trkpt>
      <trkpt lat="45.94861" lon="6.53675">
        <ele>2080.1999511719</ele>
        <time>2015-02-07T12:59:24.000Z</time>
      </trkpt>
      <trkpt lat="45.94858" lon="6.53676">
        <ele>2081</ele>
        <time>2015-02-07T12:59:28.000Z</time>
      </trkpt>
      <trkpt lat="45.94857" lon="6.53677">
        <ele>2081.8000488281</ele>
        <time>2015-02-07T12:59:31.000Z</time>
      </trkpt>
      <trkpt lat="45.94855" lon="6.53678">
        <ele>2082.1999511719</ele>
        <time>2015-02-07T12:59:34.000Z</time>
      </trkpt>
      <trkpt lat="45.94852" lon="6.53678">
        <ele>2082.8000488281</ele>
        <time>2015-02-07T12:59:37.000Z</time>
      </trkpt>
      <trkpt lat="45.94851" lon="6.53679">
        <ele>2083.1999511719</ele>
        <time>2015-02-07T12:59:39.000Z</time>
      </trkpt>
      <trkpt lat="45.9485" lon="6.5368">
        <ele>2083.3999023438</ele>
        <time>2015-02-07T12:59:42.000Z</time>
      </trkpt>
      <trkpt lat="45.94848" lon="6.5368">
        <ele>2084.1999511719</ele>
        <time>2015-02-07T12:59:47.000Z</time>
      </trkpt>
      <trkpt lat="45.94848" lon="6.53681">
        <ele>2084.3999023438</ele>
        <time>2015-02-07T12:59:49.000Z</time>
      </trkpt>
      <trkpt lat="45.94847" lon="6.53681">
        <ele>2085</ele>
        <time>2015-02-07T12:59:52.000Z</time>
      </trkpt>
      <trkpt lat="45.94847" lon="6.53681">
        <ele>2085.6000976562</ele>
        <time>2015-02-07T12:59:53.000Z</time>
      </trkpt>
      <trkpt lat="45.94846" lon="6.53682">
        <ele>2086.1999511719</ele>
        <time>2015-02-07T12:59:59.000Z</time>
      </trkpt>
      <trkpt lat="45.94845" lon="6.53685">
        <ele>2086</ele>
        <time>2015-02-07T13:00:04.000Z</time>
      </trkpt>
      <trkpt lat="45.94843" lon="6.53688">
        <ele>2087</ele>
        <time>2015-02-07T13:00:07.000Z</time>
      </trkpt>
      <trkpt lat="45.94842" lon="6.53689">
        <ele>2086.8000488281</ele>
        <time>2015-02-07T13:00:08.000Z</time>
      </trkpt>
      <trkpt lat="45.94841" lon="6.53691">
        <ele>2087.6000976562</ele>
        <time>2015-02-07T13:00:12.000Z</time>
      </trkpt>
      <trkpt lat="45.9484" lon="6.53692">
        <ele>2088.3999023438</ele>
        <time>2015-02-07T13:00:15.000Z</time>
      </trkpt>
      <trkpt lat="45.94839" lon="6.53694">
        <ele>2088.8000488281</ele>
        <time>2015-02-07T13:00:17.000Z</time>
      </trkpt>
      <trkpt lat="45.94837" lon="6.53696">
        <ele>2089.3999023438</ele>
        <time>2015-02-07T13:00:20.000Z</time>
      </trkpt>
      <trkpt lat="45.94834" lon="6.53699">
        <ele>2090.1999511719</ele>
        <time>2015-02-07T13:00:24.000Z</time>
      </trkpt>
      <trkpt lat="45.94833" lon="6.53701">
        <ele>2090.8000488281</ele>
        <time>2015-02-07T13:00:28.000Z</time>
      </trkpt>
      <trkpt lat="45.94833" lon="6.53702">
        <ele>2091.8000488281</ele>
        <time>2015-02-07T13:00:33.000Z</time>
      </trkpt>
      <trkpt lat="45.94833" lon="6.53707">
        <ele>2092.6000976562</ele>
        <time>2015-02-07T13:00:38.000Z</time>
      </trkpt>
      <trkpt lat="45.94833" lon="6.53708">
        <ele>2093</ele>
        <time>2015-02-07T13:00:39.000Z</time>
      </trkpt>
      <trkpt lat="45.94834" lon="6.53714">
        <ele>2093.8000488281</ele>
        <time>2015-02-07T13:00:45.000Z</time>
      </trkpt>
      <trkpt lat="45.94834" lon="6.53716">
        <ele>2094.1999511719</ele>
        <time>2015-02-07T13:00:49.000Z</time>
      </trkpt>
      <trkpt lat="45.94835" lon="6.53717">
        <ele>2094.6000976562</ele>
        <time>2015-02-07T13:00:50.000Z</time>
      </trkpt>
      <trkpt lat="45.94836" lon="6.5372">
        <ele>2095.3999023438</ele>
        <time>2015-02-07T13:00:53.000Z</time>
      </trkpt>
      <trkpt lat="45.94839" lon="6.53722">
        <ele>2096.3999023438</ele>
        <time>2015-02-07T13:00:57.000Z</time>
      </trkpt>
      <trkpt lat="45.9484" lon="6.53723">
        <ele>2096.6000976562</ele>
        <time>2015-02-07T13:00:58.000Z</time>
      </trkpt>
      <trkpt lat="45.94841" lon="6.53725">
        <ele>2097</ele>
        <time>2015-02-07T13:01:00.000Z</time>
      </trkpt>
      <trkpt lat="45.94842" lon="6.53726">
        <ele>2097.6000976562</ele>
        <time>2015-02-07T13:01:03.000Z</time>
      </trkpt>
      <trkpt lat="45.94843" lon="6.53727">
        <ele>2098</ele>
        <time>2015-02-07T13:01:05.000Z</time>
      </trkpt>
      <trkpt lat="45.94845" lon="6.5373">
        <ele>2098.6000976562</ele>
        <time>2015-02-07T13:01:11.000Z</time>
      </trkpt>
      <trkpt lat="45.94845" lon="6.5373">
        <ele>2098.8000488281</ele>
        <time>2015-02-07T13:01:12.000Z</time>
      </trkpt>
      <trkpt lat="45.94845" lon="6.5373">
        <ele>2099.1999511719</ele>
        <time>2015-02-07T13:01:17.000Z</time>
      </trkpt>
      <trkpt lat="45.94845" lon="6.5373">
        <ele>2099.8000488281</ele>
        <time>2015-02-07T13:01:20.000Z</time>
      </trkpt>
      <trkpt lat="45.94844" lon="6.5373">
        <ele>2100</ele>
        <time>2015-02-07T13:01:26.000Z</time>
      </trkpt>
      <trkpt lat="45.94841" lon="6.5373">
        <ele>2100</ele>
        <time>2015-02-07T13:01:32.000Z</time>
      </trkpt>
      <trkpt lat="45.94838" lon="6.53732">
        <ele>2101</ele>
        <time>2015-02-07T13:01:36.000Z</time>
      </trkpt>
      <trkpt lat="45.94836" lon="6.53733">
        <ele>2101.6000976562</ele>
        <time>2015-02-07T13:01:38.000Z</time>
      </trkpt>
      <trkpt lat="45.94836" lon="6.53733">
        <ele>2102.1999511719</ele>
        <time>2015-02-07T13:01:40.000Z</time>
      </trkpt>
      <trkpt lat="45.94834" lon="6.53734">
        <ele>2102.3999023438</ele>
        <time>2015-02-07T13:01:42.000Z</time>
      </trkpt>
      <trkpt lat="45.94831" lon="6.53736">
        <ele>2103</ele>
        <time>2015-02-07T13:01:47.000Z</time>
      </trkpt>
      <trkpt lat="45.94831" lon="6.53736">
        <ele>2103.1999511719</ele>
        <time>2015-02-07T13:01:48.000Z</time>
      </trkpt>
      <trkpt lat="45.9483" lon="6.53737">
        <ele>2104.3999023438</ele>
        <time>2015-02-07T13:01:52.000Z</time>
      </trkpt>
      <trkpt lat="45.94826" lon="6.5374">
        <ele>2105.1999511719</ele>
        <time>2015-02-07T13:01:57.000Z</time>
      </trkpt>
      <trkpt lat="45.94826" lon="6.5374">
        <ele>2105.6000976562</ele>
        <time>2015-02-07T13:01:58.000Z</time>
      </trkpt>
      <trkpt lat="45.94824" lon="6.53742">
        <ele>2106.3999023438</ele>
        <time>2015-02-07T13:02:03.000Z</time>
      </trkpt>
      <trkpt lat="45.94823" lon="6.53743">
        <ele>2106.8000488281</ele>
        <time>2015-02-07T13:02:04.000Z</time>
      </trkpt>
      <trkpt lat="45.9482" lon="6.53744">
        <ele>2107.6000976562</ele>
        <time>2015-02-07T13:02:08.000Z</time>
      </trkpt>
      <trkpt lat="45.94819" lon="6.53744">
        <ele>2107.8000488281</ele>
        <time>2015-02-07T13:02:09.000Z</time>
      </trkpt>
      <trkpt lat="45.94819" lon="6.53744">
        <ele>2107.8000488281</ele>
        <time>2015-02-07T13:02:10.000Z</time>
      </trkpt>
      <trkpt lat="45.94815" lon="6.53743">
        <ele>2108</ele>
        <time>2015-02-07T13:02:13.000Z</time>
      </trkpt>
      <trkpt lat="45.94809" lon="6.53742">
        <ele>2108.6000976562</ele>
        <time>2015-02-07T13:02:20.000Z</time>
      </trkpt>
      <trkpt lat="45.94807" lon="6.53741">
        <ele>2108.8000488281</ele>
        <time>2015-02-07T13:02:22.000Z</time>
      </trkpt>
      <trkpt lat="45.94805" lon="6.5374">
        <ele>2109.1999511719</ele>
        <time>2015-02-07T13:02:26.000Z</time>
      </trkpt>
      <trkpt lat="45.94802" lon="6.5374">
        <ele>2110</ele>
        <time>2015-02-07T13:02:30.000Z</time>
      </trkpt>
      <trkpt lat="45.94801" lon="6.5374">
        <ele>2110.6000976562</ele>
        <time>2015-02-07T13:02:32.000Z</time>
      </trkpt>
      <trkpt lat="45.94801" lon="6.5374">
        <ele>2111.1999511719</ele>
        <time>2015-02-07T13:02:34.000Z</time>
      </trkpt>
      <trkpt lat="45.94799" lon="6.53743">
        <ele>2112</ele>
        <time>2015-02-07T13:02:38.000Z</time>
      </trkpt>
      <trkpt lat="45.94799" lon="6.53743">
        <ele>2112.1999511719</ele>
        <time>2015-02-07T13:02:39.000Z</time>
      </trkpt>
      <trkpt lat="45.94798" lon="6.53745">
        <ele>2112.8000488281</ele>
        <time>2015-02-07T13:02:42.000Z</time>
      </trkpt>
      <trkpt lat="45.94795" lon="6.53747">
        <ele>2113.3999023438</ele>
        <time>2015-02-07T13:02:45.000Z</time>
      </trkpt>
      <trkpt lat="45.94794" lon="6.53747">
        <ele>2114</ele>
        <time>2015-02-07T13:02:47.000Z</time>
      </trkpt>
      <trkpt lat="45.94791" lon="6.53748">
        <ele>2114.6000976562</ele>
        <time>2015-02-07T13:02:50.000Z</time>
      </trkpt>
      <trkpt lat="45.94788" lon="6.5375">
        <ele>2114.8000488281</ele>
        <time>2015-02-07T13:02:53.000Z</time>
      </trkpt>
      <trkpt lat="45.94782" lon="6.5375">
        <ele>2115.1999511719</ele>
        <time>2015-02-07T13:03:00.000Z</time>
      </trkpt>
      <trkpt lat="45.94778" lon="6.53751">
        <ele>2115.6000976562</ele>
        <time>2015-02-07T13:03:04.000Z</time>
      </trkpt>
      <trkpt lat="45.94776" lon="6.53751">
        <ele>2116</ele>
        <time>2015-02-07T13:03:07.000Z</time>
      </trkpt>
      <trkpt lat="45.94768" lon="6.53751">
        <ele>2116.6000976562</ele>
        <time>2015-02-07T13:03:15.000Z</time>
      </trkpt>
      <trkpt lat="45.94767" lon="6.53751">
        <ele>2116.6000976562</ele>
        <time>2015-02-07T13:03:16.000Z</time>
      </trkpt>
      <trkpt lat="45.9476" lon="6.53749">
        <ele>2116.8000488281</ele>
        <time>2015-02-07T13:03:22.000Z</time>
      </trkpt>
      <trkpt lat="45.94754" lon="6.53749">
        <ele>2116.6000976562</ele>
        <time>2015-02-07T13:03:28.000Z</time>
      </trkpt>
      <trkpt lat="45.94748" lon="6.53746">
        <ele>2117.6000976562</ele>
        <time>2015-02-07T13:03:35.000Z</time>
      </trkpt>
      <trkpt lat="45.94748" lon="6.53745">
        <ele>2117.8000488281</ele>
        <time>2015-02-07T13:03:36.000Z</time>
      </trkpt>
      <trkpt lat="45.94741" lon="6.53742">
        <ele>2118.3999023438</ele>
        <time>2015-02-07T13:03:43.000Z</time>
      </trkpt>
      <trkpt lat="45.94737" lon="6.5374">
        <ele>2118.8000488281</ele>
        <time>2015-02-07T13:03:47.000Z</time>
      </trkpt>
      <trkpt lat="45.94737" lon="6.5374">
        <ele>2119</ele>
        <time>2015-02-07T13:03:48.000Z</time>
      </trkpt>
      <trkpt lat="45.94732" lon="6.53739">
        <ele>2120</ele>
        <time>2015-02-07T13:03:54.000Z</time>
      </trkpt>
      <trkpt lat="45.94729" lon="6.53737">
        <ele>2120.8000488281</ele>
        <time>2015-02-07T13:03:59.000Z</time>
      </trkpt>
      <trkpt lat="45.94728" lon="6.53736">
        <ele>2121.1999511719</ele>
        <time>2015-02-07T13:04:01.000Z</time>
      </trkpt>
      <trkpt lat="45.94727" lon="6.53736">
        <ele>2122</ele>
        <time>2015-02-07T13:04:04.000Z</time>
      </trkpt>
      <trkpt lat="45.94726" lon="6.53736">
        <ele>2122.1999511719</ele>
        <time>2015-02-07T13:04:06.000Z</time>
      </trkpt>
      <trkpt lat="45.94725" lon="6.53735">
        <ele>2123</ele>
        <time>2015-02-07T13:04:10.000Z</time>
      </trkpt>
      <trkpt lat="45.94724" lon="6.53735">
        <ele>2123.3999023438</ele>
        <time>2015-02-07T13:04:12.000Z</time>
      </trkpt>
      <trkpt lat="45.9472" lon="6.53732">
        <ele>2124.1999511719</ele>
        <time>2015-02-07T13:04:17.000Z</time>
      </trkpt>
      <trkpt lat="45.9472" lon="6.53732">
        <ele>2124.6000976562</ele>
        <time>2015-02-07T13:04:18.000Z</time>
      </trkpt>
      <trkpt lat="45.94719" lon="6.53732">
        <ele>2125.1999511719</ele>
        <time>2015-02-07T13:04:23.000Z</time>
      </trkpt>
      <trkpt lat="45.94719" lon="6.53734">
        <ele>2125.1999511719</ele>
        <time>2015-02-07T13:04:25.000Z</time>
      </trkpt>
      <trkpt lat="45.9472" lon="6.53736">
        <ele>2125.1999511719</ele>
        <time>2015-02-07T13:04:27.000Z</time>
      </trkpt>
      <trkpt lat="45.9472" lon="6.5374">
        <ele>2125.8000488281</ele>
        <time>2015-02-07T13:04:31.000Z</time>
      </trkpt>
      <trkpt lat="45.9472" lon="6.53743">
        <ele>2126.1999511719</ele>
        <time>2015-02-07T13:04:33.000Z</time>
      </trkpt>
      <trkpt lat="45.9472" lon="6.53744">
        <ele>2127</ele>
        <time>2015-02-07T13:04:36.000Z</time>
      </trkpt>
      <trkpt lat="45.94719" lon="6.53745">
        <ele>2127.3999023438</ele>
        <time>2015-02-07T13:04:38.000Z</time>
      </trkpt>
      <trkpt lat="45.94718" lon="6.53748">
        <ele>2128</ele>
        <time>2015-02-07T13:04:42.000Z</time>
      </trkpt>
      <trkpt lat="45.94718" lon="6.53748">
        <ele>2128.1999511719</ele>
        <time>2015-02-07T13:04:43.000Z</time>
      </trkpt>
      <trkpt lat="45.94715" lon="6.5375">
        <ele>2129</ele>
        <time>2015-02-07T13:04:46.000Z</time>
      </trkpt>
      <trkpt lat="45.94715" lon="6.5375">
        <ele>2130</ele>
        <time>2015-02-07T13:04:49.000Z</time>
      </trkpt>
      <trkpt lat="45.94714" lon="6.5375">
        <ele>2130.1999511719</ele>
        <time>2015-02-07T13:04:50.000Z</time>
      </trkpt>
      <trkpt lat="45.94713" lon="6.53751">
        <ele>2130.6000976562</ele>
        <time>2015-02-07T13:04:54.000Z</time>
      </trkpt>
      <trkpt lat="45.94712" lon="6.53753">
        <ele>2131.3999023438</ele>
        <time>2015-02-07T13:04:57.000Z</time>
      </trkpt>
      <trkpt lat="45.94711" lon="6.53753">
        <ele>2132</ele>
        <time>2015-02-07T13:04:59.000Z</time>
      </trkpt>
      <trkpt lat="45.9471" lon="6.53753">
        <ele>2132.3999023438</ele>
        <time>2015-02-07T13:05:03.000Z</time>
      </trkpt>
      <trkpt lat="45.94709" lon="6.53753">
        <ele>2132.3999023438</ele>
        <time>2015-02-07T13:05:05.000Z</time>
      </trkpt>
      <trkpt lat="45.94706" lon="6.53751">
        <ele>2133.6000976562</ele>
        <time>2015-02-07T13:05:10.000Z</time>
      </trkpt>
      <trkpt lat="45.94706" lon="6.53751">
        <ele>2133.8000488281</ele>
        <time>2015-02-07T13:05:11.000Z</time>
      </trkpt>
      <trkpt lat="45.94703" lon="6.5375">
        <ele>2134.6000976562</ele>
        <time>2015-02-07T13:05:16.000Z</time>
      </trkpt>
      <trkpt lat="45.94702" lon="6.5375">
        <ele>2134.6000976562</ele>
        <time>2015-02-07T13:05:17.000Z</time>
      </trkpt>
      <trkpt lat="45.94698" lon="6.5375">
        <ele>2135.6000976562</ele>
        <time>2015-02-07T13:05:24.000Z</time>
      </trkpt>
      <trkpt lat="45.94698" lon="6.5375">
        <ele>2135.8000488281</ele>
        <time>2015-02-07T13:05:25.000Z</time>
      </trkpt>
      <trkpt lat="45.94695" lon="6.53752">
        <ele>2136.6000976562</ele>
        <time>2015-02-07T13:05:29.000Z</time>
      </trkpt>
      <trkpt lat="45.94695" lon="6.53752">
        <ele>2137</ele>
        <time>2015-02-07T13:05:30.000Z</time>
      </trkpt>
      <trkpt lat="45.94691" lon="6.53752">
        <ele>2138</ele>
        <time>2015-02-07T13:05:35.000Z</time>
      </trkpt>
      <trkpt lat="45.94689" lon="6.53752">
        <ele>2138.1999511719</ele>
        <time>2015-02-07T13:05:37.000Z</time>
      </trkpt>
      <trkpt lat="45.94686" lon="6.53753">
        <ele>2139</ele>
        <time>2015-02-07T13:05:42.000Z</time>
      </trkpt>
      <trkpt lat="45.94685" lon="6.53753">
        <ele>2139.3999023438</ele>
        <time>2015-02-07T13:05:43.000Z</time>
      </trkpt>
      <trkpt lat="45.94683" lon="6.53754">
        <ele>2140</ele>
        <time>2015-02-07T13:05:47.000Z</time>
      </trkpt>
      <trkpt lat="45.94682" lon="6.53754">
        <ele>2140.3999023438</ele>
        <time>2015-02-07T13:05:50.000Z</time>
      </trkpt>
      <trkpt lat="45.94681" lon="6.53754">
        <ele>2140.8000488281</ele>
        <time>2015-02-07T13:05:52.000Z</time>
      </trkpt>
      <trkpt lat="45.94677" lon="6.53755">
        <ele>2141.6000976562</ele>
        <time>2015-02-07T13:05:56.000Z</time>
      </trkpt>
      <trkpt lat="45.94677" lon="6.53755">
        <ele>2141.8000488281</ele>
        <time>2015-02-07T13:05:58.000Z</time>
      </trkpt>
      <trkpt lat="45.94674" lon="6.53756">
        <ele>2142.6000976562</ele>
        <time>2015-02-07T13:06:01.000Z</time>
      </trkpt>
      <trkpt lat="45.94672" lon="6.53757">
        <ele>2143.6000976562</ele>
        <time>2015-02-07T13:06:04.000Z</time>
      </trkpt>
      <trkpt lat="45.94672" lon="6.53757">
        <ele>2143.6000976562</ele>
        <time>2015-02-07T13:06:05.000Z</time>
      </trkpt>
      <trkpt lat="45.9467" lon="6.5376">
        <ele>2144.1999511719</ele>
        <time>2015-02-07T13:06:10.000Z</time>
      </trkpt>
      <trkpt lat="45.9467" lon="6.53761">
        <ele>2144.8000488281</ele>
        <time>2015-02-07T13:06:12.000Z</time>
      </trkpt>
      <trkpt lat="45.9467" lon="6.53761">
        <ele>2145.6000976562</ele>
        <time>2015-02-07T13:06:18.000Z</time>
      </trkpt>
      <trkpt lat="45.9467" lon="6.53761">
        <ele>2145.8000488281</ele>
        <time>2015-02-07T13:06:22.000Z</time>
      </trkpt>
      <trkpt lat="45.94669" lon="6.53762">
        <ele>2146</ele>
        <time>2015-02-07T13:06:29.000Z</time>
      </trkpt>
      <trkpt lat="45.94666" lon="6.53766">
        <ele>2147</ele>
        <time>2015-02-07T13:06:35.000Z</time>
      </trkpt>
      <trkpt lat="45.94662" lon="6.53768">
        <ele>2148</ele>
        <time>2015-02-07T13:06:41.000Z</time>
      </trkpt>
      <trkpt lat="45.94659" lon="6.53768">
        <ele>2149.1999511719</ele>
        <time>2015-02-07T13:06:45.000Z</time>
      </trkpt>
      <trkpt lat="45.94657" lon="6.53768">
        <ele>2149.8000488281</ele>
        <time>2015-02-07T13:06:48.000Z</time>
      </trkpt>
      <trkpt lat="45.94656" lon="6.53767">
        <ele>2150.1999511719</ele>
        <time>2015-02-07T13:06:50.000Z</time>
      </trkpt>
      <trkpt lat="45.94655" lon="6.53766">
        <ele>2150.8000488281</ele>
        <time>2015-02-07T13:06:53.000Z</time>
      </trkpt>
      <trkpt lat="45.94654" lon="6.53765">
        <ele>2151.6000976562</ele>
        <time>2015-02-07T13:06:57.000Z</time>
      </trkpt>
      <trkpt lat="45.94653" lon="6.53765">
        <ele>2151.8000488281</ele>
        <time>2015-02-07T13:06:58.000Z</time>
      </trkpt>
      <trkpt lat="45.94649" lon="6.53764">
        <ele>2152.8000488281</ele>
        <time>2015-02-07T13:07:03.000Z</time>
      </trkpt>
      <trkpt lat="45.94647" lon="6.53764">
        <ele>2153.8000488281</ele>
        <time>2015-02-07T13:07:08.000Z</time>
      </trkpt>
      <trkpt lat="45.94644" lon="6.53763">
        <ele>2154.8000488281</ele>
        <time>2015-02-07T13:07:14.000Z</time>
      </trkpt>
      <trkpt lat="45.94641" lon="6.53764">
        <ele>2154.6000976562</ele>
        <time>2015-02-07T13:07:21.000Z</time>
      </trkpt>
      <trkpt lat="45.9464" lon="6.53764">
        <ele>2155</ele>
        <time>2015-02-07T13:07:23.000Z</time>
      </trkpt>
      <trkpt lat="45.94637" lon="6.53765">
        <ele>2155.6000976562</ele>
        <time>2015-02-07T13:07:27.000Z</time>
      </trkpt>
      <trkpt lat="45.94636" lon="6.53766">
        <ele>2156.1999511719</ele>
        <time>2015-02-07T13:07:30.000Z</time>
      </trkpt>
      <trkpt lat="45.94632" lon="6.53766">
        <ele>2157.1999511719</ele>
        <time>2015-02-07T13:07:34.000Z</time>
      </trkpt>
      <trkpt lat="45.94632" lon="6.53766">
        <ele>2157.3999023438</ele>
        <time>2015-02-07T13:07:35.000Z</time>
      </trkpt>
      <trkpt lat="45.94627" lon="6.53771">
        <ele>2157.8000488281</ele>
        <time>2015-02-07T13:07:40.000Z</time>
      </trkpt>
      <trkpt lat="45.94622" lon="6.53777">
        <ele>2158.3999023438</ele>
        <time>2015-02-07T13:07:45.000Z</time>
      </trkpt>
      <trkpt lat="45.9462" lon="6.53778">
        <ele>2158.3999023438</ele>
        <time>2015-02-07T13:07:47.000Z</time>
      </trkpt>
      <trkpt lat="45.94612" lon="6.53785">
        <ele>2157.6000976562</ele>
        <time>2015-02-07T13:07:55.000Z</time>
      </trkpt>
      <trkpt lat="45.9461" lon="6.53787">
        <ele>2157.1999511719</ele>
        <time>2015-02-07T13:07:57.000Z</time>
      </trkpt>
      <trkpt lat="45.94605" lon="6.5379">
        <ele>2156.6000976562</ele>
        <time>2015-02-07T13:08:03.000Z</time>
      </trkpt>
      <trkpt lat="45.94604" lon="6.53797">
        <ele>2157.1999511719</ele>
        <time>2015-02-07T13:08:09.000Z</time>
      </trkpt>
      <trkpt lat="45.94604" lon="6.53812">
        <ele>2158.3999023438</ele>
        <time>2015-02-07T13:08:16.000Z</time>
      </trkpt>
      <trkpt lat="45.94603" lon="6.53815">
        <ele>2159.3999023438</ele>
        <time>2015-02-07T13:08:22.000Z</time>
      </trkpt>
      <trkpt lat="45.94602" lon="6.53815">
        <ele>2159.6000976562</ele>
        <time>2015-02-07T13:08:23.000Z</time>
      </trkpt>
      <trkpt lat="45.946" lon="6.53816">
        <ele>2160.6000976562</ele>
        <time>2015-02-07T13:08:27.000Z</time>
      </trkpt>
      <trkpt lat="45.946" lon="6.53816">
        <ele>2160.8000488281</ele>
        <time>2015-02-07T13:08:28.000Z</time>
      </trkpt>
      <trkpt lat="45.94598" lon="6.53818">
        <ele>2161.3999023438</ele>
        <time>2015-02-07T13:08:36.000Z</time>
      </trkpt>
      <trkpt lat="45.94597" lon="6.53818">
        <ele>2161.6000976562</ele>
        <time>2015-02-07T13:08:37.000Z</time>
      </trkpt>
      <trkpt lat="45.94596" lon="6.53819">
        <ele>2162.1999511719</ele>
        <time>2015-02-07T13:08:41.000Z</time>
      </trkpt>
      <trkpt lat="45.94595" lon="6.53819">
        <ele>2162.8000488281</ele>
        <time>2015-02-07T13:08:43.000Z</time>
      </trkpt>
      <trkpt lat="45.94593" lon="6.53821">
        <ele>2163.8000488281</ele>
        <time>2015-02-07T13:08:47.000Z</time>
      </trkpt>
      <trkpt lat="45.94591" lon="6.53828">
        <ele>2164.6000976562</ele>
        <time>2015-02-07T13:08:54.000Z</time>
      </trkpt>
      <trkpt lat="45.94592" lon="6.53835">
        <ele>2165.1999511719</ele>
        <time>2015-02-07T13:08:58.000Z</time>
      </trkpt>
      <trkpt lat="45.94594" lon="6.53837">
        <ele>2166.1999511719</ele>
        <time>2015-02-07T13:09:02.000Z</time>
      </trkpt>
      <trkpt lat="45.94595" lon="6.53838">
        <ele>2166.1999511719</ele>
        <time>2015-02-07T13:09:03.000Z</time>
      </trkpt>
      <trkpt lat="45.94597" lon="6.53838">
        <ele>2167.1999511719</ele>
        <time>2015-02-07T13:09:07.000Z</time>
      </trkpt>
      <trkpt lat="45.94597" lon="6.53838">
        <ele>2167.1999511719</ele>
        <time>2015-02-07T13:09:08.000Z</time>
      </trkpt>
      <trkpt lat="45.94598" lon="6.5384">
        <ele>2167.8000488281</ele>
        <time>2015-02-07T13:09:13.000Z</time>
      </trkpt>
      <trkpt lat="45.94599" lon="6.53844">
        <ele>2168.3999023438</ele>
        <time>2015-02-07T13:09:20.000Z</time>
      </trkpt>
      <trkpt lat="45.94598" lon="6.53847">
        <ele>2169.1999511719</ele>
        <time>2015-02-07T13:09:25.000Z</time>
      </trkpt>
      <trkpt lat="45.94598" lon="6.53847">
        <ele>2169.6000976562</ele>
        <time>2015-02-07T13:09:26.000Z</time>
      </trkpt>
      <trkpt lat="45.94594" lon="6.53848">
        <ele>2170.6000976562</ele>
        <time>2015-02-07T13:09:31.000Z</time>
      </trkpt>
      <trkpt lat="45.94593" lon="6.53848">
        <ele>2170.8000488281</ele>
        <time>2015-02-07T13:09:32.000Z</time>
      </trkpt>
      <trkpt lat="45.94593" lon="6.53849">
        <ele>2171</ele>
        <time>2015-02-07T13:09:33.000Z</time>
      </trkpt>
      <trkpt lat="45.94591" lon="6.53849">
        <ele>2171.8000488281</ele>
        <time>2015-02-07T13:09:37.000Z</time>
      </trkpt>
      <trkpt lat="45.94591" lon="6.5385">
        <ele>2172.3999023438</ele>
        <time>2015-02-07T13:09:39.000Z</time>
      </trkpt>
      <trkpt lat="45.94589" lon="6.53852">
        <ele>2173</ele>
        <time>2015-02-07T13:09:42.000Z</time>
      </trkpt>
      <trkpt lat="45.94586" lon="6.53853">
        <ele>2173.3999023438</ele>
        <time>2015-02-07T13:09:44.000Z</time>
      </trkpt>
      <trkpt lat="45.94586" lon="6.53854">
        <ele>2174</ele>
        <time>2015-02-07T13:09:47.000Z</time>
      </trkpt>
      <trkpt lat="45.94584" lon="6.53854">
        <ele>2174</ele>
        <time>2015-02-07T13:09:51.000Z</time>
      </trkpt>
      <trkpt lat="45.94582" lon="6.53856">
        <ele>2174.1999511719</ele>
        <time>2015-02-07T13:09:57.000Z</time>
      </trkpt>
      <trkpt lat="45.9458" lon="6.5386">
        <ele>2175</ele>
        <time>2015-02-07T13:10:02.000Z</time>
      </trkpt>
      <trkpt lat="45.94579" lon="6.53861">
        <ele>2175.3999023438</ele>
        <time>2015-02-07T13:10:04.000Z</time>
      </trkpt>
      <trkpt lat="45.94579" lon="6.53861">
        <ele>2176</ele>
        <time>2015-02-07T13:10:10.000Z</time>
      </trkpt>
      <trkpt lat="45.94579" lon="6.53861">
        <ele>2176.1999511719</ele>
        <time>2015-02-07T13:10:14.000Z</time>
      </trkpt>
      <trkpt lat="45.94577" lon="6.53864">
        <ele>2177</ele>
        <time>2015-02-07T13:10:19.000Z</time>
      </trkpt>
      <trkpt lat="45.94576" lon="6.53864">
        <ele>2177.3999023438</ele>
        <time>2015-02-07T13:10:21.000Z</time>
      </trkpt>
      <trkpt lat="45.94574" lon="6.53865">
        <ele>2178.1999511719</ele>
        <time>2015-02-07T13:10:25.000Z</time>
      </trkpt>
      <trkpt lat="45.94573" lon="6.53866">
        <ele>2178.8000488281</ele>
        <time>2015-02-07T13:10:28.000Z</time>
      </trkpt>
      <trkpt lat="45.94573" lon="6.53866">
        <ele>2179.3999023438</ele>
        <time>2015-02-07T13:10:30.000Z</time>
      </trkpt>
      <trkpt lat="45.94573" lon="6.53866">
        <ele>2180</ele>
        <time>2015-02-07T13:10:37.000Z</time>
      </trkpt>
      <trkpt lat="45.94575" lon="6.53871">
        <ele>2180.6000976562</ele>
        <time>2015-02-07T13:10:41.000Z</time>
      </trkpt>
      <trkpt lat="45.94577" lon="6.53872">
        <ele>2180.6000976562</ele>
        <time>2015-02-07T13:10:42.000Z</time>
      </trkpt>
      <trkpt lat="45.94581" lon="6.53876">
        <ele>2180.8000488281</ele>
        <time>2015-02-07T13:10:47.000Z</time>
      </trkpt>
      <trkpt lat="45.94583" lon="6.53878">
        <ele>2181.6000976562</ele>
        <time>2015-02-07T13:10:50.000Z</time>
      </trkpt>
      <trkpt lat="45.94584" lon="6.53878">
        <ele>2182.1999511719</ele>
        <time>2015-02-07T13:10:53.000Z</time>
      </trkpt>
      <trkpt lat="45.94585" lon="6.53881">
        <ele>2182.8000488281</ele>
        <time>2015-02-07T13:10:57.000Z</time>
      </trkpt>
      <trkpt lat="45.94586" lon="6.53882">
        <ele>2183.3999023438</ele>
        <time>2015-02-07T13:10:59.000Z</time>
      </trkpt>
      <trkpt lat="45.94587" lon="6.53884">
        <ele>2184</ele>
        <time>2015-02-07T13:11:02.000Z</time>
      </trkpt>
      <trkpt lat="45.94587" lon="6.53884">
        <ele>2184.1999511719</ele>
        <time>2015-02-07T13:11:04.000Z</time>
      </trkpt>
      <trkpt lat="45.94589" lon="6.53887">
        <ele>2185</ele>
        <time>2015-02-07T13:11:11.000Z</time>
      </trkpt>
      <trkpt lat="45.94589" lon="6.53887">
        <ele>2185</ele>
        <time>2015-02-07T13:11:12.000Z</time>
      </trkpt>
      <trkpt lat="45.94589" lon="6.53887">
        <ele>2185.1999511719</ele>
        <time>2015-02-07T13:11:13.000Z</time>
      </trkpt>
      <trkpt lat="45.9459" lon="6.53888">
        <ele>2185.8000488281</ele>
        <time>2015-02-07T13:11:25.000Z</time>
      </trkpt>
      <trkpt lat="45.9459" lon="6.53888">
        <ele>2186.1999511719</ele>
        <time>2015-02-07T13:11:31.000Z</time>
      </trkpt>
      <trkpt lat="45.94589" lon="6.53889">
        <ele>2186.8000488281</ele>
        <time>2015-02-07T13:11:36.000Z</time>
      </trkpt>
      <trkpt lat="45.94585" lon="6.53891">
        <ele>2187.3999023438</ele>
        <time>2015-02-07T13:11:42.000Z</time>
      </trkpt>
      <trkpt lat="45.94581" lon="6.53892">
        <ele>2188.6000976562</ele>
        <time>2015-02-07T13:11:48.000Z</time>
      </trkpt>
      <trkpt lat="45.94579" lon="6.53892">
        <ele>2189.6000976562</ele>
        <time>2015-02-07T13:11:53.000Z</time>
      </trkpt>
      <trkpt lat="45.94579" lon="6.53892">
        <ele>2189.6000976562</ele>
        <time>2015-02-07T13:11:58.000Z</time>
      </trkpt>
      <trkpt lat="45.94579" lon="6.53892">
        <ele>2190</ele>
        <time>2015-02-07T13:12:06.000Z</time>
      </trkpt>
      <trkpt lat="45.94579" lon="6.53892">
        <ele>2190.3999023438</ele>
        <time>2015-02-07T13:12:10.000Z</time>
      </trkpt>
      <trkpt lat="45.94579" lon="6.53892">
        <ele>2190.6000976562</ele>
        <time>2015-02-07T13:12:13.000Z</time>
      </trkpt>
      <trkpt lat="45.94584" lon="6.53896">
        <ele>2191.3999023438</ele>
        <time>2015-02-07T13:12:17.000Z</time>
      </trkpt>
      <trkpt lat="45.94585" lon="6.53897">
        <ele>2191.6000976562</ele>
        <time>2015-02-07T13:12:18.000Z</time>
      </trkpt>
      <trkpt lat="45.94587" lon="6.539">
        <ele>2192.1999511719</ele>
        <time>2015-02-07T13:12:23.000Z</time>
      </trkpt>
      <trkpt lat="45.94588" lon="6.53902">
        <ele>2192.8000488281</ele>
        <time>2015-02-07T13:12:26.000Z</time>
      </trkpt>
      <trkpt lat="45.94591" lon="6.53905">
        <ele>2193.6000976562</ele>
        <time>2015-02-07T13:12:32.000Z</time>
      </trkpt>
      <trkpt lat="45.94591" lon="6.53906">
        <ele>2193.8000488281</ele>
        <time>2015-02-07T13:12:34.000Z</time>
      </trkpt>
      <trkpt lat="45.94592" lon="6.53906">
        <ele>2194.3999023438</ele>
        <time>2015-02-07T13:12:38.000Z</time>
      </trkpt>
      <trkpt lat="45.94593" lon="6.53907">
        <ele>2195.1999511719</ele>
        <time>2015-02-07T13:12:42.000Z</time>
      </trkpt>
      <trkpt lat="45.94594" lon="6.53908">
        <ele>2195.8000488281</ele>
        <time>2015-02-07T13:12:46.000Z</time>
      </trkpt>
      <trkpt lat="45.94594" lon="6.53908">
        <ele>2196.1999511719</ele>
        <time>2015-02-07T13:12:48.000Z</time>
      </trkpt>
      <trkpt lat="45.94596" lon="6.53909">
        <ele>2196.1999511719</ele>
        <time>2015-02-07T13:12:56.000Z</time>
      </trkpt>
      <trkpt lat="45.94593" lon="6.53912">
        <ele>2197.1999511719</ele>
        <time>2015-02-07T13:13:03.000Z</time>
      </trkpt>
      <trkpt lat="45.94591" lon="6.53912">
        <ele>2197.1999511719</ele>
        <time>2015-02-07T13:13:05.000Z</time>
      </trkpt>
      <trkpt lat="45.9459" lon="6.53914">
        <ele>2197.6000976562</ele>
        <time>2015-02-07T13:13:10.000Z</time>
      </trkpt>
      <trkpt lat="45.94588" lon="6.53914">
        <ele>2198.3999023438</ele>
        <time>2015-02-07T13:13:14.000Z</time>
      </trkpt>
      <trkpt lat="45.94586" lon="6.53915">
        <ele>2198.3999023438</ele>
        <time>2015-02-07T13:13:16.000Z</time>
      </trkpt>
      <trkpt lat="45.94583" lon="6.53917">
        <ele>2199</ele>
        <time>2015-02-07T13:13:22.000Z</time>
      </trkpt>
      <trkpt lat="45.94582" lon="6.53917">
        <ele>2199.3999023438</ele>
        <time>2015-02-07T13:13:23.000Z</time>
      </trkpt>
      <trkpt lat="45.94579" lon="6.53918">
        <ele>2200.1999511719</ele>
        <time>2015-02-07T13:13:29.000Z</time>
      </trkpt>
      <trkpt lat="45.94578" lon="6.53918">
        <ele>2200.6000976562</ele>
        <time>2015-02-07T13:13:31.000Z</time>
      </trkpt>
      <trkpt lat="45.94575" lon="6.53918">
        <ele>2201</ele>
        <time>2015-02-07T13:13:35.000Z</time>
      </trkpt>
      <trkpt lat="45.94574" lon="6.53918">
        <ele>2201.8000488281</ele>
        <time>2015-02-07T13:13:39.000Z</time>
      </trkpt>
      <trkpt lat="45.94573" lon="6.53919">
        <ele>2202.1999511719</ele>
        <time>2015-02-07T13:13:41.000Z</time>
      </trkpt>
      <trkpt lat="45.94571" lon="6.5392">
        <ele>2202.1999511719</ele>
        <time>2015-02-07T13:13:47.000Z</time>
      </trkpt>
      <trkpt lat="45.94568" lon="6.53924">
        <ele>2201.8000488281</ele>
        <time>2015-02-07T13:13:54.000Z</time>
      </trkpt>
      <trkpt lat="45.94566" lon="6.53926">
        <ele>2202.8000488281</ele>
        <time>2015-02-07T13:13:58.000Z</time>
      </trkpt>
      <trkpt lat="45.94565" lon="6.53927">
        <ele>2203.1999511719</ele>
        <time>2015-02-07T13:14:02.000Z</time>
      </trkpt>
      <trkpt lat="45.94563" lon="6.53927">
        <ele>2203.8000488281</ele>
        <time>2015-02-07T13:14:05.000Z</time>
      </trkpt>
      <trkpt lat="45.94562" lon="6.53928">
        <ele>2204.1999511719</ele>
        <time>2015-02-07T13:14:08.000Z</time>
      </trkpt>
      <trkpt lat="45.94559" lon="6.53928">
        <ele>2205</ele>
        <time>2015-02-07T13:14:13.000Z</time>
      </trkpt>
      <trkpt lat="45.94557" lon="6.53928">
        <ele>2205.6000976562</ele>
        <time>2015-02-07T13:14:15.000Z</time>
      </trkpt>
      <trkpt lat="45.94555" lon="6.53928">
        <ele>2206.1999511719</ele>
        <time>2015-02-07T13:14:19.000Z</time>
      </trkpt>
      <trkpt lat="45.94553" lon="6.53928">
        <ele>2207.1999511719</ele>
        <time>2015-02-07T13:14:24.000Z</time>
      </trkpt>
      <trkpt lat="45.94553" lon="6.53928">
        <ele>2207.1999511719</ele>
        <time>2015-02-07T13:14:25.000Z</time>
      </trkpt>
      <trkpt lat="45.94552" lon="6.53928">
        <ele>2208</ele>
        <time>2015-02-07T13:14:31.000Z</time>
      </trkpt>
      <trkpt lat="45.94551" lon="6.53928">
        <ele>2208.3999023438</ele>
        <time>2015-02-07T13:14:33.000Z</time>
      </trkpt>
      <trkpt lat="45.94551" lon="6.53928">
        <ele>2209</ele>
        <time>2015-02-07T13:14:36.000Z</time>
      </trkpt>
      <trkpt lat="45.9455" lon="6.53929">
        <ele>2209.3999023438</ele>
        <time>2015-02-07T13:14:38.000Z</time>
      </trkpt>
      <trkpt lat="45.9455" lon="6.53929">
        <ele>2210</ele>
        <time>2015-02-07T13:14:44.000Z</time>
      </trkpt>
      <trkpt lat="45.9455" lon="6.53929">
        <ele>2210.8000488281</ele>
        <time>2015-02-07T13:14:46.000Z</time>
      </trkpt>
      <trkpt lat="45.9455" lon="6.53929">
        <ele>2211.1999511719</ele>
        <time>2015-02-07T13:14:54.000Z</time>
      </trkpt>
      <trkpt lat="45.94552" lon="6.53938">
        <ele>2211.8000488281</ele>
        <time>2015-02-07T13:15:01.000Z</time>
      </trkpt>
      <trkpt lat="45.94552" lon="6.53939">
        <ele>2212</ele>
        <time>2015-02-07T13:15:02.000Z</time>
      </trkpt>
      <trkpt lat="45.94551" lon="6.53942">
        <ele>2212.8000488281</ele>
        <time>2015-02-07T13:15:07.000Z</time>
      </trkpt>
      <trkpt lat="45.94551" lon="6.53944">
        <ele>2214</ele>
        <time>2015-02-07T13:15:12.000Z</time>
      </trkpt>
      <trkpt lat="45.94551" lon="6.53946">
        <ele>2214.1999511719</ele>
        <time>2015-02-07T13:15:18.000Z</time>
      </trkpt>
      <trkpt lat="45.94551" lon="6.53948">
        <ele>2214.1999511719</ele>
        <time>2015-02-07T13:15:19.000Z</time>
      </trkpt>
      <trkpt lat="45.9455" lon="6.53952">
        <ele>2215</ele>
        <time>2015-02-07T13:15:23.000Z</time>
      </trkpt>
      <trkpt lat="45.9455" lon="6.53952">
        <ele>2215.1999511719</ele>
        <time>2015-02-07T13:15:24.000Z</time>
      </trkpt>
      <trkpt lat="45.9455" lon="6.53955">
        <ele>2215.6000976562</ele>
        <time>2015-02-07T13:15:29.000Z</time>
      </trkpt>
      <trkpt lat="45.94551" lon="6.53957">
        <ele>2216.1999511719</ele>
        <time>2015-02-07T13:15:34.000Z</time>
      </trkpt>
      <trkpt lat="45.94551" lon="6.53958">
        <ele>2216.3999023438</ele>
        <time>2015-02-07T13:15:35.000Z</time>
      </trkpt>
      <trkpt lat="45.94551" lon="6.53961">
        <ele>2217.3999023438</ele>
        <time>2015-02-07T13:15:39.000Z</time>
      </trkpt>
      <trkpt lat="45.94551" lon="6.53961">
        <ele>2217.3999023438</ele>
        <time>2015-02-07T13:15:40.000Z</time>
      </trkpt>
      <trkpt lat="45.94553" lon="6.53964">
        <ele>2218.3999023438</ele>
        <time>2015-02-07T13:15:45.000Z</time>
      </trkpt>
      <trkpt lat="45.94552" lon="6.53965">
        <ele>2218.6000976562</ele>
        <time>2015-02-07T13:15:46.000Z</time>
      </trkpt>
      <trkpt lat="45.94552" lon="6.53965">
        <ele>2219.3999023438</ele>
        <time>2015-02-07T13:15:52.000Z</time>
      </trkpt>
      <trkpt lat="45.94552" lon="6.53966">
        <ele>2219.1999511719</ele>
        <time>2015-02-07T13:15:57.000Z</time>
      </trkpt>
      <trkpt lat="45.94551" lon="6.53967">
        <ele>2220.6000976562</ele>
        <time>2015-02-07T13:16:04.000Z</time>
      </trkpt>
      <trkpt lat="45.94549" lon="6.53968">
        <ele>2221.8000488281</ele>
        <time>2015-02-07T13:16:11.000Z</time>
      </trkpt>
      <trkpt lat="45.94546" lon="6.53969">
        <ele>2222.6000976562</ele>
        <time>2015-02-07T13:16:17.000Z</time>
      </trkpt>
      <trkpt lat="45.94546" lon="6.53968">
        <ele>2222.8000488281</ele>
        <time>2015-02-07T13:16:18.000Z</time>
      </trkpt>
      <trkpt lat="45.94543" lon="6.53968">
        <ele>2224</ele>
        <time>2015-02-07T13:16:24.000Z</time>
      </trkpt>
      <trkpt lat="45.94541" lon="6.53968">
        <ele>2225.1999511719</ele>
        <time>2015-02-07T13:16:29.000Z</time>
      </trkpt>
      <trkpt lat="45.94537" lon="6.53969">
        <ele>2226</ele>
        <time>2015-02-07T13:16:34.000Z</time>
      </trkpt>
      <trkpt lat="45.94536" lon="6.5397">
        <ele>2226.1999511719</ele>
        <time>2015-02-07T13:16:37.000Z</time>
      </trkpt>
      <trkpt lat="45.94535" lon="6.53971">
        <ele>2227</ele>
        <time>2015-02-07T13:16:41.000Z</time>
      </trkpt>
      <trkpt lat="45.94535" lon="6.53971">
        <ele>2227.1999511719</ele>
        <time>2015-02-07T13:16:42.000Z</time>
      </trkpt>
      <trkpt lat="45.94535" lon="6.53971">
        <ele>2228</ele>
        <time>2015-02-07T13:16:52.000Z</time>
      </trkpt>
      <trkpt lat="45.94533" lon="6.53972">
        <ele>2228.3999023438</ele>
        <time>2015-02-07T13:16:58.000Z</time>
      </trkpt>
      <trkpt lat="45.94532" lon="6.53972">
        <ele>2228.6000976562</ele>
        <time>2015-02-07T13:16:59.000Z</time>
      </trkpt>
      <trkpt lat="45.94528" lon="6.53972">
        <ele>2229.6000976562</ele>
        <time>2015-02-07T13:17:04.000Z</time>
      </trkpt>
      <trkpt lat="45.94527" lon="6.53972">
        <ele>2230.6000976562</ele>
        <time>2015-02-07T13:17:10.000Z</time>
      </trkpt>
      <trkpt lat="45.94527" lon="6.53972">
        <ele>2230.8000488281</ele>
        <time>2015-02-07T13:17:12.000Z</time>
      </trkpt>
      <trkpt lat="45.94526" lon="6.53971">
        <ele>2231.8000488281</ele>
        <time>2015-02-07T13:17:18.000Z</time>
      </trkpt>
      <trkpt lat="45.94525" lon="6.53971">
        <ele>2232</ele>
        <time>2015-02-07T13:17:19.000Z</time>
      </trkpt>
      <trkpt lat="45.94521" lon="6.53969">
        <ele>2233</ele>
        <time>2015-02-07T13:17:25.000Z</time>
      </trkpt>
      <trkpt lat="45.9452" lon="6.53969">
        <ele>2233</ele>
        <time>2015-02-07T13:17:26.000Z</time>
      </trkpt>
      <trkpt lat="45.94517" lon="6.53967">
        <ele>2234</ele>
        <time>2015-02-07T13:17:32.000Z</time>
      </trkpt>
      <trkpt lat="45.94517" lon="6.53967">
        <ele>2234</ele>
        <time>2015-02-07T13:17:33.000Z</time>
      </trkpt>
      <trkpt lat="45.94514" lon="6.53969">
        <ele>2234.8000488281</ele>
        <time>2015-02-07T13:17:39.000Z</time>
      </trkpt>
      <trkpt lat="45.94514" lon="6.53969">
        <ele>2235.1999511719</ele>
        <time>2015-02-07T13:17:41.000Z</time>
      </trkpt>
      <trkpt lat="45.94513" lon="6.5397">
        <ele>2235.6000976562</ele>
        <time>2015-02-07T13:17:52.000Z</time>
      </trkpt>
      <trkpt lat="45.94512" lon="6.53971">
        <ele>2235.6000976562</ele>
        <time>2015-02-07T13:17:54.000Z</time>
      </trkpt>
      <trkpt lat="45.94509" lon="6.53972">
        <ele>2236.1999511719</ele>
        <time>2015-02-07T13:17:58.000Z</time>
      </trkpt>
      <trkpt lat="45.94509" lon="6.53972">
        <ele>2236.3999023438</ele>
        <time>2015-02-07T13:17:59.000Z</time>
      </trkpt>
      <trkpt lat="45.94507" lon="6.53973">
        <ele>2237.1999511719</ele>
        <time>2015-02-07T13:18:02.000Z</time>
      </trkpt>
      <trkpt lat="45.94505" lon="6.53973">
        <ele>2238</ele>
        <time>2015-02-07T13:18:06.000Z</time>
      </trkpt>
      <trkpt lat="45.94505" lon="6.53973">
        <ele>2238.1999511719</ele>
        <time>2015-02-07T13:18:08.000Z</time>
      </trkpt>
      <trkpt lat="45.94505" lon="6.53973">
        <ele>2239.1999511719</ele>
        <time>2015-02-07T13:18:12.000Z</time>
      </trkpt>
      <trkpt lat="45.94505" lon="6.53973">
        <ele>2239.3999023438</ele>
        <time>2015-02-07T13:18:13.000Z</time>
      </trkpt>
      <trkpt lat="45.94505" lon="6.53973">
        <ele>2240.3999023438</ele>
        <time>2015-02-07T13:18:19.000Z</time>
      </trkpt>
      <trkpt lat="45.94505" lon="6.53973">
        <ele>2240.3999023438</ele>
        <time>2015-02-07T13:18:23.000Z</time>
      </trkpt>
      <trkpt lat="45.94505" lon="6.53973">
        <ele>2240.3999023438</ele>
        <time>2015-02-07T13:18:37.000Z</time>
      </trkpt>
      <trkpt lat="45.94504" lon="6.53973">
        <ele>2242.1999511719</ele>
        <time>2015-02-07T13:18:43.000Z</time>
      </trkpt>
      <trkpt lat="45.94504" lon="6.53973">
        <ele>2242.8000488281</ele>
        <time>2015-02-07T13:18:45.000Z</time>
      </trkpt>
      <trkpt lat="45.94504" lon="6.53973">
        <ele>2243.1999511719</ele>
        <time>2015-02-07T13:18:48.000Z</time>
      </trkpt>
      <trkpt lat="45.94504" lon="6.53973">
        <ele>2242.8000488281</ele>
        <time>2015-02-07T13:19:00.000Z</time>
      </trkpt>
      <trkpt lat="45.94504" lon="6.53973">
        <ele>2243</ele>
        <time>2015-02-07T13:19:06.000Z</time>
      </trkpt>
      <trkpt lat="45.94499" lon="6.53976">
        <ele>2244.1999511719</ele>
        <time>2015-02-07T13:19:13.000Z</time>
      </trkpt>
      <trkpt lat="45.94497" lon="6.53977">
        <ele>2244.3999023438</ele>
        <time>2015-02-07T13:19:14.000Z</time>
      </trkpt>
      <trkpt lat="45.94491" lon="6.53981">
        <ele>2245.1999511719</ele>
        <time>2015-02-07T13:19:19.000Z</time>
      </trkpt>
      <trkpt lat="45.9449" lon="6.53981">
        <ele>2245.3999023438</ele>
        <time>2015-02-07T13:19:20.000Z</time>
      </trkpt>
      <trkpt lat="45.94485" lon="6.53982">
        <ele>2246.3999023438</ele>
        <time>2015-02-07T13:19:25.000Z</time>
      </trkpt>
      <trkpt lat="45.94485" lon="6.53982">
        <ele>2246.3999023438</ele>
        <time>2015-02-07T13:19:26.000Z</time>
      </trkpt>
      <trkpt lat="45.94485" lon="6.53986">
        <ele>2247.1999511719</ele>
        <time>2015-02-07T13:19:31.000Z</time>
      </trkpt>
      <trkpt lat="45.94485" lon="6.53987">
        <ele>2247.3999023438</ele>
        <time>2015-02-07T13:19:32.000Z</time>
      </trkpt>
      <trkpt lat="45.94483" lon="6.53989">
        <ele>2248.6000976562</ele>
        <time>2015-02-07T13:19:36.000Z</time>
      </trkpt>
      <trkpt lat="45.9448" lon="6.53991">
        <ele>2249.1999511719</ele>
        <time>2015-02-07T13:19:42.000Z</time>
      </trkpt>
      <trkpt lat="45.94479" lon="6.53995">
        <ele>2249.8000488281</ele>
        <time>2015-02-07T13:19:44.000Z</time>
      </trkpt>
      <trkpt lat="45.94478" lon="6.53996">
        <ele>2250.1999511719</ele>
        <time>2015-02-07T13:19:47.000Z</time>
      </trkpt>
      <trkpt lat="45.94477" lon="6.54">
        <ele>2251</ele>
        <time>2015-02-07T13:19:51.000Z</time>
      </trkpt>
      <trkpt lat="45.94477" lon="6.54006">
        <ele>2252.1999511719</ele>
        <time>2015-02-07T13:19:55.000Z</time>
      </trkpt>
      <trkpt lat="45.94476" lon="6.54011">
        <ele>2253</ele>
        <time>2015-02-07T13:20:00.000Z</time>
      </trkpt>
      <trkpt lat="45.94476" lon="6.54012">
        <ele>2253.1999511719</ele>
        <time>2015-02-07T13:20:01.000Z</time>
      </trkpt>
      <trkpt lat="45.94476" lon="6.54014">
        <ele>2253.6000976562</ele>
        <time>2015-02-07T13:20:04.000Z</time>
      </trkpt>
      <trkpt lat="45.94477" lon="6.54014">
        <ele>2254.1999511719</ele>
        <time>2015-02-07T13:20:09.000Z</time>
      </trkpt>
      <trkpt lat="45.94477" lon="6.54014">
        <ele>2255.1999511719</ele>
        <time>2015-02-07T13:20:13.000Z</time>
      </trkpt>
      <trkpt lat="45.94475" lon="6.54009">
        <ele>2255.1999511719</ele>
        <time>2015-02-07T13:20:18.000Z</time>
      </trkpt>
      <trkpt lat="45.94472" lon="6.54005">
        <ele>2256</ele>
        <time>2015-02-07T13:20:25.000Z</time>
      </trkpt>
      <trkpt lat="45.94471" lon="6.54005">
        <ele>2256.1999511719</ele>
        <time>2015-02-07T13:20:26.000Z</time>
      </trkpt>
      <trkpt lat="45.94469" lon="6.53999">
        <ele>2257.3999023438</ele>
        <time>2015-02-07T13:20:32.000Z</time>
      </trkpt>
      <trkpt lat="45.94468" lon="6.53999">
        <ele>2257.6000976562</ele>
        <time>2015-02-07T13:20:33.000Z</time>
      </trkpt>
      <trkpt lat="45.94468" lon="6.53998">
        <ele>2258.6000976562</ele>
        <time>2015-02-07T13:20:38.000Z</time>
      </trkpt>
      <trkpt lat="45.94468" lon="6.53997">
        <ele>2259.6000976562</ele>
        <time>2015-02-07T13:20:45.000Z</time>
      </trkpt>
      <trkpt lat="45.94467" lon="6.53995">
        <ele>2259.6000976562</ele>
        <time>2015-02-07T13:20:46.000Z</time>
      </trkpt>
      <trkpt lat="45.94466" lon="6.53991">
        <ele>2260.3999023438</ele>
        <time>2015-02-07T13:20:50.000Z</time>
      </trkpt>
      <trkpt lat="45.94465" lon="6.53988">
        <ele>2260.6000976562</ele>
        <time>2015-02-07T13:20:52.000Z</time>
      </trkpt>
      <trkpt lat="45.94464" lon="6.53986">
        <ele>2260.8000488281</ele>
        <time>2015-02-07T13:20:55.000Z</time>
      </trkpt>
      <trkpt lat="45.94464" lon="6.53981">
        <ele>2261.8000488281</ele>
        <time>2015-02-07T13:20:59.000Z</time>
      </trkpt>
      <trkpt lat="45.94463" lon="6.53978">
        <ele>2262.6000976562</ele>
        <time>2015-02-07T13:21:02.000Z</time>
      </trkpt>
      <trkpt lat="45.94463" lon="6.53977">
        <ele>2262.8000488281</ele>
        <time>2015-02-07T13:21:03.000Z</time>
      </trkpt>
      <trkpt lat="45.94463" lon="6.53973">
        <ele>2263.6000976562</ele>
        <time>2015-02-07T13:21:08.000Z</time>
      </trkpt>
      <trkpt lat="45.94464" lon="6.5397">
        <ele>2264</ele>
        <time>2015-02-07T13:21:10.000Z</time>
      </trkpt>
      <trkpt lat="45.94464" lon="6.53967">
        <ele>2264.3999023438</ele>
        <time>2015-02-07T13:21:13.000Z</time>
      </trkpt>
      <trkpt lat="45.94465" lon="6.53964">
        <ele>2264.8000488281</ele>
        <time>2015-02-07T13:21:17.000Z</time>
      </trkpt>
      <trkpt lat="45.94465" lon="6.53963">
        <ele>2265</ele>
        <time>2015-02-07T13:21:18.000Z</time>
      </trkpt>
      <trkpt lat="45.94463" lon="6.53964">
        <ele>2266</ele>
        <time>2015-02-07T13:21:27.000Z</time>
      </trkpt>
      <trkpt lat="45.94458" lon="6.53967">
        <ele>2266.3999023438</ele>
        <time>2015-02-07T13:21:32.000Z</time>
      </trkpt>
      <trkpt lat="45.94455" lon="6.5397">
        <ele>2267.1999511719</ele>
        <time>2015-02-07T13:21:37.000Z</time>
      </trkpt>
      <trkpt lat="45.94453" lon="6.53975">
        <ele>2268.3999023438</ele>
        <time>2015-02-07T13:21:43.000Z</time>
      </trkpt>
      <trkpt lat="45.9445" lon="6.53982">
        <ele>2269.3999023438</ele>
        <time>2015-02-07T13:21:49.000Z</time>
      </trkpt>
      <trkpt lat="45.94448" lon="6.53986">
        <ele>2270.3999023438</ele>
        <time>2015-02-07T13:21:54.000Z</time>
      </trkpt>
      <trkpt lat="45.94448" lon="6.53986">
        <ele>2270.6000976562</ele>
        <time>2015-02-07T13:21:55.000Z</time>
      </trkpt>
      <trkpt lat="45.94447" lon="6.5399">
        <ele>2271.6000976562</ele>
        <time>2015-02-07T13:22:00.000Z</time>
      </trkpt>
      <trkpt lat="45.94447" lon="6.53992">
        <ele>2271.8000488281</ele>
        <time>2015-02-07T13:22:01.000Z</time>
      </trkpt>
      <trkpt lat="45.94447" lon="6.53995">
        <ele>2272.8000488281</ele>
        <time>2015-02-07T13:22:06.000Z</time>
      </trkpt>
      <trkpt lat="45.94447" lon="6.53995">
        <ele>2273</ele>
        <time>2015-02-07T13:22:12.000Z</time>
      </trkpt>
      <trkpt lat="45.94447" lon="6.53995">
        <ele>2274.3999023438</ele>
        <time>2015-02-07T13:22:14.000Z</time>
      </trkpt>
      <trkpt lat="45.94447" lon="6.5399">
        <ele>2274.3999023438</ele>
        <time>2015-02-07T13:22:22.000Z</time>
      </trkpt>
      <trkpt lat="45.94445" lon="6.53985">
        <ele>2275.3999023438</ele>
        <time>2015-02-07T13:22:28.000Z</time>
      </trkpt>
      <trkpt lat="45.94444" lon="6.53983">
        <ele>2275.6000976562</ele>
        <time>2015-02-07T13:22:29.000Z</time>
      </trkpt>
      <trkpt lat="45.94444" lon="6.53974">
        <ele>2276.6000976562</ele>
        <time>2015-02-07T13:22:35.000Z</time>
      </trkpt>
      <trkpt lat="45.94444" lon="6.53973">
        <ele>2276.8000488281</ele>
        <time>2015-02-07T13:22:36.000Z</time>
      </trkpt>
      <trkpt lat="45.94442" lon="6.53967">
        <ele>2277.6000976562</ele>
        <time>2015-02-07T13:22:41.000Z</time>
      </trkpt>
      <trkpt lat="45.94442" lon="6.53965">
        <ele>2278</ele>
        <time>2015-02-07T13:22:43.000Z</time>
      </trkpt>
      <trkpt lat="45.9444" lon="6.53962">
        <ele>2278.6000976562</ele>
        <time>2015-02-07T13:22:46.000Z</time>
      </trkpt>
      <trkpt lat="45.94438" lon="6.53958">
        <ele>2279.3999023438</ele>
        <time>2015-02-07T13:22:50.000Z</time>
      </trkpt>
      <trkpt lat="45.94437" lon="6.53955">
        <ele>2279.8000488281</ele>
        <time>2015-02-07T13:22:53.000Z</time>
      </trkpt>
      <trkpt lat="45.94433" lon="6.53949">
        <ele>2280.1999511719</ele>
        <time>2015-02-07T13:22:57.000Z</time>
      </trkpt>
      <trkpt lat="45.94431" lon="6.53947">
        <ele>2280.8000488281</ele>
        <time>2015-02-07T13:23:01.000Z</time>
      </trkpt>
      <trkpt lat="45.94431" lon="6.53947">
        <ele>2281.8000488281</ele>
        <time>2015-02-07T13:23:06.000Z</time>
      </trkpt>
      <trkpt lat="45.9443" lon="6.53945">
        <ele>2282.8000488281</ele>
        <time>2015-02-07T13:23:13.000Z</time>
      </trkpt>
      <trkpt lat="45.9443" lon="6.53945">
        <ele>2283</ele>
        <time>2015-02-07T13:23:14.000Z</time>
      </trkpt>
      <trkpt lat="45.9443" lon="6.53947">
        <ele>2283.8000488281</ele>
        <time>2015-02-07T13:23:21.000Z</time>
      </trkpt>
      <trkpt lat="45.9443" lon="6.53947">
        <ele>2284</ele>
        <time>2015-02-07T13:23:25.000Z</time>
      </trkpt>
      <trkpt lat="45.9443" lon="6.53948">
        <ele>2284.1999511719</ele>
        <time>2015-02-07T13:23:26.000Z</time>
      </trkpt>
      <trkpt lat="45.9443" lon="6.53952">
        <ele>2285.1999511719</ele>
        <time>2015-02-07T13:23:30.000Z</time>
      </trkpt>
      <trkpt lat="45.94428" lon="6.53955">
        <ele>2285.8000488281</ele>
        <time>2015-02-07T13:23:33.000Z</time>
      </trkpt>
      <trkpt lat="45.94428" lon="6.53955">
        <ele>2286.1999511719</ele>
        <time>2015-02-07T13:23:36.000Z</time>
      </trkpt>
      <trkpt lat="45.94424" lon="6.53961">
        <ele>2286.8000488281</ele>
        <time>2015-02-07T13:23:40.000Z</time>
      </trkpt>
      <trkpt lat="45.94423" lon="6.53966">
        <ele>2287.3999023438</ele>
        <time>2015-02-07T13:23:43.000Z</time>
      </trkpt>
      <trkpt lat="45.94422" lon="6.53967">
        <ele>2288</ele>
        <time>2015-02-07T13:23:46.000Z</time>
      </trkpt>
      <trkpt lat="45.94421" lon="6.53969">
        <ele>2288.6000976562</ele>
        <time>2015-02-07T13:23:49.000Z</time>
      </trkpt>
      <trkpt lat="45.94421" lon="6.5397">
        <ele>2289.1999511719</ele>
        <time>2015-02-07T13:23:53.000Z</time>
      </trkpt>
      <trkpt lat="45.94421" lon="6.53971">
        <ele>2289.6000976562</ele>
        <time>2015-02-07T13:23:55.000Z</time>
      </trkpt>
      <trkpt lat="45.94421" lon="6.53972">
        <ele>2290.1999511719</ele>
        <time>2015-02-07T13:23:59.000Z</time>
      </trkpt>
      <trkpt lat="45.94421" lon="6.53974">
        <ele>2290.8000488281</ele>
        <time>2015-02-07T13:24:03.000Z</time>
      </trkpt>
      <trkpt lat="45.94421" lon="6.53975">
        <ele>2291</ele>
        <time>2015-02-07T13:24:07.000Z</time>
      </trkpt>
      <trkpt lat="45.94421" lon="6.53975">
        <ele>2292.1999511719</ele>
        <time>2015-02-07T13:24:12.000Z</time>
      </trkpt>
      <trkpt lat="45.94421" lon="6.53973">
        <ele>2292.8000488281</ele>
        <time>2015-02-07T13:24:14.000Z</time>
      </trkpt>
      <trkpt lat="45.94416" lon="6.53961">
        <ele>2293.1999511719</ele>
        <time>2015-02-07T13:24:21.000Z</time>
      </trkpt>
      <trkpt lat="45.94416" lon="6.53961">
        <ele>2293.1999511719</ele>
        <time>2015-02-07T13:24:22.000Z</time>
      </trkpt>
      <trkpt lat="45.94413" lon="6.53958">
        <ele>2294.3999023438</ele>
        <time>2015-02-07T13:24:28.000Z</time>
      </trkpt>
      <trkpt lat="45.9441" lon="6.53951">
        <ele>2295</ele>
        <time>2015-02-07T13:24:31.000Z</time>
      </trkpt>
      <trkpt lat="45.94405" lon="6.53943">
        <ele>2295.6000976562</ele>
        <time>2015-02-07T13:24:34.000Z</time>
      </trkpt>
      <trkpt lat="45.94405" lon="6.53943">
        <ele>2296.3999023438</ele>
        <time>2015-02-07T13:24:41.000Z</time>
      </trkpt>
      <trkpt lat="45.94405" lon="6.53943">
        <ele>2297.1999511719</ele>
        <time>2015-02-07T13:24:43.000Z</time>
      </trkpt>
      <trkpt lat="45.94405" lon="6.53943">
        <ele>2297.8000488281</ele>
        <time>2015-02-07T13:24:52.000Z</time>
      </trkpt>
      <trkpt lat="45.94405" lon="6.53942">
        <ele>2298</ele>
        <time>2015-02-07T13:25:01.000Z</time>
      </trkpt>
      <trkpt lat="45.94405" lon="6.53942">
        <ele>2298.1999511719</ele>
        <time>2015-02-07T13:25:03.000Z</time>
      </trkpt>
      <trkpt lat="45.94405" lon="6.53942">
        <ele>2299.3999023438</ele>
        <time>2015-02-07T13:25:08.000Z</time>
      </trkpt>
      <trkpt lat="45.94405" lon="6.53942">
        <ele>2299.3999023438</ele>
        <time>2015-02-07T13:25:12.000Z</time>
      </trkpt>
      <trkpt lat="45.94405" lon="6.53942">
        <ele>2300.3999023438</ele>
        <time>2015-02-07T13:25:20.000Z</time>
      </trkpt>
      <trkpt lat="45.94405" lon="6.53942">
        <ele>2300.6000976562</ele>
        <time>2015-02-07T13:25:21.000Z</time>
      </trkpt>
      <trkpt lat="45.94405" lon="6.53942">
        <ele>2301.6000976562</ele>
        <time>2015-02-07T13:25:27.000Z</time>
      </trkpt>
      <trkpt lat="45.94405" lon="6.53942">
        <ele>2302</ele>
        <time>2015-02-07T13:25:29.000Z</time>
      </trkpt>
      <trkpt lat="45.94405" lon="6.53942">
        <ele>2302.6000976562</ele>
        <time>2015-02-07T13:25:31.000Z</time>
      </trkpt>
      <trkpt lat="45.94405" lon="6.53942">
        <ele>2303.6000976562</ele>
        <time>2015-02-07T13:25:36.000Z</time>
      </trkpt>
      <trkpt lat="45.94405" lon="6.53942">
        <ele>2303.8000488281</ele>
        <time>2015-02-07T13:25:37.000Z</time>
      </trkpt>
      <trkpt lat="45.94408" lon="6.53955">
        <ele>2305</ele>
        <time>2015-02-07T13:25:43.000Z</time>
      </trkpt>
      <trkpt lat="45.94408" lon="6.53963">
        <ele>2305.1999511719</ele>
        <time>2015-02-07T13:25:46.000Z</time>
      </trkpt>
      <trkpt lat="45.94408" lon="6.53965">
        <ele>2305.6000976562</ele>
        <time>2015-02-07T13:25:48.000Z</time>
      </trkpt>
      <trkpt lat="45.94407" lon="6.53969">
        <ele>2306</ele>
        <time>2015-02-07T13:25:50.000Z</time>
      </trkpt>
      <trkpt lat="45.94406" lon="6.53974">
        <ele>2306.8000488281</ele>
        <time>2015-02-07T13:25:55.000Z</time>
      </trkpt>
      <trkpt lat="45.94406" lon="6.53974">
        <ele>2307.1999511719</ele>
        <time>2015-02-07T13:25:57.000Z</time>
      </trkpt>
      <trkpt lat="45.94406" lon="6.53975">
        <ele>2308.3999023438</ele>
        <time>2015-02-07T13:26:00.000Z</time>
      </trkpt>
      <trkpt lat="45.94405" lon="6.53974">
        <ele>2308</ele>
        <time>2015-02-07T13:26:05.000Z</time>
      </trkpt>
      <trkpt lat="45.94405" lon="6.53974">
        <ele>2309.6000976562</ele>
        <time>2015-02-07T13:26:15.000Z</time>
      </trkpt>
      <trkpt lat="45.94404" lon="6.53972">
        <ele>2310.6000976562</ele>
        <time>2015-02-07T13:26:21.000Z</time>
      </trkpt>
      <trkpt lat="45.94399" lon="6.53968">
        <ele>2311</ele>
        <time>2015-02-07T13:26:24.000Z</time>
      </trkpt>
      <trkpt lat="45.94392" lon="6.53957">
        <ele>2311.8000488281</ele>
        <time>2015-02-07T13:26:30.000Z</time>
      </trkpt>
      <trkpt lat="45.9439" lon="6.53955">
        <ele>2312.3999023438</ele>
        <time>2015-02-07T13:26:33.000Z</time>
      </trkpt>
      <trkpt lat="45.9439" lon="6.53955">
        <ele>2313</ele>
        <time>2015-02-07T13:26:36.000Z</time>
      </trkpt>
      <trkpt lat="45.94384" lon="6.53946">
        <ele>2314</ele>
        <time>2015-02-07T13:26:42.000Z</time>
      </trkpt>
      <trkpt lat="45.94382" lon="6.53943">
        <ele>2315.1999511719</ele>
        <time>2015-02-07T13:26:47.000Z</time>
      </trkpt>
      <trkpt lat="45.94382" lon="6.5394">
        <ele>2315.3999023438</ele>
        <time>2015-02-07T13:26:50.000Z</time>
      </trkpt>
      <trkpt lat="45.94382" lon="6.53939">
        <ele>2316.1999511719</ele>
        <time>2015-02-07T13:26:54.000Z</time>
      </trkpt>
      <trkpt lat="45.94382" lon="6.53939">
        <ele>2317</ele>
        <time>2015-02-07T13:27:00.000Z</time>
      </trkpt>
      <trkpt lat="45.94382" lon="6.53939">
        <ele>2317.1999511719</ele>
        <time>2015-02-07T13:27:01.000Z</time>
      </trkpt>
      <trkpt lat="45.94382" lon="6.53939">
        <ele>2318.1999511719</ele>
        <time>2015-02-07T13:27:09.000Z</time>
      </trkpt>
      <trkpt lat="45.94382" lon="6.53939">
        <ele>2318.8000488281</ele>
        <time>2015-02-07T13:27:17.000Z</time>
      </trkpt>
      <trkpt lat="45.94382" lon="6.53939">
        <ele>2319.3999023438</ele>
        <time>2015-02-07T13:27:20.000Z</time>
      </trkpt>
      <trkpt lat="45.94382" lon="6.53939">
        <ele>2319.8000488281</ele>
        <time>2015-02-07T13:27:24.000Z</time>
      </trkpt>
      <trkpt lat="45.94382" lon="6.53939">
        <ele>2320.3999023438</ele>
        <time>2015-02-07T13:27:27.000Z</time>
      </trkpt>
      <trkpt lat="45.94381" lon="6.53941">
        <ele>2321.1999511719</ele>
        <time>2015-02-07T13:27:31.000Z</time>
      </trkpt>
      <trkpt lat="45.94381" lon="6.53941">
        <ele>2321.3999023438</ele>
        <time>2015-02-07T13:27:32.000Z</time>
      </trkpt>
      <trkpt lat="45.94381" lon="6.53941">
        <ele>2322.3999023438</ele>
        <time>2015-02-07T13:27:36.000Z</time>
      </trkpt>
      <trkpt lat="45.94381" lon="6.53941">
        <ele>2322.6000976562</ele>
        <time>2015-02-07T13:27:38.000Z</time>
      </trkpt>
      <trkpt lat="45.94381" lon="6.53941">
        <ele>2323.6000976562</ele>
        <time>2015-02-07T13:27:43.000Z</time>
      </trkpt>
      <trkpt lat="45.94381" lon="6.53941">
        <ele>2323.8000488281</ele>
        <time>2015-02-07T13:27:44.000Z</time>
      </trkpt>
      <trkpt lat="45.94381" lon="6.53941">
        <ele>2324.8000488281</ele>
        <time>2015-02-07T13:27:49.000Z</time>
      </trkpt>
      <trkpt lat="45.94381" lon="6.53941">
        <ele>2324.8000488281</ele>
        <time>2015-02-07T13:27:50.000Z</time>
      </trkpt>
      <trkpt lat="45.94381" lon="6.53941">
        <ele>2326</ele>
        <time>2015-02-07T13:27:55.000Z</time>
      </trkpt>
      <trkpt lat="45.94381" lon="6.53941">
        <ele>2326.6000976562</ele>
        <time>2015-02-07T13:27:59.000Z</time>
      </trkpt>
      <trkpt lat="45.94381" lon="6.53941">
        <ele>2327</ele>
        <time>2015-02-07T13:28:01.000Z</time>
      </trkpt>
      <trkpt lat="45.94381" lon="6.53941">
        <ele>2328</ele>
        <time>2015-02-07T13:28:07.000Z</time>
      </trkpt>
      <trkpt lat="45.94381" lon="6.53941">
        <ele>2328</ele>
        <time>2015-02-07T13:28:08.000Z</time>
      </trkpt>
      <trkpt lat="45.94381" lon="6.53941">
        <ele>2328.6000976562</ele>
        <time>2015-02-07T13:28:16.000Z</time>
      </trkpt>
      <trkpt lat="45.94381" lon="6.53941">
        <ele>2329.3999023438</ele>
        <time>2015-02-07T13:28:19.000Z</time>
      </trkpt>
      <trkpt lat="45.94381" lon="6.53941">
        <ele>2330.3999023438</ele>
        <time>2015-02-07T13:28:21.000Z</time>
      </trkpt>
      <trkpt lat="45.94381" lon="6.53941">
        <ele>2330.6000976562</ele>
        <time>2015-02-07T13:28:24.000Z</time>
      </trkpt>
      <trkpt lat="45.94381" lon="6.53941">
        <ele>2331.8000488281</ele>
        <time>2015-02-07T13:28:34.000Z</time>
      </trkpt>
      <trkpt lat="45.94381" lon="6.53941">
        <ele>2332.8000488281</ele>
        <time>2015-02-07T13:28:40.000Z</time>
      </trkpt>
      <trkpt lat="45.94381" lon="6.53941">
        <ele>2333.3999023438</ele>
        <time>2015-02-07T13:28:43.000Z</time>
      </trkpt>
      <trkpt lat="45.94381" lon="6.53941">
        <ele>2333.8000488281</ele>
        <time>2015-02-07T13:28:45.000Z</time>
      </trkpt>
      <trkpt lat="45.94381" lon="6.53942">
        <ele>2334.8000488281</ele>
        <time>2015-02-07T13:28:53.000Z</time>
      </trkpt>
      <trkpt lat="45.94381" lon="6.53942">
        <ele>2335</ele>
        <time>2015-02-07T13:28:54.000Z</time>
      </trkpt>
      <trkpt lat="45.94381" lon="6.53942">
        <ele>2336.3999023438</ele>
        <time>2015-02-07T13:29:04.000Z</time>
      </trkpt>
      <trkpt lat="45.94381" lon="6.53942">
        <ele>2337.1999511719</ele>
        <time>2015-02-07T13:29:09.000Z</time>
      </trkpt>
      <trkpt lat="45.94381" lon="6.53942">
        <ele>2337.1999511719</ele>
        <time>2015-02-07T13:29:10.000Z</time>
      </trkpt>
      <trkpt lat="45.94381" lon="6.53942">
        <ele>2338.3999023438</ele>
        <time>2015-02-07T13:29:17.000Z</time>
      </trkpt>
      <trkpt lat="45.94381" lon="6.53942">
        <ele>2338.3999023438</ele>
        <time>2015-02-07T13:29:18.000Z</time>
      </trkpt>
      <trkpt lat="45.94381" lon="6.53942">
        <ele>2339.3999023438</ele>
        <time>2015-02-07T13:29:24.000Z</time>
      </trkpt>
      <trkpt lat="45.94381" lon="6.53942">
        <ele>2339.8000488281</ele>
        <time>2015-02-07T13:29:27.000Z</time>
      </trkpt>
      <trkpt lat="45.94381" lon="6.53942">
        <ele>2340.6000976562</ele>
        <time>2015-02-07T13:29:31.000Z</time>
      </trkpt>
      <trkpt lat="45.9438" lon="6.53942">
        <ele>2341.6000976562</ele>
        <time>2015-02-07T13:29:35.000Z</time>
      </trkpt>
      <trkpt lat="45.9437" lon="6.53944">
        <ele>2342.3999023438</ele>
        <time>2015-02-07T13:29:43.000Z</time>
      </trkpt>
      <trkpt lat="45.94368" lon="6.53944">
        <ele>2342.6000976562</ele>
        <time>2015-02-07T13:29:44.000Z</time>
      </trkpt>
      <trkpt lat="45.94363" lon="6.53943">
        <ele>2343.3999023438</ele>
        <time>2015-02-07T13:29:51.000Z</time>
      </trkpt>
      <trkpt lat="45.94363" lon="6.53943">
        <ele>2343.8000488281</ele>
        <time>2015-02-07T13:29:52.000Z</time>
      </trkpt>
      <trkpt lat="45.94363" lon="6.53943">
        <ele>2344.6000976562</ele>
        <time>2015-02-07T13:29:58.000Z</time>
      </trkpt>
      <trkpt lat="45.94363" lon="6.53943">
        <ele>2344.8000488281</ele>
        <time>2015-02-07T13:29:59.000Z</time>
      </trkpt>
      <trkpt lat="45.94363" lon="6.53943">
        <ele>2345.8000488281</ele>
        <time>2015-02-07T13:30:08.000Z</time>
      </trkpt>
      <trkpt lat="45.94363" lon="6.53943">
        <ele>2346</ele>
        <time>2015-02-07T13:30:10.000Z</time>
      </trkpt>
      <trkpt lat="45.94363" lon="6.53943">
        <ele>2346.8000488281</ele>
        <time>2015-02-07T13:30:18.000Z</time>
      </trkpt>
      <trkpt lat="45.94363" lon="6.53943">
        <ele>2347</ele>
        <time>2015-02-07T13:30:19.000Z</time>
      </trkpt>
      <trkpt lat="45.94363" lon="6.53943">
        <ele>2348</ele>
        <time>2015-02-07T13:30:26.000Z</time>
      </trkpt>
      <trkpt lat="45.94362" lon="6.53944">
        <ele>2348.1999511719</ele>
        <time>2015-02-07T13:30:29.000Z</time>
      </trkpt>
      <trkpt lat="45.94362" lon="6.53944">
        <ele>2348.6000976562</ele>
        <time>2015-02-07T13:30:39.000Z</time>
      </trkpt>
      <trkpt lat="45.94362" lon="6.53946">
        <ele>2349</ele>
        <time>2015-02-07T13:30:44.000Z</time>
      </trkpt>
      <trkpt lat="45.94362" lon="6.53947">
        <ele>2349.1999511719</ele>
        <time>2015-02-07T13:30:45.000Z</time>
      </trkpt>
      <trkpt lat="45.94357" lon="6.5398">
        <ele>2349.1999511719</ele>
        <time>2015-02-07T13:31:01.000Z</time>
      </trkpt>
      <trkpt lat="45.94357" lon="6.5398">
        <ele>2349.6000976562</ele>
        <time>2015-02-07T13:31:14.000Z</time>
      </trkpt>
      <trkpt lat="45.94357" lon="6.5398">
        <ele>2349</ele>
        <time>2015-02-07T13:31:26.000Z</time>
      </trkpt>
      <trkpt lat="45.94357" lon="6.5398">
        <ele>2348.8000488281</ele>
        <time>2015-02-07T13:31:40.000Z</time>
      </trkpt>
      <trkpt lat="45.94357" lon="6.5398">
        <ele>2349.3999023438</ele>
        <time>2015-02-07T13:31:55.000Z</time>
      </trkpt>
      <trkpt lat="45.94357" lon="6.5398">
        <ele>2349</ele>
        <time>2015-02-07T13:32:11.000Z</time>
      </trkpt>
      <trkpt lat="45.9435" lon="6.53977">
        <ele>2349</ele>
        <time>2015-02-07T13:32:26.000Z</time>
      </trkpt>
      <trkpt lat="45.94344" lon="6.53985">
        <ele>2349</ele>
        <time>2015-02-07T13:32:56.000Z</time>
      </trkpt>
      <trkpt lat="45.94347" lon="6.5399">
        <ele>2349.1999511719</ele>
        <time>2015-02-07T13:33:05.000Z</time>
      </trkpt>
      <trkpt lat="45.94342" lon="6.53986">
        <ele>2350</ele>
        <time>2015-02-07T13:33:15.000Z</time>
      </trkpt>
      <trkpt lat="45.94338" lon="6.53985">
        <ele>2349</ele>
        <time>2015-02-07T13:33:21.000Z</time>
      </trkpt>
      <trkpt lat="45.94337" lon="6.53986">
        <ele>2349.1999511719</ele>
        <time>2015-02-07T13:33:23.000Z</time>
      </trkpt>
      <trkpt lat="45.94323" lon="6.53969">
        <ele>2349.6000976562</ele>
        <time>2015-02-07T13:33:33.000Z</time>
      </trkpt>
      <trkpt lat="45.94313" lon="6.53953">
        <ele>2350</ele>
        <time>2015-02-07T13:33:42.000Z</time>
      </trkpt>
      <trkpt lat="45.94312" lon="6.53952">
        <ele>2350</ele>
        <time>2015-02-07T13:33:43.000Z</time>
      </trkpt>
      <trkpt lat="45.94307" lon="6.53945">
        <ele>2350.6000976562</ele>
        <time>2015-02-07T13:33:51.000Z</time>
      </trkpt>
      <trkpt lat="45.94304" lon="6.53938">
        <ele>2351.1999511719</ele>
        <time>2015-02-07T13:33:57.000Z</time>
      </trkpt>
      <trkpt lat="45.94303" lon="6.53937">
        <ele>2351.1999511719</ele>
        <time>2015-02-07T13:33:58.000Z</time>
      </trkpt>
      <trkpt lat="45.943" lon="6.53937">
        <ele>2351.1999511719</ele>
        <time>2015-02-07T13:34:09.000Z</time>
      </trkpt>
      <trkpt lat="45.94301" lon="6.5394">
        <ele>2351.3999023438</ele>
        <time>2015-02-07T13:34:16.000Z</time>
      </trkpt>
      <trkpt lat="45.94291" lon="6.53936">
        <ele>2351.6000976562</ele>
        <time>2015-02-07T13:34:37.000Z</time>
      </trkpt>
      <trkpt lat="45.9436" lon="6.54">
        <ele>2354</ele>
        <time>2015-02-07T13:35:58.000Z</time>
      </trkpt>
      <trkpt lat="45.9436" lon="6.53985">
        <ele>2353.6000976562</ele>
        <time>2015-02-07T13:36:09.000Z</time>
      </trkpt>
      <trkpt lat="45.94352" lon="6.53976">
        <ele>2353.1999511719</ele>
        <time>2015-02-07T13:36:19.000Z</time>
      </trkpt>
      <trkpt lat="45.94351" lon="6.53975">
        <ele>2353.1999511719</ele>
        <time>2015-02-07T13:36:20.000Z</time>
      </trkpt>
      <trkpt lat="45.94347" lon="6.53972">
        <ele>2354.3999023438</ele>
        <time>2015-02-07T13:36:25.000Z</time>
      </trkpt>
      <trkpt lat="45.94345" lon="6.53971">
        <ele>2354.6000976562</ele>
        <time>2015-02-07T13:36:28.000Z</time>
      </trkpt>
      <trkpt lat="45.9435" lon="6.53981">
        <ele>2354.6000976562</ele>
        <time>2015-02-07T13:36:38.000Z</time>
      </trkpt>
      <trkpt lat="45.94359" lon="6.53981">
        <ele>2354.3999023438</ele>
        <time>2015-02-07T13:36:50.000Z</time>
      </trkpt>
      <trkpt lat="45.94362" lon="6.53972">
        <ele>2354.3999023438</ele>
        <time>2015-02-07T13:37:03.000Z</time>
      </trkpt>
      <trkpt lat="45.94363" lon="6.53973">
        <ele>2354.1999511719</ele>
        <time>2015-02-07T13:37:13.000Z</time>
      </trkpt>
      <trkpt lat="45.94363" lon="6.53983">
        <ele>2354.1999511719</ele>
        <time>2015-02-07T13:37:24.000Z</time>
      </trkpt>
      <trkpt lat="45.94366" lon="6.53989">
        <ele>2354</ele>
        <time>2015-02-07T13:37:36.000Z</time>
      </trkpt>
      <trkpt lat="45.94362" lon="6.53988">
        <ele>2354</ele>
        <time>2015-02-07T13:37:47.000Z</time>
      </trkpt>
      <trkpt lat="45.94362" lon="6.53988">
        <ele>2354</ele>
        <time>2015-02-07T13:38:00.000Z</time>
      </trkpt>
      <trkpt lat="45.94362" lon="6.53988">
        <ele>2353.8000488281</ele>
        <time>2015-02-07T13:38:11.000Z</time>
      </trkpt>
      <trkpt lat="45.94364" lon="6.53987">
        <ele>2353.8000488281</ele>
        <time>2015-02-07T13:38:26.000Z</time>
      </trkpt>
      <trkpt lat="45.94376" lon="6.53972">
        <ele>2353.8000488281</ele>
        <time>2015-02-07T13:38:36.000Z</time>
      </trkpt>
      <trkpt lat="45.94382" lon="6.53969">
        <ele>2353.6000976562</ele>
        <time>2015-02-07T13:38:48.000Z</time>
      </trkpt>
      <trkpt lat="45.94374" lon="6.53974">
        <ele>2353.6000976562</ele>
        <time>2015-02-07T13:38:58.000Z</time>
      </trkpt>
      <trkpt lat="45.94382" lon="6.53972">
        <ele>2353.6000976562</ele>
        <time>2015-02-07T13:39:13.000Z</time>
      </trkpt>
      <trkpt lat="45.94382" lon="6.53972">
        <ele>2353.3999023438</ele>
        <time>2015-02-07T13:39:25.000Z</time>
      </trkpt>
      <trkpt lat="45.94382" lon="6.53972">
        <ele>2353.3999023438</ele>
        <time>2015-02-07T13:39:27.000Z</time>
      </trkpt>
      <trkpt lat="45.94382" lon="6.53972">
        <ele>2353.3999023438</ele>
        <time>2015-02-07T13:39:40.000Z</time>
      </trkpt>
      <trkpt lat="45.94382" lon="6.53973">
        <ele>2353.3999023438</ele>
        <time>2015-02-07T13:40:00.000Z</time>
      </trkpt>
      <trkpt lat="45.94382" lon="6.53973">
        <ele>2353.1999511719</ele>
        <time>2015-02-07T13:40:30.000Z</time>
      </trkpt>
      <trkpt lat="45.94382" lon="6.53973">
        <ele>2353</ele>
        <time>2015-02-07T13:40:43.000Z</time>
      </trkpt>
      <trkpt lat="45.94374" lon="6.53954">
        <ele>2353.6000976562</ele>
        <time>2015-02-07T13:41:13.000Z</time>
      </trkpt>
      <trkpt lat="45.94374" lon="6.53954">
        <ele>2353.3999023438</ele>
        <time>2015-02-07T13:41:24.000Z</time>
      </trkpt>
      <trkpt lat="45.94374" lon="6.53954">
        <ele>2353.6000976562</ele>
        <time>2015-02-07T13:41:37.000Z</time>
      </trkpt>
      <trkpt lat="45.94373" lon="6.53954">
        <ele>2353.8000488281</ele>
        <time>2015-02-07T13:41:44.000Z</time>
      </trkpt>
      <trkpt lat="45.94371" lon="6.53956">
        <ele>2353.8000488281</ele>
        <time>2015-02-07T13:41:46.000Z</time>
      </trkpt>
      <trkpt lat="45.94364" lon="6.53988">
        <ele>2353.6000976562</ele>
        <time>2015-02-07T13:42:43.000Z</time>
      </trkpt>
      <trkpt lat="45.94345" lon="6.53973">
        <ele>2353.6000976562</ele>
        <time>2015-02-07T13:43:00.000Z</time>
      </trkpt>
      <trkpt lat="45.94342" lon="6.53972">
        <ele>2353.6000976562</ele>
        <time>2015-02-07T13:43:09.000Z</time>
      </trkpt>
      <trkpt lat="45.94341" lon="6.53975">
        <ele>2353</ele>
        <time>2015-02-07T13:43:19.000Z</time>
      </trkpt>
      <trkpt lat="45.94334" lon="6.53979">
        <ele>2353.1999511719</ele>
        <time>2015-02-07T13:43:25.000Z</time>
      </trkpt>
      <trkpt lat="45.94332" lon="6.53981">
        <ele>2353.1999511719</ele>
        <time>2015-02-07T13:43:26.000Z</time>
      </trkpt>
      <trkpt lat="45.94323" lon="6.53979">
        <ele>2353.1999511719</ele>
        <time>2015-02-07T13:43:39.000Z</time>
      </trkpt>
      <trkpt lat="45.94329" lon="6.53955">
        <ele>2353.1999511719</ele>
        <time>2015-02-07T13:43:50.000Z</time>
      </trkpt>
      <trkpt lat="45.94334" lon="6.53937">
        <ele>2353.1999511719</ele>
        <time>2015-02-07T13:44:04.000Z</time>
      </trkpt>
      <trkpt lat="45.94344" lon="6.53932">
        <ele>2353.1999511719</ele>
        <time>2015-02-07T13:44:21.000Z</time>
      </trkpt>
      <trkpt lat="45.94343" lon="6.53933">
        <ele>2353</ele>
        <time>2015-02-07T13:44:37.000Z</time>
      </trkpt>
      <trkpt lat="45.94343" lon="6.53933">
        <ele>2353</ele>
        <time>2015-02-07T13:44:52.000Z</time>
      </trkpt>
      <trkpt lat="45.94343" lon="6.53933">
        <ele>2353</ele>
        <time>2015-02-07T13:45:02.000Z</time>
      </trkpt>
      <trkpt lat="45.94344" lon="6.53933">
        <ele>2353.3999023438</ele>
        <time>2015-02-07T13:45:13.000Z</time>
      </trkpt>
      <trkpt lat="45.94344" lon="6.53933">
        <ele>2353.3999023438</ele>
        <time>2015-02-07T13:45:24.000Z</time>
      </trkpt>
      <trkpt lat="45.94344" lon="6.53933">
        <ele>2353.3999023438</ele>
        <time>2015-02-07T13:45:37.000Z</time>
      </trkpt>
      <trkpt lat="45.94343" lon="6.53936">
        <ele>2353.6000976562</ele>
        <time>2015-02-07T13:46:08.000Z</time>
      </trkpt>
      <trkpt lat="45.94343" lon="6.53936">
        <ele>2353.6000976562</ele>
        <time>2015-02-07T13:46:20.000Z</time>
      </trkpt>
      <trkpt lat="45.94343" lon="6.53936">
        <ele>2353.3999023438</ele>
        <time>2015-02-07T13:46:33.000Z</time>
      </trkpt>
      <trkpt lat="45.94342" lon="6.53937">
        <ele>2353.3999023438</ele>
        <time>2015-02-07T13:46:53.000Z</time>
      </trkpt>
      <trkpt lat="45.94334" lon="6.5393">
        <ele>2353.1999511719</ele>
        <time>2015-02-07T13:47:06.000Z</time>
      </trkpt>
      <trkpt lat="45.94334" lon="6.53934">
        <ele>2353.6000976562</ele>
        <time>2015-02-07T13:47:23.000Z</time>
      </trkpt>
      <trkpt lat="45.94336" lon="6.53933">
        <ele>2353.3999023438</ele>
        <time>2015-02-07T13:47:31.000Z</time>
      </trkpt>
      <trkpt lat="45.9434" lon="6.5393">
        <ele>2353.3999023438</ele>
        <time>2015-02-07T13:47:49.000Z</time>
      </trkpt>
      <trkpt lat="45.9434" lon="6.5393">
        <ele>2353.3999023438</ele>
        <time>2015-02-07T13:47:59.000Z</time>
      </trkpt>
      <trkpt lat="45.9434" lon="6.5393">
        <ele>2353.3999023438</ele>
        <time>2015-02-07T13:48:11.000Z</time>
      </trkpt>
      <trkpt lat="45.9434" lon="6.53929">
        <ele>2353.3999023438</ele>
        <time>2015-02-07T13:48:23.000Z</time>
      </trkpt>
      <trkpt lat="45.94327" lon="6.53924">
        <ele>2353.1999511719</ele>
        <time>2015-02-07T13:48:37.000Z</time>
      </trkpt>
      <trkpt lat="45.94327" lon="6.53924">
        <ele>2353.1999511719</ele>
        <time>2015-02-07T13:48:51.000Z</time>
      </trkpt>
      <trkpt lat="45.94327" lon="6.53924">
        <ele>2353.1999511719</ele>
        <time>2015-02-07T13:49:03.000Z</time>
      </trkpt>
      <trkpt lat="45.94328" lon="6.53915">
        <ele>2353.3999023438</ele>
        <time>2015-02-07T13:49:15.000Z</time>
      </trkpt>
      <trkpt lat="45.94326" lon="6.5391">
        <ele>2353.1999511719</ele>
        <time>2015-02-07T13:49:24.000Z</time>
      </trkpt>
      <trkpt lat="45.94321" lon="6.53897">
        <ele>2353.1999511719</ele>
        <time>2015-02-07T13:49:33.000Z</time>
      </trkpt>
      <trkpt lat="45.9432" lon="6.53895">
        <ele>2353</ele>
        <time>2015-02-07T13:49:40.000Z</time>
      </trkpt>
      <trkpt lat="45.9432" lon="6.53895">
        <ele>2352.8000488281</ele>
        <time>2015-02-07T13:49:48.000Z</time>
      </trkpt>
      <trkpt lat="45.9432" lon="6.53895">
        <ele>2353</ele>
        <time>2015-02-07T13:49:56.000Z</time>
      </trkpt>
      <trkpt lat="45.9432" lon="6.53895">
        <ele>2353.1999511719</ele>
        <time>2015-02-07T13:50:04.000Z</time>
      </trkpt>
      <trkpt lat="45.9432" lon="6.53895">
        <ele>2353.3999023438</ele>
        <time>2015-02-07T13:50:15.000Z</time>
      </trkpt>
      <trkpt lat="45.94319" lon="6.53895">
        <ele>2353.3999023438</ele>
        <time>2015-02-07T13:50:27.000Z</time>
      </trkpt>
      <trkpt lat="45.94312" lon="6.53891">
        <ele>2353.3999023438</ele>
        <time>2015-02-07T13:50:34.000Z</time>
      </trkpt>
      <trkpt lat="45.94294" lon="6.53891">
        <ele>2353.1999511719</ele>
        <time>2015-02-07T13:50:40.000Z</time>
      </trkpt>
      <trkpt lat="45.9429" lon="6.53892">
        <ele>2353</ele>
        <time>2015-02-07T13:50:51.000Z</time>
      </trkpt>
      <trkpt lat="45.94289" lon="6.53888">
        <ele>2353</ele>
        <time>2015-02-07T13:51:08.000Z</time>
      </trkpt>
      <trkpt lat="45.94265" lon="6.53886">
        <ele>2352.6000976562</ele>
        <time>2015-02-07T13:51:16.000Z</time>
      </trkpt>
      <trkpt lat="45.94244" lon="6.53887">
        <ele>2352.6000976562</ele>
        <time>2015-02-07T13:51:23.000Z</time>
      </trkpt>
      <trkpt lat="45.94244" lon="6.53889">
        <ele>2352.6000976562</ele>
        <time>2015-02-07T13:51:27.000Z</time>
      </trkpt>
      <trkpt lat="45.94205" lon="6.53884">
        <ele>2352.3999023438</ele>
        <time>2015-02-07T13:51:36.000Z</time>
      </trkpt>
      <trkpt lat="45.94214" lon="6.53886">
        <ele>2352.3999023438</ele>
        <time>2015-02-07T13:51:49.000Z</time>
      </trkpt>
      <trkpt lat="45.94249" lon="6.53888">
        <ele>2352.3999023438</ele>
        <time>2015-02-07T13:51:56.000Z</time>
      </trkpt>
      <trkpt lat="45.94284" lon="6.53884">
        <ele>2352.3999023438</ele>
        <time>2015-02-07T13:51:59.000Z</time>
      </trkpt>
      <trkpt lat="45.9434" lon="6.53877">
        <ele>2352.3999023438</ele>
        <time>2015-02-07T13:52:04.000Z</time>
      </trkpt>
      <trkpt lat="45.94377" lon="6.53869">
        <ele>2352.1999511719</ele>
        <time>2015-02-07T13:52:09.000Z</time>
      </trkpt>
      <trkpt lat="45.9436" lon="6.5387">
        <ele>2351.1999511719</ele>
        <time>2015-02-07T13:52:14.000Z</time>
      </trkpt>
      <trkpt lat="45.9435" lon="6.5387">
        <ele>2350.1999511719</ele>
        <time>2015-02-07T13:52:16.000Z</time>
      </trkpt>
      <trkpt lat="45.94346" lon="6.53871">
        <ele>2349.6000976562</ele>
        <time>2015-02-07T13:52:17.000Z</time>
      </trkpt>
      <trkpt lat="45.94342" lon="6.53872">
        <ele>2349.1999511719</ele>
        <time>2015-02-07T13:52:18.000Z</time>
      </trkpt>
      <trkpt lat="45.94339" lon="6.53872">
        <ele>2348</ele>
        <time>2015-02-07T13:52:20.000Z</time>
      </trkpt>
      <trkpt lat="45.94339" lon="6.53872">
        <ele>2346.8000488281</ele>
        <time>2015-02-07T13:52:21.000Z</time>
      </trkpt>
      <trkpt lat="45.94335" lon="6.53868">
        <ele>2345.3999023438</ele>
        <time>2015-02-07T13:52:23.000Z</time>
      </trkpt>
      <trkpt lat="45.94331" lon="6.53863">
        <ele>2343.8000488281</ele>
        <time>2015-02-07T13:52:25.000Z</time>
      </trkpt>
      <trkpt lat="45.94328" lon="6.53863">
        <ele>2343.1999511719</ele>
        <time>2015-02-07T13:52:26.000Z</time>
      </trkpt>
      <trkpt lat="45.94323" lon="6.53861">
        <ele>2342</ele>
        <time>2015-02-07T13:52:27.000Z</time>
      </trkpt>
      <trkpt lat="45.94319" lon="6.5386">
        <ele>2340</ele>
        <time>2015-02-07T13:52:28.000Z</time>
      </trkpt>
      <trkpt lat="45.94315" lon="6.53861">
        <ele>2338.3999023438</ele>
        <time>2015-02-07T13:52:29.000Z</time>
      </trkpt>
      <trkpt lat="45.94312" lon="6.53862">
        <ele>2337</ele>
        <time>2015-02-07T13:52:30.000Z</time>
      </trkpt>
      <trkpt lat="45.9431" lon="6.53861">
        <ele>2335.3999023438</ele>
        <time>2015-02-07T13:52:31.000Z</time>
      </trkpt>
      <trkpt lat="45.94325" lon="6.53864">
        <ele>2333.1999511719</ele>
        <time>2015-02-07T13:52:32.000Z</time>
      </trkpt>
      <trkpt lat="45.94342" lon="6.5387">
        <ele>2331.3999023438</ele>
        <time>2015-02-07T13:52:33.000Z</time>
      </trkpt>
      <trkpt lat="45.94355" lon="6.53876">
        <ele>2330</ele>
        <time>2015-02-07T13:52:34.000Z</time>
      </trkpt>
      <trkpt lat="45.94366" lon="6.53878">
        <ele>2328.1999511719</ele>
        <time>2015-02-07T13:52:35.000Z</time>
      </trkpt>
      <trkpt lat="45.94377" lon="6.53882">
        <ele>2326.1999511719</ele>
        <time>2015-02-07T13:52:36.000Z</time>
      </trkpt>
      <trkpt lat="45.94385" lon="6.53888">
        <ele>2324</ele>
        <time>2015-02-07T13:52:37.000Z</time>
      </trkpt>
      <trkpt lat="45.94387" lon="6.53889">
        <ele>2322.3999023438</ele>
        <time>2015-02-07T13:52:38.000Z</time>
      </trkpt>
      <trkpt lat="45.94392" lon="6.53889">
        <ele>2320.3999023438</ele>
        <time>2015-02-07T13:52:39.000Z</time>
      </trkpt>
      <trkpt lat="45.94404" lon="6.53891">
        <ele>2318.3999023438</ele>
        <time>2015-02-07T13:52:40.000Z</time>
      </trkpt>
      <trkpt lat="45.94414" lon="6.53892">
        <ele>2316.6000976562</ele>
        <time>2015-02-07T13:52:41.000Z</time>
      </trkpt>
      <trkpt lat="45.94423" lon="6.5389">
        <ele>2314.6000976562</ele>
        <time>2015-02-07T13:52:42.000Z</time>
      </trkpt>
      <trkpt lat="45.94432" lon="6.53891">
        <ele>2312.3999023438</ele>
        <time>2015-02-07T13:52:43.000Z</time>
      </trkpt>
      <trkpt lat="45.94441" lon="6.53892">
        <ele>2310.1999511719</ele>
        <time>2015-02-07T13:52:44.000Z</time>
      </trkpt>
      <trkpt lat="45.94449" lon="6.53891">
        <ele>2306</ele>
        <time>2015-02-07T13:52:45.000Z</time>
      </trkpt>
      <trkpt lat="45.94457" lon="6.5389">
        <ele>2303.6000976562</ele>
        <time>2015-02-07T13:52:46.000Z</time>
      </trkpt>
      <trkpt lat="45.94466" lon="6.53891">
        <ele>2301.1999511719</ele>
        <time>2015-02-07T13:52:47.000Z</time>
      </trkpt>
      <trkpt lat="45.94474" lon="6.53891">
        <ele>2299</ele>
        <time>2015-02-07T13:52:48.000Z</time>
      </trkpt>
      <trkpt lat="45.94481" lon="6.53889">
        <ele>2296.6000976562</ele>
        <time>2015-02-07T13:52:49.000Z</time>
      </trkpt>
      <trkpt lat="45.94489" lon="6.53889">
        <ele>2294.6000976562</ele>
        <time>2015-02-07T13:52:50.000Z</time>
      </trkpt>
      <trkpt lat="45.94498" lon="6.53889">
        <ele>2292.6000976562</ele>
        <time>2015-02-07T13:52:51.000Z</time>
      </trkpt>
      <trkpt lat="45.94506" lon="6.53885">
        <ele>2290.6000976562</ele>
        <time>2015-02-07T13:52:52.000Z</time>
      </trkpt>
      <trkpt lat="45.94511" lon="6.53884">
        <ele>2288.1999511719</ele>
        <time>2015-02-07T13:52:53.000Z</time>
      </trkpt>
      <trkpt lat="45.94516" lon="6.53885">
        <ele>2285.8000488281</ele>
        <time>2015-02-07T13:52:54.000Z</time>
      </trkpt>
      <trkpt lat="45.94521" lon="6.53885">
        <ele>2283.3999023438</ele>
        <time>2015-02-07T13:52:55.000Z</time>
      </trkpt>
      <trkpt lat="45.94526" lon="6.53886">
        <ele>2281.1999511719</ele>
        <time>2015-02-07T13:52:56.000Z</time>
      </trkpt>
      <trkpt lat="45.9453" lon="6.53886">
        <ele>2279.3999023438</ele>
        <time>2015-02-07T13:52:57.000Z</time>
      </trkpt>
      <trkpt lat="45.94534" lon="6.53885">
        <ele>2278.1999511719</ele>
        <time>2015-02-07T13:52:58.000Z</time>
      </trkpt>
      <trkpt lat="45.94541" lon="6.53886">
        <ele>2277.1999511719</ele>
        <time>2015-02-07T13:53:00.000Z</time>
      </trkpt>
      <trkpt lat="45.94557" lon="6.53893">
        <ele>2276.6000976562</ele>
        <time>2015-02-07T13:53:04.000Z</time>
      </trkpt>
      <trkpt lat="45.94568" lon="6.53899">
        <ele>2276.6000976562</ele>
        <time>2015-02-07T13:53:12.000Z</time>
      </trkpt>
      <trkpt lat="45.94568" lon="6.53899">
        <ele>2276.6000976562</ele>
        <time>2015-02-07T13:53:25.000Z</time>
      </trkpt>
      <trkpt lat="45.94568" lon="6.53899">
        <ele>2276.3999023438</ele>
        <time>2015-02-07T13:53:41.000Z</time>
      </trkpt>
      <trkpt lat="45.94573" lon="6.53899">
        <ele>2276.3999023438</ele>
        <time>2015-02-07T13:53:52.000Z</time>
      </trkpt>
      <trkpt lat="45.94573" lon="6.53899">
        <ele>2276.3999023438</ele>
        <time>2015-02-07T13:54:05.000Z</time>
      </trkpt>
      <trkpt lat="45.94573" lon="6.53899">
        <ele>2276.3999023438</ele>
        <time>2015-02-07T13:54:18.000Z</time>
      </trkpt>
      <trkpt lat="45.94573" lon="6.53899">
        <ele>2276.3999023438</ele>
        <time>2015-02-07T13:54:20.000Z</time>
      </trkpt>
      <trkpt lat="45.94575" lon="6.53899">
        <ele>2276.1999511719</ele>
        <time>2015-02-07T13:54:34.000Z</time>
      </trkpt>
      <trkpt lat="45.94575" lon="6.53899">
        <ele>2276.1999511719</ele>
        <time>2015-02-07T13:54:51.000Z</time>
      </trkpt>
      <trkpt lat="45.94575" lon="6.53899">
        <ele>2276.1999511719</ele>
        <time>2015-02-07T13:54:58.000Z</time>
      </trkpt>
      <trkpt lat="45.94575" lon="6.53899">
        <ele>2276.1999511719</ele>
        <time>2015-02-07T13:55:06.000Z</time>
      </trkpt>
      <trkpt lat="45.94577" lon="6.53897">
        <ele>2276.1999511719</ele>
        <time>2015-02-07T13:55:23.000Z</time>
      </trkpt>
      <trkpt lat="45.94577" lon="6.53897">
        <ele>2276</ele>
        <time>2015-02-07T13:55:36.000Z</time>
      </trkpt>
      <trkpt lat="45.9458" lon="6.53898">
        <ele>2276.1999511719</ele>
        <time>2015-02-07T13:55:52.000Z</time>
      </trkpt>
      <trkpt lat="45.9458" lon="6.53898">
        <ele>2276</ele>
        <time>2015-02-07T13:56:00.000Z</time>
      </trkpt>
      <trkpt lat="45.94588" lon="6.53906">
        <ele>2275.3999023438</ele>
        <time>2015-02-07T13:56:05.000Z</time>
      </trkpt>
      <trkpt lat="45.9459" lon="6.5391">
        <ele>2275.1999511719</ele>
        <time>2015-02-07T13:56:06.000Z</time>
      </trkpt>
      <trkpt lat="45.94592" lon="6.53914">
        <ele>2274.6000976562</ele>
        <time>2015-02-07T13:56:07.000Z</time>
      </trkpt>
      <trkpt lat="45.94594" lon="6.53916">
        <ele>2274</ele>
        <time>2015-02-07T13:56:08.000Z</time>
      </trkpt>
      <trkpt lat="45.94599" lon="6.53919">
        <ele>2273.1999511719</ele>
        <time>2015-02-07T13:56:09.000Z</time>
      </trkpt>
      <trkpt lat="45.94603" lon="6.5392">
        <ele>2272.1999511719</ele>
        <time>2015-02-07T13:56:10.000Z</time>
      </trkpt>
      <trkpt lat="45.9461" lon="6.53921">
        <ele>2270.8000488281</ele>
        <time>2015-02-07T13:56:11.000Z</time>
      </trkpt>
      <trkpt lat="45.94616" lon="6.53919">
        <ele>2269.1999511719</ele>
        <time>2015-02-07T13:56:12.000Z</time>
      </trkpt>
      <trkpt lat="45.94623" lon="6.53915">
        <ele>2267.3999023438</ele>
        <time>2015-02-07T13:56:13.000Z</time>
      </trkpt>
      <trkpt lat="45.94629" lon="6.53912">
        <ele>2265.1999511719</ele>
        <time>2015-02-07T13:56:14.000Z</time>
      </trkpt>
      <trkpt lat="45.94634" lon="6.5391">
        <ele>2262.6000976562</ele>
        <time>2015-02-07T13:56:15.000Z</time>
      </trkpt>
      <trkpt lat="45.94642" lon="6.5391">
        <ele>2259.6000976562</ele>
        <time>2015-02-07T13:56:16.000Z</time>
      </trkpt>
      <trkpt lat="45.94648" lon="6.5391">
        <ele>2256.3999023438</ele>
        <time>2015-02-07T13:56:17.000Z</time>
      </trkpt>
      <trkpt lat="45.94655" lon="6.5391">
        <ele>2253.3999023438</ele>
        <time>2015-02-07T13:56:18.000Z</time>
      </trkpt>
      <trkpt lat="45.94662" lon="6.5391">
        <ele>2251</ele>
        <time>2015-02-07T13:56:19.000Z</time>
      </trkpt>
      <trkpt lat="45.94668" lon="6.53909">
        <ele>2249</ele>
        <time>2015-02-07T13:56:20.000Z</time>
      </trkpt>
      <trkpt lat="45.94675" lon="6.53908">
        <ele>2245.1999511719</ele>
        <time>2015-02-07T13:56:21.000Z</time>
      </trkpt>
      <trkpt lat="45.94682" lon="6.53907">
        <ele>2243.3999023438</ele>
        <time>2015-02-07T13:56:22.000Z</time>
      </trkpt>
      <trkpt lat="45.94688" lon="6.53908">
        <ele>2241.3999023438</ele>
        <time>2015-02-07T13:56:23.000Z</time>
      </trkpt>
      <trkpt lat="45.94694" lon="6.53908">
        <ele>2239.3999023438</ele>
        <time>2015-02-07T13:56:24.000Z</time>
      </trkpt>
      <trkpt lat="45.947" lon="6.53906">
        <ele>2237.3999023438</ele>
        <time>2015-02-07T13:56:25.000Z</time>
      </trkpt>
      <trkpt lat="45.94705" lon="6.53907">
        <ele>2235.3999023438</ele>
        <time>2015-02-07T13:56:26.000Z</time>
      </trkpt>
      <trkpt lat="45.94709" lon="6.53907">
        <ele>2233.6000976562</ele>
        <time>2015-02-07T13:56:27.000Z</time>
      </trkpt>
      <trkpt lat="45.94709" lon="6.53907">
        <ele>2231.6000976562</ele>
        <time>2015-02-07T13:56:28.000Z</time>
      </trkpt>
      <trkpt lat="45.94706" lon="6.5391">
        <ele>2229.8000488281</ele>
        <time>2015-02-07T13:56:29.000Z</time>
      </trkpt>
      <trkpt lat="45.94706" lon="6.5391">
        <ele>2228.8000488281</ele>
        <time>2015-02-07T13:56:30.000Z</time>
      </trkpt>
      <trkpt lat="45.94706" lon="6.5391">
        <ele>2227.8000488281</ele>
        <time>2015-02-07T13:56:32.000Z</time>
      </trkpt>
      <trkpt lat="45.94706" lon="6.5391">
        <ele>2227</ele>
        <time>2015-02-07T13:56:37.000Z</time>
      </trkpt>
      <trkpt lat="45.94706" lon="6.5391">
        <ele>2227</ele>
        <time>2015-02-07T13:56:49.000Z</time>
      </trkpt>
      <trkpt lat="45.94706" lon="6.5391">
        <ele>2226.8000488281</ele>
        <time>2015-02-07T13:56:52.000Z</time>
      </trkpt>
      <trkpt lat="45.94706" lon="6.5391">
        <ele>2226.8000488281</ele>
        <time>2015-02-07T13:57:07.000Z</time>
      </trkpt>
      <trkpt lat="45.94703" lon="6.53912">
        <ele>2227</ele>
        <time>2015-02-07T13:57:23.000Z</time>
      </trkpt>
      <trkpt lat="45.94703" lon="6.53912">
        <ele>2226.6000976562</ele>
        <time>2015-02-07T13:57:41.000Z</time>
      </trkpt>
      <trkpt lat="45.947" lon="6.53913">
        <ele>2226.6000976562</ele>
        <time>2015-02-07T13:57:55.000Z</time>
      </trkpt>
      <trkpt lat="45.947" lon="6.53913">
        <ele>2226.6000976562</ele>
        <time>2015-02-07T13:58:09.000Z</time>
      </trkpt>
      <trkpt lat="45.947" lon="6.53913">
        <ele>2226.3999023438</ele>
        <time>2015-02-07T13:58:24.000Z</time>
      </trkpt>
      <trkpt lat="45.94699" lon="6.53913">
        <ele>2226.3999023438</ele>
        <time>2015-02-07T13:58:42.000Z</time>
      </trkpt>
      <trkpt lat="45.94699" lon="6.53913">
        <ele>2226.1999511719</ele>
        <time>2015-02-07T13:58:57.000Z</time>
      </trkpt>
      <trkpt lat="45.94696" lon="6.53915">
        <ele>2226.1999511719</ele>
        <time>2015-02-07T13:59:14.000Z</time>
      </trkpt>
      <trkpt lat="45.94696" lon="6.53915">
        <ele>2226</ele>
        <time>2015-02-07T13:59:26.000Z</time>
      </trkpt>
      <trkpt lat="45.94696" lon="6.53915">
        <ele>2226</ele>
        <time>2015-02-07T13:59:37.000Z</time>
      </trkpt>
      <trkpt lat="45.94696" lon="6.53916">
        <ele>2226</ele>
        <time>2015-02-07T13:59:50.000Z</time>
      </trkpt>
      <trkpt lat="45.94696" lon="6.53916">
        <ele>2226.1999511719</ele>
        <time>2015-02-07T14:00:03.000Z</time>
      </trkpt>
      <trkpt lat="45.94696" lon="6.53916">
        <ele>2225.8000488281</ele>
        <time>2015-02-07T14:00:20.000Z</time>
      </trkpt>
      <trkpt lat="45.94696" lon="6.53917">
        <ele>2225.8000488281</ele>
        <time>2015-02-07T14:00:37.000Z</time>
      </trkpt>
      <trkpt lat="45.94696" lon="6.53917">
        <ele>2225.8000488281</ele>
        <time>2015-02-07T14:00:51.000Z</time>
      </trkpt>
      <trkpt lat="45.94696" lon="6.53917">
        <ele>2225.6000976562</ele>
        <time>2015-02-07T14:00:57.000Z</time>
      </trkpt>
      <trkpt lat="45.94696" lon="6.53917">
        <ele>2225.8000488281</ele>
        <time>2015-02-07T14:01:03.000Z</time>
      </trkpt>
      <trkpt lat="45.94695" lon="6.53917">
        <ele>2225.6000976562</ele>
        <time>2015-02-07T14:01:16.000Z</time>
      </trkpt>
      <trkpt lat="45.94695" lon="6.53917">
        <ele>2225.3999023438</ele>
        <time>2015-02-07T14:01:29.000Z</time>
      </trkpt>
      <trkpt lat="45.94695" lon="6.53917">
        <ele>2225.6000976562</ele>
        <time>2015-02-07T14:01:42.000Z</time>
      </trkpt>
      <trkpt lat="45.94694" lon="6.53919">
        <ele>2225.3999023438</ele>
        <time>2015-02-07T14:02:00.000Z</time>
      </trkpt>
      <trkpt lat="45.94694" lon="6.53919">
        <ele>2225.6000976562</ele>
        <time>2015-02-07T14:02:17.000Z</time>
      </trkpt>
      <trkpt lat="45.94694" lon="6.53919">
        <ele>2225.3999023438</ele>
        <time>2015-02-07T14:02:33.000Z</time>
      </trkpt>
      <trkpt lat="45.94694" lon="6.53919">
        <ele>2225.3999023438</ele>
        <time>2015-02-07T14:02:46.000Z</time>
      </trkpt>
      <trkpt lat="45.94698" lon="6.53917">
        <ele>2225</ele>
        <time>2015-02-07T14:02:53.000Z</time>
      </trkpt>
      <trkpt lat="45.94706" lon="6.53915">
        <ele>2224.8000488281</ele>
        <time>2015-02-07T14:02:55.000Z</time>
      </trkpt>
      <trkpt lat="45.9471" lon="6.53912">
        <ele>2224.1999511719</ele>
        <time>2015-02-07T14:02:56.000Z</time>
      </trkpt>
      <trkpt lat="45.94714" lon="6.53912">
        <ele>2223.3999023438</ele>
        <time>2015-02-07T14:02:57.000Z</time>
      </trkpt>
      <trkpt lat="45.94715" lon="6.53913">
        <ele>2222.3999023438</ele>
        <time>2015-02-07T14:02:58.000Z</time>
      </trkpt>
      <trkpt lat="45.94716" lon="6.53912">
        <ele>2221.1999511719</ele>
        <time>2015-02-07T14:02:59.000Z</time>
      </trkpt>
      <trkpt lat="45.94718" lon="6.53913">
        <ele>2220</ele>
        <time>2015-02-07T14:03:00.000Z</time>
      </trkpt>
      <trkpt lat="45.94718" lon="6.53913">
        <ele>2218.8000488281</ele>
        <time>2015-02-07T14:03:01.000Z</time>
      </trkpt>
      <trkpt lat="45.94718" lon="6.53913">
        <ele>2217.8000488281</ele>
        <time>2015-02-07T14:03:03.000Z</time>
      </trkpt>
      <trkpt lat="45.94718" lon="6.53913">
        <ele>2217.3999023438</ele>
        <time>2015-02-07T14:03:06.000Z</time>
      </trkpt>
      <trkpt lat="45.94718" lon="6.53913">
        <ele>2217.1999511719</ele>
        <time>2015-02-07T14:03:22.000Z</time>
      </trkpt>
      <trkpt lat="45.94718" lon="6.53913">
        <ele>2217.1999511719</ele>
        <time>2015-02-07T14:03:34.000Z</time>
      </trkpt>
      <trkpt lat="45.94717" lon="6.53913">
        <ele>2217.3999023438</ele>
        <time>2015-02-07T14:03:46.000Z</time>
      </trkpt>
      <trkpt lat="45.94717" lon="6.53913">
        <ele>2217.1999511719</ele>
        <time>2015-02-07T14:03:59.000Z</time>
      </trkpt>
      <trkpt lat="45.94717" lon="6.53913">
        <ele>2217.1999511719</ele>
        <time>2015-02-07T14:04:09.000Z</time>
      </trkpt>
      <trkpt lat="45.94717" lon="6.53913">
        <ele>2217.1999511719</ele>
        <time>2015-02-07T14:04:28.000Z</time>
      </trkpt>
      <trkpt lat="45.94717" lon="6.53913">
        <ele>2217.1999511719</ele>
        <time>2015-02-07T14:04:41.000Z</time>
      </trkpt>
      <trkpt lat="45.94717" lon="6.53913">
        <ele>2217.1999511719</ele>
        <time>2015-02-07T14:04:54.000Z</time>
      </trkpt>
      <trkpt lat="45.94718" lon="6.53916">
        <ele>2217.1999511719</ele>
        <time>2015-02-07T14:05:10.000Z</time>
      </trkpt>
      <trkpt lat="45.94718" lon="6.53916">
        <ele>2217.1999511719</ele>
        <time>2015-02-07T14:05:23.000Z</time>
      </trkpt>
      <trkpt lat="45.94718" lon="6.53916">
        <ele>2217.1999511719</ele>
        <time>2015-02-07T14:05:38.000Z</time>
      </trkpt>
      <trkpt lat="45.94717" lon="6.53916">
        <ele>2217.3999023438</ele>
        <time>2015-02-07T14:05:50.000Z</time>
      </trkpt>
      <trkpt lat="45.94717" lon="6.53916">
        <ele>2217.3999023438</ele>
        <time>2015-02-07T14:06:05.000Z</time>
      </trkpt>
      <trkpt lat="45.94717" lon="6.53916">
        <ele>2217.3999023438</ele>
        <time>2015-02-07T14:06:18.000Z</time>
      </trkpt>
      <trkpt lat="45.94717" lon="6.53916">
        <ele>2217.6000976562</ele>
        <time>2015-02-07T14:06:27.000Z</time>
      </trkpt>
      <trkpt lat="45.94717" lon="6.53916">
        <ele>2217.3999023438</ele>
        <time>2015-02-07T14:06:38.000Z</time>
      </trkpt>
      <trkpt lat="45.94717" lon="6.53916">
        <ele>2217.3999023438</ele>
        <time>2015-02-07T14:06:53.000Z</time>
      </trkpt>
      <trkpt lat="45.94718" lon="6.53918">
        <ele>2217.3999023438</ele>
        <time>2015-02-07T14:07:05.000Z</time>
      </trkpt>
      <trkpt lat="45.94718" lon="6.53918">
        <ele>2217.3999023438</ele>
        <time>2015-02-07T14:07:21.000Z</time>
      </trkpt>
      <trkpt lat="45.94718" lon="6.53918">
        <ele>2217.3999023438</ele>
        <time>2015-02-07T14:07:31.000Z</time>
      </trkpt>
      <trkpt lat="45.94717" lon="6.53918">
        <ele>2217.3999023438</ele>
        <time>2015-02-07T14:07:46.000Z</time>
      </trkpt>
      <trkpt lat="45.94717" lon="6.53918">
        <ele>2217.1999511719</ele>
        <time>2015-02-07T14:07:57.000Z</time>
      </trkpt>
      <trkpt lat="45.94717" lon="6.53918">
        <ele>2217.3999023438</ele>
        <time>2015-02-07T14:08:11.000Z</time>
      </trkpt>
      <trkpt lat="45.94717" lon="6.53918">
        <ele>2217.3999023438</ele>
        <time>2015-02-07T14:08:23.000Z</time>
      </trkpt>
      <trkpt lat="45.94719" lon="6.53921">
        <ele>2217.3999023438</ele>
        <time>2015-02-07T14:08:32.000Z</time>
      </trkpt>
      <trkpt lat="45.94719" lon="6.53921">
        <ele>2217.1999511719</ele>
        <time>2015-02-07T14:08:44.000Z</time>
      </trkpt>
      <trkpt lat="45.94719" lon="6.53921">
        <ele>2217.1999511719</ele>
        <time>2015-02-07T14:08:57.000Z</time>
      </trkpt>
      <trkpt lat="45.94719" lon="6.53921">
        <ele>2217.1999511719</ele>
        <time>2015-02-07T14:09:06.000Z</time>
      </trkpt>
      <trkpt lat="45.94719" lon="6.5392">
        <ele>2217</ele>
        <time>2015-02-07T14:09:22.000Z</time>
      </trkpt>
      <trkpt lat="45.94719" lon="6.5392">
        <ele>2217</ele>
        <time>2015-02-07T14:09:33.000Z</time>
      </trkpt>
      <trkpt lat="45.94719" lon="6.5392">
        <ele>2217</ele>
        <time>2015-02-07T14:09:43.000Z</time>
      </trkpt>
      <trkpt lat="45.94719" lon="6.53921">
        <ele>2216.8000488281</ele>
        <time>2015-02-07T14:09:56.000Z</time>
      </trkpt>
      <trkpt lat="45.94719" lon="6.53921">
        <ele>2216.8000488281</ele>
        <time>2015-02-07T14:10:08.000Z</time>
      </trkpt>
      <trkpt lat="45.94719" lon="6.53921">
        <ele>2216.8000488281</ele>
        <time>2015-02-07T14:10:20.000Z</time>
      </trkpt>
      <trkpt lat="45.94719" lon="6.53921">
        <ele>2216.8000488281</ele>
        <time>2015-02-07T14:10:22.000Z</time>
      </trkpt>
      <trkpt lat="45.94719" lon="6.53923">
        <ele>2216.6000976562</ele>
        <time>2015-02-07T14:10:34.000Z</time>
      </trkpt>
      <trkpt lat="45.94719" lon="6.53923">
        <ele>2216.3999023438</ele>
        <time>2015-02-07T14:10:47.000Z</time>
      </trkpt>
      <trkpt lat="45.94719" lon="6.53923">
        <ele>2216.3999023438</ele>
        <time>2015-02-07T14:10:59.000Z</time>
      </trkpt>
      <trkpt lat="45.94719" lon="6.53923">
        <ele>2216.3999023438</ele>
        <time>2015-02-07T14:11:14.000Z</time>
      </trkpt>
      <trkpt lat="45.9472" lon="6.53925">
        <ele>2216.3999023438</ele>
        <time>2015-02-07T14:11:21.000Z</time>
      </trkpt>
      <trkpt lat="45.94722" lon="6.53923">
        <ele>2216.1999511719</ele>
        <time>2015-02-07T14:11:22.000Z</time>
      </trkpt>
      <trkpt lat="45.94729" lon="6.53914">
        <ele>2215.8000488281</ele>
        <time>2015-02-07T14:11:25.000Z</time>
      </trkpt>
      <trkpt lat="45.94731" lon="6.53914">
        <ele>2215</ele>
        <time>2015-02-07T14:11:26.000Z</time>
      </trkpt>
      <trkpt lat="45.94733" lon="6.53914">
        <ele>2213.8000488281</ele>
        <time>2015-02-07T14:11:27.000Z</time>
      </trkpt>
      <trkpt lat="45.94734" lon="6.53913">
        <ele>2212.6000976562</ele>
        <time>2015-02-07T14:11:28.000Z</time>
      </trkpt>
      <trkpt lat="45.94734" lon="6.53913">
        <ele>2211.6000976562</ele>
        <time>2015-02-07T14:11:29.000Z</time>
      </trkpt>
      <trkpt lat="45.94734" lon="6.53913">
        <ele>2210.8000488281</ele>
        <time>2015-02-07T14:11:30.000Z</time>
      </trkpt>
      <trkpt lat="45.94734" lon="6.53913">
        <ele>2209.8000488281</ele>
        <time>2015-02-07T14:11:32.000Z</time>
      </trkpt>
      <trkpt lat="45.94734" lon="6.53913">
        <ele>2209.1999511719</ele>
        <time>2015-02-07T14:11:36.000Z</time>
      </trkpt>
      <trkpt lat="45.94734" lon="6.53913">
        <ele>2209.1999511719</ele>
        <time>2015-02-07T14:11:46.000Z</time>
      </trkpt>
      <trkpt lat="45.94735" lon="6.53914">
        <ele>2209.3999023438</ele>
        <time>2015-02-07T14:11:54.000Z</time>
      </trkpt>
      <trkpt lat="45.94738" lon="6.53917">
        <ele>2209.3999023438</ele>
        <time>2015-02-07T14:11:55.000Z</time>
      </trkpt>
      <trkpt lat="45.94741" lon="6.5391">
        <ele>2209.1999511719</ele>
        <time>2015-02-07T14:11:57.000Z</time>
      </trkpt>
      <trkpt lat="45.9474" lon="6.53903">
        <ele>2208.6000976562</ele>
        <time>2015-02-07T14:11:58.000Z</time>
      </trkpt>
      <trkpt lat="45.94738" lon="6.5389">
        <ele>2206.3999023438</ele>
        <time>2015-02-07T14:12:00.000Z</time>
      </trkpt>
      <trkpt lat="45.94738" lon="6.53883">
        <ele>2205</ele>
        <time>2015-02-07T14:12:01.000Z</time>
      </trkpt>
      <trkpt lat="45.94736" lon="6.53879">
        <ele>2203.6000976562</ele>
        <time>2015-02-07T14:12:02.000Z</time>
      </trkpt>
      <trkpt lat="45.94734" lon="6.53877">
        <ele>2202.1999511719</ele>
        <time>2015-02-07T14:12:03.000Z</time>
      </trkpt>
      <trkpt lat="45.94732" lon="6.53875">
        <ele>2201</ele>
        <time>2015-02-07T14:12:04.000Z</time>
      </trkpt>
      <trkpt lat="45.94731" lon="6.53875">
        <ele>2199.8000488281</ele>
        <time>2015-02-07T14:12:05.000Z</time>
      </trkpt>
      <trkpt lat="45.94728" lon="6.53873">
        <ele>2198.6000976562</ele>
        <time>2015-02-07T14:12:07.000Z</time>
      </trkpt>
      <trkpt lat="45.94726" lon="6.53872">
        <ele>2198.1999511719</ele>
        <time>2015-02-07T14:12:09.000Z</time>
      </trkpt>
      <trkpt lat="45.9471" lon="6.53868">
        <ele>2197.6000976562</ele>
        <time>2015-02-07T14:12:15.000Z</time>
      </trkpt>
      <trkpt lat="45.94696" lon="6.53862">
        <ele>2197.1999511719</ele>
        <time>2015-02-07T14:12:17.000Z</time>
      </trkpt>
      <trkpt lat="45.94689" lon="6.53857">
        <ele>2197</ele>
        <time>2015-02-07T14:12:18.000Z</time>
      </trkpt>
      <trkpt lat="45.94677" lon="6.53846">
        <ele>2196.1999511719</ele>
        <time>2015-02-07T14:12:20.000Z</time>
      </trkpt>
      <trkpt lat="45.94671" lon="6.5384">
        <ele>2195</ele>
        <time>2015-02-07T14:12:21.000Z</time>
      </trkpt>
      <trkpt lat="45.94666" lon="6.53833">
        <ele>2192</ele>
        <time>2015-02-07T14:12:22.000Z</time>
      </trkpt>
      <trkpt lat="45.94665" lon="6.53826">
        <ele>2190.1999511719</ele>
        <time>2015-02-07T14:12:23.000Z</time>
      </trkpt>
      <trkpt lat="45.9467" lon="6.53819">
        <ele>2187.8000488281</ele>
        <time>2015-02-07T14:12:24.000Z</time>
      </trkpt>
      <trkpt lat="45.94672" lon="6.53811">
        <ele>2185.1999511719</ele>
        <time>2015-02-07T14:12:25.000Z</time>
      </trkpt>
      <trkpt lat="45.94675" lon="6.53802">
        <ele>2182.3999023438</ele>
        <time>2015-02-07T14:12:26.000Z</time>
      </trkpt>
      <trkpt lat="45.94678" lon="6.53792">
        <ele>2179.8000488281</ele>
        <time>2015-02-07T14:12:27.000Z</time>
      </trkpt>
      <trkpt lat="45.94682" lon="6.53784">
        <ele>2177.3999023438</ele>
        <time>2015-02-07T14:12:28.000Z</time>
      </trkpt>
      <trkpt lat="45.94688" lon="6.53775">
        <ele>2174.8000488281</ele>
        <time>2015-02-07T14:12:29.000Z</time>
      </trkpt>
      <trkpt lat="45.94694" lon="6.53766">
        <ele>2172</ele>
        <time>2015-02-07T14:12:30.000Z</time>
      </trkpt>
      <trkpt lat="45.94703" lon="6.53758">
        <ele>2169.1999511719</ele>
        <time>2015-02-07T14:12:31.000Z</time>
      </trkpt>
      <trkpt lat="45.9471" lon="6.53747">
        <ele>2166.1999511719</ele>
        <time>2015-02-07T14:12:32.000Z</time>
      </trkpt>
      <trkpt lat="45.94717" lon="6.53736">
        <ele>2162.8000488281</ele>
        <time>2015-02-07T14:12:33.000Z</time>
      </trkpt>
      <trkpt lat="45.94724" lon="6.53725">
        <ele>2159.8000488281</ele>
        <time>2015-02-07T14:12:34.000Z</time>
      </trkpt>
      <trkpt lat="45.94731" lon="6.53714">
        <ele>2156.8000488281</ele>
        <time>2015-02-07T14:12:35.000Z</time>
      </trkpt>
      <trkpt lat="45.94737" lon="6.53701">
        <ele>2153.8000488281</ele>
        <time>2015-02-07T14:12:36.000Z</time>
      </trkpt>
      <trkpt lat="45.94742" lon="6.5369">
        <ele>2150.6000976562</ele>
        <time>2015-02-07T14:12:37.000Z</time>
      </trkpt>
      <trkpt lat="45.94748" lon="6.53676">
        <ele>2147.3999023438</ele>
        <time>2015-02-07T14:12:38.000Z</time>
      </trkpt>
      <trkpt lat="45.94754" lon="6.53662">
        <ele>2144.6000976562</ele>
        <time>2015-02-07T14:12:39.000Z</time>
      </trkpt>
      <trkpt lat="45.94759" lon="6.53649">
        <ele>2141.3999023438</ele>
        <time>2015-02-07T14:12:40.000Z</time>
      </trkpt>
      <trkpt lat="45.94767" lon="6.53642">
        <ele>2138.1999511719</ele>
        <time>2015-02-07T14:12:41.000Z</time>
      </trkpt>
      <trkpt lat="45.94772" lon="6.53634">
        <ele>2134.6000976562</ele>
        <time>2015-02-07T14:12:42.000Z</time>
      </trkpt>
      <trkpt lat="45.94779" lon="6.53625">
        <ele>2131</ele>
        <time>2015-02-07T14:12:43.000Z</time>
      </trkpt>
      <trkpt lat="45.94784" lon="6.53619">
        <ele>2128.1999511719</ele>
        <time>2015-02-07T14:12:44.000Z</time>
      </trkpt>
      <trkpt lat="45.94789" lon="6.53612">
        <ele>2125.8000488281</ele>
        <time>2015-02-07T14:12:45.000Z</time>
      </trkpt>
      <trkpt lat="45.94793" lon="6.53606">
        <ele>2121.8000488281</ele>
        <time>2015-02-07T14:12:46.000Z</time>
      </trkpt>
      <trkpt lat="45.94796" lon="6.53598">
        <ele>2119.8000488281</ele>
        <time>2015-02-07T14:12:47.000Z</time>
      </trkpt>
      <trkpt lat="45.94799" lon="6.53591">
        <ele>2118</ele>
        <time>2015-02-07T14:12:48.000Z</time>
      </trkpt>
      <trkpt lat="45.94803" lon="6.53585">
        <ele>2116</ele>
        <time>2015-02-07T14:12:49.000Z</time>
      </trkpt>
      <trkpt lat="45.94809" lon="6.53579">
        <ele>2113.6000976562</ele>
        <time>2015-02-07T14:12:50.000Z</time>
      </trkpt>
      <trkpt lat="45.94814" lon="6.53572">
        <ele>2111.3999023438</ele>
        <time>2015-02-07T14:12:51.000Z</time>
      </trkpt>
      <trkpt lat="45.94817" lon="6.53569">
        <ele>2109.3999023438</ele>
        <time>2015-02-07T14:12:52.000Z</time>
      </trkpt>
      <trkpt lat="45.94818" lon="6.53566">
        <ele>2107.3999023438</ele>
        <time>2015-02-07T14:12:53.000Z</time>
      </trkpt>
      <trkpt lat="45.94818" lon="6.53564">
        <ele>2105.3999023438</ele>
        <time>2015-02-07T14:12:54.000Z</time>
      </trkpt>
      <trkpt lat="45.94819" lon="6.53561">
        <ele>2103.6000976562</ele>
        <time>2015-02-07T14:12:55.000Z</time>
      </trkpt>
      <trkpt lat="45.94818" lon="6.53559">
        <ele>2102.1999511719</ele>
        <time>2015-02-07T14:12:56.000Z</time>
      </trkpt>
      <trkpt lat="45.94819" lon="6.53557">
        <ele>2101</ele>
        <time>2015-02-07T14:12:58.000Z</time>
      </trkpt>
      <trkpt lat="45.94819" lon="6.53556">
        <ele>2100.6000976562</ele>
        <time>2015-02-07T14:12:59.000Z</time>
      </trkpt>
      <trkpt lat="45.94819" lon="6.53556">
        <ele>2100.3999023438</ele>
        <time>2015-02-07T14:13:06.000Z</time>
      </trkpt>
      <trkpt lat="45.94819" lon="6.53554">
        <ele>2100.6000976562</ele>
        <time>2015-02-07T14:13:12.000Z</time>
      </trkpt>
      <trkpt lat="45.94824" lon="6.53555">
        <ele>2100.3999023438</ele>
        <time>2015-02-07T14:13:13.000Z</time>
      </trkpt>
      <trkpt lat="45.94834" lon="6.53553">
        <ele>2099.3999023438</ele>
        <time>2015-02-07T14:13:15.000Z</time>
      </trkpt>
      <trkpt lat="45.9484" lon="6.5355">
        <ele>2098.3999023438</ele>
        <time>2015-02-07T14:13:16.000Z</time>
      </trkpt>
      <trkpt lat="45.94849" lon="6.53551">
        <ele>2097.1999511719</ele>
        <time>2015-02-07T14:13:17.000Z</time>
      </trkpt>
      <trkpt lat="45.94858" lon="6.5355">
        <ele>2095.6000976562</ele>
        <time>2015-02-07T14:13:18.000Z</time>
      </trkpt>
      <trkpt lat="45.94865" lon="6.53544">
        <ele>2093.3999023438</ele>
        <time>2015-02-07T14:13:19.000Z</time>
      </trkpt>
      <trkpt lat="45.94872" lon="6.53539">
        <ele>2091</ele>
        <time>2015-02-07T14:13:20.000Z</time>
      </trkpt>
      <trkpt lat="45.94879" lon="6.53534">
        <ele>2088.6000976562</ele>
        <time>2015-02-07T14:13:21.000Z</time>
      </trkpt>
      <trkpt lat="45.94885" lon="6.53527">
        <ele>2086.3999023438</ele>
        <time>2015-02-07T14:13:22.000Z</time>
      </trkpt>
      <trkpt lat="45.9489" lon="6.53521">
        <ele>2084</ele>
        <time>2015-02-07T14:13:23.000Z</time>
      </trkpt>
      <trkpt lat="45.94894" lon="6.53516">
        <ele>2081.3999023438</ele>
        <time>2015-02-07T14:13:24.000Z</time>
      </trkpt>
      <trkpt lat="45.94901" lon="6.53511">
        <ele>2078.6000976562</ele>
        <time>2015-02-07T14:13:25.000Z</time>
      </trkpt>
      <trkpt lat="45.94907" lon="6.53506">
        <ele>2076</ele>
        <time>2015-02-07T14:13:26.000Z</time>
      </trkpt>
      <trkpt lat="45.94911" lon="6.53501">
        <ele>2073.1999511719</ele>
        <time>2015-02-07T14:13:27.000Z</time>
      </trkpt>
      <trkpt lat="45.94917" lon="6.53495">
        <ele>2070.3999023438</ele>
        <time>2015-02-07T14:13:28.000Z</time>
      </trkpt>
      <trkpt lat="45.94922" lon="6.53489">
        <ele>2067.6000976562</ele>
        <time>2015-02-07T14:13:29.000Z</time>
      </trkpt>
      <trkpt lat="45.94928" lon="6.53484">
        <ele>2064.8000488281</ele>
        <time>2015-02-07T14:13:30.000Z</time>
      </trkpt>
      <trkpt lat="45.94932" lon="6.53478">
        <ele>2062</ele>
        <time>2015-02-07T14:13:31.000Z</time>
      </trkpt>
      <trkpt lat="45.94937" lon="6.53472">
        <ele>2059</ele>
        <time>2015-02-07T14:13:32.000Z</time>
      </trkpt>
      <trkpt lat="45.94942" lon="6.53465">
        <ele>2056</ele>
        <time>2015-02-07T14:13:33.000Z</time>
      </trkpt>
      <trkpt lat="45.94947" lon="6.53456">
        <ele>2049.8000488281</ele>
        <time>2015-02-07T14:13:34.000Z</time>
      </trkpt>
      <trkpt lat="45.94953" lon="6.53448">
        <ele>2046.5999755859</ele>
        <time>2015-02-07T14:13:35.000Z</time>
      </trkpt>
      <trkpt lat="45.94959" lon="6.53438">
        <ele>2043.1999511719</ele>
        <time>2015-02-07T14:13:36.000Z</time>
      </trkpt>
      <trkpt lat="45.94965" lon="6.53428">
        <ele>2039.8000488281</ele>
        <time>2015-02-07T14:13:37.000Z</time>
      </trkpt>
      <trkpt lat="45.94969" lon="6.53419">
        <ele>2036.1999511719</ele>
        <time>2015-02-07T14:13:38.000Z</time>
      </trkpt>
      <trkpt lat="45.94976" lon="6.53411">
        <ele>2032.5999755859</ele>
        <time>2015-02-07T14:13:39.000Z</time>
      </trkpt>
      <trkpt lat="45.94982" lon="6.53402">
        <ele>2029.1999511719</ele>
        <time>2015-02-07T14:13:40.000Z</time>
      </trkpt>
      <trkpt lat="45.94986" lon="6.53394">
        <ele>2026</ele>
        <time>2015-02-07T14:13:41.000Z</time>
      </trkpt>
      <trkpt lat="45.9499" lon="6.53384">
        <ele>2022.8000488281</ele>
        <time>2015-02-07T14:13:42.000Z</time>
      </trkpt>
      <trkpt lat="45.94994" lon="6.53373">
        <ele>2019.8000488281</ele>
        <time>2015-02-07T14:13:43.000Z</time>
      </trkpt>
      <trkpt lat="45.94999" lon="6.53359">
        <ele>2016.4000244141</ele>
        <time>2015-02-07T14:13:44.000Z</time>
      </trkpt>
      <trkpt lat="45.95002" lon="6.53346">
        <ele>2013</ele>
        <time>2015-02-07T14:13:45.000Z</time>
      </trkpt>
      <trkpt lat="45.95006" lon="6.53333">
        <ele>2009.8000488281</ele>
        <time>2015-02-07T14:13:46.000Z</time>
      </trkpt>
      <trkpt lat="45.95009" lon="6.53318">
        <ele>2007</ele>
        <time>2015-02-07T14:13:47.000Z</time>
      </trkpt>
      <trkpt lat="45.95013" lon="6.53304">
        <ele>2004</ele>
        <time>2015-02-07T14:13:48.000Z</time>
      </trkpt>
      <trkpt lat="45.95018" lon="6.53288">
        <ele>2001.1999511719</ele>
        <time>2015-02-07T14:13:49.000Z</time>
      </trkpt>
      <trkpt lat="45.95023" lon="6.53273">
        <ele>1998.4000244141</ele>
        <time>2015-02-07T14:13:50.000Z</time>
      </trkpt>
      <trkpt lat="45.95028" lon="6.53257">
        <ele>1995.4000244141</ele>
        <time>2015-02-07T14:13:51.000Z</time>
      </trkpt>
      <trkpt lat="45.95032" lon="6.53243">
        <ele>1992.5999755859</ele>
        <time>2015-02-07T14:13:52.000Z</time>
      </trkpt>
      <trkpt lat="45.95036" lon="6.5323">
        <ele>1989.5999755859</ele>
        <time>2015-02-07T14:13:53.000Z</time>
      </trkpt>
      <trkpt lat="45.95039" lon="6.53213">
        <ele>1986.4000244141</ele>
        <time>2015-02-07T14:13:54.000Z</time>
      </trkpt>
      <trkpt lat="45.95039" lon="6.53199">
        <ele>1983.4000244141</ele>
        <time>2015-02-07T14:13:55.000Z</time>
      </trkpt>
      <trkpt lat="45.95039" lon="6.53185">
        <ele>1980</ele>
        <time>2015-02-07T14:13:56.000Z</time>
      </trkpt>
      <trkpt lat="45.95038" lon="6.53171">
        <ele>1976.5999755859</ele>
        <time>2015-02-07T14:13:57.000Z</time>
      </trkpt>
      <trkpt lat="45.95037" lon="6.5316">
        <ele>1970</ele>
        <time>2015-02-07T14:13:58.000Z</time>
      </trkpt>
      <trkpt lat="45.95035" lon="6.53153">
        <ele>1967.1999511719</ele>
        <time>2015-02-07T14:13:59.000Z</time>
      </trkpt>
      <trkpt lat="45.95033" lon="6.5315">
        <ele>1964.8000488281</ele>
        <time>2015-02-07T14:14:00.000Z</time>
      </trkpt>
      <trkpt lat="45.95038" lon="6.53153">
        <ele>1962.8000488281</ele>
        <time>2015-02-07T14:14:01.000Z</time>
      </trkpt>
      <trkpt lat="45.9504" lon="6.53155">
        <ele>1961.1999511719</ele>
        <time>2015-02-07T14:14:02.000Z</time>
      </trkpt>
      <trkpt lat="45.95045" lon="6.53159">
        <ele>1959.8000488281</ele>
        <time>2015-02-07T14:14:04.000Z</time>
      </trkpt>
      <trkpt lat="45.95049" lon="6.53162">
        <ele>1959</ele>
        <time>2015-02-07T14:14:06.000Z</time>
      </trkpt>
      <trkpt lat="45.95052" lon="6.53166">
        <ele>1958.8000488281</ele>
        <time>2015-02-07T14:14:08.000Z</time>
      </trkpt>
      <trkpt lat="45.95059" lon="6.53171">
        <ele>1958.5999755859</ele>
        <time>2015-02-07T14:14:16.000Z</time>
      </trkpt>
      <trkpt lat="45.95068" lon="6.53175">
        <ele>1958.5999755859</ele>
        <time>2015-02-07T14:14:32.000Z</time>
      </trkpt>
      <trkpt lat="45.95068" lon="6.53173">
        <ele>1958.5999755859</ele>
        <time>2015-02-07T14:14:33.000Z</time>
      </trkpt>
      <trkpt lat="45.95067" lon="6.53166">
        <ele>1958.4000244141</ele>
        <time>2015-02-07T14:14:35.000Z</time>
      </trkpt>
      <trkpt lat="45.95069" lon="6.53154">
        <ele>1956.8000488281</ele>
        <time>2015-02-07T14:14:38.000Z</time>
      </trkpt>
      <trkpt lat="45.95072" lon="6.53147">
        <ele>1955.4000244141</ele>
        <time>2015-02-07T14:14:39.000Z</time>
      </trkpt>
      <trkpt lat="45.95075" lon="6.53143">
        <ele>1953.5999755859</ele>
        <time>2015-02-07T14:14:40.000Z</time>
      </trkpt>
      <trkpt lat="45.95078" lon="6.53136">
        <ele>1951.4000244141</ele>
        <time>2015-02-07T14:14:41.000Z</time>
      </trkpt>
      <trkpt lat="45.95082" lon="6.53127">
        <ele>1948.5999755859</ele>
        <time>2015-02-07T14:14:42.000Z</time>
      </trkpt>
      <trkpt lat="45.95084" lon="6.53118">
        <ele>1945.4000244141</ele>
        <time>2015-02-07T14:14:43.000Z</time>
      </trkpt>
      <trkpt lat="45.95086" lon="6.53108">
        <ele>1942.1999511719</ele>
        <time>2015-02-07T14:14:44.000Z</time>
      </trkpt>
      <trkpt lat="45.95088" lon="6.53099">
        <ele>1938.8000488281</ele>
        <time>2015-02-07T14:14:45.000Z</time>
      </trkpt>
      <trkpt lat="45.9509" lon="6.5309">
        <ele>1932</ele>
        <time>2015-02-07T14:14:46.000Z</time>
      </trkpt>
      <trkpt lat="45.95089" lon="6.53081">
        <ele>1928.4000244141</ele>
        <time>2015-02-07T14:14:47.000Z</time>
      </trkpt>
      <trkpt lat="45.95091" lon="6.53073">
        <ele>1924.8000488281</ele>
        <time>2015-02-07T14:14:48.000Z</time>
      </trkpt>
      <trkpt lat="45.95092" lon="6.53063">
        <ele>1921.1999511719</ele>
        <time>2015-02-07T14:14:49.000Z</time>
      </trkpt>
      <trkpt lat="45.95093" lon="6.53054">
        <ele>1917.8000488281</ele>
        <time>2015-02-07T14:14:50.000Z</time>
      </trkpt>
      <trkpt lat="45.95094" lon="6.53042">
        <ele>1914.5999755859</ele>
        <time>2015-02-07T14:14:51.000Z</time>
      </trkpt>
      <trkpt lat="45.95098" lon="6.5303">
        <ele>1911.1999511719</ele>
        <time>2015-02-07T14:14:52.000Z</time>
      </trkpt>
      <trkpt lat="45.95103" lon="6.53017">
        <ele>1907.4000244141</ele>
        <time>2015-02-07T14:14:53.000Z</time>
      </trkpt>
      <trkpt lat="45.95107" lon="6.53003">
        <ele>1903.1999511719</ele>
        <time>2015-02-07T14:14:54.000Z</time>
      </trkpt>
      <trkpt lat="45.95114" lon="6.52989">
        <ele>1898.8000488281</ele>
        <time>2015-02-07T14:14:55.000Z</time>
      </trkpt>
      <trkpt lat="45.95119" lon="6.52976">
        <ele>1894.1999511719</ele>
        <time>2015-02-07T14:14:56.000Z</time>
      </trkpt>
      <trkpt lat="45.95123" lon="6.52959">
        <ele>1889.8000488281</ele>
        <time>2015-02-07T14:14:57.000Z</time>
      </trkpt>
      <trkpt lat="45.95125" lon="6.52945">
        <ele>1886</ele>
        <time>2015-02-07T14:14:58.000Z</time>
      </trkpt>
      <trkpt lat="45.95124" lon="6.52933">
        <ele>1882.1999511719</ele>
        <time>2015-02-07T14:14:59.000Z</time>
      </trkpt>
      <trkpt lat="45.95121" lon="6.52926">
        <ele>1878.4000244141</ele>
        <time>2015-02-07T14:15:00.000Z</time>
      </trkpt>
      <trkpt lat="45.95119" lon="6.52923">
        <ele>1874.5999755859</ele>
        <time>2015-02-07T14:15:01.000Z</time>
      </trkpt>
      <trkpt lat="45.95117" lon="6.52921">
        <ele>1871.1999511719</ele>
        <time>2015-02-07T14:15:02.000Z</time>
      </trkpt>
      <trkpt lat="45.95115" lon="6.5292">
        <ele>1868.4000244141</ele>
        <time>2015-02-07T14:15:03.000Z</time>
      </trkpt>
      <trkpt lat="45.95114" lon="6.52922">
        <ele>1866.4000244141</ele>
        <time>2015-02-07T14:15:04.000Z</time>
      </trkpt>
      <trkpt lat="45.95111" lon="6.52922">
        <ele>1864.8000488281</ele>
        <time>2015-02-07T14:15:05.000Z</time>
      </trkpt>
      <trkpt lat="45.95109" lon="6.52923">
        <ele>1863.4000244141</ele>
        <time>2015-02-07T14:15:06.000Z</time>
      </trkpt>
      <trkpt lat="45.95107" lon="6.52924">
        <ele>1862.1999511719</ele>
        <time>2015-02-07T14:15:08.000Z</time>
      </trkpt>
      <trkpt lat="45.95104" lon="6.52925">
        <ele>1861.8000488281</ele>
        <time>2015-02-07T14:15:11.000Z</time>
      </trkpt>
      <trkpt lat="45.9508" lon="6.5294">
        <ele>1861.5999755859</ele>
        <time>2015-02-07T14:15:24.000Z</time>
      </trkpt>
      <trkpt lat="45.95074" lon="6.5294">
        <ele>1861.5999755859</ele>
        <time>2015-02-07T14:15:39.000Z</time>
      </trkpt>
      <trkpt lat="45.95074" lon="6.52942">
        <ele>1861.5999755859</ele>
        <time>2015-02-07T14:15:48.000Z</time>
      </trkpt>
      <trkpt lat="45.95072" lon="6.52935">
        <ele>1861.1999511719</ele>
        <time>2015-02-07T14:15:51.000Z</time>
      </trkpt>
      <trkpt lat="45.95073" lon="6.52935">
        <ele>1861</ele>
        <time>2015-02-07T14:15:52.000Z</time>
      </trkpt>
      <trkpt lat="45.95074" lon="6.52934">
        <ele>1860</ele>
        <time>2015-02-07T14:15:54.000Z</time>
      </trkpt>
      <trkpt lat="45.95071" lon="6.52925">
        <ele>1859</ele>
        <time>2015-02-07T14:15:56.000Z</time>
      </trkpt>
      <trkpt lat="45.95071" lon="6.52923">
        <ele>1858.5999755859</ele>
        <time>2015-02-07T14:15:57.000Z</time>
      </trkpt>
      <trkpt lat="45.95067" lon="6.52921">
        <ele>1856.8000488281</ele>
        <time>2015-02-07T14:15:58.000Z</time>
      </trkpt>
      <trkpt lat="45.95065" lon="6.52921">
        <ele>1855.5999755859</ele>
        <time>2015-02-07T14:15:59.000Z</time>
      </trkpt>
      <trkpt lat="45.95064" lon="6.52922">
        <ele>1854.4000244141</ele>
        <time>2015-02-07T14:16:00.000Z</time>
      </trkpt>
      <trkpt lat="45.95064" lon="6.52922">
        <ele>1853.1999511719</ele>
        <time>2015-02-07T14:16:01.000Z</time>
      </trkpt>
      <trkpt lat="45.95064" lon="6.52922">
        <ele>1852</ele>
        <time>2015-02-07T14:16:02.000Z</time>
      </trkpt>
      <trkpt lat="45.95064" lon="6.52922">
        <ele>1851</ele>
        <time>2015-02-07T14:16:03.000Z</time>
      </trkpt>
      <trkpt lat="45.95062" lon="6.52922">
        <ele>1850.1999511719</ele>
        <time>2015-02-07T14:16:04.000Z</time>
      </trkpt>
      <trkpt lat="45.95061" lon="6.52923">
        <ele>1849.8000488281</ele>
        <time>2015-02-07T14:16:05.000Z</time>
      </trkpt>
      <trkpt lat="45.95056" lon="6.52921">
        <ele>1849.1999511719</ele>
        <time>2015-02-07T14:16:16.000Z</time>
      </trkpt>
      <trkpt lat="45.95053" lon="6.52906">
        <ele>1848.8000488281</ele>
        <time>2015-02-07T14:16:19.000Z</time>
      </trkpt>
      <trkpt lat="45.95055" lon="6.529">
        <ele>1848.1999511719</ele>
        <time>2015-02-07T14:16:20.000Z</time>
      </trkpt>
      <trkpt lat="45.95054" lon="6.52893">
        <ele>1847.1999511719</ele>
        <time>2015-02-07T14:16:21.000Z</time>
      </trkpt>
      <trkpt lat="45.95058" lon="6.52887">
        <ele>1843.5999755859</ele>
        <time>2015-02-07T14:16:22.000Z</time>
      </trkpt>
      <trkpt lat="45.95059" lon="6.52877">
        <ele>1841</ele>
        <time>2015-02-07T14:16:23.000Z</time>
      </trkpt>
      <trkpt lat="45.95058" lon="6.52864">
        <ele>1837.8000488281</ele>
        <time>2015-02-07T14:16:24.000Z</time>
      </trkpt>
      <trkpt lat="45.95058" lon="6.52852">
        <ele>1834.4000244141</ele>
        <time>2015-02-07T14:16:25.000Z</time>
      </trkpt>
      <trkpt lat="45.95061" lon="6.52839">
        <ele>1830.4000244141</ele>
        <time>2015-02-07T14:16:26.000Z</time>
      </trkpt>
      <trkpt lat="45.95063" lon="6.52828">
        <ele>1826.4000244141</ele>
        <time>2015-02-07T14:16:27.000Z</time>
      </trkpt>
      <trkpt lat="45.95064" lon="6.52816">
        <ele>1822.4000244141</ele>
        <time>2015-02-07T14:16:28.000Z</time>
      </trkpt>
      <trkpt lat="45.95065" lon="6.52807">
        <ele>1818.1999511719</ele>
        <time>2015-02-07T14:16:29.000Z</time>
      </trkpt>
      <trkpt lat="45.95065" lon="6.52797">
        <ele>1814.1999511719</ele>
        <time>2015-02-07T14:16:30.000Z</time>
      </trkpt>
      <trkpt lat="45.95064" lon="6.52785">
        <ele>1810.4000244141</ele>
        <time>2015-02-07T14:16:31.000Z</time>
      </trkpt>
      <trkpt lat="45.95063" lon="6.52775">
        <ele>1807.1999511719</ele>
        <time>2015-02-07T14:16:32.000Z</time>
      </trkpt>
      <trkpt lat="45.9506" lon="6.52766">
        <ele>1804.1999511719</ele>
        <time>2015-02-07T14:16:33.000Z</time>
      </trkpt>
      <trkpt lat="45.95058" lon="6.52755">
        <ele>1801.4000244141</ele>
        <time>2015-02-07T14:16:34.000Z</time>
      </trkpt>
      <trkpt lat="45.95058" lon="6.52745">
        <ele>1798.5999755859</ele>
        <time>2015-02-07T14:16:35.000Z</time>
      </trkpt>
      <trkpt lat="45.95058" lon="6.52735">
        <ele>1795.4000244141</ele>
        <time>2015-02-07T14:16:36.000Z</time>
      </trkpt>
      <trkpt lat="45.95058" lon="6.52725">
        <ele>1792.4000244141</ele>
        <time>2015-02-07T14:16:37.000Z</time>
      </trkpt>
      <trkpt lat="45.95058" lon="6.52713">
        <ele>1789.1999511719</ele>
        <time>2015-02-07T14:16:38.000Z</time>
      </trkpt>
      <trkpt lat="45.95057" lon="6.527">
        <ele>1785.8000488281</ele>
        <time>2015-02-07T14:16:39.000Z</time>
      </trkpt>
      <trkpt lat="45.95056" lon="6.52688">
        <ele>1782.5999755859</ele>
        <time>2015-02-07T14:16:40.000Z</time>
      </trkpt>
      <trkpt lat="45.95055" lon="6.52679">
        <ele>1779.4000244141</ele>
        <time>2015-02-07T14:16:41.000Z</time>
      </trkpt>
      <trkpt lat="45.95055" lon="6.52672">
        <ele>1776</ele>
        <time>2015-02-07T14:16:42.000Z</time>
      </trkpt>
      <trkpt lat="45.95056" lon="6.52663">
        <ele>1772.5999755859</ele>
        <time>2015-02-07T14:16:43.000Z</time>
      </trkpt>
      <trkpt lat="45.95057" lon="6.52658">
        <ele>1769.4000244141</ele>
        <time>2015-02-07T14:16:44.000Z</time>
      </trkpt>
      <trkpt lat="45.9506" lon="6.52657">
        <ele>1767</ele>
        <time>2015-02-07T14:16:45.000Z</time>
      </trkpt>
      <trkpt lat="45.9506" lon="6.52657">
        <ele>1762.8000488281</ele>
        <time>2015-02-07T14:16:46.000Z</time>
      </trkpt>
      <trkpt lat="45.95061" lon="6.52657">
        <ele>1761</ele>
        <time>2015-02-07T14:16:47.000Z</time>
      </trkpt>
      <trkpt lat="45.95061" lon="6.52659">
        <ele>1759.5999755859</ele>
        <time>2015-02-07T14:16:48.000Z</time>
      </trkpt>
      <trkpt lat="45.95059" lon="6.52658">
        <ele>1758</ele>
        <time>2015-02-07T14:16:50.000Z</time>
      </trkpt>
      <trkpt lat="45.95059" lon="6.52658">
        <ele>1757.5999755859</ele>
        <time>2015-02-07T14:16:51.000Z</time>
      </trkpt>
      <trkpt lat="45.95059" lon="6.52658">
        <ele>1757</ele>
        <time>2015-02-07T14:16:53.000Z</time>
      </trkpt>
      <trkpt lat="45.95059" lon="6.52658">
        <ele>1756.8000488281</ele>
        <time>2015-02-07T14:17:05.000Z</time>
      </trkpt>
      <trkpt lat="45.95059" lon="6.52658">
        <ele>1756.5999755859</ele>
        <time>2015-02-07T14:17:15.000Z</time>
      </trkpt>
      <trkpt lat="45.95059" lon="6.52658">
        <ele>1756.5999755859</ele>
        <time>2015-02-07T14:17:27.000Z</time>
      </trkpt>
      <trkpt lat="45.95039" lon="6.52656">
        <ele>1756.5999755859</ele>
        <time>2015-02-07T14:17:36.000Z</time>
      </trkpt>
      <trkpt lat="45.95037" lon="6.52656">
        <ele>1756.5999755859</ele>
        <time>2015-02-07T14:17:45.000Z</time>
      </trkpt>
      <trkpt lat="45.95032" lon="6.52652">
        <ele>1756.8000488281</ele>
        <time>2015-02-07T14:17:50.000Z</time>
      </trkpt>
      <trkpt lat="45.95028" lon="6.52651">
        <ele>1756.8000488281</ele>
        <time>2015-02-07T14:17:51.000Z</time>
      </trkpt>
      <trkpt lat="45.95023" lon="6.52647">
        <ele>1755.5999755859</ele>
        <time>2015-02-07T14:17:54.000Z</time>
      </trkpt>
      <trkpt lat="45.95022" lon="6.52648">
        <ele>1755</ele>
        <time>2015-02-07T14:17:55.000Z</time>
      </trkpt>
      <trkpt lat="45.95019" lon="6.5265">
        <ele>1754.1999511719</ele>
        <time>2015-02-07T14:17:56.000Z</time>
      </trkpt>
      <trkpt lat="45.95014" lon="6.52652">
        <ele>1753.1999511719</ele>
        <time>2015-02-07T14:17:58.000Z</time>
      </trkpt>
      <trkpt lat="45.95014" lon="6.52652">
        <ele>1752.4000244141</ele>
        <time>2015-02-07T14:18:01.000Z</time>
      </trkpt>
      <trkpt lat="45.95014" lon="6.52652">
        <ele>1752.1999511719</ele>
        <time>2015-02-07T14:18:09.000Z</time>
      </trkpt>
      <trkpt lat="45.95014" lon="6.52652">
        <ele>1752.1999511719</ele>
        <time>2015-02-07T14:18:21.000Z</time>
      </trkpt>
      <trkpt lat="45.95008" lon="6.52649">
        <ele>1751.5999755859</ele>
        <time>2015-02-07T14:18:34.000Z</time>
      </trkpt>
      <trkpt lat="45.94998" lon="6.52646">
        <ele>1750.8000488281</ele>
        <time>2015-02-07T14:18:37.000Z</time>
      </trkpt>
      <trkpt lat="45.94993" lon="6.52641">
        <ele>1749.1999511719</ele>
        <time>2015-02-07T14:18:39.000Z</time>
      </trkpt>
      <trkpt lat="45.94988" lon="6.52636">
        <ele>1747.4000244141</ele>
        <time>2015-02-07T14:18:41.000Z</time>
      </trkpt>
      <trkpt lat="45.94988" lon="6.52636">
        <ele>1746.1999511719</ele>
        <time>2015-02-07T14:18:42.000Z</time>
      </trkpt>
      <trkpt lat="45.94988" lon="6.52637">
        <ele>1744.5999755859</ele>
        <time>2015-02-07T14:18:43.000Z</time>
      </trkpt>
      <trkpt lat="45.9499" lon="6.52634">
        <ele>1742.8000488281</ele>
        <time>2015-02-07T14:18:44.000Z</time>
      </trkpt>
      <trkpt lat="45.94992" lon="6.52629">
        <ele>1740.5999755859</ele>
        <time>2015-02-07T14:18:45.000Z</time>
      </trkpt>
      <trkpt lat="45.94982" lon="6.52625">
        <ele>1738.4000244141</ele>
        <time>2015-02-07T14:18:46.000Z</time>
      </trkpt>
      <trkpt lat="45.94973" lon="6.52618">
        <ele>1733</ele>
        <time>2015-02-07T14:18:47.000Z</time>
      </trkpt>
      <trkpt lat="45.94972" lon="6.52612">
        <ele>1729.8000488281</ele>
        <time>2015-02-07T14:18:48.000Z</time>
      </trkpt>
      <trkpt lat="45.94941" lon="6.52614">
        <ele>1726.5999755859</ele>
        <time>2015-02-07T14:18:49.000Z</time>
      </trkpt>
      <trkpt lat="45.94935" lon="6.52614">
        <ele>1723.4000244141</ele>
        <time>2015-02-07T14:18:50.000Z</time>
      </trkpt>
      <trkpt lat="45.94921" lon="6.52617">
        <ele>1720.5999755859</ele>
        <time>2015-02-07T14:18:51.000Z</time>
      </trkpt>
      <trkpt lat="45.94921" lon="6.52617">
        <ele>1718.4000244141</ele>
        <time>2015-02-07T14:18:52.000Z</time>
      </trkpt>
      <trkpt lat="45.94916" lon="6.52618">
        <ele>1717</ele>
        <time>2015-02-07T14:18:53.000Z</time>
      </trkpt>
      <trkpt lat="45.94908" lon="6.52621">
        <ele>1715.8000488281</ele>
        <time>2015-02-07T14:18:55.000Z</time>
      </trkpt>
      <trkpt lat="45.94901" lon="6.52623">
        <ele>1715.1999511719</ele>
        <time>2015-02-07T14:19:02.000Z</time>
      </trkpt>
      <trkpt lat="45.94901" lon="6.52623">
        <ele>1715.1999511719</ele>
        <time>2015-02-07T14:19:18.000Z</time>
      </trkpt>
      <trkpt lat="45.94898" lon="6.52623">
        <ele>1715</ele>
        <time>2015-02-07T14:19:31.000Z</time>
      </trkpt>
      <trkpt lat="45.94893" lon="6.52622">
        <ele>1714.4000244141</ele>
        <time>2015-02-07T14:19:35.000Z</time>
      </trkpt>
      <trkpt lat="45.94891" lon="6.52623">
        <ele>1714.4000244141</ele>
        <time>2015-02-07T14:19:36.000Z</time>
      </trkpt>
      <trkpt lat="45.94891" lon="6.52628">
        <ele>1713.5999755859</ele>
        <time>2015-02-07T14:19:44.000Z</time>
      </trkpt>
      <trkpt lat="45.94891" lon="6.52628">
        <ele>1713.5999755859</ele>
        <time>2015-02-07T14:20:03.000Z</time>
      </trkpt>
      <trkpt lat="45.94891" lon="6.52628">
        <ele>1713.8000488281</ele>
        <time>2015-02-07T14:20:21.000Z</time>
      </trkpt>
      <trkpt lat="45.94891" lon="6.52628">
        <ele>1713.5999755859</ele>
        <time>2015-02-07T14:20:36.000Z</time>
      </trkpt>
      <trkpt lat="45.94892" lon="6.52626">
        <ele>1713.5999755859</ele>
        <time>2015-02-07T14:20:38.000Z</time>
      </trkpt>
      <trkpt lat="45.94892" lon="6.52621">
        <ele>1713.5999755859</ele>
        <time>2015-02-07T14:20:40.000Z</time>
      </trkpt>
      <trkpt lat="45.94893" lon="6.52616">
        <ele>1713.4000244141</ele>
        <time>2015-02-07T14:20:41.000Z</time>
      </trkpt>
      <trkpt lat="45.94888" lon="6.5261">
        <ele>1713</ele>
        <time>2015-02-07T14:20:42.000Z</time>
      </trkpt>
      <trkpt lat="45.94886" lon="6.52604">
        <ele>1712.1999511719</ele>
        <time>2015-02-07T14:20:43.000Z</time>
      </trkpt>
      <trkpt lat="45.94888" lon="6.52603">
        <ele>1711.1999511719</ele>
        <time>2015-02-07T14:20:44.000Z</time>
      </trkpt>
      <trkpt lat="45.94892" lon="6.52602">
        <ele>1709.8000488281</ele>
        <time>2015-02-07T14:20:45.000Z</time>
      </trkpt>
      <trkpt lat="45.94896" lon="6.52601">
        <ele>1708.1999511719</ele>
        <time>2015-02-07T14:20:46.000Z</time>
      </trkpt>
      <trkpt lat="45.94898" lon="6.526">
        <ele>1705.1999511719</ele>
        <time>2015-02-07T14:20:47.000Z</time>
      </trkpt>
      <trkpt lat="45.94899" lon="6.52601">
        <ele>1703.8000488281</ele>
        <time>2015-02-07T14:20:48.000Z</time>
      </trkpt>
      <trkpt lat="45.94901" lon="6.526">
        <ele>1702.5999755859</ele>
        <time>2015-02-07T14:20:49.000Z</time>
      </trkpt>
      <trkpt lat="45.94903" lon="6.52601">
        <ele>1701.4000244141</ele>
        <time>2015-02-07T14:20:51.000Z</time>
      </trkpt>
      <trkpt lat="45.94904" lon="6.52602">
        <ele>1701</ele>
        <time>2015-02-07T14:20:52.000Z</time>
      </trkpt>
      <trkpt lat="45.94907" lon="6.52604">
        <ele>1700.8000488281</ele>
        <time>2015-02-07T14:20:55.000Z</time>
      </trkpt>
      <trkpt lat="45.94907" lon="6.52606">
        <ele>1700.8000488281</ele>
        <time>2015-02-07T14:20:56.000Z</time>
      </trkpt>
      <trkpt lat="45.9491" lon="6.52616">
        <ele>1700.4000244141</ele>
        <time>2015-02-07T14:21:02.000Z</time>
      </trkpt>
      <trkpt lat="45.94919" lon="6.52646">
        <ele>1700.4000244141</ele>
        <time>2015-02-07T14:21:18.000Z</time>
      </trkpt>
      <trkpt lat="45.94916" lon="6.52625">
        <ele>1700.4000244141</ele>
        <time>2015-02-07T14:21:23.000Z</time>
      </trkpt>
      <trkpt lat="45.94913" lon="6.52608">
        <ele>1700.4000244141</ele>
        <time>2015-02-07T14:21:24.000Z</time>
      </trkpt>
      <trkpt lat="45.94914" lon="6.52605">
        <ele>1700.1999511719</ele>
        <time>2015-02-07T14:21:25.000Z</time>
      </trkpt>
      <trkpt lat="45.94914" lon="6.52603">
        <ele>1700</ele>
        <time>2015-02-07T14:21:26.000Z</time>
      </trkpt>
      <trkpt lat="45.94923" lon="6.52597">
        <ele>1698.5999755859</ele>
        <time>2015-02-07T14:21:29.000Z</time>
      </trkpt>
      <trkpt lat="45.9493" lon="6.52592">
        <ele>1696.1999511719</ele>
        <time>2015-02-07T14:21:31.000Z</time>
      </trkpt>
      <trkpt lat="45.94932" lon="6.52589">
        <ele>1694.5999755859</ele>
        <time>2015-02-07T14:21:32.000Z</time>
      </trkpt>
      <trkpt lat="45.94933" lon="6.52587">
        <ele>1692.5999755859</ele>
        <time>2015-02-07T14:21:33.000Z</time>
      </trkpt>
      <trkpt lat="45.94932" lon="6.52584">
        <ele>1690.4000244141</ele>
        <time>2015-02-07T14:21:34.000Z</time>
      </trkpt>
      <trkpt lat="45.94932" lon="6.52578">
        <ele>1685.8000488281</ele>
        <time>2015-02-07T14:21:35.000Z</time>
      </trkpt>
      <trkpt lat="45.94928" lon="6.52572">
        <ele>1683.8000488281</ele>
        <time>2015-02-07T14:21:36.000Z</time>
      </trkpt>
      <trkpt lat="45.94926" lon="6.52567">
        <ele>1681.8000488281</ele>
        <time>2015-02-07T14:21:37.000Z</time>
      </trkpt>
      <trkpt lat="45.94926" lon="6.52564">
        <ele>1679.4000244141</ele>
        <time>2015-02-07T14:21:38.000Z</time>
      </trkpt>
      <trkpt lat="45.94925" lon="6.5256">
        <ele>1677</ele>
        <time>2015-02-07T14:21:39.000Z</time>
      </trkpt>
      <trkpt lat="45.94924" lon="6.52556">
        <ele>1674.8000488281</ele>
        <time>2015-02-07T14:21:40.000Z</time>
      </trkpt>
      <trkpt lat="45.94924" lon="6.52554">
        <ele>1673.4000244141</ele>
        <time>2015-02-07T14:21:41.000Z</time>
      </trkpt>
      <trkpt lat="45.94924" lon="6.52551">
        <ele>1672.4000244141</ele>
        <time>2015-02-07T14:21:42.000Z</time>
      </trkpt>
      <trkpt lat="45.94924" lon="6.52541">
        <ele>1670.8000488281</ele>
        <time>2015-02-07T14:21:44.000Z</time>
      </trkpt>
      <trkpt lat="45.94924" lon="6.52535">
        <ele>1669.8000488281</ele>
        <time>2015-02-07T14:21:45.000Z</time>
      </trkpt>
      <trkpt lat="45.94924" lon="6.52529">
        <ele>1668.4000244141</ele>
        <time>2015-02-07T14:21:46.000Z</time>
      </trkpt>
      <trkpt lat="45.94925" lon="6.52524">
        <ele>1666.4000244141</ele>
        <time>2015-02-07T14:21:47.000Z</time>
      </trkpt>
      <trkpt lat="45.94926" lon="6.52521">
        <ele>1664</ele>
        <time>2015-02-07T14:21:48.000Z</time>
      </trkpt>
      <trkpt lat="45.94928" lon="6.52518">
        <ele>1661</ele>
        <time>2015-02-07T14:21:49.000Z</time>
      </trkpt>
      <trkpt lat="45.94933" lon="6.52518">
        <ele>1657.8000488281</ele>
        <time>2015-02-07T14:21:50.000Z</time>
      </trkpt>
      <trkpt lat="45.94936" lon="6.52518">
        <ele>1654.4000244141</ele>
        <time>2015-02-07T14:21:51.000Z</time>
      </trkpt>
      <trkpt lat="45.94939" lon="6.52518">
        <ele>1651.4000244141</ele>
        <time>2015-02-07T14:21:52.000Z</time>
      </trkpt>
      <trkpt lat="45.94943" lon="6.52517">
        <ele>1648.8000488281</ele>
        <time>2015-02-07T14:21:53.000Z</time>
      </trkpt>
      <trkpt lat="45.94946" lon="6.52517">
        <ele>1646.8000488281</ele>
        <time>2015-02-07T14:21:54.000Z</time>
      </trkpt>
      <trkpt lat="45.94949" lon="6.52517">
        <ele>1645.4000244141</ele>
        <time>2015-02-07T14:21:55.000Z</time>
      </trkpt>
      <trkpt lat="45.9495" lon="6.52517">
        <ele>1644.8000488281</ele>
        <time>2015-02-07T14:21:56.000Z</time>
      </trkpt>
      <trkpt lat="45.9495" lon="6.52517">
        <ele>1644.1999511719</ele>
        <time>2015-02-07T14:21:57.000Z</time>
      </trkpt>
      <trkpt lat="45.9495" lon="6.52517">
        <ele>1643.8000488281</ele>
        <time>2015-02-07T14:22:05.000Z</time>
      </trkpt>
      <trkpt lat="45.94952" lon="6.52518">
        <ele>1643.8000488281</ele>
        <time>2015-02-07T14:22:12.000Z</time>
      </trkpt>
      <trkpt lat="45.94955" lon="6.52519">
        <ele>1643.4000244141</ele>
        <time>2015-02-07T14:22:23.000Z</time>
      </trkpt>
      <trkpt lat="45.94955" lon="6.52519">
        <ele>1643.4000244141</ele>
        <time>2015-02-07T14:22:37.000Z</time>
      </trkpt>
      <trkpt lat="45.94955" lon="6.52519">
        <ele>1643.4000244141</ele>
        <time>2015-02-07T14:23:02.000Z</time>
      </trkpt>
      <trkpt lat="45.94955" lon="6.52519">
        <ele>1643.1999511719</ele>
        <time>2015-02-07T14:23:15.000Z</time>
      </trkpt>
      <trkpt lat="45.94956" lon="6.52516">
        <ele>1643.1999511719</ele>
        <time>2015-02-07T14:23:17.000Z</time>
      </trkpt>
      <trkpt lat="45.94965" lon="6.52514">
        <ele>1642.8000488281</ele>
        <time>2015-02-07T14:23:20.000Z</time>
      </trkpt>
      <trkpt lat="45.94974" lon="6.52517">
        <ele>1641.8000488281</ele>
        <time>2015-02-07T14:23:22.000Z</time>
      </trkpt>
      <trkpt lat="45.94978" lon="6.52518">
        <ele>1641</ele>
        <time>2015-02-07T14:23:23.000Z</time>
      </trkpt>
      <trkpt lat="45.94982" lon="6.52519">
        <ele>1640.1999511719</ele>
        <time>2015-02-07T14:23:24.000Z</time>
      </trkpt>
      <trkpt lat="45.94986" lon="6.52521">
        <ele>1639.1999511719</ele>
        <time>2015-02-07T14:23:25.000Z</time>
      </trkpt>
      <trkpt lat="45.9499" lon="6.52522">
        <ele>1638.1999511719</ele>
        <time>2015-02-07T14:23:26.000Z</time>
      </trkpt>
      <trkpt lat="45.94997" lon="6.52525">
        <ele>1636.5999755859</ele>
        <time>2015-02-07T14:23:28.000Z</time>
      </trkpt>
      <trkpt lat="45.95004" lon="6.52528">
        <ele>1635.4000244141</ele>
        <time>2015-02-07T14:23:30.000Z</time>
      </trkpt>
      <trkpt lat="45.95009" lon="6.52531">
        <ele>1633.8000488281</ele>
        <time>2015-02-07T14:23:32.000Z</time>
      </trkpt>
      <trkpt lat="45.9501" lon="6.52533">
        <ele>1632.5999755859</ele>
        <time>2015-02-07T14:23:34.000Z</time>
      </trkpt>
      <trkpt lat="45.95011" lon="6.52532">
        <ele>1631.4000244141</ele>
        <time>2015-02-07T14:23:35.000Z</time>
      </trkpt>
      <trkpt lat="45.95014" lon="6.52534">
        <ele>1630.4000244141</ele>
        <time>2015-02-07T14:23:41.000Z</time>
      </trkpt>
      <trkpt lat="45.95014" lon="6.52534">
        <ele>1630.4000244141</ele>
        <time>2015-02-07T14:23:42.000Z</time>
      </trkpt>
      <trkpt lat="45.95015" lon="6.52536">
        <ele>1631.1999511719</ele>
        <time>2015-02-07T14:23:49.000Z</time>
      </trkpt>
      <trkpt lat="45.95017" lon="6.5254">
        <ele>1631.1999511719</ele>
        <time>2015-02-07T14:23:53.000Z</time>
      </trkpt>
      <trkpt lat="45.95023" lon="6.52544">
        <ele>1630.4000244141</ele>
        <time>2015-02-07T14:23:59.000Z</time>
      </trkpt>
      <trkpt lat="45.95025" lon="6.52545">
        <ele>1629.8000488281</ele>
        <time>2015-02-07T14:24:04.000Z</time>
      </trkpt>
      <trkpt lat="45.95025" lon="6.52545">
        <ele>1629.8000488281</ele>
        <time>2015-02-07T14:24:23.000Z</time>
      </trkpt>
      <trkpt lat="45.9503" lon="6.52547">
        <ele>1629.5999755859</ele>
        <time>2015-02-07T14:24:31.000Z</time>
      </trkpt>
      <trkpt lat="45.95038" lon="6.52549">
        <ele>1629.1999511719</ele>
        <time>2015-02-07T14:24:35.000Z</time>
      </trkpt>
      <trkpt lat="45.95045" lon="6.52553">
        <ele>1628.4000244141</ele>
        <time>2015-02-07T14:24:41.000Z</time>
      </trkpt>
      <trkpt lat="45.95047" lon="6.52554">
        <ele>1628.1999511719</ele>
        <time>2015-02-07T14:24:42.000Z</time>
      </trkpt>
      <trkpt lat="45.95048" lon="6.52553">
        <ele>1628</ele>
        <time>2015-02-07T14:24:43.000Z</time>
      </trkpt>
      <trkpt lat="45.9505" lon="6.52551">
        <ele>1627.5999755859</ele>
        <time>2015-02-07T14:24:44.000Z</time>
      </trkpt>
      <trkpt lat="45.95052" lon="6.52549">
        <ele>1627.1999511719</ele>
        <time>2015-02-07T14:24:45.000Z</time>
      </trkpt>
      <trkpt lat="45.95056" lon="6.5255">
        <ele>1624.1999511719</ele>
        <time>2015-02-07T14:24:47.000Z</time>
      </trkpt>
      <trkpt lat="45.95059" lon="6.52551">
        <ele>1622.5999755859</ele>
        <time>2015-02-07T14:24:48.000Z</time>
      </trkpt>
      <trkpt lat="45.95062" lon="6.52553">
        <ele>1621.1999511719</ele>
        <time>2015-02-07T14:24:49.000Z</time>
      </trkpt>
      <trkpt lat="45.95065" lon="6.52555">
        <ele>1619.8000488281</ele>
        <time>2015-02-07T14:24:50.000Z</time>
      </trkpt>
      <trkpt lat="45.95069" lon="6.52557">
        <ele>1618.4000244141</ele>
        <time>2015-02-07T14:24:51.000Z</time>
      </trkpt>
      <trkpt lat="45.95072" lon="6.52558">
        <ele>1617.1999511719</ele>
        <time>2015-02-07T14:24:52.000Z</time>
      </trkpt>
      <trkpt lat="45.95075" lon="6.52558">
        <ele>1616</ele>
        <time>2015-02-07T14:24:53.000Z</time>
      </trkpt>
      <trkpt lat="45.95079" lon="6.52557">
        <ele>1614.1999511719</ele>
        <time>2015-02-07T14:24:55.000Z</time>
      </trkpt>
      <trkpt lat="45.95082" lon="6.52552">
        <ele>1612.8000488281</ele>
        <time>2015-02-07T14:24:57.000Z</time>
      </trkpt>
      <trkpt lat="45.95084" lon="6.5255">
        <ele>1611.4000244141</ele>
        <time>2015-02-07T14:24:58.000Z</time>
      </trkpt>
      <trkpt lat="45.95086" lon="6.52549">
        <ele>1610.1999511719</ele>
        <time>2015-02-07T14:24:59.000Z</time>
      </trkpt>
      <trkpt lat="45.95088" lon="6.52548">
        <ele>1609</ele>
        <time>2015-02-07T14:25:00.000Z</time>
      </trkpt>
      <trkpt lat="45.95089" lon="6.52546">
        <ele>1607.8000488281</ele>
        <time>2015-02-07T14:25:01.000Z</time>
      </trkpt>
      <trkpt lat="45.9509" lon="6.52545">
        <ele>1606.5999755859</ele>
        <time>2015-02-07T14:25:02.000Z</time>
      </trkpt>
      <trkpt lat="45.9509" lon="6.52546">
        <ele>1605.4000244141</ele>
        <time>2015-02-07T14:25:04.000Z</time>
      </trkpt>
      <trkpt lat="45.9509" lon="6.52546">
        <ele>1605.1999511719</ele>
        <time>2015-02-07T14:25:05.000Z</time>
      </trkpt>
      <trkpt lat="45.95092" lon="6.52549">
        <ele>1604.5999755859</ele>
        <time>2015-02-07T14:25:08.000Z</time>
      </trkpt>
      <trkpt lat="45.95093" lon="6.52552">
        <ele>1604.5999755859</ele>
        <time>2015-02-07T14:25:09.000Z</time>
      </trkpt>
      <trkpt lat="45.95095" lon="6.52554">
        <ele>1604.4000244141</ele>
        <time>2015-02-07T14:25:10.000Z</time>
      </trkpt>
      <trkpt lat="45.95104" lon="6.52563">
        <ele>1603.1999511719</ele>
        <time>2015-02-07T14:25:14.000Z</time>
      </trkpt>
      <trkpt lat="45.9511" lon="6.52565">
        <ele>1602.4000244141</ele>
        <time>2015-02-07T14:25:16.000Z</time>
      </trkpt>
      <trkpt lat="45.95112" lon="6.52562">
        <ele>1601.5999755859</ele>
        <time>2015-02-07T14:25:17.000Z</time>
      </trkpt>
      <trkpt lat="45.95116" lon="6.52553">
        <ele>1600.1999511719</ele>
        <time>2015-02-07T14:25:19.000Z</time>
      </trkpt>
      <trkpt lat="45.95117" lon="6.52551">
        <ele>1599.1999511719</ele>
        <time>2015-02-07T14:25:20.000Z</time>
      </trkpt>
      <trkpt lat="45.95118" lon="6.5255">
        <ele>1597.8000488281</ele>
        <time>2015-02-07T14:25:21.000Z</time>
      </trkpt>
      <trkpt lat="45.95118" lon="6.52548">
        <ele>1596.5999755859</ele>
        <time>2015-02-07T14:25:22.000Z</time>
      </trkpt>
      <trkpt lat="45.95118" lon="6.52548">
        <ele>1595.5999755859</ele>
        <time>2015-02-07T14:25:23.000Z</time>
      </trkpt>
      <trkpt lat="45.95117" lon="6.5255">
        <ele>1594.1999511719</ele>
        <time>2015-02-07T14:25:25.000Z</time>
      </trkpt>
      <trkpt lat="45.95117" lon="6.52551">
        <ele>1593.8000488281</ele>
        <time>2015-02-07T14:25:26.000Z</time>
      </trkpt>
      <trkpt lat="45.95115" lon="6.52553">
        <ele>1593.1999511719</ele>
        <time>2015-02-07T14:25:29.000Z</time>
      </trkpt>
      <trkpt lat="45.95117" lon="6.52553">
        <ele>1593</ele>
        <time>2015-02-07T14:25:35.000Z</time>
      </trkpt>
      <trkpt lat="45.95121" lon="6.52541">
        <ele>1592.8000488281</ele>
        <time>2015-02-07T14:25:39.000Z</time>
      </trkpt>
      <trkpt lat="45.95125" lon="6.52528">
        <ele>1591.5999755859</ele>
        <time>2015-02-07T14:25:41.000Z</time>
      </trkpt>
      <trkpt lat="45.95128" lon="6.52524">
        <ele>1590.4000244141</ele>
        <time>2015-02-07T14:25:42.000Z</time>
      </trkpt>
      <trkpt lat="45.95131" lon="6.5252">
        <ele>1588.8000488281</ele>
        <time>2015-02-07T14:25:43.000Z</time>
      </trkpt>
      <trkpt lat="45.95133" lon="6.52517">
        <ele>1587</ele>
        <time>2015-02-07T14:25:44.000Z</time>
      </trkpt>
      <trkpt lat="45.95136" lon="6.52516">
        <ele>1585</ele>
        <time>2015-02-07T14:25:45.000Z</time>
      </trkpt>
      <trkpt lat="45.95138" lon="6.52515">
        <ele>1583.1999511719</ele>
        <time>2015-02-07T14:25:46.000Z</time>
      </trkpt>
      <trkpt lat="45.95139" lon="6.52515">
        <ele>1581.8000488281</ele>
        <time>2015-02-07T14:25:47.000Z</time>
      </trkpt>
      <trkpt lat="45.9514" lon="6.52514">
        <ele>1580.1999511719</ele>
        <time>2015-02-07T14:25:49.000Z</time>
      </trkpt>
      <trkpt lat="45.9514" lon="6.52514">
        <ele>1579.5999755859</ele>
        <time>2015-02-07T14:25:51.000Z</time>
      </trkpt>
      <trkpt lat="45.9514" lon="6.52514">
        <ele>1579.1999511719</ele>
        <time>2015-02-07T14:25:54.000Z</time>
      </trkpt>
      <trkpt lat="45.95144" lon="6.52513">
        <ele>1578.8000488281</ele>
        <time>2015-02-07T14:25:59.000Z</time>
      </trkpt>
      <trkpt lat="45.95148" lon="6.52509">
        <ele>1577.8000488281</ele>
        <time>2015-02-07T14:26:02.000Z</time>
      </trkpt>
      <trkpt lat="45.95149" lon="6.52508">
        <ele>1576.5999755859</ele>
        <time>2015-02-07T14:26:03.000Z</time>
      </trkpt>
      <trkpt lat="45.95149" lon="6.52507">
        <ele>1575.4000244141</ele>
        <time>2015-02-07T14:26:04.000Z</time>
      </trkpt>
      <trkpt lat="45.95152" lon="6.52505">
        <ele>1573.8000488281</ele>
        <time>2015-02-07T14:26:06.000Z</time>
      </trkpt>
      <trkpt lat="45.95153" lon="6.52504">
        <ele>1573.1999511719</ele>
        <time>2015-02-07T14:26:07.000Z</time>
      </trkpt>
      <trkpt lat="45.95157" lon="6.52502">
        <ele>1572.1999511719</ele>
        <time>2015-02-07T14:26:09.000Z</time>
      </trkpt>
      <trkpt lat="45.9516" lon="6.52499">
        <ele>1570.8000488281</ele>
        <time>2015-02-07T14:26:12.000Z</time>
      </trkpt>
      <trkpt lat="45.95161" lon="6.52499">
        <ele>1569.5999755859</ele>
        <time>2015-02-07T14:26:13.000Z</time>
      </trkpt>
      <trkpt lat="45.95161" lon="6.52498">
        <ele>1568.1999511719</ele>
        <time>2015-02-07T14:26:14.000Z</time>
      </trkpt>
      <trkpt lat="45.95162" lon="6.52497">
        <ele>1566.8000488281</ele>
        <time>2015-02-07T14:26:15.000Z</time>
      </trkpt>
      <trkpt lat="45.95162" lon="6.52497">
        <ele>1565.1999511719</ele>
        <time>2015-02-07T14:26:16.000Z</time>
      </trkpt>
      <trkpt lat="45.95162" lon="6.52496">
        <ele>1564</ele>
        <time>2015-02-07T14:26:18.000Z</time>
      </trkpt>
      <trkpt lat="45.95162" lon="6.52496">
        <ele>1563</ele>
        <time>2015-02-07T14:26:19.000Z</time>
      </trkpt>
      <trkpt lat="45.95163" lon="6.52497">
        <ele>1562.1999511719</ele>
        <time>2015-02-07T14:26:20.000Z</time>
      </trkpt>
      <trkpt lat="45.95164" lon="6.52499">
        <ele>1564</ele>
        <time>2015-02-07T14:26:23.000Z</time>
      </trkpt>
      <trkpt lat="45.95166" lon="6.52502">
        <ele>1562.8000488281</ele>
        <time>2015-02-07T14:26:28.000Z</time>
      </trkpt>
      <trkpt lat="45.95166" lon="6.5251">
        <ele>1563</ele>
        <time>2015-02-07T14:26:40.000Z</time>
      </trkpt>
      <trkpt lat="45.95166" lon="6.52508">
        <ele>1562.1999511719</ele>
        <time>2015-02-07T14:26:57.000Z</time>
      </trkpt>
      <trkpt lat="45.95166" lon="6.52508">
        <ele>1564.1999511719</ele>
        <time>2015-02-07T14:27:11.000Z</time>
      </trkpt>
      <trkpt lat="45.95166" lon="6.52508">
        <ele>1564.4000244141</ele>
        <time>2015-02-07T14:27:14.000Z</time>
      </trkpt>
      <trkpt lat="45.95166" lon="6.52508">
        <ele>1562.5999755859</ele>
        <time>2015-02-07T14:27:17.000Z</time>
      </trkpt>
      <trkpt lat="45.95166" lon="6.52508">
        <ele>1561.5999755859</ele>
        <time>2015-02-07T14:27:27.000Z</time>
      </trkpt>
      <trkpt lat="45.95167" lon="6.52509">
        <ele>1562</ele>
        <time>2015-02-07T14:27:38.000Z</time>
      </trkpt>
      <trkpt lat="45.95165" lon="6.52504">
        <ele>1561.8000488281</ele>
        <time>2015-02-07T14:27:48.000Z</time>
      </trkpt>
      <trkpt lat="45.95164" lon="6.52503">
        <ele>1561.4000244141</ele>
        <time>2015-02-07T14:28:00.000Z</time>
      </trkpt>
      <trkpt lat="45.95164" lon="6.52503">
        <ele>1562</ele>
        <time>2015-02-07T14:28:12.000Z</time>
      </trkpt>
      <trkpt lat="45.95164" lon="6.52503">
        <ele>1562</ele>
        <time>2015-02-07T14:28:28.000Z</time>
      </trkpt>
      <trkpt lat="45.95165" lon="6.52503">
        <ele>1561.5999755859</ele>
        <time>2015-02-07T14:28:41.000Z</time>
      </trkpt>
      <trkpt lat="45.95165" lon="6.52503">
        <ele>1561.4000244141</ele>
        <time>2015-02-07T14:28:53.000Z</time>
      </trkpt>
      <trkpt lat="45.95165" lon="6.52503">
        <ele>1561</ele>
        <time>2015-02-07T14:29:04.000Z</time>
      </trkpt>
      <trkpt lat="45.95164" lon="6.52496">
        <ele>1560.4000244141</ele>
        <time>2015-02-07T14:29:11.000Z</time>
      </trkpt>
      <trkpt lat="45.95165" lon="6.52493">
        <ele>1560.4000244141</ele>
        <time>2015-02-07T14:29:12.000Z</time>
      </trkpt>
      <trkpt lat="45.95169" lon="6.52486">
        <ele>1558.4000244141</ele>
        <time>2015-02-07T14:29:16.000Z</time>
      </trkpt>
      <trkpt lat="45.95168" lon="6.52485">
        <ele>1557.1999511719</ele>
        <time>2015-02-07T14:29:17.000Z</time>
      </trkpt>
      <trkpt lat="45.95168" lon="6.52484">
        <ele>1555.8000488281</ele>
        <time>2015-02-07T14:29:19.000Z</time>
      </trkpt>
      <trkpt lat="45.95167" lon="6.52481">
        <ele>1555.4000244141</ele>
        <time>2015-02-07T14:29:25.000Z</time>
      </trkpt>
      <trkpt lat="45.95164" lon="6.52477">
        <ele>1555.1999511719</ele>
        <time>2015-02-07T14:29:34.000Z</time>
      </trkpt>
      <trkpt lat="45.95156" lon="6.52471">
        <ele>1554.4000244141</ele>
        <time>2015-02-07T14:29:38.000Z</time>
      </trkpt>
      <trkpt lat="45.95156" lon="6.52468">
        <ele>1553.5999755859</ele>
        <time>2015-02-07T14:29:39.000Z</time>
      </trkpt>
      <trkpt lat="45.95156" lon="6.52465">
        <ele>1552.5999755859</ele>
        <time>2015-02-07T14:29:40.000Z</time>
      </trkpt>
      <trkpt lat="45.95153" lon="6.52458">
        <ele>1551</ele>
        <time>2015-02-07T14:29:42.000Z</time>
      </trkpt>
      <trkpt lat="45.95149" lon="6.52453">
        <ele>1548.5999755859</ele>
        <time>2015-02-07T14:29:44.000Z</time>
      </trkpt>
      <trkpt lat="45.95149" lon="6.52449">
        <ele>1546.5999755859</ele>
        <time>2015-02-07T14:29:45.000Z</time>
      </trkpt>
      <trkpt lat="45.95149" lon="6.52444">
        <ele>1544.5999755859</ele>
        <time>2015-02-07T14:29:46.000Z</time>
      </trkpt>
      <trkpt lat="45.95149" lon="6.5244">
        <ele>1542.4000244141</ele>
        <time>2015-02-07T14:29:47.000Z</time>
      </trkpt>
      <trkpt lat="45.95147" lon="6.52435">
        <ele>1540.1999511719</ele>
        <time>2015-02-07T14:29:48.000Z</time>
      </trkpt>
      <trkpt lat="45.95151" lon="6.52427">
        <ele>1537.5999755859</ele>
        <time>2015-02-07T14:29:49.000Z</time>
      </trkpt>
      <trkpt lat="45.95153" lon="6.52421">
        <ele>1534.8000488281</ele>
        <time>2015-02-07T14:29:50.000Z</time>
      </trkpt>
      <trkpt lat="45.95155" lon="6.52419">
        <ele>1532.1999511719</ele>
        <time>2015-02-07T14:29:51.000Z</time>
      </trkpt>
      <trkpt lat="45.95155" lon="6.52419">
        <ele>1530.1999511719</ele>
        <time>2015-02-07T14:29:52.000Z</time>
      </trkpt>
      <trkpt lat="45.95155" lon="6.52419">
        <ele>1528.8000488281</ele>
        <time>2015-02-07T14:29:53.000Z</time>
      </trkpt>
      <trkpt lat="45.95157" lon="6.52418">
        <ele>1527.4000244141</ele>
        <time>2015-02-07T14:29:55.000Z</time>
      </trkpt>
      <trkpt lat="45.95157" lon="6.52418">
        <ele>1527</ele>
        <time>2015-02-07T14:29:56.000Z</time>
      </trkpt>
      <trkpt lat="45.95157" lon="6.52418">
        <ele>1526.8000488281</ele>
        <time>2015-02-07T14:30:05.000Z</time>
      </trkpt>
      <trkpt lat="45.95157" lon="6.52415">
        <ele>1526.8000488281</ele>
        <time>2015-02-07T14:30:07.000Z</time>
      </trkpt>
      <trkpt lat="45.95159" lon="6.52407">
        <ele>1526.8000488281</ele>
        <time>2015-02-07T14:30:09.000Z</time>
      </trkpt>
      <trkpt lat="45.95157" lon="6.52401">
        <ele>1525.8000488281</ele>
        <time>2015-02-07T14:30:12.000Z</time>
      </trkpt>
      <trkpt lat="45.95156" lon="6.52399">
        <ele>1525</ele>
        <time>2015-02-07T14:30:13.000Z</time>
      </trkpt>
      <trkpt lat="45.95156" lon="6.52395">
        <ele>1524.4000244141</ele>
        <time>2015-02-07T14:30:14.000Z</time>
      </trkpt>
      <trkpt lat="45.95158" lon="6.52389">
        <ele>1523.8000488281</ele>
        <time>2015-02-07T14:30:15.000Z</time>
      </trkpt>
      <trkpt lat="45.9516" lon="6.52386">
        <ele>1522.8000488281</ele>
        <time>2015-02-07T14:30:16.000Z</time>
      </trkpt>
      <trkpt lat="45.95163" lon="6.52384">
        <ele>1521.1999511719</ele>
        <time>2015-02-07T14:30:17.000Z</time>
      </trkpt>
      <trkpt lat="45.95166" lon="6.52381">
        <ele>1519.4000244141</ele>
        <time>2015-02-07T14:30:18.000Z</time>
      </trkpt>
      <trkpt lat="45.95168" lon="6.52378">
        <ele>1517.8000488281</ele>
        <time>2015-02-07T14:30:19.000Z</time>
      </trkpt>
      <trkpt lat="45.95171" lon="6.52376">
        <ele>1516.4000244141</ele>
        <time>2015-02-07T14:30:20.000Z</time>
      </trkpt>
      <trkpt lat="45.95172" lon="6.52374">
        <ele>1515.4000244141</ele>
        <time>2015-02-07T14:30:21.000Z</time>
      </trkpt>
      <trkpt lat="45.95173" lon="6.52374">
        <ele>1514.4000244141</ele>
        <time>2015-02-07T14:30:22.000Z</time>
      </trkpt>
      <trkpt lat="45.95173" lon="6.52374">
        <ele>1513.4000244141</ele>
        <time>2015-02-07T14:30:23.000Z</time>
      </trkpt>
      <trkpt lat="45.95173" lon="6.52374">
        <ele>1512</ele>
        <time>2015-02-07T14:30:24.000Z</time>
      </trkpt>
      <trkpt lat="45.95171" lon="6.52373">
        <ele>1511.5999755859</ele>
        <time>2015-02-07T14:30:25.000Z</time>
      </trkpt>
      <trkpt lat="45.95164" lon="6.5237">
        <ele>1511.4000244141</ele>
        <time>2015-02-07T14:30:27.000Z</time>
      </trkpt>
      <trkpt lat="45.95155" lon="6.52364">
        <ele>1510.4000244141</ele>
        <time>2015-02-07T14:30:29.000Z</time>
      </trkpt>
      <trkpt lat="45.95151" lon="6.52359">
        <ele>1509.1999511719</ele>
        <time>2015-02-07T14:30:30.000Z</time>
      </trkpt>
      <trkpt lat="45.95147" lon="6.52354">
        <ele>1507.5999755859</ele>
        <time>2015-02-07T14:30:31.000Z</time>
      </trkpt>
      <trkpt lat="45.95144" lon="6.52349">
        <ele>1506</ele>
        <time>2015-02-07T14:30:32.000Z</time>
      </trkpt>
      <trkpt lat="45.95141" lon="6.52345">
        <ele>1504.4000244141</ele>
        <time>2015-02-07T14:30:33.000Z</time>
      </trkpt>
      <trkpt lat="45.95138" lon="6.52341">
        <ele>1503</ele>
        <time>2015-02-07T14:30:34.000Z</time>
      </trkpt>
      <trkpt lat="45.95137" lon="6.52338">
        <ele>1501.5999755859</ele>
        <time>2015-02-07T14:30:35.000Z</time>
      </trkpt>
      <trkpt lat="45.95136" lon="6.52335">
        <ele>1500.5999755859</ele>
        <time>2015-02-07T14:30:36.000Z</time>
      </trkpt>
      <trkpt lat="45.95134" lon="6.52326">
        <ele>1498.8000488281</ele>
        <time>2015-02-07T14:30:38.000Z</time>
      </trkpt>
      <trkpt lat="45.95133" lon="6.52322">
        <ele>1498</ele>
        <time>2015-02-07T14:30:39.000Z</time>
      </trkpt>
      <trkpt lat="45.95131" lon="6.52318">
        <ele>1497</ele>
        <time>2015-02-07T14:30:40.000Z</time>
      </trkpt>
      <trkpt lat="45.95128" lon="6.52314">
        <ele>1495.4000244141</ele>
        <time>2015-02-07T14:30:41.000Z</time>
      </trkpt>
      <trkpt lat="45.95127" lon="6.52309">
        <ele>1493.5999755859</ele>
        <time>2015-02-07T14:30:42.000Z</time>
      </trkpt>
      <trkpt lat="45.95126" lon="6.52305">
        <ele>1491.5999755859</ele>
        <time>2015-02-07T14:30:43.000Z</time>
      </trkpt>
      <trkpt lat="45.95125" lon="6.523">
        <ele>1489.5999755859</ele>
        <time>2015-02-07T14:30:44.000Z</time>
      </trkpt>
      <trkpt lat="45.95122" lon="6.52296">
        <ele>1487.8000488281</ele>
        <time>2015-02-07T14:30:45.000Z</time>
      </trkpt>
      <trkpt lat="45.95119" lon="6.52292">
        <ele>1486.1999511719</ele>
        <time>2015-02-07T14:30:46.000Z</time>
      </trkpt>
      <trkpt lat="45.95116" lon="6.52287">
        <ele>1484.1999511719</ele>
        <time>2015-02-07T14:30:47.000Z</time>
      </trkpt>
      <trkpt lat="45.95113" lon="6.52281">
        <ele>1479.8000488281</ele>
        <time>2015-02-07T14:30:48.000Z</time>
      </trkpt>
      <trkpt lat="45.95113" lon="6.52274">
        <ele>1477.4000244141</ele>
        <time>2015-02-07T14:30:49.000Z</time>
      </trkpt>
      <trkpt lat="45.95111" lon="6.52269">
        <ele>1474.8000488281</ele>
        <time>2015-02-07T14:30:50.000Z</time>
      </trkpt>
      <trkpt lat="45.95109" lon="6.52263">
        <ele>1472.1999511719</ele>
        <time>2015-02-07T14:30:51.000Z</time>
      </trkpt>
      <trkpt lat="45.95105" lon="6.52258">
        <ele>1469.8000488281</ele>
        <time>2015-02-07T14:30:52.000Z</time>
      </trkpt>
      <trkpt lat="45.95101" lon="6.52253">
        <ele>1467.4000244141</ele>
        <time>2015-02-07T14:30:53.000Z</time>
      </trkpt>
      <trkpt lat="45.95097" lon="6.52247">
        <ele>1464.5999755859</ele>
        <time>2015-02-07T14:30:54.000Z</time>
      </trkpt>
      <trkpt lat="45.95092" lon="6.52242">
        <ele>1461.4000244141</ele>
        <time>2015-02-07T14:30:55.000Z</time>
      </trkpt>
      <trkpt lat="45.95087" lon="6.52237">
        <ele>1458.4000244141</ele>
        <time>2015-02-07T14:30:56.000Z</time>
      </trkpt>
      <trkpt lat="45.95082" lon="6.52232">
        <ele>1455.5999755859</ele>
        <time>2015-02-07T14:30:57.000Z</time>
      </trkpt>
      <trkpt lat="45.95078" lon="6.52228">
        <ele>1453.4000244141</ele>
        <time>2015-02-07T14:30:58.000Z</time>
      </trkpt>
      <trkpt lat="45.95074" lon="6.52224">
        <ele>1452</ele>
        <time>2015-02-07T14:30:59.000Z</time>
      </trkpt>
      <trkpt lat="45.95067" lon="6.52217">
        <ele>1450.4000244141</ele>
        <time>2015-02-07T14:31:01.000Z</time>
      </trkpt>
      <trkpt lat="45.95048" lon="6.52196">
        <ele>1449.8000488281</ele>
        <time>2015-02-07T14:31:07.000Z</time>
      </trkpt>
      <trkpt lat="45.95057" lon="6.52172">
        <ele>1449.5999755859</ele>
        <time>2015-02-07T14:31:15.000Z</time>
      </trkpt>
      <trkpt lat="45.9507" lon="6.52172">
        <ele>1449.5999755859</ele>
        <time>2015-02-07T14:31:18.000Z</time>
      </trkpt>
      <trkpt lat="45.95071" lon="6.52164">
        <ele>1449.5999755859</ele>
        <time>2015-02-07T14:31:21.000Z</time>
      </trkpt>
      <trkpt lat="45.9507" lon="6.52161">
        <ele>1449.1999511719</ele>
        <time>2015-02-07T14:31:22.000Z</time>
      </trkpt>
      <trkpt lat="45.95068" lon="6.52154">
        <ele>1447</ele>
        <time>2015-02-07T14:31:24.000Z</time>
      </trkpt>
      <trkpt lat="45.95066" lon="6.5215">
        <ele>1445.8000488281</ele>
        <time>2015-02-07T14:31:25.000Z</time>
      </trkpt>
      <trkpt lat="45.95062" lon="6.52143">
        <ele>1444.5999755859</ele>
        <time>2015-02-07T14:31:26.000Z</time>
      </trkpt>
      <trkpt lat="45.95059" lon="6.52135">
        <ele>1443</ele>
        <time>2015-02-07T14:31:27.000Z</time>
      </trkpt>
      <trkpt lat="45.95056" lon="6.52126">
        <ele>1441.4000244141</ele>
        <time>2015-02-07T14:31:28.000Z</time>
      </trkpt>
      <trkpt lat="45.95052" lon="6.52117">
        <ele>1439.5999755859</ele>
        <time>2015-02-07T14:31:29.000Z</time>
      </trkpt>
      <trkpt lat="45.95048" lon="6.52107">
        <ele>1437.8000488281</ele>
        <time>2015-02-07T14:31:30.000Z</time>
      </trkpt>
      <trkpt lat="45.95044" lon="6.52096">
        <ele>1436</ele>
        <time>2015-02-07T14:31:31.000Z</time>
      </trkpt>
      <trkpt lat="45.9504" lon="6.52084">
        <ele>1434.4000244141</ele>
        <time>2015-02-07T14:31:32.000Z</time>
      </trkpt>
      <trkpt lat="45.95035" lon="6.52073">
        <ele>1432.4000244141</ele>
        <time>2015-02-07T14:31:33.000Z</time>
      </trkpt>
      <trkpt lat="45.95032" lon="6.52064">
        <ele>1430.1999511719</ele>
        <time>2015-02-07T14:31:34.000Z</time>
      </trkpt>
      <trkpt lat="45.95028" lon="6.52055">
        <ele>1428</ele>
        <time>2015-02-07T14:31:35.000Z</time>
      </trkpt>
      <trkpt lat="45.95026" lon="6.52048">
        <ele>1423.8000488281</ele>
        <time>2015-02-07T14:31:36.000Z</time>
      </trkpt>
      <trkpt lat="45.95025" lon="6.52042">
        <ele>1422</ele>
        <time>2015-02-07T14:31:37.000Z</time>
      </trkpt>
      <trkpt lat="45.95023" lon="6.52037">
        <ele>1420.8000488281</ele>
        <time>2015-02-07T14:31:38.000Z</time>
      </trkpt>
      <trkpt lat="45.95021" lon="6.52027">
        <ele>1419.4000244141</ele>
        <time>2015-02-07T14:31:40.000Z</time>
      </trkpt>
      <trkpt lat="45.9502" lon="6.52023">
        <ele>1419.1999511719</ele>
        <time>2015-02-07T14:31:41.000Z</time>
      </trkpt>
      <trkpt lat="45.95014" lon="6.52001">
        <ele>1418.5999755859</ele>
        <time>2015-02-07T14:31:48.000Z</time>
      </trkpt>
      <trkpt lat="45.95014" lon="6.51994">
        <ele>1418.5999755859</ele>
        <time>2015-02-07T14:31:57.000Z</time>
      </trkpt>
      <trkpt lat="45.95025" lon="6.52023">
        <ele>1418.4000244141</ele>
        <time>2015-02-07T14:32:00.000Z</time>
      </trkpt>
      <trkpt lat="45.95033" lon="6.52042">
        <ele>1418.1999511719</ele>
        <time>2015-02-07T14:32:01.000Z</time>
      </trkpt>
      <trkpt lat="45.95048" lon="6.52076">
        <ele>1418</ele>
        <time>2015-02-07T14:32:02.000Z</time>
      </trkpt>
      <trkpt lat="45.95056" lon="6.52093">
        <ele>1417.4000244141</ele>
        <time>2015-02-07T14:32:03.000Z</time>
      </trkpt>
      <trkpt lat="45.95065" lon="6.52105">
        <ele>1416</ele>
        <time>2015-02-07T14:32:06.000Z</time>
      </trkpt>
      <trkpt lat="45.9507" lon="6.52112">
        <ele>1414.4000244141</ele>
        <time>2015-02-07T14:32:08.000Z</time>
      </trkpt>
      <trkpt lat="45.95072" lon="6.52111">
        <ele>1413.5999755859</ele>
        <time>2015-02-07T14:32:09.000Z</time>
      </trkpt>
      <trkpt lat="45.95073" lon="6.5211">
        <ele>1412.8000488281</ele>
        <time>2015-02-07T14:32:10.000Z</time>
      </trkpt>
      <trkpt lat="45.95069" lon="6.52107">
        <ele>1412</ele>
        <time>2015-02-07T14:32:11.000Z</time>
      </trkpt>
      <trkpt lat="45.95066" lon="6.52103">
        <ele>1411</ele>
        <time>2015-02-07T14:32:12.000Z</time>
      </trkpt>
      <trkpt lat="45.95065" lon="6.521">
        <ele>1409.5999755859</ele>
        <time>2015-02-07T14:32:13.000Z</time>
      </trkpt>
      <trkpt lat="45.95062" lon="6.52096">
        <ele>1408</ele>
        <time>2015-02-07T14:32:14.000Z</time>
      </trkpt>
      <trkpt lat="45.9506" lon="6.52093">
        <ele>1406.4000244141</ele>
        <time>2015-02-07T14:32:15.000Z</time>
      </trkpt>
      <trkpt lat="45.95058" lon="6.52089">
        <ele>1404.4000244141</ele>
        <time>2015-02-07T14:32:16.000Z</time>
      </trkpt>
      <trkpt lat="45.95057" lon="6.5209">
        <ele>1402.4000244141</ele>
        <time>2015-02-07T14:32:17.000Z</time>
      </trkpt>
      <trkpt lat="45.95057" lon="6.5209">
        <ele>1400</ele>
        <time>2015-02-07T14:32:18.000Z</time>
      </trkpt>
      <trkpt lat="45.95058" lon="6.52088">
        <ele>1397.4000244141</ele>
        <time>2015-02-07T14:32:19.000Z</time>
      </trkpt>
      <trkpt lat="45.9506" lon="6.52086">
        <ele>1394.8000488281</ele>
        <time>2015-02-07T14:32:20.000Z</time>
      </trkpt>
      <trkpt lat="45.95062" lon="6.52082">
        <ele>1392.1999511719</ele>
        <time>2015-02-07T14:32:21.000Z</time>
      </trkpt>
      <trkpt lat="45.95063" lon="6.52079">
        <ele>1389.5999755859</ele>
        <time>2015-02-07T14:32:22.000Z</time>
      </trkpt>
      <trkpt lat="45.95062" lon="6.52074">
        <ele>1386.5999755859</ele>
        <time>2015-02-07T14:32:23.000Z</time>
      </trkpt>
      <trkpt lat="45.95062" lon="6.52071">
        <ele>1380.8000488281</ele>
        <time>2015-02-07T14:32:24.000Z</time>
      </trkpt>
      <trkpt lat="45.95063" lon="6.52068">
        <ele>1378</ele>
        <time>2015-02-07T14:32:25.000Z</time>
      </trkpt>
      <trkpt lat="45.95063" lon="6.52064">
        <ele>1375.4000244141</ele>
        <time>2015-02-07T14:32:26.000Z</time>
      </trkpt>
      <trkpt lat="45.95063" lon="6.52064">
        <ele>1373</ele>
        <time>2015-02-07T14:32:27.000Z</time>
      </trkpt>
      <trkpt lat="45.95062" lon="6.52062">
        <ele>1371.1999511719</ele>
        <time>2015-02-07T14:32:28.000Z</time>
      </trkpt>
      <trkpt lat="45.95063" lon="6.52062">
        <ele>1370</ele>
        <time>2015-02-07T14:32:29.000Z</time>
      </trkpt>
      <trkpt lat="45.95064" lon="6.52062">
        <ele>1369</ele>
        <time>2015-02-07T14:32:30.000Z</time>
      </trkpt>
      <trkpt lat="45.95066" lon="6.5206">
        <ele>1367.8000488281</ele>
        <time>2015-02-07T14:32:31.000Z</time>
      </trkpt>
      <trkpt lat="45.95067" lon="6.52059">
        <ele>1366.4000244141</ele>
        <time>2015-02-07T14:32:32.000Z</time>
      </trkpt>
      <trkpt lat="45.95069" lon="6.52059">
        <ele>1364.8000488281</ele>
        <time>2015-02-07T14:32:33.000Z</time>
      </trkpt>
      <trkpt lat="45.95069" lon="6.52059">
        <ele>1362.5999755859</ele>
        <time>2015-02-07T14:32:34.000Z</time>
      </trkpt>
      <trkpt lat="45.95069" lon="6.52059">
        <ele>1360.5999755859</ele>
        <time>2015-02-07T14:32:35.000Z</time>
      </trkpt>
      <trkpt lat="45.95069" lon="6.52059">
        <ele>1359.1999511719</ele>
        <time>2015-02-07T14:32:36.000Z</time>
      </trkpt>
      <trkpt lat="45.95069" lon="6.52059">
        <ele>1358</ele>
        <time>2015-02-07T14:32:38.000Z</time>
      </trkpt>
      <trkpt lat="45.95069" lon="6.52059">
        <ele>1357</ele>
        <time>2015-02-07T14:32:43.000Z</time>
      </trkpt>
      <trkpt lat="45.95069" lon="6.52059">
        <ele>1356.8000488281</ele>
        <time>2015-02-07T14:32:44.000Z</time>
      </trkpt>
      <trkpt lat="45.95069" lon="6.52059">
        <ele>1357</ele>
        <time>2015-02-07T14:32:48.000Z</time>
      </trkpt>
      <trkpt lat="45.95069" lon="6.52059">
        <ele>1357</ele>
        <time>2015-02-07T14:32:56.000Z</time>
      </trkpt>
      <trkpt lat="45.95069" lon="6.52059">
        <ele>1356.8000488281</ele>
        <time>2015-02-07T14:33:05.000Z</time>
      </trkpt>
      <trkpt lat="45.95069" lon="6.52059">
        <ele>1356.4000244141</ele>
        <time>2015-02-07T14:33:11.000Z</time>
      </trkpt>
      <trkpt lat="45.95069" lon="6.52059">
        <ele>1355.8000488281</ele>
        <time>2015-02-07T14:33:12.000Z</time>
      </trkpt>
      <trkpt lat="45.9508" lon="6.5206">
        <ele>1355</ele>
        <time>2015-02-07T14:33:15.000Z</time>
      </trkpt>
      <trkpt lat="45.95082" lon="6.52061">
        <ele>1354.4000244141</ele>
        <time>2015-02-07T14:33:16.000Z</time>
      </trkpt>
      <trkpt lat="45.95087" lon="6.5206">
        <ele>1353</ele>
        <time>2015-02-07T14:33:19.000Z</time>
      </trkpt>
      <trkpt lat="45.9509" lon="6.52058">
        <ele>1351.5999755859</ele>
        <time>2015-02-07T14:33:22.000Z</time>
      </trkpt>
      <trkpt lat="45.9509" lon="6.52055">
        <ele>1350</ele>
        <time>2015-02-07T14:33:25.000Z</time>
      </trkpt>
      <trkpt lat="45.95091" lon="6.52051">
        <ele>1349</ele>
        <time>2015-02-07T14:33:28.000Z</time>
      </trkpt>
      <trkpt lat="45.95091" lon="6.5205">
        <ele>1348.8000488281</ele>
        <time>2015-02-07T14:33:29.000Z</time>
      </trkpt>
      <trkpt lat="45.95092" lon="6.52051">
        <ele>1348.8000488281</ele>
        <time>2015-02-07T14:33:30.000Z</time>
      </trkpt>
      <trkpt lat="45.95098" lon="6.52053">
        <ele>1347.5999755859</ele>
        <time>2015-02-07T14:33:33.000Z</time>
      </trkpt>
      <trkpt lat="45.95101" lon="6.52052">
        <ele>1346.5999755859</ele>
        <time>2015-02-07T14:33:34.000Z</time>
      </trkpt>
      <trkpt lat="45.95104" lon="6.52052">
        <ele>1345.4000244141</ele>
        <time>2015-02-07T14:33:35.000Z</time>
      </trkpt>
      <trkpt lat="45.95107" lon="6.52052">
        <ele>1343.4000244141</ele>
        <time>2015-02-07T14:33:36.000Z</time>
      </trkpt>
      <trkpt lat="45.95113" lon="6.52051">
        <ele>1341.8000488281</ele>
        <time>2015-02-07T14:33:38.000Z</time>
      </trkpt>
      <trkpt lat="45.95116" lon="6.52049">
        <ele>1341.1999511719</ele>
        <time>2015-02-07T14:33:39.000Z</time>
      </trkpt>
      <trkpt lat="45.9512" lon="6.52048">
        <ele>1340.5999755859</ele>
        <time>2015-02-07T14:33:40.000Z</time>
      </trkpt>
      <trkpt lat="45.9513" lon="6.52046">
        <ele>1339.1999511719</ele>
        <time>2015-02-07T14:33:42.000Z</time>
      </trkpt>
      <trkpt lat="45.95135" lon="6.52045">
        <ele>1338.4000244141</ele>
        <time>2015-02-07T14:33:43.000Z</time>
      </trkpt>
      <trkpt lat="45.95139" lon="6.52045">
        <ele>1337.4000244141</ele>
        <time>2015-02-07T14:33:44.000Z</time>
      </trkpt>
      <trkpt lat="45.95149" lon="6.52041">
        <ele>1335.1999511719</ele>
        <time>2015-02-07T14:33:46.000Z</time>
      </trkpt>
      <trkpt lat="45.95155" lon="6.52038">
        <ele>1333.4000244141</ele>
        <time>2015-02-07T14:33:47.000Z</time>
      </trkpt>
      <trkpt lat="45.95159" lon="6.52036">
        <ele>1331.1999511719</ele>
        <time>2015-02-07T14:33:48.000Z</time>
      </trkpt>
      <trkpt lat="45.95162" lon="6.52034">
        <ele>1329</ele>
        <time>2015-02-07T14:33:49.000Z</time>
      </trkpt>
      <trkpt lat="45.95165" lon="6.52028">
        <ele>1326.5999755859</ele>
        <time>2015-02-07T14:33:50.000Z</time>
      </trkpt>
      <trkpt lat="45.95167" lon="6.52021">
        <ele>1323.8000488281</ele>
        <time>2015-02-07T14:33:51.000Z</time>
      </trkpt>
      <trkpt lat="45.9517" lon="6.52016">
        <ele>1320.8000488281</ele>
        <time>2015-02-07T14:33:52.000Z</time>
      </trkpt>
      <trkpt lat="45.95174" lon="6.52012">
        <ele>1318.1999511719</ele>
        <time>2015-02-07T14:33:53.000Z</time>
      </trkpt>
      <trkpt lat="45.95177" lon="6.52008">
        <ele>1315.8000488281</ele>
        <time>2015-02-07T14:33:54.000Z</time>
      </trkpt>
      <trkpt lat="45.95179" lon="6.52005">
        <ele>1313.4000244141</ele>
        <time>2015-02-07T14:33:55.000Z</time>
      </trkpt>
      <trkpt lat="45.95179" lon="6.52003">
        <ele>1310.8000488281</ele>
        <time>2015-02-07T14:33:56.000Z</time>
      </trkpt>
      <trkpt lat="45.9518" lon="6.52003">
        <ele>1308</ele>
        <time>2015-02-07T14:33:57.000Z</time>
      </trkpt>
      <trkpt lat="45.95181" lon="6.52005">
        <ele>1305.4000244141</ele>
        <time>2015-02-07T14:33:58.000Z</time>
      </trkpt>
      <trkpt lat="45.95181" lon="6.52005">
        <ele>1303.1999511719</ele>
        <time>2015-02-07T14:33:59.000Z</time>
      </trkpt>
      <trkpt lat="45.95181" lon="6.52005">
        <ele>1301.1999511719</ele>
        <time>2015-02-07T14:34:00.000Z</time>
      </trkpt>
      <trkpt lat="45.95181" lon="6.52005">
        <ele>1300.4000244141</ele>
        <time>2015-02-07T14:34:06.000Z</time>
      </trkpt>
      <trkpt lat="45.95181" lon="6.52005">
        <ele>1300</ele>
        <time>2015-02-07T14:34:08.000Z</time>
      </trkpt>
      <trkpt lat="45.95184" lon="6.52002">
        <ele>1299.8000488281</ele>
        <time>2015-02-07T14:34:11.000Z</time>
      </trkpt>
      <trkpt lat="45.95184" lon="6.51999">
        <ele>1299.8000488281</ele>
        <time>2015-02-07T14:34:12.000Z</time>
      </trkpt>
      <trkpt lat="45.95187" lon="6.51988">
        <ele>1299.5999755859</ele>
        <time>2015-02-07T14:34:15.000Z</time>
      </trkpt>
      <trkpt lat="45.95186" lon="6.51984">
        <ele>1298.8000488281</ele>
        <time>2015-02-07T14:34:16.000Z</time>
      </trkpt>
      <trkpt lat="45.95185" lon="6.51979">
        <ele>1297.8000488281</ele>
        <time>2015-02-07T14:34:17.000Z</time>
      </trkpt>
      <trkpt lat="45.95184" lon="6.51975">
        <ele>1296.5999755859</ele>
        <time>2015-02-07T14:34:18.000Z</time>
      </trkpt>
      <trkpt lat="45.95185" lon="6.51969">
        <ele>1295.5999755859</ele>
        <time>2015-02-07T14:34:19.000Z</time>
      </trkpt>
      <trkpt lat="45.95185" lon="6.51964">
        <ele>1294.4000244141</ele>
        <time>2015-02-07T14:34:20.000Z</time>
      </trkpt>
      <trkpt lat="45.95184" lon="6.51957">
        <ele>1293.1999511719</ele>
        <time>2015-02-07T14:34:21.000Z</time>
      </trkpt>
      <trkpt lat="45.95183" lon="6.5195">
        <ele>1291.8000488281</ele>
        <time>2015-02-07T14:34:22.000Z</time>
      </trkpt>
      <trkpt lat="45.95183" lon="6.51944">
        <ele>1290</ele>
        <time>2015-02-07T14:34:23.000Z</time>
      </trkpt>
      <trkpt lat="45.95183" lon="6.51937">
        <ele>1286.5999755859</ele>
        <time>2015-02-07T14:34:24.000Z</time>
      </trkpt>
      <trkpt lat="45.95184" lon="6.51932">
        <ele>1284.8000488281</ele>
        <time>2015-02-07T14:34:25.000Z</time>
      </trkpt>
      <trkpt lat="45.95186" lon="6.51928">
        <ele>1282.8000488281</ele>
        <time>2015-02-07T14:34:26.000Z</time>
      </trkpt>
      <trkpt lat="45.95188" lon="6.51924">
        <ele>1281</ele>
        <time>2015-02-07T14:34:27.000Z</time>
      </trkpt>
      <trkpt lat="45.9519" lon="6.51917">
        <ele>1279.5999755859</ele>
        <time>2015-02-07T14:34:28.000Z</time>
      </trkpt>
      <trkpt lat="45.95192" lon="6.5191">
        <ele>1278</ele>
        <time>2015-02-07T14:34:29.000Z</time>
      </trkpt>
      <trkpt lat="45.95194" lon="6.51906">
        <ele>1276.1999511719</ele>
        <time>2015-02-07T14:34:30.000Z</time>
      </trkpt>
      <trkpt lat="45.95196" lon="6.51904">
        <ele>1274.1999511719</ele>
        <time>2015-02-07T14:34:31.000Z</time>
      </trkpt>
      <trkpt lat="45.95198" lon="6.51902">
        <ele>1272.1999511719</ele>
        <time>2015-02-07T14:34:32.000Z</time>
      </trkpt>
      <trkpt lat="45.95198" lon="6.51901">
        <ele>1270.5999755859</ele>
        <time>2015-02-07T14:34:33.000Z</time>
      </trkpt>
      <trkpt lat="45.952" lon="6.519">
        <ele>1269.1999511719</ele>
        <time>2015-02-07T14:34:34.000Z</time>
      </trkpt>
      <trkpt lat="45.95202" lon="6.51901">
        <ele>1268</ele>
        <time>2015-02-07T14:34:35.000Z</time>
      </trkpt>
      <trkpt lat="45.95205" lon="6.51901">
        <ele>1266.5999755859</ele>
        <time>2015-02-07T14:34:37.000Z</time>
      </trkpt>
      <trkpt lat="45.95204" lon="6.51899">
        <ele>1265.1999511719</ele>
        <time>2015-02-07T14:34:40.000Z</time>
      </trkpt>
      <trkpt lat="45.95204" lon="6.51899">
        <ele>1263.4000244141</ele>
        <time>2015-02-07T14:34:42.000Z</time>
      </trkpt>
      <trkpt lat="45.95202" lon="6.51898">
        <ele>1262.5999755859</ele>
        <time>2015-02-07T14:34:43.000Z</time>
      </trkpt>
      <trkpt lat="45.95202" lon="6.51898">
        <ele>1261.5999755859</ele>
        <time>2015-02-07T14:34:44.000Z</time>
      </trkpt>
      <trkpt lat="45.95202" lon="6.51898">
        <ele>1260</ele>
        <time>2015-02-07T14:34:46.000Z</time>
      </trkpt>
      <trkpt lat="45.952" lon="6.51895">
        <ele>1259.4000244141</ele>
        <time>2015-02-07T14:34:49.000Z</time>
      </trkpt>
      <trkpt lat="45.952" lon="6.51895">
        <ele>1259.4000244141</ele>
        <time>2015-02-07T14:34:53.000Z</time>
      </trkpt>
      <trkpt lat="45.952" lon="6.51889">
        <ele>1259.1999511719</ele>
        <time>2015-02-07T14:34:55.000Z</time>
      </trkpt>
      <trkpt lat="45.95199" lon="6.51887">
        <ele>1259</ele>
        <time>2015-02-07T14:34:56.000Z</time>
      </trkpt>
      <trkpt lat="45.95195" lon="6.51883">
        <ele>1257.1999511719</ele>
        <time>2015-02-07T14:35:00.000Z</time>
      </trkpt>
      <trkpt lat="45.95193" lon="6.51882">
        <ele>1256.1999511719</ele>
        <time>2015-02-07T14:35:02.000Z</time>
      </trkpt>
      <trkpt lat="45.95193" lon="6.51882">
        <ele>1255.8000488281</ele>
        <time>2015-02-07T14:35:03.000Z</time>
      </trkpt>
      <trkpt lat="45.95193" lon="6.51882">
        <ele>1255</ele>
        <time>2015-02-07T14:35:05.000Z</time>
      </trkpt>
      <trkpt lat="45.95189" lon="6.5188">
        <ele>1253.8000488281</ele>
        <time>2015-02-07T14:35:08.000Z</time>
      </trkpt>
      <trkpt lat="45.95181" lon="6.51878">
        <ele>1253.4000244141</ele>
        <time>2015-02-07T14:35:11.000Z</time>
      </trkpt>
      <trkpt lat="45.95176" lon="6.51876">
        <ele>1252.8000488281</ele>
        <time>2015-02-07T14:35:14.000Z</time>
      </trkpt>
      <trkpt lat="45.95171" lon="6.51875">
        <ele>1251.5999755859</ele>
        <time>2015-02-07T14:35:17.000Z</time>
      </trkpt>
      <trkpt lat="45.95168" lon="6.51874">
        <ele>1250.8000488281</ele>
        <time>2015-02-07T14:35:22.000Z</time>
      </trkpt>
      <trkpt lat="45.95168" lon="6.51873">
        <ele>1250.5999755859</ele>
        <time>2015-02-07T14:35:23.000Z</time>
      </trkpt>
      <trkpt lat="45.95168" lon="6.51873">
        <ele>1249.4000244141</ele>
        <time>2015-02-07T14:35:29.000Z</time>
      </trkpt>
      <trkpt lat="45.95164" lon="6.51869">
        <ele>1248.5999755859</ele>
        <time>2015-02-07T14:35:32.000Z</time>
      </trkpt>
      <trkpt lat="45.95163" lon="6.51868">
        <ele>1248.1999511719</ele>
        <time>2015-02-07T14:35:33.000Z</time>
      </trkpt>
      <trkpt lat="45.9516" lon="6.51866">
        <ele>1246.8000488281</ele>
        <time>2015-02-07T14:35:36.000Z</time>
      </trkpt>
      <trkpt lat="45.95155" lon="6.51858">
        <ele>1245.4000244141</ele>
        <time>2015-02-07T14:35:40.000Z</time>
      </trkpt>
      <trkpt lat="45.95155" lon="6.51858">
        <ele>1244.5999755859</ele>
        <time>2015-02-07T14:35:41.000Z</time>
      </trkpt>
      <trkpt lat="45.95153" lon="6.51857">
        <ele>1243.8000488281</ele>
        <time>2015-02-07T14:35:42.000Z</time>
      </trkpt>
      <trkpt lat="45.95151" lon="6.51856">
        <ele>1241.8000488281</ele>
        <time>2015-02-07T14:35:44.000Z</time>
      </trkpt>
      <trkpt lat="45.95149" lon="6.51855">
        <ele>1240</ele>
        <time>2015-02-07T14:35:46.000Z</time>
      </trkpt>
      <trkpt lat="45.95147" lon="6.51854">
        <ele>1238.8000488281</ele>
        <time>2015-02-07T14:35:48.000Z</time>
      </trkpt>
      <trkpt lat="45.95147" lon="6.51853">
        <ele>1237.5999755859</ele>
        <time>2015-02-07T14:35:54.000Z</time>
      </trkpt>
      <trkpt lat="45.95145" lon="6.51852">
        <ele>1237.4000244141</ele>
        <time>2015-02-07T14:35:56.000Z</time>
      </trkpt>
      <trkpt lat="45.95144" lon="6.51851">
        <ele>1237.1999511719</ele>
        <time>2015-02-07T14:35:57.000Z</time>
      </trkpt>
      <trkpt lat="45.95141" lon="6.51848">
        <ele>1236.1999511719</ele>
        <time>2015-02-07T14:35:59.000Z</time>
      </trkpt>
      <trkpt lat="45.9514" lon="6.51846">
        <ele>1234.8000488281</ele>
        <time>2015-02-07T14:36:00.000Z</time>
      </trkpt>
      <trkpt lat="45.9514" lon="6.51842">
        <ele>1234</ele>
        <time>2015-02-07T14:36:01.000Z</time>
      </trkpt>
      <trkpt lat="45.9514" lon="6.51838">
        <ele>1233.4000244141</ele>
        <time>2015-02-07T14:36:02.000Z</time>
      </trkpt>
      <trkpt lat="45.95138" lon="6.51824">
        <ele>1232.4000244141</ele>
        <time>2015-02-07T14:36:05.000Z</time>
      </trkpt>
      <trkpt lat="45.95137" lon="6.5182">
        <ele>1232.1999511719</ele>
        <time>2015-02-07T14:36:06.000Z</time>
      </trkpt>
      <trkpt lat="45.95136" lon="6.51816">
        <ele>1232.1999511719</ele>
        <time>2015-02-07T14:36:07.000Z</time>
      </trkpt>
      <trkpt lat="45.95136" lon="6.51789">
        <ele>1231.5999755859</ele>
        <time>2015-02-07T14:36:13.000Z</time>
      </trkpt>
      <trkpt lat="45.95128" lon="6.5178">
        <ele>1231</ele>
        <time>2015-02-07T14:36:17.000Z</time>
      </trkpt>
      <trkpt lat="45.95124" lon="6.51775">
        <ele>1230.1999511719</ele>
        <time>2015-02-07T14:36:23.000Z</time>
      </trkpt>
      <trkpt lat="45.95123" lon="6.51773">
        <ele>1230</ele>
        <time>2015-02-07T14:36:24.000Z</time>
      </trkpt>
      <trkpt lat="45.95117" lon="6.51762">
        <ele>1229.4000244141</ele>
        <time>2015-02-07T14:36:27.000Z</time>
      </trkpt>
      <trkpt lat="45.95112" lon="6.5175">
        <ele>1228.5999755859</ele>
        <time>2015-02-07T14:36:29.000Z</time>
      </trkpt>
      <trkpt lat="45.95107" lon="6.51736">
        <ele>1227.4000244141</ele>
        <time>2015-02-07T14:36:31.000Z</time>
      </trkpt>
      <trkpt lat="45.95103" lon="6.5172">
        <ele>1225.8000488281</ele>
        <time>2015-02-07T14:36:33.000Z</time>
      </trkpt>
      <trkpt lat="45.95098" lon="6.51701">
        <ele>1223.8000488281</ele>
        <time>2015-02-07T14:36:35.000Z</time>
      </trkpt>
      <trkpt lat="45.95095" lon="6.51691">
        <ele>1222.5999755859</ele>
        <time>2015-02-07T14:36:36.000Z</time>
      </trkpt>
      <trkpt lat="45.95093" lon="6.5168">
        <ele>1221.4000244141</ele>
        <time>2015-02-07T14:36:37.000Z</time>
      </trkpt>
      <trkpt lat="45.9509" lon="6.51669">
        <ele>1220.1999511719</ele>
        <time>2015-02-07T14:36:38.000Z</time>
      </trkpt>
      <trkpt lat="45.95088" lon="6.51657">
        <ele>1218.8000488281</ele>
        <time>2015-02-07T14:36:39.000Z</time>
      </trkpt>
      <trkpt lat="45.95085" lon="6.51647">
        <ele>1217.4000244141</ele>
        <time>2015-02-07T14:36:40.000Z</time>
      </trkpt>
      <trkpt lat="45.95082" lon="6.51637">
        <ele>1216</ele>
        <time>2015-02-07T14:36:41.000Z</time>
      </trkpt>
      <trkpt lat="45.95079" lon="6.51628">
        <ele>1214.5999755859</ele>
        <time>2015-02-07T14:36:42.000Z</time>
      </trkpt>
      <trkpt lat="45.95076" lon="6.51618">
        <ele>1213.4000244141</ele>
        <time>2015-02-07T14:36:43.000Z</time>
      </trkpt>
      <trkpt lat="45.95072" lon="6.51609">
        <ele>1212.1999511719</ele>
        <time>2015-02-07T14:36:44.000Z</time>
      </trkpt>
      <trkpt lat="45.95068" lon="6.516">
        <ele>1211</ele>
        <time>2015-02-07T14:36:45.000Z</time>
      </trkpt>
      <trkpt lat="45.95065" lon="6.51591">
        <ele>1209.8000488281</ele>
        <time>2015-02-07T14:36:46.000Z</time>
      </trkpt>
      <trkpt lat="45.95063" lon="6.51583">
        <ele>1208.5999755859</ele>
        <time>2015-02-07T14:36:47.000Z</time>
      </trkpt>
      <trkpt lat="45.9506" lon="6.51574">
        <ele>1206.1999511719</ele>
        <time>2015-02-07T14:36:48.000Z</time>
      </trkpt>
      <trkpt lat="45.95058" lon="6.51564">
        <ele>1205</ele>
        <time>2015-02-07T14:36:49.000Z</time>
      </trkpt>
      <trkpt lat="45.95056" lon="6.51555">
        <ele>1204.1999511719</ele>
        <time>2015-02-07T14:36:50.000Z</time>
      </trkpt>
      <trkpt lat="45.95054" lon="6.51544">
        <ele>1203.4000244141</ele>
        <time>2015-02-07T14:36:51.000Z</time>
      </trkpt>
      <trkpt lat="45.95051" lon="6.51522">
        <ele>1201.4000244141</ele>
        <time>2015-02-07T14:36:53.000Z</time>
      </trkpt>
      <trkpt lat="45.95047" lon="6.515">
        <ele>1199.5999755859</ele>
        <time>2015-02-07T14:36:55.000Z</time>
      </trkpt>
      <trkpt lat="45.95044" lon="6.51489">
        <ele>1198.4000244141</ele>
        <time>2015-02-07T14:36:56.000Z</time>
      </trkpt>
      <trkpt lat="45.95042" lon="6.51479">
        <ele>1197</ele>
        <time>2015-02-07T14:36:57.000Z</time>
      </trkpt>
      <trkpt lat="45.95039" lon="6.51469">
        <ele>1195.5999755859</ele>
        <time>2015-02-07T14:36:58.000Z</time>
      </trkpt>
      <trkpt lat="45.95036" lon="6.51458">
        <ele>1194</ele>
        <time>2015-02-07T14:36:59.000Z</time>
      </trkpt>
      <trkpt lat="45.95033" lon="6.51448">
        <ele>1192.5999755859</ele>
        <time>2015-02-07T14:37:00.000Z</time>
      </trkpt>
      <trkpt lat="45.9503" lon="6.51437">
        <ele>1191.4000244141</ele>
        <time>2015-02-07T14:37:01.000Z</time>
      </trkpt>
      <trkpt lat="45.95028" lon="6.51428">
        <ele>1190.4000244141</ele>
        <time>2015-02-07T14:37:02.000Z</time>
      </trkpt>
      <trkpt lat="45.95025" lon="6.5142">
        <ele>1189.4000244141</ele>
        <time>2015-02-07T14:37:03.000Z</time>
      </trkpt>
      <trkpt lat="45.95021" lon="6.51413">
        <ele>1188.5999755859</ele>
        <time>2015-02-07T14:37:04.000Z</time>
      </trkpt>
      <trkpt lat="45.95018" lon="6.51406">
        <ele>1187.8000488281</ele>
        <time>2015-02-07T14:37:05.000Z</time>
      </trkpt>
      <trkpt lat="45.95015" lon="6.514">
        <ele>1187</ele>
        <time>2015-02-07T14:37:06.000Z</time>
      </trkpt>
      <trkpt lat="45.95003" lon="6.5139">
        <ele>1185.4000244141</ele>
        <time>2015-02-07T14:37:08.000Z</time>
      </trkpt>
      <trkpt lat="45.9499" lon="6.51379">
        <ele>1184</ele>
        <time>2015-02-07T14:37:10.000Z</time>
      </trkpt>
      <trkpt lat="45.94984" lon="6.51373">
        <ele>1183.1999511719</ele>
        <time>2015-02-07T14:37:11.000Z</time>
      </trkpt>
      <trkpt lat="45.94981" lon="6.51366">
        <ele>1181.5999755859</ele>
        <time>2015-02-07T14:37:12.000Z</time>
      </trkpt>
      <trkpt lat="45.94972" lon="6.5135">
        <ele>1180</ele>
        <time>2015-02-07T14:37:14.000Z</time>
      </trkpt>
      <trkpt lat="45.94968" lon="6.51342">
        <ele>1179</ele>
        <time>2015-02-07T14:37:15.000Z</time>
      </trkpt>
      <trkpt lat="45.94967" lon="6.51333">
        <ele>1178</ele>
        <time>2015-02-07T14:37:16.000Z</time>
      </trkpt>
      <trkpt lat="45.94965" lon="6.51325">
        <ele>1176.8000488281</ele>
        <time>2015-02-07T14:37:17.000Z</time>
      </trkpt>
      <trkpt lat="45.9496" lon="6.51311">
        <ele>1175.1999511719</ele>
        <time>2015-02-07T14:37:19.000Z</time>
      </trkpt>
      <trkpt lat="45.94958" lon="6.51305">
        <ele>1174.5999755859</ele>
        <time>2015-02-07T14:37:20.000Z</time>
      </trkpt>
      <trkpt lat="45.94955" lon="6.51299">
        <ele>1173.8000488281</ele>
        <time>2015-02-07T14:37:21.000Z</time>
      </trkpt>
      <trkpt lat="45.9495" lon="6.51289">
        <ele>1172.4000244141</ele>
        <time>2015-02-07T14:37:23.000Z</time>
      </trkpt>
      <trkpt lat="45.94947" lon="6.51286">
        <ele>1171.4000244141</ele>
        <time>2015-02-07T14:37:24.000Z</time>
      </trkpt>
      <trkpt lat="45.94942" lon="6.5128">
        <ele>1169.8000488281</ele>
        <time>2015-02-07T14:37:26.000Z</time>
      </trkpt>
      <trkpt lat="45.94938" lon="6.51277">
        <ele>1169.4000244141</ele>
        <time>2015-02-07T14:37:27.000Z</time>
      </trkpt>
      <trkpt lat="45.94934" lon="6.51275">
        <ele>1168.8000488281</ele>
        <time>2015-02-07T14:37:30.000Z</time>
      </trkpt>
      <trkpt lat="45.94929" lon="6.51274">
        <ele>1168.8000488281</ele>
        <time>2015-02-07T14:37:35.000Z</time>
      </trkpt>
      <trkpt lat="45.94915" lon="6.5127">
        <ele>1168</ele>
        <time>2015-02-07T14:37:39.000Z</time>
      </trkpt>
      <trkpt lat="45.94913" lon="6.51268">
        <ele>1167.5999755859</ele>
        <time>2015-02-07T14:37:41.000Z</time>
      </trkpt>
      <trkpt lat="45.94906" lon="6.5126">
        <ele>1167.4000244141</ele>
        <time>2015-02-07T14:37:44.000Z</time>
      </trkpt>
      <trkpt lat="45.949" lon="6.51252">
        <ele>1166.5999755859</ele>
        <time>2015-02-07T14:37:50.000Z</time>
      </trkpt>
      <trkpt lat="45.94898" lon="6.51248">
        <ele>1166.1999511719</ele>
        <time>2015-02-07T14:37:52.000Z</time>
      </trkpt>
      <trkpt lat="45.94895" lon="6.5124">
        <ele>1165.5999755859</ele>
        <time>2015-02-07T14:37:54.000Z</time>
      </trkpt>
      <trkpt lat="45.94891" lon="6.51226">
        <ele>1164.4000244141</ele>
        <time>2015-02-07T14:37:57.000Z</time>
      </trkpt>
      <trkpt lat="45.94888" lon="6.51214">
        <ele>1163</ele>
        <time>2015-02-07T14:38:00.000Z</time>
      </trkpt>
      <trkpt lat="45.94886" lon="6.51214">
        <ele>1162.4000244141</ele>
        <time>2015-02-07T14:38:02.000Z</time>
      </trkpt>
      <trkpt lat="45.94885" lon="6.51204">
        <ele>1162</ele>
        <time>2015-02-07T14:38:09.000Z</time>
      </trkpt>
      <trkpt lat="45.94885" lon="6.51199">
        <ele>1161.8000488281</ele>
        <time>2015-02-07T14:38:11.000Z</time>
      </trkpt>
      <trkpt lat="45.94884" lon="6.51197">
        <ele>1161.5999755859</ele>
        <time>2015-02-07T14:38:12.000Z</time>
      </trkpt>
      <trkpt lat="45.9488" lon="6.51193">
        <ele>1160.8000488281</ele>
        <time>2015-02-07T14:38:14.000Z</time>
      </trkpt>
      <trkpt lat="45.94875" lon="6.51188">
        <ele>1159.4000244141</ele>
        <time>2015-02-07T14:38:17.000Z</time>
      </trkpt>
      <trkpt lat="45.94873" lon="6.51183">
        <ele>1158.4000244141</ele>
        <time>2015-02-07T14:38:20.000Z</time>
      </trkpt>
      <trkpt lat="45.94872" lon="6.5118">
        <ele>1157.5999755859</ele>
        <time>2015-02-07T14:38:28.000Z</time>
      </trkpt>
      <trkpt lat="45.94872" lon="6.5118">
        <ele>1157.1999511719</ele>
        <time>2015-02-07T14:38:34.000Z</time>
      </trkpt>
      <trkpt lat="45.94872" lon="6.5118">
        <ele>1157.5999755859</ele>
        <time>2015-02-07T14:38:42.000Z</time>
      </trkpt>
      <trkpt lat="45.94873" lon="6.51174">
        <ele>1157.4000244141</ele>
        <time>2015-02-07T14:38:51.000Z</time>
      </trkpt>
      <trkpt lat="45.94869" lon="6.51166">
        <ele>1157</ele>
        <time>2015-02-07T14:38:57.000Z</time>
      </trkpt>
      <trkpt lat="45.94863" lon="6.51161">
        <ele>1156.4000244141</ele>
        <time>2015-02-07T14:39:06.000Z</time>
      </trkpt>
      <trkpt lat="45.94863" lon="6.51161">
        <ele>1156.1999511719</ele>
        <time>2015-02-07T14:39:07.000Z</time>
      </trkpt>
      <trkpt lat="45.94863" lon="6.51161">
        <ele>1156</ele>
        <time>2015-02-07T14:39:14.000Z</time>
      </trkpt>
      <trkpt lat="45.94863" lon="6.51161">
        <ele>1156</ele>
        <time>2015-02-07T14:39:26.000Z</time>
      </trkpt>
      <trkpt lat="45.94863" lon="6.51161">
        <ele>1156</ele>
        <time>2015-02-07T14:39:38.000Z</time>
      </trkpt>
      <trkpt lat="45.94863" lon="6.5116">
        <ele>1156</ele>
        <time>2015-02-07T14:39:51.000Z</time>
      </trkpt>
      <trkpt lat="45.94867" lon="6.51162">
        <ele>1155.8000488281</ele>
        <time>2015-02-07T14:40:02.000Z</time>
      </trkpt>
      <trkpt lat="45.94867" lon="6.51162">
        <ele>1155.8000488281</ele>
        <time>2015-02-07T14:40:12.000Z</time>
      </trkpt>
      <trkpt lat="45.94867" lon="6.51162">
        <ele>1155.5999755859</ele>
        <time>2015-02-07T14:40:22.000Z</time>
      </trkpt>
      <trkpt lat="45.94876" lon="6.51164">
        <ele>1155.8000488281</ele>
        <time>2015-02-07T14:40:35.000Z</time>
      </trkpt>
      <trkpt lat="45.94876" lon="6.51164">
        <ele>1156.1999511719</ele>
        <time>2015-02-07T14:40:48.000Z</time>
      </trkpt>
      <trkpt lat="45.94874" lon="6.51162">
        <ele>1156</ele>
        <time>2015-02-07T14:40:58.000Z</time>
      </trkpt>
      <trkpt lat="45.94875" lon="6.51162">
        <ele>1156</ele>
        <time>2015-02-07T14:41:08.000Z</time>
      </trkpt>
      <trkpt lat="45.94875" lon="6.51162">
        <ele>1155.4000244141</ele>
        <time>2015-02-07T14:41:19.000Z</time>
      </trkpt>
      <trkpt lat="45.94875" lon="6.51162">
        <ele>1155.8000488281</ele>
        <time>2015-02-07T14:41:30.000Z</time>
      </trkpt>
      <trkpt lat="45.94874" lon="6.51162">
        <ele>1155.5999755859</ele>
        <time>2015-02-07T14:41:42.000Z</time>
      </trkpt>
      <trkpt lat="45.94874" lon="6.51162">
        <ele>1155.5999755859</ele>
        <time>2015-02-07T14:41:58.000Z</time>
      </trkpt>
      <trkpt lat="45.94874" lon="6.51161">
        <ele>1155.5999755859</ele>
        <time>2015-02-07T14:42:14.000Z</time>
      </trkpt>
      <trkpt lat="45.94874" lon="6.51161">
        <ele>1155.4000244141</ele>
        <time>2015-02-07T14:42:26.000Z</time>
      </trkpt>
      <trkpt lat="45.94874" lon="6.51161">
        <ele>1155.1999511719</ele>
        <time>2015-02-07T14:42:31.000Z</time>
      </trkpt>
      <trkpt lat="45.94874" lon="6.51161">
        <ele>1155.4000244141</ele>
        <time>2015-02-07T14:42:37.000Z</time>
      </trkpt>
      <trkpt lat="45.94874" lon="6.51161">
        <ele>1155.4000244141</ele>
        <time>2015-02-07T14:42:49.000Z</time>
      </trkpt>
      <trkpt lat="45.94874" lon="6.51161">
        <ele>1155.1999511719</ele>
        <time>2015-02-07T14:43:02.000Z</time>
      </trkpt>
      <trkpt lat="45.94874" lon="6.51161">
        <ele>1155.4000244141</ele>
        <time>2015-02-07T14:43:15.000Z</time>
      </trkpt>
      <trkpt lat="45.94874" lon="6.51161">
        <ele>1155.4000244141</ele>
        <time>2015-02-07T14:43:29.000Z</time>
      </trkpt>
      <trkpt lat="45.94874" lon="6.51161">
        <ele>1155</ele>
        <time>2015-02-07T14:43:38.000Z</time>
      </trkpt>
      <trkpt lat="45.94874" lon="6.51161">
        <ele>1155.1999511719</ele>
        <time>2015-02-07T14:43:52.000Z</time>
      </trkpt>
      <trkpt lat="45.94874" lon="6.51161">
        <ele>1155</ele>
        <time>2015-02-07T14:44:03.000Z</time>
      </trkpt>
      <trkpt lat="45.94874" lon="6.51161">
        <ele>1155.4000244141</ele>
        <time>2015-02-07T14:44:13.000Z</time>
      </trkpt>
      <trkpt lat="45.94875" lon="6.5116">
        <ele>1155.1999511719</ele>
        <time>2015-02-07T14:44:22.000Z</time>
      </trkpt>
      <trkpt lat="45.94875" lon="6.5116">
        <ele>1155.1999511719</ele>
        <time>2015-02-07T14:44:33.000Z</time>
      </trkpt>
      <trkpt lat="45.94875" lon="6.5116">
        <ele>1155.1999511719</ele>
        <time>2015-02-07T14:44:47.000Z</time>
      </trkpt>
      <trkpt lat="45.94874" lon="6.5116">
        <ele>1155.1999511719</ele>
        <time>2015-02-07T14:44:56.000Z</time>
      </trkpt>
      <trkpt lat="45.94874" lon="6.5116">
        <ele>1155.1999511719</ele>
        <time>2015-02-07T14:45:09.000Z</time>
      </trkpt>
      <trkpt lat="45.94874" lon="6.5116">
        <ele>1155</ele>
        <time>2015-02-07T14:45:23.000Z</time>
      </trkpt>
      <trkpt lat="45.94874" lon="6.5116">
        <ele>1155</ele>
        <time>2015-02-07T14:45:36.000Z</time>
      </trkpt>
      <trkpt lat="45.94874" lon="6.5116">
        <ele>1155</ele>
        <time>2015-02-07T14:45:46.000Z</time>
      </trkpt>
      <trkpt lat="45.94874" lon="6.5116">
        <ele>1155</ele>
        <time>2015-02-07T14:46:03.000Z</time>
      </trkpt>
      <trkpt lat="45.94874" lon="6.51159">
        <ele>1155.1999511719</ele>
        <time>2015-02-07T14:46:15.000Z</time>
      </trkpt>
      <trkpt lat="45.94875" lon="6.51158">
        <ele>1155</ele>
        <time>2015-02-07T14:46:28.000Z</time>
      </trkpt>
    </trkseg>
  </trk>
</gpx>